<?xml version='1.0' encoding='UTF-8'?><gpx version="1.1" creator="JPX - https://github.com/jenetics/jpx" xmlns="http://www.topografix.com/GPX/1/1"><trk><trkseg><trkpt lat="43.9819917" lon="12.49352"><ele>63.0</ele><time>2026-04-11T06:39:08.994Z</time></trkpt><trkpt lat="43.9820967" lon="12.4934967"><ele>63.0</ele><time>2026-04-11T06:40:45.994Z</time></trkpt><trkpt lat="43.9819917" lon="12.4934933"><ele>63.0</ele><time>2026-04-11T06:41:22.994Z</time></trkpt><trkpt lat="43.9819633" lon="12.4934067"><ele>63.0</ele><time>2026-04-11T06:41:25.995Z</time></trkpt><trkpt lat="43.9820217" lon="12.49329"><ele>63.0</ele><time>2026-04-11T06:41:28.994Z</time></trkpt><trkpt lat="43.982065" lon="12.493205"><ele>63.0</ele><time>2026-04-11T06:41:30.995Z</time></trkpt><trkpt lat="43.9821033" lon="12.4931317"><ele>63.0</ele><time>2026-04-11T06:41:32.994Z</time></trkpt><trkpt lat="43.9821717" lon="12.4930417"><ele>63.0</ele><time>2026-04-11T06:41:35.994Z</time></trkpt><trkpt lat="43.9822433" lon="12.4928967"><ele>63.0</ele><time>2026-04-11T06:41:37.994Z</time></trkpt><trkpt lat="43.9822817" lon="12.4928117"><ele>63.0</ele><time>2026-04-11T06:41:38.994Z</time></trkpt><trkpt lat="43.982335" lon="12.4927383"><ele>63.0</ele><time>2026-04-11T06:41:39.994Z</time></trkpt><trkpt lat="43.9823967" lon="12.4926683"><ele>63.5</ele><time>2026-04-11T06:41:40.994Z</time></trkpt><trkpt lat="43.98247" lon="12.4926117"><ele>64.0</ele><time>2026-04-11T06:41:41.994Z</time></trkpt><trkpt lat="43.98254" lon="12.49257"><ele>64.5</ele><time>2026-04-11T06:41:42.994Z</time></trkpt><trkpt lat="43.982625" lon="12.492555"><ele>65.0</ele><time>2026-04-11T06:41:43.995Z</time></trkpt><trkpt lat="43.9827083" lon="12.4925317"><ele>65.5</ele><time>2026-04-11T06:41:44.995Z</time></trkpt><trkpt lat="43.9827917" lon="12.4925217"><ele>66.0</ele><time>2026-04-11T06:41:45.995Z</time></trkpt><trkpt lat="43.98288" lon="12.4925267"><ele>67.5</ele><time>2026-04-11T06:41:46.995Z</time></trkpt><trkpt lat="43.982955" lon="12.4924917"><ele>69.0</ele><time>2026-04-11T06:41:47.994Z</time></trkpt><trkpt lat="43.9830117" lon="12.49243"><ele>70.5</ele><time>2026-04-11T06:41:48.994Z</time></trkpt><trkpt lat="43.9830417" lon="12.49233"><ele>72.0</ele><time>2026-04-11T06:41:49.994Z</time></trkpt><trkpt lat="43.9830483" lon="12.492215"><ele>73.5</ele><time>2026-04-11T06:41:50.994Z</time></trkpt><trkpt lat="43.98305" lon="12.4920883"><ele>75.0</ele><time>2026-04-11T06:41:51.994Z</time></trkpt><trkpt lat="43.98307" lon="12.49197"><ele>76.2</ele><time>2026-04-11T06:41:52.994Z</time></trkpt><trkpt lat="43.9830933" lon="12.4918333"><ele>77.4</ele><time>2026-04-11T06:41:53.994Z</time></trkpt><trkpt lat="43.9831367" lon="12.491705"><ele>78.6</ele><time>2026-04-11T06:41:54.994Z</time></trkpt><trkpt lat="43.9832067" lon="12.49158"><ele>79.8</ele><time>2026-04-11T06:41:55.994Z</time></trkpt><trkpt lat="43.9832567" lon="12.491415"><ele>81.0</ele><time>2026-04-11T06:41:56.994Z</time></trkpt><trkpt lat="43.9833017" lon="12.4912517"><ele>81.5</ele><time>2026-04-11T06:41:57.994Z</time></trkpt><trkpt lat="43.9833417" lon="12.4910833"><ele>82.0</ele><time>2026-04-11T06:41:58.994Z</time></trkpt><trkpt lat="43.9833867" lon="12.4909017"><ele>82.5</ele><time>2026-04-11T06:41:59.994Z</time></trkpt><trkpt lat="43.98343" lon="12.4907233"><ele>83.0</ele><time>2026-04-11T06:42:00.995Z</time></trkpt><trkpt lat="43.9834533" lon="12.4905417"><ele>84.5</ele><time>2026-04-11T06:42:01.994Z</time></trkpt><trkpt lat="43.9834567" lon="12.4903533"><ele>86.0</ele><time>2026-04-11T06:42:02.994Z</time></trkpt><trkpt lat="43.983445" lon="12.49017"><ele>87.5</ele><time>2026-04-11T06:42:03.994Z</time></trkpt><trkpt lat="43.983425" lon="12.4899933"><ele>89.0</ele><time>2026-04-11T06:42:04.995Z</time></trkpt><trkpt lat="43.983385" lon="12.4898333"><ele>89.0</ele><time>2026-04-11T06:42:05.994Z</time></trkpt><trkpt lat="43.9833617" lon="12.4896767"><ele>89.0</ele><time>2026-04-11T06:42:06.994Z</time></trkpt><trkpt lat="43.983345" lon="12.4895317"><ele>89.0</ele><time>2026-04-11T06:42:07.994Z</time></trkpt><trkpt lat="43.983345" lon="12.4894067"><ele>89.0</ele><time>2026-04-11T06:42:08.994Z</time></trkpt><trkpt lat="43.9833583" lon="12.4893167"><ele>89.0</ele><time>2026-04-11T06:42:09.995Z</time></trkpt><trkpt lat="43.9833667" lon="12.48919"><ele>88.83333333333334</ele><time>2026-04-11T06:42:11.995Z</time></trkpt><trkpt lat="43.9832833" lon="12.48909"><ele>88.66666666666667</ele><time>2026-04-11T06:42:31.995Z</time></trkpt><trkpt lat="43.9832383" lon="12.489015"><ele>88.5</ele><time>2026-04-11T06:42:32.995Z</time></trkpt><trkpt lat="43.9831883" lon="12.4889317"><ele>88.33333333333333</ele><time>2026-04-11T06:42:33.994Z</time></trkpt><trkpt lat="43.983125" lon="12.4888483"><ele>88.16666666666666</ele><time>2026-04-11T06:42:34.995Z</time></trkpt><trkpt lat="43.98304" lon="12.4887683"><ele>88.0</ele><time>2026-04-11T06:42:35.994Z</time></trkpt><trkpt lat="43.9829483" lon="12.488695"><ele>88.0</ele><time>2026-04-11T06:42:36.994Z</time></trkpt><trkpt lat="43.982845" lon="12.4886083"><ele>88.0</ele><time>2026-04-11T06:42:37.994Z</time></trkpt><trkpt lat="43.98274" lon="12.488505"><ele>88.0</ele><time>2026-04-11T06:42:38.994Z</time></trkpt><trkpt lat="43.9826467" lon="12.488375"><ele>88.0</ele><time>2026-04-11T06:42:39.994Z</time></trkpt><trkpt lat="43.9825667" lon="12.4882217"><ele>87.5</ele><time>2026-04-11T06:42:40.995Z</time></trkpt><trkpt lat="43.982495" lon="12.4880533"><ele>87.0</ele><time>2026-04-11T06:42:41.994Z</time></trkpt><trkpt lat="43.9824267" lon="12.487885"><ele>86.5</ele><time>2026-04-11T06:42:42.994Z</time></trkpt><trkpt lat="43.98236" lon="12.4877117"><ele>86.0</ele><time>2026-04-11T06:42:43.995Z</time></trkpt><trkpt lat="43.98229" lon="12.4875383"><ele>86.0</ele><time>2026-04-11T06:42:44.994Z</time></trkpt><trkpt lat="43.982215" lon="12.4873583"><ele>86.0</ele><time>2026-04-11T06:42:45.994Z</time></trkpt><trkpt lat="43.9821383" lon="12.4871783"><ele>86.0</ele><time>2026-04-11T06:42:46.995Z</time></trkpt><trkpt lat="43.9820633" lon="12.487"><ele>86.0</ele><time>2026-04-11T06:42:47.994Z</time></trkpt><trkpt lat="43.9819867" lon="12.4868067"><ele>88.66666666666667</ele><time>2026-04-11T06:42:48.994Z</time></trkpt><trkpt lat="43.9819033" lon="12.4866217"><ele>91.33333333333333</ele><time>2026-04-11T06:42:49.995Z</time></trkpt><trkpt lat="43.9818367" lon="12.4864217"><ele>94.0</ele><time>2026-04-11T06:42:50.994Z</time></trkpt><trkpt lat="43.9817667" lon="12.4862333"><ele>93.25</ele><time>2026-04-11T06:42:51.995Z</time></trkpt><trkpt lat="43.9817017" lon="12.48605"><ele>92.5</ele><time>2026-04-11T06:42:52.994Z</time></trkpt><trkpt lat="43.9816333" lon="12.4858717"><ele>91.75</ele><time>2026-04-11T06:42:53.995Z</time></trkpt><trkpt lat="43.981565" lon="12.4857033"><ele>91.0</ele><time>2026-04-11T06:42:54.994Z</time></trkpt><trkpt lat="43.9815033" lon="12.4855267"><ele>91.75</ele><time>2026-04-11T06:42:55.994Z</time></trkpt><trkpt lat="43.981455" lon="12.4853367"><ele>92.5</ele><time>2026-04-11T06:42:56.995Z</time></trkpt><trkpt lat="43.9813967" lon="12.4851467"><ele>93.25</ele><time>2026-04-11T06:42:57.994Z</time></trkpt><trkpt lat="43.9813617" lon="12.48494"><ele>94.0</ele><time>2026-04-11T06:42:58.995Z</time></trkpt><trkpt lat="43.9813367" lon="12.484715"><ele>96.33333333333333</ele><time>2026-04-11T06:42:59.995Z</time></trkpt><trkpt lat="43.9813067" lon="12.48449"><ele>98.66666666666666</ele><time>2026-04-11T06:43:00.994Z</time></trkpt><trkpt lat="43.98127" lon="12.484275"><ele>101.0</ele><time>2026-04-11T06:43:01.994Z</time></trkpt><trkpt lat="43.9811933" lon="12.4838367"><ele>103.0</ele><time>2026-04-11T06:43:03.994Z</time></trkpt><trkpt lat="43.9811533" lon="12.48361"><ele>105.0</ele><time>2026-04-11T06:43:04.994Z</time></trkpt><trkpt lat="43.9811217" lon="12.48338"><ele>107.0</ele><time>2026-04-11T06:43:05.994Z</time></trkpt><trkpt lat="43.9810933" lon="12.4831567"><ele>107.0</ele><time>2026-04-11T06:43:06.995Z</time></trkpt><trkpt lat="43.98108" lon="12.4829317"><ele>107.0</ele><time>2026-04-11T06:43:07.994Z</time></trkpt><trkpt lat="43.9810783" lon="12.4826917"><ele>107.0</ele><time>2026-04-11T06:43:08.994Z</time></trkpt><trkpt lat="43.981095" lon="12.482455"><ele>107.66666666666666</ele><time>2026-04-11T06:43:09.994Z</time></trkpt><trkpt lat="43.9811367" lon="12.4822183"><ele>108.33333333333334</ele><time>2026-04-11T06:43:10.994Z</time></trkpt><trkpt lat="43.9811683" lon="12.4819733"><ele>109.0</ele><time>2026-04-11T06:43:11.994Z</time></trkpt><trkpt lat="43.9811933" lon="12.481715"><ele>110.0</ele><time>2026-04-11T06:43:12.994Z</time></trkpt><trkpt lat="43.9811933" lon="12.48146"><ele>111.0</ele><time>2026-04-11T06:43:13.995Z</time></trkpt><trkpt lat="43.9811467" lon="12.4809717"><ele>113.33333333333334</ele><time>2026-04-11T06:43:15.994Z</time></trkpt><trkpt lat="43.9811067" lon="12.4807283"><ele>115.66666666666667</ele><time>2026-04-11T06:43:16.994Z</time></trkpt><trkpt lat="43.9811017" lon="12.4804917"><ele>118.0</ele><time>2026-04-11T06:43:17.994Z</time></trkpt><trkpt lat="43.9811183" lon="12.4802517"><ele>118.5</ele><time>2026-04-11T06:43:18.995Z</time></trkpt><trkpt lat="43.981115" lon="12.48003"><ele>119.0</ele><time>2026-04-11T06:43:19.994Z</time></trkpt><trkpt lat="43.9811017" lon="12.47985"><ele>119.5</ele><time>2026-04-11T06:43:20.994Z</time></trkpt><trkpt lat="43.9810467" lon="12.47969"><ele>120.0</ele><time>2026-04-11T06:43:21.994Z</time></trkpt><trkpt lat="43.9809683" lon="12.479555"><ele>120.4</ele><time>2026-04-11T06:43:22.994Z</time></trkpt><trkpt lat="43.9808917" lon="12.4794417"><ele>120.8</ele><time>2026-04-11T06:43:23.995Z</time></trkpt><trkpt lat="43.9808117" lon="12.4793633"><ele>121.19999999999999</ele><time>2026-04-11T06:43:24.994Z</time></trkpt><trkpt lat="43.98073" lon="12.4793367"><ele>121.6</ele><time>2026-04-11T06:43:25.994Z</time></trkpt><trkpt lat="43.9806533" lon="12.479365"><ele>122.0</ele><time>2026-04-11T06:43:26.994Z</time></trkpt><trkpt lat="43.98059" lon="12.4794367"><ele>119.19999999999999</ele><time>2026-04-11T06:43:27.994Z</time></trkpt><trkpt lat="43.9805183" lon="12.479535"><ele>116.39999999999999</ele><time>2026-04-11T06:43:28.994Z</time></trkpt><trkpt lat="43.9804367" lon="12.4796383"><ele>113.60000000000001</ele><time>2026-04-11T06:43:29.994Z</time></trkpt><trkpt lat="43.9803483" lon="12.4797217"><ele>110.80000000000001</ele><time>2026-04-11T06:43:30.994Z</time></trkpt><trkpt lat="43.9802383" lon="12.4797767"><ele>108.0</ele><time>2026-04-11T06:43:31.994Z</time></trkpt><trkpt lat="43.9801133" lon="12.4798"><ele>109.0</ele><time>2026-04-11T06:43:32.994Z</time></trkpt><trkpt lat="43.9799867" lon="12.4798267"><ele>110.0</ele><time>2026-04-11T06:43:33.995Z</time></trkpt><trkpt lat="43.9798567" lon="12.4798483"><ele>111.0</ele><time>2026-04-11T06:43:34.994Z</time></trkpt><trkpt lat="43.9797217" lon="12.4798783"><ele>112.0</ele><time>2026-04-11T06:43:35.994Z</time></trkpt><trkpt lat="43.9795867" lon="12.479915"><ele>112.0</ele><time>2026-04-11T06:43:36.995Z</time></trkpt><trkpt lat="43.97945" lon="12.47995"><ele>112.0</ele><time>2026-04-11T06:43:37.995Z</time></trkpt><trkpt lat="43.9793183" lon="12.47998"><ele>112.0</ele><time>2026-04-11T06:43:38.994Z</time></trkpt><trkpt lat="43.9791833" lon="12.48001"><ele>112.0</ele><time>2026-04-11T06:43:39.994Z</time></trkpt><trkpt lat="43.97905" lon="12.480035"><ele>114.75</ele><time>2026-04-11T06:43:40.994Z</time></trkpt><trkpt lat="43.9789117" lon="12.4800683"><ele>117.5</ele><time>2026-04-11T06:43:41.994Z</time></trkpt><trkpt lat="43.9787767" lon="12.4801067"><ele>120.25</ele><time>2026-04-11T06:43:42.994Z</time></trkpt><trkpt lat="43.978645" lon="12.4801383"><ele>123.0</ele><time>2026-04-11T06:43:43.994Z</time></trkpt><trkpt lat="43.9785283" lon="12.48018"><ele>123.0</ele><time>2026-04-11T06:43:44.994Z</time></trkpt><trkpt lat="43.978425" lon="12.4802033"><ele>123.0</ele><time>2026-04-11T06:43:45.995Z</time></trkpt><trkpt lat="43.9783383" lon="12.4802067"><ele>123.0</ele><time>2026-04-11T06:43:46.994Z</time></trkpt><trkpt lat="43.9782633" lon="12.4802067"><ele>123.0</ele><time>2026-04-11T06:43:47.994Z</time></trkpt><trkpt lat="43.978205" lon="12.4801617"><ele>123.0</ele><time>2026-04-11T06:43:49.994Z</time></trkpt><trkpt lat="43.978175" lon="12.480035"><ele>123.0</ele><time>2026-04-11T06:43:51.994Z</time></trkpt><trkpt lat="43.9781617" lon="12.4799217"><ele>124.25</ele><time>2026-04-11T06:43:52.995Z</time></trkpt><trkpt lat="43.97815" lon="12.479785"><ele>125.5</ele><time>2026-04-11T06:43:53.994Z</time></trkpt><trkpt lat="43.9781367" lon="12.4796333"><ele>126.75</ele><time>2026-04-11T06:43:54.994Z</time></trkpt><trkpt lat="43.9781167" lon="12.479465"><ele>128.0</ele><time>2026-04-11T06:43:55.994Z</time></trkpt><trkpt lat="43.978095" lon="12.4792767"><ele>129.25</ele><time>2026-04-11T06:43:56.994Z</time></trkpt><trkpt lat="43.9780633" lon="12.4790867"><ele>130.5</ele><time>2026-04-11T06:43:57.994Z</time></trkpt><trkpt lat="43.9780433" lon="12.4789"><ele>131.75</ele><time>2026-04-11T06:43:58.995Z</time></trkpt><trkpt lat="43.978015" lon="12.4787133"><ele>133.0</ele><time>2026-04-11T06:43:59.994Z</time></trkpt><trkpt lat="43.97799" lon="12.478525"><ele>134.5</ele><time>2026-04-11T06:44:00.994Z</time></trkpt><trkpt lat="43.97796" lon="12.4783283"><ele>136.0</ele><time>2026-04-11T06:44:01.994Z</time></trkpt><trkpt lat="43.9779417" lon="12.4781283"><ele>137.5</ele><time>2026-04-11T06:44:02.994Z</time></trkpt><trkpt lat="43.977915" lon="12.4779567"><ele>139.0</ele><time>2026-04-11T06:44:03.994Z</time></trkpt><trkpt lat="43.9778883" lon="12.4778217"><ele>139.0</ele><time>2026-04-11T06:44:04.995Z</time></trkpt><trkpt lat="43.977865" lon="12.47771"><ele>139.0</ele><time>2026-04-11T06:44:05.994Z</time></trkpt><trkpt lat="43.9778317" lon="12.4776217"><ele>139.0</ele><time>2026-04-11T06:44:06.994Z</time></trkpt><trkpt lat="43.97772" lon="12.477605"><ele>139.0</ele><time>2026-04-11T06:44:08.994Z</time></trkpt><trkpt lat="43.9776633" lon="12.4776633"><ele>139.0</ele><time>2026-04-11T06:44:09.994Z</time></trkpt><trkpt lat="43.9776217" lon="12.4777633"><ele>139.0</ele><time>2026-04-11T06:44:10.994Z</time></trkpt><trkpt lat="43.977605" lon="12.4778867"><ele>139.0</ele><time>2026-04-11T06:44:11.994Z</time></trkpt><trkpt lat="43.9776067" lon="12.47802"><ele>139.0</ele><time>2026-04-11T06:44:12.994Z</time></trkpt><trkpt lat="43.9776033" lon="12.47814"><ele>139.0</ele><time>2026-04-11T06:44:13.994Z</time></trkpt><trkpt lat="43.9775767" lon="12.4782317"><ele>139.0</ele><time>2026-04-11T06:44:14.994Z</time></trkpt><trkpt lat="43.9775133" lon="12.478265"><ele>139.0</ele><time>2026-04-11T06:44:15.995Z</time></trkpt><trkpt lat="43.97744" lon="12.4782683"><ele>139.0</ele><time>2026-04-11T06:44:16.995Z</time></trkpt><trkpt lat="43.977355" lon="12.4782517"><ele>139.6</ele><time>2026-04-11T06:44:17.994Z</time></trkpt><trkpt lat="43.977265" lon="12.478225"><ele>140.2</ele><time>2026-04-11T06:44:18.994Z</time></trkpt><trkpt lat="43.9771733" lon="12.4781883"><ele>140.79999999999998</ele><time>2026-04-11T06:44:19.994Z</time></trkpt><trkpt lat="43.9770867" lon="12.478145"><ele>141.4</ele><time>2026-04-11T06:44:20.994Z</time></trkpt><trkpt lat="43.97699" lon="12.4780867"><ele>142.0</ele><time>2026-04-11T06:44:21.994Z</time></trkpt><trkpt lat="43.9768883" lon="12.4779967"><ele>143.25</ele><time>2026-04-11T06:44:22.994Z</time></trkpt><trkpt lat="43.9767817" lon="12.4778967"><ele>144.5</ele><time>2026-04-11T06:44:23.994Z</time></trkpt><trkpt lat="43.9766733" lon="12.47778"><ele>145.75</ele><time>2026-04-11T06:44:24.994Z</time></trkpt><trkpt lat="43.9765717" lon="12.4776583"><ele>147.0</ele><time>2026-04-11T06:44:25.995Z</time></trkpt><trkpt lat="43.9764517" lon="12.4775283"><ele>147.0</ele><time>2026-04-11T06:44:26.995Z</time></trkpt><trkpt lat="43.97632" lon="12.4773967"><ele>147.0</ele><time>2026-04-11T06:44:27.995Z</time></trkpt><trkpt lat="43.9761817" lon="12.4772817"><ele>147.0</ele><time>2026-04-11T06:44:28.994Z</time></trkpt><trkpt lat="43.976035" lon="12.4771717"><ele>148.0</ele><time>2026-04-11T06:44:29.995Z</time></trkpt><trkpt lat="43.9758917" lon="12.4770717"><ele>149.0</ele><time>2026-04-11T06:44:30.994Z</time></trkpt><trkpt lat="43.9757517" lon="12.4769817"><ele>150.0</ele><time>2026-04-11T06:44:31.994Z</time></trkpt><trkpt lat="43.9756067" lon="12.4769067"><ele>150.0</ele><time>2026-04-11T06:44:32.994Z</time></trkpt><trkpt lat="43.9754483" lon="12.47682"><ele>150.0</ele><time>2026-04-11T06:44:33.994Z</time></trkpt><trkpt lat="43.9752933" lon="12.4767417"><ele>150.0</ele><time>2026-04-11T06:44:34.994Z</time></trkpt><trkpt lat="43.9751317" lon="12.4766617"><ele>149.33333333333334</ele><time>2026-04-11T06:44:35.994Z</time></trkpt><trkpt lat="43.9749733" lon="12.4765783"><ele>148.66666666666669</ele><time>2026-04-11T06:44:36.994Z</time></trkpt><trkpt lat="43.974815" lon="12.4765033"><ele>148.0</ele><time>2026-04-11T06:44:37.994Z</time></trkpt><trkpt lat="43.97465" lon="12.4764167"><ele>148.0</ele><time>2026-04-11T06:44:38.994Z</time></trkpt><trkpt lat="43.974495" lon="12.4763233"><ele>148.0</ele><time>2026-04-11T06:44:39.995Z</time></trkpt><trkpt lat="43.9743467" lon="12.476255"><ele>148.0</ele><time>2026-04-11T06:44:40.994Z</time></trkpt><trkpt lat="43.974215" lon="12.4762183"><ele>149.0</ele><time>2026-04-11T06:44:41.994Z</time></trkpt><trkpt lat="43.974085" lon="12.4761833"><ele>150.0</ele><time>2026-04-11T06:44:42.995Z</time></trkpt><trkpt lat="43.973965" lon="12.47613"><ele>151.0</ele><time>2026-04-11T06:44:43.994Z</time></trkpt><trkpt lat="43.9738533" lon="12.47609"><ele>152.0</ele><time>2026-04-11T06:44:44.994Z</time></trkpt><trkpt lat="43.973745" lon="12.4760333"><ele>152.0</ele><time>2026-04-11T06:44:45.994Z</time></trkpt><trkpt lat="43.9736383" lon="12.4759933"><ele>152.0</ele><time>2026-04-11T06:44:46.994Z</time></trkpt><trkpt lat="43.9735467" lon="12.47594"><ele>152.0</ele><time>2026-04-11T06:44:47.994Z</time></trkpt><trkpt lat="43.9734533" lon="12.4758967"><ele>152.0</ele><time>2026-04-11T06:44:48.994Z</time></trkpt><trkpt lat="43.97336" lon="12.4758383"><ele>152.0</ele><time>2026-04-11T06:44:49.994Z</time></trkpt><trkpt lat="43.9732667" lon="12.47579"><ele>150.4</ele><time>2026-04-11T06:44:50.994Z</time></trkpt><trkpt lat="43.9731817" lon="12.4756933"><ele>148.79999999999998</ele><time>2026-04-11T06:44:51.995Z</time></trkpt><trkpt lat="43.973095" lon="12.475615"><ele>147.2</ele><time>2026-04-11T06:44:52.994Z</time></trkpt><trkpt lat="43.973015" lon="12.4755317"><ele>145.6</ele><time>2026-04-11T06:44:53.994Z</time></trkpt><trkpt lat="43.9729333" lon="12.4754683"><ele>144.0</ele><time>2026-04-11T06:44:54.994Z</time></trkpt><trkpt lat="43.9728533" lon="12.475395"><ele>144.0</ele><time>2026-04-11T06:44:55.994Z</time></trkpt><trkpt lat="43.9727633" lon="12.4753183"><ele>144.0</ele><time>2026-04-11T06:44:56.994Z</time></trkpt><trkpt lat="43.9726867" lon="12.475245"><ele>144.0</ele><time>2026-04-11T06:44:57.994Z</time></trkpt><trkpt lat="43.972605" lon="12.475165"><ele>144.0</ele><time>2026-04-11T06:44:58.995Z</time></trkpt><trkpt lat="43.9725117" lon="12.4750933"><ele>144.0</ele><time>2026-04-11T06:44:59.995Z</time></trkpt><trkpt lat="43.9724317" lon="12.475015"><ele>141.4</ele><time>2026-04-11T06:45:00.994Z</time></trkpt><trkpt lat="43.9723533" lon="12.4749467"><ele>138.8</ele><time>2026-04-11T06:45:01.994Z</time></trkpt><trkpt lat="43.9722783" lon="12.47487"><ele>136.2</ele><time>2026-04-11T06:45:02.994Z</time></trkpt><trkpt lat="43.972185" lon="12.4748167"><ele>133.6</ele><time>2026-04-11T06:45:03.994Z</time></trkpt><trkpt lat="43.9721017" lon="12.4747367"><ele>131.0</ele><time>2026-04-11T06:45:04.994Z</time></trkpt><trkpt lat="43.9720183" lon="12.4746567"><ele>129.25</ele><time>2026-04-11T06:45:05.994Z</time></trkpt><trkpt lat="43.97193" lon="12.4745733"><ele>127.5</ele><time>2026-04-11T06:45:06.994Z</time></trkpt><trkpt lat="43.9718233" lon="12.4744883"><ele>125.75</ele><time>2026-04-11T06:45:07.994Z</time></trkpt><trkpt lat="43.971715" lon="12.4743817"><ele>124.0</ele><time>2026-04-11T06:45:08.994Z</time></trkpt><trkpt lat="43.9715867" lon="12.474275"><ele>124.0</ele><time>2026-04-11T06:45:09.995Z</time></trkpt><trkpt lat="43.97145" lon="12.4741633"><ele>124.0</ele><time>2026-04-11T06:45:10.994Z</time></trkpt><trkpt lat="43.971305" lon="12.4740333"><ele>124.0</ele><time>2026-04-11T06:45:11.994Z</time></trkpt><trkpt lat="43.9711583" lon="12.4739"><ele>123.33333333333334</ele><time>2026-04-11T06:45:12.994Z</time></trkpt><trkpt lat="43.9710167" lon="12.473765"><ele>122.66666666666666</ele><time>2026-04-11T06:45:13.994Z</time></trkpt><trkpt lat="43.970865" lon="12.4736133"><ele>122.0</ele><time>2026-04-11T06:45:14.995Z</time></trkpt><trkpt lat="43.97072" lon="12.4734617"><ele>122.0</ele><time>2026-04-11T06:45:15.994Z</time></trkpt><trkpt lat="43.9705733" lon="12.4733267"><ele>122.0</ele><time>2026-04-11T06:45:16.994Z</time></trkpt><trkpt lat="43.97044" lon="12.4731867"><ele>122.0</ele><time>2026-04-11T06:45:17.994Z</time></trkpt><trkpt lat="43.9703133" lon="12.4730683"><ele>122.0</ele><time>2026-04-11T06:45:18.994Z</time></trkpt><trkpt lat="43.970215" lon="12.4729883"><ele>122.0</ele><time>2026-04-11T06:45:19.995Z</time></trkpt><trkpt lat="43.9700933" lon="12.4729533"><ele>122.0</ele><time>2026-04-11T06:45:20.995Z</time></trkpt><trkpt lat="43.9699733" lon="12.4729883"><ele>122.0</ele><time>2026-04-11T06:45:21.994Z</time></trkpt><trkpt lat="43.96987" lon="12.4730517"><ele>117.5</ele><time>2026-04-11T06:45:22.994Z</time></trkpt><trkpt lat="43.9697767" lon="12.4731283"><ele>113.0</ele><time>2026-04-11T06:45:23.994Z</time></trkpt><trkpt lat="43.9696833" lon="12.47323"><ele>108.5</ele><time>2026-04-11T06:45:24.994Z</time></trkpt><trkpt lat="43.9695817" lon="12.4733283"><ele>104.0</ele><time>2026-04-11T06:45:25.994Z</time></trkpt><trkpt lat="43.9694933" lon="12.4734167"><ele>104.0</ele><time>2026-04-11T06:45:26.994Z</time></trkpt><trkpt lat="43.9694033" lon="12.4735033"><ele>104.0</ele><time>2026-04-11T06:45:27.994Z</time></trkpt><trkpt lat="43.969315" lon="12.4735733"><ele>104.0</ele><time>2026-04-11T06:45:28.994Z</time></trkpt><trkpt lat="43.96922" lon="12.4736283"><ele>104.0</ele><time>2026-04-11T06:45:29.994Z</time></trkpt><trkpt lat="43.96914" lon="12.4736583"><ele>104.0</ele><time>2026-04-11T06:45:30.994Z</time></trkpt><trkpt lat="43.9690517" lon="12.4736683"><ele>103.4</ele><time>2026-04-11T06:45:32.994Z</time></trkpt><trkpt lat="43.96895" lon="12.4736233"><ele>102.80000000000001</ele><time>2026-04-11T06:45:36.994Z</time></trkpt><trkpt lat="43.9688783" lon="12.4735683"><ele>102.19999999999999</ele><time>2026-04-11T06:45:37.994Z</time></trkpt><trkpt lat="43.96881" lon="12.4734733"><ele>101.6</ele><time>2026-04-11T06:45:38.995Z</time></trkpt><trkpt lat="43.9687567" lon="12.4733433"><ele>101.0</ele><time>2026-04-11T06:45:39.994Z</time></trkpt><trkpt lat="43.9687217" lon="12.47318"><ele>101.0</ele><time>2026-04-11T06:45:40.994Z</time></trkpt><trkpt lat="43.9687083" lon="12.4729817"><ele>101.0</ele><time>2026-04-11T06:45:41.994Z</time></trkpt><trkpt lat="43.9687217" lon="12.4727467"><ele>101.0</ele><time>2026-04-11T06:45:42.995Z</time></trkpt><trkpt lat="43.9687533" lon="12.4725217"><ele>100.5</ele><time>2026-04-11T06:45:43.994Z</time></trkpt><trkpt lat="43.9687633" lon="12.4723133"><ele>100.0</ele><time>2026-04-11T06:45:44.995Z</time></trkpt><trkpt lat="43.968745" lon="12.47213"><ele>99.5</ele><time>2026-04-11T06:45:45.994Z</time></trkpt><trkpt lat="43.9687" lon="12.47198"><ele>99.0</ele><time>2026-04-11T06:45:46.994Z</time></trkpt><trkpt lat="43.9686117" lon="12.4718533"><ele>99.25</ele><time>2026-04-11T06:45:47.994Z</time></trkpt><trkpt lat="43.968495" lon="12.47175"><ele>99.5</ele><time>2026-04-11T06:45:48.994Z</time></trkpt><trkpt lat="43.9683767" lon="12.4716617"><ele>99.75</ele><time>2026-04-11T06:45:49.994Z</time></trkpt><trkpt lat="43.9682483" lon="12.47156"><ele>100.0</ele><time>2026-04-11T06:45:50.994Z</time></trkpt><trkpt lat="43.968095" lon="12.4714833"><ele>100.0</ele><time>2026-04-11T06:45:51.995Z</time></trkpt><trkpt lat="43.9679667" lon="12.4713983"><ele>100.0</ele><time>2026-04-11T06:45:52.995Z</time></trkpt><trkpt lat="43.9678633" lon="12.47132"><ele>100.0</ele><time>2026-04-11T06:45:53.994Z</time></trkpt><trkpt lat="43.9677983" lon="12.47122"><ele>100.0</ele><time>2026-04-11T06:45:54.994Z</time></trkpt><trkpt lat="43.9677967" lon="12.47107"><ele>101.0</ele><time>2026-04-11T06:45:55.995Z</time></trkpt><trkpt lat="43.9678283" lon="12.470925"><ele>102.0</ele><time>2026-04-11T06:45:56.994Z</time></trkpt><trkpt lat="43.9678767" lon="12.47078"><ele>103.0</ele><time>2026-04-11T06:45:57.995Z</time></trkpt><trkpt lat="43.9679433" lon="12.47064"><ele>104.0</ele><time>2026-04-11T06:45:58.995Z</time></trkpt><trkpt lat="43.9680317" lon="12.4704967"><ele>104.66666666666666</ele><time>2026-04-11T06:45:59.994Z</time></trkpt><trkpt lat="43.9681433" lon="12.4703467"><ele>105.33333333333334</ele><time>2026-04-11T06:46:00.995Z</time></trkpt><trkpt lat="43.9682567" lon="12.4701733"><ele>106.0</ele><time>2026-04-11T06:46:01.995Z</time></trkpt><trkpt lat="43.9683367" lon="12.4700133"><ele>107.0</ele><time>2026-04-11T06:46:02.994Z</time></trkpt><trkpt lat="43.968405" lon="12.4698283"><ele>108.0</ele><time>2026-04-11T06:46:03.994Z</time></trkpt><trkpt lat="43.968455" lon="12.4696267"><ele>109.0</ele><time>2026-04-11T06:46:04.994Z</time></trkpt><trkpt lat="43.96847" lon="12.4694233"><ele>109.0</ele><time>2026-04-11T06:46:05.994Z</time></trkpt><trkpt lat="43.9684617" lon="12.4692017"><ele>109.0</ele><time>2026-04-11T06:46:06.995Z</time></trkpt><trkpt lat="43.96846" lon="12.4689667"><ele>109.0</ele><time>2026-04-11T06:46:07.994Z</time></trkpt><trkpt lat="43.9684617" lon="12.46873"><ele>108.66666666666667</ele><time>2026-04-11T06:46:08.994Z</time></trkpt><trkpt lat="43.9684533" lon="12.4684983"><ele>108.33333333333334</ele><time>2026-04-11T06:46:09.994Z</time></trkpt><trkpt lat="43.968415" lon="12.4682783"><ele>108.0</ele><time>2026-04-11T06:46:10.994Z</time></trkpt><trkpt lat="43.9683833" lon="12.4680533"><ele>107.75</ele><time>2026-04-11T06:46:11.994Z</time></trkpt><trkpt lat="43.9683717" lon="12.4678417"><ele>107.5</ele><time>2026-04-11T06:46:12.994Z</time></trkpt><trkpt lat="43.96837" lon="12.4676417"><ele>107.25</ele><time>2026-04-11T06:46:13.994Z</time></trkpt><trkpt lat="43.9684" lon="12.4674383"><ele>107.0</ele><time>2026-04-11T06:46:14.994Z</time></trkpt><trkpt lat="43.968445" lon="12.46723"><ele>108.66666666666666</ele><time>2026-04-11T06:46:15.995Z</time></trkpt><trkpt lat="43.9685017" lon="12.467"><ele>110.33333333333334</ele><time>2026-04-11T06:46:16.994Z</time></trkpt><trkpt lat="43.9685483" lon="12.466775"><ele>112.0</ele><time>2026-04-11T06:46:17.994Z</time></trkpt><trkpt lat="43.9686" lon="12.4665667"><ele>112.0</ele><time>2026-04-11T06:46:18.994Z</time></trkpt><trkpt lat="43.9686533" lon="12.46634"><ele>112.0</ele><time>2026-04-11T06:46:19.994Z</time></trkpt><trkpt lat="43.9686933" lon="12.466095"><ele>112.0</ele><time>2026-04-11T06:46:20.994Z</time></trkpt><trkpt lat="43.9687317" lon="12.4658667"><ele>113.66666666666667</ele><time>2026-04-11T06:46:21.994Z</time></trkpt><trkpt lat="43.96876" lon="12.4656333"><ele>115.33333333333334</ele><time>2026-04-11T06:46:22.995Z</time></trkpt><trkpt lat="43.9687867" lon="12.4654117"><ele>117.0</ele><time>2026-04-11T06:46:23.995Z</time></trkpt><trkpt lat="43.9688217" lon="12.4651917"><ele>117.0</ele><time>2026-04-11T06:46:24.994Z</time></trkpt><trkpt lat="43.9688533" lon="12.4650017"><ele>117.0</ele><time>2026-04-11T06:46:25.994Z</time></trkpt><trkpt lat="43.9688533" lon="12.4648383"><ele>117.0</ele><time>2026-04-11T06:46:26.994Z</time></trkpt><trkpt lat="43.9688233" lon="12.4646983"><ele>117.0</ele><time>2026-04-11T06:46:27.994Z</time></trkpt><trkpt lat="43.96877" lon="12.4645833"><ele>118.19999999999999</ele><time>2026-04-11T06:46:28.994Z</time></trkpt><trkpt lat="43.9686933" lon="12.464485"><ele>119.39999999999999</ele><time>2026-04-11T06:46:29.994Z</time></trkpt><trkpt lat="43.96861" lon="12.46439"><ele>120.60000000000001</ele><time>2026-04-11T06:46:30.994Z</time></trkpt><trkpt lat="43.9685383" lon="12.4642983"><ele>121.80000000000001</ele><time>2026-04-11T06:46:31.994Z</time></trkpt><trkpt lat="43.96848" lon="12.464225"><ele>123.0</ele><time>2026-04-11T06:46:32.994Z</time></trkpt><trkpt lat="43.9683817" lon="12.4641833"><ele>121.80000000000001</ele><time>2026-04-11T06:46:34.995Z</time></trkpt><trkpt lat="43.9682583" lon="12.4642267"><ele>120.60000000000001</ele><time>2026-04-11T06:46:36.994Z</time></trkpt><trkpt lat="43.9681733" lon="12.464265"><ele>119.39999999999999</ele><time>2026-04-11T06:46:37.994Z</time></trkpt><trkpt lat="43.9680833" lon="12.4642933"><ele>118.19999999999999</ele><time>2026-04-11T06:46:38.994Z</time></trkpt><trkpt lat="43.9679867" lon="12.464325"><ele>117.0</ele><time>2026-04-11T06:46:39.994Z</time></trkpt><trkpt lat="43.9678883" lon="12.46436"><ele>117.0</ele><time>2026-04-11T06:46:40.994Z</time></trkpt><trkpt lat="43.9677933" lon="12.4643883"><ele>116.99999999999999</ele><time>2026-04-11T06:46:41.994Z</time></trkpt><trkpt lat="43.9676983" lon="12.4644117"><ele>116.99999999999999</ele><time>2026-04-11T06:46:42.995Z</time></trkpt><trkpt lat="43.9676" lon="12.464425"><ele>117.0</ele><time>2026-04-11T06:46:43.995Z</time></trkpt><trkpt lat="43.9675017" lon="12.4644267"><ele>117.0</ele><time>2026-04-11T06:46:44.994Z</time></trkpt><trkpt lat="43.9674" lon="12.4644067"><ele>118.25</ele><time>2026-04-11T06:46:45.994Z</time></trkpt><trkpt lat="43.9672933" lon="12.4643667"><ele>119.5</ele><time>2026-04-11T06:46:46.995Z</time></trkpt><trkpt lat="43.9671917" lon="12.4643133"><ele>120.75</ele><time>2026-04-11T06:46:47.994Z</time></trkpt><trkpt lat="43.9670683" lon="12.4642633"><ele>122.0</ele><time>2026-04-11T06:46:48.994Z</time></trkpt><trkpt lat="43.96694" lon="12.4642333"><ele>122.0</ele><time>2026-04-11T06:46:49.994Z</time></trkpt><trkpt lat="43.9668033" lon="12.4642383"><ele>122.0</ele><time>2026-04-11T06:46:50.994Z</time></trkpt><trkpt lat="43.9666617" lon="12.4642417"><ele>122.0</ele><time>2026-04-11T06:46:51.994Z</time></trkpt><trkpt lat="43.9665217" lon="12.4642567"><ele>122.0</ele><time>2026-04-11T06:46:52.994Z</time></trkpt><trkpt lat="43.9663817" lon="12.4642767"><ele>124.19999999999999</ele><time>2026-04-11T06:46:53.994Z</time></trkpt><trkpt lat="43.9662417" lon="12.464285"><ele>126.39999999999999</ele><time>2026-04-11T06:46:54.994Z</time></trkpt><trkpt lat="43.966135" lon="12.4642917"><ele>128.60000000000002</ele><time>2026-04-11T06:46:55.994Z</time></trkpt><trkpt lat="43.9660667" lon="12.4642817"><ele>130.8</ele><time>2026-04-11T06:46:56.995Z</time></trkpt><trkpt lat="43.9659617" lon="12.4642017"><ele>133.0</ele><time>2026-04-11T06:46:58.994Z</time></trkpt><trkpt lat="43.9658617" lon="12.4640833"><ele>134.66666666666669</ele><time>2026-04-11T06:47:00.994Z</time></trkpt><trkpt lat="43.9658017" lon="12.464025"><ele>136.33333333333334</ele><time>2026-04-11T06:47:01.995Z</time></trkpt><trkpt lat="43.9657333" lon="12.46397"><ele>138.0</ele><time>2026-04-11T06:47:02.994Z</time></trkpt><trkpt lat="43.9656567" lon="12.46392"><ele>139.66666666666666</ele><time>2026-04-11T06:47:03.994Z</time></trkpt><trkpt lat="43.9655717" lon="12.4638733"><ele>141.33333333333331</ele><time>2026-04-11T06:47:04.995Z</time></trkpt><trkpt lat="43.9654833" lon="12.46384"><ele>143.0</ele><time>2026-04-11T06:47:05.994Z</time></trkpt><trkpt lat="43.9654017" lon="12.4638117"><ele>143.5</ele><time>2026-04-11T06:47:06.994Z</time></trkpt><trkpt lat="43.9653367" lon="12.46376"><ele>144.0</ele><time>2026-04-11T06:47:07.994Z</time></trkpt><trkpt lat="43.965285" lon="12.4637017"><ele>144.5</ele><time>2026-04-11T06:47:08.994Z</time></trkpt><trkpt lat="43.96525" lon="12.4636217"><ele>145.0</ele><time>2026-04-11T06:47:09.994Z</time></trkpt><trkpt lat="43.965225" lon="12.4635267"><ele>145.5</ele><time>2026-04-11T06:47:10.994Z</time></trkpt><trkpt lat="43.96519" lon="12.4634217"><ele>146.0</ele><time>2026-04-11T06:47:11.994Z</time></trkpt><trkpt lat="43.965145" lon="12.4633217"><ele>146.0</ele><time>2026-04-11T06:47:12.994Z</time></trkpt><trkpt lat="43.96509" lon="12.4632267"><ele>146.0</ele><time>2026-04-11T06:47:13.994Z</time></trkpt><trkpt lat="43.96502" lon="12.463155"><ele>146.0</ele><time>2026-04-11T06:47:14.994Z</time></trkpt><trkpt lat="43.9649533" lon="12.4630967"><ele>146.0</ele><time>2026-04-11T06:47:15.994Z</time></trkpt><trkpt lat="43.9648817" lon="12.4630883"><ele>146.0</ele><time>2026-04-11T06:47:16.994Z</time></trkpt><trkpt lat="43.9648067" lon="12.4631017"><ele>146.0</ele><time>2026-04-11T06:47:17.995Z</time></trkpt><trkpt lat="43.9647267" lon="12.46312"><ele>148.0</ele><time>2026-04-11T06:47:18.994Z</time></trkpt><trkpt lat="43.9646483" lon="12.4631267"><ele>150.0</ele><time>2026-04-11T06:47:19.994Z</time></trkpt><trkpt lat="43.9645667" lon="12.4631117"><ele>152.0</ele><time>2026-04-11T06:47:20.994Z</time></trkpt><trkpt lat="43.9644917" lon="12.4630817"><ele>154.0</ele><time>2026-04-11T06:47:21.994Z</time></trkpt><trkpt lat="43.964415" lon="12.4630383"><ele>156.0</ele><time>2026-04-11T06:47:22.994Z</time></trkpt><trkpt lat="43.96433" lon="12.4629733"><ele>158.0</ele><time>2026-04-11T06:47:23.994Z</time></trkpt><trkpt lat="43.964255" lon="12.4628983"><ele>160.33333333333331</ele><time>2026-04-11T06:47:24.994Z</time></trkpt><trkpt lat="43.9641867" lon="12.4628217"><ele>162.66666666666666</ele><time>2026-04-11T06:47:25.994Z</time></trkpt><trkpt lat="43.9641217" lon="12.46274"><ele>165.0</ele><time>2026-04-11T06:47:26.994Z</time></trkpt><trkpt lat="43.964055" lon="12.4626717"><ele>167.33333333333334</ele><time>2026-04-11T06:47:27.994Z</time></trkpt><trkpt lat="43.9639683" lon="12.46261"><ele>169.66666666666669</ele><time>2026-04-11T06:47:28.994Z</time></trkpt><trkpt lat="43.96389" lon="12.4625517"><ele>172.0</ele><time>2026-04-11T06:47:29.994Z</time></trkpt><trkpt lat="43.9638183" lon="12.4625033"><ele>172.0</ele><time>2026-04-11T06:47:30.994Z</time></trkpt><trkpt lat="43.9637617" lon="12.4624383"><ele>172.0</ele><time>2026-04-11T06:47:31.994Z</time></trkpt><trkpt lat="43.9637117" lon="12.4623667"><ele>172.0</ele><time>2026-04-11T06:47:32.994Z</time></trkpt><trkpt lat="43.963655" lon="12.46228"><ele>172.0</ele><time>2026-04-11T06:47:33.995Z</time></trkpt><trkpt lat="43.963595" lon="12.462195"><ele>172.0</ele><time>2026-04-11T06:47:34.994Z</time></trkpt><trkpt lat="43.9635317" lon="12.4621133"><ele>172.0</ele><time>2026-04-11T06:47:35.994Z</time></trkpt><trkpt lat="43.9634633" lon="12.4620167"><ele>171.8</ele><time>2026-04-11T06:47:36.994Z</time></trkpt><trkpt lat="43.9633933" lon="12.4619133"><ele>171.6</ele><time>2026-04-11T06:47:37.995Z</time></trkpt><trkpt lat="43.9633267" lon="12.4618033"><ele>171.4</ele><time>2026-04-11T06:47:38.995Z</time></trkpt><trkpt lat="43.9632517" lon="12.4617033"><ele>171.20000000000002</ele><time>2026-04-11T06:47:39.994Z</time></trkpt><trkpt lat="43.96318" lon="12.4616133"><ele>171.0</ele><time>2026-04-11T06:47:40.994Z</time></trkpt><trkpt lat="43.9631233" lon="12.4615217"><ele>173.0</ele><time>2026-04-11T06:47:41.994Z</time></trkpt><trkpt lat="43.9630583" lon="12.4614633"><ele>175.0</ele><time>2026-04-11T06:47:42.994Z</time></trkpt><trkpt lat="43.9629917" lon="12.461435"><ele>177.0</ele><time>2026-04-11T06:47:43.994Z</time></trkpt><trkpt lat="43.9629283" lon="12.4614067"><ele>179.0</ele><time>2026-04-11T06:47:44.994Z</time></trkpt><trkpt lat="43.9628583" lon="12.4613883"><ele>181.0</ele><time>2026-04-11T06:47:45.994Z</time></trkpt><trkpt lat="43.96278" lon="12.4613633"><ele>183.0</ele><time>2026-04-11T06:47:46.994Z</time></trkpt><trkpt lat="43.9627017" lon="12.4613167"><ele>182.2</ele><time>2026-04-11T06:47:47.994Z</time></trkpt><trkpt lat="43.9626167" lon="12.4612717"><ele>181.4</ele><time>2026-04-11T06:47:48.995Z</time></trkpt><trkpt lat="43.962525" lon="12.461215"><ele>180.6</ele><time>2026-04-11T06:47:49.994Z</time></trkpt><trkpt lat="43.9624433" lon="12.4611317"><ele>179.79999999999998</ele><time>2026-04-11T06:47:50.994Z</time></trkpt><trkpt lat="43.9623533" lon="12.461055"><ele>179.0</ele><time>2026-04-11T06:47:51.995Z</time></trkpt><trkpt lat="43.9622917" lon="12.4609633"><ele>182.39999999999998</ele><time>2026-04-11T06:47:52.994Z</time></trkpt><trkpt lat="43.9622167" lon="12.4608967"><ele>185.8</ele><time>2026-04-11T06:47:53.994Z</time></trkpt><trkpt lat="43.96215" lon="12.460845"><ele>189.2</ele><time>2026-04-11T06:47:54.994Z</time></trkpt><trkpt lat="43.9620933" lon="12.46075"><ele>192.60000000000002</ele><time>2026-04-11T06:47:56.994Z</time></trkpt><trkpt lat="43.9621083" lon="12.4605833"><ele>196.0</ele><time>2026-04-11T06:47:58.994Z</time></trkpt><trkpt lat="43.96214" lon="12.4604733"><ele>195.20000000000002</ele><time>2026-04-11T06:47:59.994Z</time></trkpt><trkpt lat="43.9621967" lon="12.4603567"><ele>194.4</ele><time>2026-04-11T06:48:00.994Z</time></trkpt><trkpt lat="43.9622683" lon="12.460235"><ele>193.6</ele><time>2026-04-11T06:48:01.994Z</time></trkpt><trkpt lat="43.96233" lon="12.460115"><ele>192.8</ele><time>2026-04-11T06:48:02.994Z</time></trkpt><trkpt lat="43.9623883" lon="12.4599933"><ele>192.0</ele><time>2026-04-11T06:48:03.994Z</time></trkpt><trkpt lat="43.96244" lon="12.4598483"><ele>192.0</ele><time>2026-04-11T06:48:04.994Z</time></trkpt><trkpt lat="43.9624883" lon="12.4596883"><ele>192.0</ele><time>2026-04-11T06:48:05.994Z</time></trkpt><trkpt lat="43.9625333" lon="12.4595317"><ele>192.0</ele><time>2026-04-11T06:48:06.994Z</time></trkpt><trkpt lat="43.9625683" lon="12.4593783"><ele>192.0</ele><time>2026-04-11T06:48:07.994Z</time></trkpt><trkpt lat="43.962605" lon="12.4592333"><ele>187.75</ele><time>2026-04-11T06:48:08.994Z</time></trkpt><trkpt lat="43.962655" lon="12.459085"><ele>183.5</ele><time>2026-04-11T06:48:09.994Z</time></trkpt><trkpt lat="43.9627183" lon="12.4589483"><ele>179.25</ele><time>2026-04-11T06:48:10.995Z</time></trkpt><trkpt lat="43.9627917" lon="12.4588033"><ele>175.0</ele><time>2026-04-11T06:48:11.994Z</time></trkpt><trkpt lat="43.9628667" lon="12.4586633"><ele>173.2</ele><time>2026-04-11T06:48:12.995Z</time></trkpt><trkpt lat="43.9629533" lon="12.45854"><ele>171.4</ele><time>2026-04-11T06:48:13.995Z</time></trkpt><trkpt lat="43.9630333" lon="12.4584283"><ele>169.60000000000002</ele><time>2026-04-11T06:48:14.994Z</time></trkpt><trkpt lat="43.963115" lon="12.458355"><ele>167.8</ele><time>2026-04-11T06:48:15.994Z</time></trkpt><trkpt lat="43.963205" lon="12.458295"><ele>166.0</ele><time>2026-04-11T06:48:16.994Z</time></trkpt><trkpt lat="43.9633" lon="12.458245"><ele>166.0</ele><time>2026-04-11T06:48:17.995Z</time></trkpt><trkpt lat="43.9633683" lon="12.45822"><ele>166.0</ele><time>2026-04-11T06:48:18.994Z</time></trkpt><trkpt lat="43.9633917" lon="12.4581033"><ele>166.0</ele><time>2026-04-11T06:48:20.994Z</time></trkpt><trkpt lat="43.9632883" lon="12.457985"><ele>166.0</ele><time>2026-04-11T06:48:22.994Z</time></trkpt><trkpt lat="43.9632017" lon="12.4579567"><ele>166.0</ele><time>2026-04-11T06:48:23.994Z</time></trkpt><trkpt lat="43.963105" lon="12.4579383"><ele>164.33333333333334</ele><time>2026-04-11T06:48:24.994Z</time></trkpt><trkpt lat="43.9630133" lon="12.4579283"><ele>162.66666666666669</ele><time>2026-04-11T06:48:25.994Z</time></trkpt><trkpt lat="43.96293" lon="12.4579083"><ele>161.0</ele><time>2026-04-11T06:48:26.994Z</time></trkpt><trkpt lat="43.962855" lon="12.4578833"><ele>159.33333333333334</ele><time>2026-04-11T06:48:27.994Z</time></trkpt><trkpt lat="43.9627933" lon="12.4578367"><ele>157.66666666666666</ele><time>2026-04-11T06:48:28.995Z</time></trkpt><trkpt lat="43.9627517" lon="12.4576917"><ele>156.0</ele><time>2026-04-11T06:48:30.994Z</time></trkpt><trkpt lat="43.9628133" lon="12.4575667"><ele>156.0</ele><time>2026-04-11T06:48:32.994Z</time></trkpt><trkpt lat="43.9628783" lon="12.45752"><ele>156.0</ele><time>2026-04-11T06:48:33.994Z</time></trkpt><trkpt lat="43.96293" lon="12.4574683"><ele>156.0</ele><time>2026-04-11T06:48:34.994Z</time></trkpt><trkpt lat="43.9629617" lon="12.4573617"><ele>156.0</ele><time>2026-04-11T06:48:36.994Z</time></trkpt><trkpt lat="43.9628833" lon="12.457275"><ele>156.0</ele><time>2026-04-11T06:48:38.994Z</time></trkpt><trkpt lat="43.96277" lon="12.45722"><ele>156.0</ele><time>2026-04-11T06:48:40.995Z</time></trkpt><trkpt lat="43.9627017" lon="12.4571733"><ele>156.0</ele><time>2026-04-11T06:48:41.994Z</time></trkpt><trkpt lat="43.962625" lon="12.4571333"><ele>156.0</ele><time>2026-04-11T06:48:42.994Z</time></trkpt><trkpt lat="43.9625367" lon="12.4570933"><ele>156.0</ele><time>2026-04-11T06:48:43.994Z</time></trkpt><trkpt lat="43.9624383" lon="12.4570617"><ele>156.0</ele><time>2026-04-11T06:48:44.994Z</time></trkpt><trkpt lat="43.9623367" lon="12.4570283"><ele>156.0</ele><time>2026-04-11T06:48:45.994Z</time></trkpt><trkpt lat="43.9622133" lon="12.4569867"><ele>160.5</ele><time>2026-04-11T06:48:46.995Z</time></trkpt><trkpt lat="43.9620933" lon="12.4569183"><ele>165.0</ele><time>2026-04-11T06:48:47.995Z</time></trkpt><trkpt lat="43.96199" lon="12.4568383"><ele>169.5</ele><time>2026-04-11T06:48:48.994Z</time></trkpt><trkpt lat="43.9618967" lon="12.4567433"><ele>174.0</ele><time>2026-04-11T06:48:49.995Z</time></trkpt><trkpt lat="43.9618217" lon="12.45664"><ele>174.0</ele><time>2026-04-11T06:48:50.994Z</time></trkpt><trkpt lat="43.9617717" lon="12.4565283"><ele>174.0</ele><time>2026-04-11T06:48:51.994Z</time></trkpt><trkpt lat="43.961735" lon="12.456395"><ele>174.0</ele><time>2026-04-11T06:48:52.994Z</time></trkpt><trkpt lat="43.9616933" lon="12.4562667"><ele>174.0</ele><time>2026-04-11T06:48:53.994Z</time></trkpt><trkpt lat="43.9616417" lon="12.4561383"><ele>174.0</ele><time>2026-04-11T06:48:54.994Z</time></trkpt><trkpt lat="43.9615817" lon="12.4560017"><ele>177.25</ele><time>2026-04-11T06:48:55.995Z</time></trkpt><trkpt lat="43.9615133" lon="12.4558617"><ele>180.5</ele><time>2026-04-11T06:48:56.994Z</time></trkpt><trkpt lat="43.9614433" lon="12.4557"><ele>183.75</ele><time>2026-04-11T06:48:57.994Z</time></trkpt><trkpt lat="43.9613717" lon="12.45553"><ele>187.0</ele><time>2026-04-11T06:48:58.994Z</time></trkpt><trkpt lat="43.9612983" lon="12.455355"><ele>187.0</ele><time>2026-04-11T06:48:59.994Z</time></trkpt><trkpt lat="43.9612267" lon="12.45517"><ele>187.0</ele><time>2026-04-11T06:49:00.994Z</time></trkpt><trkpt lat="43.961145" lon="12.4549783"><ele>187.0</ele><time>2026-04-11T06:49:01.994Z</time></trkpt><trkpt lat="43.9610617" lon="12.454785"><ele>187.5</ele><time>2026-04-11T06:49:02.994Z</time></trkpt><trkpt lat="43.9609817" lon="12.4545967"><ele>188.0</ele><time>2026-04-11T06:49:03.994Z</time></trkpt><trkpt lat="43.9608983" lon="12.4544233"><ele>188.5</ele><time>2026-04-11T06:49:04.994Z</time></trkpt><trkpt lat="43.960825" lon="12.454255"><ele>189.0</ele><time>2026-04-11T06:49:05.995Z</time></trkpt><trkpt lat="43.9607467" lon="12.4541233"><ele>191.6</ele><time>2026-04-11T06:49:06.994Z</time></trkpt><trkpt lat="43.9606567" lon="12.4540233"><ele>194.2</ele><time>2026-04-11T06:49:07.994Z</time></trkpt><trkpt lat="43.9605683" lon="12.4539667"><ele>196.79999999999998</ele><time>2026-04-11T06:49:08.994Z</time></trkpt><trkpt lat="43.9604867" lon="12.4539583"><ele>199.39999999999998</ele><time>2026-04-11T06:49:09.994Z</time></trkpt><trkpt lat="43.9603983" lon="12.4539667"><ele>202.0</ele><time>2026-04-11T06:49:10.995Z</time></trkpt><trkpt lat="43.960315" lon="12.454"><ele>202.0</ele><time>2026-04-11T06:49:11.994Z</time></trkpt><trkpt lat="43.9602217" lon="12.4540367"><ele>202.0</ele><time>2026-04-11T06:49:12.994Z</time></trkpt><trkpt lat="43.96012" lon="12.4540667"><ele>202.0</ele><time>2026-04-11T06:49:13.995Z</time></trkpt><trkpt lat="43.96003" lon="12.454065"><ele>202.0</ele><time>2026-04-11T06:49:14.994Z</time></trkpt><trkpt lat="43.95995" lon="12.454"><ele>202.0</ele><time>2026-04-11T06:49:15.994Z</time></trkpt><trkpt lat="43.9598667" lon="12.4539133"><ele>204.5</ele><time>2026-04-11T06:49:16.994Z</time></trkpt><trkpt lat="43.95978" lon="12.453805"><ele>207.0</ele><time>2026-04-11T06:49:17.995Z</time></trkpt><trkpt lat="43.9596733" lon="12.4537017"><ele>209.5</ele><time>2026-04-11T06:49:18.995Z</time></trkpt><trkpt lat="43.959555" lon="12.4536033"><ele>212.0</ele><time>2026-04-11T06:49:19.995Z</time></trkpt><trkpt lat="43.959435" lon="12.4535283"><ele>213.25</ele><time>2026-04-11T06:49:20.995Z</time></trkpt><trkpt lat="43.95931" lon="12.4534767"><ele>214.5</ele><time>2026-04-11T06:49:21.995Z</time></trkpt><trkpt lat="43.9591633" lon="12.45345"><ele>215.75</ele><time>2026-04-11T06:49:22.994Z</time></trkpt><trkpt lat="43.9590117" lon="12.453435"><ele>217.0</ele><time>2026-04-11T06:49:23.994Z</time></trkpt><trkpt lat="43.9588783" lon="12.4534083"><ele>217.0</ele><time>2026-04-11T06:49:24.995Z</time></trkpt><trkpt lat="43.958755" lon="12.453375"><ele>217.0</ele><time>2026-04-11T06:49:25.994Z</time></trkpt><trkpt lat="43.9586383" lon="12.4533167"><ele>217.0</ele><time>2026-04-11T06:49:26.994Z</time></trkpt><trkpt lat="43.9585367" lon="12.4532267"><ele>217.0</ele><time>2026-04-11T06:49:27.994Z</time></trkpt><trkpt lat="43.958445" lon="12.4530983"><ele>218.75</ele><time>2026-04-11T06:49:28.994Z</time></trkpt><trkpt lat="43.95836" lon="12.4529383"><ele>220.5</ele><time>2026-04-11T06:49:29.994Z</time></trkpt><trkpt lat="43.9582817" lon="12.4527867"><ele>222.25</ele><time>2026-04-11T06:49:30.994Z</time></trkpt><trkpt lat="43.9582167" lon="12.4526433"><ele>224.0</ele><time>2026-04-11T06:49:31.994Z</time></trkpt><trkpt lat="43.9581517" lon="12.45252"><ele>224.0</ele><time>2026-04-11T06:49:32.994Z</time></trkpt><trkpt lat="43.9581033" lon="12.4524083"><ele>223.99999999999997</ele><time>2026-04-11T06:49:33.994Z</time></trkpt><trkpt lat="43.9580617" lon="12.45232"><ele>223.99999999999997</ele><time>2026-04-11T06:49:34.995Z</time></trkpt><trkpt lat="43.9580467" lon="12.4521917"><ele>224.0</ele><time>2026-04-11T06:49:36.994Z</time></trkpt><trkpt lat="43.9581417" lon="12.4520783"><ele>224.0</ele><time>2026-04-11T06:49:38.994Z</time></trkpt><trkpt lat="43.95821" lon="12.4520117"><ele>226.39999999999998</ele><time>2026-04-11T06:49:39.994Z</time></trkpt><trkpt lat="43.9582833" lon="12.451945"><ele>228.79999999999998</ele><time>2026-04-11T06:49:40.994Z</time></trkpt><trkpt lat="43.9583533" lon="12.451865"><ele>231.20000000000002</ele><time>2026-04-11T06:49:41.995Z</time></trkpt><trkpt lat="43.9584167" lon="12.4517683"><ele>233.60000000000002</ele><time>2026-04-11T06:49:42.994Z</time></trkpt><trkpt lat="43.9584867" lon="12.451665"><ele>236.0</ele><time>2026-04-11T06:49:43.995Z</time></trkpt><trkpt lat="43.9585583" lon="12.451555"><ele>236.60000000000002</ele><time>2026-04-11T06:49:44.994Z</time></trkpt><trkpt lat="43.958635" lon="12.4514417"><ele>237.20000000000002</ele><time>2026-04-11T06:49:45.994Z</time></trkpt><trkpt lat="43.9587117" lon="12.4513367"><ele>237.79999999999998</ele><time>2026-04-11T06:49:46.994Z</time></trkpt><trkpt lat="43.9587867" lon="12.4512333"><ele>238.39999999999998</ele><time>2026-04-11T06:49:47.994Z</time></trkpt><trkpt lat="43.9588583" lon="12.45114"><ele>239.0</ele><time>2026-04-11T06:49:48.995Z</time></trkpt><trkpt lat="43.95893" lon="12.4510717"><ele>238.50000000000003</ele><time>2026-04-11T06:49:49.994Z</time></trkpt><trkpt lat="43.959005" lon="12.4510383"><ele>238.0</ele><time>2026-04-11T06:49:50.994Z</time></trkpt><trkpt lat="43.9590783" lon="12.451015"><ele>237.5</ele><time>2026-04-11T06:49:51.995Z</time></trkpt><trkpt lat="43.9591367" lon="12.4509817"><ele>237.0</ele><time>2026-04-11T06:49:52.994Z</time></trkpt><trkpt lat="43.959245" lon="12.4509283"><ele>236.50000000000003</ele><time>2026-04-11T06:49:54.995Z</time></trkpt><trkpt lat="43.959315" lon="12.4508417"><ele>236.0</ele><time>2026-04-11T06:49:56.994Z</time></trkpt><trkpt lat="43.95933" lon="12.450735"><ele>236.0</ele><time>2026-04-11T06:49:58.994Z</time></trkpt><trkpt lat="43.9593217" lon="12.4506067"><ele>236.00000000000003</ele><time>2026-04-11T06:50:00.994Z</time></trkpt><trkpt lat="43.9593217" lon="12.4504483"><ele>236.00000000000003</ele><time>2026-04-11T06:50:02.994Z</time></trkpt><trkpt lat="43.9593183" lon="12.45036"><ele>236.0</ele><time>2026-04-11T06:50:03.994Z</time></trkpt><trkpt lat="43.9593117" lon="12.45019"><ele>236.0</ele><time>2026-04-11T06:50:05.994Z</time></trkpt><trkpt lat="43.959295" lon="12.4500167"><ele>238.20000000000002</ele><time>2026-04-11T06:50:07.995Z</time></trkpt><trkpt lat="43.9593083" lon="12.4498567"><ele>240.40000000000003</ele><time>2026-04-11T06:50:09.994Z</time></trkpt><trkpt lat="43.9593533" lon="12.4496967"><ele>242.6</ele><time>2026-04-11T06:50:11.994Z</time></trkpt><trkpt lat="43.95938" lon="12.4496017"><ele>244.8</ele><time>2026-04-11T06:50:12.994Z</time></trkpt><trkpt lat="43.9594133" lon="12.44951"><ele>247.0</ele><time>2026-04-11T06:50:13.994Z</time></trkpt><trkpt lat="43.9594483" lon="12.449415"><ele>248.16666666666666</ele><time>2026-04-11T06:50:14.995Z</time></trkpt><trkpt lat="43.95948" lon="12.4493183"><ele>249.33333333333331</ele><time>2026-04-11T06:50:15.994Z</time></trkpt><trkpt lat="43.95951" lon="12.449225"><ele>250.5</ele><time>2026-04-11T06:50:16.994Z</time></trkpt><trkpt lat="43.9595367" lon="12.4491383"><ele>251.66666666666669</ele><time>2026-04-11T06:50:17.994Z</time></trkpt><trkpt lat="43.95952" lon="12.448985"><ele>252.83333333333334</ele><time>2026-04-11T06:50:19.994Z</time></trkpt><trkpt lat="43.959435" lon="12.4488967"><ele>254.0</ele><time>2026-04-11T06:50:21.994Z</time></trkpt><trkpt lat="43.9593717" lon="12.4488783"><ele>254.00000000000003</ele><time>2026-04-11T06:50:22.994Z</time></trkpt><trkpt lat="43.959305" lon="12.448865"><ele>254.0</ele><time>2026-04-11T06:50:23.994Z</time></trkpt><trkpt lat="43.9591817" lon="12.4488367"><ele>254.0</ele><time>2026-04-11T06:50:25.994Z</time></trkpt><trkpt lat="43.95906" lon="12.4488"><ele>254.0</ele><time>2026-04-11T06:50:27.994Z</time></trkpt><trkpt lat="43.9589967" lon="12.4487733"><ele>254.00000000000003</ele><time>2026-04-11T06:50:28.994Z</time></trkpt><trkpt lat="43.9589333" lon="12.4487467"><ele>254.0</ele><time>2026-04-11T06:50:29.994Z</time></trkpt><trkpt lat="43.95887" lon="12.4487267"><ele>258.59999999999997</ele><time>2026-04-11T06:50:30.995Z</time></trkpt><trkpt lat="43.95881" lon="12.4487"><ele>263.2</ele><time>2026-04-11T06:50:31.994Z</time></trkpt><trkpt lat="43.9587433" lon="12.4486733"><ele>267.79999999999995</ele><time>2026-04-11T06:50:32.994Z</time></trkpt><trkpt lat="43.958625" lon="12.4486367"><ele>272.4</ele><time>2026-04-11T06:50:34.994Z</time></trkpt><trkpt lat="43.9585067" lon="12.4486467"><ele>277.0</ele><time>2026-04-11T06:50:36.994Z</time></trkpt><trkpt lat="43.9583983" lon="12.4486333"><ele>281.0</ele><time>2026-04-11T06:50:38.993Z</time></trkpt><trkpt lat="43.958305" lon="12.44859"><ele>285.0</ele><time>2026-04-11T06:50:40.993Z</time></trkpt><trkpt lat="43.9582117" lon="12.4485"><ele>289.0</ele><time>2026-04-11T06:50:42.993Z</time></trkpt><trkpt lat="43.9581617" lon="12.4483983"><ele>293.0</ele><time>2026-04-11T06:50:44.993Z</time></trkpt><trkpt lat="43.9581317" lon="12.4482683"><ele>297.0</ele><time>2026-04-11T06:50:46.993Z</time></trkpt><trkpt lat="43.95811" lon="12.448085"><ele>297.0</ele><time>2026-04-11T06:50:48.993Z</time></trkpt><trkpt lat="43.9581067" lon="12.4479883"><ele>297.0</ele><time>2026-04-11T06:50:49.993Z</time></trkpt><trkpt lat="43.9580933" lon="12.447895"><ele>297.0</ele><time>2026-04-11T06:50:50.993Z</time></trkpt><trkpt lat="43.9580783" lon="12.4478"><ele>297.0</ele><time>2026-04-11T06:50:51.993Z</time></trkpt><trkpt lat="43.9580467" lon="12.4477217"><ele>297.0</ele><time>2026-04-11T06:50:52.993Z</time></trkpt><trkpt lat="43.9580167" lon="12.4476367"><ele>297.0</ele><time>2026-04-11T06:50:53.993Z</time></trkpt><trkpt lat="43.9580033" lon="12.4475317"><ele>297.0</ele><time>2026-04-11T06:50:54.993Z</time></trkpt><trkpt lat="43.9579933" lon="12.4474283"><ele>298.0</ele><time>2026-04-11T06:50:55.994Z</time></trkpt><trkpt lat="43.9579867" lon="12.4473183"><ele>299.0</ele><time>2026-04-11T06:50:56.994Z</time></trkpt><trkpt lat="43.9579667" lon="12.447215"><ele>300.0</ele><time>2026-04-11T06:50:57.993Z</time></trkpt><trkpt lat="43.95794" lon="12.4471167"><ele>301.0</ele><time>2026-04-11T06:50:58.993Z</time></trkpt><trkpt lat="43.9578733" lon="12.4469967"><ele>302.0</ele><time>2026-04-11T06:51:00.993Z</time></trkpt><trkpt lat="43.9577767" lon="12.446895"><ele>302.83333333333337</ele><time>2026-04-11T06:51:02.993Z</time></trkpt><trkpt lat="43.9577167" lon="12.4468367"><ele>303.6666666666667</ele><time>2026-04-11T06:51:03.993Z</time></trkpt><trkpt lat="43.95765" lon="12.4467717"><ele>304.5</ele><time>2026-04-11T06:51:04.993Z</time></trkpt><trkpt lat="43.95758" lon="12.4466933"><ele>305.3333333333333</ele><time>2026-04-11T06:51:05.993Z</time></trkpt><trkpt lat="43.95751" lon="12.4466133"><ele>306.16666666666663</ele><time>2026-04-11T06:51:06.993Z</time></trkpt><trkpt lat="43.9574433" lon="12.4465233"><ele>307.0</ele><time>2026-04-11T06:51:07.993Z</time></trkpt><trkpt lat="43.9573767" lon="12.44643"><ele>309.8</ele><time>2026-04-11T06:51:08.993Z</time></trkpt><trkpt lat="43.9573017" lon="12.446315"><ele>312.6</ele><time>2026-04-11T06:51:09.993Z</time></trkpt><trkpt lat="43.9572283" lon="12.446195"><ele>315.40000000000003</ele><time>2026-04-11T06:51:10.993Z</time></trkpt><trkpt lat="43.9571617" lon="12.44607"><ele>318.2</ele><time>2026-04-11T06:51:11.993Z</time></trkpt><trkpt lat="43.957105" lon="12.4459417"><ele>321.0</ele><time>2026-04-11T06:51:12.993Z</time></trkpt><trkpt lat="43.9570617" lon="12.4458267"><ele>321.20000000000005</ele><time>2026-04-11T06:51:13.993Z</time></trkpt><trkpt lat="43.9570367" lon="12.44571"><ele>321.40000000000003</ele><time>2026-04-11T06:51:14.993Z</time></trkpt><trkpt lat="43.957005" lon="12.44559"><ele>321.6</ele><time>2026-04-11T06:51:15.993Z</time></trkpt><trkpt lat="43.9569567" lon="12.44546"><ele>321.8</ele><time>2026-04-11T06:51:16.993Z</time></trkpt><trkpt lat="43.9569433" lon="12.44533"><ele>322.0</ele><time>2026-04-11T06:51:17.993Z</time></trkpt><trkpt lat="43.9569217" lon="12.44519"><ele>322.0</ele><time>2026-04-11T06:51:18.993Z</time></trkpt><trkpt lat="43.95688" lon="12.4450367"><ele>322.0</ele><time>2026-04-11T06:51:19.993Z</time></trkpt><trkpt lat="43.9568317" lon="12.444875"><ele>322.0</ele><time>2026-04-11T06:51:20.994Z</time></trkpt><trkpt lat="43.956765" lon="12.444755"><ele>322.0</ele><time>2026-04-11T06:51:21.993Z</time></trkpt><trkpt lat="43.9566883" lon="12.4446833"><ele>322.0</ele><time>2026-04-11T06:51:22.993Z</time></trkpt><trkpt lat="43.9565983" lon="12.444655"><ele>326.40000000000003</ele><time>2026-04-11T06:51:23.993Z</time></trkpt><trkpt lat="43.95651" lon="12.4446367"><ele>330.8</ele><time>2026-04-11T06:51:24.993Z</time></trkpt><trkpt lat="43.956415" lon="12.4446083"><ele>335.2</ele><time>2026-04-11T06:51:25.993Z</time></trkpt><trkpt lat="43.9563033" lon="12.4445583"><ele>339.6</ele><time>2026-04-11T06:51:26.993Z</time></trkpt><trkpt lat="43.956205" lon="12.44449"><ele>344.0</ele><time>2026-04-11T06:51:27.993Z</time></trkpt><trkpt lat="43.9561233" lon="12.4444"><ele>344.79999999999995</ele><time>2026-04-11T06:51:28.993Z</time></trkpt><trkpt lat="43.9560717" lon="12.44429"><ele>345.59999999999997</ele><time>2026-04-11T06:51:29.994Z</time></trkpt><trkpt lat="43.9560333" lon="12.4441533"><ele>346.4</ele><time>2026-04-11T06:51:30.993Z</time></trkpt><trkpt lat="43.956015" lon="12.4439983"><ele>347.2</ele><time>2026-04-11T06:51:31.993Z</time></trkpt><trkpt lat="43.95602" lon="12.4438167"><ele>348.0</ele><time>2026-04-11T06:51:32.993Z</time></trkpt><trkpt lat="43.956025" lon="12.443635"><ele>348.0</ele><time>2026-04-11T06:51:33.993Z</time></trkpt><trkpt lat="43.95602" lon="12.4434317"><ele>348.0</ele><time>2026-04-11T06:51:34.993Z</time></trkpt><trkpt lat="43.9560117" lon="12.44322"><ele>348.0</ele><time>2026-04-11T06:51:35.993Z</time></trkpt><trkpt lat="43.9559967" lon="12.4430267"><ele>348.0</ele><time>2026-04-11T06:51:36.994Z</time></trkpt><trkpt lat="43.9559733" lon="12.4428383"><ele>348.2</ele><time>2026-04-11T06:51:37.993Z</time></trkpt><trkpt lat="43.9559433" lon="12.4426717"><ele>348.4</ele><time>2026-04-11T06:51:38.993Z</time></trkpt><trkpt lat="43.9558967" lon="12.4425583"><ele>348.59999999999997</ele><time>2026-04-11T06:51:39.993Z</time></trkpt><trkpt lat="43.9558317" lon="12.4424667"><ele>348.79999999999995</ele><time>2026-04-11T06:51:40.993Z</time></trkpt><trkpt lat="43.9557533" lon="12.4423667"><ele>349.0</ele><time>2026-04-11T06:51:41.993Z</time></trkpt><trkpt lat="43.9556717" lon="12.4422617"><ele>354.75</ele><time>2026-04-11T06:51:42.993Z</time></trkpt><trkpt lat="43.955585" lon="12.4421467"><ele>360.5</ele><time>2026-04-11T06:51:43.993Z</time></trkpt><trkpt lat="43.9554917" lon="12.4420167"><ele>366.25</ele><time>2026-04-11T06:51:44.993Z</time></trkpt><trkpt lat="43.955395" lon="12.441875"><ele>372.0</ele><time>2026-04-11T06:51:45.993Z</time></trkpt><trkpt lat="43.955295" lon="12.4417367"><ele>372.0</ele><time>2026-04-11T06:51:46.993Z</time></trkpt><trkpt lat="43.955195" lon="12.4415933"><ele>372.0</ele><time>2026-04-11T06:51:47.994Z</time></trkpt><trkpt lat="43.955095" lon="12.4414517"><ele>372.0</ele><time>2026-04-11T06:51:48.994Z</time></trkpt><trkpt lat="43.9549867" lon="12.4413167"><ele>372.0</ele><time>2026-04-11T06:51:49.993Z</time></trkpt><trkpt lat="43.9548867" lon="12.441185"><ele>375.40000000000003</ele><time>2026-04-11T06:51:50.993Z</time></trkpt><trkpt lat="43.9548083" lon="12.4410733"><ele>378.8</ele><time>2026-04-11T06:51:51.993Z</time></trkpt><trkpt lat="43.9547517" lon="12.44097"><ele>382.2</ele><time>2026-04-11T06:51:52.993Z</time></trkpt><trkpt lat="43.95472" lon="12.4408633"><ele>385.6</ele><time>2026-04-11T06:51:53.993Z</time></trkpt><trkpt lat="43.9546983" lon="12.4407183"><ele>389.0</ele><time>2026-04-11T06:51:54.993Z</time></trkpt><trkpt lat="43.95468" lon="12.4405817"><ele>388.66666666666663</ele><time>2026-04-11T06:51:55.993Z</time></trkpt><trkpt lat="43.9546833" lon="12.440465"><ele>388.3333333333333</ele><time>2026-04-11T06:51:56.993Z</time></trkpt><trkpt lat="43.95469" lon="12.440365"><ele>388.0</ele><time>2026-04-11T06:51:57.994Z</time></trkpt><trkpt lat="43.9546983" lon="12.4402767"><ele>387.66666666666663</ele><time>2026-04-11T06:51:58.993Z</time></trkpt><trkpt lat="43.9546883" lon="12.44017"><ele>387.3333333333333</ele><time>2026-04-11T06:52:00.993Z</time></trkpt><trkpt lat="43.9547133" lon="12.4400833"><ele>387.0</ele><time>2026-04-11T06:52:03.993Z</time></trkpt><trkpt lat="43.9548217" lon="12.4400317"><ele>387.0</ele><time>2026-04-11T06:52:05.993Z</time></trkpt><trkpt lat="43.9548933" lon="12.4399983"><ele>387.0</ele><time>2026-04-11T06:52:06.993Z</time></trkpt><trkpt lat="43.9549767" lon="12.43996"><ele>387.0</ele><time>2026-04-11T06:52:07.993Z</time></trkpt><trkpt lat="43.9550767" lon="12.4399067"><ele>387.0</ele><time>2026-04-11T06:52:08.993Z</time></trkpt><trkpt lat="43.95518" lon="12.4398467"><ele>387.0</ele><time>2026-04-11T06:52:09.994Z</time></trkpt><trkpt lat="43.955305" lon="12.4397817"><ele>386.75</ele><time>2026-04-11T06:52:10.993Z</time></trkpt><trkpt lat="43.9554333" lon="12.43971"><ele>386.5</ele><time>2026-04-11T06:52:11.993Z</time></trkpt><trkpt lat="43.95557" lon="12.439635"><ele>386.25</ele><time>2026-04-11T06:52:12.994Z</time></trkpt><trkpt lat="43.955715" lon="12.4395517"><ele>386.0</ele><time>2026-04-11T06:52:13.993Z</time></trkpt><trkpt lat="43.955855" lon="12.4394683"><ele>386.25</ele><time>2026-04-11T06:52:14.993Z</time></trkpt><trkpt lat="43.9559933" lon="12.4393833"><ele>386.5</ele><time>2026-04-11T06:52:15.994Z</time></trkpt><trkpt lat="43.9561233" lon="12.4393083"><ele>386.75</ele><time>2026-04-11T06:52:16.993Z</time></trkpt><trkpt lat="43.9562217" lon="12.4392467"><ele>387.0</ele><time>2026-04-11T06:52:17.993Z</time></trkpt><trkpt lat="43.9563083" lon="12.4391883"><ele>387.0</ele><time>2026-04-11T06:52:18.993Z</time></trkpt><trkpt lat="43.95636" lon="12.439105"><ele>387.0</ele><time>2026-04-11T06:52:19.993Z</time></trkpt><trkpt lat="43.9563983" lon="12.4389933"><ele>387.0</ele><time>2026-04-11T06:52:20.994Z</time></trkpt><trkpt lat="43.9564233" lon="12.4388583"><ele>387.0</ele><time>2026-04-11T06:52:21.993Z</time></trkpt><trkpt lat="43.95644" lon="12.4387133"><ele>387.0</ele><time>2026-04-11T06:52:22.993Z</time></trkpt><trkpt lat="43.9564417" lon="12.4385533"><ele>388.5</ele><time>2026-04-11T06:52:23.993Z</time></trkpt><trkpt lat="43.956435" lon="12.4383967"><ele>390.0</ele><time>2026-04-11T06:52:24.994Z</time></trkpt><trkpt lat="43.9564233" lon="12.4382283"><ele>391.5</ele><time>2026-04-11T06:52:25.993Z</time></trkpt><trkpt lat="43.9564033" lon="12.4380533"><ele>393.0</ele><time>2026-04-11T06:52:26.993Z</time></trkpt><trkpt lat="43.956375" lon="12.4378883"><ele>394.0</ele><time>2026-04-11T06:52:27.993Z</time></trkpt><trkpt lat="43.956335" lon="12.4377233"><ele>395.0</ele><time>2026-04-11T06:52:28.993Z</time></trkpt><trkpt lat="43.956295" lon="12.4375667"><ele>396.0</ele><time>2026-04-11T06:52:29.993Z</time></trkpt><trkpt lat="43.9562567" lon="12.4374067"><ele>397.0</ele><time>2026-04-11T06:52:30.994Z</time></trkpt><trkpt lat="43.9562117" lon="12.437255"><ele>398.25</ele><time>2026-04-11T06:52:31.993Z</time></trkpt><trkpt lat="43.9561717" lon="12.437105"><ele>399.5</ele><time>2026-04-11T06:52:32.993Z</time></trkpt><trkpt lat="43.9561333" lon="12.4369617"><ele>400.75</ele><time>2026-04-11T06:52:33.993Z</time></trkpt><trkpt lat="43.9561" lon="12.4368117"><ele>402.0</ele><time>2026-04-11T06:52:34.993Z</time></trkpt><trkpt lat="43.9560617" lon="12.4366633"><ele>402.0</ele><time>2026-04-11T06:52:35.993Z</time></trkpt><trkpt lat="43.95605" lon="12.4365067"><ele>402.0</ele><time>2026-04-11T06:52:36.994Z</time></trkpt><trkpt lat="43.9560683" lon="12.4363583"><ele>402.0</ele><time>2026-04-11T06:52:37.993Z</time></trkpt><trkpt lat="43.9561067" lon="12.43621"><ele>402.0</ele><time>2026-04-11T06:52:38.993Z</time></trkpt><trkpt lat="43.95617" lon="12.4360817"><ele>402.0</ele><time>2026-04-11T06:52:39.993Z</time></trkpt><trkpt lat="43.9562633" lon="12.43595"><ele>401.5</ele><time>2026-04-11T06:52:40.994Z</time></trkpt><trkpt lat="43.95637" lon="12.435835"><ele>401.0</ele><time>2026-04-11T06:52:41.993Z</time></trkpt><trkpt lat="43.9564733" lon="12.435725"><ele>400.5</ele><time>2026-04-11T06:52:42.994Z</time></trkpt><trkpt lat="43.956585" lon="12.4356267"><ele>400.0</ele><time>2026-04-11T06:52:43.993Z</time></trkpt><trkpt lat="43.9567117" lon="12.43555"><ele>400.0</ele><time>2026-04-11T06:52:44.993Z</time></trkpt><trkpt lat="43.9568283" lon="12.4354783"><ele>400.0</ele><time>2026-04-11T06:52:45.994Z</time></trkpt><trkpt lat="43.956945" lon="12.4354"><ele>400.0</ele><time>2026-04-11T06:52:46.993Z</time></trkpt><trkpt lat="43.9570567" lon="12.4353383"><ele>400.0</ele><time>2026-04-11T06:52:47.993Z</time></trkpt><trkpt lat="43.9571567" lon="12.435255"><ele>399.25</ele><time>2026-04-11T06:52:48.993Z</time></trkpt><trkpt lat="43.9572367" lon="12.4351383"><ele>398.5</ele><time>2026-04-11T06:52:49.993Z</time></trkpt><trkpt lat="43.9573033" lon="12.435015"><ele>397.75</ele><time>2026-04-11T06:52:50.994Z</time></trkpt><trkpt lat="43.9573667" lon="12.4348717"><ele>397.0</ele><time>2026-04-11T06:52:51.993Z</time></trkpt><trkpt lat="43.9574317" lon="12.4347317"><ele>397.0</ele><time>2026-04-11T06:52:52.993Z</time></trkpt><trkpt lat="43.957515" lon="12.4346083"><ele>397.0</ele><time>2026-04-11T06:52:53.993Z</time></trkpt><trkpt lat="43.9576017" lon="12.43448"><ele>397.0</ele><time>2026-04-11T06:52:54.993Z</time></trkpt><trkpt lat="43.9576967" lon="12.4343667"><ele>397.0</ele><time>2026-04-11T06:52:55.993Z</time></trkpt><trkpt lat="43.9577967" lon="12.43427"><ele>397.00000000000006</ele><time>2026-04-11T06:52:56.993Z</time></trkpt><trkpt lat="43.95788" lon="12.4341817"><ele>397.0</ele><time>2026-04-11T06:52:57.993Z</time></trkpt><trkpt lat="43.9579467" lon="12.434105"><ele>397.0</ele><time>2026-04-11T06:52:58.993Z</time></trkpt><trkpt lat="43.9579983" lon="12.4340183"><ele>397.0</ele><time>2026-04-11T06:52:59.993Z</time></trkpt><trkpt lat="43.9580317" lon="12.43392"><ele>397.00000000000006</ele><time>2026-04-11T06:53:00.994Z</time></trkpt><trkpt lat="43.958045" lon="12.4338167"><ele>397.0</ele><time>2026-04-11T06:53:01.993Z</time></trkpt><trkpt lat="43.95805" lon="12.4337167"><ele>395.20000000000005</ele><time>2026-04-11T06:53:02.993Z</time></trkpt><trkpt lat="43.9580633" lon="12.433605"><ele>393.4</ele><time>2026-04-11T06:53:03.993Z</time></trkpt><trkpt lat="43.9580733" lon="12.4334933"><ele>391.6</ele><time>2026-04-11T06:53:04.993Z</time></trkpt><trkpt lat="43.9580867" lon="12.4333617"><ele>389.79999999999995</ele><time>2026-04-11T06:53:05.993Z</time></trkpt><trkpt lat="43.9581017" lon="12.433215"><ele>388.0</ele><time>2026-04-11T06:53:06.993Z</time></trkpt><trkpt lat="43.9581117" lon="12.4330633"><ele>386.4</ele><time>2026-04-11T06:53:07.994Z</time></trkpt><trkpt lat="43.9581167" lon="12.432905"><ele>384.79999999999995</ele><time>2026-04-11T06:53:08.993Z</time></trkpt><trkpt lat="43.9581133" lon="12.4327633"><ele>383.2</ele><time>2026-04-11T06:53:09.993Z</time></trkpt><trkpt lat="43.9581133" lon="12.4326267"><ele>381.6</ele><time>2026-04-11T06:53:10.993Z</time></trkpt><trkpt lat="43.9581217" lon="12.4325"><ele>380.0</ele><time>2026-04-11T06:53:11.993Z</time></trkpt><trkpt lat="43.9581467" lon="12.4323867"><ele>380.0</ele><time>2026-04-11T06:53:12.993Z</time></trkpt><trkpt lat="43.958175" lon="12.4322667"><ele>380.0</ele><time>2026-04-11T06:53:13.993Z</time></trkpt><trkpt lat="43.9582217" lon="12.43216"><ele>380.0</ele><time>2026-04-11T06:53:14.993Z</time></trkpt><trkpt lat="43.9582867" lon="12.43207"><ele>380.0</ele><time>2026-04-11T06:53:15.993Z</time></trkpt><trkpt lat="43.9583567" lon="12.43198"><ele>380.0</ele><time>2026-04-11T06:53:16.993Z</time></trkpt><trkpt lat="43.95843" lon="12.4318833"><ele>378.4</ele><time>2026-04-11T06:53:17.993Z</time></trkpt><trkpt lat="43.9585083" lon="12.4317733"><ele>376.8</ele><time>2026-04-11T06:53:18.994Z</time></trkpt><trkpt lat="43.95858" lon="12.431655"><ele>375.20000000000005</ele><time>2026-04-11T06:53:19.993Z</time></trkpt><trkpt lat="43.9586617" lon="12.4315533"><ele>373.6</ele><time>2026-04-11T06:53:20.993Z</time></trkpt><trkpt lat="43.9587317" lon="12.4314617"><ele>372.0</ele><time>2026-04-11T06:53:21.993Z</time></trkpt><trkpt lat="43.9588017" lon="12.4313967"><ele>372.0</ele><time>2026-04-11T06:53:22.994Z</time></trkpt><trkpt lat="43.9588783" lon="12.431355"><ele>372.0</ele><time>2026-04-11T06:53:23.993Z</time></trkpt><trkpt lat="43.9589633" lon="12.4313083"><ele>372.0</ele><time>2026-04-11T06:53:24.993Z</time></trkpt><trkpt lat="43.95906" lon="12.43127"><ele>372.0</ele><time>2026-04-11T06:53:25.993Z</time></trkpt><trkpt lat="43.959165" lon="12.4312083"><ele>372.0</ele><time>2026-04-11T06:53:26.993Z</time></trkpt><trkpt lat="43.9592817" lon="12.4311467"><ele>369.20000000000005</ele><time>2026-04-11T06:53:27.993Z</time></trkpt><trkpt lat="43.95939" lon="12.4310967"><ele>366.4</ele><time>2026-04-11T06:53:28.994Z</time></trkpt><trkpt lat="43.9594667" lon="12.431045"><ele>363.6</ele><time>2026-04-11T06:53:29.994Z</time></trkpt><trkpt lat="43.9595333" lon="12.43099"><ele>360.79999999999995</ele><time>2026-04-11T06:53:31.993Z</time></trkpt><trkpt lat="43.9594933" lon="12.4308683"><ele>358.0</ele><time>2026-04-11T06:53:33.993Z</time></trkpt><trkpt lat="43.9594383" lon="12.430775"><ele>358.0</ele><time>2026-04-11T06:53:34.993Z</time></trkpt><trkpt lat="43.9593633" lon="12.4306667"><ele>358.0</ele><time>2026-04-11T06:53:35.993Z</time></trkpt><trkpt lat="43.9592783" lon="12.43054"><ele>358.0</ele><time>2026-04-11T06:53:36.993Z</time></trkpt><trkpt lat="43.9591967" lon="12.4304133"><ele>358.0</ele><time>2026-04-11T06:53:37.993Z</time></trkpt><trkpt lat="43.9591333" lon="12.4302983"><ele>357.5</ele><time>2026-04-11T06:53:38.993Z</time></trkpt><trkpt lat="43.9590767" lon="12.430195"><ele>357.0</ele><time>2026-04-11T06:53:39.994Z</time></trkpt><trkpt lat="43.9590317" lon="12.4300967"><ele>356.5</ele><time>2026-04-11T06:53:40.993Z</time></trkpt><trkpt lat="43.9590017" lon="12.430015"><ele>356.0</ele><time>2026-04-11T06:53:41.993Z</time></trkpt><trkpt lat="43.95901" lon="12.4298433"><ele>355.5</ele><time>2026-04-11T06:53:43.993Z</time></trkpt><trkpt lat="43.959045" lon="12.4297517"><ele>355.0</ele><time>2026-04-11T06:53:44.993Z</time></trkpt><trkpt lat="43.9590733" lon="12.4296317"><ele>353.0</ele><time>2026-04-11T06:53:45.993Z</time></trkpt><trkpt lat="43.959085" lon="12.4294833"><ele>351.0</ele><time>2026-04-11T06:53:46.993Z</time></trkpt><trkpt lat="43.9590817" lon="12.42933"><ele>349.0</ele><time>2026-04-11T06:53:47.993Z</time></trkpt><trkpt lat="43.95906" lon="12.42918"><ele>347.0</ele><time>2026-04-11T06:53:48.993Z</time></trkpt><trkpt lat="43.9590217" lon="12.4290433"><ele>345.0</ele><time>2026-04-11T06:53:49.994Z</time></trkpt><trkpt lat="43.958965" lon="12.4289217"><ele>345.0</ele><time>2026-04-11T06:53:50.993Z</time></trkpt><trkpt lat="43.9588783" lon="12.4288167"><ele>345.0</ele><time>2026-04-11T06:53:51.993Z</time></trkpt><trkpt lat="43.9588033" lon="12.42872"><ele>345.0</ele><time>2026-04-11T06:53:52.993Z</time></trkpt><trkpt lat="43.958755" lon="12.4286167"><ele>345.0</ele><time>2026-04-11T06:53:53.993Z</time></trkpt><trkpt lat="43.9587367" lon="12.42852"><ele>345.0</ele><time>2026-04-11T06:53:54.993Z</time></trkpt><trkpt lat="43.9587517" lon="12.428435"><ele>345.0</ele><time>2026-04-11T06:53:55.993Z</time></trkpt><trkpt lat="43.9587967" lon="12.42836"><ele>344.2</ele><time>2026-04-11T06:53:56.993Z</time></trkpt><trkpt lat="43.958875" lon="12.4283233"><ele>343.4</ele><time>2026-04-11T06:53:57.993Z</time></trkpt><trkpt lat="43.9589617" lon="12.4283067"><ele>342.6</ele><time>2026-04-11T06:53:58.994Z</time></trkpt><trkpt lat="43.9590583" lon="12.4283383"><ele>341.8</ele><time>2026-04-11T06:53:59.993Z</time></trkpt><trkpt lat="43.9591517" lon="12.428415"><ele>341.0</ele><time>2026-04-11T06:54:00.993Z</time></trkpt><trkpt lat="43.9592217" lon="12.428535"><ele>340.0</ele><time>2026-04-11T06:54:01.993Z</time></trkpt><trkpt lat="43.9592817" lon="12.4286933"><ele>339.0</ele><time>2026-04-11T06:54:02.993Z</time></trkpt><trkpt lat="43.9593433" lon="12.4288567"><ele>338.0</ele><time>2026-04-11T06:54:03.993Z</time></trkpt><trkpt lat="43.9593983" lon="12.4290167"><ele>337.0</ele><time>2026-04-11T06:54:04.993Z</time></trkpt><trkpt lat="43.9594433" lon="12.429155"><ele>337.0</ele><time>2026-04-11T06:54:05.994Z</time></trkpt><trkpt lat="43.959485" lon="12.429265"><ele>337.0</ele><time>2026-04-11T06:54:06.993Z</time></trkpt><trkpt lat="43.9595317" lon="12.42935"><ele>337.0</ele><time>2026-04-11T06:54:07.993Z</time></trkpt><trkpt lat="43.959585" lon="12.4294017"><ele>337.0</ele><time>2026-04-11T06:54:08.993Z</time></trkpt><trkpt lat="43.9596683" lon="12.4293917"><ele>337.0</ele><time>2026-04-11T06:54:09.994Z</time></trkpt><trkpt lat="43.959735" lon="12.42935"><ele>337.0</ele><time>2026-04-11T06:54:10.993Z</time></trkpt><trkpt lat="43.95979" lon="12.4292783"><ele>337.0</ele><time>2026-04-11T06:54:11.993Z</time></trkpt><trkpt lat="43.959805" lon="12.42916"><ele>337.0</ele><time>2026-04-11T06:54:12.993Z</time></trkpt><trkpt lat="43.959795" lon="12.4290367"><ele>337.0</ele><time>2026-04-11T06:54:13.993Z</time></trkpt><trkpt lat="43.959765" lon="12.4288933"><ele>337.0</ele><time>2026-04-11T06:54:14.993Z</time></trkpt><trkpt lat="43.9597267" lon="12.42873"><ele>337.0</ele><time>2026-04-11T06:54:15.993Z</time></trkpt><trkpt lat="43.959685" lon="12.4285667"><ele>334.75</ele><time>2026-04-11T06:54:16.993Z</time></trkpt><trkpt lat="43.9596467" lon="12.4284083"><ele>332.5</ele><time>2026-04-11T06:54:17.993Z</time></trkpt><trkpt lat="43.959605" lon="12.4282433"><ele>330.25</ele><time>2026-04-11T06:54:18.993Z</time></trkpt><trkpt lat="43.9595617" lon="12.428085"><ele>328.0</ele><time>2026-04-11T06:54:19.993Z</time></trkpt><trkpt lat="43.9595" lon="12.4279367"><ele>328.2</ele><time>2026-04-11T06:54:20.994Z</time></trkpt><trkpt lat="43.9594433" lon="12.4278017"><ele>328.4</ele><time>2026-04-11T06:54:21.993Z</time></trkpt><trkpt lat="43.9593883" lon="12.4276917"><ele>328.59999999999997</ele><time>2026-04-11T06:54:22.994Z</time></trkpt><trkpt lat="43.9593233" lon="12.4275783"><ele>328.79999999999995</ele><time>2026-04-11T06:54:23.993Z</time></trkpt><trkpt lat="43.9592417" lon="12.427475"><ele>329.0</ele><time>2026-04-11T06:54:24.993Z</time></trkpt><trkpt lat="43.9591417" lon="12.4273883"><ele>329.0</ele><time>2026-04-11T06:54:25.993Z</time></trkpt><trkpt lat="43.95904" lon="12.4273383"><ele>329.0</ele><time>2026-04-11T06:54:26.994Z</time></trkpt><trkpt lat="43.9589267" lon="12.4273083"><ele>329.0</ele><time>2026-04-11T06:54:27.993Z</time></trkpt><trkpt lat="43.9588117" lon="12.4273067"><ele>329.0</ele><time>2026-04-11T06:54:28.993Z</time></trkpt><trkpt lat="43.9587033" lon="12.4273033"><ele>329.0</ele><time>2026-04-11T06:54:29.994Z</time></trkpt><trkpt lat="43.9585967" lon="12.4273233"><ele>329.0</ele><time>2026-04-11T06:54:30.993Z</time></trkpt><trkpt lat="43.9585033" lon="12.4273667"><ele>329.0</ele><time>2026-04-11T06:54:31.993Z</time></trkpt><trkpt lat="43.9584217" lon="12.427415"><ele>329.0</ele><time>2026-04-11T06:54:32.993Z</time></trkpt><trkpt lat="43.958345" lon="12.4274583"><ele>329.0</ele><time>2026-04-11T06:54:33.994Z</time></trkpt><trkpt lat="43.9582667" lon="12.4274683"><ele>329.0</ele><time>2026-04-11T06:54:34.993Z</time></trkpt><trkpt lat="43.9581983" lon="12.4274517"><ele>329.0</ele><time>2026-04-11T06:54:35.994Z</time></trkpt><trkpt lat="43.95815" lon="12.427275"><ele>328.7142857142857</ele><time>2026-04-11T06:54:37.993Z</time></trkpt><trkpt lat="43.95819" lon="12.427185"><ele>328.42857142857144</ele><time>2026-04-11T06:54:38.993Z</time></trkpt><trkpt lat="43.95825" lon="12.4271283"><ele>328.1428571428571</ele><time>2026-04-11T06:54:39.993Z</time></trkpt><trkpt lat="43.95832" lon="12.4270933"><ele>327.8571428571429</ele><time>2026-04-11T06:54:40.993Z</time></trkpt><trkpt lat="43.9583917" lon="12.4270683"><ele>327.57142857142856</ele><time>2026-04-11T06:54:41.993Z</time></trkpt><trkpt lat="43.9584567" lon="12.4270283"><ele>327.2857142857143</ele><time>2026-04-11T06:54:42.993Z</time></trkpt><trkpt lat="43.9585033" lon="12.426955"><ele>327.0</ele><time>2026-04-11T06:54:43.993Z</time></trkpt><trkpt lat="43.958505" lon="12.4268067"><ele>325.0</ele><time>2026-04-11T06:54:45.993Z</time></trkpt><trkpt lat="43.958385" lon="12.4267317"><ele>323.0</ele><time>2026-04-11T06:54:47.993Z</time></trkpt><trkpt lat="43.9582983" lon="12.4267583"><ele>321.0</ele><time>2026-04-11T06:54:48.993Z</time></trkpt><trkpt lat="43.9582083" lon="12.426795"><ele>319.0</ele><time>2026-04-11T06:54:49.994Z</time></trkpt><trkpt lat="43.9581133" lon="12.4268483"><ele>317.0</ele><time>2026-04-11T06:54:50.994Z</time></trkpt><trkpt lat="43.95801" lon="12.4269117"><ele>317.0</ele><time>2026-04-11T06:54:51.993Z</time></trkpt><trkpt lat="43.957905" lon="12.426975"><ele>317.0</ele><time>2026-04-11T06:54:52.993Z</time></trkpt><trkpt lat="43.9578" lon="12.42702"><ele>317.0</ele><time>2026-04-11T06:54:53.993Z</time></trkpt><trkpt lat="43.9577" lon="12.4270517"><ele>317.0</ele><time>2026-04-11T06:54:54.994Z</time></trkpt><trkpt lat="43.9576017" lon="12.427055"><ele>317.0</ele><time>2026-04-11T06:54:55.993Z</time></trkpt><trkpt lat="43.9575167" lon="12.4270117"><ele>315.6</ele><time>2026-04-11T06:54:56.994Z</time></trkpt><trkpt lat="43.9574383" lon="12.4269467"><ele>314.2</ele><time>2026-04-11T06:54:57.993Z</time></trkpt><trkpt lat="43.9573583" lon="12.4268467"><ele>312.8</ele><time>2026-04-11T06:54:58.993Z</time></trkpt><trkpt lat="43.9572867" lon="12.4267133"><ele>311.4</ele><time>2026-04-11T06:54:59.993Z</time></trkpt><trkpt lat="43.9572183" lon="12.4265733"><ele>310.0</ele><time>2026-04-11T06:55:00.993Z</time></trkpt><trkpt lat="43.9571533" lon="12.4264267"><ele>308.25</ele><time>2026-04-11T06:55:01.993Z</time></trkpt><trkpt lat="43.957085" lon="12.4262883"><ele>306.5</ele><time>2026-04-11T06:55:02.994Z</time></trkpt><trkpt lat="43.957045" lon="12.4261333"><ele>304.75</ele><time>2026-04-11T06:55:03.993Z</time></trkpt><trkpt lat="43.9570317" lon="12.4259533"><ele>303.0</ele><time>2026-04-11T06:55:04.993Z</time></trkpt><trkpt lat="43.9570567" lon="12.425775"><ele>303.0</ele><time>2026-04-11T06:55:05.993Z</time></trkpt><trkpt lat="43.957095" lon="12.4255917"><ele>303.0</ele><time>2026-04-11T06:55:06.993Z</time></trkpt><trkpt lat="43.9571233" lon="12.42539"><ele>303.0</ele><time>2026-04-11T06:55:07.993Z</time></trkpt><trkpt lat="43.9571567" lon="12.42519"><ele>303.0</ele><time>2026-04-11T06:55:08.993Z</time></trkpt><trkpt lat="43.957175" lon="12.42498"><ele>303.0</ele><time>2026-04-11T06:55:09.993Z</time></trkpt><trkpt lat="43.9572067" lon="12.4247983"><ele>303.0</ele><time>2026-04-11T06:55:10.993Z</time></trkpt><trkpt lat="43.9572367" lon="12.424615"><ele>303.0</ele><time>2026-04-11T06:55:11.993Z</time></trkpt><trkpt lat="43.9572783" lon="12.4244333"><ele>303.0</ele><time>2026-04-11T06:55:12.993Z</time></trkpt><trkpt lat="43.9573183" lon="12.4242433"><ele>304.0</ele><time>2026-04-11T06:55:13.993Z</time></trkpt><trkpt lat="43.9573533" lon="12.424055"><ele>305.0</ele><time>2026-04-11T06:55:14.993Z</time></trkpt><trkpt lat="43.9573933" lon="12.4238817"><ele>306.0</ele><time>2026-04-11T06:55:15.993Z</time></trkpt><trkpt lat="43.95743" lon="12.423695"><ele>307.0</ele><time>2026-04-11T06:55:16.993Z</time></trkpt><trkpt lat="43.9574733" lon="12.4235033"><ele>307.25</ele><time>2026-04-11T06:55:17.993Z</time></trkpt><trkpt lat="43.9575183" lon="12.4233233"><ele>307.5</ele><time>2026-04-11T06:55:18.993Z</time></trkpt><trkpt lat="43.9575567" lon="12.4231483"><ele>307.75</ele><time>2026-04-11T06:55:19.993Z</time></trkpt><trkpt lat="43.957585" lon="12.4229683"><ele>308.0</ele><time>2026-04-11T06:55:20.993Z</time></trkpt><trkpt lat="43.9576033" lon="12.422785"><ele>306.75</ele><time>2026-04-11T06:55:21.993Z</time></trkpt><trkpt lat="43.9576117" lon="12.4225983"><ele>305.5</ele><time>2026-04-11T06:55:22.994Z</time></trkpt><trkpt lat="43.9576233" lon="12.4224117"><ele>304.25</ele><time>2026-04-11T06:55:23.993Z</time></trkpt><trkpt lat="43.9576333" lon="12.4222367"><ele>303.0</ele><time>2026-04-11T06:55:24.993Z</time></trkpt><trkpt lat="43.9576483" lon="12.4220583"><ele>303.0</ele><time>2026-04-11T06:55:25.994Z</time></trkpt><trkpt lat="43.9576667" lon="12.421885"><ele>303.0</ele><time>2026-04-11T06:55:26.993Z</time></trkpt><trkpt lat="43.95769" lon="12.421715"><ele>303.0</ele><time>2026-04-11T06:55:27.994Z</time></trkpt><trkpt lat="43.9577133" lon="12.421525"><ele>303.0</ele><time>2026-04-11T06:55:28.994Z</time></trkpt><trkpt lat="43.9577483" lon="12.4213583"><ele>303.0</ele><time>2026-04-11T06:55:29.993Z</time></trkpt><trkpt lat="43.9577717" lon="12.4211917"><ele>303.0</ele><time>2026-04-11T06:55:30.993Z</time></trkpt><trkpt lat="43.9577833" lon="12.42103"><ele>303.0</ele><time>2026-04-11T06:55:31.993Z</time></trkpt><trkpt lat="43.9577917" lon="12.42087"><ele>303.0</ele><time>2026-04-11T06:55:32.993Z</time></trkpt><trkpt lat="43.957785" lon="12.420695"><ele>303.0</ele><time>2026-04-11T06:55:33.993Z</time></trkpt><trkpt lat="43.957775" lon="12.4205267"><ele>303.0</ele><time>2026-04-11T06:55:34.993Z</time></trkpt><trkpt lat="43.9577683" lon="12.4203617"><ele>303.0</ele><time>2026-04-11T06:55:35.994Z</time></trkpt><trkpt lat="43.95777" lon="12.4202217"><ele>303.0</ele><time>2026-04-11T06:55:36.993Z</time></trkpt><trkpt lat="43.95778" lon="12.420105"><ele>303.0</ele><time>2026-04-11T06:55:37.993Z</time></trkpt><trkpt lat="43.9578" lon="12.420005"><ele>302.4</ele><time>2026-04-11T06:55:38.993Z</time></trkpt><trkpt lat="43.9578283" lon="12.4198533"><ele>301.8</ele><time>2026-04-11T06:55:40.994Z</time></trkpt><trkpt lat="43.9578667" lon="12.41972"><ele>301.2</ele><time>2026-04-11T06:55:42.993Z</time></trkpt><trkpt lat="43.9579017" lon="12.4196017"><ele>300.6</ele><time>2026-04-11T06:55:44.993Z</time></trkpt><trkpt lat="43.957925" lon="12.4195033"><ele>300.0</ele><time>2026-04-11T06:55:46.993Z</time></trkpt><trkpt lat="43.9579583" lon="12.4194133"><ele>300.0</ele><time>2026-04-11T06:55:48.993Z</time></trkpt><trkpt lat="43.9580017" lon="12.4193217"><ele>300.0</ele><time>2026-04-11T06:55:50.993Z</time></trkpt><trkpt lat="43.9580517" lon="12.4192183"><ele>300.0</ele><time>2026-04-11T06:55:52.993Z</time></trkpt><trkpt lat="43.958105" lon="12.4190767"><ele>300.0</ele><time>2026-04-11T06:55:54.993Z</time></trkpt><trkpt lat="43.9581333" lon="12.41899"><ele>300.0</ele><time>2026-04-11T06:55:55.993Z</time></trkpt><trkpt lat="43.9581617" lon="12.418895"><ele>300.0</ele><time>2026-04-11T06:55:56.993Z</time></trkpt><trkpt lat="43.9581867" lon="12.4188067"><ele>300.1666666666667</ele><time>2026-04-11T06:55:57.993Z</time></trkpt><trkpt lat="43.9582117" lon="12.418725"><ele>300.3333333333333</ele><time>2026-04-11T06:55:58.993Z</time></trkpt><trkpt lat="43.95826" lon="12.4186267"><ele>300.5</ele><time>2026-04-11T06:56:00.993Z</time></trkpt><trkpt lat="43.9583233" lon="12.41862"><ele>300.66666666666663</ele><time>2026-04-11T06:56:31.993Z</time></trkpt><trkpt lat="43.95844" lon="12.41861"><ele>300.8333333333333</ele><time>2026-04-11T06:56:33.993Z</time></trkpt><trkpt lat="43.9585117" lon="12.4185983"><ele>301.0</ele><time>2026-04-11T06:56:34.993Z</time></trkpt><trkpt lat="43.9585883" lon="12.41858"><ele>299.66666666666663</ele><time>2026-04-11T06:56:35.993Z</time></trkpt><trkpt lat="43.9586633" lon="12.4185567"><ele>298.3333333333333</ele><time>2026-04-11T06:56:36.993Z</time></trkpt><trkpt lat="43.95874" lon="12.4185367"><ele>297.0</ele><time>2026-04-11T06:56:37.993Z</time></trkpt><trkpt lat="43.9588133" lon="12.4185083"><ele>295.6666666666667</ele><time>2026-04-11T06:56:38.993Z</time></trkpt><trkpt lat="43.9588883" lon="12.4184817"><ele>294.33333333333337</ele><time>2026-04-11T06:56:39.993Z</time></trkpt><trkpt lat="43.9589567" lon="12.4184567"><ele>293.0</ele><time>2026-04-11T06:56:40.993Z</time></trkpt><trkpt lat="43.95903" lon="12.418445"><ele>293.0</ele><time>2026-04-11T06:56:41.993Z</time></trkpt><trkpt lat="43.9591" lon="12.4184317"><ele>293.0</ele><time>2026-04-11T06:56:42.993Z</time></trkpt><trkpt lat="43.95917" lon="12.4184083"><ele>293.0</ele><time>2026-04-11T06:56:43.993Z</time></trkpt><trkpt lat="43.9592317" lon="12.4183533"><ele>293.0</ele><time>2026-04-11T06:56:44.993Z</time></trkpt><trkpt lat="43.9592983" lon="12.418285"><ele>293.0</ele><time>2026-04-11T06:56:45.993Z</time></trkpt><trkpt lat="43.9593517" lon="12.418215"><ele>293.0</ele><time>2026-04-11T06:56:46.993Z</time></trkpt><trkpt lat="43.9594033" lon="12.418125"><ele>290.83333333333337</ele><time>2026-04-11T06:56:47.993Z</time></trkpt><trkpt lat="43.9594533" lon="12.4180367"><ele>288.6666666666667</ele><time>2026-04-11T06:56:48.993Z</time></trkpt><trkpt lat="43.959495" lon="12.41794"><ele>286.5</ele><time>2026-04-11T06:56:49.993Z</time></trkpt><trkpt lat="43.9595233" lon="12.4178167"><ele>284.3333333333333</ele><time>2026-04-11T06:56:50.993Z</time></trkpt><trkpt lat="43.9595533" lon="12.4176933"><ele>282.16666666666663</ele><time>2026-04-11T06:56:51.993Z</time></trkpt><trkpt lat="43.9595833" lon="12.4175733"><ele>280.0</ele><time>2026-04-11T06:56:52.993Z</time></trkpt><trkpt lat="43.9596217" lon="12.4174733"><ele>280.0</ele><time>2026-04-11T06:56:53.993Z</time></trkpt><trkpt lat="43.9596817" lon="12.417385"><ele>280.0</ele><time>2026-04-11T06:56:54.993Z</time></trkpt><trkpt lat="43.959745" lon="12.417315"><ele>280.0</ele><time>2026-04-11T06:56:55.993Z</time></trkpt><trkpt lat="43.9598233" lon="12.4172383"><ele>280.0</ele><time>2026-04-11T06:56:56.993Z</time></trkpt><trkpt lat="43.9599033" lon="12.41714"><ele>280.0</ele><time>2026-04-11T06:56:57.994Z</time></trkpt><trkpt lat="43.9599683" lon="12.41705"><ele>279.2</ele><time>2026-04-11T06:56:58.993Z</time></trkpt><trkpt lat="43.9600267" lon="12.4169517"><ele>278.4</ele><time>2026-04-11T06:56:59.993Z</time></trkpt><trkpt lat="43.9600783" lon="12.4168533"><ele>277.6</ele><time>2026-04-11T06:57:00.993Z</time></trkpt><trkpt lat="43.960135" lon="12.4167417"><ele>276.8</ele><time>2026-04-11T06:57:01.993Z</time></trkpt><trkpt lat="43.960175" lon="12.4166233"><ele>276.0</ele><time>2026-04-11T06:57:02.994Z</time></trkpt><trkpt lat="43.96019" lon="12.4165117"><ele>274.0</ele><time>2026-04-11T06:57:03.993Z</time></trkpt><trkpt lat="43.9601967" lon="12.4163983"><ele>272.0</ele><time>2026-04-11T06:57:04.993Z</time></trkpt><trkpt lat="43.960175" lon="12.416285"><ele>270.0</ele><time>2026-04-11T06:57:05.993Z</time></trkpt><trkpt lat="43.9601383" lon="12.4161533"><ele>268.0</ele><time>2026-04-11T06:57:06.993Z</time></trkpt><trkpt lat="43.9601" lon="12.41601"><ele>266.0</ele><time>2026-04-11T06:57:07.993Z</time></trkpt><trkpt lat="43.9600667" lon="12.415865"><ele>266.2</ele><time>2026-04-11T06:57:08.993Z</time></trkpt><trkpt lat="43.9600367" lon="12.41573"><ele>266.40000000000003</ele><time>2026-04-11T06:57:09.993Z</time></trkpt><trkpt lat="43.960005" lon="12.4156083"><ele>266.6</ele><time>2026-04-11T06:57:10.993Z</time></trkpt><trkpt lat="43.9599833" lon="12.41549"><ele>266.8</ele><time>2026-04-11T06:57:11.993Z</time></trkpt><trkpt lat="43.9599767" lon="12.41537"><ele>267.0</ele><time>2026-04-11T06:57:12.993Z</time></trkpt><trkpt lat="43.9599683" lon="12.415255"><ele>265.3333333333333</ele><time>2026-04-11T06:57:13.993Z</time></trkpt><trkpt lat="43.9599667" lon="12.4151333"><ele>263.6666666666667</ele><time>2026-04-11T06:57:14.994Z</time></trkpt><trkpt lat="43.9599667" lon="12.41502"><ele>262.0</ele><time>2026-04-11T06:57:15.993Z</time></trkpt><trkpt lat="43.9599783" lon="12.414905"><ele>260.33333333333337</ele><time>2026-04-11T06:57:16.993Z</time></trkpt><trkpt lat="43.9599983" lon="12.41482"><ele>258.6666666666667</ele><time>2026-04-11T06:57:17.994Z</time></trkpt><trkpt lat="43.96004" lon="12.4147267"><ele>257.0</ele><time>2026-04-11T06:57:18.993Z</time></trkpt><trkpt lat="43.9601" lon="12.414645"><ele>253.50000000000003</ele><time>2026-04-11T06:57:19.993Z</time></trkpt><trkpt lat="43.9601717" lon="12.4145567"><ele>250.0</ele><time>2026-04-11T06:57:20.993Z</time></trkpt><trkpt lat="43.9602317" lon="12.4144667"><ele>246.5</ele><time>2026-04-11T06:57:21.993Z</time></trkpt><trkpt lat="43.9602833" lon="12.4143617"><ele>243.0</ele><time>2026-04-11T06:57:22.994Z</time></trkpt><trkpt lat="43.96032" lon="12.4142633"><ele>239.50000000000003</ele><time>2026-04-11T06:57:23.993Z</time></trkpt><trkpt lat="43.9603367" lon="12.4141583"><ele>236.0</ele><time>2026-04-11T06:57:24.993Z</time></trkpt><trkpt lat="43.960345" lon="12.414065"><ele>236.00000000000003</ele><time>2026-04-11T06:57:25.993Z</time></trkpt><trkpt lat="43.9603533" lon="12.4139683"><ele>236.0</ele><time>2026-04-11T06:57:26.993Z</time></trkpt><trkpt lat="43.960365" lon="12.4138667"><ele>236.0</ele><time>2026-04-11T06:57:27.993Z</time></trkpt><trkpt lat="43.9603933" lon="12.4137567"><ele>236.0</ele><time>2026-04-11T06:57:28.994Z</time></trkpt><trkpt lat="43.96044" lon="12.4136283"><ele>236.00000000000003</ele><time>2026-04-11T06:57:29.993Z</time></trkpt><trkpt lat="43.9604983" lon="12.4134933"><ele>236.0</ele><time>2026-04-11T06:57:30.993Z</time></trkpt><trkpt lat="43.9605433" lon="12.41335"><ele>234.8</ele><time>2026-04-11T06:57:31.993Z</time></trkpt><trkpt lat="43.960585" lon="12.4132117"><ele>233.60000000000002</ele><time>2026-04-11T06:57:32.994Z</time></trkpt><trkpt lat="43.9606217" lon="12.4130683"><ele>232.4</ele><time>2026-04-11T06:57:33.993Z</time></trkpt><trkpt lat="43.960665" lon="12.4129233"><ele>231.2</ele><time>2026-04-11T06:57:34.993Z</time></trkpt><trkpt lat="43.96071" lon="12.4127733"><ele>230.0</ele><time>2026-04-11T06:57:35.993Z</time></trkpt><trkpt lat="43.96074" lon="12.4126217"><ele>229.4</ele><time>2026-04-11T06:57:36.993Z</time></trkpt><trkpt lat="43.9607567" lon="12.412475"><ele>228.8</ele><time>2026-04-11T06:57:37.993Z</time></trkpt><trkpt lat="43.9607633" lon="12.4123333"><ele>228.2</ele><time>2026-04-11T06:57:38.993Z</time></trkpt><trkpt lat="43.9607667" lon="12.412195"><ele>227.6</ele><time>2026-04-11T06:57:39.993Z</time></trkpt><trkpt lat="43.9607683" lon="12.4120683"><ele>227.0</ele><time>2026-04-11T06:57:40.994Z</time></trkpt><trkpt lat="43.960775" lon="12.4119417"><ele>226.6</ele><time>2026-04-11T06:57:41.994Z</time></trkpt><trkpt lat="43.9607867" lon="12.4118167"><ele>226.2</ele><time>2026-04-11T06:57:42.993Z</time></trkpt><trkpt lat="43.9608083" lon="12.4116917"><ele>225.8</ele><time>2026-04-11T06:57:43.994Z</time></trkpt><trkpt lat="43.96084" lon="12.411565"><ele>225.4</ele><time>2026-04-11T06:57:44.993Z</time></trkpt><trkpt lat="43.96088" lon="12.4114467"><ele>225.0</ele><time>2026-04-11T06:57:45.993Z</time></trkpt><trkpt lat="43.9609283" lon="12.4113317"><ele>221.83333333333334</ele><time>2026-04-11T06:57:46.993Z</time></trkpt><trkpt lat="43.9609533" lon="12.4112417"><ele>218.66666666666669</ele><time>2026-04-11T06:57:47.994Z</time></trkpt><trkpt lat="43.96097" lon="12.4111483"><ele>215.5</ele><time>2026-04-11T06:57:48.993Z</time></trkpt><trkpt lat="43.9609783" lon="12.411055"><ele>212.33333333333334</ele><time>2026-04-11T06:57:49.994Z</time></trkpt><trkpt lat="43.9609817" lon="12.41096"><ele>209.16666666666669</ele><time>2026-04-11T06:57:50.993Z</time></trkpt><trkpt lat="43.960965" lon="12.4107667"><ele>206.0</ele><time>2026-04-11T06:57:52.993Z</time></trkpt><trkpt lat="43.9609617" lon="12.4106467"><ele>206.00000000000003</ele><time>2026-04-11T06:57:53.994Z</time></trkpt><trkpt lat="43.9609717" lon="12.410525"><ele>206.0</ele><time>2026-04-11T06:57:54.993Z</time></trkpt><trkpt lat="43.9609833" lon="12.4104117"><ele>206.0</ele><time>2026-04-11T06:57:55.993Z</time></trkpt><trkpt lat="43.9609833" lon="12.4103033"><ele>206.0</ele><time>2026-04-11T06:57:56.994Z</time></trkpt><trkpt lat="43.9609933" lon="12.4101867"><ele>206.00000000000003</ele><time>2026-04-11T06:57:57.993Z</time></trkpt><trkpt lat="43.9610233" lon="12.41005"><ele>206.0</ele><time>2026-04-11T06:57:58.993Z</time></trkpt><trkpt lat="43.96104" lon="12.409915"><ele>205.50000000000003</ele><time>2026-04-11T06:57:59.993Z</time></trkpt><trkpt lat="43.9610467" lon="12.4097917"><ele>205.0</ele><time>2026-04-11T06:58:00.993Z</time></trkpt><trkpt lat="43.961045" lon="12.409675"><ele>204.5</ele><time>2026-04-11T06:58:01.993Z</time></trkpt><trkpt lat="43.961035" lon="12.409555"><ele>204.0</ele><time>2026-04-11T06:58:02.993Z</time></trkpt><trkpt lat="43.9610233" lon="12.4094567"><ele>203.50000000000003</ele><time>2026-04-11T06:58:03.993Z</time></trkpt><trkpt lat="43.9610117" lon="12.4093633"><ele>203.0</ele><time>2026-04-11T06:58:04.993Z</time></trkpt><trkpt lat="43.9610017" lon="12.40926"><ele>202.57142857142858</ele><time>2026-04-11T06:58:05.993Z</time></trkpt><trkpt lat="43.9609883" lon="12.4091533"><ele>202.14285714285714</ele><time>2026-04-11T06:58:06.994Z</time></trkpt><trkpt lat="43.9609783" lon="12.40905"><ele>201.71428571428572</ele><time>2026-04-11T06:58:07.994Z</time></trkpt><trkpt lat="43.96097" lon="12.4089433"><ele>201.28571428571428</ele><time>2026-04-11T06:58:08.993Z</time></trkpt><trkpt lat="43.960965" lon="12.408835"><ele>200.85714285714286</ele><time>2026-04-11T06:58:09.993Z</time></trkpt><trkpt lat="43.9609533" lon="12.4087383"><ele>200.42857142857144</ele><time>2026-04-11T06:58:10.993Z</time></trkpt><trkpt lat="43.9609333" lon="12.4086467"><ele>200.0</ele><time>2026-04-11T06:58:11.993Z</time></trkpt><trkpt lat="43.960905" lon="12.4085633"><ele>199.00000000000003</ele><time>2026-04-11T06:58:12.993Z</time></trkpt><trkpt lat="43.96087" lon="12.408485"><ele>198.0</ele><time>2026-04-11T06:58:13.993Z</time></trkpt><trkpt lat="43.960825" lon="12.4084117"><ele>197.0</ele><time>2026-04-11T06:58:14.993Z</time></trkpt><trkpt lat="43.96079" lon="12.4083333"><ele>196.0</ele><time>2026-04-11T06:58:15.993Z</time></trkpt><trkpt lat="43.96075" lon="12.40824"><ele>195.0</ele><time>2026-04-11T06:58:16.993Z</time></trkpt><trkpt lat="43.9607167" lon="12.4081267"><ele>194.00000000000003</ele><time>2026-04-11T06:58:17.993Z</time></trkpt><trkpt lat="43.9606967" lon="12.4080217"><ele>193.0</ele><time>2026-04-11T06:58:18.993Z</time></trkpt><trkpt lat="43.9606833" lon="12.4079183"><ele>191.33333333333331</ele><time>2026-04-11T06:58:19.993Z</time></trkpt><trkpt lat="43.960675" lon="12.4078167"><ele>189.66666666666666</ele><time>2026-04-11T06:58:20.993Z</time></trkpt><trkpt lat="43.96067" lon="12.4077167"><ele>188.0</ele><time>2026-04-11T06:58:21.993Z</time></trkpt><trkpt lat="43.9606717" lon="12.4076"><ele>186.33333333333331</ele><time>2026-04-11T06:58:22.993Z</time></trkpt><trkpt lat="43.96067" lon="12.4074867"><ele>184.66666666666666</ele><time>2026-04-11T06:58:23.993Z</time></trkpt><trkpt lat="43.9606583" lon="12.407365"><ele>183.0</ele><time>2026-04-11T06:58:24.993Z</time></trkpt><trkpt lat="43.9606417" lon="12.4072367"><ele>181.5</ele><time>2026-04-11T06:58:25.993Z</time></trkpt><trkpt lat="43.9606333" lon="12.4071233"><ele>180.0</ele><time>2026-04-11T06:58:26.993Z</time></trkpt><trkpt lat="43.960625" lon="12.406995"><ele>178.5</ele><time>2026-04-11T06:58:27.994Z</time></trkpt><trkpt lat="43.96062" lon="12.4068817"><ele>177.0</ele><time>2026-04-11T06:58:28.993Z</time></trkpt><trkpt lat="43.9606367" lon="12.40676"><ele>175.5</ele><time>2026-04-11T06:58:29.993Z</time></trkpt><trkpt lat="43.9606617" lon="12.40666"><ele>174.0</ele><time>2026-04-11T06:58:30.993Z</time></trkpt><trkpt lat="43.9607067" lon="12.4065433"><ele>174.0</ele><time>2026-04-11T06:58:31.993Z</time></trkpt><trkpt lat="43.960765" lon="12.406435"><ele>174.0</ele><time>2026-04-11T06:58:32.993Z</time></trkpt><trkpt lat="43.9608067" lon="12.40632"><ele>174.0</ele><time>2026-04-11T06:58:33.993Z</time></trkpt><trkpt lat="43.9608383" lon="12.4062083"><ele>174.0</ele><time>2026-04-11T06:58:34.993Z</time></trkpt><trkpt lat="43.9608517" lon="12.4060867"><ele>174.0</ele><time>2026-04-11T06:58:35.993Z</time></trkpt><trkpt lat="43.9608517" lon="12.4059733"><ele>174.0</ele><time>2026-04-11T06:58:36.994Z</time></trkpt><trkpt lat="43.9608517" lon="12.405865"><ele>172.6</ele><time>2026-04-11T06:58:37.993Z</time></trkpt><trkpt lat="43.9608533" lon="12.4057517"><ele>171.2</ele><time>2026-04-11T06:58:38.993Z</time></trkpt><trkpt lat="43.9608583" lon="12.40563"><ele>169.79999999999998</ele><time>2026-04-11T06:58:39.993Z</time></trkpt><trkpt lat="43.96086" lon="12.4054883"><ele>168.39999999999998</ele><time>2026-04-11T06:58:40.993Z</time></trkpt><trkpt lat="43.9608583" lon="12.4053483"><ele>167.0</ele><time>2026-04-11T06:58:41.993Z</time></trkpt><trkpt lat="43.96086" lon="12.4051983"><ele>165.16666666666666</ele><time>2026-04-11T06:58:42.993Z</time></trkpt><trkpt lat="43.9608733" lon="12.405065"><ele>163.33333333333331</ele><time>2026-04-11T06:58:43.993Z</time></trkpt><trkpt lat="43.9608867" lon="12.40493"><ele>161.5</ele><time>2026-04-11T06:58:44.993Z</time></trkpt><trkpt lat="43.9609017" lon="12.4048083"><ele>159.66666666666666</ele><time>2026-04-11T06:58:45.993Z</time></trkpt><trkpt lat="43.960915" lon="12.4047017"><ele>157.83333333333334</ele><time>2026-04-11T06:58:46.993Z</time></trkpt><trkpt lat="43.960915" lon="12.404595"><ele>156.0</ele><time>2026-04-11T06:58:47.993Z</time></trkpt><trkpt lat="43.9609133" lon="12.4045033"><ele>155.0</ele><time>2026-04-11T06:58:48.993Z</time></trkpt><trkpt lat="43.9609083" lon="12.40441"><ele>154.0</ele><time>2026-04-11T06:58:49.993Z</time></trkpt><trkpt lat="43.9609" lon="12.404235"><ele>153.0</ele><time>2026-04-11T06:58:51.993Z</time></trkpt><trkpt lat="43.9608983" lon="12.4040683"><ele>152.0</ele><time>2026-04-11T06:58:53.994Z</time></trkpt><trkpt lat="43.9609" lon="12.4038933"><ele>151.0</ele><time>2026-04-11T06:58:55.993Z</time></trkpt><trkpt lat="43.9609067" lon="12.4037933"><ele>149.66666666666669</ele><time>2026-04-11T06:58:56.993Z</time></trkpt><trkpt lat="43.9609167" lon="12.4036983"><ele>148.33333333333334</ele><time>2026-04-11T06:58:57.993Z</time></trkpt><trkpt lat="43.960925" lon="12.4036033"><ele>147.0</ele><time>2026-04-11T06:58:58.993Z</time></trkpt><trkpt lat="43.960935" lon="12.4034867"><ele>145.66666666666666</ele><time>2026-04-11T06:58:59.993Z</time></trkpt><trkpt lat="43.9609583" lon="12.4033633"><ele>144.33333333333331</ele><time>2026-04-11T06:59:00.993Z</time></trkpt><trkpt lat="43.9609817" lon="12.40324"><ele>143.0</ele><time>2026-04-11T06:59:01.994Z</time></trkpt><trkpt lat="43.9609867" lon="12.4031233"><ele>142.16666666666666</ele><time>2026-04-11T06:59:02.993Z</time></trkpt><trkpt lat="43.961" lon="12.4029933"><ele>141.33333333333331</ele><time>2026-04-11T06:59:03.993Z</time></trkpt><trkpt lat="43.961" lon="12.4028633"><ele>140.5</ele><time>2026-04-11T06:59:04.993Z</time></trkpt><trkpt lat="43.9609983" lon="12.40274"><ele>139.66666666666666</ele><time>2026-04-11T06:59:05.993Z</time></trkpt><trkpt lat="43.9609933" lon="12.4026233"><ele>138.83333333333334</ele><time>2026-04-11T06:59:06.993Z</time></trkpt><trkpt lat="43.9609933" lon="12.4025217"><ele>138.0</ele><time>2026-04-11T06:59:07.994Z</time></trkpt><trkpt lat="43.9609967" lon="12.40241"><ele>138.0</ele><time>2026-04-11T06:59:08.994Z</time></trkpt><trkpt lat="43.961" lon="12.402315"><ele>138.0</ele><time>2026-04-11T06:59:09.993Z</time></trkpt><trkpt lat="43.9609983" lon="12.4022217"><ele>138.0</ele><time>2026-04-11T06:59:10.993Z</time></trkpt><trkpt lat="43.9609867" lon="12.4020683"><ele>138.0</ele><time>2026-04-11T06:59:12.993Z</time></trkpt><trkpt lat="43.96092" lon="12.401995"><ele>138.0</ele><time>2026-04-11T06:59:25.993Z</time></trkpt><trkpt lat="43.9607933" lon="12.40199"><ele>136.8</ele><time>2026-04-11T06:59:27.993Z</time></trkpt><trkpt lat="43.9607133" lon="12.4020217"><ele>135.60000000000002</ele><time>2026-04-11T06:59:28.993Z</time></trkpt><trkpt lat="43.9606233" lon="12.40207"><ele>134.39999999999998</ele><time>2026-04-11T06:59:29.993Z</time></trkpt><trkpt lat="43.9605233" lon="12.4021083"><ele>133.2</ele><time>2026-04-11T06:59:30.993Z</time></trkpt><trkpt lat="43.96042" lon="12.4021467"><ele>132.0</ele><time>2026-04-11T06:59:31.994Z</time></trkpt><trkpt lat="43.9603133" lon="12.4021533"><ele>132.0</ele><time>2026-04-11T06:59:32.993Z</time></trkpt><trkpt lat="43.960215" lon="12.402175"><ele>132.0</ele><time>2026-04-11T06:59:33.994Z</time></trkpt><trkpt lat="43.96013" lon="12.40217"><ele>132.0</ele><time>2026-04-11T06:59:34.993Z</time></trkpt><trkpt lat="43.9600567" lon="12.4021567"><ele>132.0</ele><time>2026-04-11T06:59:35.993Z</time></trkpt><trkpt lat="43.9599833" lon="12.4021483"><ele>132.0</ele><time>2026-04-11T06:59:36.993Z</time></trkpt><trkpt lat="43.9599017" lon="12.402115"><ele>132.0</ele><time>2026-04-11T06:59:37.993Z</time></trkpt><trkpt lat="43.9598383" lon="12.40209"><ele>131.6</ele><time>2026-04-11T06:59:38.993Z</time></trkpt><trkpt lat="43.9597183" lon="12.40206"><ele>131.2</ele><time>2026-04-11T06:59:40.993Z</time></trkpt><trkpt lat="43.9596517" lon="12.4020333"><ele>130.8</ele><time>2026-04-11T06:59:41.993Z</time></trkpt><trkpt lat="43.9595783" lon="12.4020133"><ele>130.4</ele><time>2026-04-11T06:59:42.993Z</time></trkpt><trkpt lat="43.9594633" lon="12.4019667"><ele>130.0</ele><time>2026-04-11T06:59:44.994Z</time></trkpt><trkpt lat="43.95934" lon="12.40196"><ele>130.0</ele><time>2026-04-11T06:59:46.994Z</time></trkpt><trkpt lat="43.9592717" lon="12.4020067"><ele>130.0</ele><time>2026-04-11T06:59:47.993Z</time></trkpt><trkpt lat="43.9592133" lon="12.4020817"><ele>130.0</ele><time>2026-04-11T06:59:48.994Z</time></trkpt><trkpt lat="43.9591733" lon="12.402195"><ele>130.0</ele><time>2026-04-11T06:59:49.993Z</time></trkpt><trkpt lat="43.9591417" lon="12.4023233"><ele>130.0</ele><time>2026-04-11T06:59:50.993Z</time></trkpt><trkpt lat="43.9591083" lon="12.4024533"><ele>130.0</ele><time>2026-04-11T06:59:51.993Z</time></trkpt><trkpt lat="43.959065" lon="12.4025817"><ele>130.6</ele><time>2026-04-11T06:59:52.993Z</time></trkpt><trkpt lat="43.959025" lon="12.4027"><ele>131.2</ele><time>2026-04-11T06:59:53.993Z</time></trkpt><trkpt lat="43.9589883" lon="12.4028167"><ele>131.8</ele><time>2026-04-11T06:59:54.993Z</time></trkpt><trkpt lat="43.9589467" lon="12.40294"><ele>132.4</ele><time>2026-04-11T06:59:55.994Z</time></trkpt><trkpt lat="43.958905" lon="12.40307"><ele>133.0</ele><time>2026-04-11T06:59:56.993Z</time></trkpt><trkpt lat="43.9588617" lon="12.4032133"><ele>134.5</ele><time>2026-04-11T06:59:57.993Z</time></trkpt><trkpt lat="43.9588183" lon="12.4033817"><ele>136.0</ele><time>2026-04-11T06:59:58.993Z</time></trkpt><trkpt lat="43.958765" lon="12.4035417"><ele>137.5</ele><time>2026-04-11T06:59:59.993Z</time></trkpt><trkpt lat="43.9587" lon="12.4037017"><ele>139.0</ele><time>2026-04-11T07:00:00.993Z</time></trkpt><trkpt lat="43.95861" lon="12.4038617"><ele>141.0</ele><time>2026-04-11T07:00:01.994Z</time></trkpt><trkpt lat="43.9585067" lon="12.4040233"><ele>143.0</ele><time>2026-04-11T07:00:02.993Z</time></trkpt><trkpt lat="43.9584" lon="12.4041817"><ele>145.0</ele><time>2026-04-11T07:00:03.993Z</time></trkpt><trkpt lat="43.958285" lon="12.4043133"><ele>142.75</ele><time>2026-04-11T07:00:04.994Z</time></trkpt><trkpt lat="43.958165" lon="12.4044217"><ele>140.5</ele><time>2026-04-11T07:00:05.993Z</time></trkpt><trkpt lat="43.9580467" lon="12.404515"><ele>138.25</ele><time>2026-04-11T07:00:06.993Z</time></trkpt><trkpt lat="43.9579367" lon="12.4045933"><ele>136.0</ele><time>2026-04-11T07:00:07.993Z</time></trkpt><trkpt lat="43.957815" lon="12.4046667"><ele>136.0</ele><time>2026-04-11T07:00:08.993Z</time></trkpt><trkpt lat="43.9576917" lon="12.404735"><ele>136.0</ele><time>2026-04-11T07:00:09.993Z</time></trkpt><trkpt lat="43.9575667" lon="12.4047967"><ele>136.0</ele><time>2026-04-11T07:00:10.993Z</time></trkpt><trkpt lat="43.9574417" lon="12.4048333"><ele>136.0</ele><time>2026-04-11T07:00:11.993Z</time></trkpt><trkpt lat="43.9573067" lon="12.4048583"><ele>135.0</ele><time>2026-04-11T07:00:12.993Z</time></trkpt><trkpt lat="43.9571767" lon="12.40488"><ele>134.0</ele><time>2026-04-11T07:00:13.993Z</time></trkpt><trkpt lat="43.95704" lon="12.4049"><ele>133.0</ele><time>2026-04-11T07:00:14.993Z</time></trkpt><trkpt lat="43.9569083" lon="12.4049167"><ele>132.0</ele><time>2026-04-11T07:00:15.993Z</time></trkpt><trkpt lat="43.9567717" lon="12.4049317"><ele>132.25</ele><time>2026-04-11T07:00:16.993Z</time></trkpt><trkpt lat="43.9566367" lon="12.4049517"><ele>132.5</ele><time>2026-04-11T07:00:17.993Z</time></trkpt><trkpt lat="43.95651" lon="12.4049717"><ele>132.75</ele><time>2026-04-11T07:00:18.993Z</time></trkpt><trkpt lat="43.9563833" lon="12.4049933"><ele>133.0</ele><time>2026-04-11T07:00:19.993Z</time></trkpt><trkpt lat="43.9562583" lon="12.4050083"><ele>133.0</ele><time>2026-04-11T07:00:20.993Z</time></trkpt><trkpt lat="43.9561183" lon="12.4050267"><ele>133.0</ele><time>2026-04-11T07:00:21.993Z</time></trkpt><trkpt lat="43.955975" lon="12.4050567"><ele>133.0</ele><time>2026-04-11T07:00:22.993Z</time></trkpt><trkpt lat="43.95584" lon="12.4050817"><ele>133.0</ele><time>2026-04-11T07:00:23.993Z</time></trkpt><trkpt lat="43.9557083" lon="12.4051033"><ele>133.5</ele><time>2026-04-11T07:00:24.993Z</time></trkpt><trkpt lat="43.9555767" lon="12.4051217"><ele>134.0</ele><time>2026-04-11T07:00:25.993Z</time></trkpt><trkpt lat="43.95545" lon="12.4051367"><ele>134.5</ele><time>2026-04-11T07:00:26.993Z</time></trkpt><trkpt lat="43.9553183" lon="12.4051567"><ele>135.0</ele><time>2026-04-11T07:00:27.993Z</time></trkpt><trkpt lat="43.9551883" lon="12.4051783"><ele>135.0</ele><time>2026-04-11T07:00:28.994Z</time></trkpt><trkpt lat="43.9550617" lon="12.405195"><ele>135.0</ele><time>2026-04-11T07:00:29.993Z</time></trkpt><trkpt lat="43.954935" lon="12.4052117"><ele>135.0</ele><time>2026-04-11T07:00:30.993Z</time></trkpt><trkpt lat="43.9548067" lon="12.4052317"><ele>135.0</ele><time>2026-04-11T07:00:31.993Z</time></trkpt><trkpt lat="43.9546867" lon="12.4052583"><ele>135.8</ele><time>2026-04-11T07:00:32.993Z</time></trkpt><trkpt lat="43.95457" lon="12.4052817"><ele>136.6</ele><time>2026-04-11T07:00:33.993Z</time></trkpt><trkpt lat="43.9544617" lon="12.4052967"><ele>137.4</ele><time>2026-04-11T07:00:34.993Z</time></trkpt><trkpt lat="43.9543633" lon="12.4053167"><ele>138.2</ele><time>2026-04-11T07:00:35.993Z</time></trkpt><trkpt lat="43.9542683" lon="12.4053367"><ele>139.0</ele><time>2026-04-11T07:00:36.993Z</time></trkpt><trkpt lat="43.9541717" lon="12.40535"><ele>139.2</ele><time>2026-04-11T07:00:37.993Z</time></trkpt><trkpt lat="43.9540817" lon="12.4053767"><ele>139.4</ele><time>2026-04-11T07:00:38.994Z</time></trkpt><trkpt lat="43.953985" lon="12.4054017"><ele>139.6</ele><time>2026-04-11T07:00:39.993Z</time></trkpt><trkpt lat="43.9538933" lon="12.405415"><ele>139.8</ele><time>2026-04-11T07:00:40.993Z</time></trkpt><trkpt lat="43.9537933" lon="12.4054383"><ele>140.0</ele><time>2026-04-11T07:00:41.993Z</time></trkpt><trkpt lat="43.9536917" lon="12.405455"><ele>140.0</ele><time>2026-04-11T07:00:42.993Z</time></trkpt><trkpt lat="43.9535833" lon="12.40548"><ele>140.0</ele><time>2026-04-11T07:00:43.993Z</time></trkpt><trkpt lat="43.953485" lon="12.4055067"><ele>140.0</ele><time>2026-04-11T07:00:44.993Z</time></trkpt><trkpt lat="43.9533733" lon="12.4055267"><ele>140.0</ele><time>2026-04-11T07:00:45.993Z</time></trkpt><trkpt lat="43.953265" lon="12.4055533"><ele>140.0</ele><time>2026-04-11T07:00:46.993Z</time></trkpt><trkpt lat="43.953155" lon="12.4055883"><ele>140.8</ele><time>2026-04-11T07:00:47.993Z</time></trkpt><trkpt lat="43.9530567" lon="12.4056133"><ele>141.6</ele><time>2026-04-11T07:00:48.993Z</time></trkpt><trkpt lat="43.952945" lon="12.4056367"><ele>142.4</ele><time>2026-04-11T07:00:49.994Z</time></trkpt><trkpt lat="43.9528467" lon="12.4056567"><ele>143.2</ele><time>2026-04-11T07:00:50.993Z</time></trkpt><trkpt lat="43.9527617" lon="12.4056667"><ele>144.0</ele><time>2026-04-11T07:00:51.993Z</time></trkpt><trkpt lat="43.9526633" lon="12.4056833"><ele>144.0</ele><time>2026-04-11T07:00:52.993Z</time></trkpt><trkpt lat="43.95257" lon="12.4057117"><ele>144.0</ele><time>2026-04-11T07:00:53.993Z</time></trkpt><trkpt lat="43.9524917" lon="12.4057383"><ele>144.0</ele><time>2026-04-11T07:00:54.994Z</time></trkpt><trkpt lat="43.9524333" lon="12.40567"><ele>144.0</ele><time>2026-04-11T07:00:56.993Z</time></trkpt><trkpt lat="43.9524333" lon="12.4054783"><ele>144.0</ele><time>2026-04-11T07:00:58.993Z</time></trkpt><trkpt lat="43.95245" lon="12.4053533"><ele>143.5</ele><time>2026-04-11T07:00:59.993Z</time></trkpt><trkpt lat="43.9524767" lon="12.4052"><ele>143.0</ele><time>2026-04-11T07:01:00.993Z</time></trkpt><trkpt lat="43.9525083" lon="12.4050367"><ele>142.5</ele><time>2026-04-11T07:01:01.993Z</time></trkpt><trkpt lat="43.952535" lon="12.40483"><ele>142.0</ele><time>2026-04-11T07:01:02.993Z</time></trkpt><trkpt lat="43.95256" lon="12.4046117"><ele>141.6</ele><time>2026-04-11T07:01:03.993Z</time></trkpt><trkpt lat="43.9525733" lon="12.4044317"><ele>141.2</ele><time>2026-04-11T07:01:04.993Z</time></trkpt><trkpt lat="43.9525517" lon="12.4042933"><ele>140.8</ele><time>2026-04-11T07:01:05.993Z</time></trkpt><trkpt lat="43.9525167" lon="12.404165"><ele>140.4</ele><time>2026-04-11T07:01:06.994Z</time></trkpt><trkpt lat="43.9524583" lon="12.404085"><ele>140.0</ele><time>2026-04-11T07:01:07.993Z</time></trkpt><trkpt lat="43.95237" lon="12.4040367"><ele>140.0</ele><time>2026-04-11T07:01:08.993Z</time></trkpt><trkpt lat="43.9522717" lon="12.4040183"><ele>140.0</ele><time>2026-04-11T07:01:09.993Z</time></trkpt><trkpt lat="43.9521633" lon="12.4040233"><ele>140.0</ele><time>2026-04-11T07:01:10.993Z</time></trkpt><trkpt lat="43.9520417" lon="12.4040483"><ele>140.0</ele><time>2026-04-11T07:01:11.993Z</time></trkpt><trkpt lat="43.95191" lon="12.40409"><ele>140.0</ele><time>2026-04-11T07:01:12.993Z</time></trkpt><trkpt lat="43.951775" lon="12.40413"><ele>140.0</ele><time>2026-04-11T07:01:13.994Z</time></trkpt><trkpt lat="43.95163" lon="12.4041783"><ele>140.0</ele><time>2026-04-11T07:01:14.993Z</time></trkpt><trkpt lat="43.9514717" lon="12.40421"><ele>140.0</ele><time>2026-04-11T07:01:15.993Z</time></trkpt><trkpt lat="43.9513033" lon="12.404235"><ele>140.66666666666666</ele><time>2026-04-11T07:01:16.993Z</time></trkpt><trkpt lat="43.9511317" lon="12.4042717"><ele>141.33333333333334</ele><time>2026-04-11T07:01:17.993Z</time></trkpt><trkpt lat="43.9509533" lon="12.4043167"><ele>142.0</ele><time>2026-04-11T07:01:18.993Z</time></trkpt><trkpt lat="43.9507833" lon="12.4043433"><ele>142.0</ele><time>2026-04-11T07:01:19.993Z</time></trkpt><trkpt lat="43.9506033" lon="12.404375"><ele>142.0</ele><time>2026-04-11T07:01:20.993Z</time></trkpt><trkpt lat="43.950425" lon="12.4044167"><ele>142.0</ele><time>2026-04-11T07:01:21.993Z</time></trkpt><trkpt lat="43.9502433" lon="12.4044633"><ele>142.0</ele><time>2026-04-11T07:01:22.993Z</time></trkpt><trkpt lat="43.950065" lon="12.4045233"><ele>142.0</ele><time>2026-04-11T07:01:23.993Z</time></trkpt><trkpt lat="43.949885" lon="12.4046017"><ele>142.0</ele><time>2026-04-11T07:01:24.993Z</time></trkpt><trkpt lat="43.9497117" lon="12.40469"><ele>143.33333333333334</ele><time>2026-04-11T07:01:25.994Z</time></trkpt><trkpt lat="43.94953" lon="12.404785"><ele>144.66666666666666</ele><time>2026-04-11T07:01:26.993Z</time></trkpt><trkpt lat="43.94934" lon="12.4048833"><ele>146.0</ele><time>2026-04-11T07:01:27.993Z</time></trkpt><trkpt lat="43.9491617" lon="12.40497"><ele>146.33333333333331</ele><time>2026-04-11T07:01:28.994Z</time></trkpt><trkpt lat="43.9489767" lon="12.40505"><ele>146.66666666666666</ele><time>2026-04-11T07:01:29.993Z</time></trkpt><trkpt lat="43.9488067" lon="12.4051367"><ele>147.0</ele><time>2026-04-11T07:01:30.993Z</time></trkpt><trkpt lat="43.94863" lon="12.405225"><ele>147.0</ele><time>2026-04-11T07:01:31.994Z</time></trkpt><trkpt lat="43.948475" lon="12.4053067"><ele>147.0</ele><time>2026-04-11T07:01:32.993Z</time></trkpt><trkpt lat="43.9483167" lon="12.40538"><ele>147.0</ele><time>2026-04-11T07:01:33.993Z</time></trkpt><trkpt lat="43.9481633" lon="12.4054267"><ele>147.0</ele><time>2026-04-11T07:01:34.993Z</time></trkpt><trkpt lat="43.948005" lon="12.40547"><ele>147.0</ele><time>2026-04-11T07:01:35.993Z</time></trkpt><trkpt lat="43.94785" lon="12.4055167"><ele>147.0</ele><time>2026-04-11T07:01:36.994Z</time></trkpt><trkpt lat="43.947695" lon="12.4055433"><ele>148.0</ele><time>2026-04-11T07:01:37.993Z</time></trkpt><trkpt lat="43.9475317" lon="12.40555"><ele>149.0</ele><time>2026-04-11T07:01:38.994Z</time></trkpt><trkpt lat="43.94738" lon="12.4055483"><ele>150.0</ele><time>2026-04-11T07:01:39.993Z</time></trkpt><trkpt lat="43.9472217" lon="12.4055583"><ele>150.0</ele><time>2026-04-11T07:01:40.993Z</time></trkpt><trkpt lat="43.9470583" lon="12.4055483"><ele>150.0</ele><time>2026-04-11T07:01:41.993Z</time></trkpt><trkpt lat="43.946895" lon="12.4055583"><ele>150.0</ele><time>2026-04-11T07:01:42.993Z</time></trkpt><trkpt lat="43.9467317" lon="12.40556"><ele>151.0</ele><time>2026-04-11T07:01:43.993Z</time></trkpt><trkpt lat="43.9465567" lon="12.405565"><ele>152.0</ele><time>2026-04-11T07:01:44.993Z</time></trkpt><trkpt lat="43.9463833" lon="12.4055783"><ele>153.0</ele><time>2026-04-11T07:01:45.993Z</time></trkpt><trkpt lat="43.9462117" lon="12.4055917"><ele>153.0</ele><time>2026-04-11T07:01:46.993Z</time></trkpt><trkpt lat="43.94604" lon="12.4055883"><ele>153.0</ele><time>2026-04-11T07:01:47.993Z</time></trkpt><trkpt lat="43.9458717" lon="12.4055883"><ele>153.0</ele><time>2026-04-11T07:01:48.993Z</time></trkpt><trkpt lat="43.9457067" lon="12.405585"><ele>153.66666666666666</ele><time>2026-04-11T07:01:49.993Z</time></trkpt><trkpt lat="43.9455517" lon="12.40558"><ele>154.33333333333331</ele><time>2026-04-11T07:01:50.993Z</time></trkpt><trkpt lat="43.9453817" lon="12.405585"><ele>155.0</ele><time>2026-04-11T07:01:51.993Z</time></trkpt><trkpt lat="43.945215" lon="12.40559"><ele>155.33333333333331</ele><time>2026-04-11T07:01:52.993Z</time></trkpt><trkpt lat="43.9450383" lon="12.4056067"><ele>155.66666666666666</ele><time>2026-04-11T07:01:53.993Z</time></trkpt><trkpt lat="43.944875" lon="12.4056117"><ele>156.0</ele><time>2026-04-11T07:01:54.993Z</time></trkpt><trkpt lat="43.9447117" lon="12.4056217"><ele>156.0</ele><time>2026-04-11T07:01:55.994Z</time></trkpt><trkpt lat="43.9445533" lon="12.4056183"><ele>156.0</ele><time>2026-04-11T07:01:56.993Z</time></trkpt><trkpt lat="43.94439" lon="12.4056133"><ele>156.0</ele><time>2026-04-11T07:01:57.993Z</time></trkpt><trkpt lat="43.944215" lon="12.4056283"><ele>156.66666666666666</ele><time>2026-04-11T07:01:58.993Z</time></trkpt><trkpt lat="43.9440533" lon="12.4056333"><ele>157.33333333333331</ele><time>2026-04-11T07:01:59.993Z</time></trkpt><trkpt lat="43.943885" lon="12.405635"><ele>158.0</ele><time>2026-04-11T07:02:00.993Z</time></trkpt><trkpt lat="43.9437217" lon="12.405655"><ele>158.0</ele><time>2026-04-11T07:02:01.994Z</time></trkpt><trkpt lat="43.9435583" lon="12.4056883"><ele>158.0</ele><time>2026-04-11T07:02:02.994Z</time></trkpt><trkpt lat="43.9434033" lon="12.4057433"><ele>158.0</ele><time>2026-04-11T07:02:03.993Z</time></trkpt><trkpt lat="43.9432467" lon="12.4058067"><ele>158.0</ele><time>2026-04-11T07:02:04.993Z</time></trkpt><trkpt lat="43.9431" lon="12.4058967"><ele>158.0</ele><time>2026-04-11T07:02:05.993Z</time></trkpt><trkpt lat="43.9429567" lon="12.406"><ele>158.0</ele><time>2026-04-11T07:02:06.993Z</time></trkpt><trkpt lat="43.942815" lon="12.4061133"><ele>158.0</ele><time>2026-04-11T07:02:07.993Z</time></trkpt><trkpt lat="43.9426733" lon="12.40622"><ele>158.0</ele><time>2026-04-11T07:02:08.993Z</time></trkpt><trkpt lat="43.9425317" lon="12.406325"><ele>158.0</ele><time>2026-04-11T07:02:09.993Z</time></trkpt><trkpt lat="43.9423917" lon="12.4064367"><ele>159.25</ele><time>2026-04-11T07:02:10.993Z</time></trkpt><trkpt lat="43.9422533" lon="12.4065467"><ele>160.5</ele><time>2026-04-11T07:02:11.993Z</time></trkpt><trkpt lat="43.94212" lon="12.406645"><ele>161.75</ele><time>2026-04-11T07:02:12.994Z</time></trkpt><trkpt lat="43.942" lon="12.4067367"><ele>163.0</ele><time>2026-04-11T07:02:13.993Z</time></trkpt><trkpt lat="43.94189" lon="12.4068167"><ele>163.0</ele><time>2026-04-11T07:02:14.994Z</time></trkpt><trkpt lat="43.9417933" lon="12.4068917"><ele>163.0</ele><time>2026-04-11T07:02:15.994Z</time></trkpt><trkpt lat="43.9417017" lon="12.406945"><ele>163.0</ele><time>2026-04-11T07:02:16.993Z</time></trkpt><trkpt lat="43.9416267" lon="12.406995"><ele>163.0</ele><time>2026-04-11T07:02:17.993Z</time></trkpt><trkpt lat="43.9415633" lon="12.4070317"><ele>163.0</ele><time>2026-04-11T07:02:18.993Z</time></trkpt><trkpt lat="43.94148" lon="12.4070317"><ele>163.0</ele><time>2026-04-11T07:02:20.992Z</time></trkpt><trkpt lat="43.9414067" lon="12.406865"><ele>162.5</ele><time>2026-04-11T07:02:22.992Z</time></trkpt><trkpt lat="43.9413567" lon="12.4067317"><ele>162.0</ele><time>2026-04-11T07:02:23.992Z</time></trkpt><trkpt lat="43.9412983" lon="12.4065883"><ele>161.5</ele><time>2026-04-11T07:02:24.992Z</time></trkpt><trkpt lat="43.94123" lon="12.4064367"><ele>161.0</ele><time>2026-04-11T07:02:25.992Z</time></trkpt><trkpt lat="43.9411533" lon="12.4062917"><ele>161.0</ele><time>2026-04-11T07:02:26.992Z</time></trkpt><trkpt lat="43.9410783" lon="12.4061417"><ele>161.0</ele><time>2026-04-11T07:02:27.992Z</time></trkpt><trkpt lat="43.9410033" lon="12.4060117"><ele>161.0</ele><time>2026-04-11T07:02:28.992Z</time></trkpt><trkpt lat="43.94094" lon="12.4059067"><ele>161.0</ele><time>2026-04-11T07:02:29.992Z</time></trkpt><trkpt lat="43.94091" lon="12.4058183"><ele>161.0</ele><time>2026-04-11T07:02:30.993Z</time></trkpt><trkpt lat="43.940915" lon="12.4056733"><ele>161.0</ele><time>2026-04-11T07:02:32.993Z</time></trkpt><trkpt lat="43.9409933" lon="12.4055817"><ele>161.0</ele><time>2026-04-11T07:02:34.992Z</time></trkpt><trkpt lat="43.9410567" lon="12.4055567"><ele>161.0</ele><time>2026-04-11T07:02:35.992Z</time></trkpt><trkpt lat="43.9411367" lon="12.4055267"><ele>161.0</ele><time>2026-04-11T07:02:36.992Z</time></trkpt><trkpt lat="43.941225" lon="12.4054983"><ele>161.0</ele><time>2026-04-11T07:02:37.993Z</time></trkpt><trkpt lat="43.9413267" lon="12.4054733"><ele>161.0</ele><time>2026-04-11T07:02:38.992Z</time></trkpt><trkpt lat="43.941415" lon="12.405445"><ele>161.33333333333331</ele><time>2026-04-11T07:02:39.992Z</time></trkpt><trkpt lat="43.94148" lon="12.4054267"><ele>161.66666666666666</ele><time>2026-04-11T07:02:40.992Z</time></trkpt><trkpt lat="43.9415683" lon="12.40537"><ele>162.0</ele><time>2026-04-11T07:02:42.992Z</time></trkpt><trkpt lat="43.9416467" lon="12.4052683"><ele>162.33333333333334</ele><time>2026-04-11T07:02:44.993Z</time></trkpt><trkpt lat="43.9416967" lon="12.4052"><ele>162.66666666666669</ele><time>2026-04-11T07:02:45.992Z</time></trkpt><trkpt lat="43.9417567" lon="12.405125"><ele>163.0</ele><time>2026-04-11T07:02:46.993Z</time></trkpt><trkpt lat="43.9418183" lon="12.4050367"><ele>162.0</ele><time>2026-04-11T07:02:47.992Z</time></trkpt><trkpt lat="43.941875" lon="12.4049517"><ele>161.0</ele><time>2026-04-11T07:02:48.992Z</time></trkpt><trkpt lat="43.9419133" lon="12.4048717"><ele>160.0</ele><time>2026-04-11T07:02:49.992Z</time></trkpt><trkpt lat="43.9419533" lon="12.4047633"><ele>159.0</ele><time>2026-04-11T07:02:51.992Z</time></trkpt><trkpt lat="43.9420067" lon="12.40468"><ele>158.0</ele><time>2026-04-11T07:02:55.992Z</time></trkpt><trkpt lat="43.9419233" lon="12.4047417"><ele>157.0</ele><time>2026-04-11T07:03:10.992Z</time></trkpt><trkpt lat="43.9418517" lon="12.40475"><ele>157.0</ele><time>2026-04-11T07:03:30.993Z</time></trkpt><trkpt lat="43.9417833" lon="12.4047133"><ele>157.0</ele><time>2026-04-11T07:03:32.992Z</time></trkpt><trkpt lat="43.9417167" lon="12.404665"><ele>157.0</ele><time>2026-04-11T07:03:34.993Z</time></trkpt><trkpt lat="43.9416367" lon="12.4046333"><ele>157.0</ele><time>2026-04-11T07:03:37.993Z</time></trkpt><trkpt lat="43.9417017" lon="12.4047"><ele>157.0</ele><time>2026-04-11T07:03:43.992Z</time></trkpt><trkpt lat="43.9417817" lon="12.4047533"><ele>157.0</ele><time>2026-04-11T07:03:47.992Z</time></trkpt><trkpt lat="43.94186" lon="12.4047967"><ele>157.0</ele><time>2026-04-11T07:03:50.992Z</time></trkpt><trkpt lat="43.9418617" lon="12.4049233"><ele>157.0</ele><time>2026-04-11T07:03:59.992Z</time></trkpt><trkpt lat="43.9417833" lon="12.4050617"><ele>157.0</ele><time>2026-04-11T07:04:01.993Z</time></trkpt><trkpt lat="43.9417233" lon="12.405125"><ele>157.0</ele><time>2026-04-11T07:04:02.992Z</time></trkpt><trkpt lat="43.94167" lon="12.4052083"><ele>157.0</ele><time>2026-04-11T07:04:04.992Z</time></trkpt><trkpt lat="43.9417783" lon="12.40525"><ele>157.0</ele><time>2026-04-11T07:04:08.992Z</time></trkpt><trkpt lat="43.941845" lon="12.4052267"><ele>157.0</ele><time>2026-04-11T07:04:09.992Z</time></trkpt><trkpt lat="43.9419167" lon="12.4051783"><ele>157.0</ele><time>2026-04-11T07:04:10.992Z</time></trkpt><trkpt lat="43.9419883" lon="12.4051183"><ele>157.0</ele><time>2026-04-11T07:04:11.992Z</time></trkpt><trkpt lat="43.9420683" lon="12.405045"><ele>157.0</ele><time>2026-04-11T07:04:12.993Z</time></trkpt><trkpt lat="43.94215" lon="12.404975"><ele>157.0</ele><time>2026-04-11T07:04:13.993Z</time></trkpt><trkpt lat="43.94224" lon="12.4049017"><ele>157.0</ele><time>2026-04-11T07:04:14.993Z</time></trkpt><trkpt lat="43.9423517" lon="12.404835"><ele>157.0</ele><time>2026-04-11T07:04:15.992Z</time></trkpt><trkpt lat="43.9424583" lon="12.4047783"><ele>157.0</ele><time>2026-04-11T07:04:16.992Z</time></trkpt><trkpt lat="43.9425683" lon="12.4047167"><ele>157.0</ele><time>2026-04-11T07:04:17.993Z</time></trkpt><trkpt lat="43.9426617" lon="12.4046733"><ele>157.2</ele><time>2026-04-11T07:04:18.992Z</time></trkpt><trkpt lat="43.9427483" lon="12.4046367"><ele>157.39999999999998</ele><time>2026-04-11T07:04:19.992Z</time></trkpt><trkpt lat="43.9428417" lon="12.4046117"><ele>157.60000000000002</ele><time>2026-04-11T07:04:20.992Z</time></trkpt><trkpt lat="43.942925" lon="12.404575"><ele>157.8</ele><time>2026-04-11T07:04:21.993Z</time></trkpt><trkpt lat="43.943015" lon="12.4045333"><ele>158.0</ele><time>2026-04-11T07:04:22.992Z</time></trkpt><trkpt lat="43.9431017" lon="12.4044983"><ele>158.0</ele><time>2026-04-11T07:04:23.993Z</time></trkpt><trkpt lat="43.9431967" lon="12.4044517"><ele>158.0</ele><time>2026-04-11T07:04:24.993Z</time></trkpt><trkpt lat="43.9432967" lon="12.4043983"><ele>158.0</ele><time>2026-04-11T07:04:25.993Z</time></trkpt><trkpt lat="43.9434017" lon="12.40435"><ele>158.0</ele><time>2026-04-11T07:04:26.992Z</time></trkpt><trkpt lat="43.9435067" lon="12.40431"><ele>158.0</ele><time>2026-04-11T07:04:27.992Z</time></trkpt><trkpt lat="43.9436083" lon="12.404275"><ele>157.66666666666666</ele><time>2026-04-11T07:04:28.992Z</time></trkpt><trkpt lat="43.9437017" lon="12.4042417"><ele>157.33333333333331</ele><time>2026-04-11T07:04:29.992Z</time></trkpt><trkpt lat="43.94378" lon="12.4042167"><ele>157.0</ele><time>2026-04-11T07:04:30.992Z</time></trkpt><trkpt lat="43.9438467" lon="12.4041817"><ele>156.66666666666666</ele><time>2026-04-11T07:04:31.993Z</time></trkpt><trkpt lat="43.9438967" lon="12.4041233"><ele>156.33333333333334</ele><time>2026-04-11T07:04:32.992Z</time></trkpt><trkpt lat="43.9439433" lon="12.4040367"><ele>156.0</ele><time>2026-04-11T07:04:34.992Z</time></trkpt><trkpt lat="43.944005" lon="12.4039717"><ele>156.0</ele><time>2026-04-11T07:04:47.992Z</time></trkpt><trkpt lat="43.9440733" lon="12.403955"><ele>156.0</ele><time>2026-04-11T07:04:48.992Z</time></trkpt><trkpt lat="43.9441933" lon="12.4039333"><ele>156.0</ele><time>2026-04-11T07:04:50.992Z</time></trkpt><trkpt lat="43.9442883" lon="12.4039"><ele>156.0</ele><time>2026-04-11T07:04:52.992Z</time></trkpt><trkpt lat="43.9443617" lon="12.403845"><ele>156.0</ele><time>2026-04-11T07:04:55.992Z</time></trkpt><trkpt lat="43.94439" lon="12.4037583"><ele>156.0</ele><time>2026-04-11T07:04:59.992Z</time></trkpt><trkpt lat="43.944395" lon="12.403625"><ele>157.0</ele><time>2026-04-11T07:05:14.992Z</time></trkpt><trkpt lat="43.94441" lon="12.40344"><ele>158.0</ele><time>2026-04-11T07:05:16.992Z</time></trkpt><trkpt lat="43.9444167" lon="12.4033433"><ele>159.0</ele><time>2026-04-11T07:05:17.992Z</time></trkpt><trkpt lat="43.9444033" lon="12.4031817"><ele>160.0</ele><time>2026-04-11T07:05:19.992Z</time></trkpt><trkpt lat="43.944385" lon="12.4030033"><ele>161.33333333333334</ele><time>2026-04-11T07:05:21.992Z</time></trkpt><trkpt lat="43.94437" lon="12.4029133"><ele>162.66666666666669</ele><time>2026-04-11T07:05:22.992Z</time></trkpt><trkpt lat="43.9443533" lon="12.4028283"><ele>164.0</ele><time>2026-04-11T07:05:23.992Z</time></trkpt><trkpt lat="43.94434" lon="12.4027383"><ele>165.33333333333334</ele><time>2026-04-11T07:05:24.993Z</time></trkpt><trkpt lat="43.94432" lon="12.4026483"><ele>166.66666666666666</ele><time>2026-04-11T07:05:25.992Z</time></trkpt><trkpt lat="43.9443033" lon="12.4024967"><ele>168.0</ele><time>2026-04-11T07:05:27.992Z</time></trkpt><trkpt lat="43.9442433" lon="12.4023783"><ele>167.60000000000002</ele><time>2026-04-11T07:05:29.992Z</time></trkpt><trkpt lat="43.94418" lon="12.4022883"><ele>167.20000000000002</ele><time>2026-04-11T07:05:31.993Z</time></trkpt><trkpt lat="43.944105" lon="12.4022067"><ele>166.8</ele><time>2026-04-11T07:05:33.992Z</time></trkpt><trkpt lat="43.944035" lon="12.4021233"><ele>166.4</ele><time>2026-04-11T07:05:35.992Z</time></trkpt><trkpt lat="43.9439467" lon="12.4020283"><ele>166.0</ele><time>2026-04-11T07:05:37.992Z</time></trkpt><trkpt lat="43.9438967" lon="12.401975"><ele>167.4</ele><time>2026-04-11T07:05:38.992Z</time></trkpt><trkpt lat="43.9438183" lon="12.4018917"><ele>168.8</ele><time>2026-04-11T07:05:40.992Z</time></trkpt><trkpt lat="43.9437467" lon="12.4018017"><ele>170.20000000000002</ele><time>2026-04-11T07:05:42.992Z</time></trkpt><trkpt lat="43.9436683" lon="12.401715"><ele>171.60000000000002</ele><time>2026-04-11T07:05:44.992Z</time></trkpt><trkpt lat="43.943595" lon="12.4016"><ele>173.0</ele><time>2026-04-11T07:05:46.992Z</time></trkpt><trkpt lat="43.9435733" lon="12.4015083"><ele>173.0</ele><time>2026-04-11T07:05:47.992Z</time></trkpt><trkpt lat="43.94355" lon="12.4014133"><ele>173.0</ele><time>2026-04-11T07:05:48.992Z</time></trkpt><trkpt lat="43.9435267" lon="12.4013117"><ele>173.0</ele><time>2026-04-11T07:05:49.992Z</time></trkpt><trkpt lat="43.9434967" lon="12.4012133"><ele>173.0</ele><time>2026-04-11T07:05:50.993Z</time></trkpt><trkpt lat="43.9434583" lon="12.401115"><ele>173.0</ele><time>2026-04-11T07:05:51.992Z</time></trkpt><trkpt lat="43.943405" lon="12.4010433"><ele>173.0</ele><time>2026-04-11T07:05:52.992Z</time></trkpt><trkpt lat="43.94335" lon="12.4009817"><ele>174.2</ele><time>2026-04-11T07:05:53.992Z</time></trkpt><trkpt lat="43.9432767" lon="12.40092"><ele>175.4</ele><time>2026-04-11T07:05:54.993Z</time></trkpt><trkpt lat="43.943205" lon="12.4008667"><ele>176.6</ele><time>2026-04-11T07:05:55.993Z</time></trkpt><trkpt lat="43.9431167" lon="12.4008033"><ele>177.79999999999998</ele><time>2026-04-11T07:05:57.992Z</time></trkpt><trkpt lat="43.9430567" lon="12.4007467"><ele>179.0</ele><time>2026-04-11T07:06:07.992Z</time></trkpt><trkpt lat="43.9429483" lon="12.40064"><ele>179.00000000000003</ele><time>2026-04-11T07:06:09.992Z</time></trkpt><trkpt lat="43.9428967" lon="12.40057"><ele>179.0</ele><time>2026-04-11T07:06:10.993Z</time></trkpt><trkpt lat="43.942845" lon="12.400495"><ele>179.0</ele><time>2026-04-11T07:06:11.992Z</time></trkpt><trkpt lat="43.9427983" lon="12.4004083"><ele>179.0</ele><time>2026-04-11T07:06:12.992Z</time></trkpt><trkpt lat="43.9427517" lon="12.40033"><ele>179.0</ele><time>2026-04-11T07:06:13.992Z</time></trkpt><trkpt lat="43.94271" lon="12.4002633"><ele>179.00000000000003</ele><time>2026-04-11T07:06:14.992Z</time></trkpt><trkpt lat="43.942675" lon="12.4001833"><ele>179.0</ele><time>2026-04-11T07:06:17.992Z</time></trkpt><trkpt lat="43.94273" lon="12.4002667"><ele>179.0</ele><time>2026-04-11T07:06:59.992Z</time></trkpt><trkpt lat="43.9427767" lon="12.4003567"><ele>179.0</ele><time>2026-04-11T07:07:01.992Z</time></trkpt><trkpt lat="43.9428433" lon="12.4004783"><ele>179.0</ele><time>2026-04-11T07:07:03.992Z</time></trkpt><trkpt lat="43.9429167" lon="12.400595"><ele>179.0</ele><time>2026-04-11T07:07:05.992Z</time></trkpt><trkpt lat="43.942995" lon="12.4007033"><ele>179.0</ele><time>2026-04-11T07:07:07.992Z</time></trkpt><trkpt lat="43.9430417" lon="12.4007633"><ele>179.0</ele><time>2026-04-11T07:07:08.993Z</time></trkpt><trkpt lat="43.9431" lon="12.4008317"><ele>179.0</ele><time>2026-04-11T07:07:09.992Z</time></trkpt><trkpt lat="43.9431583" lon="12.4008867"><ele>179.0</ele><time>2026-04-11T07:07:10.992Z</time></trkpt><trkpt lat="43.9432183" lon="12.400935"><ele>179.0</ele><time>2026-04-11T07:07:11.992Z</time></trkpt><trkpt lat="43.9432717" lon="12.4009817"><ele>179.0</ele><time>2026-04-11T07:07:12.992Z</time></trkpt><trkpt lat="43.9433283" lon="12.4010267"><ele>179.0</ele><time>2026-04-11T07:07:13.993Z</time></trkpt><trkpt lat="43.9434183" lon="12.4011167"><ele>179.6</ele><time>2026-04-11T07:07:15.992Z</time></trkpt><trkpt lat="43.9434867" lon="12.4012083"><ele>180.2</ele><time>2026-04-11T07:07:17.992Z</time></trkpt><trkpt lat="43.9435217" lon="12.40129"><ele>180.79999999999998</ele><time>2026-04-11T07:07:19.992Z</time></trkpt><trkpt lat="43.9436" lon="12.4012233"><ele>181.39999999999998</ele><time>2026-04-11T07:07:29.992Z</time></trkpt><trkpt lat="43.9436467" lon="12.401095"><ele>182.0</ele><time>2026-04-11T07:07:31.992Z</time></trkpt><trkpt lat="43.94368" lon="12.40093"><ele>182.0</ele><time>2026-04-11T07:07:33.992Z</time></trkpt><trkpt lat="43.9437083" lon="12.40081"><ele>182.0</ele><time>2026-04-11T07:07:35.993Z</time></trkpt><trkpt lat="43.9437567" lon="12.4007183"><ele>182.0</ele><time>2026-04-11T07:07:37.992Z</time></trkpt><trkpt lat="43.9438067" lon="12.4005883"><ele>182.0</ele><time>2026-04-11T07:07:39.992Z</time></trkpt><trkpt lat="43.9438717" lon="12.4004583"><ele>182.0</ele><time>2026-04-11T07:07:41.992Z</time></trkpt><trkpt lat="43.9439483" lon="12.4003367"><ele>184.33333333333331</ele><time>2026-04-11T07:07:43.992Z</time></trkpt><trkpt lat="43.9440283" lon="12.400225"><ele>186.66666666666666</ele><time>2026-04-11T07:07:45.992Z</time></trkpt><trkpt lat="43.9441217" lon="12.4001183"><ele>189.0</ele><time>2026-04-11T07:07:47.992Z</time></trkpt><trkpt lat="43.94417" lon="12.4000583"><ele>191.33333333333331</ele><time>2026-04-11T07:07:48.992Z</time></trkpt><trkpt lat="43.944225" lon="12.3999933"><ele>193.66666666666666</ele><time>2026-04-11T07:07:49.992Z</time></trkpt><trkpt lat="43.9442767" lon="12.3999333"><ele>196.0</ele><time>2026-04-11T07:07:50.992Z</time></trkpt><trkpt lat="43.944335" lon="12.3998767"><ele>197.83333333333331</ele><time>2026-04-11T07:07:51.992Z</time></trkpt><trkpt lat="43.9443933" lon="12.3998417"><ele>199.66666666666666</ele><time>2026-04-11T07:07:52.992Z</time></trkpt><trkpt lat="43.9444667" lon="12.39982"><ele>201.5</ele><time>2026-04-11T07:07:53.992Z</time></trkpt><trkpt lat="43.944535" lon="12.3997967"><ele>203.33333333333331</ele><time>2026-04-11T07:07:54.992Z</time></trkpt><trkpt lat="43.9446017" lon="12.3997717"><ele>205.16666666666666</ele><time>2026-04-11T07:07:55.992Z</time></trkpt><trkpt lat="43.9447133" lon="12.3997217"><ele>207.0</ele><time>2026-04-11T07:07:57.992Z</time></trkpt><trkpt lat="43.944815" lon="12.3996567"><ele>209.83333333333334</ele><time>2026-04-11T07:07:59.992Z</time></trkpt><trkpt lat="43.9449117" lon="12.39956"><ele>212.66666666666669</ele><time>2026-04-11T07:08:01.992Z</time></trkpt><trkpt lat="43.9449517" lon="12.3994883"><ele>215.5</ele><time>2026-04-11T07:08:02.992Z</time></trkpt><trkpt lat="43.94499" lon="12.3994117"><ele>218.33333333333334</ele><time>2026-04-11T07:08:03.992Z</time></trkpt><trkpt lat="43.94502" lon="12.3993233"><ele>221.16666666666669</ele><time>2026-04-11T07:08:04.992Z</time></trkpt><trkpt lat="43.9450483" lon="12.399225"><ele>224.0</ele><time>2026-04-11T07:08:05.992Z</time></trkpt><trkpt lat="43.945075" lon="12.3991283"><ele>226.2</ele><time>2026-04-11T07:08:06.992Z</time></trkpt><trkpt lat="43.9451033" lon="12.3990417"><ele>228.39999999999998</ele><time>2026-04-11T07:08:07.992Z</time></trkpt><trkpt lat="43.9451333" lon="12.3989583"><ele>230.6</ele><time>2026-04-11T07:08:08.992Z</time></trkpt><trkpt lat="43.94519" lon="12.3987817"><ele>232.8</ele><time>2026-04-11T07:08:10.992Z</time></trkpt><trkpt lat="43.94521" lon="12.3986967"><ele>235.0</ele><time>2026-04-11T07:08:11.992Z</time></trkpt><trkpt lat="43.9452417" lon="12.3985333"><ele>235.0</ele><time>2026-04-11T07:08:13.992Z</time></trkpt><trkpt lat="43.9452633" lon="12.3983683"><ele>235.0</ele><time>2026-04-11T07:08:15.993Z</time></trkpt><trkpt lat="43.94524" lon="12.398225"><ele>235.0</ele><time>2026-04-11T07:08:17.992Z</time></trkpt><trkpt lat="43.9451867" lon="12.3980783"><ele>235.0</ele><time>2026-04-11T07:08:19.992Z</time></trkpt><trkpt lat="43.945145" lon="12.3979167"><ele>234.14285714285714</ele><time>2026-04-11T07:08:21.992Z</time></trkpt><trkpt lat="43.9451383" lon="12.397825"><ele>233.28571428571428</ele><time>2026-04-11T07:08:22.992Z</time></trkpt><trkpt lat="43.9451367" lon="12.3977317"><ele>232.42857142857142</ele><time>2026-04-11T07:08:23.993Z</time></trkpt><trkpt lat="43.9451367" lon="12.3976267"><ele>231.57142857142856</ele><time>2026-04-11T07:08:24.992Z</time></trkpt><trkpt lat="43.9451333" lon="12.3975267"><ele>230.71428571428572</ele><time>2026-04-11T07:08:25.993Z</time></trkpt><trkpt lat="43.9451267" lon="12.397435"><ele>229.85714285714283</ele><time>2026-04-11T07:08:26.993Z</time></trkpt><trkpt lat="43.9451217" lon="12.3973117"><ele>229.0</ele><time>2026-04-11T07:08:28.993Z</time></trkpt><trkpt lat="43.9450717" lon="12.397195"><ele>231.83333333333331</ele><time>2026-04-11T07:08:31.993Z</time></trkpt><trkpt lat="43.9450183" lon="12.3970883"><ele>234.66666666666666</ele><time>2026-04-11T07:08:33.992Z</time></trkpt><trkpt lat="43.9449567" lon="12.396935"><ele>237.5</ele><time>2026-04-11T07:08:35.992Z</time></trkpt><trkpt lat="43.9449267" lon="12.3968483"><ele>240.33333333333331</ele><time>2026-04-11T07:08:36.992Z</time></trkpt><trkpt lat="43.9448983" lon="12.3967533"><ele>243.16666666666666</ele><time>2026-04-11T07:08:37.992Z</time></trkpt><trkpt lat="43.9448667" lon="12.3966533"><ele>246.0</ele><time>2026-04-11T07:08:38.993Z</time></trkpt><trkpt lat="43.9448333" lon="12.3965483"><ele>246.0</ele><time>2026-04-11T07:08:39.992Z</time></trkpt><trkpt lat="43.944805" lon="12.3964517"><ele>246.00000000000003</ele><time>2026-04-11T07:08:40.992Z</time></trkpt><trkpt lat="43.9447817" lon="12.3963617"><ele>246.00000000000003</ele><time>2026-04-11T07:08:41.992Z</time></trkpt><trkpt lat="43.944725" lon="12.3962433"><ele>246.0</ele><time>2026-04-11T07:08:43.992Z</time></trkpt><trkpt lat="43.9446583" lon="12.3961333"><ele>246.0</ele><time>2026-04-11T07:08:45.992Z</time></trkpt><trkpt lat="43.9445533" lon="12.3960333"><ele>245.20000000000002</ele><time>2026-04-11T07:08:47.992Z</time></trkpt><trkpt lat="43.944475" lon="12.3960033"><ele>244.40000000000003</ele><time>2026-04-11T07:08:48.992Z</time></trkpt><trkpt lat="43.9443867" lon="12.3959983"><ele>243.6</ele><time>2026-04-11T07:08:49.993Z</time></trkpt><trkpt lat="43.9442917" lon="12.3959983"><ele>242.8</ele><time>2026-04-11T07:08:50.992Z</time></trkpt><trkpt lat="43.9441983" lon="12.3959933"><ele>242.0</ele><time>2026-04-11T07:08:51.992Z</time></trkpt><trkpt lat="43.9441067" lon="12.3959817"><ele>244.33333333333334</ele><time>2026-04-11T07:08:52.992Z</time></trkpt><trkpt lat="43.9440217" lon="12.395965"><ele>246.66666666666669</ele><time>2026-04-11T07:08:53.992Z</time></trkpt><trkpt lat="43.94393" lon="12.3959433"><ele>249.0</ele><time>2026-04-11T07:08:54.993Z</time></trkpt><trkpt lat="43.9438533" lon="12.3959133"><ele>251.33333333333331</ele><time>2026-04-11T07:08:55.992Z</time></trkpt><trkpt lat="43.9437817" lon="12.395885"><ele>253.66666666666666</ele><time>2026-04-11T07:08:56.992Z</time></trkpt><trkpt lat="43.9436783" lon="12.3958117"><ele>256.0</ele><time>2026-04-11T07:08:58.992Z</time></trkpt><trkpt lat="43.9436483" lon="12.3956833"><ele>255.99999999999997</ele><time>2026-04-11T07:09:00.992Z</time></trkpt><trkpt lat="43.9436533" lon="12.3955"><ele>256.0</ele><time>2026-04-11T07:09:02.992Z</time></trkpt><trkpt lat="43.9436717" lon="12.3953883"><ele>256.0</ele><time>2026-04-11T07:09:03.992Z</time></trkpt><trkpt lat="43.9436833" lon="12.395285"><ele>256.0</ele><time>2026-04-11T07:09:04.992Z</time></trkpt><trkpt lat="43.94369" lon="12.39518"><ele>255.99999999999997</ele><time>2026-04-11T07:09:05.992Z</time></trkpt><trkpt lat="43.9436883" lon="12.395075"><ele>256.0</ele><time>2026-04-11T07:09:06.992Z</time></trkpt><trkpt lat="43.9436883" lon="12.394965"><ele>255.99999999999997</ele><time>2026-04-11T07:09:07.992Z</time></trkpt><trkpt lat="43.9436767" lon="12.3948433"><ele>256.0</ele><time>2026-04-11T07:09:08.992Z</time></trkpt><trkpt lat="43.943655" lon="12.3947217"><ele>256.0</ele><time>2026-04-11T07:09:09.992Z</time></trkpt><trkpt lat="43.94363" lon="12.39461"><ele>256.0</ele><time>2026-04-11T07:09:10.993Z</time></trkpt><trkpt lat="43.943595" lon="12.3945083"><ele>255.99999999999997</ele><time>2026-04-11T07:09:11.992Z</time></trkpt><trkpt lat="43.9435617" lon="12.3944033"><ele>256.0</ele><time>2026-04-11T07:09:12.992Z</time></trkpt><trkpt lat="43.9435233" lon="12.3942983"><ele>255.49999999999997</ele><time>2026-04-11T07:09:13.993Z</time></trkpt><trkpt lat="43.9434883" lon="12.3941933"><ele>255.0</ele><time>2026-04-11T07:09:14.993Z</time></trkpt><trkpt lat="43.943445" lon="12.3940883"><ele>254.5</ele><time>2026-04-11T07:09:15.993Z</time></trkpt><trkpt lat="43.9434" lon="12.3939883"><ele>254.0</ele><time>2026-04-11T07:09:16.993Z</time></trkpt><trkpt lat="43.9433567" lon="12.3938717"><ele>253.49999999999997</ele><time>2026-04-11T07:09:17.992Z</time></trkpt><trkpt lat="43.94332" lon="12.3937583"><ele>253.0</ele><time>2026-04-11T07:09:18.992Z</time></trkpt><trkpt lat="43.9432833" lon="12.3936567"><ele>256.3333333333333</ele><time>2026-04-11T07:09:19.992Z</time></trkpt><trkpt lat="43.9432433" lon="12.3935567"><ele>259.66666666666663</ele><time>2026-04-11T07:09:20.993Z</time></trkpt><trkpt lat="43.9431983" lon="12.3934717"><ele>263.0</ele><time>2026-04-11T07:09:21.993Z</time></trkpt><trkpt lat="43.9431533" lon="12.3934017"><ele>266.3333333333333</ele><time>2026-04-11T07:09:22.992Z</time></trkpt><trkpt lat="43.9430683" lon="12.393335"><ele>269.6666666666667</ele><time>2026-04-11T07:09:24.993Z</time></trkpt><trkpt lat="43.9429633" lon="12.3932983"><ele>273.0</ele><time>2026-04-11T07:09:26.992Z</time></trkpt><trkpt lat="43.9428467" lon="12.393255"><ele>273.0</ele><time>2026-04-11T07:09:28.992Z</time></trkpt><trkpt lat="43.94279" lon="12.39321"><ele>273.0</ele><time>2026-04-11T07:09:29.992Z</time></trkpt><trkpt lat="43.9427367" lon="12.3931567"><ele>273.0</ele><time>2026-04-11T07:09:30.992Z</time></trkpt><trkpt lat="43.9426767" lon="12.3930933"><ele>273.0</ele><time>2026-04-11T07:09:31.992Z</time></trkpt><trkpt lat="43.942615" lon="12.3930233"><ele>273.0</ele><time>2026-04-11T07:09:32.992Z</time></trkpt><trkpt lat="43.9425567" lon="12.39295"><ele>273.0</ele><time>2026-04-11T07:09:33.992Z</time></trkpt><trkpt lat="43.9425017" lon="12.3928633"><ele>273.0</ele><time>2026-04-11T07:09:34.992Z</time></trkpt><trkpt lat="43.942455" lon="12.3927633"><ele>277.3333333333333</ele><time>2026-04-11T07:09:35.992Z</time></trkpt><trkpt lat="43.9424233" lon="12.3926567"><ele>281.6666666666667</ele><time>2026-04-11T07:09:36.992Z</time></trkpt><trkpt lat="43.9424033" lon="12.392545"><ele>286.0</ele><time>2026-04-11T07:09:37.992Z</time></trkpt><trkpt lat="43.942395" lon="12.392435"><ele>290.33333333333337</ele><time>2026-04-11T07:09:38.992Z</time></trkpt><trkpt lat="43.9423867" lon="12.3923383"><ele>294.6666666666667</ele><time>2026-04-11T07:09:39.992Z</time></trkpt><trkpt lat="43.9423667" lon="12.3922467"><ele>299.0</ele><time>2026-04-11T07:09:40.993Z</time></trkpt><trkpt lat="43.942335" lon="12.3921617"><ele>300.5</ele><time>2026-04-11T07:09:41.992Z</time></trkpt><trkpt lat="43.9422933" lon="12.392075"><ele>302.0</ele><time>2026-04-11T07:09:42.992Z</time></trkpt><trkpt lat="43.9422433" lon="12.3919967"><ele>303.5</ele><time>2026-04-11T07:09:43.992Z</time></trkpt><trkpt lat="43.9421917" lon="12.391925"><ele>305.0</ele><time>2026-04-11T07:09:44.992Z</time></trkpt><trkpt lat="43.9421367" lon="12.3918617"><ele>306.5</ele><time>2026-04-11T07:09:45.992Z</time></trkpt><trkpt lat="43.9420817" lon="12.3917967"><ele>308.0</ele><time>2026-04-11T07:09:46.993Z</time></trkpt><trkpt lat="43.9420167" lon="12.3917217"><ele>308.0</ele><time>2026-04-11T07:09:47.992Z</time></trkpt><trkpt lat="43.94196" lon="12.39165"><ele>308.0</ele><time>2026-04-11T07:09:48.993Z</time></trkpt><trkpt lat="43.9419167" lon="12.3915683"><ele>308.0</ele><time>2026-04-11T07:09:49.992Z</time></trkpt><trkpt lat="43.9418767" lon="12.3914733"><ele>308.0</ele><time>2026-04-11T07:09:50.992Z</time></trkpt><trkpt lat="43.941845" lon="12.3913883"><ele>308.0</ele><time>2026-04-11T07:09:51.992Z</time></trkpt><trkpt lat="43.9417667" lon="12.391305"><ele>308.0</ele><time>2026-04-11T07:09:53.992Z</time></trkpt><trkpt lat="43.9416817" lon="12.3912667"><ele>311.33333333333337</ele><time>2026-04-11T07:09:55.992Z</time></trkpt><trkpt lat="43.9416183" lon="12.391225"><ele>314.6666666666667</ele><time>2026-04-11T07:09:56.992Z</time></trkpt><trkpt lat="43.9415617" lon="12.3911717"><ele>318.0</ele><time>2026-04-11T07:09:57.992Z</time></trkpt><trkpt lat="43.9414833" lon="12.39113"><ele>321.3333333333333</ele><time>2026-04-11T07:09:58.992Z</time></trkpt><trkpt lat="43.9414" lon="12.3910867"><ele>324.66666666666663</ele><time>2026-04-11T07:09:59.992Z</time></trkpt><trkpt lat="43.941325" lon="12.3910433"><ele>328.0</ele><time>2026-04-11T07:10:00.992Z</time></trkpt><trkpt lat="43.9412533" lon="12.3910133"><ele>328.0</ele><time>2026-04-11T07:10:01.992Z</time></trkpt><trkpt lat="43.9411667" lon="12.3909867"><ele>328.0</ele><time>2026-04-11T07:10:02.992Z</time></trkpt><trkpt lat="43.9410833" lon="12.3909717"><ele>328.0</ele><time>2026-04-11T07:10:03.992Z</time></trkpt><trkpt lat="43.9410067" lon="12.39096"><ele>328.0</ele><time>2026-04-11T07:10:04.993Z</time></trkpt><trkpt lat="43.94091" lon="12.3909117"><ele>328.0</ele><time>2026-04-11T07:10:06.993Z</time></trkpt><trkpt lat="43.9408867" lon="12.390805"><ele>328.0</ele><time>2026-04-11T07:10:08.992Z</time></trkpt><trkpt lat="43.9409217" lon="12.3906517"><ele>328.0</ele><time>2026-04-11T07:10:10.992Z</time></trkpt><trkpt lat="43.9409317" lon="12.39056"><ele>328.0</ele><time>2026-04-11T07:10:12.992Z</time></trkpt><trkpt lat="43.940835" lon="12.3904983"><ele>328.0</ele><time>2026-04-11T07:10:16.992Z</time></trkpt><trkpt lat="43.9407567" lon="12.39051"><ele>328.0</ele><time>2026-04-11T07:10:17.992Z</time></trkpt><trkpt lat="43.9406617" lon="12.3905267"><ele>328.0</ele><time>2026-04-11T07:10:18.992Z</time></trkpt><trkpt lat="43.940555" lon="12.3905533"><ele>327.75</ele><time>2026-04-11T07:10:19.992Z</time></trkpt><trkpt lat="43.9404433" lon="12.3905917"><ele>327.5</ele><time>2026-04-11T07:10:20.992Z</time></trkpt><trkpt lat="43.940325" lon="12.3906333"><ele>327.25</ele><time>2026-04-11T07:10:21.992Z</time></trkpt><trkpt lat="43.9401917" lon="12.3906817"><ele>327.0</ele><time>2026-04-11T07:10:22.992Z</time></trkpt><trkpt lat="43.9400483" lon="12.3907183"><ele>325.75</ele><time>2026-04-11T07:10:23.992Z</time></trkpt><trkpt lat="43.93991" lon="12.390745"><ele>324.5</ele><time>2026-04-11T07:10:24.992Z</time></trkpt><trkpt lat="43.939775" lon="12.3907583"><ele>323.25</ele><time>2026-04-11T07:10:25.993Z</time></trkpt><trkpt lat="43.9396433" lon="12.390775"><ele>322.0</ele><time>2026-04-11T07:10:26.992Z</time></trkpt><trkpt lat="43.93953" lon="12.3908033"><ele>322.0</ele><time>2026-04-11T07:10:27.992Z</time></trkpt><trkpt lat="43.93943" lon="12.3908383"><ele>322.0</ele><time>2026-04-11T07:10:28.993Z</time></trkpt><trkpt lat="43.9393267" lon="12.390885"><ele>322.0</ele><time>2026-04-11T07:10:29.992Z</time></trkpt><trkpt lat="43.93921" lon="12.3909667"><ele>322.0</ele><time>2026-04-11T07:10:30.993Z</time></trkpt><trkpt lat="43.9391083" lon="12.39104"><ele>321.5</ele><time>2026-04-11T07:10:31.993Z</time></trkpt><trkpt lat="43.9389983" lon="12.391135"><ele>321.0</ele><time>2026-04-11T07:10:32.993Z</time></trkpt><trkpt lat="43.938885" lon="12.3912333"><ele>320.5</ele><time>2026-04-11T07:10:33.993Z</time></trkpt><trkpt lat="43.93876" lon="12.39132"><ele>320.0</ele><time>2026-04-11T07:10:34.992Z</time></trkpt><trkpt lat="43.938635" lon="12.3913983"><ele>318.75</ele><time>2026-04-11T07:10:35.992Z</time></trkpt><trkpt lat="43.9385067" lon="12.3914533"><ele>317.5</ele><time>2026-04-11T07:10:36.992Z</time></trkpt><trkpt lat="43.9383767" lon="12.3915067"><ele>316.25</ele><time>2026-04-11T07:10:37.992Z</time></trkpt><trkpt lat="43.9382567" lon="12.3915617"><ele>315.0</ele><time>2026-04-11T07:10:38.993Z</time></trkpt><trkpt lat="43.9381467" lon="12.391645"><ele>314.75</ele><time>2026-04-11T07:10:39.992Z</time></trkpt><trkpt lat="43.9380533" lon="12.391735"><ele>314.5</ele><time>2026-04-11T07:10:40.992Z</time></trkpt><trkpt lat="43.937955" lon="12.3918567"><ele>314.25</ele><time>2026-04-11T07:10:41.992Z</time></trkpt><trkpt lat="43.93785" lon="12.39198"><ele>314.0</ele><time>2026-04-11T07:10:42.992Z</time></trkpt><trkpt lat="43.9377317" lon="12.3920933"><ele>311.75</ele><time>2026-04-11T07:10:43.992Z</time></trkpt><trkpt lat="43.9375967" lon="12.3921833"><ele>309.5</ele><time>2026-04-11T07:10:44.992Z</time></trkpt><trkpt lat="43.93746" lon="12.39225"><ele>307.25</ele><time>2026-04-11T07:10:45.993Z</time></trkpt><trkpt lat="43.9373283" lon="12.3922867"><ele>305.0</ele><time>2026-04-11T07:10:46.992Z</time></trkpt><trkpt lat="43.93719" lon="12.3923067"><ele>305.0</ele><time>2026-04-11T07:10:47.992Z</time></trkpt><trkpt lat="43.9370483" lon="12.3923433"><ele>305.0</ele><time>2026-04-11T07:10:48.992Z</time></trkpt><trkpt lat="43.936905" lon="12.3923917"><ele>305.0</ele><time>2026-04-11T07:10:49.993Z</time></trkpt><trkpt lat="43.9367567" lon="12.39245"><ele>305.0</ele><time>2026-04-11T07:10:50.993Z</time></trkpt><trkpt lat="43.936615" lon="12.39252"><ele>305.0</ele><time>2026-04-11T07:10:51.992Z</time></trkpt><trkpt lat="43.936475" lon="12.3925867"><ele>305.0</ele><time>2026-04-11T07:10:52.992Z</time></trkpt><trkpt lat="43.9363633" lon="12.3926533"><ele>305.0</ele><time>2026-04-11T07:10:53.992Z</time></trkpt><trkpt lat="43.9362933" lon="12.39273"><ele>305.0</ele><time>2026-04-11T07:10:54.993Z</time></trkpt><trkpt lat="43.93626" lon="12.3928183"><ele>305.0</ele><time>2026-04-11T07:10:55.992Z</time></trkpt><trkpt lat="43.93624" lon="12.39293"><ele>303.83333333333337</ele><time>2026-04-11T07:10:56.992Z</time></trkpt><trkpt lat="43.93622" lon="12.3930617"><ele>302.6666666666667</ele><time>2026-04-11T07:10:57.992Z</time></trkpt><trkpt lat="43.936195" lon="12.393185"><ele>301.5</ele><time>2026-04-11T07:10:58.992Z</time></trkpt><trkpt lat="43.93616" lon="12.393285"><ele>300.3333333333333</ele><time>2026-04-11T07:10:59.993Z</time></trkpt><trkpt lat="43.9361133" lon="12.3933517"><ele>299.16666666666663</ele><time>2026-04-11T07:11:00.992Z</time></trkpt><trkpt lat="43.93605" lon="12.393385"><ele>298.0</ele><time>2026-04-11T07:11:01.992Z</time></trkpt><trkpt lat="43.9359717" lon="12.3933817"><ele>300.5</ele><time>2026-04-11T07:11:02.993Z</time></trkpt><trkpt lat="43.9358667" lon="12.3933783"><ele>303.0</ele><time>2026-04-11T07:11:03.992Z</time></trkpt><trkpt lat="43.93575" lon="12.393405"><ele>305.5</ele><time>2026-04-11T07:11:04.992Z</time></trkpt><trkpt lat="43.935635" lon="12.3934683"><ele>308.0</ele><time>2026-04-11T07:11:05.992Z</time></trkpt><trkpt lat="43.9355267" lon="12.39356"><ele>308.0</ele><time>2026-04-11T07:11:06.993Z</time></trkpt><trkpt lat="43.935415" lon="12.3936833"><ele>308.0</ele><time>2026-04-11T07:11:07.992Z</time></trkpt><trkpt lat="43.9353" lon="12.3938083"><ele>308.0</ele><time>2026-04-11T07:11:08.992Z</time></trkpt><trkpt lat="43.935175" lon="12.3939567"><ele>308.33333333333337</ele><time>2026-04-11T07:11:09.992Z</time></trkpt><trkpt lat="43.93505" lon="12.394105"><ele>308.6666666666667</ele><time>2026-04-11T07:11:10.993Z</time></trkpt><trkpt lat="43.93492" lon="12.3942333"><ele>309.0</ele><time>2026-04-11T07:11:11.992Z</time></trkpt><trkpt lat="43.9347833" lon="12.39435"><ele>309.0</ele><time>2026-04-11T07:11:12.992Z</time></trkpt><trkpt lat="43.9346417" lon="12.3944533"><ele>309.0</ele><time>2026-04-11T07:11:13.992Z</time></trkpt><trkpt lat="43.93451" lon="12.39454"><ele>309.0</ele><time>2026-04-11T07:11:14.992Z</time></trkpt><trkpt lat="43.93438" lon="12.394645"><ele>309.25</ele><time>2026-04-11T07:11:15.992Z</time></trkpt><trkpt lat="43.93425" lon="12.394745"><ele>309.5</ele><time>2026-04-11T07:11:16.992Z</time></trkpt><trkpt lat="43.9341217" lon="12.3948383"><ele>309.75</ele><time>2026-04-11T07:11:17.992Z</time></trkpt><trkpt lat="43.9339983" lon="12.39495"><ele>310.0</ele><time>2026-04-11T07:11:18.992Z</time></trkpt><trkpt lat="43.9338717" lon="12.3950783"><ele>310.0</ele><time>2026-04-11T07:11:19.993Z</time></trkpt><trkpt lat="43.93375" lon="12.3952233"><ele>310.0</ele><time>2026-04-11T07:11:20.992Z</time></trkpt><trkpt lat="43.9336267" lon="12.3953883"><ele>310.0</ele><time>2026-04-11T07:11:21.992Z</time></trkpt><trkpt lat="43.93351" lon="12.3955533"><ele>308.66666666666663</ele><time>2026-04-11T07:11:22.992Z</time></trkpt><trkpt lat="43.93339" lon="12.3957283"><ele>307.3333333333333</ele><time>2026-04-11T07:11:23.992Z</time></trkpt><trkpt lat="43.9332767" lon="12.3958867"><ele>306.0</ele><time>2026-04-11T07:11:24.992Z</time></trkpt><trkpt lat="43.9331733" lon="12.39603"><ele>306.0</ele><time>2026-04-11T07:11:25.992Z</time></trkpt><trkpt lat="43.93308" lon="12.3961667"><ele>306.0</ele><time>2026-04-11T07:11:26.992Z</time></trkpt><trkpt lat="43.932995" lon="12.3963117"><ele>306.0</ele><time>2026-04-11T07:11:27.992Z</time></trkpt><trkpt lat="43.93293" lon="12.3964667"><ele>306.0</ele><time>2026-04-11T07:11:28.993Z</time></trkpt><trkpt lat="43.932895" lon="12.3966317"><ele>306.5</ele><time>2026-04-11T07:11:29.992Z</time></trkpt><trkpt lat="43.932915" lon="12.3967967"><ele>307.0</ele><time>2026-04-11T07:11:30.992Z</time></trkpt><trkpt lat="43.9329583" lon="12.3969533"><ele>307.5</ele><time>2026-04-11T07:11:31.992Z</time></trkpt><trkpt lat="43.9330017" lon="12.3971167"><ele>308.0</ele><time>2026-04-11T07:11:32.992Z</time></trkpt><trkpt lat="43.9330367" lon="12.3973017"><ele>309.0</ele><time>2026-04-11T07:11:33.992Z</time></trkpt><trkpt lat="43.933075" lon="12.3974933"><ele>310.0</ele><time>2026-04-11T07:11:34.992Z</time></trkpt><trkpt lat="43.93312" lon="12.397675"><ele>311.0</ele><time>2026-04-11T07:11:35.992Z</time></trkpt><trkpt lat="43.9331567" lon="12.3978233"><ele>312.0</ele><time>2026-04-11T07:11:36.992Z</time></trkpt><trkpt lat="43.9331733" lon="12.39794"><ele>312.0</ele><time>2026-04-11T07:11:37.992Z</time></trkpt><trkpt lat="43.9331633" lon="12.39804"><ele>312.0</ele><time>2026-04-11T07:11:38.993Z</time></trkpt><trkpt lat="43.9330567" lon="12.3981283"><ele>312.0</ele><time>2026-04-11T07:11:40.992Z</time></trkpt><trkpt lat="43.9329867" lon="12.39811"><ele>312.0</ele><time>2026-04-11T07:11:41.992Z</time></trkpt><trkpt lat="43.9329233" lon="12.3980383"><ele>312.0</ele><time>2026-04-11T07:11:42.992Z</time></trkpt><trkpt lat="43.9328617" lon="12.3979417"><ele>312.0</ele><time>2026-04-11T07:11:43.992Z</time></trkpt><trkpt lat="43.932805" lon="12.397815"><ele>312.0</ele><time>2026-04-11T07:11:44.992Z</time></trkpt><trkpt lat="43.9327517" lon="12.3976667"><ele>312.0</ele><time>2026-04-11T07:11:45.992Z</time></trkpt><trkpt lat="43.9327" lon="12.3975283"><ele>312.0</ele><time>2026-04-11T07:11:46.992Z</time></trkpt><trkpt lat="43.9326317" lon="12.39743"><ele>312.0</ele><time>2026-04-11T07:11:47.993Z</time></trkpt><trkpt lat="43.9325583" lon="12.3973667"><ele>312.0</ele><time>2026-04-11T07:11:48.992Z</time></trkpt><trkpt lat="43.93249" lon="12.397365"><ele>315.2</ele><time>2026-04-11T07:11:49.992Z</time></trkpt><trkpt lat="43.9324117" lon="12.3974117"><ele>318.4</ele><time>2026-04-11T07:11:50.992Z</time></trkpt><trkpt lat="43.9323233" lon="12.3974883"><ele>321.59999999999997</ele><time>2026-04-11T07:11:51.992Z</time></trkpt><trkpt lat="43.9322267" lon="12.3975633"><ele>324.79999999999995</ele><time>2026-04-11T07:11:52.992Z</time></trkpt><trkpt lat="43.9321083" lon="12.39763"><ele>328.0</ele><time>2026-04-11T07:11:53.992Z</time></trkpt><trkpt lat="43.9319833" lon="12.39768"><ele>328.0</ele><time>2026-04-11T07:11:54.992Z</time></trkpt><trkpt lat="43.9318433" lon="12.3977033"><ele>328.0</ele><time>2026-04-11T07:11:55.992Z</time></trkpt><trkpt lat="43.931695" lon="12.3977167"><ele>328.0</ele><time>2026-04-11T07:11:56.992Z</time></trkpt><trkpt lat="43.9315383" lon="12.397725"><ele>328.0</ele><time>2026-04-11T07:11:57.992Z</time></trkpt><trkpt lat="43.9313767" lon="12.39774"><ele>330.3333333333333</ele><time>2026-04-11T07:11:58.992Z</time></trkpt><trkpt lat="43.93121" lon="12.3977683"><ele>332.6666666666667</ele><time>2026-04-11T07:11:59.992Z</time></trkpt><trkpt lat="43.93104" lon="12.39782"><ele>335.0</ele><time>2026-04-11T07:12:00.993Z</time></trkpt><trkpt lat="43.9308683" lon="12.3978883"><ele>336.33333333333337</ele><time>2026-04-11T07:12:01.993Z</time></trkpt><trkpt lat="43.9307017" lon="12.3979683"><ele>337.6666666666667</ele><time>2026-04-11T07:12:02.992Z</time></trkpt><trkpt lat="43.9305467" lon="12.39802"><ele>339.0</ele><time>2026-04-11T07:12:03.992Z</time></trkpt><trkpt lat="43.9304" lon="12.3980367"><ele>339.0</ele><time>2026-04-11T07:12:04.992Z</time></trkpt><trkpt lat="43.93027" lon="12.3980283"><ele>339.0</ele><time>2026-04-11T07:12:05.992Z</time></trkpt><trkpt lat="43.93013" lon="12.3979817"><ele>339.0</ele><time>2026-04-11T07:12:06.992Z</time></trkpt><trkpt lat="43.9299917" lon="12.3979533"><ele>339.0</ele><time>2026-04-11T07:12:07.992Z</time></trkpt><trkpt lat="43.9298467" lon="12.3979333"><ele>342.75</ele><time>2026-04-11T07:12:08.992Z</time></trkpt><trkpt lat="43.9296917" lon="12.3979067"><ele>346.5</ele><time>2026-04-11T07:12:09.992Z</time></trkpt><trkpt lat="43.9295567" lon="12.39789"><ele>350.25</ele><time>2026-04-11T07:12:10.992Z</time></trkpt><trkpt lat="43.9294217" lon="12.397895"><ele>354.0</ele><time>2026-04-11T07:12:11.993Z</time></trkpt><trkpt lat="43.9293" lon="12.3978883"><ele>357.2</ele><time>2026-04-11T07:12:12.993Z</time></trkpt><trkpt lat="43.929205" lon="12.3978667"><ele>360.4</ele><time>2026-04-11T07:12:13.992Z</time></trkpt><trkpt lat="43.9291317" lon="12.3978233"><ele>363.6</ele><time>2026-04-11T07:12:14.992Z</time></trkpt><trkpt lat="43.929075" lon="12.3976733"><ele>366.8</ele><time>2026-04-11T07:12:16.992Z</time></trkpt><trkpt lat="43.9290617" lon="12.3975517"><ele>370.0</ele><time>2026-04-11T07:12:17.992Z</time></trkpt><trkpt lat="43.9290567" lon="12.3974167"><ele>370.0</ele><time>2026-04-11T07:12:18.992Z</time></trkpt><trkpt lat="43.9290583" lon="12.3972317"><ele>370.0</ele><time>2026-04-11T07:12:19.992Z</time></trkpt><trkpt lat="43.9290567" lon="12.3970517"><ele>370.0</ele><time>2026-04-11T07:12:20.992Z</time></trkpt><trkpt lat="43.929045" lon="12.3968633"><ele>370.0</ele><time>2026-04-11T07:12:21.992Z</time></trkpt><trkpt lat="43.9290317" lon="12.39668"><ele>370.5</ele><time>2026-04-11T07:12:22.992Z</time></trkpt><trkpt lat="43.9290117" lon="12.3965083"><ele>371.0</ele><time>2026-04-11T07:12:23.992Z</time></trkpt><trkpt lat="43.9289867" lon="12.3963533"><ele>371.5</ele><time>2026-04-11T07:12:24.993Z</time></trkpt><trkpt lat="43.9289233" lon="12.3962333"><ele>372.0</ele><time>2026-04-11T07:12:25.992Z</time></trkpt><trkpt lat="43.9288433" lon="12.39614"><ele>372.25</ele><time>2026-04-11T07:12:26.992Z</time></trkpt><trkpt lat="43.9287467" lon="12.396055"><ele>372.5</ele><time>2026-04-11T07:12:27.992Z</time></trkpt><trkpt lat="43.9286433" lon="12.39597"><ele>372.75</ele><time>2026-04-11T07:12:28.992Z</time></trkpt><trkpt lat="43.9285283" lon="12.39589"><ele>373.0</ele><time>2026-04-11T07:12:29.992Z</time></trkpt><trkpt lat="43.928395" lon="12.395815"><ele>381.66666666666663</ele><time>2026-04-11T07:12:30.992Z</time></trkpt><trkpt lat="43.9282467" lon="12.39574"><ele>390.3333333333333</ele><time>2026-04-11T07:12:31.992Z</time></trkpt><trkpt lat="43.9280917" lon="12.3956833"><ele>399.0</ele><time>2026-04-11T07:12:32.992Z</time></trkpt><trkpt lat="43.92793" lon="12.3956617"><ele>399.0</ele><time>2026-04-11T07:12:33.992Z</time></trkpt><trkpt lat="43.927765" lon="12.395655"><ele>399.0</ele><time>2026-04-11T07:12:34.992Z</time></trkpt><trkpt lat="43.9276083" lon="12.3956467"><ele>399.0</ele><time>2026-04-11T07:12:35.992Z</time></trkpt><trkpt lat="43.9274433" lon="12.3956233"><ele>402.25</ele><time>2026-04-11T07:12:36.992Z</time></trkpt><trkpt lat="43.9272933" lon="12.3956167"><ele>405.5</ele><time>2026-04-11T07:12:37.993Z</time></trkpt><trkpt lat="43.92715" lon="12.3956333"><ele>408.75</ele><time>2026-04-11T07:12:38.992Z</time></trkpt><trkpt lat="43.9270217" lon="12.3957017"><ele>412.0</ele><time>2026-04-11T07:12:39.992Z</time></trkpt><trkpt lat="43.9268883" lon="12.3957867"><ele>412.0</ele><time>2026-04-11T07:12:40.992Z</time></trkpt><trkpt lat="43.9267483" lon="12.3958733"><ele>412.0</ele><time>2026-04-11T07:12:41.992Z</time></trkpt><trkpt lat="43.9266067" lon="12.3959767"><ele>412.0</ele><time>2026-04-11T07:12:42.992Z</time></trkpt><trkpt lat="43.9264667" lon="12.396075"><ele>411.6666666666667</ele><time>2026-04-11T07:12:43.992Z</time></trkpt><trkpt lat="43.9263233" lon="12.3961617"><ele>411.33333333333337</ele><time>2026-04-11T07:12:44.993Z</time></trkpt><trkpt lat="43.92618" lon="12.39625"><ele>411.0</ele><time>2026-04-11T07:12:45.992Z</time></trkpt><trkpt lat="43.926035" lon="12.396335"><ele>410.0</ele><time>2026-04-11T07:12:46.992Z</time></trkpt><trkpt lat="43.9259067" lon="12.39642"><ele>409.0</ele><time>2026-04-11T07:12:47.993Z</time></trkpt><trkpt lat="43.92578" lon="12.396475"><ele>408.0</ele><time>2026-04-11T07:12:48.992Z</time></trkpt><trkpt lat="43.9256817" lon="12.3965383"><ele>407.0</ele><time>2026-04-11T07:12:49.992Z</time></trkpt><trkpt lat="43.9255983" lon="12.3966133"><ele>407.0</ele><time>2026-04-11T07:12:50.992Z</time></trkpt><trkpt lat="43.925535" lon="12.39672"><ele>407.0</ele><time>2026-04-11T07:12:51.992Z</time></trkpt><trkpt lat="43.92549" lon="12.3968717"><ele>407.0</ele><time>2026-04-11T07:12:52.992Z</time></trkpt><trkpt lat="43.92544" lon="12.397035"><ele>407.0</ele><time>2026-04-11T07:12:53.993Z</time></trkpt><trkpt lat="43.9253983" lon="12.3972"><ele>405.20000000000005</ele><time>2026-04-11T07:12:54.992Z</time></trkpt><trkpt lat="43.925335" lon="12.39735"><ele>403.4</ele><time>2026-04-11T07:12:55.992Z</time></trkpt><trkpt lat="43.9252567" lon="12.3974667"><ele>401.6</ele><time>2026-04-11T07:12:56.993Z</time></trkpt><trkpt lat="43.9251733" lon="12.3975517"><ele>399.79999999999995</ele><time>2026-04-11T07:12:57.992Z</time></trkpt><trkpt lat="43.925075" lon="12.3975883"><ele>398.0</ele><time>2026-04-11T07:12:58.992Z</time></trkpt><trkpt lat="43.9249717" lon="12.397595"><ele>398.0</ele><time>2026-04-11T07:12:59.992Z</time></trkpt><trkpt lat="43.9248667" lon="12.3975733"><ele>398.0</ele><time>2026-04-11T07:13:00.992Z</time></trkpt><trkpt lat="43.9247183" lon="12.3975517"><ele>398.0</ele><time>2026-04-11T07:13:01.993Z</time></trkpt><trkpt lat="43.9245783" lon="12.3975233"><ele>398.0</ele><time>2026-04-11T07:13:02.992Z</time></trkpt><trkpt lat="43.9244567" lon="12.3974833"><ele>397.99999999999994</ele><time>2026-04-11T07:13:03.992Z</time></trkpt><trkpt lat="43.9243567" lon="12.397455"><ele>398.0</ele><time>2026-04-11T07:13:04.992Z</time></trkpt><trkpt lat="43.9242767" lon="12.39743"><ele>398.0</ele><time>2026-04-11T07:13:05.992Z</time></trkpt><trkpt lat="43.9242083" lon="12.3974133"><ele>398.0</ele><time>2026-04-11T07:13:06.992Z</time></trkpt><trkpt lat="43.92413" lon="12.3973983"><ele>397.99999999999994</ele><time>2026-04-11T07:13:07.992Z</time></trkpt><trkpt lat="43.9240483" lon="12.39736"><ele>398.0</ele><time>2026-04-11T07:13:08.992Z</time></trkpt><trkpt lat="43.9239483" lon="12.3973017"><ele>397.75</ele><time>2026-04-11T07:13:09.992Z</time></trkpt><trkpt lat="43.923835" lon="12.3972133"><ele>397.5</ele><time>2026-04-11T07:13:10.993Z</time></trkpt><trkpt lat="43.923705" lon="12.397135"><ele>397.25</ele><time>2026-04-11T07:13:11.992Z</time></trkpt><trkpt lat="43.9235683" lon="12.3970583"><ele>397.0</ele><time>2026-04-11T07:13:12.992Z</time></trkpt><trkpt lat="43.9234267" lon="12.3969867"><ele>400.6666666666667</ele><time>2026-04-11T07:13:13.992Z</time></trkpt><trkpt lat="43.92327" lon="12.3969367"><ele>404.33333333333337</ele><time>2026-04-11T07:13:14.992Z</time></trkpt><trkpt lat="43.92311" lon="12.396925"><ele>408.0</ele><time>2026-04-11T07:13:15.993Z</time></trkpt><trkpt lat="43.9229567" lon="12.3969367"><ele>408.0</ele><time>2026-04-11T07:13:16.992Z</time></trkpt><trkpt lat="43.922815" lon="12.3969633"><ele>408.0</ele><time>2026-04-11T07:13:17.992Z</time></trkpt><trkpt lat="43.9226867" lon="12.3969633"><ele>408.0</ele><time>2026-04-11T07:13:18.992Z</time></trkpt><trkpt lat="43.922585" lon="12.3969183"><ele>408.0</ele><time>2026-04-11T07:13:19.992Z</time></trkpt><trkpt lat="43.9224983" lon="12.396835"><ele>409.5</ele><time>2026-04-11T07:13:20.992Z</time></trkpt><trkpt lat="43.9224167" lon="12.39673"><ele>411.0</ele><time>2026-04-11T07:13:21.993Z</time></trkpt><trkpt lat="43.922335" lon="12.39658"><ele>412.5</ele><time>2026-04-11T07:13:22.992Z</time></trkpt><trkpt lat="43.9222417" lon="12.3964533"><ele>414.0</ele><time>2026-04-11T07:13:23.992Z</time></trkpt><trkpt lat="43.9221283" lon="12.3963667"><ele>414.0</ele><time>2026-04-11T07:13:24.992Z</time></trkpt><trkpt lat="43.9219983" lon="12.3963467"><ele>414.0</ele><time>2026-04-11T07:13:25.992Z</time></trkpt><trkpt lat="43.9218633" lon="12.39635"><ele>414.0</ele><time>2026-04-11T07:13:26.992Z</time></trkpt><trkpt lat="43.9217217" lon="12.3963733"><ele>414.0</ele><time>2026-04-11T07:13:27.992Z</time></trkpt><trkpt lat="43.9215667" lon="12.3964083"><ele>414.0</ele><time>2026-04-11T07:13:28.993Z</time></trkpt><trkpt lat="43.9214033" lon="12.39644"><ele>414.0</ele><time>2026-04-11T07:13:29.992Z</time></trkpt><trkpt lat="43.9212267" lon="12.396465"><ele>414.0</ele><time>2026-04-11T07:13:30.993Z</time></trkpt><trkpt lat="43.9210517" lon="12.3965033"><ele>416.0</ele><time>2026-04-11T07:13:31.992Z</time></trkpt><trkpt lat="43.92087" lon="12.39654"><ele>418.0</ele><time>2026-04-11T07:13:32.993Z</time></trkpt><trkpt lat="43.920685" lon="12.3965967"><ele>420.0</ele><time>2026-04-11T07:13:33.992Z</time></trkpt><trkpt lat="43.9205033" lon="12.3966783"><ele>420.0</ele><time>2026-04-11T07:13:34.993Z</time></trkpt><trkpt lat="43.92033" lon="12.3967767"><ele>420.0</ele><time>2026-04-11T07:13:35.992Z</time></trkpt><trkpt lat="43.9201517" lon="12.396865"><ele>420.0</ele><time>2026-04-11T07:13:36.992Z</time></trkpt><trkpt lat="43.9199567" lon="12.3969367"><ele>423.0</ele><time>2026-04-11T07:13:37.992Z</time></trkpt><trkpt lat="43.919775" lon="12.3970183"><ele>426.0</ele><time>2026-04-11T07:13:38.992Z</time></trkpt><trkpt lat="43.919595" lon="12.3970867"><ele>429.0</ele><time>2026-04-11T07:13:39.992Z</time></trkpt><trkpt lat="43.9194233" lon="12.39714"><ele>428.33333333333337</ele><time>2026-04-11T07:13:40.992Z</time></trkpt><trkpt lat="43.9192433" lon="12.397195"><ele>427.6666666666667</ele><time>2026-04-11T07:13:41.992Z</time></trkpt><trkpt lat="43.9190683" lon="12.397235"><ele>427.0</ele><time>2026-04-11T07:13:42.992Z</time></trkpt><trkpt lat="43.918885" lon="12.3972867"><ele>427.0</ele><time>2026-04-11T07:13:43.992Z</time></trkpt><trkpt lat="43.9186933" lon="12.3973367"><ele>427.0</ele><time>2026-04-11T07:13:44.992Z</time></trkpt><trkpt lat="43.9185017" lon="12.3973917"><ele>427.0</ele><time>2026-04-11T07:13:45.992Z</time></trkpt><trkpt lat="43.918305" lon="12.3974467"><ele>427.0</ele><time>2026-04-11T07:13:46.991Z</time></trkpt><trkpt lat="43.9181117" lon="12.3975067"><ele>427.0</ele><time>2026-04-11T07:13:47.992Z</time></trkpt><trkpt lat="43.917925" lon="12.39757"><ele>427.0</ele><time>2026-04-11T07:13:48.992Z</time></trkpt><trkpt lat="43.91775" lon="12.3976383"><ele>427.0</ele><time>2026-04-11T07:13:49.991Z</time></trkpt><trkpt lat="43.917585" lon="12.3976983"><ele>427.0</ele><time>2026-04-11T07:13:50.991Z</time></trkpt><trkpt lat="43.917435" lon="12.397765"><ele>427.0</ele><time>2026-04-11T07:13:51.992Z</time></trkpt><trkpt lat="43.9172967" lon="12.397865"><ele>428.25</ele><time>2026-04-11T07:13:52.991Z</time></trkpt><trkpt lat="43.9171733" lon="12.39799"><ele>429.5</ele><time>2026-04-11T07:13:53.991Z</time></trkpt><trkpt lat="43.917075" lon="12.3981367"><ele>430.75</ele><time>2026-04-11T07:13:54.991Z</time></trkpt><trkpt lat="43.9169783" lon="12.39829"><ele>432.0</ele><time>2026-04-11T07:13:55.991Z</time></trkpt><trkpt lat="43.9168817" lon="12.39843"><ele>432.0</ele><time>2026-04-11T07:13:56.991Z</time></trkpt><trkpt lat="43.9167783" lon="12.39853"><ele>432.0</ele><time>2026-04-11T07:13:57.992Z</time></trkpt><trkpt lat="43.9166683" lon="12.39862"><ele>432.0</ele><time>2026-04-11T07:13:58.991Z</time></trkpt><trkpt lat="43.9165617" lon="12.3986517"><ele>432.0</ele><time>2026-04-11T07:13:59.991Z</time></trkpt><trkpt lat="43.91647" lon="12.3986333"><ele>436.0</ele><time>2026-04-11T07:14:00.991Z</time></trkpt><trkpt lat="43.9163983" lon="12.398565"><ele>440.00000000000006</ele><time>2026-04-11T07:14:01.991Z</time></trkpt><trkpt lat="43.9163383" lon="12.3984767"><ele>444.00000000000006</ele><time>2026-04-11T07:14:02.991Z</time></trkpt><trkpt lat="43.9162767" lon="12.398365"><ele>448.0</ele><time>2026-04-11T07:14:03.991Z</time></trkpt><trkpt lat="43.9162" lon="12.398295"><ele>452.0</ele><time>2026-04-11T07:14:04.991Z</time></trkpt><trkpt lat="43.916105" lon="12.39827"><ele>452.0</ele><time>2026-04-11T07:14:05.991Z</time></trkpt><trkpt lat="43.9160067" lon="12.3983033"><ele>452.0</ele><time>2026-04-11T07:14:06.991Z</time></trkpt><trkpt lat="43.9159017" lon="12.39839"><ele>452.0</ele><time>2026-04-11T07:14:07.991Z</time></trkpt><trkpt lat="43.9157817" lon="12.39848"><ele>452.0</ele><time>2026-04-11T07:14:08.992Z</time></trkpt><trkpt lat="43.9156567" lon="12.3985933"><ele>452.25</ele><time>2026-04-11T07:14:09.992Z</time></trkpt><trkpt lat="43.91553" lon="12.3987183"><ele>452.5</ele><time>2026-04-11T07:14:10.991Z</time></trkpt><trkpt lat="43.9154233" lon="12.3988483"><ele>452.75</ele><time>2026-04-11T07:14:11.991Z</time></trkpt><trkpt lat="43.9153067" lon="12.39897"><ele>453.0</ele><time>2026-04-11T07:14:12.991Z</time></trkpt><trkpt lat="43.9151767" lon="12.3990933"><ele>455.66666666666663</ele><time>2026-04-11T07:14:13.991Z</time></trkpt><trkpt lat="43.91504" lon="12.3992083"><ele>458.3333333333333</ele><time>2026-04-11T07:14:14.991Z</time></trkpt><trkpt lat="43.9148933" lon="12.3992933"><ele>461.0</ele><time>2026-04-11T07:14:15.991Z</time></trkpt><trkpt lat="43.91475" lon="12.3993633"><ele>461.0</ele><time>2026-04-11T07:14:16.991Z</time></trkpt><trkpt lat="43.9146067" lon="12.3994167"><ele>461.0</ele><time>2026-04-11T07:14:17.992Z</time></trkpt><trkpt lat="43.914465" lon="12.399425"><ele>461.0</ele><time>2026-04-11T07:14:18.991Z</time></trkpt><trkpt lat="43.9143267" lon="12.3994133"><ele>461.0</ele><time>2026-04-11T07:14:19.991Z</time></trkpt><trkpt lat="43.9142067" lon="12.3993733"><ele>462.0</ele><time>2026-04-11T07:14:20.991Z</time></trkpt><trkpt lat="43.91411" lon="12.399325"><ele>463.0</ele><time>2026-04-11T07:14:21.991Z</time></trkpt><trkpt lat="43.9140433" lon="12.3992933"><ele>464.0</ele><time>2026-04-11T07:14:22.992Z</time></trkpt><trkpt lat="43.9139617" lon="12.399225"><ele>465.0</ele><time>2026-04-11T07:14:24.991Z</time></trkpt><trkpt lat="43.9138817" lon="12.3990983"><ele>466.0</ele><time>2026-04-11T07:14:26.991Z</time></trkpt><trkpt lat="43.9138417" lon="12.3989883"><ele>466.0</ele><time>2026-04-11T07:14:27.991Z</time></trkpt><trkpt lat="43.9138067" lon="12.398845"><ele>466.0</ele><time>2026-04-11T07:14:28.992Z</time></trkpt><trkpt lat="43.9137683" lon="12.3986833"><ele>466.0</ele><time>2026-04-11T07:14:29.992Z</time></trkpt><trkpt lat="43.9137267" lon="12.3985133"><ele>466.0</ele><time>2026-04-11T07:14:30.991Z</time></trkpt><trkpt lat="43.91368" lon="12.3983367"><ele>464.75</ele><time>2026-04-11T07:14:31.992Z</time></trkpt><trkpt lat="43.913635" lon="12.3981683"><ele>463.5</ele><time>2026-04-11T07:14:32.991Z</time></trkpt><trkpt lat="43.9136033" lon="12.398"><ele>462.25</ele><time>2026-04-11T07:14:33.991Z</time></trkpt><trkpt lat="43.9135867" lon="12.3978367"><ele>461.0</ele><time>2026-04-11T07:14:34.991Z</time></trkpt><trkpt lat="43.91356" lon="12.3976817"><ele>459.5</ele><time>2026-04-11T07:14:35.991Z</time></trkpt><trkpt lat="43.9135283" lon="12.3975333"><ele>458.0</ele><time>2026-04-11T07:14:36.991Z</time></trkpt><trkpt lat="43.9134933" lon="12.3973733"><ele>456.5</ele><time>2026-04-11T07:14:37.991Z</time></trkpt><trkpt lat="43.9134533" lon="12.3972133"><ele>455.0</ele><time>2026-04-11T07:14:38.991Z</time></trkpt><trkpt lat="43.91341" lon="12.3970567"><ele>457.0</ele><time>2026-04-11T07:14:39.991Z</time></trkpt><trkpt lat="43.9133483" lon="12.3969133"><ele>459.0</ele><time>2026-04-11T07:14:40.991Z</time></trkpt><trkpt lat="43.9132783" lon="12.3967683"><ele>461.0</ele><time>2026-04-11T07:14:41.991Z</time></trkpt><trkpt lat="43.91322" lon="12.3966383"><ele>463.0</ele><time>2026-04-11T07:14:42.991Z</time></trkpt><trkpt lat="43.91317" lon="12.3965083"><ele>463.0</ele><time>2026-04-11T07:14:43.991Z</time></trkpt><trkpt lat="43.9131333" lon="12.3963683"><ele>463.0</ele><time>2026-04-11T07:14:44.991Z</time></trkpt><trkpt lat="43.9131017" lon="12.3962167"><ele>463.0</ele><time>2026-04-11T07:14:45.991Z</time></trkpt><trkpt lat="43.913065" lon="12.3960633"><ele>463.0</ele><time>2026-04-11T07:14:46.991Z</time></trkpt><trkpt lat="43.91301" lon="12.3959167"><ele>463.5</ele><time>2026-04-11T07:14:47.992Z</time></trkpt><trkpt lat="43.9129467" lon="12.3957767"><ele>464.0</ele><time>2026-04-11T07:14:48.991Z</time></trkpt><trkpt lat="43.9128883" lon="12.3956417"><ele>464.5</ele><time>2026-04-11T07:14:49.991Z</time></trkpt><trkpt lat="43.9128433" lon="12.3955133"><ele>465.0</ele><time>2026-04-11T07:14:50.991Z</time></trkpt><trkpt lat="43.912795" lon="12.3953633"><ele>464.2</ele><time>2026-04-11T07:14:51.992Z</time></trkpt><trkpt lat="43.91276" lon="12.3952167"><ele>463.4</ele><time>2026-04-11T07:14:52.991Z</time></trkpt><trkpt lat="43.912725" lon="12.39509"><ele>462.6</ele><time>2026-04-11T07:14:53.991Z</time></trkpt><trkpt lat="43.91269" lon="12.3949733"><ele>461.8</ele><time>2026-04-11T07:14:54.991Z</time></trkpt><trkpt lat="43.9126483" lon="12.3948683"><ele>461.0</ele><time>2026-04-11T07:14:55.991Z</time></trkpt><trkpt lat="43.912585" lon="12.39475"><ele>462.0</ele><time>2026-04-11T07:14:56.992Z</time></trkpt><trkpt lat="43.9125067" lon="12.394635"><ele>463.0</ele><time>2026-04-11T07:14:57.991Z</time></trkpt><trkpt lat="43.91241" lon="12.3944983"><ele>464.0</ele><time>2026-04-11T07:14:58.991Z</time></trkpt><trkpt lat="43.9123217" lon="12.3943883"><ele>465.0</ele><time>2026-04-11T07:14:59.991Z</time></trkpt><trkpt lat="43.912245" lon="12.39427"><ele>465.0</ele><time>2026-04-11T07:15:00.991Z</time></trkpt><trkpt lat="43.9121783" lon="12.3941817"><ele>465.0</ele><time>2026-04-11T07:15:01.991Z</time></trkpt><trkpt lat="43.912105" lon="12.394095"><ele>465.0</ele><time>2026-04-11T07:15:02.991Z</time></trkpt><trkpt lat="43.9120367" lon="12.394025"><ele>465.0</ele><time>2026-04-11T07:15:03.991Z</time></trkpt><trkpt lat="43.9119583" lon="12.3939633"><ele>465.0</ele><time>2026-04-11T07:15:04.991Z</time></trkpt><trkpt lat="43.9118783" lon="12.3939117"><ele>465.0</ele><time>2026-04-11T07:15:05.992Z</time></trkpt><trkpt lat="43.9117967" lon="12.393865"><ele>465.0</ele><time>2026-04-11T07:15:06.991Z</time></trkpt><trkpt lat="43.9117183" lon="12.3938233"><ele>465.0</ele><time>2026-04-11T07:15:07.991Z</time></trkpt><trkpt lat="43.91164" lon="12.3938117"><ele>465.0</ele><time>2026-04-11T07:15:08.992Z</time></trkpt><trkpt lat="43.911575" lon="12.393795"><ele>465.0</ele><time>2026-04-11T07:15:09.991Z</time></trkpt><trkpt lat="43.911515" lon="12.3937417"><ele>465.0</ele><time>2026-04-11T07:15:10.991Z</time></trkpt><trkpt lat="43.9114533" lon="12.39361"><ele>464.2</ele><time>2026-04-11T07:15:12.991Z</time></trkpt><trkpt lat="43.9114533" lon="12.3934333"><ele>463.4</ele><time>2026-04-11T07:15:14.991Z</time></trkpt><trkpt lat="43.9114433" lon="12.3933117"><ele>462.6</ele><time>2026-04-11T07:15:15.991Z</time></trkpt><trkpt lat="43.911435" lon="12.3931733"><ele>461.8</ele><time>2026-04-11T07:15:16.991Z</time></trkpt><trkpt lat="43.91143" lon="12.3930217"><ele>461.0</ele><time>2026-04-11T07:15:17.991Z</time></trkpt><trkpt lat="43.91142" lon="12.3928783"><ele>459.20000000000005</ele><time>2026-04-11T07:15:18.991Z</time></trkpt><trkpt lat="43.9113967" lon="12.392735"><ele>457.40000000000003</ele><time>2026-04-11T07:15:19.991Z</time></trkpt><trkpt lat="43.9113717" lon="12.39261"><ele>455.6</ele><time>2026-04-11T07:15:20.991Z</time></trkpt><trkpt lat="43.9113367" lon="12.3925"><ele>453.8</ele><time>2026-04-11T07:15:21.991Z</time></trkpt><trkpt lat="43.9112933" lon="12.3923917"><ele>452.0</ele><time>2026-04-11T07:15:22.991Z</time></trkpt><trkpt lat="43.9112333" lon="12.3922917"><ele>452.0</ele><time>2026-04-11T07:15:23.991Z</time></trkpt><trkpt lat="43.9111683" lon="12.3922083"><ele>452.00000000000006</ele><time>2026-04-11T07:15:24.991Z</time></trkpt><trkpt lat="43.9110883" lon="12.3921267"><ele>452.00000000000006</ele><time>2026-04-11T07:15:25.991Z</time></trkpt><trkpt lat="43.910995" lon="12.392045"><ele>452.0</ele><time>2026-04-11T07:15:26.991Z</time></trkpt><trkpt lat="43.9108983" lon="12.3919983"><ele>452.0</ele><time>2026-04-11T07:15:27.991Z</time></trkpt><trkpt lat="43.910795" lon="12.3919567"><ele>450.0</ele><time>2026-04-11T07:15:28.991Z</time></trkpt><trkpt lat="43.9106883" lon="12.3919183"><ele>448.00000000000006</ele><time>2026-04-11T07:15:29.991Z</time></trkpt><trkpt lat="43.9105933" lon="12.3918933"><ele>446.00000000000006</ele><time>2026-04-11T07:15:30.991Z</time></trkpt><trkpt lat="43.9105" lon="12.391885"><ele>444.0</ele><time>2026-04-11T07:15:31.991Z</time></trkpt><trkpt lat="43.9104183" lon="12.3918833"><ele>442.0</ele><time>2026-04-11T07:15:32.991Z</time></trkpt><trkpt lat="43.9103467" lon="12.3918867"><ele>442.00000000000006</ele><time>2026-04-11T07:15:33.992Z</time></trkpt><trkpt lat="43.9102817" lon="12.3919017"><ele>442.0</ele><time>2026-04-11T07:15:34.992Z</time></trkpt><trkpt lat="43.9102167" lon="12.391925"><ele>442.0</ele><time>2026-04-11T07:15:35.991Z</time></trkpt><trkpt lat="43.910155" lon="12.3919533"><ele>442.0</ele><time>2026-04-11T07:15:36.991Z</time></trkpt><trkpt lat="43.9100883" lon="12.391975"><ele>442.0</ele><time>2026-04-11T07:15:37.991Z</time></trkpt><trkpt lat="43.9100183" lon="12.3919883"><ele>442.00000000000006</ele><time>2026-04-11T07:15:38.991Z</time></trkpt><trkpt lat="43.909955" lon="12.3919767"><ele>442.0</ele><time>2026-04-11T07:15:39.991Z</time></trkpt><trkpt lat="43.9098933" lon="12.3919417"><ele>440.0</ele><time>2026-04-11T07:15:40.992Z</time></trkpt><trkpt lat="43.90983" lon="12.3919117"><ele>438.00000000000006</ele><time>2026-04-11T07:15:41.991Z</time></trkpt><trkpt lat="43.9097717" lon="12.391875"><ele>436.00000000000006</ele><time>2026-04-11T07:15:42.991Z</time></trkpt><trkpt lat="43.9096567" lon="12.391825"><ele>434.0</ele><time>2026-04-11T07:15:44.991Z</time></trkpt><trkpt lat="43.909535" lon="12.391775"><ele>432.0</ele><time>2026-04-11T07:15:46.991Z</time></trkpt><trkpt lat="43.90942" lon="12.391755"><ele>432.0</ele><time>2026-04-11T07:15:48.991Z</time></trkpt><trkpt lat="43.90933" lon="12.391835"><ele>432.00000000000006</ele><time>2026-04-11T07:15:50.991Z</time></trkpt><trkpt lat="43.9092867" lon="12.3919683"><ele>432.00000000000006</ele><time>2026-04-11T07:15:52.992Z</time></trkpt><trkpt lat="43.90925" lon="12.39205"><ele>432.0</ele><time>2026-04-11T07:15:53.991Z</time></trkpt><trkpt lat="43.9091833" lon="12.3921983"><ele>432.0</ele><time>2026-04-11T07:15:55.991Z</time></trkpt><trkpt lat="43.9091367" lon="12.39227"><ele>429.0</ele><time>2026-04-11T07:15:56.991Z</time></trkpt><trkpt lat="43.9090783" lon="12.39232"><ele>426.00000000000006</ele><time>2026-04-11T07:15:57.991Z</time></trkpt><trkpt lat="43.9089783" lon="12.39238"><ele>423.0</ele><time>2026-04-11T07:15:59.992Z</time></trkpt><trkpt lat="43.9088783" lon="12.3923783"><ele>420.0</ele><time>2026-04-11T07:16:01.991Z</time></trkpt><trkpt lat="43.9087683" lon="12.3923617"><ele>417.0</ele><time>2026-04-11T07:16:03.991Z</time></trkpt><trkpt lat="43.9086667" lon="12.3923817"><ele>417.0</ele><time>2026-04-11T07:16:05.991Z</time></trkpt><trkpt lat="43.9085917" lon="12.3924283"><ele>417.0</ele><time>2026-04-11T07:16:07.991Z</time></trkpt><trkpt lat="43.908525" lon="12.39245"><ele>417.0</ele><time>2026-04-11T07:16:09.991Z</time></trkpt><trkpt lat="43.9084483" lon="12.3924683"><ele>417.0</ele><time>2026-04-11T07:16:11.991Z</time></trkpt><trkpt lat="43.9083767" lon="12.392485"><ele>417.0</ele><time>2026-04-11T07:16:13.992Z</time></trkpt><trkpt lat="43.9082967" lon="12.3925067"><ele>417.0</ele><time>2026-04-11T07:16:15.991Z</time></trkpt><trkpt lat="43.90823" lon="12.3925317"><ele>415.0</ele><time>2026-04-11T07:16:17.991Z</time></trkpt><trkpt lat="43.9081633" lon="12.3924833"><ele>413.0</ele><time>2026-04-11T07:16:19.992Z</time></trkpt><trkpt lat="43.908155" lon="12.3923267"><ele>411.0</ele><time>2026-04-11T07:16:26.991Z</time></trkpt><trkpt lat="43.90817" lon="12.3922217"><ele>409.0</ele><time>2026-04-11T07:16:27.991Z</time></trkpt><trkpt lat="43.9081883" lon="12.3920967"><ele>407.0</ele><time>2026-04-11T07:16:28.992Z</time></trkpt><trkpt lat="43.9082017" lon="12.391985"><ele>405.0</ele><time>2026-04-11T07:16:29.991Z</time></trkpt><trkpt lat="43.9082117" lon="12.3918967"><ele>403.6666666666667</ele><time>2026-04-11T07:16:30.991Z</time></trkpt><trkpt lat="43.9082283" lon="12.3917433"><ele>402.33333333333337</ele><time>2026-04-11T07:16:32.992Z</time></trkpt><trkpt lat="43.90823" lon="12.3916483"><ele>401.0</ele><time>2026-04-11T07:16:33.991Z</time></trkpt><trkpt lat="43.90823" lon="12.391535"><ele>399.6666666666667</ele><time>2026-04-11T07:16:34.991Z</time></trkpt><trkpt lat="43.9082333" lon="12.3914133"><ele>398.33333333333337</ele><time>2026-04-11T07:16:35.991Z</time></trkpt><trkpt lat="43.9082433" lon="12.3912833"><ele>397.0</ele><time>2026-04-11T07:16:36.991Z</time></trkpt><trkpt lat="43.9082617" lon="12.39116"><ele>395.8</ele><time>2026-04-11T07:16:37.991Z</time></trkpt><trkpt lat="43.9082783" lon="12.3910133"><ele>394.6</ele><time>2026-04-11T07:16:38.991Z</time></trkpt><trkpt lat="43.9082983" lon="12.390865"><ele>393.40000000000003</ele><time>2026-04-11T07:16:39.991Z</time></trkpt><trkpt lat="43.908315" lon="12.3907183"><ele>392.20000000000005</ele><time>2026-04-11T07:16:40.991Z</time></trkpt><trkpt lat="43.9083367" lon="12.3905733"><ele>391.0</ele><time>2026-04-11T07:16:41.991Z</time></trkpt><trkpt lat="43.908355" lon="12.39044"><ele>389.83333333333337</ele><time>2026-04-11T07:16:42.991Z</time></trkpt><trkpt lat="43.9083733" lon="12.39032"><ele>388.6666666666667</ele><time>2026-04-11T07:16:43.991Z</time></trkpt><trkpt lat="43.9083983" lon="12.3902133"><ele>387.5</ele><time>2026-04-11T07:16:44.991Z</time></trkpt><trkpt lat="43.9084167" lon="12.39011"><ele>386.33333333333337</ele><time>2026-04-11T07:16:45.991Z</time></trkpt><trkpt lat="43.9084133" lon="12.3899667"><ele>385.1666666666667</ele><time>2026-04-11T07:16:47.991Z</time></trkpt><trkpt lat="43.9084117" lon="12.3898767"><ele>384.0</ele><time>2026-04-11T07:16:49.991Z</time></trkpt><trkpt lat="43.908455" lon="12.3897967"><ele>384.4</ele><time>2026-04-11T07:16:51.991Z</time></trkpt><trkpt lat="43.9084967" lon="12.38972"><ele>384.79999999999995</ele><time>2026-04-11T07:16:52.991Z</time></trkpt><trkpt lat="43.9085467" lon="12.3896233"><ele>385.20000000000005</ele><time>2026-04-11T07:16:53.991Z</time></trkpt><trkpt lat="43.908605" lon="12.3895133"><ele>385.6</ele><time>2026-04-11T07:16:54.992Z</time></trkpt><trkpt lat="43.90868" lon="12.389405"><ele>386.0</ele><time>2026-04-11T07:16:55.991Z</time></trkpt><trkpt lat="43.9087733" lon="12.3893117"><ele>386.0</ele><time>2026-04-11T07:16:56.992Z</time></trkpt><trkpt lat="43.9088667" lon="12.3892217"><ele>386.0</ele><time>2026-04-11T07:16:57.992Z</time></trkpt><trkpt lat="43.908975" lon="12.389125"><ele>386.0</ele><time>2026-04-11T07:16:58.992Z</time></trkpt><trkpt lat="43.9090983" lon="12.389035"><ele>386.0</ele><time>2026-04-11T07:16:59.992Z</time></trkpt><trkpt lat="43.9092167" lon="12.388945"><ele>383.5</ele><time>2026-04-11T07:17:00.991Z</time></trkpt><trkpt lat="43.9093333" lon="12.3888483"><ele>381.0</ele><time>2026-04-11T07:17:01.991Z</time></trkpt><trkpt lat="43.9094433" lon="12.38875"><ele>378.5</ele><time>2026-04-11T07:17:02.991Z</time></trkpt><trkpt lat="43.9095517" lon="12.38866"><ele>376.0</ele><time>2026-04-11T07:17:03.991Z</time></trkpt><trkpt lat="43.9096567" lon="12.3885683"><ele>376.0</ele><time>2026-04-11T07:17:04.992Z</time></trkpt><trkpt lat="43.9097567" lon="12.3884767"><ele>376.0</ele><time>2026-04-11T07:17:05.991Z</time></trkpt><trkpt lat="43.9098817" lon="12.38838"><ele>376.0</ele><time>2026-04-11T07:17:06.991Z</time></trkpt><trkpt lat="43.9100067" lon="12.3883"><ele>376.0</ele><time>2026-04-11T07:17:07.992Z</time></trkpt><trkpt lat="43.9101267" lon="12.3882267"><ele>378.0</ele><time>2026-04-11T07:17:08.991Z</time></trkpt><trkpt lat="43.9102483" lon="12.3881817"><ele>380.0</ele><time>2026-04-11T07:17:09.992Z</time></trkpt><trkpt lat="43.910375" lon="12.3881583"><ele>382.0</ele><time>2026-04-11T07:17:10.991Z</time></trkpt><trkpt lat="43.9105" lon="12.3881483"><ele>384.0</ele><time>2026-04-11T07:17:11.991Z</time></trkpt><trkpt lat="43.9106217" lon="12.3881417"><ele>384.0</ele><time>2026-04-11T07:17:12.991Z</time></trkpt><trkpt lat="43.91073" lon="12.3881167"><ele>384.0</ele><time>2026-04-11T07:17:13.991Z</time></trkpt><trkpt lat="43.9108233" lon="12.38806"><ele>384.0</ele><time>2026-04-11T07:17:14.992Z</time></trkpt><trkpt lat="43.9108983" lon="12.3879833"><ele>384.0</ele><time>2026-04-11T07:17:15.991Z</time></trkpt><trkpt lat="43.9109667" lon="12.3878717"><ele>384.0</ele><time>2026-04-11T07:17:16.991Z</time></trkpt><trkpt lat="43.9110367" lon="12.3877333"><ele>380.0</ele><time>2026-04-11T07:17:17.991Z</time></trkpt><trkpt lat="43.9111033" lon="12.3876033"><ele>376.0</ele><time>2026-04-11T07:17:18.991Z</time></trkpt><trkpt lat="43.9111817" lon="12.3874733"><ele>372.0</ele><time>2026-04-11T07:17:19.991Z</time></trkpt><trkpt lat="43.91127" lon="12.3873533"><ele>368.0</ele><time>2026-04-11T07:17:20.991Z</time></trkpt><trkpt lat="43.911365" lon="12.38726"><ele>363.0</ele><time>2026-04-11T07:17:21.992Z</time></trkpt><trkpt lat="43.9114667" lon="12.3871683"><ele>358.0</ele><time>2026-04-11T07:17:22.991Z</time></trkpt><trkpt lat="43.9115683" lon="12.38709"><ele>353.0</ele><time>2026-04-11T07:17:23.992Z</time></trkpt><trkpt lat="43.91167" lon="12.3870083"><ele>348.0</ele><time>2026-04-11T07:17:24.992Z</time></trkpt><trkpt lat="43.91177" lon="12.38695"><ele>347.59999999999997</ele><time>2026-04-11T07:17:25.991Z</time></trkpt><trkpt lat="43.91187" lon="12.3869217"><ele>347.2</ele><time>2026-04-11T07:17:26.991Z</time></trkpt><trkpt lat="43.91198" lon="12.38692"><ele>346.8</ele><time>2026-04-11T07:17:27.991Z</time></trkpt><trkpt lat="43.9120833" lon="12.3869433"><ele>346.4</ele><time>2026-04-11T07:17:28.991Z</time></trkpt><trkpt lat="43.9121783" lon="12.3869533"><ele>346.0</ele><time>2026-04-11T07:17:29.991Z</time></trkpt><trkpt lat="43.91227" lon="12.38696"><ele>346.0</ele><time>2026-04-11T07:17:30.991Z</time></trkpt><trkpt lat="43.91236" lon="12.3869683"><ele>346.0</ele><time>2026-04-11T07:17:31.991Z</time></trkpt><trkpt lat="43.91245" lon="12.38697"><ele>346.0</ele><time>2026-04-11T07:17:32.991Z</time></trkpt><trkpt lat="43.9125333" lon="12.38696"><ele>346.0</ele><time>2026-04-11T07:17:33.992Z</time></trkpt><trkpt lat="43.9126083" lon="12.3869633"><ele>346.0</ele><time>2026-04-11T07:17:34.991Z</time></trkpt><trkpt lat="43.91268" lon="12.3869833"><ele>346.0</ele><time>2026-04-11T07:17:35.991Z</time></trkpt><trkpt lat="43.912755" lon="12.3870183"><ele>344.0</ele><time>2026-04-11T07:17:36.991Z</time></trkpt><trkpt lat="43.9128367" lon="12.38705"><ele>342.0</ele><time>2026-04-11T07:17:37.992Z</time></trkpt><trkpt lat="43.9129167" lon="12.3870733"><ele>340.0</ele><time>2026-04-11T07:17:38.991Z</time></trkpt><trkpt lat="43.9130067" lon="12.3870733"><ele>338.0</ele><time>2026-04-11T07:17:39.991Z</time></trkpt><trkpt lat="43.9130967" lon="12.38705"><ele>336.0</ele><time>2026-04-11T07:17:40.991Z</time></trkpt><trkpt lat="43.9131933" lon="12.3870217"><ele>334.0</ele><time>2026-04-11T07:17:41.991Z</time></trkpt><trkpt lat="43.913285" lon="12.387"><ele>334.0</ele><time>2026-04-11T07:17:42.991Z</time></trkpt><trkpt lat="43.9133767" lon="12.3869767"><ele>334.0</ele><time>2026-04-11T07:17:43.991Z</time></trkpt><trkpt lat="43.9134683" lon="12.3869633"><ele>334.0</ele><time>2026-04-11T07:17:44.991Z</time></trkpt><trkpt lat="43.9135583" lon="12.3869533"><ele>334.0</ele><time>2026-04-11T07:17:45.991Z</time></trkpt><trkpt lat="43.913655" lon="12.3869483"><ele>334.0</ele><time>2026-04-11T07:17:46.991Z</time></trkpt><trkpt lat="43.9137517" lon="12.38692"><ele>333.3333333333333</ele><time>2026-04-11T07:17:47.991Z</time></trkpt><trkpt lat="43.91384" lon="12.3868967"><ele>332.66666666666663</ele><time>2026-04-11T07:17:48.991Z</time></trkpt><trkpt lat="43.9139267" lon="12.3868683"><ele>332.0</ele><time>2026-04-11T07:17:49.991Z</time></trkpt><trkpt lat="43.9140117" lon="12.3868417"><ele>331.3333333333333</ele><time>2026-04-11T07:17:50.991Z</time></trkpt><trkpt lat="43.9140933" lon="12.38679"><ele>330.6666666666667</ele><time>2026-04-11T07:17:51.991Z</time></trkpt><trkpt lat="43.914165" lon="12.3867217"><ele>330.0</ele><time>2026-04-11T07:17:52.991Z</time></trkpt><trkpt lat="43.9142433" lon="12.386655"><ele>329.1666666666667</ele><time>2026-04-11T07:17:53.992Z</time></trkpt><trkpt lat="43.9143167" lon="12.3865833"><ele>328.3333333333333</ele><time>2026-04-11T07:17:54.991Z</time></trkpt><trkpt lat="43.91439" lon="12.38651"><ele>327.5</ele><time>2026-04-11T07:17:55.991Z</time></trkpt><trkpt lat="43.9144517" lon="12.3864317"><ele>326.66666666666663</ele><time>2026-04-11T07:17:56.991Z</time></trkpt><trkpt lat="43.9145133" lon="12.3863483"><ele>325.8333333333333</ele><time>2026-04-11T07:17:57.991Z</time></trkpt><trkpt lat="43.9145617" lon="12.3862567"><ele>325.0</ele><time>2026-04-11T07:17:58.991Z</time></trkpt><trkpt lat="43.91461" lon="12.3861667"><ele>324.0</ele><time>2026-04-11T07:17:59.991Z</time></trkpt><trkpt lat="43.9146583" lon="12.3860717"><ele>323.0</ele><time>2026-04-11T07:18:00.991Z</time></trkpt><trkpt lat="43.9147" lon="12.3859767"><ele>322.0</ele><time>2026-04-11T07:18:01.991Z</time></trkpt><trkpt lat="43.9147417" lon="12.3858683"><ele>321.0</ele><time>2026-04-11T07:18:02.991Z</time></trkpt><trkpt lat="43.9147883" lon="12.3857583"><ele>320.0</ele><time>2026-04-11T07:18:03.991Z</time></trkpt><trkpt lat="43.914845" lon="12.3856533"><ele>319.0</ele><time>2026-04-11T07:18:04.991Z</time></trkpt><trkpt lat="43.9148967" lon="12.38555"><ele>317.8</ele><time>2026-04-11T07:18:05.991Z</time></trkpt><trkpt lat="43.9149533" lon="12.385455"><ele>316.59999999999997</ele><time>2026-04-11T07:18:06.991Z</time></trkpt><trkpt lat="43.9150133" lon="12.3853683"><ele>315.4</ele><time>2026-04-11T07:18:07.991Z</time></trkpt><trkpt lat="43.9150683" lon="12.3852733"><ele>314.2</ele><time>2026-04-11T07:18:08.992Z</time></trkpt><trkpt lat="43.9151333" lon="12.3851633"><ele>313.0</ele><time>2026-04-11T07:18:09.991Z</time></trkpt><trkpt lat="43.9152067" lon="12.3850433"><ele>313.0</ele><time>2026-04-11T07:18:10.992Z</time></trkpt><trkpt lat="43.9152767" lon="12.3849167"><ele>313.0</ele><time>2026-04-11T07:18:11.991Z</time></trkpt><trkpt lat="43.9153333" lon="12.3847867"><ele>313.0</ele><time>2026-04-11T07:18:12.991Z</time></trkpt><trkpt lat="43.9153717" lon="12.3846367"><ele>313.0</ele><time>2026-04-11T07:18:13.991Z</time></trkpt><trkpt lat="43.9154067" lon="12.3845033"><ele>313.0</ele><time>2026-04-11T07:18:14.991Z</time></trkpt><trkpt lat="43.91544" lon="12.3843817"><ele>310.8</ele><time>2026-04-11T07:18:15.992Z</time></trkpt><trkpt lat="43.9154633" lon="12.3842533"><ele>308.6</ele><time>2026-04-11T07:18:16.992Z</time></trkpt><trkpt lat="43.91549" lon="12.38413"><ele>306.4</ele><time>2026-04-11T07:18:17.992Z</time></trkpt><trkpt lat="43.915525" lon="12.3840133"><ele>304.2</ele><time>2026-04-11T07:18:18.992Z</time></trkpt><trkpt lat="43.9155717" lon="12.383915"><ele>302.0</ele><time>2026-04-11T07:18:19.991Z</time></trkpt><trkpt lat="43.91564" lon="12.3838367"><ele>297.0</ele><time>2026-04-11T07:18:20.991Z</time></trkpt><trkpt lat="43.91573" lon="12.383775"><ele>292.0</ele><time>2026-04-11T07:18:21.991Z</time></trkpt><trkpt lat="43.9158433" lon="12.38374"><ele>287.0</ele><time>2026-04-11T07:18:22.991Z</time></trkpt><trkpt lat="43.915955" lon="12.3837083"><ele>282.0</ele><time>2026-04-11T07:18:23.991Z</time></trkpt><trkpt lat="43.9160667" lon="12.383675"><ele>277.0</ele><time>2026-04-11T07:18:24.991Z</time></trkpt><trkpt lat="43.9161733" lon="12.3836533"><ele>278.2</ele><time>2026-04-11T07:18:25.991Z</time></trkpt><trkpt lat="43.9162833" lon="12.3836617"><ele>279.4</ele><time>2026-04-11T07:18:26.991Z</time></trkpt><trkpt lat="43.9163883" lon="12.3836967"><ele>280.6</ele><time>2026-04-11T07:18:27.991Z</time></trkpt><trkpt lat="43.9164883" lon="12.3837467"><ele>281.8</ele><time>2026-04-11T07:18:28.991Z</time></trkpt><trkpt lat="43.9165867" lon="12.3838"><ele>283.0</ele><time>2026-04-11T07:18:29.992Z</time></trkpt><trkpt lat="43.9166833" lon="12.3838733"><ele>279.6</ele><time>2026-04-11T07:18:30.991Z</time></trkpt><trkpt lat="43.916775" lon="12.3839333"><ele>276.20000000000005</ele><time>2026-04-11T07:18:31.991Z</time></trkpt><trkpt lat="43.9168517" lon="12.3839833"><ele>272.8</ele><time>2026-04-11T07:18:32.991Z</time></trkpt><trkpt lat="43.9169283" lon="12.3840233"><ele>269.40000000000003</ele><time>2026-04-11T07:18:33.991Z</time></trkpt><trkpt lat="43.917025" lon="12.3840367"><ele>266.0</ele><time>2026-04-11T07:18:34.991Z</time></trkpt><trkpt lat="43.91713" lon="12.384035"><ele>266.0</ele><time>2026-04-11T07:18:35.992Z</time></trkpt><trkpt lat="43.9172417" lon="12.3840283"><ele>266.0</ele><time>2026-04-11T07:18:36.991Z</time></trkpt><trkpt lat="43.91736" lon="12.384"><ele>266.0</ele><time>2026-04-11T07:18:37.991Z</time></trkpt><trkpt lat="43.9174833" lon="12.38396"><ele>266.0</ele><time>2026-04-11T07:18:38.991Z</time></trkpt><trkpt lat="43.9176033" lon="12.383915"><ele>265.0</ele><time>2026-04-11T07:18:39.991Z</time></trkpt><trkpt lat="43.9177133" lon="12.3838683"><ele>264.0</ele><time>2026-04-11T07:18:40.992Z</time></trkpt><trkpt lat="43.9178183" lon="12.38383"><ele>263.0</ele><time>2026-04-11T07:18:41.991Z</time></trkpt><trkpt lat="43.917915" lon="12.38379"><ele>262.0</ele><time>2026-04-11T07:18:42.992Z</time></trkpt><trkpt lat="43.9180117" lon="12.3837533"><ele>261.0</ele><time>2026-04-11T07:18:43.991Z</time></trkpt><trkpt lat="43.9180917" lon="12.38373"><ele>260.0</ele><time>2026-04-11T07:18:44.991Z</time></trkpt><trkpt lat="43.9181683" lon="12.3837067"><ele>259.0</ele><time>2026-04-11T07:18:45.991Z</time></trkpt><trkpt lat="43.9182483" lon="12.3836783"><ele>258.0</ele><time>2026-04-11T07:18:46.992Z</time></trkpt><trkpt lat="43.91833" lon="12.383645"><ele>257.0</ele><time>2026-04-11T07:18:47.991Z</time></trkpt><trkpt lat="43.9184217" lon="12.3836083"><ele>256.0</ele><time>2026-04-11T07:18:48.991Z</time></trkpt><trkpt lat="43.9185183" lon="12.38355"><ele>255.0</ele><time>2026-04-11T07:18:49.991Z</time></trkpt><trkpt lat="43.91863" lon="12.3834917"><ele>255.0</ele><time>2026-04-11T07:18:50.992Z</time></trkpt><trkpt lat="43.9187483" lon="12.3834533"><ele>255.0</ele><time>2026-04-11T07:18:51.991Z</time></trkpt><trkpt lat="43.918865" lon="12.3834133"><ele>255.0</ele><time>2026-04-11T07:18:52.991Z</time></trkpt><trkpt lat="43.918965" lon="12.3833667"><ele>255.0</ele><time>2026-04-11T07:18:53.991Z</time></trkpt><trkpt lat="43.9190367" lon="12.383335"><ele>255.0</ele><time>2026-04-11T07:18:54.991Z</time></trkpt><trkpt lat="43.9190983" lon="12.383305"><ele>255.0</ele><time>2026-04-11T07:18:55.991Z</time></trkpt><trkpt lat="43.9191767" lon="12.38319"><ele>255.0</ele><time>2026-04-11T07:18:57.991Z</time></trkpt><trkpt lat="43.9192017" lon="12.3831067"><ele>255.0</ele><time>2026-04-11T07:18:58.991Z</time></trkpt><trkpt lat="43.9192417" lon="12.383015"><ele>255.0</ele><time>2026-04-11T07:18:59.991Z</time></trkpt><trkpt lat="43.9193083" lon="12.3829217"><ele>255.0</ele><time>2026-04-11T07:19:00.991Z</time></trkpt><trkpt lat="43.9194117" lon="12.3828667"><ele>252.6</ele><time>2026-04-11T07:19:01.991Z</time></trkpt><trkpt lat="43.9195183" lon="12.3828417"><ele>250.2</ele><time>2026-04-11T07:19:02.992Z</time></trkpt><trkpt lat="43.919615" lon="12.382845"><ele>247.8</ele><time>2026-04-11T07:19:03.992Z</time></trkpt><trkpt lat="43.91971" lon="12.3828417"><ele>245.4</ele><time>2026-04-11T07:19:04.991Z</time></trkpt><trkpt lat="43.9198067" lon="12.3828083"><ele>243.0</ele><time>2026-04-11T07:19:05.991Z</time></trkpt><trkpt lat="43.91989" lon="12.382755"><ele>243.0</ele><time>2026-04-11T07:19:06.991Z</time></trkpt><trkpt lat="43.91996" lon="12.3827017"><ele>243.0</ele><time>2026-04-11T07:19:07.991Z</time></trkpt><trkpt lat="43.9200433" lon="12.3826217"><ele>243.0</ele><time>2026-04-11T07:19:09.991Z</time></trkpt><trkpt lat="43.9201" lon="12.38253"><ele>243.0</ele><time>2026-04-11T07:19:11.991Z</time></trkpt><trkpt lat="43.9201017" lon="12.3823933"><ele>243.0</ele><time>2026-04-11T07:19:13.991Z</time></trkpt><trkpt lat="43.9200267" lon="12.382265"><ele>243.0</ele><time>2026-04-11T07:19:15.991Z</time></trkpt><trkpt lat="43.9199667" lon="12.3822183"><ele>243.0</ele><time>2026-04-11T07:19:16.991Z</time></trkpt><trkpt lat="43.919895" lon="12.3821783"><ele>243.0</ele><time>2026-04-11T07:19:17.991Z</time></trkpt><trkpt lat="43.9198067" lon="12.3821433"><ele>243.0</ele><time>2026-04-11T07:19:18.991Z</time></trkpt><trkpt lat="43.919715" lon="12.3821167"><ele>243.0</ele><time>2026-04-11T07:19:19.991Z</time></trkpt><trkpt lat="43.9196283" lon="12.3820717"><ele>243.0</ele><time>2026-04-11T07:19:20.991Z</time></trkpt><trkpt lat="43.919555" lon="12.3820117"><ele>240.83333333333334</ele><time>2026-04-11T07:19:21.991Z</time></trkpt><trkpt lat="43.919485" lon="12.3819483"><ele>238.66666666666669</ele><time>2026-04-11T07:19:22.991Z</time></trkpt><trkpt lat="43.91942" lon="12.38188"><ele>236.5</ele><time>2026-04-11T07:19:23.991Z</time></trkpt><trkpt lat="43.91937" lon="12.3818117"><ele>234.33333333333334</ele><time>2026-04-11T07:19:24.991Z</time></trkpt><trkpt lat="43.91933" lon="12.3816633"><ele>232.16666666666669</ele><time>2026-04-11T07:19:26.991Z</time></trkpt><trkpt lat="43.9193417" lon="12.3815567"><ele>230.0</ele><time>2026-04-11T07:19:27.991Z</time></trkpt><trkpt lat="43.9193483" lon="12.3814433"><ele>229.33333333333334</ele><time>2026-04-11T07:19:28.991Z</time></trkpt><trkpt lat="43.91936" lon="12.38132"><ele>228.66666666666669</ele><time>2026-04-11T07:19:29.991Z</time></trkpt><trkpt lat="43.9193717" lon="12.3812"><ele>228.0</ele><time>2026-04-11T07:19:30.991Z</time></trkpt><trkpt lat="43.9193783" lon="12.38108"><ele>227.33333333333331</ele><time>2026-04-11T07:19:31.992Z</time></trkpt><trkpt lat="43.919385" lon="12.3809533"><ele>226.66666666666666</ele><time>2026-04-11T07:19:32.992Z</time></trkpt><trkpt lat="43.9193917" lon="12.3808267"><ele>226.0</ele><time>2026-04-11T07:19:33.991Z</time></trkpt><trkpt lat="43.9193967" lon="12.3806983"><ele>226.0</ele><time>2026-04-11T07:19:34.991Z</time></trkpt><trkpt lat="43.9193983" lon="12.38057"><ele>226.00000000000003</ele><time>2026-04-11T07:19:35.991Z</time></trkpt><trkpt lat="43.9193967" lon="12.380435"><ele>226.00000000000003</ele><time>2026-04-11T07:19:36.991Z</time></trkpt><trkpt lat="43.9194" lon="12.3803"><ele>226.0</ele><time>2026-04-11T07:19:37.991Z</time></trkpt><trkpt lat="43.9194033" lon="12.3801667"><ele>226.0</ele><time>2026-04-11T07:19:38.992Z</time></trkpt><trkpt lat="43.919405" lon="12.3800433"><ele>226.83333333333331</ele><time>2026-04-11T07:19:39.991Z</time></trkpt><trkpt lat="43.9194133" lon="12.379925"><ele>227.66666666666666</ele><time>2026-04-11T07:19:40.991Z</time></trkpt><trkpt lat="43.9194233" lon="12.3798267"><ele>228.5</ele><time>2026-04-11T07:19:41.991Z</time></trkpt><trkpt lat="43.91944" lon="12.37974"><ele>229.33333333333331</ele><time>2026-04-11T07:19:42.991Z</time></trkpt><trkpt lat="43.91952" lon="12.3795967"><ele>230.16666666666666</ele><time>2026-04-11T07:19:44.992Z</time></trkpt><trkpt lat="43.9195833" lon="12.3795233"><ele>231.0</ele><time>2026-04-11T07:19:45.991Z</time></trkpt><trkpt lat="43.91965" lon="12.3794367"><ele>232.60000000000002</ele><time>2026-04-11T07:19:46.991Z</time></trkpt><trkpt lat="43.9197233" lon="12.3793483"><ele>234.20000000000002</ele><time>2026-04-11T07:19:47.991Z</time></trkpt><trkpt lat="43.919795" lon="12.3792467"><ele>235.79999999999998</ele><time>2026-04-11T07:19:48.991Z</time></trkpt><trkpt lat="43.9198667" lon="12.3791467"><ele>237.39999999999998</ele><time>2026-04-11T07:19:49.991Z</time></trkpt><trkpt lat="43.9199283" lon="12.3790533"><ele>239.0</ele><time>2026-04-11T07:19:50.991Z</time></trkpt><trkpt lat="43.9199783" lon="12.378965"><ele>239.00000000000003</ele><time>2026-04-11T07:19:51.992Z</time></trkpt><trkpt lat="43.9200183" lon="12.3788867"><ele>239.0</ele><time>2026-04-11T07:19:52.992Z</time></trkpt><trkpt lat="43.9200767" lon="12.378785"><ele>239.0</ele><time>2026-04-11T07:19:54.991Z</time></trkpt><trkpt lat="43.9201117" lon="12.3787033"><ele>239.0</ele><time>2026-04-11T07:19:58.991Z</time></trkpt><trkpt lat="43.9200033" lon="12.3786967"><ele>239.00000000000003</ele><time>2026-04-11T07:20:02.991Z</time></trkpt><trkpt lat="43.9199433" lon="12.378735"><ele>239.0</ele><time>2026-04-11T07:20:03.992Z</time></trkpt><trkpt lat="43.9198733" lon="12.3787967"><ele>239.0</ele><time>2026-04-11T07:20:04.991Z</time></trkpt><trkpt lat="43.919785" lon="12.37888"><ele>239.0</ele><time>2026-04-11T07:20:05.992Z</time></trkpt><trkpt lat="43.91968" lon="12.37898"><ele>239.0</ele><time>2026-04-11T07:20:06.991Z</time></trkpt><trkpt lat="43.919575" lon="12.3790717"><ele>239.0</ele><time>2026-04-11T07:20:07.992Z</time></trkpt><trkpt lat="43.9194667" lon="12.3791717"><ele>239.0</ele><time>2026-04-11T07:20:08.991Z</time></trkpt><trkpt lat="43.9193583" lon="12.3792667"><ele>239.0</ele><time>2026-04-11T07:20:09.991Z</time></trkpt><trkpt lat="43.9192233" lon="12.3793367"><ele>239.0</ele><time>2026-04-11T07:20:10.992Z</time></trkpt><trkpt lat="43.9190867" lon="12.37936"><ele>239.0</ele><time>2026-04-11T07:20:11.992Z</time></trkpt><trkpt lat="43.9189483" lon="12.3793483"><ele>240.75</ele><time>2026-04-11T07:20:12.991Z</time></trkpt><trkpt lat="43.9188217" lon="12.3793117"><ele>242.5</ele><time>2026-04-11T07:20:13.991Z</time></trkpt><trkpt lat="43.9187" lon="12.37925"><ele>244.25</ele><time>2026-04-11T07:20:14.991Z</time></trkpt><trkpt lat="43.9185817" lon="12.37916"><ele>246.0</ele><time>2026-04-11T07:20:15.991Z</time></trkpt><trkpt lat="43.9184667" lon="12.3790683"><ele>245.60000000000002</ele><time>2026-04-11T07:20:16.991Z</time></trkpt><trkpt lat="43.9183683" lon="12.37898"><ele>245.20000000000002</ele><time>2026-04-11T07:20:17.991Z</time></trkpt><trkpt lat="43.9182817" lon="12.3789"><ele>244.79999999999998</ele><time>2026-04-11T07:20:18.991Z</time></trkpt><trkpt lat="43.9182067" lon="12.3788117"><ele>244.39999999999998</ele><time>2026-04-11T07:20:19.991Z</time></trkpt><trkpt lat="43.9181417" lon="12.37874"><ele>244.0</ele><time>2026-04-11T07:20:20.991Z</time></trkpt><trkpt lat="43.9180817" lon="12.3786933"><ele>245.39999999999998</ele><time>2026-04-11T07:20:21.991Z</time></trkpt><trkpt lat="43.91802" lon="12.37859"><ele>246.79999999999998</ele><time>2026-04-11T07:20:23.991Z</time></trkpt><trkpt lat="43.9180383" lon="12.3784717"><ele>248.20000000000002</ele><time>2026-04-11T07:20:25.991Z</time></trkpt><trkpt lat="43.918135" lon="12.3783783"><ele>249.60000000000002</ele><time>2026-04-11T07:20:27.992Z</time></trkpt><trkpt lat="43.9182267" lon="12.3783517"><ele>251.0</ele><time>2026-04-11T07:20:29.991Z</time></trkpt><trkpt lat="43.918305" lon="12.3783817"><ele>253.20000000000002</ele><time>2026-04-11T07:20:31.992Z</time></trkpt><trkpt lat="43.9184367" lon="12.3784217"><ele>255.40000000000003</ele><time>2026-04-11T07:20:33.991Z</time></trkpt><trkpt lat="43.9185233" lon="12.37845"><ele>257.6</ele><time>2026-04-11T07:20:34.992Z</time></trkpt><trkpt lat="43.918615" lon="12.3784783"><ele>259.8</ele><time>2026-04-11T07:20:35.991Z</time></trkpt><trkpt lat="43.91871" lon="12.3785017"><ele>262.0</ele><time>2026-04-11T07:20:36.991Z</time></trkpt><trkpt lat="43.9188083" lon="12.3785217"><ele>262.0</ele><time>2026-04-11T07:20:37.991Z</time></trkpt><trkpt lat="43.919" lon="12.378565"><ele>262.0</ele><time>2026-04-11T07:20:39.991Z</time></trkpt><trkpt lat="43.919085" lon="12.3785683"><ele>262.0</ele><time>2026-04-11T07:20:40.991Z</time></trkpt><trkpt lat="43.9191483" lon="12.3785583"><ele>262.0</ele><time>2026-04-11T07:20:41.991Z</time></trkpt><trkpt lat="43.9192217" lon="12.3784267"><ele>262.2</ele><time>2026-04-11T07:20:43.991Z</time></trkpt><trkpt lat="43.9192667" lon="12.3782717"><ele>262.4</ele><time>2026-04-11T07:20:45.991Z</time></trkpt><trkpt lat="43.919285" lon="12.378165"><ele>262.6</ele><time>2026-04-11T07:20:46.991Z</time></trkpt><trkpt lat="43.91929" lon="12.3780483"><ele>262.8</ele><time>2026-04-11T07:20:47.991Z</time></trkpt><trkpt lat="43.9193" lon="12.3779467"><ele>263.0</ele><time>2026-04-11T07:20:48.991Z</time></trkpt><trkpt lat="43.91938" lon="12.377785"><ele>263.0</ele><time>2026-04-11T07:20:50.991Z</time></trkpt><trkpt lat="43.919435" lon="12.3777233"><ele>263.0</ele><time>2026-04-11T07:20:51.991Z</time></trkpt><trkpt lat="43.9195" lon="12.3776667"><ele>263.0</ele><time>2026-04-11T07:20:52.991Z</time></trkpt><trkpt lat="43.91957" lon="12.3775967"><ele>263.0</ele><time>2026-04-11T07:20:53.991Z</time></trkpt><trkpt lat="43.91969" lon="12.377415"><ele>263.0</ele><time>2026-04-11T07:20:55.991Z</time></trkpt><trkpt lat="43.9197417" lon="12.3773"><ele>263.0</ele><time>2026-04-11T07:20:56.991Z</time></trkpt><trkpt lat="43.919805" lon="12.3772"><ele>263.0</ele><time>2026-04-11T07:20:57.991Z</time></trkpt><trkpt lat="43.9198717" lon="12.3770833"><ele>263.0</ele><time>2026-04-11T07:20:58.992Z</time></trkpt><trkpt lat="43.9199217" lon="12.3769583"><ele>263.0</ele><time>2026-04-11T07:20:59.991Z</time></trkpt><trkpt lat="43.9199617" lon="12.3768283"><ele>263.0</ele><time>2026-04-11T07:21:00.992Z</time></trkpt><trkpt lat="43.91998" lon="12.37668"><ele>265.5</ele><time>2026-04-11T07:21:01.992Z</time></trkpt><trkpt lat="43.9199883" lon="12.376525"><ele>268.0</ele><time>2026-04-11T07:21:02.991Z</time></trkpt><trkpt lat="43.9199683" lon="12.37636"><ele>270.5</ele><time>2026-04-11T07:21:03.991Z</time></trkpt><trkpt lat="43.9199367" lon="12.3762083"><ele>273.0</ele><time>2026-04-11T07:21:04.991Z</time></trkpt><trkpt lat="43.9199" lon="12.37607"><ele>275.2</ele><time>2026-04-11T07:21:05.991Z</time></trkpt><trkpt lat="43.9198717" lon="12.3759283"><ele>277.4</ele><time>2026-04-11T07:21:06.992Z</time></trkpt><trkpt lat="43.9198667" lon="12.3757833"><ele>279.59999999999997</ele><time>2026-04-11T07:21:07.991Z</time></trkpt><trkpt lat="43.9198733" lon="12.3756383"><ele>281.8</ele><time>2026-04-11T07:21:08.991Z</time></trkpt><trkpt lat="43.9198917" lon="12.3754867"><ele>284.0</ele><time>2026-04-11T07:21:09.991Z</time></trkpt><trkpt lat="43.9199133" lon="12.3753467"><ele>286.0</ele><time>2026-04-11T07:21:10.991Z</time></trkpt><trkpt lat="43.9199483" lon="12.3752233"><ele>288.0</ele><time>2026-04-11T07:21:11.991Z</time></trkpt><trkpt lat="43.9199983" lon="12.3751183"><ele>290.0</ele><time>2026-04-11T07:21:12.991Z</time></trkpt><trkpt lat="43.9200483" lon="12.374995"><ele>292.0</ele><time>2026-04-11T07:21:13.991Z</time></trkpt><trkpt lat="43.92011" lon="12.3748617"><ele>294.0</ele><time>2026-04-11T07:21:14.991Z</time></trkpt><trkpt lat="43.9201717" lon="12.3747183"><ele>296.5</ele><time>2026-04-11T07:21:15.991Z</time></trkpt><trkpt lat="43.92023" lon="12.374575"><ele>299.0</ele><time>2026-04-11T07:21:16.991Z</time></trkpt><trkpt lat="43.9202733" lon="12.3744183"><ele>301.5</ele><time>2026-04-11T07:21:17.992Z</time></trkpt><trkpt lat="43.9203083" lon="12.374265"><ele>304.0</ele><time>2026-04-11T07:21:18.991Z</time></trkpt><trkpt lat="43.9203367" lon="12.3741317"><ele>304.0</ele><time>2026-04-11T07:21:19.991Z</time></trkpt><trkpt lat="43.92036" lon="12.373995"><ele>304.0</ele><time>2026-04-11T07:21:20.991Z</time></trkpt><trkpt lat="43.9203783" lon="12.3738617"><ele>304.0</ele><time>2026-04-11T07:21:21.991Z</time></trkpt><trkpt lat="43.9203717" lon="12.3737433"><ele>304.0</ele><time>2026-04-11T07:21:22.991Z</time></trkpt><trkpt lat="43.9203333" lon="12.3736333"><ele>304.0</ele><time>2026-04-11T07:21:23.991Z</time></trkpt><trkpt lat="43.9203" lon="12.3735183"><ele>306.0</ele><time>2026-04-11T07:21:24.991Z</time></trkpt><trkpt lat="43.9202817" lon="12.3733867"><ele>308.0</ele><time>2026-04-11T07:21:25.991Z</time></trkpt><trkpt lat="43.920275" lon="12.3732417"><ele>310.0</ele><time>2026-04-11T07:21:26.991Z</time></trkpt><trkpt lat="43.9202767" lon="12.3730933"><ele>312.0</ele><time>2026-04-11T07:21:27.991Z</time></trkpt><trkpt lat="43.9202867" lon="12.3729517"><ele>314.0</ele><time>2026-04-11T07:21:28.991Z</time></trkpt><trkpt lat="43.9203183" lon="12.3727483"><ele>315.6</ele><time>2026-04-11T07:21:30.991Z</time></trkpt><trkpt lat="43.920365" lon="12.3726483"><ele>317.2</ele><time>2026-04-11T07:21:32.991Z</time></trkpt><trkpt lat="43.920495" lon="12.37261"><ele>318.8</ele><time>2026-04-11T07:21:34.992Z</time></trkpt><trkpt lat="43.920595" lon="12.372595"><ele>320.40000000000003</ele><time>2026-04-11T07:21:35.992Z</time></trkpt><trkpt lat="43.9207167" lon="12.372575"><ele>322.0</ele><time>2026-04-11T07:21:36.991Z</time></trkpt><trkpt lat="43.9208483" lon="12.3725417"><ele>321.25</ele><time>2026-04-11T07:21:37.991Z</time></trkpt><trkpt lat="43.9209733" lon="12.3725017"><ele>320.5</ele><time>2026-04-11T07:21:38.991Z</time></trkpt><trkpt lat="43.921095" lon="12.3724683"><ele>319.75</ele><time>2026-04-11T07:21:39.992Z</time></trkpt><trkpt lat="43.9211983" lon="12.3724283"><ele>319.0</ele><time>2026-04-11T07:21:40.991Z</time></trkpt><trkpt lat="43.921295" lon="12.3724083"><ele>319.0</ele><time>2026-04-11T07:21:41.991Z</time></trkpt><trkpt lat="43.9213933" lon="12.3723917"><ele>319.0</ele><time>2026-04-11T07:21:42.991Z</time></trkpt><trkpt lat="43.9214817" lon="12.37239"><ele>319.0</ele><time>2026-04-11T07:21:43.992Z</time></trkpt><trkpt lat="43.9215733" lon="12.372375"><ele>319.0</ele><time>2026-04-11T07:21:44.991Z</time></trkpt><trkpt lat="43.9216583" lon="12.372375"><ele>319.0</ele><time>2026-04-11T07:21:45.991Z</time></trkpt><trkpt lat="43.9217433" lon="12.3723633"><ele>319.8333333333333</ele><time>2026-04-11T07:21:46.991Z</time></trkpt><trkpt lat="43.9218133" lon="12.37235"><ele>320.66666666666663</ele><time>2026-04-11T07:21:47.991Z</time></trkpt><trkpt lat="43.9218717" lon="12.372285"><ele>321.5</ele><time>2026-04-11T07:21:49.991Z</time></trkpt><trkpt lat="43.921895" lon="12.3721333"><ele>322.3333333333333</ele><time>2026-04-11T07:21:51.991Z</time></trkpt><trkpt lat="43.9219017" lon="12.3720317"><ele>323.1666666666667</ele><time>2026-04-11T07:21:52.991Z</time></trkpt><trkpt lat="43.9219033" lon="12.37192"><ele>324.0</ele><time>2026-04-11T07:21:53.992Z</time></trkpt><trkpt lat="43.9219083" lon="12.3717933"><ele>324.0</ele><time>2026-04-11T07:21:54.991Z</time></trkpt><trkpt lat="43.92192" lon="12.3716833"><ele>324.0</ele><time>2026-04-11T07:21:55.991Z</time></trkpt><trkpt lat="43.9219367" lon="12.3715583"><ele>324.0</ele><time>2026-04-11T07:21:56.991Z</time></trkpt><trkpt lat="43.9219467" lon="12.3714417"><ele>324.0</ele><time>2026-04-11T07:21:57.991Z</time></trkpt><trkpt lat="43.921955" lon="12.3713167"><ele>324.0</ele><time>2026-04-11T07:21:58.991Z</time></trkpt><trkpt lat="43.9219667" lon="12.3711933"><ele>324.0</ele><time>2026-04-11T07:21:59.991Z</time></trkpt><trkpt lat="43.9219767" lon="12.37108"><ele>326.1666666666667</ele><time>2026-04-11T07:22:00.991Z</time></trkpt><trkpt lat="43.92199" lon="12.370965"><ele>328.3333333333333</ele><time>2026-04-11T07:22:01.992Z</time></trkpt><trkpt lat="43.9220017" lon="12.3708433"><ele>330.5</ele><time>2026-04-11T07:22:02.992Z</time></trkpt><trkpt lat="43.9220167" lon="12.3707233"><ele>332.66666666666663</ele><time>2026-04-11T07:22:03.991Z</time></trkpt><trkpt lat="43.9220267" lon="12.3705933"><ele>334.8333333333333</ele><time>2026-04-11T07:22:04.991Z</time></trkpt><trkpt lat="43.922035" lon="12.3704683"><ele>337.0</ele><time>2026-04-11T07:22:05.991Z</time></trkpt><trkpt lat="43.9220333" lon="12.3703417"><ele>339.3333333333333</ele><time>2026-04-11T07:22:06.991Z</time></trkpt><trkpt lat="43.92204" lon="12.3702283"><ele>341.66666666666663</ele><time>2026-04-11T07:22:07.991Z</time></trkpt><trkpt lat="43.9220333" lon="12.3701233"><ele>344.0</ele><time>2026-04-11T07:22:08.991Z</time></trkpt><trkpt lat="43.9220283" lon="12.3700217"><ele>346.3333333333333</ele><time>2026-04-11T07:22:09.991Z</time></trkpt><trkpt lat="43.9220167" lon="12.3699233"><ele>348.6666666666667</ele><time>2026-04-11T07:22:10.991Z</time></trkpt><trkpt lat="43.9219967" lon="12.3698383"><ele>351.0</ele><time>2026-04-11T07:22:11.991Z</time></trkpt><trkpt lat="43.921925" lon="12.3696967"><ele>353.3333333333333</ele><time>2026-04-11T07:22:13.991Z</time></trkpt><trkpt lat="43.9218833" lon="12.369615"><ele>355.6666666666667</ele><time>2026-04-11T07:22:14.991Z</time></trkpt><trkpt lat="43.9218417" lon="12.3695317"><ele>358.0</ele><time>2026-04-11T07:22:15.991Z</time></trkpt><trkpt lat="43.9218017" lon="12.3694567"><ele>360.33333333333337</ele><time>2026-04-11T07:22:16.991Z</time></trkpt><trkpt lat="43.921755" lon="12.3693867"><ele>362.6666666666667</ele><time>2026-04-11T07:22:17.991Z</time></trkpt><trkpt lat="43.9217033" lon="12.369325"><ele>365.0</ele><time>2026-04-11T07:22:18.991Z</time></trkpt><trkpt lat="43.9216067" lon="12.3692567"><ele>366.4</ele><time>2026-04-11T07:22:20.991Z</time></trkpt><trkpt lat="43.9215217" lon="12.3691717"><ele>367.8</ele><time>2026-04-11T07:22:22.991Z</time></trkpt><trkpt lat="43.9214483" lon="12.3690167"><ele>369.20000000000005</ele><time>2026-04-11T07:22:24.992Z</time></trkpt><trkpt lat="43.92141" lon="12.3689283"><ele>370.6</ele><time>2026-04-11T07:22:25.992Z</time></trkpt><trkpt lat="43.9213767" lon="12.368835"><ele>372.0</ele><time>2026-04-11T07:22:26.991Z</time></trkpt><trkpt lat="43.921335" lon="12.3687433"><ele>373.5714285714286</ele><time>2026-04-11T07:22:27.992Z</time></trkpt><trkpt lat="43.9212867" lon="12.3686583"><ele>375.14285714285717</ele><time>2026-04-11T07:22:28.992Z</time></trkpt><trkpt lat="43.9212383" lon="12.3685733"><ele>376.7142857142857</ele><time>2026-04-11T07:22:29.991Z</time></trkpt><trkpt lat="43.921205" lon="12.3684883"><ele>378.28571428571433</ele><time>2026-04-11T07:22:30.991Z</time></trkpt><trkpt lat="43.921165" lon="12.3684083"><ele>379.85714285714283</ele><time>2026-04-11T07:22:31.991Z</time></trkpt><trkpt lat="43.9211267" lon="12.36833"><ele>381.42857142857144</ele><time>2026-04-11T07:22:32.991Z</time></trkpt><trkpt lat="43.921095" lon="12.36825"><ele>383.0</ele><time>2026-04-11T07:22:33.991Z</time></trkpt><trkpt lat="43.9210417" lon="12.3680933"><ele>385.33333333333337</ele><time>2026-04-11T07:22:35.991Z</time></trkpt><trkpt lat="43.9210117" lon="12.3680083"><ele>387.6666666666667</ele><time>2026-04-11T07:22:36.991Z</time></trkpt><trkpt lat="43.9209917" lon="12.367925"><ele>390.0</ele><time>2026-04-11T07:22:37.992Z</time></trkpt><trkpt lat="43.9209817" lon="12.3678333"><ele>392.33333333333337</ele><time>2026-04-11T07:22:38.992Z</time></trkpt><trkpt lat="43.9210067" lon="12.3676883"><ele>394.6666666666667</ele><time>2026-04-11T07:22:40.992Z</time></trkpt><trkpt lat="43.9210583" lon="12.367635"><ele>397.0</ele><time>2026-04-11T07:22:41.991Z</time></trkpt><trkpt lat="43.9211733" lon="12.36758"><ele>397.00000000000006</ele><time>2026-04-11T07:22:43.992Z</time></trkpt><trkpt lat="43.9212383" lon="12.3675717"><ele>397.0</ele><time>2026-04-11T07:22:44.991Z</time></trkpt><trkpt lat="43.921315" lon="12.3675617"><ele>397.0</ele><time>2026-04-11T07:22:45.992Z</time></trkpt><trkpt lat="43.9214067" lon="12.367555"><ele>397.0</ele><time>2026-04-11T07:22:46.991Z</time></trkpt><trkpt lat="43.9215017" lon="12.367535"><ele>397.00000000000006</ele><time>2026-04-11T07:22:47.991Z</time></trkpt><trkpt lat="43.9216" lon="12.3675"><ele>397.0</ele><time>2026-04-11T07:22:48.991Z</time></trkpt><trkpt lat="43.9216967" lon="12.3674867"><ele>395.85714285714283</ele><time>2026-04-11T07:22:49.991Z</time></trkpt><trkpt lat="43.921775" lon="12.3674767"><ele>394.71428571428567</ele><time>2026-04-11T07:22:50.992Z</time></trkpt><trkpt lat="43.9218417" lon="12.3674483"><ele>393.57142857142856</ele><time>2026-04-11T07:22:51.991Z</time></trkpt><trkpt lat="43.9218983" lon="12.367405"><ele>392.42857142857144</ele><time>2026-04-11T07:22:52.991Z</time></trkpt><trkpt lat="43.9219567" lon="12.3673417"><ele>391.2857142857143</ele><time>2026-04-11T07:22:53.991Z</time></trkpt><trkpt lat="43.9220167" lon="12.36728"><ele>390.14285714285717</ele><time>2026-04-11T07:22:54.992Z</time></trkpt><trkpt lat="43.9220733" lon="12.3672033"><ele>389.0</ele><time>2026-04-11T07:22:55.991Z</time></trkpt><trkpt lat="43.92212" lon="12.3671317"><ele>389.0</ele><time>2026-04-11T07:22:56.992Z</time></trkpt><trkpt lat="43.9221533" lon="12.3670183"><ele>389.0</ele><time>2026-04-11T07:22:58.991Z</time></trkpt><trkpt lat="43.9221167" lon="12.3669233"><ele>389.0</ele><time>2026-04-11T07:23:00.991Z</time></trkpt><trkpt lat="43.9220333" lon="12.3667967"><ele>389.0</ele><time>2026-04-11T07:23:02.991Z</time></trkpt><trkpt lat="43.92196" lon="12.3667117"><ele>389.0</ele><time>2026-04-11T07:23:03.992Z</time></trkpt><trkpt lat="43.9218983" lon="12.3666083"><ele>389.0</ele><time>2026-04-11T07:23:04.991Z</time></trkpt><trkpt lat="43.9218133" lon="12.3664983"><ele>389.0</ele><time>2026-04-11T07:23:05.991Z</time></trkpt><trkpt lat="43.9217333" lon="12.3663917"><ele>389.0</ele><time>2026-04-11T07:23:06.991Z</time></trkpt><trkpt lat="43.9216617" lon="12.3663083"><ele>389.0</ele><time>2026-04-11T07:23:07.991Z</time></trkpt><trkpt lat="43.9215967" lon="12.3662367"><ele>389.0</ele><time>2026-04-11T07:23:08.991Z</time></trkpt><trkpt lat="43.921545" lon="12.3661783"><ele>391.7142857142857</ele><time>2026-04-11T07:23:09.991Z</time></trkpt><trkpt lat="43.9214983" lon="12.3661133"><ele>394.4285714285714</ele><time>2026-04-11T07:23:10.992Z</time></trkpt><trkpt lat="43.92145" lon="12.3660467"><ele>397.1428571428571</ele><time>2026-04-11T07:23:11.991Z</time></trkpt><trkpt lat="43.9214" lon="12.3659733"><ele>399.8571428571429</ele><time>2026-04-11T07:23:12.991Z</time></trkpt><trkpt lat="43.9213433" lon="12.36589"><ele>402.57142857142856</ele><time>2026-04-11T07:23:13.991Z</time></trkpt><trkpt lat="43.9212817" lon="12.3658267"><ele>405.2857142857143</ele><time>2026-04-11T07:23:14.992Z</time></trkpt><trkpt lat="43.9212217" lon="12.36577"><ele>408.0</ele><time>2026-04-11T07:23:15.991Z</time></trkpt><trkpt lat="43.9211533" lon="12.3657217"><ele>408.0</ele><time>2026-04-11T07:23:16.991Z</time></trkpt><trkpt lat="43.9210683" lon="12.36568"><ele>408.0</ele><time>2026-04-11T07:23:17.991Z</time></trkpt><trkpt lat="43.9209933" lon="12.3656383"><ele>408.0</ele><time>2026-04-11T07:23:18.991Z</time></trkpt><trkpt lat="43.9209333" lon="12.3655917"><ele>408.0</ele><time>2026-04-11T07:23:19.991Z</time></trkpt><trkpt lat="43.920875" lon="12.3655383"><ele>408.0</ele><time>2026-04-11T07:23:20.991Z</time></trkpt><trkpt lat="43.9208183" lon="12.3654667"><ele>408.0</ele><time>2026-04-11T07:23:21.991Z</time></trkpt><trkpt lat="43.9207767" lon="12.3653867"><ele>411.6666666666667</ele><time>2026-04-11T07:23:22.992Z</time></trkpt><trkpt lat="43.920735" lon="12.3653033"><ele>415.33333333333337</ele><time>2026-04-11T07:23:23.991Z</time></trkpt><trkpt lat="43.92069" lon="12.3651383"><ele>419.0</ele><time>2026-04-11T07:23:25.991Z</time></trkpt><trkpt lat="43.920665" lon="12.3650483"><ele>422.6666666666667</ele><time>2026-04-11T07:23:26.991Z</time></trkpt><trkpt lat="43.920635" lon="12.3649567"><ele>426.33333333333337</ele><time>2026-04-11T07:23:27.991Z</time></trkpt><trkpt lat="43.9206033" lon="12.3648617"><ele>430.0</ele><time>2026-04-11T07:23:28.991Z</time></trkpt><trkpt lat="43.92059" lon="12.3646917"><ele>433.0</ele><time>2026-04-11T07:23:30.992Z</time></trkpt><trkpt lat="43.9206" lon="12.36455"><ele>436.0</ele><time>2026-04-11T07:23:32.992Z</time></trkpt><trkpt lat="43.920525" lon="12.3645"><ele>439.0</ele><time>2026-04-11T07:23:35.991Z</time></trkpt><trkpt lat="43.9204283" lon="12.3645167"><ele>442.0</ele><time>2026-04-11T07:23:37.991Z</time></trkpt><trkpt lat="43.9202917" lon="12.3645467"><ele>445.0</ele><time>2026-04-11T07:23:39.991Z</time></trkpt><trkpt lat="43.9202117" lon="12.3645633"><ele>445.00000000000006</ele><time>2026-04-11T07:23:40.991Z</time></trkpt><trkpt lat="43.920135" lon="12.3645817"><ele>445.0</ele><time>2026-04-11T07:23:41.991Z</time></trkpt><trkpt lat="43.9200567" lon="12.3646067"><ele>445.0</ele><time>2026-04-11T07:23:42.991Z</time></trkpt><trkpt lat="43.9199833" lon="12.36464"><ele>445.0</ele><time>2026-04-11T07:23:43.991Z</time></trkpt><trkpt lat="43.9199067" lon="12.3646867"><ele>445.00000000000006</ele><time>2026-04-11T07:23:44.991Z</time></trkpt><trkpt lat="43.9198267" lon="12.3647367"><ele>445.0</ele><time>2026-04-11T07:23:45.992Z</time></trkpt><trkpt lat="43.9197467" lon="12.3647683"><ele>445.83333333333337</ele><time>2026-04-11T07:23:46.991Z</time></trkpt><trkpt lat="43.91967" lon="12.3648"><ele>446.6666666666667</ele><time>2026-04-11T07:23:47.991Z</time></trkpt><trkpt lat="43.9195883" lon="12.364815"><ele>447.5</ele><time>2026-04-11T07:23:48.992Z</time></trkpt><trkpt lat="43.9195183" lon="12.3648133"><ele>448.33333333333337</ele><time>2026-04-11T07:23:49.991Z</time></trkpt><trkpt lat="43.9193967" lon="12.3647817"><ele>449.1666666666667</ele><time>2026-04-11T07:23:51.991Z</time></trkpt><trkpt lat="43.919315" lon="12.3647667"><ele>450.0</ele><time>2026-04-11T07:23:52.991Z</time></trkpt><trkpt lat="43.91922" lon="12.3647533"><ele>452.2</ele><time>2026-04-11T07:23:53.991Z</time></trkpt><trkpt lat="43.9191083" lon="12.3647483"><ele>454.4</ele><time>2026-04-11T07:23:54.991Z</time></trkpt><trkpt lat="43.91901" lon="12.3647317"><ele>456.6</ele><time>2026-04-11T07:23:55.992Z</time></trkpt><trkpt lat="43.91891" lon="12.36474"><ele>458.8</ele><time>2026-04-11T07:23:56.991Z</time></trkpt><trkpt lat="43.91882" lon="12.364745"><ele>461.0</ele><time>2026-04-11T07:23:57.991Z</time></trkpt><trkpt lat="43.91875" lon="12.3647317"><ele>460.99999999999994</ele><time>2026-04-11T07:23:58.992Z</time></trkpt><trkpt lat="43.9186883" lon="12.36471"><ele>461.0</ele><time>2026-04-11T07:23:59.992Z</time></trkpt><trkpt lat="43.9186017" lon="12.3646"><ele>461.0</ele><time>2026-04-11T07:24:01.991Z</time></trkpt><trkpt lat="43.9185617" lon="12.3645167"><ele>461.0</ele><time>2026-04-11T07:24:02.991Z</time></trkpt><trkpt lat="43.9185183" lon="12.3644017"><ele>460.99999999999994</ele><time>2026-04-11T07:24:03.991Z</time></trkpt><trkpt lat="43.91846" lon="12.3642967"><ele>461.0</ele><time>2026-04-11T07:24:04.991Z</time></trkpt><trkpt lat="43.9184033" lon="12.3641783"><ele>464.20000000000005</ele><time>2026-04-11T07:24:05.992Z</time></trkpt><trkpt lat="43.918335" lon="12.3640683"><ele>467.40000000000003</ele><time>2026-04-11T07:24:06.991Z</time></trkpt><trkpt lat="43.9182683" lon="12.3639817"><ele>470.6</ele><time>2026-04-11T07:24:07.991Z</time></trkpt><trkpt lat="43.9181833" lon="12.3639183"><ele>473.8</ele><time>2026-04-11T07:24:08.991Z</time></trkpt><trkpt lat="43.9181067" lon="12.3638717"><ele>477.0</ele><time>2026-04-11T07:24:09.991Z</time></trkpt><trkpt lat="43.91803" lon="12.3638517"><ele>477.0</ele><time>2026-04-11T07:24:10.991Z</time></trkpt><trkpt lat="43.9179283" lon="12.3638583"><ele>477.0</ele><time>2026-04-11T07:24:11.991Z</time></trkpt><trkpt lat="43.917835" lon="12.36387"><ele>477.0</ele><time>2026-04-11T07:24:12.992Z</time></trkpt><trkpt lat="43.9177533" lon="12.36388"><ele>477.0</ele><time>2026-04-11T07:24:13.991Z</time></trkpt><trkpt lat="43.917675" lon="12.3638783"><ele>477.0</ele><time>2026-04-11T07:24:14.991Z</time></trkpt><trkpt lat="43.9176067" lon="12.36387"><ele>477.0</ele><time>2026-04-11T07:24:15.991Z</time></trkpt><trkpt lat="43.91753" lon="12.3638617"><ele>481.6666666666667</ele><time>2026-04-11T07:24:16.992Z</time></trkpt><trkpt lat="43.9174583" lon="12.3638417"><ele>486.33333333333337</ele><time>2026-04-11T07:24:17.991Z</time></trkpt><trkpt lat="43.9173867" lon="12.3638283"><ele>491.0</ele><time>2026-04-11T07:24:18.991Z</time></trkpt><trkpt lat="43.91732" lon="12.36381"><ele>495.6666666666667</ele><time>2026-04-11T07:24:19.991Z</time></trkpt><trkpt lat="43.917205" lon="12.363775"><ele>500.33333333333337</ele><time>2026-04-11T07:24:21.991Z</time></trkpt><trkpt lat="43.9171083" lon="12.3637467"><ele>505.0</ele><time>2026-04-11T07:24:23.991Z</time></trkpt><trkpt lat="43.916995" lon="12.3637383"><ele>505.0</ele><time>2026-04-11T07:24:25.991Z</time></trkpt><trkpt lat="43.9168867" lon="12.363705"><ele>505.0</ele><time>2026-04-11T07:24:27.992Z</time></trkpt><trkpt lat="43.91677" lon="12.3636767"><ele>505.0</ele><time>2026-04-11T07:24:29.991Z</time></trkpt><trkpt lat="43.9167033" lon="12.363655"><ele>505.0</ele><time>2026-04-11T07:24:30.991Z</time></trkpt><trkpt lat="43.9166333" lon="12.3636317"><ele>505.0</ele><time>2026-04-11T07:24:31.99Z</time></trkpt><trkpt lat="43.9165117" lon="12.36361"><ele>503.85714285714283</ele><time>2026-04-11T07:24:33.991Z</time></trkpt><trkpt lat="43.91644" lon="12.363605"><ele>502.71428571428567</ele><time>2026-04-11T07:24:34.991Z</time></trkpt><trkpt lat="43.9163717" lon="12.3635817"><ele>501.57142857142856</ele><time>2026-04-11T07:24:35.99Z</time></trkpt><trkpt lat="43.916295" lon="12.363565"><ele>500.42857142857144</ele><time>2026-04-11T07:24:36.991Z</time></trkpt><trkpt lat="43.916225" lon="12.36354"><ele>499.2857142857143</ele><time>2026-04-11T07:24:37.99Z</time></trkpt><trkpt lat="43.9161517" lon="12.36353"><ele>498.1428571428571</ele><time>2026-04-11T07:24:38.99Z</time></trkpt><trkpt lat="43.9160817" lon="12.3635333"><ele>497.0</ele><time>2026-04-11T07:24:39.99Z</time></trkpt><trkpt lat="43.9160133" lon="12.36354"><ele>497.0</ele><time>2026-04-11T07:24:40.99Z</time></trkpt><trkpt lat="43.9159383" lon="12.3635517"><ele>497.0</ele><time>2026-04-11T07:24:41.99Z</time></trkpt><trkpt lat="43.9158633" lon="12.3635683"><ele>497.0</ele><time>2026-04-11T07:24:42.991Z</time></trkpt><trkpt lat="43.915795" lon="12.3635783"><ele>497.0</ele><time>2026-04-11T07:24:43.99Z</time></trkpt><trkpt lat="43.9157233" lon="12.363585"><ele>497.0</ele><time>2026-04-11T07:24:44.99Z</time></trkpt><trkpt lat="43.9156517" lon="12.3635667"><ele>497.0</ele><time>2026-04-11T07:24:45.99Z</time></trkpt><trkpt lat="43.9155733" lon="12.3635233"><ele>497.0</ele><time>2026-04-11T07:24:46.99Z</time></trkpt><trkpt lat="43.9154867" lon="12.36348"><ele>492.0</ele><time>2026-04-11T07:24:47.99Z</time></trkpt><trkpt lat="43.9153967" lon="12.3634233"><ele>487.00000000000006</ele><time>2026-04-11T07:24:48.99Z</time></trkpt><trkpt lat="43.91531" lon="12.3633633"><ele>482.00000000000006</ele><time>2026-04-11T07:24:49.991Z</time></trkpt><trkpt lat="43.91522" lon="12.363335"><ele>477.0</ele><time>2026-04-11T07:24:50.99Z</time></trkpt><trkpt lat="43.9151333" lon="12.3633117"><ele>472.0</ele><time>2026-04-11T07:24:51.99Z</time></trkpt><trkpt lat="43.9150467" lon="12.3633133"><ele>468.00000000000006</ele><time>2026-04-11T07:24:52.99Z</time></trkpt><trkpt lat="43.91497" lon="12.3633133"><ele>464.0</ele><time>2026-04-11T07:24:53.99Z</time></trkpt><trkpt lat="43.9148983" lon="12.3633183"><ele>460.0</ele><time>2026-04-11T07:24:54.99Z</time></trkpt><trkpt lat="43.914835" lon="12.3633283"><ele>456.0</ele><time>2026-04-11T07:24:55.991Z</time></trkpt><trkpt lat="43.9147433" lon="12.36336"><ele>452.00000000000006</ele><time>2026-04-11T07:24:57.99Z</time></trkpt><trkpt lat="43.91468" lon="12.3633817"><ele>448.0</ele><time>2026-04-11T07:25:01.991Z</time></trkpt><trkpt lat="43.9145917" lon="12.3634"><ele>448.00000000000006</ele><time>2026-04-11T07:25:04.99Z</time></trkpt><trkpt lat="43.914485" lon="12.363415"><ele>448.0</ele><time>2026-04-11T07:25:06.99Z</time></trkpt><trkpt lat="43.9144133" lon="12.36341"><ele>448.0</ele><time>2026-04-11T07:25:07.99Z</time></trkpt><trkpt lat="43.914335" lon="12.3634"><ele>448.0</ele><time>2026-04-11T07:25:08.991Z</time></trkpt><trkpt lat="43.9142533" lon="12.3633767"><ele>448.00000000000006</ele><time>2026-04-11T07:25:09.99Z</time></trkpt><trkpt lat="43.9141583" lon="12.3633583"><ele>448.0</ele><time>2026-04-11T07:25:10.99Z</time></trkpt><trkpt lat="43.9140617" lon="12.3633383"><ele>447.50000000000006</ele><time>2026-04-11T07:25:11.99Z</time></trkpt><trkpt lat="43.913965" lon="12.363325"><ele>447.0</ele><time>2026-04-11T07:25:12.991Z</time></trkpt><trkpt lat="43.9138683" lon="12.3633083"><ele>446.5</ele><time>2026-04-11T07:25:13.99Z</time></trkpt><trkpt lat="43.91378" lon="12.3632683"><ele>446.0</ele><time>2026-04-11T07:25:14.991Z</time></trkpt><trkpt lat="43.91371" lon="12.36323"><ele>445.50000000000006</ele><time>2026-04-11T07:25:15.99Z</time></trkpt><trkpt lat="43.91364" lon="12.36319"><ele>445.0</ele><time>2026-04-11T07:25:16.99Z</time></trkpt><trkpt lat="43.9135767" lon="12.3631533"><ele>445.0</ele><time>2026-04-11T07:25:17.99Z</time></trkpt><trkpt lat="43.9134933" lon="12.36312"><ele>445.0</ele><time>2026-04-11T07:25:19.99Z</time></trkpt><trkpt lat="43.9134483" lon="12.36299"><ele>445.0</ele><time>2026-04-11T07:25:38.99Z</time></trkpt><trkpt lat="43.9134467" lon="12.3628167"><ele>445.0</ele><time>2026-04-11T07:25:40.99Z</time></trkpt><trkpt lat="43.9134783" lon="12.3626767"><ele>445.0</ele><time>2026-04-11T07:25:42.99Z</time></trkpt><trkpt lat="43.9135167" lon="12.362605"><ele>447.42857142857144</ele><time>2026-04-11T07:25:43.99Z</time></trkpt><trkpt lat="43.9135567" lon="12.3625267"><ele>449.85714285714283</ele><time>2026-04-11T07:25:44.991Z</time></trkpt><trkpt lat="43.913595" lon="12.362445"><ele>452.2857142857143</ele><time>2026-04-11T07:25:45.99Z</time></trkpt><trkpt lat="43.9136217" lon="12.36236"><ele>454.7142857142857</ele><time>2026-04-11T07:25:46.99Z</time></trkpt><trkpt lat="43.9136267" lon="12.3622717"><ele>457.1428571428571</ele><time>2026-04-11T07:25:47.99Z</time></trkpt><trkpt lat="43.9136167" lon="12.3621817"><ele>459.57142857142856</ele><time>2026-04-11T07:25:48.99Z</time></trkpt><trkpt lat="43.91359" lon="12.3620967"><ele>462.0</ele><time>2026-04-11T07:25:49.99Z</time></trkpt><trkpt lat="43.9135633" lon="12.3620033"><ele>461.0</ele><time>2026-04-11T07:25:50.99Z</time></trkpt><trkpt lat="43.9135267" lon="12.361905"><ele>460.0</ele><time>2026-04-11T07:25:51.99Z</time></trkpt><trkpt lat="43.9134867" lon="12.361805"><ele>459.0</ele><time>2026-04-11T07:25:52.991Z</time></trkpt><trkpt lat="43.9134467" lon="12.3617033"><ele>458.0</ele><time>2026-04-11T07:25:53.99Z</time></trkpt><trkpt lat="43.913405" lon="12.3616033"><ele>457.0</ele><time>2026-04-11T07:25:54.99Z</time></trkpt><trkpt lat="43.91337" lon="12.3615033"><ele>456.0</ele><time>2026-04-11T07:25:55.99Z</time></trkpt><trkpt lat="43.9133267" lon="12.3614"><ele>460.1666666666667</ele><time>2026-04-11T07:25:56.99Z</time></trkpt><trkpt lat="43.913285" lon="12.3613067"><ele>464.33333333333337</ele><time>2026-04-11T07:25:57.991Z</time></trkpt><trkpt lat="43.9132517" lon="12.3612083"><ele>468.5</ele><time>2026-04-11T07:25:58.99Z</time></trkpt><trkpt lat="43.91322" lon="12.3611033"><ele>472.6666666666667</ele><time>2026-04-11T07:25:59.99Z</time></trkpt><trkpt lat="43.913195" lon="12.3610083"><ele>476.83333333333337</ele><time>2026-04-11T07:26:00.99Z</time></trkpt><trkpt lat="43.9131683" lon="12.3609167"><ele>481.0</ele><time>2026-04-11T07:26:01.99Z</time></trkpt><trkpt lat="43.9131417" lon="12.360825"><ele>480.99999999999994</ele><time>2026-04-11T07:26:02.99Z</time></trkpt><trkpt lat="43.913115" lon="12.3607317"><ele>481.0</ele><time>2026-04-11T07:26:03.99Z</time></trkpt><trkpt lat="43.9130933" lon="12.36064"><ele>480.99999999999994</ele><time>2026-04-11T07:26:04.99Z</time></trkpt><trkpt lat="43.913075" lon="12.360545"><ele>480.99999999999994</ele><time>2026-04-11T07:26:05.991Z</time></trkpt><trkpt lat="43.9130533" lon="12.3604583"><ele>481.0</ele><time>2026-04-11T07:26:06.99Z</time></trkpt><trkpt lat="43.913025" lon="12.360375"><ele>480.99999999999994</ele><time>2026-04-11T07:26:07.99Z</time></trkpt><trkpt lat="43.9129883" lon="12.36029"><ele>480.99999999999994</ele><time>2026-04-11T07:26:08.99Z</time></trkpt><trkpt lat="43.9129383" lon="12.3602117"><ele>486.4</ele><time>2026-04-11T07:26:09.99Z</time></trkpt><trkpt lat="43.9128967" lon="12.3601367"><ele>491.8</ele><time>2026-04-11T07:26:10.99Z</time></trkpt><trkpt lat="43.9128633" lon="12.3600517"><ele>497.19999999999993</ele><time>2026-04-11T07:26:11.99Z</time></trkpt><trkpt lat="43.91281" lon="12.3599117"><ele>502.59999999999997</ele><time>2026-04-11T07:26:13.99Z</time></trkpt><trkpt lat="43.9127617" lon="12.3597833"><ele>508.0</ele><time>2026-04-11T07:26:15.991Z</time></trkpt><trkpt lat="43.9127217" lon="12.3596433"><ele>508.0</ele><time>2026-04-11T07:26:17.99Z</time></trkpt><trkpt lat="43.9126767" lon="12.3595017"><ele>507.99999999999994</ele><time>2026-04-11T07:26:19.991Z</time></trkpt><trkpt lat="43.9126183" lon="12.3593583"><ele>507.99999999999994</ele><time>2026-04-11T07:26:21.99Z</time></trkpt><trkpt lat="43.912575" lon="12.3592267"><ele>508.0</ele><time>2026-04-11T07:26:23.99Z</time></trkpt><trkpt lat="43.91256" lon="12.35908"><ele>508.0</ele><time>2026-04-11T07:26:25.991Z</time></trkpt><trkpt lat="43.91256" lon="12.3589667"><ele>508.00000000000006</ele><time>2026-04-11T07:26:27.99Z</time></trkpt><trkpt lat="43.9126017" lon="12.3588983"><ele>508.0</ele><time>2026-04-11T07:26:29.99Z</time></trkpt><trkpt lat="43.9126767" lon="12.358865"><ele>508.0</ele><time>2026-04-11T07:26:31.99Z</time></trkpt><trkpt lat="43.9127517" lon="12.3588817"><ele>508.0</ele><time>2026-04-11T07:26:33.99Z</time></trkpt><trkpt lat="43.9128367" lon="12.3588917"><ele>508.00000000000006</ele><time>2026-04-11T07:26:35.99Z</time></trkpt><trkpt lat="43.9129283" lon="12.35889"><ele>508.0</ele><time>2026-04-11T07:26:37.99Z</time></trkpt><trkpt lat="43.91303" lon="12.3588533"><ele>509.1666666666667</ele><time>2026-04-11T07:26:39.99Z</time></trkpt><trkpt lat="43.91309" lon="12.3588167"><ele>510.33333333333337</ele><time>2026-04-11T07:26:41.99Z</time></trkpt><trkpt lat="43.9131383" lon="12.3587183"><ele>511.5</ele><time>2026-04-11T07:29:15.99Z</time></trkpt><trkpt lat="43.9131467" lon="12.358615"><ele>512.6666666666666</ele><time>2026-04-11T07:29:17.991Z</time></trkpt><trkpt lat="43.9131333" lon="12.35851"><ele>513.8333333333333</ele><time>2026-04-11T07:29:19.99Z</time></trkpt><trkpt lat="43.9131233" lon="12.358395"><ele>515.0</ele><time>2026-04-11T07:29:21.991Z</time></trkpt><trkpt lat="43.9131067" lon="12.3582667"><ele>515.0</ele><time>2026-04-11T07:29:23.99Z</time></trkpt><trkpt lat="43.9131033" lon="12.3581333"><ele>515.0</ele><time>2026-04-11T07:29:25.99Z</time></trkpt><trkpt lat="43.9131383" lon="12.35804"><ele>515.0</ele><time>2026-04-11T07:29:28.99Z</time></trkpt><trkpt lat="43.9131067" lon="12.3579417"><ele>515.0</ele><time>2026-04-11T07:35:08.989Z</time></trkpt><trkpt lat="43.9130783" lon="12.3578317"><ele>515.0</ele><time>2026-04-11T07:35:10.988Z</time></trkpt><trkpt lat="43.9130517" lon="12.3577"><ele>515.0</ele><time>2026-04-11T07:35:12.988Z</time></trkpt><trkpt lat="43.9130133" lon="12.3575817"><ele>516.3333333333333</ele><time>2026-04-11T07:35:14.988Z</time></trkpt><trkpt lat="43.9129467" lon="12.3574817"><ele>517.6666666666666</ele><time>2026-04-11T07:35:16.988Z</time></trkpt><trkpt lat="43.9128733" lon="12.3574117"><ele>519.0</ele><time>2026-04-11T07:35:18.988Z</time></trkpt><trkpt lat="43.9128217" lon="12.357325"><ele>520.3333333333334</ele><time>2026-04-11T07:35:20.988Z</time></trkpt><trkpt lat="43.91278" lon="12.3572317"><ele>521.6666666666667</ele><time>2026-04-11T07:35:22.988Z</time></trkpt><trkpt lat="43.9127433" lon="12.35712"><ele>523.0</ele><time>2026-04-11T07:35:24.989Z</time></trkpt><trkpt lat="43.9127133" lon="12.3569783"><ele>523.0</ele><time>2026-04-11T07:35:26.988Z</time></trkpt><trkpt lat="43.9126833" lon="12.3568233"><ele>523.0</ele><time>2026-04-11T07:35:28.989Z</time></trkpt><trkpt lat="43.91266" lon="12.3567367"><ele>523.0</ele><time>2026-04-11T07:35:29.988Z</time></trkpt><trkpt lat="43.9126383" lon="12.3566517"><ele>523.0</ele><time>2026-04-11T07:35:30.988Z</time></trkpt><trkpt lat="43.9125933" lon="12.3565017"><ele>523.0</ele><time>2026-04-11T07:35:32.988Z</time></trkpt><trkpt lat="43.9125667" lon="12.35641"><ele>523.0</ele><time>2026-04-11T07:35:34.988Z</time></trkpt><trkpt lat="43.9124817" lon="12.3563967"><ele>519.8</ele><time>2026-04-11T07:36:03.988Z</time></trkpt><trkpt lat="43.9123883" lon="12.35645"><ele>516.5999999999999</ele><time>2026-04-11T07:36:05.989Z</time></trkpt><trkpt lat="43.9122783" lon="12.3565067"><ele>513.4000000000001</ele><time>2026-04-11T07:36:07.988Z</time></trkpt><trkpt lat="43.9121867" lon="12.3565383"><ele>510.20000000000005</ele><time>2026-04-11T07:36:09.988Z</time></trkpt><trkpt lat="43.912125" lon="12.356475"><ele>507.0</ele><time>2026-04-11T07:36:11.989Z</time></trkpt><trkpt lat="43.912055" lon="12.356395"><ele>507.0</ele><time>2026-04-11T07:36:13.989Z</time></trkpt><trkpt lat="43.911985" lon="12.3563"><ele>507.00000000000006</ele><time>2026-04-11T07:36:15.988Z</time></trkpt><trkpt lat="43.9119283" lon="12.3561867"><ele>507.00000000000006</ele><time>2026-04-11T07:36:17.988Z</time></trkpt><trkpt lat="43.91188" lon="12.3560633"><ele>507.0</ele><time>2026-04-11T07:36:19.988Z</time></trkpt><trkpt lat="43.9118517" lon="12.3559317"><ele>507.0</ele><time>2026-04-11T07:36:21.988Z</time></trkpt><trkpt lat="43.9117867" lon="12.35581"><ele>507.0</ele><time>2026-04-11T07:36:23.988Z</time></trkpt><trkpt lat="43.9117417" lon="12.3557317"><ele>507.0</ele><time>2026-04-11T07:36:24.988Z</time></trkpt><trkpt lat="43.9117017" lon="12.355645"><ele>507.0</ele><time>2026-04-11T07:36:25.988Z</time></trkpt><trkpt lat="43.91166" lon="12.3555517"><ele>507.0</ele><time>2026-04-11T07:36:26.988Z</time></trkpt><trkpt lat="43.911625" lon="12.35547"><ele>507.0</ele><time>2026-04-11T07:36:27.988Z</time></trkpt><trkpt lat="43.9115883" lon="12.3553867"><ele>507.0</ele><time>2026-04-11T07:36:28.988Z</time></trkpt><trkpt lat="43.9115433" lon="12.3553117"><ele>507.0</ele><time>2026-04-11T07:36:29.988Z</time></trkpt><trkpt lat="43.9115" lon="12.3552267"><ele>506.42857142857144</ele><time>2026-04-11T07:36:30.988Z</time></trkpt><trkpt lat="43.9114583" lon="12.3551483"><ele>505.8571428571429</ele><time>2026-04-11T07:36:31.988Z</time></trkpt><trkpt lat="43.9114133" lon="12.3550833"><ele>505.28571428571433</ele><time>2026-04-11T07:36:32.988Z</time></trkpt><trkpt lat="43.9113717" lon="12.3550133"><ele>504.7142857142857</ele><time>2026-04-11T07:36:33.988Z</time></trkpt><trkpt lat="43.911335" lon="12.3549367"><ele>504.1428571428572</ele><time>2026-04-11T07:36:34.989Z</time></trkpt><trkpt lat="43.9112967" lon="12.354865"><ele>503.5714285714286</ele><time>2026-04-11T07:36:35.989Z</time></trkpt><trkpt lat="43.9112567" lon="12.35478"><ele>503.0</ele><time>2026-04-11T07:36:36.988Z</time></trkpt><trkpt lat="43.9112067" lon="12.354695"><ele>503.8571428571429</ele><time>2026-04-11T07:36:37.989Z</time></trkpt><trkpt lat="43.9111667" lon="12.3546133"><ele>504.7142857142858</ele><time>2026-04-11T07:36:38.989Z</time></trkpt><trkpt lat="43.91112" lon="12.35453"><ele>505.57142857142856</ele><time>2026-04-11T07:36:39.988Z</time></trkpt><trkpt lat="43.911065" lon="12.3544633"><ele>506.42857142857144</ele><time>2026-04-11T07:36:40.988Z</time></trkpt><trkpt lat="43.91101" lon="12.35441"><ele>507.2857142857143</ele><time>2026-04-11T07:36:41.988Z</time></trkpt><trkpt lat="43.9109367" lon="12.3543567"><ele>508.1428571428571</ele><time>2026-04-11T07:36:42.988Z</time></trkpt><trkpt lat="43.9108667" lon="12.3543167"><ele>508.99999999999994</ele><time>2026-04-11T07:36:43.988Z</time></trkpt><trkpt lat="43.9107633" lon="12.3542983"><ele>508.99999999999994</ele><time>2026-04-11T07:36:45.988Z</time></trkpt><trkpt lat="43.9106383" lon="12.35432"><ele>509.0</ele><time>2026-04-11T07:36:47.988Z</time></trkpt><trkpt lat="43.9105533" lon="12.3543333"><ele>509.0</ele><time>2026-04-11T07:36:48.988Z</time></trkpt><trkpt lat="43.91047" lon="12.3543433"><ele>509.0</ele><time>2026-04-11T07:36:49.988Z</time></trkpt><trkpt lat="43.9103933" lon="12.35435"><ele>508.99999999999994</ele><time>2026-04-11T07:36:50.988Z</time></trkpt><trkpt lat="43.91033" lon="12.3543317"><ele>509.0</ele><time>2026-04-11T07:36:51.988Z</time></trkpt><trkpt lat="43.9102117" lon="12.3543117"><ele>508.99999999999994</ele><time>2026-04-11T07:36:53.989Z</time></trkpt><trkpt lat="43.9101" lon="12.3542833"><ele>509.0</ele><time>2026-04-11T07:36:55.988Z</time></trkpt><trkpt lat="43.91002" lon="12.35425"><ele>509.0</ele><time>2026-04-11T07:36:57.988Z</time></trkpt><trkpt lat="43.909955" lon="12.3542033"><ele>509.0</ele><time>2026-04-11T07:36:59.989Z</time></trkpt><trkpt lat="43.9098967" lon="12.354125"><ele>508.99999999999994</ele><time>2026-04-11T07:37:01.988Z</time></trkpt><trkpt lat="43.9098467" lon="12.3540317"><ele>509.0</ele><time>2026-04-11T07:37:03.988Z</time></trkpt><trkpt lat="43.9097683" lon="12.3539167"><ele>506.8333333333333</ele><time>2026-04-11T07:37:05.988Z</time></trkpt><trkpt lat="43.9096767" lon="12.3538233"><ele>504.66666666666663</ele><time>2026-04-11T07:37:07.989Z</time></trkpt><trkpt lat="43.9095933" lon="12.3537633"><ele>502.5</ele><time>2026-04-11T07:37:09.988Z</time></trkpt><trkpt lat="43.90954" lon="12.35371"><ele>500.33333333333337</ele><time>2026-04-11T07:37:10.989Z</time></trkpt><trkpt lat="43.909485" lon="12.35365"><ele>498.1666666666667</ele><time>2026-04-11T07:37:11.988Z</time></trkpt><trkpt lat="43.9094233" lon="12.3535783"><ele>496.0</ele><time>2026-04-11T07:37:12.988Z</time></trkpt><trkpt lat="43.9093667" lon="12.3535"><ele>496.0</ele><time>2026-04-11T07:37:13.988Z</time></trkpt><trkpt lat="43.9092983" lon="12.353405"><ele>496.0</ele><time>2026-04-11T07:37:14.988Z</time></trkpt><trkpt lat="43.9092417" lon="12.3533083"><ele>496.0</ele><time>2026-04-11T07:37:15.988Z</time></trkpt><trkpt lat="43.90918" lon="12.3532183"><ele>496.0</ele><time>2026-04-11T07:37:16.988Z</time></trkpt><trkpt lat="43.9091183" lon="12.3531317"><ele>496.0</ele><time>2026-04-11T07:37:17.988Z</time></trkpt><trkpt lat="43.9090467" lon="12.35306"><ele>494.33333333333337</ele><time>2026-04-11T07:37:18.988Z</time></trkpt><trkpt lat="43.9089733" lon="12.3529967"><ele>492.6666666666667</ele><time>2026-04-11T07:37:19.988Z</time></trkpt><trkpt lat="43.9089033" lon="12.35295"><ele>491.0</ele><time>2026-04-11T07:37:20.988Z</time></trkpt><trkpt lat="43.9088333" lon="12.352925"><ele>489.33333333333337</ele><time>2026-04-11T07:37:21.989Z</time></trkpt><trkpt lat="43.90876" lon="12.3529283"><ele>487.6666666666667</ele><time>2026-04-11T07:37:22.988Z</time></trkpt><trkpt lat="43.9086867" lon="12.3529483"><ele>486.0</ele><time>2026-04-11T07:37:23.988Z</time></trkpt><trkpt lat="43.90862" lon="12.35295"><ele>486.0</ele><time>2026-04-11T07:37:24.989Z</time></trkpt><trkpt lat="43.908555" lon="12.3529367"><ele>486.0</ele><time>2026-04-11T07:37:25.988Z</time></trkpt><trkpt lat="43.9084517" lon="12.3528633"><ele>486.0</ele><time>2026-04-11T07:37:27.988Z</time></trkpt><trkpt lat="43.908345" lon="12.352805"><ele>486.0</ele><time>2026-04-11T07:37:29.988Z</time></trkpt><trkpt lat="43.90828" lon="12.3527983"><ele>486.0</ele><time>2026-04-11T07:37:30.988Z</time></trkpt><trkpt lat="43.9082133" lon="12.3528083"><ele>486.0</ele><time>2026-04-11T07:37:31.989Z</time></trkpt><trkpt lat="43.9081483" lon="12.352815"><ele>488.0</ele><time>2026-04-11T07:37:32.988Z</time></trkpt><trkpt lat="43.90808" lon="12.352825"><ele>490.0</ele><time>2026-04-11T07:37:33.989Z</time></trkpt><trkpt lat="43.90796" lon="12.3528483"><ele>492.0</ele><time>2026-04-11T07:37:35.988Z</time></trkpt><trkpt lat="43.907895" lon="12.352865"><ele>494.0</ele><time>2026-04-11T07:37:36.988Z</time></trkpt><trkpt lat="43.9078267" lon="12.3528817"><ele>496.0</ele><time>2026-04-11T07:37:37.988Z</time></trkpt><trkpt lat="43.9077533" lon="12.3528983"><ele>498.0</ele><time>2026-04-11T07:37:38.988Z</time></trkpt><trkpt lat="43.9076783" lon="12.3529117"><ele>498.0</ele><time>2026-04-11T07:37:39.988Z</time></trkpt><trkpt lat="43.9075983" lon="12.3529233"><ele>497.99999999999994</ele><time>2026-04-11T07:37:40.989Z</time></trkpt><trkpt lat="43.90751" lon="12.3529383"><ele>497.99999999999994</ele><time>2026-04-11T07:37:41.989Z</time></trkpt><trkpt lat="43.9074167" lon="12.3529433"><ele>498.0</ele><time>2026-04-11T07:37:42.989Z</time></trkpt><trkpt lat="43.9073133" lon="12.3529533"><ele>498.0</ele><time>2026-04-11T07:37:43.988Z</time></trkpt><trkpt lat="43.90722" lon="12.35295"><ele>500.0</ele><time>2026-04-11T07:37:44.988Z</time></trkpt><trkpt lat="43.9071283" lon="12.3529567"><ele>502.0</ele><time>2026-04-11T07:37:45.988Z</time></trkpt><trkpt lat="43.9070533" lon="12.3529617"><ele>504.0</ele><time>2026-04-11T07:37:46.988Z</time></trkpt><trkpt lat="43.9069883" lon="12.3529683"><ele>506.0</ele><time>2026-04-11T07:37:47.988Z</time></trkpt><trkpt lat="43.9068633" lon="12.3529467"><ele>508.0</ele><time>2026-04-11T07:37:49.987Z</time></trkpt><trkpt lat="43.9067967" lon="12.35291"><ele>510.0</ele><time>2026-04-11T07:37:50.987Z</time></trkpt><trkpt lat="43.90673" lon="12.352875"><ele>511.8</ele><time>2026-04-11T07:37:51.987Z</time></trkpt><trkpt lat="43.9066317" lon="12.3528717"><ele>513.6</ele><time>2026-04-11T07:37:53.988Z</time></trkpt><trkpt lat="43.9065567" lon="12.35288"><ele>515.4</ele><time>2026-04-11T07:37:55.988Z</time></trkpt><trkpt lat="43.9065033" lon="12.3528067"><ele>517.2</ele><time>2026-04-11T07:37:59.987Z</time></trkpt><trkpt lat="43.90642" lon="12.35266"><ele>519.0</ele><time>2026-04-11T07:38:01.987Z</time></trkpt><trkpt lat="43.90635" lon="12.35256"><ele>519.0</ele><time>2026-04-11T07:38:02.987Z</time></trkpt><trkpt lat="43.9062683" lon="12.3524383"><ele>519.0</ele><time>2026-04-11T07:38:03.987Z</time></trkpt><trkpt lat="43.9061933" lon="12.3523267"><ele>519.0</ele><time>2026-04-11T07:38:04.987Z</time></trkpt><trkpt lat="43.9061117" lon="12.3522"><ele>519.0</ele><time>2026-04-11T07:38:05.987Z</time></trkpt><trkpt lat="43.9060217" lon="12.35207"><ele>516.6</ele><time>2026-04-11T07:38:06.987Z</time></trkpt><trkpt lat="43.90594" lon="12.3519467"><ele>514.2</ele><time>2026-04-11T07:38:07.987Z</time></trkpt><trkpt lat="43.90588" lon="12.3518283"><ele>511.80000000000007</ele><time>2026-04-11T07:38:08.987Z</time></trkpt><trkpt lat="43.9058267" lon="12.3516983"><ele>509.40000000000003</ele><time>2026-04-11T07:38:09.987Z</time></trkpt><trkpt lat="43.9057717" lon="12.3515567"><ele>507.0</ele><time>2026-04-11T07:38:10.987Z</time></trkpt><trkpt lat="43.90572" lon="12.3514017"><ele>510.0</ele><time>2026-04-11T07:38:11.988Z</time></trkpt><trkpt lat="43.9056567" lon="12.35125"><ele>513.0</ele><time>2026-04-11T07:38:12.987Z</time></trkpt><trkpt lat="43.90559" lon="12.351105"><ele>516.0</ele><time>2026-04-11T07:38:13.988Z</time></trkpt><trkpt lat="43.9055183" lon="12.3509983"><ele>519.0</ele><time>2026-04-11T07:38:14.987Z</time></trkpt><trkpt lat="43.9054517" lon="12.3508883"><ele>519.0</ele><time>2026-04-11T07:38:15.987Z</time></trkpt><trkpt lat="43.905385" lon="12.3507917"><ele>519.0</ele><time>2026-04-11T07:38:16.987Z</time></trkpt><trkpt lat="43.9053217" lon="12.3507067"><ele>519.0</ele><time>2026-04-11T07:38:17.987Z</time></trkpt><trkpt lat="43.9052617" lon="12.3506467"><ele>519.0</ele><time>2026-04-11T07:38:18.987Z</time></trkpt><trkpt lat="43.9051933" lon="12.3506"><ele>519.0</ele><time>2026-04-11T07:38:19.987Z</time></trkpt><trkpt lat="43.9051183" lon="12.3505533"><ele>519.0</ele><time>2026-04-11T07:38:20.987Z</time></trkpt><trkpt lat="43.9050233" lon="12.3505317"><ele>520.5</ele><time>2026-04-11T07:38:21.987Z</time></trkpt><trkpt lat="43.9049117" lon="12.3505"><ele>522.0</ele><time>2026-04-11T07:38:22.987Z</time></trkpt><trkpt lat="43.9047967" lon="12.3504617"><ele>523.5</ele><time>2026-04-11T07:38:23.987Z</time></trkpt><trkpt lat="43.9046767" lon="12.3504183"><ele>525.0</ele><time>2026-04-11T07:38:24.987Z</time></trkpt><trkpt lat="43.90456" lon="12.3503667"><ele>525.0</ele><time>2026-04-11T07:38:25.987Z</time></trkpt><trkpt lat="43.9044517" lon="12.3503183"><ele>525.0</ele><time>2026-04-11T07:38:26.988Z</time></trkpt><trkpt lat="43.9043667" lon="12.3502533"><ele>525.0</ele><time>2026-04-11T07:38:27.987Z</time></trkpt><trkpt lat="43.9043" lon="12.3501767"><ele>525.0</ele><time>2026-04-11T07:38:28.987Z</time></trkpt><trkpt lat="43.90424" lon="12.3500917"><ele>525.0</ele><time>2026-04-11T07:38:29.987Z</time></trkpt><trkpt lat="43.9041833" lon="12.34999"><ele>524.0</ele><time>2026-04-11T07:38:30.987Z</time></trkpt><trkpt lat="43.90413" lon="12.3498717"><ele>523.0</ele><time>2026-04-11T07:38:31.987Z</time></trkpt><trkpt lat="43.9040817" lon="12.349745"><ele>522.0</ele><time>2026-04-11T07:38:32.987Z</time></trkpt><trkpt lat="43.904025" lon="12.349625"><ele>521.0</ele><time>2026-04-11T07:38:33.987Z</time></trkpt><trkpt lat="43.903955" lon="12.349485"><ele>520.0</ele><time>2026-04-11T07:38:34.987Z</time></trkpt><trkpt lat="43.9038883" lon="12.3493617"><ele>520.0</ele><time>2026-04-11T07:38:35.987Z</time></trkpt><trkpt lat="43.9038183" lon="12.3492467"><ele>520.0</ele><time>2026-04-11T07:38:36.987Z</time></trkpt><trkpt lat="43.903745" lon="12.34913"><ele>520.0</ele><time>2026-04-11T07:38:37.988Z</time></trkpt><trkpt lat="43.9036917" lon="12.3489967"><ele>520.0</ele><time>2026-04-11T07:38:38.987Z</time></trkpt><trkpt lat="43.90366" lon="12.348855"><ele>520.0</ele><time>2026-04-11T07:38:39.987Z</time></trkpt><trkpt lat="43.9036367" lon="12.348715"><ele>518.0</ele><time>2026-04-11T07:38:40.987Z</time></trkpt><trkpt lat="43.9036167" lon="12.348585"><ele>516.0</ele><time>2026-04-11T07:38:41.987Z</time></trkpt><trkpt lat="43.9035883" lon="12.3484733"><ele>514.0</ele><time>2026-04-11T07:38:42.987Z</time></trkpt><trkpt lat="43.9035633" lon="12.34837"><ele>512.0</ele><time>2026-04-11T07:38:43.988Z</time></trkpt><trkpt lat="43.9035533" lon="12.3482533"><ele>510.00000000000006</ele><time>2026-04-11T07:38:44.987Z</time></trkpt><trkpt lat="43.9035517" lon="12.3481533"><ele>508.0</ele><time>2026-04-11T07:38:45.988Z</time></trkpt><trkpt lat="43.903555" lon="12.34806"><ele>506.79999999999995</ele><time>2026-04-11T07:38:46.988Z</time></trkpt><trkpt lat="43.9035767" lon="12.3479667"><ele>505.59999999999997</ele><time>2026-04-11T07:38:47.988Z</time></trkpt><trkpt lat="43.90366" lon="12.3478717"><ele>504.40000000000003</ele><time>2026-04-11T07:38:49.987Z</time></trkpt><trkpt lat="43.9037817" lon="12.3478167"><ele>503.20000000000005</ele><time>2026-04-11T07:38:51.987Z</time></trkpt><trkpt lat="43.9038533" lon="12.3477533"><ele>502.0</ele><time>2026-04-11T07:38:52.987Z</time></trkpt><trkpt lat="43.9039217" lon="12.3476633"><ele>502.0</ele><time>2026-04-11T07:38:53.987Z</time></trkpt><trkpt lat="43.903985" lon="12.3475417"><ele>502.0</ele><time>2026-04-11T07:38:54.987Z</time></trkpt><trkpt lat="43.9040517" lon="12.3473967"><ele>502.0</ele><time>2026-04-11T07:38:55.988Z</time></trkpt><trkpt lat="43.90412" lon="12.3472417"><ele>502.0</ele><time>2026-04-11T07:38:56.988Z</time></trkpt><trkpt lat="43.904195" lon="12.3470767"><ele>497.25</ele><time>2026-04-11T07:38:57.987Z</time></trkpt><trkpt lat="43.90427" lon="12.346925"><ele>492.5</ele><time>2026-04-11T07:38:58.987Z</time></trkpt><trkpt lat="43.9043533" lon="12.346795"><ele>487.75</ele><time>2026-04-11T07:38:59.987Z</time></trkpt><trkpt lat="43.9044333" lon="12.3466983"><ele>483.0</ele><time>2026-04-11T07:39:00.987Z</time></trkpt><trkpt lat="43.904525" lon="12.3466233"><ele>483.0</ele><time>2026-04-11T07:39:01.987Z</time></trkpt><trkpt lat="43.904615" lon="12.3465733"><ele>482.99999999999994</ele><time>2026-04-11T07:39:02.987Z</time></trkpt><trkpt lat="43.904715" lon="12.3465583"><ele>482.99999999999994</ele><time>2026-04-11T07:39:03.987Z</time></trkpt><trkpt lat="43.9048117" lon="12.346575"><ele>483.0</ele><time>2026-04-11T07:39:04.987Z</time></trkpt><trkpt lat="43.9049" lon="12.346635"><ele>483.0</ele><time>2026-04-11T07:39:05.987Z</time></trkpt><trkpt lat="43.90499" lon="12.3467183"><ele>478.5</ele><time>2026-04-11T07:39:06.987Z</time></trkpt><trkpt lat="43.90509" lon="12.3468167"><ele>474.0</ele><time>2026-04-11T07:39:07.987Z</time></trkpt><trkpt lat="43.9051883" lon="12.34692"><ele>469.5</ele><time>2026-04-11T07:39:08.987Z</time></trkpt><trkpt lat="43.9053067" lon="12.3470183"><ele>465.0</ele><time>2026-04-11T07:39:09.987Z</time></trkpt><trkpt lat="43.90543" lon="12.3471133"><ele>465.0</ele><time>2026-04-11T07:39:10.988Z</time></trkpt><trkpt lat="43.90555" lon="12.3472083"><ele>465.0</ele><time>2026-04-11T07:39:11.988Z</time></trkpt><trkpt lat="43.9056533" lon="12.3472983"><ele>465.0</ele><time>2026-04-11T07:39:12.987Z</time></trkpt><trkpt lat="43.90575" lon="12.3473967"><ele>465.0</ele><time>2026-04-11T07:39:13.988Z</time></trkpt><trkpt lat="43.9058367" lon="12.3475183"><ele>464.5</ele><time>2026-04-11T07:39:14.988Z</time></trkpt><trkpt lat="43.905925" lon="12.347665"><ele>464.0</ele><time>2026-04-11T07:39:15.987Z</time></trkpt><trkpt lat="43.9060183" lon="12.347805"><ele>463.5</ele><time>2026-04-11T07:39:16.987Z</time></trkpt><trkpt lat="43.90614" lon="12.34792"><ele>463.0</ele><time>2026-04-11T07:39:17.987Z</time></trkpt><trkpt lat="43.9062733" lon="12.348015"><ele>463.33333333333337</ele><time>2026-04-11T07:39:18.987Z</time></trkpt><trkpt lat="43.90643" lon="12.3480667"><ele>463.66666666666663</ele><time>2026-04-11T07:39:19.987Z</time></trkpt><trkpt lat="43.9066033" lon="12.3480833"><ele>464.0</ele><time>2026-04-11T07:39:20.987Z</time></trkpt><trkpt lat="43.9067583" lon="12.3481033"><ele>464.0</ele><time>2026-04-11T07:39:21.987Z</time></trkpt><trkpt lat="43.9069067" lon="12.3481117"><ele>464.0</ele><time>2026-04-11T07:39:22.987Z</time></trkpt><trkpt lat="43.9070333" lon="12.348125"><ele>464.0</ele><time>2026-04-11T07:39:23.987Z</time></trkpt><trkpt lat="43.9071367" lon="12.34816"><ele>464.0</ele><time>2026-04-11T07:39:24.987Z</time></trkpt><trkpt lat="43.9072183" lon="12.34824"><ele>464.0</ele><time>2026-04-11T07:39:25.987Z</time></trkpt><trkpt lat="43.9073017" lon="12.3483467"><ele>464.0</ele><time>2026-04-11T07:39:26.987Z</time></trkpt><trkpt lat="43.9073917" lon="12.3484833"><ele>464.0</ele><time>2026-04-11T07:39:27.987Z</time></trkpt><trkpt lat="43.9074817" lon="12.3486333"><ele>464.0</ele><time>2026-04-11T07:39:28.987Z</time></trkpt><trkpt lat="43.9075767" lon="12.3487817"><ele>464.0</ele><time>2026-04-11T07:39:29.987Z</time></trkpt><trkpt lat="43.9076917" lon="12.348935"><ele>464.0</ele><time>2026-04-11T07:39:30.987Z</time></trkpt><trkpt lat="43.9078083" lon="12.349055"><ele>464.0</ele><time>2026-04-11T07:39:31.988Z</time></trkpt><trkpt lat="43.90793" lon="12.34917"><ele>464.0</ele><time>2026-04-11T07:39:32.987Z</time></trkpt><trkpt lat="43.9080483" lon="12.349265"><ele>464.0</ele><time>2026-04-11T07:39:33.987Z</time></trkpt><trkpt lat="43.9081617" lon="12.3493433"><ele>464.0</ele><time>2026-04-11T07:39:34.988Z</time></trkpt><trkpt lat="43.908275" lon="12.34939"><ele>464.0</ele><time>2026-04-11T07:39:35.987Z</time></trkpt><trkpt lat="43.9083983" lon="12.34942"><ele>461.75</ele><time>2026-04-11T07:39:36.987Z</time></trkpt><trkpt lat="43.908535" lon="12.3494317"><ele>459.5</ele><time>2026-04-11T07:39:37.988Z</time></trkpt><trkpt lat="43.9086683" lon="12.3494383"><ele>457.25</ele><time>2026-04-11T07:39:38.987Z</time></trkpt><trkpt lat="43.9088017" lon="12.3494283"><ele>455.0</ele><time>2026-04-11T07:39:39.987Z</time></trkpt><trkpt lat="43.9089483" lon="12.3494183"><ele>455.0</ele><time>2026-04-11T07:39:40.987Z</time></trkpt><trkpt lat="43.9090867" lon="12.3493833"><ele>455.0</ele><time>2026-04-11T07:39:41.987Z</time></trkpt><trkpt lat="43.9092333" lon="12.349355"><ele>455.0</ele><time>2026-04-11T07:39:42.987Z</time></trkpt><trkpt lat="43.9093583" lon="12.34934"><ele>455.0</ele><time>2026-04-11T07:39:43.987Z</time></trkpt><trkpt lat="43.9094683" lon="12.3493433"><ele>453.75</ele><time>2026-04-11T07:39:44.987Z</time></trkpt><trkpt lat="43.9095683" lon="12.3493983"><ele>452.5</ele><time>2026-04-11T07:39:45.988Z</time></trkpt><trkpt lat="43.90967" lon="12.3494483"><ele>451.25</ele><time>2026-04-11T07:39:46.987Z</time></trkpt><trkpt lat="43.9097933" lon="12.3494833"><ele>450.0</ele><time>2026-04-11T07:39:47.987Z</time></trkpt><trkpt lat="43.90991" lon="12.3495"><ele>450.0</ele><time>2026-04-11T07:39:48.987Z</time></trkpt><trkpt lat="43.910005" lon="12.3494833"><ele>450.0</ele><time>2026-04-11T07:39:49.988Z</time></trkpt><trkpt lat="43.9100933" lon="12.34944"><ele>450.0</ele><time>2026-04-11T07:39:50.987Z</time></trkpt><trkpt lat="43.910165" lon="12.3493767"><ele>450.0</ele><time>2026-04-11T07:39:51.987Z</time></trkpt><trkpt lat="43.9102283" lon="12.3492883"><ele>450.0</ele><time>2026-04-11T07:39:52.988Z</time></trkpt><trkpt lat="43.9102833" lon="12.3492033"><ele>450.0</ele><time>2026-04-11T07:39:53.987Z</time></trkpt><trkpt lat="43.9103417" lon="12.3491233"><ele>448.6666666666667</ele><time>2026-04-11T07:39:54.988Z</time></trkpt><trkpt lat="43.9104" lon="12.3490567"><ele>447.33333333333337</ele><time>2026-04-11T07:39:55.987Z</time></trkpt><trkpt lat="43.9104667" lon="12.348995"><ele>446.0</ele><time>2026-04-11T07:39:56.987Z</time></trkpt><trkpt lat="43.9105333" lon="12.348915"><ele>444.6666666666667</ele><time>2026-04-11T07:39:57.987Z</time></trkpt><trkpt lat="43.910615" lon="12.3488417"><ele>443.33333333333337</ele><time>2026-04-11T07:39:58.987Z</time></trkpt><trkpt lat="43.910695" lon="12.348745"><ele>442.0</ele><time>2026-04-11T07:39:59.988Z</time></trkpt><trkpt lat="43.910775" lon="12.3486317"><ele>442.0</ele><time>2026-04-11T07:40:00.987Z</time></trkpt><trkpt lat="43.9108533" lon="12.3485133"><ele>442.00000000000006</ele><time>2026-04-11T07:40:01.988Z</time></trkpt><trkpt lat="43.9109367" lon="12.3483917"><ele>442.00000000000006</ele><time>2026-04-11T07:40:02.988Z</time></trkpt><trkpt lat="43.9110117" lon="12.3483033"><ele>442.0</ele><time>2026-04-11T07:40:03.987Z</time></trkpt><trkpt lat="43.9110767" lon="12.34821"><ele>442.0</ele><time>2026-04-11T07:40:04.987Z</time></trkpt><trkpt lat="43.91113" lon="12.3481483"><ele>440.00000000000006</ele><time>2026-04-11T07:40:05.987Z</time></trkpt><trkpt lat="43.9112267" lon="12.3480883"><ele>438.0</ele><time>2026-04-11T07:40:07.987Z</time></trkpt><trkpt lat="43.9112933" lon="12.3480833"><ele>436.0</ele><time>2026-04-11T07:40:08.987Z</time></trkpt><trkpt lat="43.9113683" lon="12.3480767"><ele>434.0</ele><time>2026-04-11T07:40:09.987Z</time></trkpt><trkpt lat="43.9114433" lon="12.3480733"><ele>432.00000000000006</ele><time>2026-04-11T07:40:10.987Z</time></trkpt><trkpt lat="43.91152" lon="12.3480567"><ele>430.0</ele><time>2026-04-11T07:40:11.987Z</time></trkpt><trkpt lat="43.9115933" lon="12.3480133"><ele>430.0</ele><time>2026-04-11T07:40:12.987Z</time></trkpt><trkpt lat="43.9116583" lon="12.3479633"><ele>430.0</ele><time>2026-04-11T07:40:13.987Z</time></trkpt><trkpt lat="43.9117217" lon="12.3478883"><ele>430.0</ele><time>2026-04-11T07:40:14.987Z</time></trkpt><trkpt lat="43.9117883" lon="12.347785"><ele>430.0</ele><time>2026-04-11T07:40:15.988Z</time></trkpt><trkpt lat="43.9118433" lon="12.3476583"><ele>430.0</ele><time>2026-04-11T07:40:16.987Z</time></trkpt><trkpt lat="43.911885" lon="12.3475267"><ele>427.33333333333337</ele><time>2026-04-11T07:40:17.987Z</time></trkpt><trkpt lat="43.911935" lon="12.3474133"><ele>424.6666666666667</ele><time>2026-04-11T07:40:18.988Z</time></trkpt><trkpt lat="43.9119783" lon="12.34732"><ele>422.0</ele><time>2026-04-11T07:40:19.987Z</time></trkpt><trkpt lat="43.9120283" lon="12.34722"><ele>419.33333333333337</ele><time>2026-04-11T07:40:20.987Z</time></trkpt><trkpt lat="43.91207" lon="12.3471133"><ele>416.6666666666667</ele><time>2026-04-11T07:40:21.987Z</time></trkpt><trkpt lat="43.912115" lon="12.346995"><ele>414.0</ele><time>2026-04-11T07:40:22.988Z</time></trkpt><trkpt lat="43.9121433" lon="12.3468933"><ele>413.6666666666667</ele><time>2026-04-11T07:40:23.988Z</time></trkpt><trkpt lat="43.9121617" lon="12.3467833"><ele>413.33333333333337</ele><time>2026-04-11T07:40:24.987Z</time></trkpt><trkpt lat="43.9121667" lon="12.3466883"><ele>413.0</ele><time>2026-04-11T07:40:25.987Z</time></trkpt><trkpt lat="43.9121833" lon="12.3466033"><ele>412.6666666666667</ele><time>2026-04-11T07:40:26.987Z</time></trkpt><trkpt lat="43.912285" lon="12.3464917"><ele>412.33333333333337</ele><time>2026-04-11T07:40:28.987Z</time></trkpt><trkpt lat="43.9123683" lon="12.346465"><ele>412.0</ele><time>2026-04-11T07:40:29.987Z</time></trkpt><trkpt lat="43.9124617" lon="12.3464517"><ele>412.0</ele><time>2026-04-11T07:40:30.987Z</time></trkpt><trkpt lat="43.9125583" lon="12.34646"><ele>412.0</ele><time>2026-04-11T07:40:31.987Z</time></trkpt><trkpt lat="43.9126467" lon="12.3464783"><ele>412.0</ele><time>2026-04-11T07:40:32.987Z</time></trkpt><trkpt lat="43.9127117" lon="12.3464983"><ele>412.0</ele><time>2026-04-11T07:40:33.987Z</time></trkpt><trkpt lat="43.9127467" lon="12.346605"><ele>412.0</ele><time>2026-04-11T07:40:36.988Z</time></trkpt><trkpt lat="43.91272" lon="12.34676"><ele>409.00000000000006</ele><time>2026-04-11T07:40:38.987Z</time></trkpt><trkpt lat="43.9127433" lon="12.3468767"><ele>406.0</ele><time>2026-04-11T07:40:40.987Z</time></trkpt><trkpt lat="43.9128233" lon="12.34687"><ele>403.0</ele><time>2026-04-11T07:40:42.987Z</time></trkpt><trkpt lat="43.9128767" lon="12.346815"><ele>400.0</ele><time>2026-04-11T07:40:43.987Z</time></trkpt><trkpt lat="43.912935" lon="12.3467417"><ele>397.00000000000006</ele><time>2026-04-11T07:40:44.987Z</time></trkpt><trkpt lat="43.9130017" lon="12.346655"><ele>394.0</ele><time>2026-04-11T07:40:45.987Z</time></trkpt><trkpt lat="43.913075" lon="12.3465617"><ele>394.00000000000006</ele><time>2026-04-11T07:40:46.988Z</time></trkpt><trkpt lat="43.91315" lon="12.3464683"><ele>394.0</ele><time>2026-04-11T07:40:47.987Z</time></trkpt><trkpt lat="43.913215" lon="12.3463817"><ele>394.0</ele><time>2026-04-11T07:40:48.988Z</time></trkpt><trkpt lat="43.91328" lon="12.3463067"><ele>394.0</ele><time>2026-04-11T07:40:49.988Z</time></trkpt><trkpt lat="43.9133417" lon="12.3462517"><ele>394.00000000000006</ele><time>2026-04-11T07:40:50.988Z</time></trkpt><trkpt lat="43.9134117" lon="12.3462317"><ele>394.0</ele><time>2026-04-11T07:40:51.988Z</time></trkpt><trkpt lat="43.91349" lon="12.3462367"><ele>390.6</ele><time>2026-04-11T07:40:52.987Z</time></trkpt><trkpt lat="43.91358" lon="12.3462683"><ele>387.2</ele><time>2026-04-11T07:40:53.987Z</time></trkpt><trkpt lat="43.9136767" lon="12.3463017"><ele>383.8</ele><time>2026-04-11T07:40:54.987Z</time></trkpt><trkpt lat="43.9137667" lon="12.34631"><ele>380.40000000000003</ele><time>2026-04-11T07:40:55.987Z</time></trkpt><trkpt lat="43.9138683" lon="12.34631"><ele>377.0</ele><time>2026-04-11T07:40:56.987Z</time></trkpt><trkpt lat="43.91398" lon="12.34628"><ele>377.0</ele><time>2026-04-11T07:40:57.987Z</time></trkpt><trkpt lat="43.9140867" lon="12.3462283"><ele>377.0</ele><time>2026-04-11T07:40:58.987Z</time></trkpt><trkpt lat="43.9141917" lon="12.3461617"><ele>377.0</ele><time>2026-04-11T07:40:59.987Z</time></trkpt><trkpt lat="43.9142933" lon="12.3460867"><ele>377.0</ele><time>2026-04-11T07:41:00.987Z</time></trkpt><trkpt lat="43.9143717" lon="12.34602"><ele>377.0</ele><time>2026-04-11T07:41:01.987Z</time></trkpt><trkpt lat="43.9144483" lon="12.3459417"><ele>375.0</ele><time>2026-04-11T07:41:02.987Z</time></trkpt><trkpt lat="43.91451" lon="12.345865"><ele>373.0</ele><time>2026-04-11T07:41:03.987Z</time></trkpt><trkpt lat="43.9145817" lon="12.34579"><ele>371.0</ele><time>2026-04-11T07:41:04.987Z</time></trkpt><trkpt lat="43.91465" lon="12.3456917"><ele>369.0</ele><time>2026-04-11T07:41:05.987Z</time></trkpt><trkpt lat="43.914715" lon="12.345595"><ele>367.0</ele><time>2026-04-11T07:41:06.987Z</time></trkpt><trkpt lat="43.9147783" lon="12.345485"><ele>367.0</ele><time>2026-04-11T07:41:07.987Z</time></trkpt><trkpt lat="43.9148217" lon="12.3453683"><ele>367.0</ele><time>2026-04-11T07:41:08.987Z</time></trkpt><trkpt lat="43.9148683" lon="12.3452467"><ele>367.0</ele><time>2026-04-11T07:41:09.987Z</time></trkpt><trkpt lat="43.9149233" lon="12.3451367"><ele>367.0</ele><time>2026-04-11T07:41:10.987Z</time></trkpt><trkpt lat="43.91499" lon="12.3450383"><ele>367.0</ele><time>2026-04-11T07:41:11.987Z</time></trkpt><trkpt lat="43.9150633" lon="12.3449367"><ele>366.0</ele><time>2026-04-11T07:41:12.987Z</time></trkpt><trkpt lat="43.915145" lon="12.34483"><ele>365.0</ele><time>2026-04-11T07:41:13.987Z</time></trkpt><trkpt lat="43.9152267" lon="12.3447133"><ele>364.0</ele><time>2026-04-11T07:41:14.987Z</time></trkpt><trkpt lat="43.915315" lon="12.3445933"><ele>363.0</ele><time>2026-04-11T07:41:15.987Z</time></trkpt><trkpt lat="43.915395" lon="12.3444617"><ele>363.0</ele><time>2026-04-11T07:41:16.987Z</time></trkpt><trkpt lat="43.9154667" lon="12.3443333"><ele>363.0</ele><time>2026-04-11T07:41:17.987Z</time></trkpt><trkpt lat="43.9155333" lon="12.3442117"><ele>363.0</ele><time>2026-04-11T07:41:18.987Z</time></trkpt><trkpt lat="43.9155933" lon="12.344085"><ele>363.0</ele><time>2026-04-11T07:41:19.987Z</time></trkpt><trkpt lat="43.9156567" lon="12.3439617"><ele>363.0</ele><time>2026-04-11T07:41:20.987Z</time></trkpt><trkpt lat="43.91572" lon="12.3438383"><ele>362.79999999999995</ele><time>2026-04-11T07:41:21.987Z</time></trkpt><trkpt lat="43.91578" lon="12.3437233"><ele>362.6</ele><time>2026-04-11T07:41:22.987Z</time></trkpt><trkpt lat="43.9158467" lon="12.3436133"><ele>362.4</ele><time>2026-04-11T07:41:23.987Z</time></trkpt><trkpt lat="43.9159067" lon="12.34351"><ele>362.20000000000005</ele><time>2026-04-11T07:41:24.986Z</time></trkpt><trkpt lat="43.915985" lon="12.3434033"><ele>362.0</ele><time>2026-04-11T07:41:25.986Z</time></trkpt><trkpt lat="43.9160633" lon="12.3432967"><ele>361.25</ele><time>2026-04-11T07:41:26.986Z</time></trkpt><trkpt lat="43.916145" lon="12.343195"><ele>360.5</ele><time>2026-04-11T07:41:27.986Z</time></trkpt><trkpt lat="43.916225" lon="12.3430867"><ele>359.75</ele><time>2026-04-11T07:41:28.986Z</time></trkpt><trkpt lat="43.9163083" lon="12.34297"><ele>359.0</ele><time>2026-04-11T07:41:29.987Z</time></trkpt><trkpt lat="43.9163917" lon="12.34287"><ele>359.0</ele><time>2026-04-11T07:41:30.986Z</time></trkpt><trkpt lat="43.9164783" lon="12.3427767"><ele>359.0</ele><time>2026-04-11T07:41:31.986Z</time></trkpt><trkpt lat="43.9165733" lon="12.3426783"><ele>359.0</ele><time>2026-04-11T07:41:32.986Z</time></trkpt><trkpt lat="43.9166633" lon="12.3425833"><ele>359.0</ele><time>2026-04-11T07:41:33.986Z</time></trkpt><trkpt lat="43.916755" lon="12.3424817"><ele>357.0</ele><time>2026-04-11T07:41:34.987Z</time></trkpt><trkpt lat="43.9168467" lon="12.342385"><ele>355.0</ele><time>2026-04-11T07:41:35.986Z</time></trkpt><trkpt lat="43.916945" lon="12.34228"><ele>353.0</ele><time>2026-04-11T07:41:36.986Z</time></trkpt><trkpt lat="43.917035" lon="12.342185"><ele>351.0</ele><time>2026-04-11T07:41:37.986Z</time></trkpt><trkpt lat="43.917125" lon="12.3420967"><ele>351.0</ele><time>2026-04-11T07:41:38.986Z</time></trkpt><trkpt lat="43.9172133" lon="12.342"><ele>351.0</ele><time>2026-04-11T07:41:39.986Z</time></trkpt><trkpt lat="43.9172983" lon="12.3419133"><ele>351.0</ele><time>2026-04-11T07:41:40.986Z</time></trkpt><trkpt lat="43.917375" lon="12.34182"><ele>351.0</ele><time>2026-04-11T07:41:41.986Z</time></trkpt><trkpt lat="43.9174433" lon="12.3417233"><ele>351.0</ele><time>2026-04-11T07:41:42.986Z</time></trkpt><trkpt lat="43.91751" lon="12.3416217"><ele>347.8</ele><time>2026-04-11T07:41:43.986Z</time></trkpt><trkpt lat="43.9175717" lon="12.341525"><ele>344.6</ele><time>2026-04-11T07:41:44.986Z</time></trkpt><trkpt lat="43.9176317" lon="12.3414417"><ele>341.4</ele><time>2026-04-11T07:41:45.986Z</time></trkpt><trkpt lat="43.917695" lon="12.34136"><ele>338.2</ele><time>2026-04-11T07:41:46.986Z</time></trkpt><trkpt lat="43.9177633" lon="12.3412717"><ele>335.0</ele><time>2026-04-11T07:41:47.986Z</time></trkpt><trkpt lat="43.9178283" lon="12.34118"><ele>335.0</ele><time>2026-04-11T07:41:48.986Z</time></trkpt><trkpt lat="43.917885" lon="12.3410983"><ele>335.0</ele><time>2026-04-11T07:41:49.986Z</time></trkpt><trkpt lat="43.9179717" lon="12.34098"><ele>335.0</ele><time>2026-04-11T07:41:51.986Z</time></trkpt><trkpt lat="43.918015" lon="12.340915"><ele>335.0</ele><time>2026-04-11T07:41:52.986Z</time></trkpt><trkpt lat="43.9181283" lon="12.3407983"><ele>335.0</ele><time>2026-04-11T07:41:54.986Z</time></trkpt><trkpt lat="43.918195" lon="12.340735"><ele>335.0</ele><time>2026-04-11T07:41:55.986Z</time></trkpt><trkpt lat="43.9182633" lon="12.3406717"><ele>335.0</ele><time>2026-04-11T07:41:56.986Z</time></trkpt><trkpt lat="43.9183367" lon="12.3406"><ele>335.0</ele><time>2026-04-11T07:41:57.986Z</time></trkpt><trkpt lat="43.91841" lon="12.3405283"><ele>335.0</ele><time>2026-04-11T07:41:58.986Z</time></trkpt><trkpt lat="43.918485" lon="12.3404683"><ele>335.0</ele><time>2026-04-11T07:41:59.986Z</time></trkpt><trkpt lat="43.9185567" lon="12.34042"><ele>335.0</ele><time>2026-04-11T07:42:00.986Z</time></trkpt><trkpt lat="43.9186383" lon="12.3403817"><ele>334.2</ele><time>2026-04-11T07:42:01.987Z</time></trkpt><trkpt lat="43.9188017" lon="12.3403183"><ele>333.4</ele><time>2026-04-11T07:42:03.986Z</time></trkpt><trkpt lat="43.9188833" lon="12.3403033"><ele>332.6</ele><time>2026-04-11T07:42:04.986Z</time></trkpt><trkpt lat="43.9189617" lon="12.34028"><ele>331.8</ele><time>2026-04-11T07:42:05.986Z</time></trkpt><trkpt lat="43.919045" lon="12.340245"><ele>331.0</ele><time>2026-04-11T07:42:06.986Z</time></trkpt><trkpt lat="43.9191167" lon="12.3402067"><ele>331.0</ele><time>2026-04-11T07:42:07.986Z</time></trkpt><trkpt lat="43.9191867" lon="12.3401583"><ele>331.0</ele><time>2026-04-11T07:42:08.987Z</time></trkpt><trkpt lat="43.9192533" lon="12.3401067"><ele>331.0</ele><time>2026-04-11T07:42:09.986Z</time></trkpt><trkpt lat="43.9193167" lon="12.3400517"><ele>331.0</ele><time>2026-04-11T07:42:10.986Z</time></trkpt><trkpt lat="43.9193733" lon="12.339995"><ele>331.0</ele><time>2026-04-11T07:42:11.987Z</time></trkpt><trkpt lat="43.9194317" lon="12.3399317"><ele>331.0</ele><time>2026-04-11T07:42:12.986Z</time></trkpt><trkpt lat="43.91948" lon="12.3398667"><ele>331.0</ele><time>2026-04-11T07:42:13.986Z</time></trkpt><trkpt lat="43.9195333" lon="12.3397933"><ele>330.66666666666663</ele><time>2026-04-11T07:42:14.986Z</time></trkpt><trkpt lat="43.9195867" lon="12.3397217"><ele>330.3333333333333</ele><time>2026-04-11T07:42:15.986Z</time></trkpt><trkpt lat="43.9196417" lon="12.33964"><ele>330.0</ele><time>2026-04-11T07:42:16.986Z</time></trkpt><trkpt lat="43.919685" lon="12.3395733"><ele>329.6666666666667</ele><time>2026-04-11T07:42:17.986Z</time></trkpt><trkpt lat="43.919765" lon="12.3394533"><ele>329.33333333333337</ele><time>2026-04-11T07:42:19.986Z</time></trkpt><trkpt lat="43.9198167" lon="12.3393567"><ele>329.0</ele><time>2026-04-11T07:42:21.986Z</time></trkpt><trkpt lat="43.919775" lon="12.33926"><ele>329.0</ele><time>2026-04-11T07:42:24.986Z</time></trkpt><trkpt lat="43.9196933" lon="12.3392583"><ele>329.0</ele><time>2026-04-11T07:42:26.986Z</time></trkpt><trkpt lat="43.9195917" lon="12.3392733"><ele>329.0</ele><time>2026-04-11T07:42:28.986Z</time></trkpt><trkpt lat="43.9194833" lon="12.3392917"><ele>329.0</ele><time>2026-04-11T07:42:30.986Z</time></trkpt><trkpt lat="43.9193733" lon="12.3393083"><ele>329.0</ele><time>2026-04-11T07:42:32.986Z</time></trkpt><trkpt lat="43.91927" lon="12.3393167"><ele>327.79999999999995</ele><time>2026-04-11T07:42:34.987Z</time></trkpt><trkpt lat="43.919175" lon="12.33933"><ele>326.59999999999997</ele><time>2026-04-11T07:42:36.986Z</time></trkpt><trkpt lat="43.9190767" lon="12.3393583"><ele>325.4</ele><time>2026-04-11T07:42:38.986Z</time></trkpt><trkpt lat="43.9189717" lon="12.3394083"><ele>324.2</ele><time>2026-04-11T07:42:40.986Z</time></trkpt><trkpt lat="43.9188767" lon="12.33942"><ele>323.0</ele><time>2026-04-11T07:42:42.986Z</time></trkpt><trkpt lat="43.91879" lon="12.3393967"><ele>323.0</ele><time>2026-04-11T07:42:44.986Z</time></trkpt><trkpt lat="43.9187017" lon="12.339355"><ele>323.0</ele><time>2026-04-11T07:42:46.987Z</time></trkpt><trkpt lat="43.9186233" lon="12.339315"><ele>323.0</ele><time>2026-04-11T07:42:48.987Z</time></trkpt><trkpt lat="43.9185317" lon="12.3392867"><ele>323.0</ele><time>2026-04-11T07:42:50.986Z</time></trkpt><trkpt lat="43.91843" lon="12.3392967"><ele>323.0</ele><time>2026-04-11T07:42:52.986Z</time></trkpt><trkpt lat="43.9183233" lon="12.33927"><ele>321.33333333333337</ele><time>2026-04-11T07:42:54.986Z</time></trkpt><trkpt lat="43.918245" lon="12.3392067"><ele>319.6666666666667</ele><time>2026-04-11T07:42:56.986Z</time></trkpt><trkpt lat="43.918215" lon="12.3391233"><ele>318.0</ele><time>2026-04-11T07:42:58.986Z</time></trkpt><trkpt lat="43.9182467" lon="12.339005"><ele>316.3333333333333</ele><time>2026-04-11T07:43:01.987Z</time></trkpt><trkpt lat="43.9182867" lon="12.3389133"><ele>314.66666666666663</ele><time>2026-04-11T07:43:03.986Z</time></trkpt><trkpt lat="43.9183367" lon="12.338825"><ele>313.0</ele><time>2026-04-11T07:43:05.986Z</time></trkpt><trkpt lat="43.91839" lon="12.338725"><ele>312.4</ele><time>2026-04-11T07:43:07.986Z</time></trkpt><trkpt lat="43.9184483" lon="12.3386117"><ele>311.8</ele><time>2026-04-11T07:43:09.986Z</time></trkpt><trkpt lat="43.9184933" lon="12.3384967"><ele>311.2</ele><time>2026-04-11T07:43:11.986Z</time></trkpt><trkpt lat="43.91851" lon="12.338355"><ele>310.6</ele><time>2026-04-11T07:43:13.986Z</time></trkpt><trkpt lat="43.918505" lon="12.3381717"><ele>310.0</ele><time>2026-04-11T07:43:15.986Z</time></trkpt><trkpt lat="43.9184933" lon="12.3380683"><ele>308.14285714285717</ele><time>2026-04-11T07:43:16.986Z</time></trkpt><trkpt lat="43.9184783" lon="12.337975"><ele>306.2857142857143</ele><time>2026-04-11T07:43:17.986Z</time></trkpt><trkpt lat="43.9184617" lon="12.3378833"><ele>304.42857142857144</ele><time>2026-04-11T07:43:18.986Z</time></trkpt><trkpt lat="43.91845" lon="12.3377967"><ele>302.57142857142856</ele><time>2026-04-11T07:43:19.986Z</time></trkpt><trkpt lat="43.9184467" lon="12.3377017"><ele>300.7142857142857</ele><time>2026-04-11T07:43:20.986Z</time></trkpt><trkpt lat="43.9184433" lon="12.3376067"><ele>298.8571428571429</ele><time>2026-04-11T07:43:21.986Z</time></trkpt><trkpt lat="43.9184433" lon="12.3375033"><ele>297.0</ele><time>2026-04-11T07:43:22.986Z</time></trkpt><trkpt lat="43.9184533" lon="12.3373967"><ele>297.0</ele><time>2026-04-11T07:43:23.986Z</time></trkpt><trkpt lat="43.9184517" lon="12.3373067"><ele>297.0</ele><time>2026-04-11T07:43:24.987Z</time></trkpt><trkpt lat="43.9185083" lon="12.3371933"><ele>297.0</ele><time>2026-04-11T07:43:26.986Z</time></trkpt><trkpt lat="43.9185617" lon="12.337135"><ele>297.0</ele><time>2026-04-11T07:43:27.987Z</time></trkpt><trkpt lat="43.9186233" lon="12.337085"><ele>297.0</ele><time>2026-04-11T07:43:28.986Z</time></trkpt><trkpt lat="43.9186833" lon="12.3370433"><ele>297.0</ele><time>2026-04-11T07:43:29.986Z</time></trkpt><trkpt lat="43.9187433" lon="12.3369883"><ele>297.0</ele><time>2026-04-11T07:43:30.986Z</time></trkpt><trkpt lat="43.91882" lon="12.33691"><ele>294.4</ele><time>2026-04-11T07:43:31.986Z</time></trkpt><trkpt lat="43.91889" lon="12.33683"><ele>291.79999999999995</ele><time>2026-04-11T07:43:32.986Z</time></trkpt><trkpt lat="43.9189633" lon="12.3367433"><ele>289.2</ele><time>2026-04-11T07:43:33.986Z</time></trkpt><trkpt lat="43.9190383" lon="12.33666"><ele>286.59999999999997</ele><time>2026-04-11T07:43:34.986Z</time></trkpt><trkpt lat="43.9191183" lon="12.33658"><ele>284.0</ele><time>2026-04-11T07:43:35.986Z</time></trkpt><trkpt lat="43.9192017" lon="12.33651"><ele>284.83333333333337</ele><time>2026-04-11T07:43:36.986Z</time></trkpt><trkpt lat="43.9192767" lon="12.3364417"><ele>285.6666666666667</ele><time>2026-04-11T07:43:37.986Z</time></trkpt><trkpt lat="43.9193383" lon="12.33637"><ele>286.5</ele><time>2026-04-11T07:43:38.987Z</time></trkpt><trkpt lat="43.9193933" lon="12.3362967"><ele>287.3333333333333</ele><time>2026-04-11T07:43:39.986Z</time></trkpt><trkpt lat="43.9194533" lon="12.3362267"><ele>288.16666666666663</ele><time>2026-04-11T07:43:40.986Z</time></trkpt><trkpt lat="43.9195117" lon="12.33616"><ele>289.0</ele><time>2026-04-11T07:43:41.987Z</time></trkpt><trkpt lat="43.91956" lon="12.3361"><ele>286.66666666666663</ele><time>2026-04-11T07:43:42.986Z</time></trkpt><trkpt lat="43.91961" lon="12.33598"><ele>284.3333333333333</ele><time>2026-04-11T07:43:44.986Z</time></trkpt><trkpt lat="43.9195917" lon="12.3358433"><ele>282.0</ele><time>2026-04-11T07:43:46.987Z</time></trkpt><trkpt lat="43.9195533" lon="12.3357583"><ele>279.6666666666667</ele><time>2026-04-11T07:43:47.986Z</time></trkpt><trkpt lat="43.9195183" lon="12.335665"><ele>277.33333333333337</ele><time>2026-04-11T07:43:48.986Z</time></trkpt><trkpt lat="43.9194783" lon="12.3355683"><ele>275.0</ele><time>2026-04-11T07:43:49.986Z</time></trkpt><trkpt lat="43.9194267" lon="12.3354767"><ele>273.8</ele><time>2026-04-11T07:43:50.986Z</time></trkpt><trkpt lat="43.9193667" lon="12.3353967"><ele>272.6</ele><time>2026-04-11T07:43:51.986Z</time></trkpt><trkpt lat="43.9193033" lon="12.335325"><ele>271.4</ele><time>2026-04-11T07:43:52.986Z</time></trkpt><trkpt lat="43.9192567" lon="12.335245"><ele>270.2</ele><time>2026-04-11T07:43:53.987Z</time></trkpt><trkpt lat="43.9192167" lon="12.3350933"><ele>269.0</ele><time>2026-04-11T07:43:55.986Z</time></trkpt><trkpt lat="43.9191817" lon="12.3349467"><ele>269.0</ele><time>2026-04-11T07:43:57.986Z</time></trkpt><trkpt lat="43.91912" lon="12.33479"><ele>269.0</ele><time>2026-04-11T07:43:59.987Z</time></trkpt><trkpt lat="43.91909" lon="12.3346933"><ele>269.0</ele><time>2026-04-11T07:44:00.986Z</time></trkpt><trkpt lat="43.9190633" lon="12.33456"><ele>269.0</ele><time>2026-04-11T07:44:01.986Z</time></trkpt><trkpt lat="43.91904" lon="12.334425"><ele>269.0</ele><time>2026-04-11T07:44:02.986Z</time></trkpt><trkpt lat="43.919015" lon="12.33429"><ele>267.1666666666667</ele><time>2026-04-11T07:44:03.986Z</time></trkpt><trkpt lat="43.9189883" lon="12.33416"><ele>265.33333333333337</ele><time>2026-04-11T07:44:04.986Z</time></trkpt><trkpt lat="43.91897" lon="12.3340317"><ele>263.5</ele><time>2026-04-11T07:44:05.986Z</time></trkpt><trkpt lat="43.9189333" lon="12.333925"><ele>261.6666666666667</ele><time>2026-04-11T07:44:06.986Z</time></trkpt><trkpt lat="43.9188783" lon="12.33384"><ele>259.8333333333333</ele><time>2026-04-11T07:44:07.986Z</time></trkpt><trkpt lat="43.9188067" lon="12.3337667"><ele>258.0</ele><time>2026-04-11T07:44:08.986Z</time></trkpt><trkpt lat="43.91872" lon="12.3336967"><ele>256.4</ele><time>2026-04-11T07:44:09.986Z</time></trkpt><trkpt lat="43.9186283" lon="12.3336183"><ele>254.8</ele><time>2026-04-11T07:44:10.986Z</time></trkpt><trkpt lat="43.918535" lon="12.333525"><ele>253.2</ele><time>2026-04-11T07:44:11.986Z</time></trkpt><trkpt lat="43.91846" lon="12.3334167"><ele>251.6</ele><time>2026-04-11T07:44:12.986Z</time></trkpt><trkpt lat="43.9183933" lon="12.3333133"><ele>250.0</ele><time>2026-04-11T07:44:13.986Z</time></trkpt><trkpt lat="43.9183417" lon="12.3332067"><ele>249.8</ele><time>2026-04-11T07:44:14.986Z</time></trkpt><trkpt lat="43.91829" lon="12.3330967"><ele>249.6</ele><time>2026-04-11T07:44:15.986Z</time></trkpt><trkpt lat="43.91824" lon="12.3329967"><ele>249.39999999999998</ele><time>2026-04-11T07:44:16.986Z</time></trkpt><trkpt lat="43.918185" lon="12.33288"><ele>249.2</ele><time>2026-04-11T07:44:17.986Z</time></trkpt><trkpt lat="43.9181417" lon="12.332765"><ele>249.0</ele><time>2026-04-11T07:44:18.987Z</time></trkpt><trkpt lat="43.918095" lon="12.3326517"><ele>247.83333333333334</ele><time>2026-04-11T07:44:19.986Z</time></trkpt><trkpt lat="43.9180583" lon="12.3325517"><ele>246.66666666666669</ele><time>2026-04-11T07:44:20.986Z</time></trkpt><trkpt lat="43.9180233" lon="12.3324517"><ele>245.5</ele><time>2026-04-11T07:44:21.986Z</time></trkpt><trkpt lat="43.9179917" lon="12.3323517"><ele>244.33333333333334</ele><time>2026-04-11T07:44:22.986Z</time></trkpt><trkpt lat="43.91796" lon="12.332245"><ele>243.16666666666669</ele><time>2026-04-11T07:44:23.986Z</time></trkpt><trkpt lat="43.9179183" lon="12.3321733"><ele>242.0</ele><time>2026-04-11T07:44:24.987Z</time></trkpt><trkpt lat="43.9178617" lon="12.3321317"><ele>242.0</ele><time>2026-04-11T07:44:25.986Z</time></trkpt><trkpt lat="43.9177933" lon="12.3321467"><ele>242.0</ele><time>2026-04-11T07:44:26.986Z</time></trkpt><trkpt lat="43.9177" lon="12.33218"><ele>242.0</ele><time>2026-04-11T07:44:27.986Z</time></trkpt><trkpt lat="43.9175967" lon="12.332225"><ele>242.0</ele><time>2026-04-11T07:44:28.986Z</time></trkpt><trkpt lat="43.9174983" lon="12.3322567"><ele>242.0</ele><time>2026-04-11T07:44:29.986Z</time></trkpt><trkpt lat="43.917405" lon="12.3322633"><ele>240.66666666666669</ele><time>2026-04-11T07:44:30.986Z</time></trkpt><trkpt lat="43.91732" lon="12.33226"><ele>239.33333333333334</ele><time>2026-04-11T07:44:31.986Z</time></trkpt><trkpt lat="43.917255" lon="12.33224"><ele>238.0</ele><time>2026-04-11T07:44:32.986Z</time></trkpt><trkpt lat="43.91719" lon="12.3321667"><ele>236.66666666666669</ele><time>2026-04-11T07:44:34.986Z</time></trkpt><trkpt lat="43.9172217" lon="12.33199"><ele>235.33333333333334</ele><time>2026-04-11T07:44:36.987Z</time></trkpt><trkpt lat="43.9172567" lon="12.3318917"><ele>234.0</ele><time>2026-04-11T07:44:37.986Z</time></trkpt><trkpt lat="43.917305" lon="12.331785"><ele>233.0</ele><time>2026-04-11T07:44:38.986Z</time></trkpt><trkpt lat="43.9173633" lon="12.3316667"><ele>231.99999999999997</ele><time>2026-04-11T07:44:39.986Z</time></trkpt><trkpt lat="43.9174167" lon="12.3315467"><ele>230.99999999999997</ele><time>2026-04-11T07:44:40.986Z</time></trkpt><trkpt lat="43.9174783" lon="12.3314367"><ele>230.0</ele><time>2026-04-11T07:44:41.986Z</time></trkpt><trkpt lat="43.9175333" lon="12.3313333"><ele>229.0</ele><time>2026-04-11T07:44:42.986Z</time></trkpt><trkpt lat="43.917565" lon="12.3312283"><ele>228.66666666666666</ele><time>2026-04-11T07:44:43.986Z</time></trkpt><trkpt lat="43.91757" lon="12.3311267"><ele>228.33333333333331</ele><time>2026-04-11T07:44:44.986Z</time></trkpt><trkpt lat="43.9175483" lon="12.3310417"><ele>228.0</ele><time>2026-04-11T07:44:45.986Z</time></trkpt><trkpt lat="43.9174733" lon="12.3308817"><ele>227.66666666666669</ele><time>2026-04-11T07:44:47.986Z</time></trkpt><trkpt lat="43.91744" lon="12.3307817"><ele>227.33333333333334</ele><time>2026-04-11T07:44:48.986Z</time></trkpt><trkpt lat="43.9174133" lon="12.3306617"><ele>227.0</ele><time>2026-04-11T07:44:49.986Z</time></trkpt><trkpt lat="43.917385" lon="12.3305183"><ele>228.25</ele><time>2026-04-11T07:44:50.986Z</time></trkpt><trkpt lat="43.9173617" lon="12.3303517"><ele>229.5</ele><time>2026-04-11T07:44:51.986Z</time></trkpt><trkpt lat="43.9173383" lon="12.3301767"><ele>230.75</ele><time>2026-04-11T07:44:52.986Z</time></trkpt><trkpt lat="43.9173133" lon="12.3299967"><ele>232.0</ele><time>2026-04-11T07:44:53.986Z</time></trkpt><trkpt lat="43.9172917" lon="12.329815"><ele>233.25</ele><time>2026-04-11T07:44:54.986Z</time></trkpt><trkpt lat="43.9172867" lon="12.3296417"><ele>234.5</ele><time>2026-04-11T07:44:55.986Z</time></trkpt><trkpt lat="43.9172983" lon="12.3294867"><ele>235.75</ele><time>2026-04-11T07:44:56.987Z</time></trkpt><trkpt lat="43.9173167" lon="12.3293433"><ele>237.0</ele><time>2026-04-11T07:44:57.987Z</time></trkpt><trkpt lat="43.917315" lon="12.329185"><ele>237.0</ele><time>2026-04-11T07:44:58.986Z</time></trkpt><trkpt lat="43.917305" lon="12.329025"><ele>237.0</ele><time>2026-04-11T07:44:59.986Z</time></trkpt><trkpt lat="43.9172717" lon="12.3288633"><ele>237.0</ele><time>2026-04-11T07:45:00.986Z</time></trkpt><trkpt lat="43.9172283" lon="12.328715"><ele>237.0</ele><time>2026-04-11T07:45:01.986Z</time></trkpt><trkpt lat="43.9171867" lon="12.3285917"><ele>238.0</ele><time>2026-04-11T07:45:02.987Z</time></trkpt><trkpt lat="43.9171667" lon="12.32846"><ele>239.0</ele><time>2026-04-11T07:45:03.986Z</time></trkpt><trkpt lat="43.9171567" lon="12.3283333"><ele>240.0</ele><time>2026-04-11T07:45:04.986Z</time></trkpt><trkpt lat="43.917155" lon="12.3282067"><ele>241.0</ele><time>2026-04-11T07:45:05.986Z</time></trkpt><trkpt lat="43.9171583" lon="12.32808"><ele>242.0</ele><time>2026-04-11T07:45:06.986Z</time></trkpt><trkpt lat="43.91714" lon="12.3279383"><ele>242.39999999999998</ele><time>2026-04-11T07:45:07.986Z</time></trkpt><trkpt lat="43.917115" lon="12.3277933"><ele>242.79999999999998</ele><time>2026-04-11T07:45:08.986Z</time></trkpt><trkpt lat="43.91708" lon="12.3276467"><ele>243.2</ele><time>2026-04-11T07:45:09.986Z</time></trkpt><trkpt lat="43.9170433" lon="12.3275067"><ele>243.6</ele><time>2026-04-11T07:45:10.987Z</time></trkpt><trkpt lat="43.9170017" lon="12.3273767"><ele>244.0</ele><time>2026-04-11T07:45:11.987Z</time></trkpt><trkpt lat="43.91696" lon="12.32727"><ele>244.66666666666666</ele><time>2026-04-11T07:45:12.987Z</time></trkpt><trkpt lat="43.916915" lon="12.3272067"><ele>245.33333333333331</ele><time>2026-04-11T07:45:13.986Z</time></trkpt><trkpt lat="43.916855" lon="12.3271617"><ele>246.0</ele><time>2026-04-11T07:45:14.986Z</time></trkpt><trkpt lat="43.9167717" lon="12.3271333"><ele>246.66666666666669</ele><time>2026-04-11T07:45:15.986Z</time></trkpt><trkpt lat="43.9166717" lon="12.327115"><ele>247.33333333333334</ele><time>2026-04-11T07:45:16.986Z</time></trkpt><trkpt lat="43.9165667" lon="12.3270917"><ele>248.0</ele><time>2026-04-11T07:45:17.986Z</time></trkpt><trkpt lat="43.9164817" lon="12.3270317"><ele>248.0</ele><time>2026-04-11T07:45:18.986Z</time></trkpt><trkpt lat="43.9163367" lon="12.3268033"><ele>248.0</ele><time>2026-04-11T07:45:20.986Z</time></trkpt><trkpt lat="43.9162817" lon="12.326675"><ele>248.0</ele><time>2026-04-11T07:45:21.987Z</time></trkpt><trkpt lat="43.91623" lon="12.326545"><ele>248.0</ele><time>2026-04-11T07:45:22.986Z</time></trkpt><trkpt lat="43.9161633" lon="12.3263983"><ele>247.25</ele><time>2026-04-11T07:45:23.986Z</time></trkpt><trkpt lat="43.916115" lon="12.3262233"><ele>246.5</ele><time>2026-04-11T07:45:24.986Z</time></trkpt><trkpt lat="43.9160733" lon="12.326045"><ele>245.75</ele><time>2026-04-11T07:45:25.986Z</time></trkpt><trkpt lat="43.9160517" lon="12.3258733"><ele>245.0</ele><time>2026-04-11T07:45:26.986Z</time></trkpt><trkpt lat="43.91603" lon="12.3257433"><ele>245.0</ele><time>2026-04-11T07:45:27.985Z</time></trkpt><trkpt lat="43.9160083" lon="12.3256267"><ele>245.0</ele><time>2026-04-11T07:45:28.985Z</time></trkpt><trkpt lat="43.9159883" lon="12.32549"><ele>245.0</ele><time>2026-04-11T07:45:30.985Z</time></trkpt><trkpt lat="43.9160367" lon="12.32535"><ele>245.0</ele><time>2026-04-11T07:45:32.985Z</time></trkpt><trkpt lat="43.9160717" lon="12.325245"><ele>245.0</ele><time>2026-04-11T07:45:33.985Z</time></trkpt><trkpt lat="43.91609" lon="12.3251267"><ele>245.2</ele><time>2026-04-11T07:45:34.986Z</time></trkpt><trkpt lat="43.916095" lon="12.3249983"><ele>245.4</ele><time>2026-04-11T07:45:35.985Z</time></trkpt><trkpt lat="43.9160967" lon="12.3248617"><ele>245.60000000000002</ele><time>2026-04-11T07:45:36.985Z</time></trkpt><trkpt lat="43.9160767" lon="12.32471"><ele>245.8</ele><time>2026-04-11T07:45:37.986Z</time></trkpt><trkpt lat="43.91605" lon="12.3245383"><ele>246.0</ele><time>2026-04-11T07:45:38.985Z</time></trkpt><trkpt lat="43.91603" lon="12.3243717"><ele>246.0</ele><time>2026-04-11T07:45:39.986Z</time></trkpt><trkpt lat="43.916015" lon="12.32421"><ele>246.00000000000003</ele><time>2026-04-11T07:45:40.985Z</time></trkpt><trkpt lat="43.9160083" lon="12.3240567"><ele>246.00000000000003</ele><time>2026-04-11T07:45:41.985Z</time></trkpt><trkpt lat="43.9160183" lon="12.3239117"><ele>246.0</ele><time>2026-04-11T07:45:42.986Z</time></trkpt><trkpt lat="43.9160233" lon="12.323775"><ele>246.0</ele><time>2026-04-11T07:45:43.985Z</time></trkpt><trkpt lat="43.916035" lon="12.3236267"><ele>244.60000000000002</ele><time>2026-04-11T07:45:44.985Z</time></trkpt><trkpt lat="43.9160467" lon="12.3234883"><ele>243.20000000000002</ele><time>2026-04-11T07:45:45.985Z</time></trkpt><trkpt lat="43.9160583" lon="12.3233367"><ele>241.79999999999998</ele><time>2026-04-11T07:45:46.985Z</time></trkpt><trkpt lat="43.9160733" lon="12.3231883"><ele>240.39999999999998</ele><time>2026-04-11T07:45:47.985Z</time></trkpt><trkpt lat="43.9160883" lon="12.3230583"><ele>239.0</ele><time>2026-04-11T07:45:48.986Z</time></trkpt><trkpt lat="43.9160783" lon="12.3229167"><ele>235.75</ele><time>2026-04-11T07:45:49.985Z</time></trkpt><trkpt lat="43.9160517" lon="12.3227733"><ele>232.5</ele><time>2026-04-11T07:45:50.985Z</time></trkpt><trkpt lat="43.9160083" lon="12.3226317"><ele>229.25</ele><time>2026-04-11T07:45:51.985Z</time></trkpt><trkpt lat="43.9159367" lon="12.3224933"><ele>226.0</ele><time>2026-04-11T07:45:52.985Z</time></trkpt><trkpt lat="43.9158483" lon="12.322345"><ele>224.0</ele><time>2026-04-11T07:45:53.985Z</time></trkpt><trkpt lat="43.915735" lon="12.32221"><ele>222.0</ele><time>2026-04-11T07:45:54.985Z</time></trkpt><trkpt lat="43.9156333" lon="12.3220633"><ele>220.0</ele><time>2026-04-11T07:45:55.985Z</time></trkpt><trkpt lat="43.9155317" lon="12.3219083"><ele>218.0</ele><time>2026-04-11T07:45:56.985Z</time></trkpt><trkpt lat="43.91544" lon="12.3217267"><ele>218.0</ele><time>2026-04-11T07:45:57.985Z</time></trkpt><trkpt lat="43.9153417" lon="12.321535"><ele>218.0</ele><time>2026-04-11T07:45:58.985Z</time></trkpt><trkpt lat="43.9152633" lon="12.3213383"><ele>218.0</ele><time>2026-04-11T07:45:59.985Z</time></trkpt><trkpt lat="43.9152117" lon="12.3211217"><ele>217.0</ele><time>2026-04-11T07:46:00.985Z</time></trkpt><trkpt lat="43.9151717" lon="12.3209"><ele>216.0</ele><time>2026-04-11T07:46:01.985Z</time></trkpt><trkpt lat="43.9151367" lon="12.3206783"><ele>215.0</ele><time>2026-04-11T07:46:02.985Z</time></trkpt><trkpt lat="43.9151133" lon="12.3204583"><ele>214.75</ele><time>2026-04-11T07:46:03.985Z</time></trkpt><trkpt lat="43.91509" lon="12.3202367"><ele>214.5</ele><time>2026-04-11T07:46:04.985Z</time></trkpt><trkpt lat="43.9150683" lon="12.320035"><ele>214.25</ele><time>2026-04-11T07:46:05.985Z</time></trkpt><trkpt lat="43.9150483" lon="12.319845"><ele>214.0</ele><time>2026-04-11T07:46:06.986Z</time></trkpt><trkpt lat="43.9150283" lon="12.3196667"><ele>213.5</ele><time>2026-04-11T07:46:07.986Z</time></trkpt><trkpt lat="43.915015" lon="12.3194833"><ele>213.0</ele><time>2026-04-11T07:46:08.985Z</time></trkpt><trkpt lat="43.9150133" lon="12.319325"><ele>212.5</ele><time>2026-04-11T07:46:09.985Z</time></trkpt><trkpt lat="43.91504" lon="12.3191667"><ele>212.0</ele><time>2026-04-11T07:46:10.985Z</time></trkpt><trkpt lat="43.915085" lon="12.3190083"><ele>211.75</ele><time>2026-04-11T07:46:11.985Z</time></trkpt><trkpt lat="43.91515" lon="12.3188583"><ele>211.5</ele><time>2026-04-11T07:46:12.985Z</time></trkpt><trkpt lat="43.9152317" lon="12.318725"><ele>211.25</ele><time>2026-04-11T07:46:13.985Z</time></trkpt><trkpt lat="43.91533" lon="12.3186017"><ele>211.0</ele><time>2026-04-11T07:46:14.985Z</time></trkpt><trkpt lat="43.91543" lon="12.3184983"><ele>211.0</ele><time>2026-04-11T07:46:15.985Z</time></trkpt><trkpt lat="43.91553" lon="12.3184217"><ele>211.0</ele><time>2026-04-11T07:46:16.985Z</time></trkpt><trkpt lat="43.9156417" lon="12.3183617"><ele>211.0</ele><time>2026-04-11T07:46:17.986Z</time></trkpt><trkpt lat="43.9157683" lon="12.31831"><ele>211.0</ele><time>2026-04-11T07:46:18.985Z</time></trkpt><trkpt lat="43.9158983" lon="12.318265"><ele>210.75</ele><time>2026-04-11T07:46:19.986Z</time></trkpt><trkpt lat="43.916035" lon="12.3182217"><ele>210.5</ele><time>2026-04-11T07:46:20.985Z</time></trkpt><trkpt lat="43.916175" lon="12.3181767"><ele>210.25</ele><time>2026-04-11T07:46:21.985Z</time></trkpt><trkpt lat="43.9163233" lon="12.3181267"><ele>210.0</ele><time>2026-04-11T07:46:22.984Z</time></trkpt><trkpt lat="43.9164683" lon="12.3180583"><ele>209.0</ele><time>2026-04-11T07:46:23.986Z</time></trkpt><trkpt lat="43.91661" lon="12.317965"><ele>208.0</ele><time>2026-04-11T07:46:24.985Z</time></trkpt><trkpt lat="43.9167517" lon="12.3178133"><ele>207.0</ele><time>2026-04-11T07:46:25.985Z</time></trkpt><trkpt lat="43.9168917" lon="12.3176217"><ele>207.0</ele><time>2026-04-11T07:46:26.985Z</time></trkpt><trkpt lat="43.917025" lon="12.317425"><ele>207.0</ele><time>2026-04-11T07:46:27.985Z</time></trkpt><trkpt lat="43.9171667" lon="12.31721"><ele>207.0</ele><time>2026-04-11T07:46:28.985Z</time></trkpt><trkpt lat="43.9173167" lon="12.3169983"><ele>207.0</ele><time>2026-04-11T07:46:29.985Z</time></trkpt><trkpt lat="43.91747" lon="12.3168"><ele>207.0</ele><time>2026-04-11T07:46:30.986Z</time></trkpt><trkpt lat="43.9176217" lon="12.31658"><ele>207.0</ele><time>2026-04-11T07:46:31.985Z</time></trkpt><trkpt lat="43.9177683" lon="12.3163683"><ele>206.66666666666669</ele><time>2026-04-11T07:46:32.985Z</time></trkpt><trkpt lat="43.917915" lon="12.3161567"><ele>206.33333333333334</ele><time>2026-04-11T07:46:33.985Z</time></trkpt><trkpt lat="43.9180633" lon="12.3159333"><ele>206.0</ele><time>2026-04-11T07:46:34.985Z</time></trkpt><trkpt lat="43.9182117" lon="12.3157283"><ele>206.33333333333334</ele><time>2026-04-11T07:46:35.985Z</time></trkpt><trkpt lat="43.9183583" lon="12.31552"><ele>206.66666666666669</ele><time>2026-04-11T07:46:36.985Z</time></trkpt><trkpt lat="43.918505" lon="12.315315"><ele>207.0</ele><time>2026-04-11T07:46:37.985Z</time></trkpt><trkpt lat="43.9186517" lon="12.31511"><ele>206.33333333333331</ele><time>2026-04-11T07:46:38.985Z</time></trkpt><trkpt lat="43.918795" lon="12.31491"><ele>205.66666666666666</ele><time>2026-04-11T07:46:39.985Z</time></trkpt><trkpt lat="43.918935" lon="12.3147067"><ele>205.0</ele><time>2026-04-11T07:46:40.985Z</time></trkpt><trkpt lat="43.9190683" lon="12.3145133"><ele>205.0</ele><time>2026-04-11T07:46:41.985Z</time></trkpt><trkpt lat="43.9191967" lon="12.31431"><ele>205.0</ele><time>2026-04-11T07:46:42.985Z</time></trkpt><trkpt lat="43.9193283" lon="12.3141117"><ele>205.0</ele><time>2026-04-11T07:46:43.985Z</time></trkpt><trkpt lat="43.919465" lon="12.313925"><ele>205.0</ele><time>2026-04-11T07:46:44.985Z</time></trkpt><trkpt lat="43.9195967" lon="12.3137317"><ele>205.0</ele><time>2026-04-11T07:46:45.985Z</time></trkpt><trkpt lat="43.9197317" lon="12.3135367"><ele>205.0</ele><time>2026-04-11T07:46:46.985Z</time></trkpt><trkpt lat="43.9198617" lon="12.3133567"><ele>205.0</ele><time>2026-04-11T07:46:47.985Z</time></trkpt><trkpt lat="43.9199867" lon="12.3131867"><ele>205.0</ele><time>2026-04-11T07:46:48.986Z</time></trkpt><trkpt lat="43.9201083" lon="12.3130267"><ele>205.0</ele><time>2026-04-11T07:46:49.985Z</time></trkpt><trkpt lat="43.920215" lon="12.3128767"><ele>205.75</ele><time>2026-04-11T07:46:50.985Z</time></trkpt><trkpt lat="43.9203183" lon="12.3127417"><ele>206.5</ele><time>2026-04-11T07:46:51.985Z</time></trkpt><trkpt lat="43.9204167" lon="12.3126183"><ele>207.25</ele><time>2026-04-11T07:46:52.985Z</time></trkpt><trkpt lat="43.9205017" lon="12.3125067"><ele>208.0</ele><time>2026-04-11T07:46:53.985Z</time></trkpt><trkpt lat="43.920565" lon="12.3124033"><ele>208.0</ele><time>2026-04-11T07:46:54.985Z</time></trkpt><trkpt lat="43.920625" lon="12.3123233"><ele>208.0</ele><time>2026-04-11T07:46:55.985Z</time></trkpt><trkpt lat="43.9206817" lon="12.312255"><ele>208.0</ele><time>2026-04-11T07:46:57.985Z</time></trkpt><trkpt lat="43.9208067" lon="12.31232"><ele>208.0</ele><time>2026-04-11T07:47:04.985Z</time></trkpt><trkpt lat="43.9208817" lon="12.3123933"><ele>208.0</ele><time>2026-04-11T07:47:05.985Z</time></trkpt><trkpt lat="43.9209567" lon="12.3124683"><ele>208.0</ele><time>2026-04-11T07:47:06.985Z</time></trkpt><trkpt lat="43.921045" lon="12.3125683"><ele>208.0</ele><time>2026-04-11T07:47:07.986Z</time></trkpt><trkpt lat="43.9211517" lon="12.3126717"><ele>208.0</ele><time>2026-04-11T07:47:08.985Z</time></trkpt><trkpt lat="43.9212617" lon="12.3127817"><ele>208.0</ele><time>2026-04-11T07:47:09.986Z</time></trkpt><trkpt lat="43.92137" lon="12.3128933"><ele>208.0</ele><time>2026-04-11T07:47:10.985Z</time></trkpt><trkpt lat="43.9214717" lon="12.3129933"><ele>208.0</ele><time>2026-04-11T07:47:11.985Z</time></trkpt><trkpt lat="43.9215783" lon="12.3131067"><ele>208.0</ele><time>2026-04-11T07:47:12.985Z</time></trkpt><trkpt lat="43.921685" lon="12.3132317"><ele>208.0</ele><time>2026-04-11T07:47:13.985Z</time></trkpt><trkpt lat="43.9217967" lon="12.3133583"><ele>209.0</ele><time>2026-04-11T07:47:14.986Z</time></trkpt><trkpt lat="43.9219083" lon="12.313505"><ele>210.0</ele><time>2026-04-11T07:47:15.985Z</time></trkpt><trkpt lat="43.9220033" lon="12.3136533"><ele>211.0</ele><time>2026-04-11T07:47:16.985Z</time></trkpt><trkpt lat="43.9221" lon="12.313805"><ele>212.0</ele><time>2026-04-11T07:47:17.985Z</time></trkpt><trkpt lat="43.9222067" lon="12.313965"><ele>212.0</ele><time>2026-04-11T07:47:18.985Z</time></trkpt><trkpt lat="43.92231" lon="12.3141333"><ele>212.0</ele><time>2026-04-11T07:47:19.985Z</time></trkpt><trkpt lat="43.922405" lon="12.3142983"><ele>212.0</ele><time>2026-04-11T07:47:20.985Z</time></trkpt><trkpt lat="43.9225067" lon="12.3144533"><ele>213.25</ele><time>2026-04-11T07:47:21.985Z</time></trkpt><trkpt lat="43.922595" lon="12.3145983"><ele>214.5</ele><time>2026-04-11T07:47:22.985Z</time></trkpt><trkpt lat="43.9226783" lon="12.3147267"><ele>215.75</ele><time>2026-04-11T07:47:23.985Z</time></trkpt><trkpt lat="43.922755" lon="12.3148683"><ele>217.0</ele><time>2026-04-11T07:47:24.985Z</time></trkpt><trkpt lat="43.922825" lon="12.3150117"><ele>217.0</ele><time>2026-04-11T07:47:25.985Z</time></trkpt><trkpt lat="43.9228833" lon="12.31516"><ele>217.0</ele><time>2026-04-11T07:47:26.985Z</time></trkpt><trkpt lat="43.9229267" lon="12.315305"><ele>217.0</ele><time>2026-04-11T07:47:27.986Z</time></trkpt><trkpt lat="43.9229783" lon="12.3154583"><ele>217.0</ele><time>2026-04-11T07:47:28.985Z</time></trkpt><trkpt lat="43.9230233" lon="12.3156067"><ele>217.0</ele><time>2026-04-11T07:47:29.985Z</time></trkpt><trkpt lat="43.9230683" lon="12.3157683"><ele>217.0</ele><time>2026-04-11T07:47:30.985Z</time></trkpt><trkpt lat="43.9231233" lon="12.3159317"><ele>217.0</ele><time>2026-04-11T07:47:31.985Z</time></trkpt><trkpt lat="43.92318" lon="12.3160833"><ele>217.0</ele><time>2026-04-11T07:47:32.985Z</time></trkpt><trkpt lat="43.9232517" lon="12.31622"><ele>217.0</ele><time>2026-04-11T07:47:33.985Z</time></trkpt><trkpt lat="43.923335" lon="12.31635"><ele>217.0</ele><time>2026-04-11T07:47:34.985Z</time></trkpt><trkpt lat="43.92342" lon="12.3164717"><ele>217.0</ele><time>2026-04-11T07:47:35.985Z</time></trkpt><trkpt lat="43.923495" lon="12.3165733"><ele>217.0</ele><time>2026-04-11T07:47:36.985Z</time></trkpt><trkpt lat="43.9235733" lon="12.3166783"><ele>216.2</ele><time>2026-04-11T07:47:37.985Z</time></trkpt><trkpt lat="43.9236533" lon="12.3167867"><ele>215.39999999999998</ele><time>2026-04-11T07:47:38.985Z</time></trkpt><trkpt lat="43.923735" lon="12.3168883"><ele>214.60000000000002</ele><time>2026-04-11T07:47:39.986Z</time></trkpt><trkpt lat="43.9238033" lon="12.3169833"><ele>213.8</ele><time>2026-04-11T07:47:40.985Z</time></trkpt><trkpt lat="43.9238767" lon="12.31708"><ele>213.0</ele><time>2026-04-11T07:47:41.986Z</time></trkpt><trkpt lat="43.92395" lon="12.317175"><ele>213.0</ele><time>2026-04-11T07:47:42.985Z</time></trkpt><trkpt lat="43.9240317" lon="12.3172983"><ele>213.0</ele><time>2026-04-11T07:47:43.986Z</time></trkpt><trkpt lat="43.924115" lon="12.3173967"><ele>213.0</ele><time>2026-04-11T07:47:44.985Z</time></trkpt><trkpt lat="43.9242" lon="12.3174983"><ele>213.0</ele><time>2026-04-11T07:47:45.985Z</time></trkpt><trkpt lat="43.9242683" lon="12.3176"><ele>213.0</ele><time>2026-04-11T07:47:46.985Z</time></trkpt><trkpt lat="43.924335" lon="12.3176883"><ele>213.33333333333334</ele><time>2026-04-11T07:47:47.986Z</time></trkpt><trkpt lat="43.924405" lon="12.3177533"><ele>213.66666666666669</ele><time>2026-04-11T07:47:48.985Z</time></trkpt><trkpt lat="43.92447" lon="12.3178183"><ele>214.0</ele><time>2026-04-11T07:47:49.985Z</time></trkpt><trkpt lat="43.9245733" lon="12.31789"><ele>214.33333333333334</ele><time>2026-04-11T07:47:51.985Z</time></trkpt><trkpt lat="43.924645" lon="12.3178583"><ele>214.66666666666669</ele><time>2026-04-11T07:47:53.985Z</time></trkpt><trkpt lat="43.92464" lon="12.31773"><ele>215.0</ele><time>2026-04-11T07:47:55.986Z</time></trkpt><trkpt lat="43.9246033" lon="12.317655"><ele>215.0</ele><time>2026-04-11T07:47:56.985Z</time></trkpt><trkpt lat="43.9245533" lon="12.3175717"><ele>215.0</ele><time>2026-04-11T07:47:57.985Z</time></trkpt><trkpt lat="43.9245033" lon="12.3174717"><ele>215.0</ele><time>2026-04-11T07:47:58.985Z</time></trkpt><trkpt lat="43.9244567" lon="12.3173617"><ele>215.0</ele><time>2026-04-11T07:47:59.986Z</time></trkpt><trkpt lat="43.9244133" lon="12.3172383"><ele>215.0</ele><time>2026-04-11T07:48:00.985Z</time></trkpt><trkpt lat="43.9243667" lon="12.3171033"><ele>215.25</ele><time>2026-04-11T07:48:01.985Z</time></trkpt><trkpt lat="43.9243183" lon="12.3169583"><ele>215.5</ele><time>2026-04-11T07:48:02.985Z</time></trkpt><trkpt lat="43.9242717" lon="12.3168183"><ele>215.75</ele><time>2026-04-11T07:48:03.985Z</time></trkpt><trkpt lat="43.92421" lon="12.316665"><ele>216.0</ele><time>2026-04-11T07:48:04.985Z</time></trkpt><trkpt lat="43.9241467" lon="12.3165167"><ele>216.25</ele><time>2026-04-11T07:48:05.985Z</time></trkpt><trkpt lat="43.9241017" lon="12.3163633"><ele>216.5</ele><time>2026-04-11T07:48:06.985Z</time></trkpt><trkpt lat="43.92405" lon="12.3162067"><ele>216.75</ele><time>2026-04-11T07:48:07.985Z</time></trkpt><trkpt lat="43.924" lon="12.3160567"><ele>217.0</ele><time>2026-04-11T07:48:08.985Z</time></trkpt><trkpt lat="43.9239483" lon="12.3159033"><ele>217.0</ele><time>2026-04-11T07:48:09.985Z</time></trkpt><trkpt lat="43.9239" lon="12.3157567"><ele>217.0</ele><time>2026-04-11T07:48:10.985Z</time></trkpt><trkpt lat="43.9238417" lon="12.315615"><ele>217.0</ele><time>2026-04-11T07:48:11.985Z</time></trkpt><trkpt lat="43.92378" lon="12.3154633"><ele>217.0</ele><time>2026-04-11T07:48:12.986Z</time></trkpt><trkpt lat="43.92372" lon="12.3153133"><ele>217.75</ele><time>2026-04-11T07:48:13.986Z</time></trkpt><trkpt lat="43.9236633" lon="12.31516"><ele>218.5</ele><time>2026-04-11T07:48:14.985Z</time></trkpt><trkpt lat="43.9236167" lon="12.3150017"><ele>219.25</ele><time>2026-04-11T07:48:15.985Z</time></trkpt><trkpt lat="43.9235733" lon="12.3148417"><ele>220.0</ele><time>2026-04-11T07:48:16.985Z</time></trkpt><trkpt lat="43.923535" lon="12.3146933"><ele>219.8</ele><time>2026-04-11T07:48:17.985Z</time></trkpt><trkpt lat="43.923505" lon="12.3145483"><ele>219.6</ele><time>2026-04-11T07:48:18.985Z</time></trkpt><trkpt lat="43.92348" lon="12.3144033"><ele>219.39999999999998</ele><time>2026-04-11T07:48:19.985Z</time></trkpt><trkpt lat="43.923455" lon="12.3142483"><ele>219.2</ele><time>2026-04-11T07:48:20.986Z</time></trkpt><trkpt lat="43.9234217" lon="12.3140917"><ele>219.0</ele><time>2026-04-11T07:48:21.985Z</time></trkpt><trkpt lat="43.9233833" lon="12.313935"><ele>219.75</ele><time>2026-04-11T07:48:22.985Z</time></trkpt><trkpt lat="43.923335" lon="12.313785"><ele>220.5</ele><time>2026-04-11T07:48:23.985Z</time></trkpt><trkpt lat="43.92328" lon="12.3136417"><ele>221.25</ele><time>2026-04-11T07:48:24.985Z</time></trkpt><trkpt lat="43.9232367" lon="12.31349"><ele>222.0</ele><time>2026-04-11T07:48:25.985Z</time></trkpt><trkpt lat="43.9231933" lon="12.3133333"><ele>222.0</ele><time>2026-04-11T07:48:26.986Z</time></trkpt><trkpt lat="43.92316" lon="12.3131683"><ele>222.0</ele><time>2026-04-11T07:48:27.985Z</time></trkpt><trkpt lat="43.9231433" lon="12.313015"><ele>222.0</ele><time>2026-04-11T07:48:28.986Z</time></trkpt><trkpt lat="43.92313" lon="12.312865"><ele>222.0</ele><time>2026-04-11T07:48:29.985Z</time></trkpt><trkpt lat="43.923135" lon="12.312725"><ele>222.0</ele><time>2026-04-11T07:48:30.985Z</time></trkpt><trkpt lat="43.923155" lon="12.3126067"><ele>222.66666666666666</ele><time>2026-04-11T07:48:31.985Z</time></trkpt><trkpt lat="43.9231917" lon="12.3125"><ele>223.33333333333331</ele><time>2026-04-11T07:48:32.986Z</time></trkpt><trkpt lat="43.9232433" lon="12.312405"><ele>224.0</ele><time>2026-04-11T07:48:33.985Z</time></trkpt><trkpt lat="43.9233" lon="12.3123267"><ele>224.66666666666666</ele><time>2026-04-11T07:48:34.985Z</time></trkpt><trkpt lat="43.9233533" lon="12.3122367"><ele>225.33333333333331</ele><time>2026-04-11T07:48:35.985Z</time></trkpt><trkpt lat="43.923415" lon="12.3121383"><ele>226.0</ele><time>2026-04-11T07:48:36.985Z</time></trkpt><trkpt lat="43.9234717" lon="12.3120617"><ele>229.0</ele><time>2026-04-11T07:48:37.985Z</time></trkpt><trkpt lat="43.9235533" lon="12.3119917"><ele>232.00000000000003</ele><time>2026-04-11T07:48:38.985Z</time></trkpt><trkpt lat="43.92363" lon="12.3119383"><ele>235.00000000000003</ele><time>2026-04-11T07:48:39.986Z</time></trkpt><trkpt lat="43.9237133" lon="12.3118833"><ele>238.0</ele><time>2026-04-11T07:48:40.985Z</time></trkpt><trkpt lat="43.9238117" lon="12.3118517"><ele>241.0</ele><time>2026-04-11T07:48:41.985Z</time></trkpt><trkpt lat="43.923905" lon="12.31184"><ele>240.99999999999997</ele><time>2026-04-11T07:48:42.986Z</time></trkpt><trkpt lat="43.924005" lon="12.3118417"><ele>241.0</ele><time>2026-04-11T07:48:43.985Z</time></trkpt><trkpt lat="43.9241017" lon="12.3118433"><ele>241.0</ele><time>2026-04-11T07:48:44.985Z</time></trkpt><trkpt lat="43.9241917" lon="12.3118383"><ele>241.0</ele><time>2026-04-11T07:48:45.986Z</time></trkpt><trkpt lat="43.9242633" lon="12.311815"><ele>240.99999999999997</ele><time>2026-04-11T07:48:46.985Z</time></trkpt><trkpt lat="43.9243317" lon="12.3117733"><ele>241.0</ele><time>2026-04-11T07:48:47.985Z</time></trkpt><trkpt lat="43.9243833" lon="12.3117"><ele>242.14285714285717</ele><time>2026-04-11T07:48:48.985Z</time></trkpt><trkpt lat="43.92443" lon="12.31162"><ele>243.2857142857143</ele><time>2026-04-11T07:48:49.985Z</time></trkpt><trkpt lat="43.9244617" lon="12.3115233"><ele>244.42857142857144</ele><time>2026-04-11T07:48:50.986Z</time></trkpt><trkpt lat="43.924495" lon="12.3114383"><ele>245.57142857142856</ele><time>2026-04-11T07:48:51.985Z</time></trkpt><trkpt lat="43.9245333" lon="12.3113433"><ele>246.7142857142857</ele><time>2026-04-11T07:48:52.986Z</time></trkpt><trkpt lat="43.9245633" lon="12.3112483"><ele>247.85714285714283</ele><time>2026-04-11T07:48:53.985Z</time></trkpt><trkpt lat="43.9246" lon="12.31117"><ele>249.0</ele><time>2026-04-11T07:48:54.985Z</time></trkpt><trkpt lat="43.9246433" lon="12.3111"><ele>249.0</ele><time>2026-04-11T07:48:55.985Z</time></trkpt><trkpt lat="43.9247" lon="12.3110367"><ele>249.0</ele><time>2026-04-11T07:48:56.985Z</time></trkpt><trkpt lat="43.9247933" lon="12.3109633"><ele>249.0</ele><time>2026-04-11T07:48:58.986Z</time></trkpt><trkpt lat="43.9248717" lon="12.310955"><ele>249.0</ele><time>2026-04-11T07:49:00.986Z</time></trkpt><trkpt lat="43.9249317" lon="12.3109867"><ele>249.0</ele><time>2026-04-11T07:49:02.985Z</time></trkpt><trkpt lat="43.9249817" lon="12.3110633"><ele>249.0</ele><time>2026-04-11T07:49:05.985Z</time></trkpt><trkpt lat="43.9250467" lon="12.3111183"><ele>249.0</ele><time>2026-04-11T07:49:07.985Z</time></trkpt><trkpt lat="43.9251033" lon="12.3111617"><ele>248.99999999999997</ele><time>2026-04-11T07:49:10.985Z</time></trkpt><trkpt lat="43.9250483" lon="12.3110867"><ele>248.99999999999997</ele><time>2026-04-11T07:49:15.985Z</time></trkpt><trkpt lat="43.92496" lon="12.311035"><ele>249.0</ele><time>2026-04-11T07:49:17.985Z</time></trkpt><trkpt lat="43.924845" lon="12.3109917"><ele>249.0</ele><time>2026-04-11T07:49:19.985Z</time></trkpt><trkpt lat="43.9247333" lon="12.3110033"><ele>249.0</ele><time>2026-04-11T07:49:21.985Z</time></trkpt><trkpt lat="43.9246317" lon="12.3110283"><ele>248.99999999999997</ele><time>2026-04-11T07:49:23.985Z</time></trkpt><trkpt lat="43.924565" lon="12.3111117"><ele>248.99999999999997</ele><time>2026-04-11T07:49:26.986Z</time></trkpt><trkpt lat="43.9245183" lon="12.3112017"><ele>249.0</ele><time>2026-04-11T07:49:28.985Z</time></trkpt><trkpt lat="43.9244483" lon="12.3113667"><ele>249.0</ele><time>2026-04-11T07:49:30.985Z</time></trkpt><trkpt lat="43.924405" lon="12.3114883"><ele>249.57142857142856</ele><time>2026-04-11T07:49:31.985Z</time></trkpt><trkpt lat="43.9243667" lon="12.311605"><ele>250.1428571428571</ele><time>2026-04-11T07:49:32.985Z</time></trkpt><trkpt lat="43.9243317" lon="12.31169"><ele>250.71428571428572</ele><time>2026-04-11T07:49:33.986Z</time></trkpt><trkpt lat="43.924295" lon="12.3117633"><ele>251.28571428571428</ele><time>2026-04-11T07:49:34.986Z</time></trkpt><trkpt lat="43.92424" lon="12.3118083"><ele>251.85714285714286</ele><time>2026-04-11T07:49:35.985Z</time></trkpt><trkpt lat="43.9241683" lon="12.31184"><ele>252.42857142857144</ele><time>2026-04-11T07:49:36.985Z</time></trkpt><trkpt lat="43.92409" lon="12.311855"><ele>253.00000000000003</ele><time>2026-04-11T07:49:37.985Z</time></trkpt><trkpt lat="43.9240067" lon="12.31186"><ele>250.60000000000002</ele><time>2026-04-11T07:49:38.985Z</time></trkpt><trkpt lat="43.92393" lon="12.3118667"><ele>248.20000000000002</ele><time>2026-04-11T07:49:39.985Z</time></trkpt><trkpt lat="43.9238217" lon="12.311865"><ele>245.8</ele><time>2026-04-11T07:49:41.984Z</time></trkpt><trkpt lat="43.92375" lon="12.3118583"><ele>243.4</ele><time>2026-04-11T07:49:45.984Z</time></trkpt><trkpt lat="43.9236367" lon="12.31194"><ele>241.0</ele><time>2026-04-11T07:49:47.984Z</time></trkpt><trkpt lat="43.9235583" lon="12.31201"><ele>240.99999999999997</ele><time>2026-04-11T07:49:48.984Z</time></trkpt><trkpt lat="43.9234817" lon="12.3120667"><ele>241.0</ele><time>2026-04-11T07:49:49.985Z</time></trkpt><trkpt lat="43.923415" lon="12.3121217"><ele>241.0</ele><time>2026-04-11T07:49:50.984Z</time></trkpt><trkpt lat="43.923365" lon="12.3121767"><ele>241.0</ele><time>2026-04-11T07:49:51.984Z</time></trkpt><trkpt lat="43.9233083" lon="12.3122317"><ele>240.99999999999997</ele><time>2026-04-11T07:49:52.984Z</time></trkpt><trkpt lat="43.9232283" lon="12.31227"><ele>241.0</ele><time>2026-04-11T07:49:54.984Z</time></trkpt><trkpt lat="43.9231367" lon="12.3121733"><ele>238.83333333333331</ele><time>2026-04-11T07:49:56.984Z</time></trkpt><trkpt lat="43.9231233" lon="12.3119967"><ele>236.66666666666666</ele><time>2026-04-11T07:49:58.984Z</time></trkpt><trkpt lat="43.9231333" lon="12.3118967"><ele>234.5</ele><time>2026-04-11T07:49:59.984Z</time></trkpt><trkpt lat="43.92315" lon="12.3117983"><ele>232.33333333333331</ele><time>2026-04-11T07:50:00.984Z</time></trkpt><trkpt lat="43.9231717" lon="12.3117033"><ele>230.16666666666666</ele><time>2026-04-11T07:50:01.985Z</time></trkpt><trkpt lat="43.9232067" lon="12.3116183"><ele>228.0</ele><time>2026-04-11T07:50:02.985Z</time></trkpt><trkpt lat="43.9232333" lon="12.3115233"><ele>228.0</ele><time>2026-04-11T07:50:03.984Z</time></trkpt><trkpt lat="43.9232733" lon="12.31144"><ele>228.0</ele><time>2026-04-11T07:50:04.984Z</time></trkpt><trkpt lat="43.923325" lon="12.3113517"><ele>228.0</ele><time>2026-04-11T07:50:05.984Z</time></trkpt><trkpt lat="43.9233683" lon="12.311265"><ele>228.0</ele><time>2026-04-11T07:50:06.984Z</time></trkpt><trkpt lat="43.9234117" lon="12.3111717"><ele>228.0</ele><time>2026-04-11T07:50:07.984Z</time></trkpt><trkpt lat="43.9234633" lon="12.3110733"><ele>228.0</ele><time>2026-04-11T07:50:08.984Z</time></trkpt><trkpt lat="43.92351" lon="12.3109783"><ele>228.2</ele><time>2026-04-11T07:50:09.984Z</time></trkpt><trkpt lat="43.9235533" lon="12.3108733"><ele>228.4</ele><time>2026-04-11T07:50:10.984Z</time></trkpt><trkpt lat="43.9235967" lon="12.3107683"><ele>228.59999999999997</ele><time>2026-04-11T07:50:11.984Z</time></trkpt><trkpt lat="43.9236483" lon="12.3106667"><ele>228.79999999999998</ele><time>2026-04-11T07:50:12.984Z</time></trkpt><trkpt lat="43.9237" lon="12.3105533"><ele>229.0</ele><time>2026-04-11T07:50:13.984Z</time></trkpt><trkpt lat="43.9237567" lon="12.3104517"><ele>229.0</ele><time>2026-04-11T07:50:14.984Z</time></trkpt><trkpt lat="43.9238067" lon="12.3103483"><ele>228.99999999999997</ele><time>2026-04-11T07:50:15.985Z</time></trkpt><trkpt lat="43.9238567" lon="12.3102383"><ele>228.99999999999997</ele><time>2026-04-11T07:50:16.984Z</time></trkpt><trkpt lat="43.9239033" lon="12.3101183"><ele>229.0</ele><time>2026-04-11T07:50:17.985Z</time></trkpt><trkpt lat="43.9239633" lon="12.3099967"><ele>229.0</ele><time>2026-04-11T07:50:18.984Z</time></trkpt><trkpt lat="43.9240167" lon="12.3098767"><ele>229.0</ele><time>2026-04-11T07:50:19.984Z</time></trkpt><trkpt lat="43.9240783" lon="12.309745"><ele>228.99999999999997</ele><time>2026-04-11T07:50:20.984Z</time></trkpt><trkpt lat="43.9241383" lon="12.30962"><ele>228.99999999999997</ele><time>2026-04-11T07:50:21.984Z</time></trkpt><trkpt lat="43.924175" lon="12.30949"><ele>229.0</ele><time>2026-04-11T07:50:22.984Z</time></trkpt><trkpt lat="43.9241883" lon="12.309355"><ele>229.0</ele><time>2026-04-11T07:50:23.984Z</time></trkpt><trkpt lat="43.9242017" lon="12.309245"><ele>228.0</ele><time>2026-04-11T07:50:24.985Z</time></trkpt><trkpt lat="43.92421" lon="12.3091033"><ele>226.99999999999997</ele><time>2026-04-11T07:50:26.984Z</time></trkpt><trkpt lat="43.9241667" lon="12.30903"><ele>225.99999999999997</ele><time>2026-04-11T07:50:28.985Z</time></trkpt><trkpt lat="43.924065" lon="12.3089783"><ele>225.0</ele><time>2026-04-11T07:50:30.984Z</time></trkpt><trkpt lat="43.9239433" lon="12.30896"><ele>224.0</ele><time>2026-04-11T07:50:32.985Z</time></trkpt><trkpt lat="43.9238817" lon="12.3089417"><ele>224.0</ele><time>2026-04-11T07:50:33.984Z</time></trkpt><trkpt lat="43.923815" lon="12.308925"><ele>224.0</ele><time>2026-04-11T07:50:34.984Z</time></trkpt><trkpt lat="43.9237483" lon="12.3089233"><ele>224.0</ele><time>2026-04-11T07:50:35.984Z</time></trkpt><trkpt lat="43.9236783" lon="12.3089317"><ele>224.0</ele><time>2026-04-11T07:50:36.984Z</time></trkpt><trkpt lat="43.9236067" lon="12.308925"><ele>224.0</ele><time>2026-04-11T07:50:37.984Z</time></trkpt><trkpt lat="43.9235367" lon="12.308915"><ele>224.0</ele><time>2026-04-11T07:50:38.984Z</time></trkpt><trkpt lat="43.9234583" lon="12.30891"><ele>224.0</ele><time>2026-04-11T07:50:39.984Z</time></trkpt><trkpt lat="43.9233783" lon="12.3089083"><ele>227.39999999999998</ele><time>2026-04-11T07:50:40.984Z</time></trkpt><trkpt lat="43.92329" lon="12.3088933"><ele>230.79999999999998</ele><time>2026-04-11T07:50:41.984Z</time></trkpt><trkpt lat="43.9232033" lon="12.308865"><ele>234.20000000000002</ele><time>2026-04-11T07:50:42.984Z</time></trkpt><trkpt lat="43.92312" lon="12.3088117"><ele>237.60000000000002</ele><time>2026-04-11T07:50:43.985Z</time></trkpt><trkpt lat="43.9230383" lon="12.308745"><ele>241.0</ele><time>2026-04-11T07:50:44.984Z</time></trkpt><trkpt lat="43.9229617" lon="12.3086767"><ele>240.99999999999997</ele><time>2026-04-11T07:50:45.984Z</time></trkpt><trkpt lat="43.9228733" lon="12.3086217"><ele>241.0</ele><time>2026-04-11T07:50:46.985Z</time></trkpt><trkpt lat="43.9227933" lon="12.3085533"><ele>241.0</ele><time>2026-04-11T07:50:47.984Z</time></trkpt><trkpt lat="43.92272" lon="12.3084833"><ele>241.0</ele><time>2026-04-11T07:50:48.984Z</time></trkpt><trkpt lat="43.9226617" lon="12.3083967"><ele>240.99999999999997</ele><time>2026-04-11T07:50:49.984Z</time></trkpt><trkpt lat="43.9226233" lon="12.3083117"><ele>241.0</ele><time>2026-04-11T07:50:50.984Z</time></trkpt><trkpt lat="43.9226217" lon="12.308165"><ele>241.0</ele><time>2026-04-11T07:50:52.985Z</time></trkpt><trkpt lat="43.9227083" lon="12.3080783"><ele>241.00000000000003</ele><time>2026-04-11T07:50:54.985Z</time></trkpt><trkpt lat="43.922835" lon="12.3080817"><ele>241.00000000000003</ele><time>2026-04-11T07:50:56.984Z</time></trkpt><trkpt lat="43.92292" lon="12.3081067"><ele>241.0</ele><time>2026-04-11T07:50:57.985Z</time></trkpt><trkpt lat="43.9230167" lon="12.3081267"><ele>241.0</ele><time>2026-04-11T07:50:58.984Z</time></trkpt><trkpt lat="43.9231067" lon="12.3081167"><ele>241.0</ele><time>2026-04-11T07:50:59.984Z</time></trkpt><trkpt lat="43.9231967" lon="12.3080983"><ele>241.00000000000003</ele><time>2026-04-11T07:51:00.984Z</time></trkpt><trkpt lat="43.923285" lon="12.308065"><ele>241.00000000000003</ele><time>2026-04-11T07:51:01.984Z</time></trkpt><trkpt lat="43.923365" lon="12.30801"><ele>241.0</ele><time>2026-04-11T07:51:02.984Z</time></trkpt><trkpt lat="43.9234417" lon="12.30794"><ele>241.0</ele><time>2026-04-11T07:51:03.985Z</time></trkpt><trkpt lat="43.9235183" lon="12.307875"><ele>242.33333333333331</ele><time>2026-04-11T07:51:04.984Z</time></trkpt><trkpt lat="43.9235717" lon="12.307795"><ele>243.66666666666666</ele><time>2026-04-11T07:51:05.984Z</time></trkpt><trkpt lat="43.9236067" lon="12.3077217"><ele>245.0</ele><time>2026-04-11T07:51:06.985Z</time></trkpt><trkpt lat="43.9235833" lon="12.3075583"><ele>246.33333333333331</ele><time>2026-04-11T07:51:08.984Z</time></trkpt><trkpt lat="43.9235617" lon="12.30747"><ele>247.66666666666666</ele><time>2026-04-11T07:51:09.984Z</time></trkpt><trkpt lat="43.9235483" lon="12.3073767"><ele>249.0</ele><time>2026-04-11T07:51:10.984Z</time></trkpt><trkpt lat="43.9235367" lon="12.3072733"><ele>251.0</ele><time>2026-04-11T07:51:11.984Z</time></trkpt><trkpt lat="43.9235367" lon="12.3071633"><ele>253.0</ele><time>2026-04-11T07:51:12.984Z</time></trkpt><trkpt lat="43.9235333" lon="12.3070467"><ele>255.0</ele><time>2026-04-11T07:51:13.984Z</time></trkpt><trkpt lat="43.9235283" lon="12.3069233"><ele>257.0</ele><time>2026-04-11T07:51:14.984Z</time></trkpt><trkpt lat="43.9235183" lon="12.306785"><ele>259.0</ele><time>2026-04-11T07:51:15.985Z</time></trkpt><trkpt lat="43.9235017" lon="12.3066533"><ele>261.0</ele><time>2026-04-11T07:51:16.985Z</time></trkpt><trkpt lat="43.9234833" lon="12.3065167"><ele>263.5</ele><time>2026-04-11T07:51:17.984Z</time></trkpt><trkpt lat="43.9234767" lon="12.3064"><ele>266.0</ele><time>2026-04-11T07:51:18.985Z</time></trkpt><trkpt lat="43.9234817" lon="12.3062967"><ele>268.5</ele><time>2026-04-11T07:51:19.984Z</time></trkpt><trkpt lat="43.92349" lon="12.3061933"><ele>271.0</ele><time>2026-04-11T07:51:20.984Z</time></trkpt><trkpt lat="43.923505" lon="12.3060867"><ele>273.5</ele><time>2026-04-11T07:51:21.984Z</time></trkpt><trkpt lat="43.92353" lon="12.3059917"><ele>276.0</ele><time>2026-04-11T07:51:22.984Z</time></trkpt><trkpt lat="43.9235667" lon="12.3058983"><ele>276.0</ele><time>2026-04-11T07:51:23.984Z</time></trkpt><trkpt lat="43.92361" lon="12.305805"><ele>276.0</ele><time>2026-04-11T07:51:24.985Z</time></trkpt><trkpt lat="43.923655" lon="12.3057233"><ele>276.0</ele><time>2026-04-11T07:51:25.985Z</time></trkpt><trkpt lat="43.9236917" lon="12.3056517"><ele>276.0</ele><time>2026-04-11T07:51:26.984Z</time></trkpt><trkpt lat="43.9237283" lon="12.305575"><ele>276.0</ele><time>2026-04-11T07:51:27.984Z</time></trkpt><trkpt lat="43.9238133" lon="12.3054517"><ele>276.0</ele><time>2026-04-11T07:51:29.984Z</time></trkpt><trkpt lat="43.923875" lon="12.3053017"><ele>277.8571428571429</ele><time>2026-04-11T07:51:31.985Z</time></trkpt><trkpt lat="43.9238867" lon="12.30521"><ele>279.7142857142857</ele><time>2026-04-11T07:51:32.984Z</time></trkpt><trkpt lat="43.9238683" lon="12.3051183"><ele>281.57142857142856</ele><time>2026-04-11T07:51:33.984Z</time></trkpt><trkpt lat="43.9238333" lon="12.3050383"><ele>283.42857142857144</ele><time>2026-04-11T07:51:34.984Z</time></trkpt><trkpt lat="43.9237983" lon="12.3049483"><ele>285.2857142857143</ele><time>2026-04-11T07:51:35.984Z</time></trkpt><trkpt lat="43.923755" lon="12.3048633"><ele>287.14285714285717</ele><time>2026-04-11T07:51:36.984Z</time></trkpt><trkpt lat="43.9237133" lon="12.30477"><ele>289.0</ele><time>2026-04-11T07:51:37.984Z</time></trkpt><trkpt lat="43.9236717" lon="12.3046717"><ele>290.3333333333333</ele><time>2026-04-11T07:51:38.984Z</time></trkpt><trkpt lat="43.9236433" lon="12.30455"><ele>291.66666666666663</ele><time>2026-04-11T07:51:39.984Z</time></trkpt><trkpt lat="43.9236183" lon="12.3044367"><ele>293.0</ele><time>2026-04-11T07:51:40.984Z</time></trkpt><trkpt lat="43.9236067" lon="12.30435"><ele>294.3333333333333</ele><time>2026-04-11T07:51:41.984Z</time></trkpt><trkpt lat="43.923645" lon="12.3042417"><ele>295.6666666666667</ele><time>2026-04-11T07:51:43.984Z</time></trkpt><trkpt lat="43.92376" lon="12.3042"><ele>297.0</ele><time>2026-04-11T07:51:45.984Z</time></trkpt><trkpt lat="43.923835" lon="12.3042233"><ele>297.0</ele><time>2026-04-11T07:51:46.984Z</time></trkpt><trkpt lat="43.9239233" lon="12.3042667"><ele>297.0</ele><time>2026-04-11T07:51:47.984Z</time></trkpt><trkpt lat="43.9240117" lon="12.3043167"><ele>297.0</ele><time>2026-04-11T07:51:48.985Z</time></trkpt><trkpt lat="43.924095" lon="12.304365"><ele>297.0</ele><time>2026-04-11T07:51:49.984Z</time></trkpt><trkpt lat="43.9241767" lon="12.3044083"><ele>297.0</ele><time>2026-04-11T07:51:50.984Z</time></trkpt><trkpt lat="43.9242567" lon="12.30444"><ele>298.0</ele><time>2026-04-11T07:51:51.984Z</time></trkpt><trkpt lat="43.924335" lon="12.304475"><ele>299.0</ele><time>2026-04-11T07:51:52.984Z</time></trkpt><trkpt lat="43.9244017" lon="12.3045017"><ele>300.0</ele><time>2026-04-11T07:51:53.984Z</time></trkpt><trkpt lat="43.924475" lon="12.304525"><ele>301.0</ele><time>2026-04-11T07:51:54.985Z</time></trkpt><trkpt lat="43.9245683" lon="12.3045117"><ele>302.0</ele><time>2026-04-11T07:51:56.984Z</time></trkpt><trkpt lat="43.9246367" lon="12.304435"><ele>303.0</ele><time>2026-04-11T07:51:58.984Z</time></trkpt><trkpt lat="43.924675" lon="12.3043233"><ele>303.0</ele><time>2026-04-11T07:52:00.984Z</time></trkpt><trkpt lat="43.9246983" lon="12.30423"><ele>303.0</ele><time>2026-04-11T07:52:02.984Z</time></trkpt><trkpt lat="43.9247183" lon="12.3041233"><ele>303.0</ele><time>2026-04-11T07:52:04.985Z</time></trkpt><trkpt lat="43.9247467" lon="12.3039567"><ele>303.0</ele><time>2026-04-11T07:52:06.984Z</time></trkpt><trkpt lat="43.9247933" lon="12.3038117"><ele>303.0</ele><time>2026-04-11T07:52:08.984Z</time></trkpt><trkpt lat="43.924835" lon="12.3036583"><ele>304.8333333333333</ele><time>2026-04-11T07:52:10.984Z</time></trkpt><trkpt lat="43.9248667" lon="12.303575"><ele>306.6666666666667</ele><time>2026-04-11T07:52:11.984Z</time></trkpt><trkpt lat="43.924905" lon="12.3034867"><ele>308.5</ele><time>2026-04-11T07:52:12.984Z</time></trkpt><trkpt lat="43.924945" lon="12.3033933"><ele>310.33333333333337</ele><time>2026-04-11T07:52:13.984Z</time></trkpt><trkpt lat="43.9249833" lon="12.3033067"><ele>312.1666666666667</ele><time>2026-04-11T07:52:14.984Z</time></trkpt><trkpt lat="43.9250117" lon="12.3032067"><ele>314.0</ele><time>2026-04-11T07:52:15.984Z</time></trkpt><trkpt lat="43.92503" lon="12.303095"><ele>314.71428571428567</ele><time>2026-04-11T07:52:16.985Z</time></trkpt><trkpt lat="43.9250483" lon="12.3029883"><ele>315.42857142857144</ele><time>2026-04-11T07:52:17.985Z</time></trkpt><trkpt lat="43.925075" lon="12.30289"><ele>316.1428571428571</ele><time>2026-04-11T07:52:18.984Z</time></trkpt><trkpt lat="43.9251117" lon="12.3027933"><ele>316.85714285714283</ele><time>2026-04-11T07:52:19.984Z</time></trkpt><trkpt lat="43.92514" lon="12.3027033"><ele>317.57142857142856</ele><time>2026-04-11T07:52:20.984Z</time></trkpt><trkpt lat="43.9251767" lon="12.3026217"><ele>318.2857142857143</ele><time>2026-04-11T07:52:21.984Z</time></trkpt><trkpt lat="43.925215" lon="12.3025467"><ele>319.0</ele><time>2026-04-11T07:52:22.985Z</time></trkpt><trkpt lat="43.9252633" lon="12.3024883"><ele>320.16666666666663</ele><time>2026-04-11T07:52:23.984Z</time></trkpt><trkpt lat="43.925375" lon="12.3023967"><ele>321.3333333333333</ele><time>2026-04-11T07:52:25.984Z</time></trkpt><trkpt lat="43.92544" lon="12.3023483"><ele>322.5</ele><time>2026-04-11T07:52:26.984Z</time></trkpt><trkpt lat="43.9255083" lon="12.30231"><ele>323.6666666666667</ele><time>2026-04-11T07:52:27.984Z</time></trkpt><trkpt lat="43.925575" lon="12.3022967"><ele>324.83333333333337</ele><time>2026-04-11T07:52:28.984Z</time></trkpt><trkpt lat="43.9256417" lon="12.30231"><ele>326.0</ele><time>2026-04-11T07:52:29.984Z</time></trkpt><trkpt lat="43.9257183" lon="12.30233"><ele>326.0</ele><time>2026-04-11T07:52:30.984Z</time></trkpt><trkpt lat="43.9258067" lon="12.3023367"><ele>326.0</ele><time>2026-04-11T07:52:31.984Z</time></trkpt><trkpt lat="43.9258917" lon="12.3023417"><ele>326.0</ele><time>2026-04-11T07:52:32.984Z</time></trkpt><trkpt lat="43.9259583" lon="12.3023233"><ele>326.0</ele><time>2026-04-11T07:52:33.985Z</time></trkpt><trkpt lat="43.9260683" lon="12.3022517"><ele>326.0</ele><time>2026-04-11T07:52:35.984Z</time></trkpt><trkpt lat="43.92613" lon="12.3021967"><ele>326.0</ele><time>2026-04-11T07:52:36.984Z</time></trkpt><trkpt lat="43.9261967" lon="12.302135"><ele>328.33333333333337</ele><time>2026-04-11T07:52:37.985Z</time></trkpt><trkpt lat="43.9262667" lon="12.3020583"><ele>330.6666666666667</ele><time>2026-04-11T07:52:38.984Z</time></trkpt><trkpt lat="43.9263333" lon="12.3019667"><ele>333.0</ele><time>2026-04-11T07:52:39.984Z</time></trkpt><trkpt lat="43.9263983" lon="12.3018767"><ele>335.3333333333333</ele><time>2026-04-11T07:52:40.984Z</time></trkpt><trkpt lat="43.9264633" lon="12.3018017"><ele>337.66666666666663</ele><time>2026-04-11T07:52:41.985Z</time></trkpt><trkpt lat="43.9265333" lon="12.3017467"><ele>340.0</ele><time>2026-04-11T07:52:42.984Z</time></trkpt><trkpt lat="43.926605" lon="12.3017017"><ele>340.0</ele><time>2026-04-11T07:52:43.984Z</time></trkpt><trkpt lat="43.926685" lon="12.3016667"><ele>340.0</ele><time>2026-04-11T07:52:44.985Z</time></trkpt><trkpt lat="43.926765" lon="12.3016483"><ele>340.0</ele><time>2026-04-11T07:52:45.984Z</time></trkpt><trkpt lat="43.9268467" lon="12.301625"><ele>340.0</ele><time>2026-04-11T07:52:46.984Z</time></trkpt><trkpt lat="43.9269283" lon="12.3016"><ele>340.0</ele><time>2026-04-11T07:52:47.984Z</time></trkpt><trkpt lat="43.9270217" lon="12.301585"><ele>340.0</ele><time>2026-04-11T07:52:48.985Z</time></trkpt><trkpt lat="43.92711" lon="12.30156"><ele>341.3333333333333</ele><time>2026-04-11T07:52:49.984Z</time></trkpt><trkpt lat="43.9271883" lon="12.30152"><ele>342.66666666666663</ele><time>2026-04-11T07:52:50.984Z</time></trkpt><trkpt lat="43.927265" lon="12.3014733"><ele>344.0</ele><time>2026-04-11T07:52:51.984Z</time></trkpt><trkpt lat="43.9273367" lon="12.30142"><ele>345.3333333333333</ele><time>2026-04-11T07:52:52.985Z</time></trkpt><trkpt lat="43.927405" lon="12.301355"><ele>346.6666666666667</ele><time>2026-04-11T07:52:53.984Z</time></trkpt><trkpt lat="43.927465" lon="12.301275"><ele>348.0</ele><time>2026-04-11T07:52:54.984Z</time></trkpt><trkpt lat="43.92752" lon="12.3011983"><ele>349.0</ele><time>2026-04-11T07:52:55.985Z</time></trkpt><trkpt lat="43.9275717" lon="12.30112"><ele>350.0</ele><time>2026-04-11T07:52:56.984Z</time></trkpt><trkpt lat="43.92763" lon="12.3010383"><ele>351.0</ele><time>2026-04-11T07:52:57.984Z</time></trkpt><trkpt lat="43.9276883" lon="12.3009567"><ele>352.0</ele><time>2026-04-11T07:52:58.984Z</time></trkpt><trkpt lat="43.9277517" lon="12.3008783"><ele>353.0</ele><time>2026-04-11T07:52:59.984Z</time></trkpt><trkpt lat="43.92781" lon="12.3008"><ele>354.0</ele><time>2026-04-11T07:53:00.984Z</time></trkpt><trkpt lat="43.92787" lon="12.3007267"><ele>354.0</ele><time>2026-04-11T07:53:01.984Z</time></trkpt><trkpt lat="43.9279333" lon="12.3006583"><ele>354.0</ele><time>2026-04-11T07:53:02.984Z</time></trkpt><trkpt lat="43.927995" lon="12.300595"><ele>354.0</ele><time>2026-04-11T07:53:03.985Z</time></trkpt><trkpt lat="43.9280567" lon="12.300545"><ele>354.0</ele><time>2026-04-11T07:53:04.984Z</time></trkpt><trkpt lat="43.9281183" lon="12.3005117"><ele>354.0</ele><time>2026-04-11T07:53:05.984Z</time></trkpt><trkpt lat="43.9281883" lon="12.3004917"><ele>354.0</ele><time>2026-04-11T07:53:06.984Z</time></trkpt><trkpt lat="43.9282667" lon="12.3004833"><ele>354.0</ele><time>2026-04-11T07:53:07.984Z</time></trkpt><trkpt lat="43.9283533" lon="12.30049"><ele>354.2</ele><time>2026-04-11T07:53:08.984Z</time></trkpt><trkpt lat="43.9284517" lon="12.3005117"><ele>354.4</ele><time>2026-04-11T07:53:09.984Z</time></trkpt><trkpt lat="43.92856" lon="12.3005267"><ele>354.6</ele><time>2026-04-11T07:53:10.985Z</time></trkpt><trkpt lat="43.92867" lon="12.3005517"><ele>354.8</ele><time>2026-04-11T07:53:11.984Z</time></trkpt><trkpt lat="43.9287817" lon="12.3005817"><ele>355.0</ele><time>2026-04-11T07:53:12.984Z</time></trkpt><trkpt lat="43.928895" lon="12.3006"><ele>355.0</ele><time>2026-04-11T07:53:13.984Z</time></trkpt><trkpt lat="43.9290083" lon="12.30061"><ele>355.0</ele><time>2026-04-11T07:53:14.985Z</time></trkpt><trkpt lat="43.92912" lon="12.3006183"><ele>355.0</ele><time>2026-04-11T07:53:15.985Z</time></trkpt><trkpt lat="43.9292267" lon="12.3006317"><ele>355.0</ele><time>2026-04-11T07:53:16.984Z</time></trkpt><trkpt lat="43.929325" lon="12.3006583"><ele>355.0</ele><time>2026-04-11T07:53:17.985Z</time></trkpt><trkpt lat="43.9294167" lon="12.30068"><ele>356.0</ele><time>2026-04-11T07:53:18.985Z</time></trkpt><trkpt lat="43.92949" lon="12.3006967"><ele>357.0</ele><time>2026-04-11T07:53:19.984Z</time></trkpt><trkpt lat="43.92956" lon="12.3007133"><ele>358.0</ele><time>2026-04-11T07:53:20.985Z</time></trkpt><trkpt lat="43.9296233" lon="12.30073"><ele>359.0</ele><time>2026-04-11T07:53:21.985Z</time></trkpt><trkpt lat="43.9296917" lon="12.300725"><ele>360.0</ele><time>2026-04-11T07:53:22.984Z</time></trkpt><trkpt lat="43.92976" lon="12.3007117"><ele>361.0</ele><time>2026-04-11T07:53:23.985Z</time></trkpt><trkpt lat="43.9298267" lon="12.3006883"><ele>362.0</ele><time>2026-04-11T07:53:24.985Z</time></trkpt><trkpt lat="43.92989" lon="12.3006733"><ele>362.0</ele><time>2026-04-11T07:53:25.984Z</time></trkpt><trkpt lat="43.9300083" lon="12.3006467"><ele>362.0</ele><time>2026-04-11T07:53:27.984Z</time></trkpt><trkpt lat="43.9301217" lon="12.3006217"><ele>362.0</ele><time>2026-04-11T07:53:29.985Z</time></trkpt><trkpt lat="43.9301883" lon="12.3006183"><ele>362.0</ele><time>2026-04-11T07:53:30.984Z</time></trkpt><trkpt lat="43.9303" lon="12.300565"><ele>362.0</ele><time>2026-04-11T07:53:32.984Z</time></trkpt><trkpt lat="43.930355" lon="12.3005167"><ele>363.33333333333337</ele><time>2026-04-11T07:53:33.984Z</time></trkpt><trkpt lat="43.9304633" lon="12.3004233"><ele>364.6666666666667</ele><time>2026-04-11T07:53:35.984Z</time></trkpt><trkpt lat="43.93052" lon="12.3003717"><ele>366.0</ele><time>2026-04-11T07:53:36.985Z</time></trkpt><trkpt lat="43.930585" lon="12.300315"><ele>367.3333333333333</ele><time>2026-04-11T07:53:37.984Z</time></trkpt><trkpt lat="43.93065" lon="12.3002583"><ele>368.66666666666663</ele><time>2026-04-11T07:53:38.984Z</time></trkpt><trkpt lat="43.9307083" lon="12.3002033"><ele>370.0</ele><time>2026-04-11T07:53:39.984Z</time></trkpt><trkpt lat="43.930815" lon="12.3001117"><ele>372.5</ele><time>2026-04-11T07:53:41.984Z</time></trkpt><trkpt lat="43.930915" lon="12.300035"><ele>375.0</ele><time>2026-04-11T07:53:43.984Z</time></trkpt><trkpt lat="43.931015" lon="12.299935"><ele>377.5</ele><time>2026-04-11T07:53:45.984Z</time></trkpt><trkpt lat="43.93107" lon="12.2998767"><ele>380.0</ele><time>2026-04-11T07:53:46.984Z</time></trkpt><trkpt lat="43.9311317" lon="12.2998317"><ele>382.50000000000006</ele><time>2026-04-11T07:53:47.984Z</time></trkpt><trkpt lat="43.9311867" lon="12.2997783"><ele>385.0</ele><time>2026-04-11T07:53:48.984Z</time></trkpt><trkpt lat="43.9312417" lon="12.299725"><ele>386.4</ele><time>2026-04-11T07:53:49.984Z</time></trkpt><trkpt lat="43.9312967" lon="12.2996767"><ele>387.8</ele><time>2026-04-11T07:53:50.984Z</time></trkpt><trkpt lat="43.9314033" lon="12.299575"><ele>389.20000000000005</ele><time>2026-04-11T07:53:52.983Z</time></trkpt><trkpt lat="43.93151" lon="12.2994733"><ele>390.6</ele><time>2026-04-11T07:53:54.984Z</time></trkpt><trkpt lat="43.9315667" lon="12.2994117"><ele>392.0</ele><time>2026-04-11T07:53:55.983Z</time></trkpt><trkpt lat="43.93163" lon="12.29935"><ele>391.99999999999994</ele><time>2026-04-11T07:53:56.983Z</time></trkpt><trkpt lat="43.9316867" lon="12.29928"><ele>392.0</ele><time>2026-04-11T07:53:57.984Z</time></trkpt><trkpt lat="43.931745" lon="12.2992083"><ele>392.0</ele><time>2026-04-11T07:53:58.984Z</time></trkpt><trkpt lat="43.9318" lon="12.2991283"><ele>392.0</ele><time>2026-04-11T07:53:59.984Z</time></trkpt><trkpt lat="43.9318533" lon="12.299045"><ele>391.99999999999994</ele><time>2026-04-11T07:54:00.983Z</time></trkpt><trkpt lat="43.9319033" lon="12.2989633"><ele>392.0</ele><time>2026-04-11T07:54:01.983Z</time></trkpt><trkpt lat="43.9319617" lon="12.2988917"><ele>395.16666666666663</ele><time>2026-04-11T07:54:02.983Z</time></trkpt><trkpt lat="43.9320117" lon="12.298825"><ele>398.3333333333333</ele><time>2026-04-11T07:54:03.984Z</time></trkpt><trkpt lat="43.9320733" lon="12.29876"><ele>401.5</ele><time>2026-04-11T07:54:04.983Z</time></trkpt><trkpt lat="43.9321383" lon="12.298685"><ele>404.66666666666663</ele><time>2026-04-11T07:54:05.983Z</time></trkpt><trkpt lat="43.9322017" lon="12.2986217"><ele>407.8333333333333</ele><time>2026-04-11T07:54:06.983Z</time></trkpt><trkpt lat="43.932305" lon="12.29851"><ele>411.0</ele><time>2026-04-11T07:54:08.983Z</time></trkpt><trkpt lat="43.9323567" lon="12.2984533"><ele>411.0</ele><time>2026-04-11T07:54:09.983Z</time></trkpt><trkpt lat="43.9324117" lon="12.2984033"><ele>411.0</ele><time>2026-04-11T07:54:10.983Z</time></trkpt><trkpt lat="43.932475" lon="12.2983633"><ele>411.0</ele><time>2026-04-11T07:54:11.983Z</time></trkpt><trkpt lat="43.932535" lon="12.2983183"><ele>411.0</ele><time>2026-04-11T07:54:12.983Z</time></trkpt><trkpt lat="43.93259" lon="12.2982617"><ele>411.0</ele><time>2026-04-11T07:54:13.983Z</time></trkpt><trkpt lat="43.932665" lon="12.298135"><ele>411.0</ele><time>2026-04-11T07:54:15.983Z</time></trkpt><trkpt lat="43.9326983" lon="12.2980367"><ele>411.6666666666667</ele><time>2026-04-11T07:54:16.983Z</time></trkpt><trkpt lat="43.932725" lon="12.297935"><ele>412.33333333333337</ele><time>2026-04-11T07:54:17.983Z</time></trkpt><trkpt lat="43.9327533" lon="12.297825"><ele>413.0</ele><time>2026-04-11T07:54:18.983Z</time></trkpt><trkpt lat="43.9327817" lon="12.2977033"><ele>413.6666666666667</ele><time>2026-04-11T07:54:19.983Z</time></trkpt><trkpt lat="43.93282" lon="12.2975883"><ele>414.33333333333337</ele><time>2026-04-11T07:54:20.983Z</time></trkpt><trkpt lat="43.9328583" lon="12.2974767"><ele>415.0</ele><time>2026-04-11T07:54:21.984Z</time></trkpt><trkpt lat="43.9328917" lon="12.2973667"><ele>415.0</ele><time>2026-04-11T07:54:22.983Z</time></trkpt><trkpt lat="43.9329333" lon="12.2972617"><ele>415.0</ele><time>2026-04-11T07:54:23.984Z</time></trkpt><trkpt lat="43.9329683" lon="12.2971433"><ele>415.0</ele><time>2026-04-11T07:54:24.983Z</time></trkpt><trkpt lat="43.933015" lon="12.297025"><ele>415.0</ele><time>2026-04-11T07:54:25.983Z</time></trkpt><trkpt lat="43.933055" lon="12.2969067"><ele>415.0</ele><time>2026-04-11T07:54:26.983Z</time></trkpt><trkpt lat="43.9331" lon="12.2967933"><ele>415.83333333333337</ele><time>2026-04-11T07:54:27.984Z</time></trkpt><trkpt lat="43.9331417" lon="12.296705"><ele>416.6666666666667</ele><time>2026-04-11T07:54:28.983Z</time></trkpt><trkpt lat="43.93319" lon="12.2966183"><ele>417.5</ele><time>2026-04-11T07:54:29.983Z</time></trkpt><trkpt lat="43.93326" lon="12.29655"><ele>418.33333333333337</ele><time>2026-04-11T07:54:30.983Z</time></trkpt><trkpt lat="43.93334" lon="12.2964783"><ele>419.1666666666667</ele><time>2026-04-11T07:54:31.983Z</time></trkpt><trkpt lat="43.93342" lon="12.29641"><ele>420.0</ele><time>2026-04-11T07:54:32.983Z</time></trkpt><trkpt lat="43.9335" lon="12.29634"><ele>422.0</ele><time>2026-04-11T07:54:33.984Z</time></trkpt><trkpt lat="43.9335917" lon="12.2962783"><ele>424.0</ele><time>2026-04-11T07:54:34.983Z</time></trkpt><trkpt lat="43.933695" lon="12.29621"><ele>426.0</ele><time>2026-04-11T07:54:35.984Z</time></trkpt><trkpt lat="43.933795" lon="12.29614"><ele>428.0</ele><time>2026-04-11T07:54:36.983Z</time></trkpt><trkpt lat="43.9338967" lon="12.2960833"><ele>430.0</ele><time>2026-04-11T07:54:37.983Z</time></trkpt><trkpt lat="43.9339883" lon="12.2960117"><ele>430.0</ele><time>2026-04-11T07:54:38.983Z</time></trkpt><trkpt lat="43.9340783" lon="12.2959233"><ele>430.0</ele><time>2026-04-11T07:54:39.983Z</time></trkpt><trkpt lat="43.9341533" lon="12.295815"><ele>430.0</ele><time>2026-04-11T07:54:40.984Z</time></trkpt><trkpt lat="43.93422" lon="12.2957067"><ele>430.0</ele><time>2026-04-11T07:54:41.983Z</time></trkpt><trkpt lat="43.934285" lon="12.29561"><ele>430.0</ele><time>2026-04-11T07:54:42.984Z</time></trkpt><trkpt lat="43.93435" lon="12.29552"><ele>430.83333333333337</ele><time>2026-04-11T07:54:43.983Z</time></trkpt><trkpt lat="43.934405" lon="12.2954567"><ele>431.6666666666667</ele><time>2026-04-11T07:54:44.983Z</time></trkpt><trkpt lat="43.9344633" lon="12.295385"><ele>432.5</ele><time>2026-04-11T07:54:45.984Z</time></trkpt><trkpt lat="43.9345233" lon="12.29533"><ele>433.33333333333337</ele><time>2026-04-11T07:54:46.983Z</time></trkpt><trkpt lat="43.9346033" lon="12.2953033"><ele>434.1666666666667</ele><time>2026-04-11T07:54:48.983Z</time></trkpt><trkpt lat="43.93469" lon="12.2953033"><ele>435.0</ele><time>2026-04-11T07:54:51.983Z</time></trkpt><trkpt lat="43.9346917" lon="12.2951883"><ele>435.0</ele><time>2026-04-11T07:55:12.984Z</time></trkpt><trkpt lat="43.9347117" lon="12.2949983"><ele>435.0</ele><time>2026-04-11T07:55:14.983Z</time></trkpt><trkpt lat="43.9347383" lon="12.2948717"><ele>435.0</ele><time>2026-04-11T07:55:15.984Z</time></trkpt><trkpt lat="43.93479" lon="12.29473"><ele>435.0</ele><time>2026-04-11T07:55:16.984Z</time></trkpt><trkpt lat="43.9348333" lon="12.2945667"><ele>435.25</ele><time>2026-04-11T07:55:17.983Z</time></trkpt><trkpt lat="43.93484" lon="12.294395"><ele>435.5</ele><time>2026-04-11T07:55:18.983Z</time></trkpt><trkpt lat="43.93483" lon="12.2942267"><ele>435.75</ele><time>2026-04-11T07:55:19.984Z</time></trkpt><trkpt lat="43.9348167" lon="12.2940817"><ele>436.0</ele><time>2026-04-11T07:55:20.983Z</time></trkpt><trkpt lat="43.9347983" lon="12.2939467"><ele>435.8</ele><time>2026-04-11T07:55:21.983Z</time></trkpt><trkpt lat="43.9347783" lon="12.2938133"><ele>435.6</ele><time>2026-04-11T07:55:22.983Z</time></trkpt><trkpt lat="43.9347433" lon="12.293675"><ele>435.4</ele><time>2026-04-11T07:55:23.983Z</time></trkpt><trkpt lat="43.93469" lon="12.2935367"><ele>435.2</ele><time>2026-04-11T07:55:24.983Z</time></trkpt><trkpt lat="43.9346217" lon="12.293395"><ele>435.0</ele><time>2026-04-11T07:55:25.983Z</time></trkpt><trkpt lat="43.9345467" lon="12.29326"><ele>435.0</ele><time>2026-04-11T07:55:26.983Z</time></trkpt><trkpt lat="43.9344767" lon="12.2931033"><ele>435.0</ele><time>2026-04-11T07:55:27.983Z</time></trkpt><trkpt lat="43.9343933" lon="12.2929567"><ele>435.0</ele><time>2026-04-11T07:55:28.983Z</time></trkpt><trkpt lat="43.9343167" lon="12.2928217"><ele>435.0</ele><time>2026-04-11T07:55:29.983Z</time></trkpt><trkpt lat="43.9342483" lon="12.292705"><ele>435.2</ele><time>2026-04-11T07:55:30.983Z</time></trkpt><trkpt lat="43.934185" lon="12.2926067"><ele>435.4</ele><time>2026-04-11T07:55:31.983Z</time></trkpt><trkpt lat="43.9341267" lon="12.2925"><ele>435.6</ele><time>2026-04-11T07:55:32.983Z</time></trkpt><trkpt lat="43.9340717" lon="12.2923933"><ele>435.8</ele><time>2026-04-11T07:55:33.983Z</time></trkpt><trkpt lat="43.9340067" lon="12.2922883"><ele>436.0</ele><time>2026-04-11T07:55:34.983Z</time></trkpt><trkpt lat="43.933935" lon="12.292175"><ele>436.0</ele><time>2026-04-11T07:55:35.983Z</time></trkpt><trkpt lat="43.9338783" lon="12.2920517"><ele>436.0</ele><time>2026-04-11T07:55:36.983Z</time></trkpt><trkpt lat="43.933825" lon="12.2919217"><ele>436.0</ele><time>2026-04-11T07:55:37.983Z</time></trkpt><trkpt lat="43.9337667" lon="12.2917883"><ele>436.0</ele><time>2026-04-11T07:55:38.983Z</time></trkpt><trkpt lat="43.93371" lon="12.2916467"><ele>436.0</ele><time>2026-04-11T07:55:39.983Z</time></trkpt><trkpt lat="43.9336633" lon="12.2914967"><ele>435.75</ele><time>2026-04-11T07:55:40.983Z</time></trkpt><trkpt lat="43.93362" lon="12.2913567"><ele>435.5</ele><time>2026-04-11T07:55:41.983Z</time></trkpt><trkpt lat="43.9335767" lon="12.2912083"><ele>435.25</ele><time>2026-04-11T07:55:42.984Z</time></trkpt><trkpt lat="43.9335417" lon="12.2910517"><ele>435.0</ele><time>2026-04-11T07:55:43.984Z</time></trkpt><trkpt lat="43.9335" lon="12.29088"><ele>435.0</ele><time>2026-04-11T07:55:44.983Z</time></trkpt><trkpt lat="43.933455" lon="12.2907083"><ele>435.0</ele><time>2026-04-11T07:55:45.983Z</time></trkpt><trkpt lat="43.93342" lon="12.290535"><ele>435.0</ele><time>2026-04-11T07:55:46.983Z</time></trkpt><trkpt lat="43.9333867" lon="12.2903817"><ele>435.0</ele><time>2026-04-11T07:55:47.983Z</time></trkpt><trkpt lat="43.933365" lon="12.290255"><ele>436.0</ele><time>2026-04-11T07:55:48.983Z</time></trkpt><trkpt lat="43.93335" lon="12.2901667"><ele>437.0</ele><time>2026-04-11T07:55:49.983Z</time></trkpt><trkpt lat="43.9333233" lon="12.290045"><ele>438.0</ele><time>2026-04-11T07:55:51.983Z</time></trkpt><trkpt lat="43.93324" lon="12.2899217"><ele>439.0</ele><time>2026-04-11T07:55:53.983Z</time></trkpt><trkpt lat="43.9331733" lon="12.2898333"><ele>440.0</ele><time>2026-04-11T07:55:54.983Z</time></trkpt><trkpt lat="43.9330983" lon="12.2897267"><ele>437.0</ele><time>2026-04-11T07:55:55.983Z</time></trkpt><trkpt lat="43.9330083" lon="12.2896033"><ele>434.0</ele><time>2026-04-11T07:55:56.983Z</time></trkpt><trkpt lat="43.932915" lon="12.2894683"><ele>431.0</ele><time>2026-04-11T07:55:57.983Z</time></trkpt><trkpt lat="43.9328167" lon="12.2893217"><ele>428.0</ele><time>2026-04-11T07:55:58.983Z</time></trkpt><trkpt lat="43.9326983" lon="12.2891983"><ele>428.0</ele><time>2026-04-11T07:55:59.983Z</time></trkpt><trkpt lat="43.9325767" lon="12.2890617"><ele>428.0</ele><time>2026-04-11T07:56:00.983Z</time></trkpt><trkpt lat="43.93246" lon="12.2889383"><ele>428.0</ele><time>2026-04-11T07:56:01.983Z</time></trkpt><trkpt lat="43.9323433" lon="12.28882"><ele>428.0</ele><time>2026-04-11T07:56:02.983Z</time></trkpt><trkpt lat="43.93223" lon="12.2887"><ele>427.5</ele><time>2026-04-11T07:56:03.983Z</time></trkpt><trkpt lat="43.9321167" lon="12.288565"><ele>427.0</ele><time>2026-04-11T07:56:04.983Z</time></trkpt><trkpt lat="43.9320133" lon="12.2884283"><ele>426.5</ele><time>2026-04-11T07:56:05.983Z</time></trkpt><trkpt lat="43.9319133" lon="12.2883"><ele>426.0</ele><time>2026-04-11T07:56:06.983Z</time></trkpt><trkpt lat="43.93182" lon="12.28817"><ele>423.75</ele><time>2026-04-11T07:56:07.983Z</time></trkpt><trkpt lat="43.9317283" lon="12.288025"><ele>421.5</ele><time>2026-04-11T07:56:08.984Z</time></trkpt><trkpt lat="43.9316483" lon="12.28787"><ele>419.25</ele><time>2026-04-11T07:56:09.983Z</time></trkpt><trkpt lat="43.93157" lon="12.2877233"><ele>417.0</ele><time>2026-04-11T07:56:10.983Z</time></trkpt><trkpt lat="43.93149" lon="12.287585"><ele>420.6</ele><time>2026-04-11T07:56:11.983Z</time></trkpt><trkpt lat="43.9314217" lon="12.2874417"><ele>424.20000000000005</ele><time>2026-04-11T07:56:12.983Z</time></trkpt><trkpt lat="43.9313517" lon="12.2873217"><ele>427.8</ele><time>2026-04-11T07:56:13.983Z</time></trkpt><trkpt lat="43.9312867" lon="12.2872183"><ele>431.4</ele><time>2026-04-11T07:56:14.983Z</time></trkpt><trkpt lat="43.9312083" lon="12.28713"><ele>435.0</ele><time>2026-04-11T07:56:15.983Z</time></trkpt><trkpt lat="43.9311217" lon="12.2870517"><ele>435.0</ele><time>2026-04-11T07:56:16.984Z</time></trkpt><trkpt lat="43.9310267" lon="12.2869933"><ele>435.0</ele><time>2026-04-11T07:56:17.983Z</time></trkpt><trkpt lat="43.9309233" lon="12.2869433"><ele>435.0</ele><time>2026-04-11T07:56:18.983Z</time></trkpt><trkpt lat="43.9308117" lon="12.2868917"><ele>435.0</ele><time>2026-04-11T07:56:19.983Z</time></trkpt><trkpt lat="43.9307083" lon="12.2868233"><ele>435.0</ele><time>2026-04-11T07:56:20.983Z</time></trkpt><trkpt lat="43.9306067" lon="12.2867417"><ele>435.5</ele><time>2026-04-11T07:56:21.984Z</time></trkpt><trkpt lat="43.9305017" lon="12.2866483"><ele>436.0</ele><time>2026-04-11T07:56:22.983Z</time></trkpt><trkpt lat="43.9304033" lon="12.28655"><ele>436.5</ele><time>2026-04-11T07:56:23.983Z</time></trkpt><trkpt lat="43.9303133" lon="12.286435"><ele>437.0</ele><time>2026-04-11T07:56:24.983Z</time></trkpt><trkpt lat="43.930225" lon="12.2863417"><ele>436.99999999999994</ele><time>2026-04-11T07:56:25.984Z</time></trkpt><trkpt lat="43.9301383" lon="12.286285"><ele>437.0</ele><time>2026-04-11T07:56:26.984Z</time></trkpt><trkpt lat="43.9300483" lon="12.286255"><ele>437.0</ele><time>2026-04-11T07:56:27.983Z</time></trkpt><trkpt lat="43.9299683" lon="12.2862467"><ele>437.0</ele><time>2026-04-11T07:56:28.983Z</time></trkpt><trkpt lat="43.9298967" lon="12.2862517"><ele>436.99999999999994</ele><time>2026-04-11T07:56:29.983Z</time></trkpt><trkpt lat="43.9298233" lon="12.2862717"><ele>437.0</ele><time>2026-04-11T07:56:30.983Z</time></trkpt><trkpt lat="43.9297433" lon="12.2863217"><ele>438.8</ele><time>2026-04-11T07:56:31.983Z</time></trkpt><trkpt lat="43.9296583" lon="12.28637"><ele>440.6</ele><time>2026-04-11T07:56:32.983Z</time></trkpt><trkpt lat="43.929555" lon="12.286415"><ele>442.40000000000003</ele><time>2026-04-11T07:56:33.983Z</time></trkpt><trkpt lat="43.929445" lon="12.2864617"><ele>444.20000000000005</ele><time>2026-04-11T07:56:34.983Z</time></trkpt><trkpt lat="43.9293383" lon="12.28648"><ele>446.0</ele><time>2026-04-11T07:56:35.984Z</time></trkpt><trkpt lat="43.9292283" lon="12.28648"><ele>446.0</ele><time>2026-04-11T07:56:36.983Z</time></trkpt><trkpt lat="43.9291217" lon="12.2864683"><ele>446.0</ele><time>2026-04-11T07:56:37.983Z</time></trkpt><trkpt lat="43.92902" lon="12.2864483"><ele>446.0</ele><time>2026-04-11T07:56:38.984Z</time></trkpt><trkpt lat="43.9288933" lon="12.286445"><ele>446.0</ele><time>2026-04-11T07:56:39.983Z</time></trkpt><trkpt lat="43.9287667" lon="12.2864267"><ele>446.0</ele><time>2026-04-11T07:56:40.983Z</time></trkpt><trkpt lat="43.92866" lon="12.2863983"><ele>446.0</ele><time>2026-04-11T07:56:41.983Z</time></trkpt><trkpt lat="43.928555" lon="12.2863683"><ele>446.0</ele><time>2026-04-11T07:56:42.983Z</time></trkpt><trkpt lat="43.9284683" lon="12.2863267"><ele>446.0</ele><time>2026-04-11T07:56:43.984Z</time></trkpt><trkpt lat="43.9283983" lon="12.28628"><ele>446.0</ele><time>2026-04-11T07:56:44.983Z</time></trkpt><trkpt lat="43.928335" lon="12.2862383"><ele>447.3333333333333</ele><time>2026-04-11T07:56:45.983Z</time></trkpt><trkpt lat="43.928285" lon="12.2861683"><ele>448.66666666666663</ele><time>2026-04-11T07:56:46.983Z</time></trkpt><trkpt lat="43.9282417" lon="12.2860917"><ele>450.0</ele><time>2026-04-11T07:56:47.983Z</time></trkpt><trkpt lat="43.9281967" lon="12.2859817"><ele>451.33333333333337</ele><time>2026-04-11T07:56:48.984Z</time></trkpt><trkpt lat="43.928145" lon="12.2858683"><ele>452.6666666666667</ele><time>2026-04-11T07:56:49.983Z</time></trkpt><trkpt lat="43.9280933" lon="12.2857683"><ele>454.0</ele><time>2026-04-11T07:56:50.983Z</time></trkpt><trkpt lat="43.9280383" lon="12.285685"><ele>454.00000000000006</ele><time>2026-04-11T07:56:51.984Z</time></trkpt><trkpt lat="43.9279783" lon="12.2856"><ele>454.0</ele><time>2026-04-11T07:56:52.983Z</time></trkpt><trkpt lat="43.9279117" lon="12.285525"><ele>454.0</ele><time>2026-04-11T07:56:53.983Z</time></trkpt><trkpt lat="43.927845" lon="12.2854667"><ele>454.0</ele><time>2026-04-11T07:56:54.983Z</time></trkpt><trkpt lat="43.9277917" lon="12.2853983"><ele>454.00000000000006</ele><time>2026-04-11T07:56:55.983Z</time></trkpt><trkpt lat="43.927755" lon="12.285325"><ele>454.0</ele><time>2026-04-11T07:56:56.983Z</time></trkpt><trkpt lat="43.9277167" lon="12.2852383"><ele>452.2</ele><time>2026-04-11T07:56:57.983Z</time></trkpt><trkpt lat="43.9276767" lon="12.2851317"><ele>450.4</ele><time>2026-04-11T07:56:58.983Z</time></trkpt><trkpt lat="43.9276283" lon="12.2850233"><ele>448.6</ele><time>2026-04-11T07:56:59.983Z</time></trkpt><trkpt lat="43.927575" lon="12.284905"><ele>446.8</ele><time>2026-04-11T07:57:00.983Z</time></trkpt><trkpt lat="43.9275183" lon="12.28477"><ele>445.0</ele><time>2026-04-11T07:57:01.984Z</time></trkpt><trkpt lat="43.9274567" lon="12.28464"><ele>443.8</ele><time>2026-04-11T07:57:02.983Z</time></trkpt><trkpt lat="43.92741" lon="12.2845167"><ele>442.6</ele><time>2026-04-11T07:57:03.983Z</time></trkpt><trkpt lat="43.9273767" lon="12.2843967"><ele>441.4</ele><time>2026-04-11T07:57:04.983Z</time></trkpt><trkpt lat="43.9273583" lon="12.2842517"><ele>440.2</ele><time>2026-04-11T07:57:05.983Z</time></trkpt><trkpt lat="43.9273567" lon="12.284105"><ele>439.0</ele><time>2026-04-11T07:57:06.983Z</time></trkpt><trkpt lat="43.92736" lon="12.2839783"><ele>438.0</ele><time>2026-04-11T07:57:07.983Z</time></trkpt><trkpt lat="43.927355" lon="12.28387"><ele>437.0</ele><time>2026-04-11T07:57:08.983Z</time></trkpt><trkpt lat="43.927335" lon="12.2837783"><ele>436.0</ele><time>2026-04-11T07:57:09.983Z</time></trkpt><trkpt lat="43.9273017" lon="12.2837017"><ele>435.0</ele><time>2026-04-11T07:57:10.983Z</time></trkpt><trkpt lat="43.9272583" lon="12.2836267"><ele>434.0</ele><time>2026-04-11T07:57:11.983Z</time></trkpt><trkpt lat="43.9272117" lon="12.283565"><ele>433.0</ele><time>2026-04-11T07:57:12.983Z</time></trkpt><trkpt lat="43.9271583" lon="12.2834983"><ele>432.0</ele><time>2026-04-11T07:57:13.983Z</time></trkpt><trkpt lat="43.9271083" lon="12.2834283"><ele>432.0</ele><time>2026-04-11T07:57:14.983Z</time></trkpt><trkpt lat="43.92705" lon="12.283355"><ele>432.0</ele><time>2026-04-11T07:57:15.983Z</time></trkpt><trkpt lat="43.9269933" lon="12.2832833"><ele>432.0</ele><time>2026-04-11T07:57:16.983Z</time></trkpt><trkpt lat="43.9269417" lon="12.2831883"><ele>432.0</ele><time>2026-04-11T07:57:17.983Z</time></trkpt><trkpt lat="43.9268933" lon="12.283105"><ele>432.0</ele><time>2026-04-11T07:57:18.983Z</time></trkpt><trkpt lat="43.9268467" lon="12.283015"><ele>432.0</ele><time>2026-04-11T07:57:19.983Z</time></trkpt><trkpt lat="43.9267933" lon="12.282895"><ele>430.8333333333333</ele><time>2026-04-11T07:57:20.983Z</time></trkpt><trkpt lat="43.9267417" lon="12.2827733"><ele>429.66666666666663</ele><time>2026-04-11T07:57:21.983Z</time></trkpt><trkpt lat="43.9266967" lon="12.2826483"><ele>428.5</ele><time>2026-04-11T07:57:22.983Z</time></trkpt><trkpt lat="43.9266583" lon="12.2825433"><ele>427.3333333333333</ele><time>2026-04-11T07:57:23.983Z</time></trkpt><trkpt lat="43.926635" lon="12.2824583"><ele>426.16666666666663</ele><time>2026-04-11T07:57:24.983Z</time></trkpt><trkpt lat="43.9266167" lon="12.2823683"><ele>425.0</ele><time>2026-04-11T07:57:25.983Z</time></trkpt><trkpt lat="43.9265933" lon="12.28227"><ele>426.2857142857143</ele><time>2026-04-11T07:57:26.983Z</time></trkpt><trkpt lat="43.926565" lon="12.28217"><ele>427.57142857142856</ele><time>2026-04-11T07:57:27.984Z</time></trkpt><trkpt lat="43.92653" lon="12.2820817"><ele>428.8571428571429</ele><time>2026-04-11T07:57:28.983Z</time></trkpt><trkpt lat="43.9264883" lon="12.281995"><ele>430.1428571428571</ele><time>2026-04-11T07:57:29.983Z</time></trkpt><trkpt lat="43.92645" lon="12.2819117"><ele>431.42857142857144</ele><time>2026-04-11T07:57:30.984Z</time></trkpt><trkpt lat="43.9263983" lon="12.2818333"><ele>432.7142857142857</ele><time>2026-04-11T07:57:31.983Z</time></trkpt><trkpt lat="43.9263417" lon="12.2817633"><ele>434.0</ele><time>2026-04-11T07:57:32.984Z</time></trkpt><trkpt lat="43.92627" lon="12.28169"><ele>433.99999999999994</ele><time>2026-04-11T07:57:33.984Z</time></trkpt><trkpt lat="43.9261983" lon="12.2816133"><ele>434.0</ele><time>2026-04-11T07:57:34.983Z</time></trkpt><trkpt lat="43.926125" lon="12.2815417"><ele>434.0</ele><time>2026-04-11T07:57:35.983Z</time></trkpt><trkpt lat="43.9260633" lon="12.2814833"><ele>434.0</ele><time>2026-04-11T07:57:36.983Z</time></trkpt><trkpt lat="43.9260017" lon="12.2814217"><ele>433.99999999999994</ele><time>2026-04-11T07:57:37.983Z</time></trkpt><trkpt lat="43.92596" lon="12.2813467"><ele>434.0</ele><time>2026-04-11T07:57:38.983Z</time></trkpt><trkpt lat="43.925925" lon="12.2812683"><ele>433.66666666666663</ele><time>2026-04-11T07:57:39.982Z</time></trkpt><trkpt lat="43.92589" lon="12.28118"><ele>433.3333333333333</ele><time>2026-04-11T07:57:40.982Z</time></trkpt><trkpt lat="43.92583" lon="12.2810233"><ele>433.0</ele><time>2026-04-11T07:57:42.982Z</time></trkpt><trkpt lat="43.9258033" lon="12.280935"><ele>432.66666666666663</ele><time>2026-04-11T07:57:43.982Z</time></trkpt><trkpt lat="43.9257683" lon="12.2808417"><ele>432.3333333333333</ele><time>2026-04-11T07:57:44.982Z</time></trkpt><trkpt lat="43.9257217" lon="12.2807383"><ele>432.0</ele><time>2026-04-11T07:57:45.982Z</time></trkpt><trkpt lat="43.925675" lon="12.280625"><ele>430.8333333333333</ele><time>2026-04-11T07:57:46.982Z</time></trkpt><trkpt lat="43.9256283" lon="12.2805133"><ele>429.66666666666663</ele><time>2026-04-11T07:57:47.982Z</time></trkpt><trkpt lat="43.925575" lon="12.2804117"><ele>428.5</ele><time>2026-04-11T07:57:48.983Z</time></trkpt><trkpt lat="43.9255133" lon="12.2803267"><ele>427.3333333333333</ele><time>2026-04-11T07:57:49.982Z</time></trkpt><trkpt lat="43.925445" lon="12.28025"><ele>426.16666666666663</ele><time>2026-04-11T07:57:50.982Z</time></trkpt><trkpt lat="43.9253833" lon="12.2801817"><ele>425.0</ele><time>2026-04-11T07:57:51.982Z</time></trkpt><trkpt lat="43.92531" lon="12.2801167"><ele>425.0</ele><time>2026-04-11T07:57:52.982Z</time></trkpt><trkpt lat="43.9252317" lon="12.2800467"><ele>425.0</ele><time>2026-04-11T07:57:53.983Z</time></trkpt><trkpt lat="43.9251583" lon="12.2799767"><ele>425.0</ele><time>2026-04-11T07:57:54.983Z</time></trkpt><trkpt lat="43.9250867" lon="12.279885"><ele>425.0</ele><time>2026-04-11T07:57:55.982Z</time></trkpt><trkpt lat="43.925015" lon="12.2797817"><ele>425.0</ele><time>2026-04-11T07:57:56.982Z</time></trkpt><trkpt lat="43.924945" lon="12.27967"><ele>424.0</ele><time>2026-04-11T07:57:57.982Z</time></trkpt><trkpt lat="43.9248867" lon="12.2795517"><ele>423.0</ele><time>2026-04-11T07:57:58.982Z</time></trkpt><trkpt lat="43.924835" lon="12.2794417"><ele>422.0</ele><time>2026-04-11T07:57:59.982Z</time></trkpt><trkpt lat="43.9247867" lon="12.27934"><ele>421.0</ele><time>2026-04-11T07:58:00.982Z</time></trkpt><trkpt lat="43.924735" lon="12.2792483"><ele>420.0</ele><time>2026-04-11T07:58:01.982Z</time></trkpt><trkpt lat="43.924665" lon="12.2791617"><ele>420.0</ele><time>2026-04-11T07:58:02.982Z</time></trkpt><trkpt lat="43.924595" lon="12.2790767"><ele>420.0</ele><time>2026-04-11T07:58:03.982Z</time></trkpt><trkpt lat="43.9245183" lon="12.2789867"><ele>420.0</ele><time>2026-04-11T07:58:04.982Z</time></trkpt><trkpt lat="43.9244417" lon="12.2788867"><ele>420.0</ele><time>2026-04-11T07:58:05.982Z</time></trkpt><trkpt lat="43.9243617" lon="12.2787867"><ele>420.0</ele><time>2026-04-11T07:58:06.982Z</time></trkpt><trkpt lat="43.924285" lon="12.2786817"><ele>419.8</ele><time>2026-04-11T07:58:07.982Z</time></trkpt><trkpt lat="43.9242083" lon="12.278575"><ele>419.6</ele><time>2026-04-11T07:58:08.982Z</time></trkpt><trkpt lat="43.9241267" lon="12.278485"><ele>419.4</ele><time>2026-04-11T07:58:09.982Z</time></trkpt><trkpt lat="43.9240467" lon="12.278415"><ele>419.2</ele><time>2026-04-11T07:58:10.982Z</time></trkpt><trkpt lat="43.923965" lon="12.2783433"><ele>419.0</ele><time>2026-04-11T07:58:11.982Z</time></trkpt><trkpt lat="43.9238833" lon="12.2782733"><ele>419.0</ele><time>2026-04-11T07:58:12.982Z</time></trkpt><trkpt lat="43.9238033" lon="12.2781983"><ele>419.0</ele><time>2026-04-11T07:58:13.982Z</time></trkpt><trkpt lat="43.923715" lon="12.27813"><ele>419.0</ele><time>2026-04-11T07:58:14.982Z</time></trkpt><trkpt lat="43.92363" lon="12.2780583"><ele>419.0</ele><time>2026-04-11T07:58:15.982Z</time></trkpt><trkpt lat="43.923545" lon="12.277975"><ele>419.0</ele><time>2026-04-11T07:58:16.982Z</time></trkpt><trkpt lat="43.9234567" lon="12.2779033"><ele>419.66666666666663</ele><time>2026-04-11T07:58:17.982Z</time></trkpt><trkpt lat="43.923385" lon="12.27782"><ele>420.3333333333333</ele><time>2026-04-11T07:58:18.982Z</time></trkpt><trkpt lat="43.9233167" lon="12.2777383"><ele>421.0</ele><time>2026-04-11T07:58:19.982Z</time></trkpt><trkpt lat="43.9232567" lon="12.277655"><ele>421.66666666666663</ele><time>2026-04-11T07:58:20.982Z</time></trkpt><trkpt lat="43.92319" lon="12.277575"><ele>422.3333333333333</ele><time>2026-04-11T07:58:21.982Z</time></trkpt><trkpt lat="43.923115" lon="12.2775"><ele>423.0</ele><time>2026-04-11T07:58:22.982Z</time></trkpt><trkpt lat="43.9230367" lon="12.2774283"><ele>423.0</ele><time>2026-04-11T07:58:23.982Z</time></trkpt><trkpt lat="43.92295" lon="12.277355"><ele>423.0</ele><time>2026-04-11T07:58:24.982Z</time></trkpt><trkpt lat="43.9228683" lon="12.2772883"><ele>423.0</ele><time>2026-04-11T07:58:25.982Z</time></trkpt><trkpt lat="43.92279" lon="12.2772083"><ele>423.0</ele><time>2026-04-11T07:58:26.982Z</time></trkpt><trkpt lat="43.9227033" lon="12.2771367"><ele>423.0</ele><time>2026-04-11T07:58:27.983Z</time></trkpt><trkpt lat="43.922625" lon="12.2770667"><ele>426.0</ele><time>2026-04-11T07:58:28.982Z</time></trkpt><trkpt lat="43.922545" lon="12.277"><ele>429.0</ele><time>2026-04-11T07:58:29.982Z</time></trkpt><trkpt lat="43.9224683" lon="12.2769267"><ele>431.99999999999994</ele><time>2026-04-11T07:58:30.983Z</time></trkpt><trkpt lat="43.922395" lon="12.276855"><ele>435.0</ele><time>2026-04-11T07:58:31.983Z</time></trkpt><trkpt lat="43.9223233" lon="12.2767867"><ele>438.0</ele><time>2026-04-11T07:58:32.983Z</time></trkpt><trkpt lat="43.9222533" lon="12.276705"><ele>438.0</ele><time>2026-04-11T07:58:33.982Z</time></trkpt><trkpt lat="43.922195" lon="12.2766333"><ele>438.0</ele><time>2026-04-11T07:58:34.982Z</time></trkpt><trkpt lat="43.9221467" lon="12.2765533"><ele>438.0</ele><time>2026-04-11T07:58:35.982Z</time></trkpt><trkpt lat="43.922105" lon="12.2764683"><ele>438.0</ele><time>2026-04-11T07:58:36.982Z</time></trkpt><trkpt lat="43.9220717" lon="12.2763917"><ele>438.0</ele><time>2026-04-11T07:58:37.982Z</time></trkpt><trkpt lat="43.921985" lon="12.276255"><ele>438.0</ele><time>2026-04-11T07:58:39.982Z</time></trkpt><trkpt lat="43.9219367" lon="12.2761683"><ele>439.3333333333333</ele><time>2026-04-11T07:58:40.982Z</time></trkpt><trkpt lat="43.9218833" lon="12.2760717"><ele>440.66666666666663</ele><time>2026-04-11T07:58:41.982Z</time></trkpt><trkpt lat="43.9218367" lon="12.27598"><ele>442.0</ele><time>2026-04-11T07:58:42.982Z</time></trkpt><trkpt lat="43.92179" lon="12.2758933"><ele>443.3333333333333</ele><time>2026-04-11T07:58:43.983Z</time></trkpt><trkpt lat="43.921745" lon="12.2758083"><ele>444.66666666666663</ele><time>2026-04-11T07:58:44.982Z</time></trkpt><trkpt lat="43.9217033" lon="12.2757167"><ele>446.0</ele><time>2026-04-11T07:58:45.982Z</time></trkpt><trkpt lat="43.9216717" lon="12.275625"><ele>447.85714285714283</ele><time>2026-04-11T07:58:46.982Z</time></trkpt><trkpt lat="43.9216467" lon="12.2755317"><ele>449.71428571428567</ele><time>2026-04-11T07:58:47.982Z</time></trkpt><trkpt lat="43.9216317" lon="12.27544"><ele>451.57142857142856</ele><time>2026-04-11T07:58:48.982Z</time></trkpt><trkpt lat="43.9216167" lon="12.27534"><ele>453.42857142857144</ele><time>2026-04-11T07:58:49.982Z</time></trkpt><trkpt lat="43.9216067" lon="12.2752367"><ele>455.2857142857143</ele><time>2026-04-11T07:58:50.982Z</time></trkpt><trkpt lat="43.9215867" lon="12.275125"><ele>457.14285714285717</ele><time>2026-04-11T07:58:51.982Z</time></trkpt><trkpt lat="43.9215783" lon="12.2750233"><ele>459.0</ele><time>2026-04-11T07:58:52.982Z</time></trkpt><trkpt lat="43.9215583" lon="12.2749067"><ele>459.0</ele><time>2026-04-11T07:58:53.982Z</time></trkpt><trkpt lat="43.9215433" lon="12.27479"><ele>459.0</ele><time>2026-04-11T07:58:54.982Z</time></trkpt><trkpt lat="43.9215333" lon="12.2746667"><ele>459.0</ele><time>2026-04-11T07:58:55.982Z</time></trkpt><trkpt lat="43.9215233" lon="12.27454"><ele>459.0</ele><time>2026-04-11T07:58:56.982Z</time></trkpt><trkpt lat="43.921525" lon="12.2744117"><ele>459.0</ele><time>2026-04-11T07:58:57.982Z</time></trkpt><trkpt lat="43.9215233" lon="12.27429"><ele>459.0</ele><time>2026-04-11T07:58:58.983Z</time></trkpt><trkpt lat="43.92151" lon="12.274165"><ele>460.6</ele><time>2026-04-11T07:58:59.983Z</time></trkpt><trkpt lat="43.92149" lon="12.2740433"><ele>462.2</ele><time>2026-04-11T07:59:00.982Z</time></trkpt><trkpt lat="43.9214733" lon="12.2739183"><ele>463.80000000000007</ele><time>2026-04-11T07:59:01.982Z</time></trkpt><trkpt lat="43.9214433" lon="12.27379"><ele>465.40000000000003</ele><time>2026-04-11T07:59:02.982Z</time></trkpt><trkpt lat="43.921425" lon="12.27366"><ele>467.0</ele><time>2026-04-11T07:59:03.982Z</time></trkpt><trkpt lat="43.9214067" lon="12.273525"><ele>468.6</ele><time>2026-04-11T07:59:04.982Z</time></trkpt><trkpt lat="43.9213883" lon="12.2733933"><ele>470.20000000000005</ele><time>2026-04-11T07:59:05.982Z</time></trkpt><trkpt lat="43.9213717" lon="12.273265"><ele>471.8</ele><time>2026-04-11T07:59:06.982Z</time></trkpt><trkpt lat="43.9213467" lon="12.2731367"><ele>473.4</ele><time>2026-04-11T07:59:07.983Z</time></trkpt><trkpt lat="43.92132" lon="12.2730017"><ele>475.0</ele><time>2026-04-11T07:59:08.983Z</time></trkpt><trkpt lat="43.9212917" lon="12.272865"><ele>476.33333333333337</ele><time>2026-04-11T07:59:09.982Z</time></trkpt><trkpt lat="43.9212667" lon="12.2727367"><ele>477.6666666666667</ele><time>2026-04-11T07:59:10.982Z</time></trkpt><trkpt lat="43.9212483" lon="12.2726183"><ele>479.0</ele><time>2026-04-11T07:59:11.982Z</time></trkpt><trkpt lat="43.9212217" lon="12.2724967"><ele>480.33333333333337</ele><time>2026-04-11T07:59:12.983Z</time></trkpt><trkpt lat="43.9211883" lon="12.2723833"><ele>481.6666666666667</ele><time>2026-04-11T07:59:13.982Z</time></trkpt><trkpt lat="43.921165" lon="12.2722733"><ele>483.0</ele><time>2026-04-11T07:59:14.982Z</time></trkpt><trkpt lat="43.9211417" lon="12.2721567"><ele>483.5</ele><time>2026-04-11T07:59:15.983Z</time></trkpt><trkpt lat="43.9211167" lon="12.272045"><ele>484.0</ele><time>2026-04-11T07:59:16.983Z</time></trkpt><trkpt lat="43.9210883" lon="12.2719433"><ele>484.5</ele><time>2026-04-11T07:59:17.983Z</time></trkpt><trkpt lat="43.9210483" lon="12.2718483"><ele>485.0</ele><time>2026-04-11T07:59:18.982Z</time></trkpt><trkpt lat="43.9209883" lon="12.2717667"><ele>485.5</ele><time>2026-04-11T07:59:19.982Z</time></trkpt><trkpt lat="43.9209267" lon="12.2716883"><ele>486.0</ele><time>2026-04-11T07:59:20.982Z</time></trkpt><trkpt lat="43.9208567" lon="12.271605"><ele>486.0</ele><time>2026-04-11T07:59:21.982Z</time></trkpt><trkpt lat="43.920785" lon="12.2715167"><ele>486.0</ele><time>2026-04-11T07:59:22.983Z</time></trkpt><trkpt lat="43.9207217" lon="12.2714183"><ele>486.0</ele><time>2026-04-11T07:59:23.982Z</time></trkpt><trkpt lat="43.92066" lon="12.2713167"><ele>486.0</ele><time>2026-04-11T07:59:24.982Z</time></trkpt><trkpt lat="43.9205917" lon="12.2712183"><ele>486.0</ele><time>2026-04-11T07:59:25.982Z</time></trkpt><trkpt lat="43.92052" lon="12.2711067"><ele>487.0</ele><time>2026-04-11T07:59:26.982Z</time></trkpt><trkpt lat="43.9204417" lon="12.271"><ele>488.0</ele><time>2026-04-11T07:59:27.982Z</time></trkpt><trkpt lat="43.9203717" lon="12.2708967"><ele>489.0</ele><time>2026-04-11T07:59:28.982Z</time></trkpt><trkpt lat="43.9203033" lon="12.2707933"><ele>490.0</ele><time>2026-04-11T07:59:29.982Z</time></trkpt><trkpt lat="43.92024" lon="12.27069"><ele>491.0</ele><time>2026-04-11T07:59:30.982Z</time></trkpt><trkpt lat="43.92019" lon="12.2705833"><ele>490.49999999999994</ele><time>2026-04-11T07:59:31.982Z</time></trkpt><trkpt lat="43.9201483" lon="12.270465"><ele>490.0</ele><time>2026-04-11T07:59:32.983Z</time></trkpt><trkpt lat="43.9201183" lon="12.27035"><ele>489.5</ele><time>2026-04-11T07:59:33.982Z</time></trkpt><trkpt lat="43.9200967" lon="12.2702317"><ele>489.0</ele><time>2026-04-11T07:59:34.982Z</time></trkpt><trkpt lat="43.9200767" lon="12.27012"><ele>488.49999999999994</ele><time>2026-04-11T07:59:35.982Z</time></trkpt><trkpt lat="43.92004" lon="12.2700267"><ele>488.0</ele><time>2026-04-11T07:59:36.982Z</time></trkpt><trkpt lat="43.9199783" lon="12.2699417"><ele>488.0</ele><time>2026-04-11T07:59:37.983Z</time></trkpt><trkpt lat="43.9198933" lon="12.26986"><ele>487.99999999999994</ele><time>2026-04-11T07:59:38.982Z</time></trkpt><trkpt lat="43.9197933" lon="12.2697917"><ele>487.99999999999994</ele><time>2026-04-11T07:59:39.983Z</time></trkpt><trkpt lat="43.9196917" lon="12.2697217"><ele>488.0</ele><time>2026-04-11T07:59:40.982Z</time></trkpt><trkpt lat="43.9196117" lon="12.2696783"><ele>488.0</ele><time>2026-04-11T07:59:41.982Z</time></trkpt><trkpt lat="43.9195017" lon="12.2696283"><ele>487.4</ele><time>2026-04-11T07:59:43.982Z</time></trkpt><trkpt lat="43.919375" lon="12.269595"><ele>486.79999999999995</ele><time>2026-04-11T07:59:45.982Z</time></trkpt><trkpt lat="43.9193" lon="12.269585"><ele>486.2</ele><time>2026-04-11T07:59:46.982Z</time></trkpt><trkpt lat="43.919215" lon="12.269565"><ele>485.6</ele><time>2026-04-11T07:59:47.982Z</time></trkpt><trkpt lat="43.919115" lon="12.2695567"><ele>485.0</ele><time>2026-04-11T07:59:48.982Z</time></trkpt><trkpt lat="43.9190133" lon="12.26954"><ele>485.0</ele><time>2026-04-11T07:59:49.982Z</time></trkpt><trkpt lat="43.91889" lon="12.2695433"><ele>485.0</ele><time>2026-04-11T07:59:50.982Z</time></trkpt><trkpt lat="43.918755" lon="12.2695517"><ele>485.0</ele><time>2026-04-11T07:59:51.982Z</time></trkpt><trkpt lat="43.9186183" lon="12.269555"><ele>485.0</ele><time>2026-04-11T07:59:52.982Z</time></trkpt><trkpt lat="43.9184767" lon="12.269555"><ele>487.25</ele><time>2026-04-11T07:59:53.982Z</time></trkpt><trkpt lat="43.9183533" lon="12.2695533"><ele>489.5</ele><time>2026-04-11T07:59:54.982Z</time></trkpt><trkpt lat="43.9182233" lon="12.269545"><ele>491.75</ele><time>2026-04-11T07:59:55.982Z</time></trkpt><trkpt lat="43.9180967" lon="12.2695167"><ele>494.0</ele><time>2026-04-11T07:59:56.982Z</time></trkpt><trkpt lat="43.9179717" lon="12.2694783"><ele>494.0</ele><time>2026-04-11T07:59:57.982Z</time></trkpt><trkpt lat="43.9178417" lon="12.269435"><ele>494.0</ele><time>2026-04-11T07:59:58.982Z</time></trkpt><trkpt lat="43.9177083" lon="12.2693933"><ele>494.0</ele><time>2026-04-11T07:59:59.983Z</time></trkpt><trkpt lat="43.91757" lon="12.26936"><ele>494.0</ele><time>2026-04-11T08:00:00.982Z</time></trkpt><trkpt lat="43.917445" lon="12.2693183"><ele>494.75</ele><time>2026-04-11T08:00:01.982Z</time></trkpt><trkpt lat="43.91731" lon="12.26927"><ele>495.5</ele><time>2026-04-11T08:00:02.982Z</time></trkpt><trkpt lat="43.917185" lon="12.26923"><ele>496.25</ele><time>2026-04-11T08:00:03.982Z</time></trkpt><trkpt lat="43.9170583" lon="12.2691983"><ele>497.0</ele><time>2026-04-11T08:00:04.982Z</time></trkpt><trkpt lat="43.9169433" lon="12.2691633"><ele>497.0</ele><time>2026-04-11T08:00:05.982Z</time></trkpt><trkpt lat="43.9168367" lon="12.2691467"><ele>497.00000000000006</ele><time>2026-04-11T08:00:06.983Z</time></trkpt><trkpt lat="43.9167217" lon="12.2691567"><ele>497.00000000000006</ele><time>2026-04-11T08:00:07.983Z</time></trkpt><trkpt lat="43.9166167" lon="12.2691817"><ele>497.0</ele><time>2026-04-11T08:00:08.982Z</time></trkpt><trkpt lat="43.9165083" lon="12.26918"><ele>497.0</ele><time>2026-04-11T08:00:09.982Z</time></trkpt><trkpt lat="43.9163933" lon="12.269145"><ele>497.0</ele><time>2026-04-11T08:00:10.983Z</time></trkpt><trkpt lat="43.9162783" lon="12.2690817"><ele>497.0</ele><time>2026-04-11T08:00:11.983Z</time></trkpt><trkpt lat="43.9161517" lon="12.26902"><ele>497.0</ele><time>2026-04-11T08:00:12.982Z</time></trkpt><trkpt lat="43.916015" lon="12.2689533"><ele>497.0</ele><time>2026-04-11T08:00:13.982Z</time></trkpt><trkpt lat="43.91588" lon="12.2688733"><ele>497.0</ele><time>2026-04-11T08:00:14.982Z</time></trkpt><trkpt lat="43.9157417" lon="12.2688067"><ele>497.0</ele><time>2026-04-11T08:00:15.982Z</time></trkpt><trkpt lat="43.91562" lon="12.2687267"><ele>497.0</ele><time>2026-04-11T08:00:16.982Z</time></trkpt><trkpt lat="43.915505" lon="12.2686567"><ele>497.0</ele><time>2026-04-11T08:00:17.982Z</time></trkpt><trkpt lat="43.9153983" lon="12.2685733"><ele>496.99999999999994</ele><time>2026-04-11T08:00:18.982Z</time></trkpt><trkpt lat="43.91531" lon="12.2684833"><ele>497.0</ele><time>2026-04-11T08:00:19.982Z</time></trkpt><trkpt lat="43.9152483" lon="12.2684"><ele>497.0</ele><time>2026-04-11T08:00:20.982Z</time></trkpt><trkpt lat="43.9152033" lon="12.2683117"><ele>497.0</ele><time>2026-04-11T08:00:21.982Z</time></trkpt><trkpt lat="43.9151617" lon="12.268225"><ele>496.99999999999994</ele><time>2026-04-11T08:00:22.982Z</time></trkpt><trkpt lat="43.9151233" lon="12.2681333"><ele>497.0</ele><time>2026-04-11T08:00:23.982Z</time></trkpt><trkpt lat="43.9150683" lon="12.2680417"><ele>495.8</ele><time>2026-04-11T08:00:24.982Z</time></trkpt><trkpt lat="43.9149917" lon="12.2679633"><ele>494.6</ele><time>2026-04-11T08:00:25.982Z</time></trkpt><trkpt lat="43.91489" lon="12.2678867"><ele>493.40000000000003</ele><time>2026-04-11T08:00:26.983Z</time></trkpt><trkpt lat="43.9147867" lon="12.2678017"><ele>492.20000000000005</ele><time>2026-04-11T08:00:27.982Z</time></trkpt><trkpt lat="43.9146883" lon="12.2677217"><ele>491.0</ele><time>2026-04-11T08:00:28.983Z</time></trkpt><trkpt lat="43.9145883" lon="12.2676383"><ele>491.0</ele><time>2026-04-11T08:00:29.982Z</time></trkpt><trkpt lat="43.914475" lon="12.2675733"><ele>491.0</ele><time>2026-04-11T08:00:30.982Z</time></trkpt><trkpt lat="43.91437" lon="12.2674867"><ele>491.0</ele><time>2026-04-11T08:00:31.983Z</time></trkpt><trkpt lat="43.9142617" lon="12.2674017"><ele>491.0</ele><time>2026-04-11T08:00:32.982Z</time></trkpt><trkpt lat="43.914155" lon="12.2673133"><ele>489.5</ele><time>2026-04-11T08:00:33.982Z</time></trkpt><trkpt lat="43.91404" lon="12.2672283"><ele>488.0</ele><time>2026-04-11T08:00:34.982Z</time></trkpt><trkpt lat="43.9139167" lon="12.2671433"><ele>486.5</ele><time>2026-04-11T08:00:35.982Z</time></trkpt><trkpt lat="43.913795" lon="12.267085"><ele>485.0</ele><time>2026-04-11T08:00:36.983Z</time></trkpt><trkpt lat="43.9136967" lon="12.2670333"><ele>485.0</ele><time>2026-04-11T08:00:37.982Z</time></trkpt><trkpt lat="43.913605" lon="12.2669733"><ele>485.0</ele><time>2026-04-11T08:00:38.982Z</time></trkpt><trkpt lat="43.9135233" lon="12.2669"><ele>485.0</ele><time>2026-04-11T08:00:39.982Z</time></trkpt><trkpt lat="43.9134483" lon="12.2668267"><ele>485.0</ele><time>2026-04-11T08:00:40.982Z</time></trkpt><trkpt lat="43.91336" lon="12.266755"><ele>485.0</ele><time>2026-04-11T08:00:41.982Z</time></trkpt><trkpt lat="43.9132633" lon="12.26666"><ele>485.6</ele><time>2026-04-11T08:00:42.982Z</time></trkpt><trkpt lat="43.913155" lon="12.26657"><ele>486.2</ele><time>2026-04-11T08:00:43.982Z</time></trkpt><trkpt lat="43.9130533" lon="12.2664917"><ele>486.79999999999995</ele><time>2026-04-11T08:00:44.983Z</time></trkpt><trkpt lat="43.91296" lon="12.2664267"><ele>487.4</ele><time>2026-04-11T08:00:45.983Z</time></trkpt><trkpt lat="43.9128667" lon="12.2663733"><ele>488.0</ele><time>2026-04-11T08:00:46.982Z</time></trkpt><trkpt lat="43.91278" lon="12.2663167"><ele>488.0</ele><time>2026-04-11T08:00:47.982Z</time></trkpt><trkpt lat="43.912695" lon="12.2662467"><ele>487.99999999999994</ele><time>2026-04-11T08:00:48.982Z</time></trkpt><trkpt lat="43.9126117" lon="12.2661767"><ele>487.99999999999994</ele><time>2026-04-11T08:00:49.982Z</time></trkpt><trkpt lat="43.912525" lon="12.266105"><ele>488.0</ele><time>2026-04-11T08:00:50.982Z</time></trkpt><trkpt lat="43.9124317" lon="12.26602"><ele>488.0</ele><time>2026-04-11T08:00:51.982Z</time></trkpt><trkpt lat="43.9123233" lon="12.2659433"><ele>488.75</ele><time>2026-04-11T08:00:52.982Z</time></trkpt><trkpt lat="43.9122183" lon="12.2658533"><ele>489.5</ele><time>2026-04-11T08:00:53.982Z</time></trkpt><trkpt lat="43.9121083" lon="12.265765"><ele>490.25</ele><time>2026-04-11T08:00:54.982Z</time></trkpt><trkpt lat="43.91199" lon="12.2656733"><ele>491.0</ele><time>2026-04-11T08:00:55.982Z</time></trkpt><trkpt lat="43.9118867" lon="12.2655633"><ele>491.0</ele><time>2026-04-11T08:00:56.982Z</time></trkpt><trkpt lat="43.9117917" lon="12.265465"><ele>491.0</ele><time>2026-04-11T08:00:57.982Z</time></trkpt><trkpt lat="43.9117183" lon="12.2653383"><ele>491.0</ele><time>2026-04-11T08:00:58.982Z</time></trkpt><trkpt lat="43.9116567" lon="12.2651967"><ele>491.0</ele><time>2026-04-11T08:00:59.982Z</time></trkpt><trkpt lat="43.9115967" lon="12.2650383"><ele>495.3333333333333</ele><time>2026-04-11T08:01:00.982Z</time></trkpt><trkpt lat="43.9115283" lon="12.264865"><ele>499.66666666666663</ele><time>2026-04-11T08:01:01.982Z</time></trkpt><trkpt lat="43.91145" lon="12.2646767"><ele>504.0</ele><time>2026-04-11T08:01:02.982Z</time></trkpt><trkpt lat="43.9113733" lon="12.2644933"><ele>504.0</ele><time>2026-04-11T08:01:03.983Z</time></trkpt><trkpt lat="43.911295" lon="12.2643133"><ele>504.0</ele><time>2026-04-11T08:01:04.982Z</time></trkpt><trkpt lat="43.911215" lon="12.2641333"><ele>504.0</ele><time>2026-04-11T08:01:05.982Z</time></trkpt><trkpt lat="43.911125" lon="12.2639533"><ele>506.25</ele><time>2026-04-11T08:01:06.982Z</time></trkpt><trkpt lat="43.9110283" lon="12.2637767"><ele>508.5</ele><time>2026-04-11T08:01:07.983Z</time></trkpt><trkpt lat="43.9109433" lon="12.2636083"><ele>510.75</ele><time>2026-04-11T08:01:08.982Z</time></trkpt><trkpt lat="43.9108767" lon="12.263455"><ele>513.0</ele><time>2026-04-11T08:01:09.982Z</time></trkpt><trkpt lat="43.91084" lon="12.26331"><ele>514.75</ele><time>2026-04-11T08:01:10.982Z</time></trkpt><trkpt lat="43.9108483" lon="12.26316"><ele>516.5</ele><time>2026-04-11T08:01:11.983Z</time></trkpt><trkpt lat="43.91088" lon="12.26301"><ele>518.25</ele><time>2026-04-11T08:01:12.982Z</time></trkpt><trkpt lat="43.910935" lon="12.2628483"><ele>520.0</ele><time>2026-04-11T08:01:13.982Z</time></trkpt><trkpt lat="43.9109867" lon="12.2626733"><ele>520.0</ele><time>2026-04-11T08:01:14.982Z</time></trkpt><trkpt lat="43.91101" lon="12.2625"><ele>520.0</ele><time>2026-04-11T08:01:15.982Z</time></trkpt><trkpt lat="43.911045" lon="12.2623183"><ele>520.0</ele><time>2026-04-11T08:01:16.981Z</time></trkpt><trkpt lat="43.911075" lon="12.2621433"><ele>520.0</ele><time>2026-04-11T08:01:17.981Z</time></trkpt><trkpt lat="43.9110967" lon="12.2619733"><ele>521.1666666666667</ele><time>2026-04-11T08:01:18.981Z</time></trkpt><trkpt lat="43.9111233" lon="12.261835"><ele>522.3333333333334</ele><time>2026-04-11T08:01:19.981Z</time></trkpt><trkpt lat="43.9111733" lon="12.261715"><ele>523.5</ele><time>2026-04-11T08:01:20.981Z</time></trkpt><trkpt lat="43.9112133" lon="12.261615"><ele>524.6666666666666</ele><time>2026-04-11T08:01:21.981Z</time></trkpt><trkpt lat="43.9112483" lon="12.261535"><ele>525.8333333333333</ele><time>2026-04-11T08:01:22.981Z</time></trkpt><trkpt lat="43.9112933" lon="12.2614717"><ele>527.0</ele><time>2026-04-11T08:01:23.982Z</time></trkpt><trkpt lat="43.9113617" lon="12.261395"><ele>528.5</ele><time>2026-04-11T08:01:25.981Z</time></trkpt><trkpt lat="43.9114083" lon="12.2613117"><ele>530.0</ele><time>2026-04-11T08:01:28.982Z</time></trkpt><trkpt lat="43.911445" lon="12.261225"><ele>531.5</ele><time>2026-04-11T08:01:34.981Z</time></trkpt><trkpt lat="43.91148" lon="12.2611433"><ele>533.0</ele><time>2026-04-11T08:01:38.981Z</time></trkpt><trkpt lat="43.9115483" lon="12.2610783"><ele>534.5</ele><time>2026-04-11T08:01:42.981Z</time></trkpt><trkpt lat="43.91161" lon="12.2610183"><ele>536.0</ele><time>2026-04-11T08:01:45.981Z</time></trkpt><trkpt lat="43.9116833" lon="12.260925"><ele>534.75</ele><time>2026-04-11T08:01:48.982Z</time></trkpt><trkpt lat="43.91177" lon="12.2608067"><ele>533.5</ele><time>2026-04-11T08:01:50.981Z</time></trkpt><trkpt lat="43.911825" lon="12.260715"><ele>532.25</ele><time>2026-04-11T08:01:51.981Z</time></trkpt><trkpt lat="43.9118983" lon="12.2605933"><ele>531.0</ele><time>2026-04-11T08:01:52.981Z</time></trkpt><trkpt lat="43.911995" lon="12.26044"><ele>534.3333333333334</ele><time>2026-04-11T08:01:53.981Z</time></trkpt><trkpt lat="43.912085" lon="12.2602817"><ele>537.6666666666667</ele><time>2026-04-11T08:01:54.981Z</time></trkpt><trkpt lat="43.9121867" lon="12.26013"><ele>541.0</ele><time>2026-04-11T08:01:55.981Z</time></trkpt><trkpt lat="43.912295" lon="12.25997"><ele>541.0</ele><time>2026-04-11T08:01:56.982Z</time></trkpt><trkpt lat="43.9124033" lon="12.2598"><ele>541.0</ele><time>2026-04-11T08:01:57.981Z</time></trkpt><trkpt lat="43.9125017" lon="12.25965"><ele>541.0</ele><time>2026-04-11T08:01:58.981Z</time></trkpt><trkpt lat="43.9125967" lon="12.2595117"><ele>541.0</ele><time>2026-04-11T08:01:59.982Z</time></trkpt><trkpt lat="43.91268" lon="12.259365"><ele>541.8333333333334</ele><time>2026-04-11T08:02:00.981Z</time></trkpt><trkpt lat="43.912745" lon="12.2592233"><ele>542.6666666666667</ele><time>2026-04-11T08:02:01.981Z</time></trkpt><trkpt lat="43.9127833" lon="12.2591067"><ele>543.5</ele><time>2026-04-11T08:02:02.981Z</time></trkpt><trkpt lat="43.912775" lon="12.2590067"><ele>544.3333333333334</ele><time>2026-04-11T08:02:03.981Z</time></trkpt><trkpt lat="43.9127317" lon="12.25892"><ele>545.1666666666666</ele><time>2026-04-11T08:02:04.982Z</time></trkpt><trkpt lat="43.9126667" lon="12.258845"><ele>546.0</ele><time>2026-04-11T08:02:05.981Z</time></trkpt><trkpt lat="43.9125817" lon="12.25879"><ele>549.5</ele><time>2026-04-11T08:02:06.981Z</time></trkpt><trkpt lat="43.9124767" lon="12.2587533"><ele>553.0</ele><time>2026-04-11T08:02:07.981Z</time></trkpt><trkpt lat="43.9123367" lon="12.2587317"><ele>556.5</ele><time>2026-04-11T08:02:08.981Z</time></trkpt><trkpt lat="43.912185" lon="12.258695"><ele>560.0</ele><time>2026-04-11T08:02:09.981Z</time></trkpt><trkpt lat="43.9120383" lon="12.2586467"><ele>560.0</ele><time>2026-04-11T08:02:10.981Z</time></trkpt><trkpt lat="43.9118867" lon="12.2585817"><ele>560.0</ele><time>2026-04-11T08:02:11.981Z</time></trkpt><trkpt lat="43.9117317" lon="12.2585183"><ele>560.0</ele><time>2026-04-11T08:02:12.981Z</time></trkpt><trkpt lat="43.91158" lon="12.2584617"><ele>562.6666666666666</ele><time>2026-04-11T08:02:13.981Z</time></trkpt><trkpt lat="43.911425" lon="12.2583833"><ele>565.3333333333334</ele><time>2026-04-11T08:02:14.981Z</time></trkpt><trkpt lat="43.91128" lon="12.258315"><ele>568.0</ele><time>2026-04-11T08:02:15.982Z</time></trkpt><trkpt lat="43.9111367" lon="12.2582483"><ele>568.0</ele><time>2026-04-11T08:02:16.981Z</time></trkpt><trkpt lat="43.9109867" lon="12.2581867"><ele>568.0</ele><time>2026-04-11T08:02:17.981Z</time></trkpt><trkpt lat="43.9108433" lon="12.25813"><ele>568.0</ele><time>2026-04-11T08:02:18.981Z</time></trkpt><trkpt lat="43.910705" lon="12.2580917"><ele>568.0</ele><time>2026-04-11T08:02:19.982Z</time></trkpt><trkpt lat="43.9105617" lon="12.2580567"><ele>571.5</ele><time>2026-04-11T08:02:20.981Z</time></trkpt><trkpt lat="43.9104433" lon="12.2579983"><ele>575.0</ele><time>2026-04-11T08:02:21.981Z</time></trkpt><trkpt lat="43.9103583" lon="12.257905"><ele>578.5</ele><time>2026-04-11T08:02:22.981Z</time></trkpt><trkpt lat="43.9102967" lon="12.2577817"><ele>582.0</ele><time>2026-04-11T08:02:23.981Z</time></trkpt><trkpt lat="43.910275" lon="12.2576333"><ele>582.0</ele><time>2026-04-11T08:02:24.982Z</time></trkpt><trkpt lat="43.910245" lon="12.2574667"><ele>582.0</ele><time>2026-04-11T08:02:25.981Z</time></trkpt><trkpt lat="43.91021" lon="12.257275"><ele>582.0</ele><time>2026-04-11T08:02:26.981Z</time></trkpt><trkpt lat="43.9101867" lon="12.2570783"><ele>582.0</ele><time>2026-04-11T08:02:27.982Z</time></trkpt><trkpt lat="43.9101683" lon="12.2568767"><ele>584.0</ele><time>2026-04-11T08:02:28.981Z</time></trkpt><trkpt lat="43.9101683" lon="12.256695"><ele>586.0</ele><time>2026-04-11T08:02:29.981Z</time></trkpt><trkpt lat="43.9101983" lon="12.2565833"><ele>588.0</ele><time>2026-04-11T08:02:30.981Z</time></trkpt><trkpt lat="43.9102617" lon="12.25652"><ele>590.0</ele><time>2026-04-11T08:02:31.981Z</time></trkpt><trkpt lat="43.91035" lon="12.2564883"><ele>592.0</ele><time>2026-04-11T08:02:32.981Z</time></trkpt><trkpt lat="43.910455" lon="12.2564633"><ele>593.5</ele><time>2026-04-11T08:02:33.981Z</time></trkpt><trkpt lat="43.910575" lon="12.2564467"><ele>595.0</ele><time>2026-04-11T08:02:34.982Z</time></trkpt><trkpt lat="43.9107017" lon="12.2564183"><ele>596.5</ele><time>2026-04-11T08:02:35.981Z</time></trkpt><trkpt lat="43.910835" lon="12.2563817"><ele>598.0</ele><time>2026-04-11T08:02:36.982Z</time></trkpt><trkpt lat="43.91096" lon="12.2563367"><ele>598.0</ele><time>2026-04-11T08:02:37.982Z</time></trkpt><trkpt lat="43.9110767" lon="12.25627"><ele>598.0</ele><time>2026-04-11T08:02:38.981Z</time></trkpt><trkpt lat="43.9111983" lon="12.2561783"><ele>598.0</ele><time>2026-04-11T08:02:39.981Z</time></trkpt><trkpt lat="43.911305" lon="12.2560617"><ele>598.0</ele><time>2026-04-11T08:02:40.981Z</time></trkpt><trkpt lat="43.911405" lon="12.255935"><ele>598.0</ele><time>2026-04-11T08:02:41.981Z</time></trkpt><trkpt lat="43.9115167" lon="12.2557883"><ele>598.0</ele><time>2026-04-11T08:02:42.981Z</time></trkpt><trkpt lat="43.91164" lon="12.2556317"><ele>598.0</ele><time>2026-04-11T08:02:43.981Z</time></trkpt><trkpt lat="43.91177" lon="12.2554683"><ele>601.0</ele><time>2026-04-11T08:02:44.981Z</time></trkpt><trkpt lat="43.9118983" lon="12.2553"><ele>604.0</ele><time>2026-04-11T08:02:45.981Z</time></trkpt><trkpt lat="43.912015" lon="12.2551533"><ele>607.0</ele><time>2026-04-11T08:02:46.982Z</time></trkpt><trkpt lat="43.9121183" lon="12.2550233"><ele>607.0</ele><time>2026-04-11T08:02:47.981Z</time></trkpt><trkpt lat="43.9122017" lon="12.2549183"><ele>607.0</ele><time>2026-04-11T08:02:48.981Z</time></trkpt><trkpt lat="43.9122633" lon="12.254805"><ele>607.0</ele><time>2026-04-11T08:02:49.982Z</time></trkpt><trkpt lat="43.9123033" lon="12.2546783"><ele>607.0</ele><time>2026-04-11T08:02:50.981Z</time></trkpt><trkpt lat="43.91231" lon="12.2545333"><ele>607.0</ele><time>2026-04-11T08:02:51.981Z</time></trkpt><trkpt lat="43.9122967" lon="12.254365"><ele>606.5</ele><time>2026-04-11T08:02:52.981Z</time></trkpt><trkpt lat="43.91227" lon="12.2541783"><ele>606.0</ele><time>2026-04-11T08:02:53.981Z</time></trkpt><trkpt lat="43.912255" lon="12.2539883"><ele>605.5</ele><time>2026-04-11T08:02:54.981Z</time></trkpt><trkpt lat="43.91225" lon="12.2538067"><ele>605.0</ele><time>2026-04-11T08:02:55.981Z</time></trkpt><trkpt lat="43.9122633" lon="12.25365"><ele>605.0</ele><time>2026-04-11T08:02:56.981Z</time></trkpt><trkpt lat="43.912305" lon="12.25351"><ele>605.0</ele><time>2026-04-11T08:02:57.981Z</time></trkpt><trkpt lat="43.91237" lon="12.2533783"><ele>605.0</ele><time>2026-04-11T08:02:58.981Z</time></trkpt><trkpt lat="43.9124517" lon="12.2532417"><ele>605.0</ele><time>2026-04-11T08:02:59.982Z</time></trkpt><trkpt lat="43.9125567" lon="12.2530983"><ele>600.25</ele><time>2026-04-11T08:03:00.982Z</time></trkpt><trkpt lat="43.9126483" lon="12.2529433"><ele>595.5</ele><time>2026-04-11T08:03:01.981Z</time></trkpt><trkpt lat="43.9127283" lon="12.2528017"><ele>590.75</ele><time>2026-04-11T08:03:02.981Z</time></trkpt><trkpt lat="43.912795" lon="12.2526617"><ele>586.0</ele><time>2026-04-11T08:03:03.981Z</time></trkpt><trkpt lat="43.912855" lon="12.2525083"><ele>586.0</ele><time>2026-04-11T08:03:04.982Z</time></trkpt><trkpt lat="43.9128967" lon="12.2523583"><ele>586.0</ele><time>2026-04-11T08:03:05.981Z</time></trkpt><trkpt lat="43.912915" lon="12.2522117"><ele>586.0</ele><time>2026-04-11T08:03:06.981Z</time></trkpt><trkpt lat="43.9129233" lon="12.2520867"><ele>586.0</ele><time>2026-04-11T08:03:07.981Z</time></trkpt><trkpt lat="43.9129233" lon="12.251985"><ele>586.0</ele><time>2026-04-11T08:03:08.981Z</time></trkpt><trkpt lat="43.91292" lon="12.251885"><ele>586.0</ele><time>2026-04-11T08:03:09.981Z</time></trkpt><trkpt lat="43.9129133" lon="12.25179"><ele>586.0</ele><time>2026-04-11T08:03:10.981Z</time></trkpt><trkpt lat="43.9129083" lon="12.2516783"><ele>586.0</ele><time>2026-04-11T08:03:11.981Z</time></trkpt><trkpt lat="43.9129117" lon="12.2515583"><ele>586.0</ele><time>2026-04-11T08:03:12.981Z</time></trkpt><trkpt lat="43.9129133" lon="12.2514233"><ele>586.0</ele><time>2026-04-11T08:03:13.981Z</time></trkpt><trkpt lat="43.9129083" lon="12.2512833"><ele>586.0</ele><time>2026-04-11T08:03:14.981Z</time></trkpt><trkpt lat="43.9129233" lon="12.25115"><ele>586.0</ele><time>2026-04-11T08:03:15.982Z</time></trkpt><trkpt lat="43.91294" lon="12.2510267"><ele>586.0</ele><time>2026-04-11T08:03:16.981Z</time></trkpt><trkpt lat="43.9129583" lon="12.2509133"><ele>586.0</ele><time>2026-04-11T08:03:17.981Z</time></trkpt><trkpt lat="43.912985" lon="12.2508117"><ele>586.0</ele><time>2026-04-11T08:03:18.981Z</time></trkpt><trkpt lat="43.9130167" lon="12.25072"><ele>586.0</ele><time>2026-04-11T08:03:19.982Z</time></trkpt><trkpt lat="43.9130533" lon="12.2506433"><ele>586.0</ele><time>2026-04-11T08:03:20.981Z</time></trkpt><trkpt lat="43.9131067" lon="12.25059"><ele>586.0</ele><time>2026-04-11T08:03:21.981Z</time></trkpt><trkpt lat="43.9132267" lon="12.2506267"><ele>586.0</ele><time>2026-04-11T08:03:23.981Z</time></trkpt><trkpt lat="43.9133317" lon="12.2507533"><ele>586.0</ele><time>2026-04-11T08:03:25.981Z</time></trkpt><trkpt lat="43.9133817" lon="12.2508317"><ele>586.0</ele><time>2026-04-11T08:03:26.981Z</time></trkpt><trkpt lat="43.9134417" lon="12.2508767"><ele>586.0</ele><time>2026-04-11T08:03:27.982Z</time></trkpt><trkpt lat="43.9135167" lon="12.2508633"><ele>582.0</ele><time>2026-04-11T08:03:28.981Z</time></trkpt><trkpt lat="43.9135783" lon="12.2508267"><ele>578.0</ele><time>2026-04-11T08:03:29.981Z</time></trkpt><trkpt lat="43.9136267" lon="12.2506933"><ele>574.0</ele><time>2026-04-11T08:03:31.981Z</time></trkpt><trkpt lat="43.913585" lon="12.2505917"><ele>570.0</ele><time>2026-04-11T08:03:32.981Z</time></trkpt><trkpt lat="43.91354" lon="12.250475"><ele>566.0</ele><time>2026-04-11T08:03:33.982Z</time></trkpt><trkpt lat="43.913485" lon="12.250345"><ele>564.6</ele><time>2026-04-11T08:03:34.981Z</time></trkpt><trkpt lat="43.9134417" lon="12.2502217"><ele>563.2</ele><time>2026-04-11T08:03:35.981Z</time></trkpt><trkpt lat="43.913425" lon="12.2501083"><ele>561.8</ele><time>2026-04-11T08:03:36.981Z</time></trkpt><trkpt lat="43.9134333" lon="12.2500067"><ele>560.4</ele><time>2026-04-11T08:03:37.981Z</time></trkpt><trkpt lat="43.9135133" lon="12.249895"><ele>559.0</ele><time>2026-04-11T08:03:39.982Z</time></trkpt><trkpt lat="43.9136317" lon="12.2499133"><ele>559.0</ele><time>2026-04-11T08:03:41.981Z</time></trkpt><trkpt lat="43.913705" lon="12.2499633"><ele>559.0</ele><time>2026-04-11T08:03:42.981Z</time></trkpt><trkpt lat="43.9137733" lon="12.250025"><ele>559.0</ele><time>2026-04-11T08:03:43.981Z</time></trkpt><trkpt lat="43.9138433" lon="12.2500533"><ele>559.0</ele><time>2026-04-11T08:03:44.982Z</time></trkpt><trkpt lat="43.9139083" lon="12.2500267"><ele>559.0</ele><time>2026-04-11T08:03:45.981Z</time></trkpt><trkpt lat="43.914" lon="12.24993"><ele>559.0</ele><time>2026-04-11T08:03:47.981Z</time></trkpt><trkpt lat="43.914005" lon="12.249835"><ele>557.0</ele><time>2026-04-11T08:03:48.981Z</time></trkpt><trkpt lat="43.91398" lon="12.2497183"><ele>555.0</ele><time>2026-04-11T08:03:49.982Z</time></trkpt><trkpt lat="43.9139367" lon="12.2495683"><ele>553.0</ele><time>2026-04-11T08:03:50.981Z</time></trkpt><trkpt lat="43.9138533" lon="12.2493667"><ele>551.0</ele><time>2026-04-11T08:03:51.982Z</time></trkpt><trkpt lat="43.9137883" lon="12.2491683"><ele>551.0</ele><time>2026-04-11T08:03:52.981Z</time></trkpt><trkpt lat="43.9137383" lon="12.2489617"><ele>551.0</ele><time>2026-04-11T08:03:53.981Z</time></trkpt><trkpt lat="43.9136983" lon="12.2487583"><ele>551.0</ele><time>2026-04-11T08:03:54.982Z</time></trkpt><trkpt lat="43.913675" lon="12.2485517"><ele>550.0</ele><time>2026-04-11T08:03:55.981Z</time></trkpt><trkpt lat="43.9136617" lon="12.2483517"><ele>549.0</ele><time>2026-04-11T08:03:56.982Z</time></trkpt><trkpt lat="43.9136583" lon="12.2481683"><ele>548.0</ele><time>2026-04-11T08:03:57.981Z</time></trkpt><trkpt lat="43.9136717" lon="12.2480067"><ele>547.0</ele><time>2026-04-11T08:03:58.981Z</time></trkpt><trkpt lat="43.9137083" lon="12.2478567"><ele>547.0</ele><time>2026-04-11T08:03:59.981Z</time></trkpt><trkpt lat="43.91376" lon="12.2477017"><ele>547.0</ele><time>2026-04-11T08:04:00.981Z</time></trkpt><trkpt lat="43.9138167" lon="12.24754"><ele>547.0</ele><time>2026-04-11T08:04:01.981Z</time></trkpt><trkpt lat="43.9138767" lon="12.247375"><ele>547.0</ele><time>2026-04-11T08:04:02.981Z</time></trkpt><trkpt lat="43.9139417" lon="12.2472017"><ele>548.5</ele><time>2026-04-11T08:04:03.981Z</time></trkpt><trkpt lat="43.9140133" lon="12.2470283"><ele>550.0</ele><time>2026-04-11T08:04:04.981Z</time></trkpt><trkpt lat="43.9140783" lon="12.24685"><ele>551.5</ele><time>2026-04-11T08:04:05.981Z</time></trkpt><trkpt lat="43.9141617" lon="12.2466667"><ele>553.0</ele><time>2026-04-11T08:04:06.981Z</time></trkpt><trkpt lat="43.9142217" lon="12.2465067"><ele>548.0</ele><time>2026-04-11T08:04:07.982Z</time></trkpt><trkpt lat="43.9142633" lon="12.24633"><ele>543.0</ele><time>2026-04-11T08:04:08.982Z</time></trkpt><trkpt lat="43.914305" lon="12.2461317"><ele>538.0</ele><time>2026-04-11T08:04:09.981Z</time></trkpt><trkpt lat="43.9143833" lon="12.2459617"><ele>533.0</ele><time>2026-04-11T08:04:10.982Z</time></trkpt><trkpt lat="43.9144533" lon="12.2457967"><ele>535.5</ele><time>2026-04-11T08:04:11.981Z</time></trkpt><trkpt lat="43.91455" lon="12.2456283"><ele>538.0</ele><time>2026-04-11T08:04:12.981Z</time></trkpt><trkpt lat="43.91462" lon="12.2454667"><ele>540.5</ele><time>2026-04-11T08:04:13.982Z</time></trkpt><trkpt lat="43.9146983" lon="12.2453083"><ele>543.0</ele><time>2026-04-11T08:04:14.981Z</time></trkpt><trkpt lat="43.9147717" lon="12.2451633"><ele>543.0</ele><time>2026-04-11T08:04:15.981Z</time></trkpt><trkpt lat="43.9148183" lon="12.24502"><ele>543.0</ele><time>2026-04-11T08:04:16.981Z</time></trkpt><trkpt lat="43.91484" lon="12.2448833"><ele>543.0</ele><time>2026-04-11T08:04:17.981Z</time></trkpt><trkpt lat="43.9148433" lon="12.2447567"><ele>543.0</ele><time>2026-04-11T08:04:18.981Z</time></trkpt><trkpt lat="43.9148217" lon="12.2446217"><ele>543.0</ele><time>2026-04-11T08:04:19.981Z</time></trkpt><trkpt lat="43.9147917" lon="12.24448"><ele>544.25</ele><time>2026-04-11T08:04:20.981Z</time></trkpt><trkpt lat="43.91475" lon="12.2443217"><ele>545.5</ele><time>2026-04-11T08:04:21.982Z</time></trkpt><trkpt lat="43.9147033" lon="12.2441533"><ele>546.75</ele><time>2026-04-11T08:04:22.982Z</time></trkpt><trkpt lat="43.9146567" lon="12.2439767"><ele>548.0</ele><time>2026-04-11T08:04:23.981Z</time></trkpt><trkpt lat="43.9146167" lon="12.2437983"><ele>549.75</ele><time>2026-04-11T08:04:24.981Z</time></trkpt><trkpt lat="43.914595" lon="12.2436067"><ele>551.5</ele><time>2026-04-11T08:04:25.981Z</time></trkpt><trkpt lat="43.9145767" lon="12.243425"><ele>553.25</ele><time>2026-04-11T08:04:26.981Z</time></trkpt><trkpt lat="43.9145633" lon="12.2432417"><ele>555.0</ele><time>2026-04-11T08:04:27.981Z</time></trkpt><trkpt lat="43.9145633" lon="12.2430617"><ele>557.75</ele><time>2026-04-11T08:04:28.981Z</time></trkpt><trkpt lat="43.914565" lon="12.2428883"><ele>560.5</ele><time>2026-04-11T08:04:29.981Z</time></trkpt><trkpt lat="43.9145767" lon="12.242715"><ele>563.25</ele><time>2026-04-11T08:04:30.981Z</time></trkpt><trkpt lat="43.914585" lon="12.2425517"><ele>566.0</ele><time>2026-04-11T08:04:31.982Z</time></trkpt><trkpt lat="43.9146" lon="12.2423883"><ele>567.25</ele><time>2026-04-11T08:04:32.981Z</time></trkpt><trkpt lat="43.9146317" lon="12.242235"><ele>568.5</ele><time>2026-04-11T08:04:33.981Z</time></trkpt><trkpt lat="43.9146617" lon="12.2420667"><ele>569.75</ele><time>2026-04-11T08:04:34.982Z</time></trkpt><trkpt lat="43.9146667" lon="12.2418967"><ele>571.0</ele><time>2026-04-11T08:04:35.981Z</time></trkpt><trkpt lat="43.9146633" lon="12.2417483"><ele>571.0</ele><time>2026-04-11T08:04:36.981Z</time></trkpt><trkpt lat="43.914635" lon="12.2416033"><ele>571.0</ele><time>2026-04-11T08:04:37.981Z</time></trkpt><trkpt lat="43.91459" lon="12.2414683"><ele>571.0</ele><time>2026-04-11T08:04:38.981Z</time></trkpt><trkpt lat="43.9145367" lon="12.24134"><ele>571.0</ele><time>2026-04-11T08:04:39.981Z</time></trkpt><trkpt lat="43.9144767" lon="12.241215"><ele>571.0</ele><time>2026-04-11T08:04:40.981Z</time></trkpt><trkpt lat="43.9144017" lon="12.2410917"><ele>573.75</ele><time>2026-04-11T08:04:41.982Z</time></trkpt><trkpt lat="43.9143133" lon="12.2409767"><ele>576.5</ele><time>2026-04-11T08:04:42.981Z</time></trkpt><trkpt lat="43.9142167" lon="12.2408683"><ele>579.25</ele><time>2026-04-11T08:04:43.981Z</time></trkpt><trkpt lat="43.914115" lon="12.2407683"><ele>582.0</ele><time>2026-04-11T08:04:44.982Z</time></trkpt><trkpt lat="43.9140117" lon="12.24068"><ele>585.0</ele><time>2026-04-11T08:04:45.981Z</time></trkpt><trkpt lat="43.913905" lon="12.24058"><ele>588.0</ele><time>2026-04-11T08:04:46.981Z</time></trkpt><trkpt lat="43.9138183" lon="12.2404933"><ele>591.0</ele><time>2026-04-11T08:04:47.981Z</time></trkpt><trkpt lat="43.91375" lon="12.240405"><ele>594.0</ele><time>2026-04-11T08:04:48.981Z</time></trkpt><trkpt lat="43.9137" lon="12.2403317"><ele>597.0</ele><time>2026-04-11T08:04:49.981Z</time></trkpt><trkpt lat="43.9136767" lon="12.2402417"><ele>597.0</ele><time>2026-04-11T08:04:50.981Z</time></trkpt><trkpt lat="43.913665" lon="12.2401217"><ele>597.0</ele><time>2026-04-11T08:04:51.981Z</time></trkpt><trkpt lat="43.9136633" lon="12.23999"><ele>597.0</ele><time>2026-04-11T08:04:52.981Z</time></trkpt><trkpt lat="43.91365" lon="12.2398483"><ele>597.0</ele><time>2026-04-11T08:04:53.981Z</time></trkpt><trkpt lat="43.913635" lon="12.2396917"><ele>597.0</ele><time>2026-04-11T08:04:54.981Z</time></trkpt><trkpt lat="43.9136183" lon="12.239525"><ele>599.0</ele><time>2026-04-11T08:04:55.981Z</time></trkpt><trkpt lat="43.9136117" lon="12.2393667"><ele>601.0</ele><time>2026-04-11T08:04:56.981Z</time></trkpt><trkpt lat="43.9136017" lon="12.23922"><ele>603.0</ele><time>2026-04-11T08:04:57.981Z</time></trkpt><trkpt lat="43.91359" lon="12.2391183"><ele>605.0</ele><time>2026-04-11T08:04:58.982Z</time></trkpt><trkpt lat="43.9135717" lon="12.2390133"><ele>607.0</ele><time>2026-04-11T08:05:00.981Z</time></trkpt><trkpt lat="43.9135017" lon="12.239"><ele>609.0</ele><time>2026-04-11T08:05:03.981Z</time></trkpt><trkpt lat="43.9134217" lon="12.2391083"><ele>608.8</ele><time>2026-04-11T08:05:05.98Z</time></trkpt><trkpt lat="43.91337" lon="12.2392"><ele>608.5999999999999</ele><time>2026-04-11T08:05:06.98Z</time></trkpt><trkpt lat="43.9133" lon="12.2393117"><ele>608.4</ele><time>2026-04-11T08:05:07.98Z</time></trkpt><trkpt lat="43.9132283" lon="12.2394217"><ele>608.1999999999999</ele><time>2026-04-11T08:05:08.98Z</time></trkpt><trkpt lat="43.9131383" lon="12.2395167"><ele>608.0</ele><time>2026-04-11T08:05:09.98Z</time></trkpt><trkpt lat="43.9130367" lon="12.2395867"><ele>608.0</ele><time>2026-04-11T08:05:10.981Z</time></trkpt><trkpt lat="43.912925" lon="12.2396233"><ele>608.0</ele><time>2026-04-11T08:05:11.98Z</time></trkpt><trkpt lat="43.9128" lon="12.23962"><ele>608.0</ele><time>2026-04-11T08:05:12.98Z</time></trkpt><trkpt lat="43.9126883" lon="12.2395767"><ele>608.0</ele><time>2026-04-11T08:05:13.98Z</time></trkpt><trkpt lat="43.9125667" lon="12.2395167"><ele>609.5</ele><time>2026-04-11T08:05:14.98Z</time></trkpt><trkpt lat="43.9124567" lon="12.239465"><ele>611.0</ele><time>2026-04-11T08:05:15.981Z</time></trkpt><trkpt lat="43.9123367" lon="12.2394867"><ele>612.5</ele><time>2026-04-11T08:05:16.98Z</time></trkpt><trkpt lat="43.9122233" lon="12.2395683"><ele>614.0</ele><time>2026-04-11T08:05:17.98Z</time></trkpt><trkpt lat="43.9121167" lon="12.2396783"><ele>614.0</ele><time>2026-04-11T08:05:18.98Z</time></trkpt><trkpt lat="43.911995" lon="12.2397667"><ele>614.0</ele><time>2026-04-11T08:05:19.98Z</time></trkpt><trkpt lat="43.9118783" lon="12.2398217"><ele>614.0</ele><time>2026-04-11T08:05:20.98Z</time></trkpt><trkpt lat="43.9117533" lon="12.23984"><ele>614.0</ele><time>2026-04-11T08:05:21.98Z</time></trkpt><trkpt lat="43.9116167" lon="12.2398383"><ele>617.25</ele><time>2026-04-11T08:05:22.98Z</time></trkpt><trkpt lat="43.9114783" lon="12.2398317"><ele>620.5</ele><time>2026-04-11T08:05:23.98Z</time></trkpt><trkpt lat="43.91133" lon="12.2398283"><ele>623.75</ele><time>2026-04-11T08:05:24.981Z</time></trkpt><trkpt lat="43.9111817" lon="12.2398383"><ele>627.0</ele><time>2026-04-11T08:05:25.98Z</time></trkpt><trkpt lat="43.9110333" lon="12.2398317"><ele>625.0</ele><time>2026-04-11T08:05:26.98Z</time></trkpt><trkpt lat="43.9108933" lon="12.2397867"><ele>623.0</ele><time>2026-04-11T08:05:27.98Z</time></trkpt><trkpt lat="43.9107667" lon="12.2397233"><ele>621.0</ele><time>2026-04-11T08:05:28.981Z</time></trkpt><trkpt lat="43.9106383" lon="12.2396417"><ele>619.0</ele><time>2026-04-11T08:05:29.98Z</time></trkpt><trkpt lat="43.91051" lon="12.239595"><ele>619.0</ele><time>2026-04-11T08:05:30.981Z</time></trkpt><trkpt lat="43.9103733" lon="12.2395833"><ele>619.0</ele><time>2026-04-11T08:05:31.98Z</time></trkpt><trkpt lat="43.91023" lon="12.2395917"><ele>619.0</ele><time>2026-04-11T08:05:32.98Z</time></trkpt><trkpt lat="43.9100917" lon="12.23961"><ele>619.0</ele><time>2026-04-11T08:05:33.98Z</time></trkpt><trkpt lat="43.90995" lon="12.2396133"><ele>621.25</ele><time>2026-04-11T08:05:34.98Z</time></trkpt><trkpt lat="43.9098033" lon="12.2396117"><ele>623.5</ele><time>2026-04-11T08:05:35.98Z</time></trkpt><trkpt lat="43.9096533" lon="12.2396067"><ele>625.75</ele><time>2026-04-11T08:05:36.98Z</time></trkpt><trkpt lat="43.9095033" lon="12.239605"><ele>628.0</ele><time>2026-04-11T08:05:37.98Z</time></trkpt><trkpt lat="43.90937" lon="12.2396"><ele>629.25</ele><time>2026-04-11T08:05:38.98Z</time></trkpt><trkpt lat="43.90923" lon="12.2396"><ele>630.5</ele><time>2026-04-11T08:05:39.981Z</time></trkpt><trkpt lat="43.9090917" lon="12.23961"><ele>631.75</ele><time>2026-04-11T08:05:40.98Z</time></trkpt><trkpt lat="43.9089433" lon="12.23966"><ele>633.0</ele><time>2026-04-11T08:05:41.98Z</time></trkpt><trkpt lat="43.9088067" lon="12.23973"><ele>636.0</ele><time>2026-04-11T08:05:42.98Z</time></trkpt><trkpt lat="43.90867" lon="12.2398033"><ele>639.0</ele><time>2026-04-11T08:05:43.98Z</time></trkpt><trkpt lat="43.908535" lon="12.239875"><ele>642.0</ele><time>2026-04-11T08:05:44.98Z</time></trkpt><trkpt lat="43.9084133" lon="12.239965"><ele>645.0</ele><time>2026-04-11T08:05:45.98Z</time></trkpt><trkpt lat="43.9083" lon="12.2400533"><ele>645.0</ele><time>2026-04-11T08:05:46.98Z</time></trkpt><trkpt lat="43.908205" lon="12.2401717"><ele>645.0</ele><time>2026-04-11T08:05:47.98Z</time></trkpt><trkpt lat="43.9081183" lon="12.2403"><ele>645.0</ele><time>2026-04-11T08:05:48.98Z</time></trkpt><trkpt lat="43.908045" lon="12.2404483"><ele>645.0</ele><time>2026-04-11T08:05:49.98Z</time></trkpt><trkpt lat="43.907975" lon="12.2406017"><ele>648.5</ele><time>2026-04-11T08:05:50.98Z</time></trkpt><trkpt lat="43.9079" lon="12.2407633"><ele>652.0</ele><time>2026-04-11T08:05:51.98Z</time></trkpt><trkpt lat="43.9078167" lon="12.240895"><ele>655.5</ele><time>2026-04-11T08:05:52.98Z</time></trkpt><trkpt lat="43.9077283" lon="12.2410317"><ele>659.0</ele><time>2026-04-11T08:05:53.981Z</time></trkpt><trkpt lat="43.9076367" lon="12.241135"><ele>657.0</ele><time>2026-04-11T08:05:54.98Z</time></trkpt><trkpt lat="43.9075433" lon="12.2412333"><ele>655.0</ele><time>2026-04-11T08:05:55.98Z</time></trkpt><trkpt lat="43.9074317" lon="12.2412833"><ele>653.0</ele><time>2026-04-11T08:05:56.981Z</time></trkpt><trkpt lat="43.9073233" lon="12.24128"><ele>651.0</ele><time>2026-04-11T08:05:57.98Z</time></trkpt><trkpt lat="43.9072133" lon="12.24126"><ele>651.0</ele><time>2026-04-11T08:05:58.98Z</time></trkpt><trkpt lat="43.907105" lon="12.2412083"><ele>651.0</ele><time>2026-04-11T08:05:59.98Z</time></trkpt><trkpt lat="43.9069967" lon="12.2411183"><ele>651.0</ele><time>2026-04-11T08:06:00.98Z</time></trkpt><trkpt lat="43.9069083" lon="12.2410117"><ele>651.0</ele><time>2026-04-11T08:06:01.98Z</time></trkpt><trkpt lat="43.9068317" lon="12.24089"><ele>651.0</ele><time>2026-04-11T08:06:02.98Z</time></trkpt><trkpt lat="43.9067517" lon="12.2407833"><ele>651.0</ele><time>2026-04-11T08:06:03.98Z</time></trkpt><trkpt lat="43.90668" lon="12.2406933"><ele>651.0</ele><time>2026-04-11T08:06:04.98Z</time></trkpt><trkpt lat="43.9065983" lon="12.2406233"><ele>651.0</ele><time>2026-04-11T08:06:05.981Z</time></trkpt><trkpt lat="43.906535" lon="12.2405567"><ele>651.0</ele><time>2026-04-11T08:06:06.981Z</time></trkpt><trkpt lat="43.9064767" lon="12.2405133"><ele>651.0</ele><time>2026-04-11T08:06:07.98Z</time></trkpt><trkpt lat="43.9064167" lon="12.2404733"><ele>651.3333333333334</ele><time>2026-04-11T08:06:08.981Z</time></trkpt><trkpt lat="43.9063283" lon="12.2405083"><ele>651.6666666666666</ele><time>2026-04-11T08:06:10.98Z</time></trkpt><trkpt lat="43.9062967" lon="12.2406317"><ele>652.0</ele><time>2026-04-11T08:06:12.98Z</time></trkpt><trkpt lat="43.9063133" lon="12.2407233"><ele>652.3333333333333</ele><time>2026-04-11T08:06:13.981Z</time></trkpt><trkpt lat="43.9063367" lon="12.240835"><ele>652.6666666666666</ele><time>2026-04-11T08:06:14.98Z</time></trkpt><trkpt lat="43.906365" lon="12.240975"><ele>653.0</ele><time>2026-04-11T08:06:15.98Z</time></trkpt><trkpt lat="43.906395" lon="12.2411417"><ele>653.0</ele><time>2026-04-11T08:06:16.98Z</time></trkpt><trkpt lat="43.9064333" lon="12.2413133"><ele>653.0</ele><time>2026-04-11T08:06:17.98Z</time></trkpt><trkpt lat="43.9064667" lon="12.241485"><ele>653.0</ele><time>2026-04-11T08:06:18.98Z</time></trkpt><trkpt lat="43.9065083" lon="12.2416633"><ele>653.0</ele><time>2026-04-11T08:06:19.98Z</time></trkpt><trkpt lat="43.9065733" lon="12.2418133"><ele>653.8</ele><time>2026-04-11T08:06:20.981Z</time></trkpt><trkpt lat="43.9066233" lon="12.241945"><ele>654.5999999999999</ele><time>2026-04-11T08:06:21.98Z</time></trkpt><trkpt lat="43.9066667" lon="12.2420583"><ele>655.4000000000001</ele><time>2026-04-11T08:06:22.98Z</time></trkpt><trkpt lat="43.9067083" lon="12.242175"><ele>656.2</ele><time>2026-04-11T08:06:23.98Z</time></trkpt><trkpt lat="43.90674" lon="12.242295"><ele>657.0</ele><time>2026-04-11T08:06:24.98Z</time></trkpt><trkpt lat="43.9067667" lon="12.2424183"><ele>658.0</ele><time>2026-04-11T08:06:25.981Z</time></trkpt><trkpt lat="43.9067633" lon="12.242565"><ele>659.0</ele><time>2026-04-11T08:06:26.98Z</time></trkpt><trkpt lat="43.906725" lon="12.2427083"><ele>660.0</ele><time>2026-04-11T08:06:27.981Z</time></trkpt><trkpt lat="43.9066667" lon="12.242855"><ele>661.0</ele><time>2026-04-11T08:06:28.981Z</time></trkpt><trkpt lat="43.9065983" lon="12.2430033"><ele>662.0</ele><time>2026-04-11T08:06:29.98Z</time></trkpt><trkpt lat="43.906515" lon="12.243155"><ele>663.0</ele><time>2026-04-11T08:06:30.98Z</time></trkpt><trkpt lat="43.90644" lon="12.2432917"><ele>664.0</ele><time>2026-04-11T08:06:31.981Z</time></trkpt><trkpt lat="43.9063533" lon="12.2434467"><ele>665.0</ele><time>2026-04-11T08:06:32.981Z</time></trkpt><trkpt lat="43.90627" lon="12.2435917"><ele>665.0</ele><time>2026-04-11T08:06:33.98Z</time></trkpt><trkpt lat="43.9061967" lon="12.2437317"><ele>665.0</ele><time>2026-04-11T08:06:34.98Z</time></trkpt><trkpt lat="43.9061367" lon="12.24388"><ele>665.0</ele><time>2026-04-11T08:06:35.98Z</time></trkpt><trkpt lat="43.9060667" lon="12.2440333"><ele>665.0</ele><time>2026-04-11T08:06:36.98Z</time></trkpt><trkpt lat="43.9060233" lon="12.24421"><ele>665.25</ele><time>2026-04-11T08:06:37.98Z</time></trkpt><trkpt lat="43.9059783" lon="12.2443867"><ele>665.5</ele><time>2026-04-11T08:06:38.98Z</time></trkpt><trkpt lat="43.905915" lon="12.24455"><ele>665.75</ele><time>2026-04-11T08:06:39.98Z</time></trkpt><trkpt lat="43.9058467" lon="12.2447167"><ele>666.0</ele><time>2026-04-11T08:06:40.98Z</time></trkpt><trkpt lat="43.9057533" lon="12.244845"><ele>667.5</ele><time>2026-04-11T08:06:41.98Z</time></trkpt><trkpt lat="43.9056333" lon="12.2449733"><ele>669.0</ele><time>2026-04-11T08:06:42.98Z</time></trkpt><trkpt lat="43.9055083" lon="12.2450933"><ele>670.5</ele><time>2026-04-11T08:06:43.98Z</time></trkpt><trkpt lat="43.905375" lon="12.245175"><ele>672.0</ele><time>2026-04-11T08:06:44.98Z</time></trkpt><trkpt lat="43.90524" lon="12.24522"><ele>672.0</ele><time>2026-04-11T08:06:45.98Z</time></trkpt><trkpt lat="43.905105" lon="12.24524"><ele>672.0</ele><time>2026-04-11T08:06:46.98Z</time></trkpt><trkpt lat="43.9049633" lon="12.2452283"><ele>672.0</ele><time>2026-04-11T08:06:47.98Z</time></trkpt><trkpt lat="43.904825" lon="12.2452083"><ele>672.0</ele><time>2026-04-11T08:06:48.98Z</time></trkpt><trkpt lat="43.9046833" lon="12.2451717"><ele>671.25</ele><time>2026-04-11T08:06:49.98Z</time></trkpt><trkpt lat="43.904545" lon="12.2451283"><ele>670.5</ele><time>2026-04-11T08:06:50.98Z</time></trkpt><trkpt lat="43.9044033" lon="12.245085"><ele>669.75</ele><time>2026-04-11T08:06:51.98Z</time></trkpt><trkpt lat="43.9042683" lon="12.2450367"><ele>669.0</ele><time>2026-04-11T08:06:52.98Z</time></trkpt><trkpt lat="43.9041417" lon="12.245025"><ele>669.0</ele><time>2026-04-11T08:06:53.981Z</time></trkpt><trkpt lat="43.904015" lon="12.2450533"><ele>669.0</ele><time>2026-04-11T08:06:54.98Z</time></trkpt><trkpt lat="43.90388" lon="12.2451183"><ele>669.0</ele><time>2026-04-11T08:06:55.981Z</time></trkpt><trkpt lat="43.903755" lon="12.2451983"><ele>669.0</ele><time>2026-04-11T08:06:56.98Z</time></trkpt><trkpt lat="43.9036267" lon="12.2452567"><ele>669.0</ele><time>2026-04-11T08:06:57.98Z</time></trkpt><trkpt lat="43.90349" lon="12.2453017"><ele>669.0</ele><time>2026-04-11T08:06:58.98Z</time></trkpt><trkpt lat="43.9033517" lon="12.245365"><ele>669.0</ele><time>2026-04-11T08:06:59.98Z</time></trkpt><trkpt lat="43.9032033" lon="12.24545"><ele>669.0</ele><time>2026-04-11T08:07:00.98Z</time></trkpt><trkpt lat="43.9030683" lon="12.2455467"><ele>668.75</ele><time>2026-04-11T08:07:01.981Z</time></trkpt><trkpt lat="43.9029383" lon="12.2456433"><ele>668.5</ele><time>2026-04-11T08:07:02.98Z</time></trkpt><trkpt lat="43.9028183" lon="12.2457033"><ele>668.25</ele><time>2026-04-11T08:07:03.98Z</time></trkpt><trkpt lat="43.9026783" lon="12.2457683"><ele>668.0</ele><time>2026-04-11T08:07:04.981Z</time></trkpt><trkpt lat="43.9025467" lon="12.2458033"><ele>668.0</ele><time>2026-04-11T08:07:05.98Z</time></trkpt><trkpt lat="43.9023967" lon="12.2458317"><ele>668.0</ele><time>2026-04-11T08:07:06.98Z</time></trkpt><trkpt lat="43.9022317" lon="12.2458317"><ele>668.0</ele><time>2026-04-11T08:07:07.98Z</time></trkpt><trkpt lat="43.90206" lon="12.245825"><ele>668.0</ele><time>2026-04-11T08:07:08.98Z</time></trkpt><trkpt lat="43.9018883" lon="12.2458217"><ele>668.0</ele><time>2026-04-11T08:07:09.98Z</time></trkpt><trkpt lat="43.9017017" lon="12.2458167"><ele>668.0</ele><time>2026-04-11T08:07:10.98Z</time></trkpt><trkpt lat="43.9015417" lon="12.24585"><ele>665.3333333333333</ele><time>2026-04-11T08:07:11.98Z</time></trkpt><trkpt lat="43.9013583" lon="12.2458933"><ele>662.6666666666666</ele><time>2026-04-11T08:07:12.98Z</time></trkpt><trkpt lat="43.9011917" lon="12.2459833"><ele>660.0</ele><time>2026-04-11T08:07:13.98Z</time></trkpt><trkpt lat="43.9010317" lon="12.246105"><ele>657.3333333333334</ele><time>2026-04-11T08:07:14.98Z</time></trkpt><trkpt lat="43.9008833" lon="12.2462233"><ele>654.6666666666667</ele><time>2026-04-11T08:07:15.98Z</time></trkpt><trkpt lat="43.900735" lon="12.2463233"><ele>652.0</ele><time>2026-04-11T08:07:16.98Z</time></trkpt><trkpt lat="43.900585" lon="12.2464133"><ele>652.3333333333334</ele><time>2026-04-11T08:07:17.981Z</time></trkpt><trkpt lat="43.9004383" lon="12.2464833"><ele>652.6666666666666</ele><time>2026-04-11T08:07:18.981Z</time></trkpt><trkpt lat="43.9002867" lon="12.2465183"><ele>653.0</ele><time>2026-04-11T08:07:19.98Z</time></trkpt><trkpt lat="43.90014" lon="12.2465317"><ele>652.75</ele><time>2026-04-11T08:07:20.98Z</time></trkpt><trkpt lat="43.8999967" lon="12.24654"><ele>652.5</ele><time>2026-04-11T08:07:21.98Z</time></trkpt><trkpt lat="43.8998683" lon="12.246515"><ele>652.25</ele><time>2026-04-11T08:07:22.98Z</time></trkpt><trkpt lat="43.8997433" lon="12.246485"><ele>652.0</ele><time>2026-04-11T08:07:23.98Z</time></trkpt><trkpt lat="43.8996617" lon="12.24646"><ele>652.0</ele><time>2026-04-11T08:07:24.98Z</time></trkpt><trkpt lat="43.899585" lon="12.2464417"><ele>652.0</ele><time>2026-04-11T08:07:25.98Z</time></trkpt><trkpt lat="43.8995033" lon="12.2464433"><ele>652.0</ele><time>2026-04-11T08:07:26.981Z</time></trkpt><trkpt lat="43.8994033" lon="12.2464667"><ele>652.0</ele><time>2026-04-11T08:07:27.98Z</time></trkpt><trkpt lat="43.899295" lon="12.2465067"><ele>652.0</ele><time>2026-04-11T08:07:28.981Z</time></trkpt><trkpt lat="43.899185" lon="12.246555"><ele>653.25</ele><time>2026-04-11T08:07:29.98Z</time></trkpt><trkpt lat="43.8990567" lon="12.2466133"><ele>654.5</ele><time>2026-04-11T08:07:30.98Z</time></trkpt><trkpt lat="43.8989167" lon="12.24667"><ele>655.75</ele><time>2026-04-11T08:07:31.98Z</time></trkpt><trkpt lat="43.89878" lon="12.246725"><ele>657.0</ele><time>2026-04-11T08:07:32.98Z</time></trkpt><trkpt lat="43.8986517" lon="12.2467633"><ele>657.0</ele><time>2026-04-11T08:07:33.98Z</time></trkpt><trkpt lat="43.898525" lon="12.2468083"><ele>657.0</ele><time>2026-04-11T08:07:34.98Z</time></trkpt><trkpt lat="43.8984117" lon="12.2468633"><ele>657.0</ele><time>2026-04-11T08:07:35.98Z</time></trkpt><trkpt lat="43.89832" lon="12.246905"><ele>657.0</ele><time>2026-04-11T08:07:36.98Z</time></trkpt><trkpt lat="43.898255" lon="12.246945"><ele>657.0</ele><time>2026-04-11T08:07:37.98Z</time></trkpt><trkpt lat="43.8981533" lon="12.2469733"><ele>656.8333333333334</ele><time>2026-04-11T08:07:39.98Z</time></trkpt><trkpt lat="43.89809" lon="12.24699"><ele>656.6666666666666</ele><time>2026-04-11T08:07:54.98Z</time></trkpt><trkpt lat="43.8980133" lon="12.2469817"><ele>656.5</ele><time>2026-04-11T08:07:56.98Z</time></trkpt><trkpt lat="43.8978917" lon="12.2469617"><ele>656.3333333333333</ele><time>2026-04-11T08:07:58.98Z</time></trkpt><trkpt lat="43.8978067" lon="12.2469317"><ele>656.1666666666666</ele><time>2026-04-11T08:07:59.981Z</time></trkpt><trkpt lat="43.8977133" lon="12.2468917"><ele>656.0</ele><time>2026-04-11T08:08:00.98Z</time></trkpt><trkpt lat="43.89758" lon="12.2468283"><ele>655.6666666666666</ele><time>2026-04-11T08:08:01.98Z</time></trkpt><trkpt lat="43.8974267" lon="12.246765"><ele>655.3333333333334</ele><time>2026-04-11T08:08:02.98Z</time></trkpt><trkpt lat="43.8972717" lon="12.2467017"><ele>655.0</ele><time>2026-04-11T08:08:03.98Z</time></trkpt><trkpt lat="43.8971083" lon="12.2466283"><ele>655.0</ele><time>2026-04-11T08:08:04.98Z</time></trkpt><trkpt lat="43.8969333" lon="12.24655"><ele>655.0</ele><time>2026-04-11T08:08:05.98Z</time></trkpt><trkpt lat="43.8967683" lon="12.246475"><ele>655.0</ele><time>2026-04-11T08:08:06.98Z</time></trkpt><trkpt lat="43.8966033" lon="12.2464117"><ele>656.6666666666667</ele><time>2026-04-11T08:08:07.98Z</time></trkpt><trkpt lat="43.89644" lon="12.2463367"><ele>658.3333333333334</ele><time>2026-04-11T08:08:08.981Z</time></trkpt><trkpt lat="43.8962867" lon="12.2462533"><ele>660.0</ele><time>2026-04-11T08:08:09.981Z</time></trkpt><trkpt lat="43.8961367" lon="12.246155"><ele>660.0</ele><time>2026-04-11T08:08:10.981Z</time></trkpt><trkpt lat="43.8959933" lon="12.24605"><ele>660.0</ele><time>2026-04-11T08:08:11.98Z</time></trkpt><trkpt lat="43.8958533" lon="12.2459483"><ele>660.0</ele><time>2026-04-11T08:08:12.98Z</time></trkpt><trkpt lat="43.8957083" lon="12.2458583"><ele>661.3333333333334</ele><time>2026-04-11T08:08:13.98Z</time></trkpt><trkpt lat="43.8955567" lon="12.245775"><ele>662.6666666666667</ele><time>2026-04-11T08:08:14.98Z</time></trkpt><trkpt lat="43.895405" lon="12.2456917"><ele>664.0</ele><time>2026-04-11T08:08:15.981Z</time></trkpt><trkpt lat="43.8952467" lon="12.2456133"><ele>670.3333333333334</ele><time>2026-04-11T08:08:16.98Z</time></trkpt><trkpt lat="43.8950717" lon="12.2455517"><ele>676.6666666666666</ele><time>2026-04-11T08:08:17.98Z</time></trkpt><trkpt lat="43.894895" lon="12.2454933"><ele>683.0</ele><time>2026-04-11T08:08:18.98Z</time></trkpt><trkpt lat="43.894715" lon="12.245435"><ele>683.0</ele><time>2026-04-11T08:08:19.98Z</time></trkpt><trkpt lat="43.89453" lon="12.245375"><ele>683.0</ele><time>2026-04-11T08:08:20.98Z</time></trkpt><trkpt lat="43.89434" lon="12.2453383"><ele>683.0</ele><time>2026-04-11T08:08:21.981Z</time></trkpt><trkpt lat="43.8941617" lon="12.2453017"><ele>685.0</ele><time>2026-04-11T08:08:22.98Z</time></trkpt><trkpt lat="43.893985" lon="12.2452967"><ele>687.0</ele><time>2026-04-11T08:08:23.98Z</time></trkpt><trkpt lat="43.8938017" lon="12.2453083"><ele>689.0</ele><time>2026-04-11T08:08:24.98Z</time></trkpt><trkpt lat="43.8936217" lon="12.2453383"><ele>689.0</ele><time>2026-04-11T08:08:25.98Z</time></trkpt><trkpt lat="43.8934483" lon="12.24538"><ele>689.0</ele><time>2026-04-11T08:08:26.98Z</time></trkpt><trkpt lat="43.8932783" lon="12.2454067"><ele>689.0</ele><time>2026-04-11T08:08:27.981Z</time></trkpt><trkpt lat="43.89312" lon="12.24541"><ele>691.0</ele><time>2026-04-11T08:08:28.98Z</time></trkpt><trkpt lat="43.8929467" lon="12.2453917"><ele>693.0</ele><time>2026-04-11T08:08:29.98Z</time></trkpt><trkpt lat="43.892775" lon="12.2453467"><ele>695.0</ele><time>2026-04-11T08:08:30.98Z</time></trkpt><trkpt lat="43.892615" lon="12.245305"><ele>697.3333333333333</ele><time>2026-04-11T08:08:31.98Z</time></trkpt><trkpt lat="43.8924367" lon="12.245325"><ele>699.6666666666666</ele><time>2026-04-11T08:08:32.98Z</time></trkpt><trkpt lat="43.8922633" lon="12.24541"><ele>702.0</ele><time>2026-04-11T08:08:33.98Z</time></trkpt><trkpt lat="43.8921" lon="12.2454917"><ele>702.0</ele><time>2026-04-11T08:08:34.981Z</time></trkpt><trkpt lat="43.891925" lon="12.245555"><ele>702.0</ele><time>2026-04-11T08:08:35.98Z</time></trkpt><trkpt lat="43.8917567" lon="12.2455817"><ele>702.0</ele><time>2026-04-11T08:08:36.981Z</time></trkpt><trkpt lat="43.8915917" lon="12.2455783"><ele>704.0</ele><time>2026-04-11T08:08:37.981Z</time></trkpt><trkpt lat="43.8914567" lon="12.2455183"><ele>706.0</ele><time>2026-04-11T08:08:38.98Z</time></trkpt><trkpt lat="43.8913317" lon="12.2454117"><ele>708.0</ele><time>2026-04-11T08:08:39.98Z</time></trkpt><trkpt lat="43.8911967" lon="12.245315"><ele>710.0</ele><time>2026-04-11T08:08:40.98Z</time></trkpt><trkpt lat="43.8910483" lon="12.2452233"><ele>710.75</ele><time>2026-04-11T08:08:41.98Z</time></trkpt><trkpt lat="43.8908983" lon="12.24518"><ele>711.5</ele><time>2026-04-11T08:08:42.98Z</time></trkpt><trkpt lat="43.890765" lon="12.2451833"><ele>712.25</ele><time>2026-04-11T08:08:43.98Z</time></trkpt><trkpt lat="43.8906467" lon="12.245255"><ele>713.0</ele><time>2026-04-11T08:08:44.981Z</time></trkpt><trkpt lat="43.89055" lon="12.2453733"><ele>713.0</ele><time>2026-04-11T08:08:45.98Z</time></trkpt><trkpt lat="43.89046" lon="12.2455317"><ele>713.0</ele><time>2026-04-11T08:08:46.98Z</time></trkpt><trkpt lat="43.8903617" lon="12.245695"><ele>713.0</ele><time>2026-04-11T08:08:47.98Z</time></trkpt><trkpt lat="43.8902583" lon="12.2458517"><ele>713.6666666666666</ele><time>2026-04-11T08:08:48.98Z</time></trkpt><trkpt lat="43.8901433" lon="12.2459883"><ele>714.3333333333334</ele><time>2026-04-11T08:08:49.98Z</time></trkpt><trkpt lat="43.8900133" lon="12.246095"><ele>715.0</ele><time>2026-04-11T08:08:50.98Z</time></trkpt><trkpt lat="43.8898617" lon="12.2462033"><ele>715.0</ele><time>2026-04-11T08:08:51.98Z</time></trkpt><trkpt lat="43.8897" lon="12.2463"><ele>715.0</ele><time>2026-04-11T08:08:52.98Z</time></trkpt><trkpt lat="43.8895317" lon="12.2464017"><ele>715.0</ele><time>2026-04-11T08:08:53.981Z</time></trkpt><trkpt lat="43.8893633" lon="12.2464967"><ele>716.6666666666667</ele><time>2026-04-11T08:08:54.98Z</time></trkpt><trkpt lat="43.88919" lon="12.2466"><ele>718.3333333333334</ele><time>2026-04-11T08:08:55.98Z</time></trkpt><trkpt lat="43.8890133" lon="12.2466783"><ele>720.0</ele><time>2026-04-11T08:08:56.98Z</time></trkpt><trkpt lat="43.8888417" lon="12.2467517"><ele>720.0</ele><time>2026-04-11T08:08:57.98Z</time></trkpt><trkpt lat="43.8886583" lon="12.2468"><ele>720.0</ele><time>2026-04-11T08:08:58.98Z</time></trkpt><trkpt lat="43.888485" lon="12.24684"><ele>720.0</ele><time>2026-04-11T08:08:59.98Z</time></trkpt><trkpt lat="43.888305" lon="12.24686"><ele>723.6666666666666</ele><time>2026-04-11T08:09:00.98Z</time></trkpt><trkpt lat="43.8881267" lon="12.2468767"><ele>727.3333333333333</ele><time>2026-04-11T08:09:01.98Z</time></trkpt><trkpt lat="43.8879617" lon="12.2468983"><ele>731.0</ele><time>2026-04-11T08:09:02.98Z</time></trkpt><trkpt lat="43.8877983" lon="12.2469417"><ele>731.0</ele><time>2026-04-11T08:09:03.98Z</time></trkpt><trkpt lat="43.887635" lon="12.2470117"><ele>731.0</ele><time>2026-04-11T08:09:04.981Z</time></trkpt><trkpt lat="43.8874667" lon="12.2471083"><ele>731.0</ele><time>2026-04-11T08:09:05.98Z</time></trkpt><trkpt lat="43.887295" lon="12.2472117"><ele>727.3333333333333</ele><time>2026-04-11T08:09:06.98Z</time></trkpt><trkpt lat="43.8871167" lon="12.247325"><ele>723.6666666666666</ele><time>2026-04-11T08:09:07.98Z</time></trkpt><trkpt lat="43.8869533" lon="12.2474217"><ele>720.0</ele><time>2026-04-11T08:09:08.98Z</time></trkpt><trkpt lat="43.8867717" lon="12.247495"><ele>721.6666666666666</ele><time>2026-04-11T08:09:09.98Z</time></trkpt><trkpt lat="43.88658" lon="12.24756"><ele>723.3333333333333</ele><time>2026-04-11T08:09:10.98Z</time></trkpt><trkpt lat="43.8863933" lon="12.2476017"><ele>725.0</ele><time>2026-04-11T08:09:11.98Z</time></trkpt><trkpt lat="43.8861917" lon="12.2476483"><ele>725.0</ele><time>2026-04-11T08:09:12.98Z</time></trkpt><trkpt lat="43.886" lon="12.2476933"><ele>725.0</ele><time>2026-04-11T08:09:13.98Z</time></trkpt><trkpt lat="43.8858283" lon="12.247775"><ele>725.0</ele><time>2026-04-11T08:09:14.98Z</time></trkpt><trkpt lat="43.8856867" lon="12.247905"><ele>727.25</ele><time>2026-04-11T08:09:15.981Z</time></trkpt><trkpt lat="43.885565" lon="12.248045"><ele>729.5</ele><time>2026-04-11T08:09:16.98Z</time></trkpt><trkpt lat="43.8854483" lon="12.2481833"><ele>731.75</ele><time>2026-04-11T08:09:17.981Z</time></trkpt><trkpt lat="43.8853267" lon="12.2482683"><ele>734.0</ele><time>2026-04-11T08:09:18.98Z</time></trkpt><trkpt lat="43.8851933" lon="12.24832"><ele>736.0</ele><time>2026-04-11T08:09:19.98Z</time></trkpt><trkpt lat="43.885075" lon="12.2483167"><ele>738.0</ele><time>2026-04-11T08:09:20.979Z</time></trkpt><trkpt lat="43.8849583" lon="12.2482383"><ele>740.0</ele><time>2026-04-11T08:09:21.979Z</time></trkpt><trkpt lat="43.8848417" lon="12.2481083"><ele>742.0</ele><time>2026-04-11T08:09:22.979Z</time></trkpt><trkpt lat="43.8847467" lon="12.2479567"><ele>743.0</ele><time>2026-04-11T08:09:23.979Z</time></trkpt><trkpt lat="43.884655" lon="12.2478017"><ele>744.0</ele><time>2026-04-11T08:09:24.98Z</time></trkpt><trkpt lat="43.8845617" lon="12.2476433"><ele>745.0</ele><time>2026-04-11T08:09:25.979Z</time></trkpt><trkpt lat="43.8844667" lon="12.2475"><ele>746.0</ele><time>2026-04-11T08:09:26.979Z</time></trkpt><trkpt lat="43.884365" lon="12.24737"><ele>747.0</ele><time>2026-04-11T08:09:27.98Z</time></trkpt><trkpt lat="43.88427" lon="12.2472833"><ele>748.0</ele><time>2026-04-11T08:09:28.979Z</time></trkpt><trkpt lat="43.8841583" lon="12.2472733"><ele>749.0</ele><time>2026-04-11T08:09:29.979Z</time></trkpt><trkpt lat="43.88405" lon="12.24732"><ele>750.0</ele><time>2026-04-11T08:09:30.979Z</time></trkpt><trkpt lat="43.8839483" lon="12.2474133"><ele>751.0</ele><time>2026-04-11T08:09:31.979Z</time></trkpt><trkpt lat="43.8838433" lon="12.2475333"><ele>752.0</ele><time>2026-04-11T08:09:32.979Z</time></trkpt><trkpt lat="43.883735" lon="12.2476433"><ele>753.0</ele><time>2026-04-11T08:09:33.979Z</time></trkpt><trkpt lat="43.8836133" lon="12.24772"><ele>754.0</ele><time>2026-04-11T08:09:34.979Z</time></trkpt><trkpt lat="43.8834833" lon="12.2478"><ele>757.0</ele><time>2026-04-11T08:09:35.979Z</time></trkpt><trkpt lat="43.8833567" lon="12.2478667"><ele>760.0</ele><time>2026-04-11T08:09:36.979Z</time></trkpt><trkpt lat="43.8832367" lon="12.24791"><ele>763.0</ele><time>2026-04-11T08:09:37.979Z</time></trkpt><trkpt lat="43.8831233" lon="12.247935"><ele>766.0</ele><time>2026-04-11T08:09:38.979Z</time></trkpt><trkpt lat="43.883035" lon="12.2478783"><ele>766.0</ele><time>2026-04-11T08:09:39.98Z</time></trkpt><trkpt lat="43.88296" lon="12.247775"><ele>766.0</ele><time>2026-04-11T08:09:40.979Z</time></trkpt><trkpt lat="43.8828883" lon="12.2476333"><ele>766.0</ele><time>2026-04-11T08:09:41.98Z</time></trkpt><trkpt lat="43.8828183" lon="12.2474817"><ele>766.0</ele><time>2026-04-11T08:09:42.979Z</time></trkpt><trkpt lat="43.88275" lon="12.2473167"><ele>764.3333333333334</ele><time>2026-04-11T08:09:43.979Z</time></trkpt><trkpt lat="43.8826667" lon="12.24714"><ele>762.6666666666666</ele><time>2026-04-11T08:09:44.979Z</time></trkpt><trkpt lat="43.8825767" lon="12.2469567"><ele>761.0</ele><time>2026-04-11T08:09:45.98Z</time></trkpt><trkpt lat="43.882465" lon="12.2467933"><ele>761.0</ele><time>2026-04-11T08:09:46.98Z</time></trkpt><trkpt lat="43.8823367" lon="12.2466583"><ele>761.0</ele><time>2026-04-11T08:09:47.979Z</time></trkpt><trkpt lat="43.8821783" lon="12.2465667"><ele>761.0</ele><time>2026-04-11T08:09:48.979Z</time></trkpt><trkpt lat="43.8820067" lon="12.2465267"><ele>761.0</ele><time>2026-04-11T08:09:49.979Z</time></trkpt><trkpt lat="43.8818383" lon="12.2465033"><ele>761.0</ele><time>2026-04-11T08:09:50.98Z</time></trkpt><trkpt lat="43.8816617" lon="12.246485"><ele>761.0</ele><time>2026-04-11T08:09:51.979Z</time></trkpt><trkpt lat="43.881495" lon="12.24646"><ele>759.0</ele><time>2026-04-11T08:09:52.979Z</time></trkpt><trkpt lat="43.8813317" lon="12.2464"><ele>757.0</ele><time>2026-04-11T08:09:53.979Z</time></trkpt><trkpt lat="43.8811767" lon="12.2463067"><ele>755.0</ele><time>2026-04-11T08:09:54.979Z</time></trkpt><trkpt lat="43.8810217" lon="12.24619"><ele>754.3333333333333</ele><time>2026-04-11T08:09:55.979Z</time></trkpt><trkpt lat="43.8808533" lon="12.2460583"><ele>753.6666666666666</ele><time>2026-04-11T08:09:56.979Z</time></trkpt><trkpt lat="43.8806867" lon="12.2459167"><ele>753.0</ele><time>2026-04-11T08:09:57.98Z</time></trkpt><trkpt lat="43.8805083" lon="12.2457667"><ele>752.6666666666666</ele><time>2026-04-11T08:09:58.979Z</time></trkpt><trkpt lat="43.8803333" lon="12.2456133"><ele>752.3333333333333</ele><time>2026-04-11T08:09:59.979Z</time></trkpt><trkpt lat="43.88016" lon="12.2454517"><ele>752.0</ele><time>2026-04-11T08:10:00.979Z</time></trkpt><trkpt lat="43.8799817" lon="12.2453033"><ele>752.0</ele><time>2026-04-11T08:10:01.979Z</time></trkpt><trkpt lat="43.8798" lon="12.2451533"><ele>752.0</ele><time>2026-04-11T08:10:02.979Z</time></trkpt><trkpt lat="43.87962" lon="12.245"><ele>752.0</ele><time>2026-04-11T08:10:03.979Z</time></trkpt><trkpt lat="43.879435" lon="12.2448417"><ele>751.0</ele><time>2026-04-11T08:10:04.979Z</time></trkpt><trkpt lat="43.8792533" lon="12.2446733"><ele>750.0</ele><time>2026-04-11T08:10:05.98Z</time></trkpt><trkpt lat="43.8790783" lon="12.244505"><ele>749.0</ele><time>2026-04-11T08:10:06.979Z</time></trkpt><trkpt lat="43.878905" lon="12.2443467"><ele>749.0</ele><time>2026-04-11T08:10:07.979Z</time></trkpt><trkpt lat="43.878735" lon="12.2441967"><ele>749.0</ele><time>2026-04-11T08:10:08.979Z</time></trkpt><trkpt lat="43.8785633" lon="12.2440667"><ele>749.0</ele><time>2026-04-11T08:10:09.979Z</time></trkpt><trkpt lat="43.878405" lon="12.2439533"><ele>747.3333333333333</ele><time>2026-04-11T08:10:10.979Z</time></trkpt><trkpt lat="43.87823" lon="12.24386"><ele>745.6666666666666</ele><time>2026-04-11T08:10:11.979Z</time></trkpt><trkpt lat="43.87805" lon="12.2438233"><ele>744.0</ele><time>2026-04-11T08:10:12.979Z</time></trkpt><trkpt lat="43.8778567" lon="12.2438317"><ele>744.0</ele><time>2026-04-11T08:10:13.979Z</time></trkpt><trkpt lat="43.87765" lon="12.2438617"><ele>744.0</ele><time>2026-04-11T08:10:14.979Z</time></trkpt><trkpt lat="43.87745" lon="12.2438867"><ele>744.0</ele><time>2026-04-11T08:10:15.979Z</time></trkpt><trkpt lat="43.877255" lon="12.243885"><ele>745.0</ele><time>2026-04-11T08:10:16.979Z</time></trkpt><trkpt lat="43.877055" lon="12.2438483"><ele>746.0</ele><time>2026-04-11T08:10:17.979Z</time></trkpt><trkpt lat="43.876855" lon="12.24378"><ele>747.0</ele><time>2026-04-11T08:10:18.979Z</time></trkpt><trkpt lat="43.8766483" lon="12.2436717"><ele>747.0</ele><time>2026-04-11T08:10:19.98Z</time></trkpt><trkpt lat="43.87645" lon="12.2435433"><ele>747.0</ele><time>2026-04-11T08:10:20.979Z</time></trkpt><trkpt lat="43.8762733" lon="12.24339"><ele>747.0</ele><time>2026-04-11T08:10:21.979Z</time></trkpt><trkpt lat="43.8761167" lon="12.2432183"><ele>748.0</ele><time>2026-04-11T08:10:22.98Z</time></trkpt><trkpt lat="43.875965" lon="12.24303"><ele>749.0</ele><time>2026-04-11T08:10:23.979Z</time></trkpt><trkpt lat="43.8758267" lon="12.2428017"><ele>750.0</ele><time>2026-04-11T08:10:24.979Z</time></trkpt><trkpt lat="43.8757067" lon="12.242575"><ele>750.0</ele><time>2026-04-11T08:10:25.979Z</time></trkpt><trkpt lat="43.8756" lon="12.2423383"><ele>750.0</ele><time>2026-04-11T08:10:26.979Z</time></trkpt><trkpt lat="43.875515" lon="12.242085"><ele>750.0</ele><time>2026-04-11T08:10:27.98Z</time></trkpt><trkpt lat="43.8754483" lon="12.2418083"><ele>750.0</ele><time>2026-04-11T08:10:28.98Z</time></trkpt><trkpt lat="43.875385" lon="12.241545"><ele>750.0</ele><time>2026-04-11T08:10:29.979Z</time></trkpt><trkpt lat="43.875325" lon="12.24127"><ele>750.0</ele><time>2026-04-11T08:10:30.979Z</time></trkpt><trkpt lat="43.8752567" lon="12.2410017"><ele>749.6666666666666</ele><time>2026-04-11T08:10:31.979Z</time></trkpt><trkpt lat="43.8751833" lon="12.2407383"><ele>749.3333333333333</ele><time>2026-04-11T08:10:32.98Z</time></trkpt><trkpt lat="43.87512" lon="12.24049"><ele>749.0</ele><time>2026-04-11T08:10:33.979Z</time></trkpt><trkpt lat="43.8750383" lon="12.2402383"><ele>752.6666666666666</ele><time>2026-04-11T08:10:34.979Z</time></trkpt><trkpt lat="43.8749383" lon="12.2400117"><ele>756.3333333333334</ele><time>2026-04-11T08:10:35.979Z</time></trkpt><trkpt lat="43.8748233" lon="12.23979"><ele>760.0</ele><time>2026-04-11T08:10:36.979Z</time></trkpt><trkpt lat="43.87471" lon="12.239585"><ele>760.0</ele><time>2026-04-11T08:10:37.979Z</time></trkpt><trkpt lat="43.8745883" lon="12.2393783"><ele>760.0</ele><time>2026-04-11T08:10:38.979Z</time></trkpt><trkpt lat="43.87447" lon="12.2391667"><ele>760.0</ele><time>2026-04-11T08:10:39.98Z</time></trkpt><trkpt lat="43.8743467" lon="12.23897"><ele>762.6666666666667</ele><time>2026-04-11T08:10:40.979Z</time></trkpt><trkpt lat="43.874205" lon="12.2387817"><ele>765.3333333333334</ele><time>2026-04-11T08:10:41.979Z</time></trkpt><trkpt lat="43.8740533" lon="12.2386033"><ele>768.0</ele><time>2026-04-11T08:10:42.979Z</time></trkpt><trkpt lat="43.87389" lon="12.23845"><ele>768.0</ele><time>2026-04-11T08:10:43.979Z</time></trkpt><trkpt lat="43.87372" lon="12.2383033"><ele>768.0</ele><time>2026-04-11T08:10:44.979Z</time></trkpt><trkpt lat="43.87355" lon="12.238145"><ele>768.0</ele><time>2026-04-11T08:10:45.979Z</time></trkpt><trkpt lat="43.873375" lon="12.23796"><ele>770.3333333333333</ele><time>2026-04-11T08:10:46.979Z</time></trkpt><trkpt lat="43.8732317" lon="12.2377533"><ele>772.6666666666666</ele><time>2026-04-11T08:10:47.979Z</time></trkpt><trkpt lat="43.8730783" lon="12.2375467"><ele>775.0</ele><time>2026-04-11T08:10:48.979Z</time></trkpt><trkpt lat="43.8729317" lon="12.2373383"><ele>771.3333333333333</ele><time>2026-04-11T08:10:49.979Z</time></trkpt><trkpt lat="43.8727883" lon="12.2371533"><ele>767.6666666666666</ele><time>2026-04-11T08:10:50.979Z</time></trkpt><trkpt lat="43.8726383" lon="12.2369767"><ele>764.0</ele><time>2026-04-11T08:10:51.979Z</time></trkpt><trkpt lat="43.872485" lon="12.236825"><ele>771.3333333333333</ele><time>2026-04-11T08:10:52.98Z</time></trkpt><trkpt lat="43.872335" lon="12.2366833"><ele>778.6666666666666</ele><time>2026-04-11T08:10:53.98Z</time></trkpt><trkpt lat="43.872205" lon="12.2365533"><ele>786.0</ele><time>2026-04-11T08:10:54.979Z</time></trkpt><trkpt lat="43.8720867" lon="12.236425"><ele>787.75</ele><time>2026-04-11T08:10:55.979Z</time></trkpt><trkpt lat="43.8720117" lon="12.2362933"><ele>789.5</ele><time>2026-04-11T08:10:56.979Z</time></trkpt><trkpt lat="43.87198" lon="12.236145"><ele>791.25</ele><time>2026-04-11T08:10:57.979Z</time></trkpt><trkpt lat="43.871965" lon="12.236"><ele>793.0</ele><time>2026-04-11T08:10:58.979Z</time></trkpt><trkpt lat="43.871955" lon="12.23584"><ele>793.0</ele><time>2026-04-11T08:10:59.98Z</time></trkpt><trkpt lat="43.87194" lon="12.2356833"><ele>793.0</ele><time>2026-04-11T08:11:00.979Z</time></trkpt><trkpt lat="43.8719067" lon="12.23552"><ele>793.0</ele><time>2026-04-11T08:11:01.979Z</time></trkpt><trkpt lat="43.8718483" lon="12.235345"><ele>793.0</ele><time>2026-04-11T08:11:02.979Z</time></trkpt><trkpt lat="43.871775" lon="12.23517"><ele>795.0</ele><time>2026-04-11T08:11:03.98Z</time></trkpt><trkpt lat="43.871705" lon="12.2349883"><ele>797.0</ele><time>2026-04-11T08:11:04.979Z</time></trkpt><trkpt lat="43.87164" lon="12.2347967"><ele>799.0</ele><time>2026-04-11T08:11:05.98Z</time></trkpt><trkpt lat="43.8715817" lon="12.2345917"><ele>799.0</ele><time>2026-04-11T08:11:06.98Z</time></trkpt><trkpt lat="43.8715233" lon="12.2343767"><ele>799.0</ele><time>2026-04-11T08:11:07.979Z</time></trkpt><trkpt lat="43.8714717" lon="12.2341583"><ele>799.0</ele><time>2026-04-11T08:11:08.979Z</time></trkpt><trkpt lat="43.8714317" lon="12.2339517"><ele>799.0</ele><time>2026-04-11T08:11:09.979Z</time></trkpt><trkpt lat="43.871385" lon="12.2337283"><ele>799.0</ele><time>2026-04-11T08:11:10.979Z</time></trkpt><trkpt lat="43.8713183" lon="12.2335117"><ele>799.0</ele><time>2026-04-11T08:11:11.979Z</time></trkpt><trkpt lat="43.87123" lon="12.2332917"><ele>797.6666666666666</ele><time>2026-04-11T08:11:12.98Z</time></trkpt><trkpt lat="43.8711383" lon="12.233075"><ele>796.3333333333333</ele><time>2026-04-11T08:11:13.979Z</time></trkpt><trkpt lat="43.871045" lon="12.232865"><ele>795.0</ele><time>2026-04-11T08:11:14.98Z</time></trkpt><trkpt lat="43.8709467" lon="12.2326567"><ele>796.3333333333333</ele><time>2026-04-11T08:11:15.979Z</time></trkpt><trkpt lat="43.8708417" lon="12.23247"><ele>797.6666666666666</ele><time>2026-04-11T08:11:16.979Z</time></trkpt><trkpt lat="43.8707433" lon="12.2322867"><ele>799.0</ele><time>2026-04-11T08:11:17.979Z</time></trkpt><trkpt lat="43.8706583" lon="12.232125"><ele>799.0</ele><time>2026-04-11T08:11:18.98Z</time></trkpt><trkpt lat="43.8705833" lon="12.231975"><ele>799.0</ele><time>2026-04-11T08:11:19.979Z</time></trkpt><trkpt lat="43.870525" lon="12.231845"><ele>799.0</ele><time>2026-04-11T08:11:20.979Z</time></trkpt><trkpt lat="43.8704683" lon="12.231725"><ele>799.0</ele><time>2026-04-11T08:11:21.979Z</time></trkpt><trkpt lat="43.8704117" lon="12.2316433"><ele>799.0</ele><time>2026-04-11T08:11:22.979Z</time></trkpt><trkpt lat="43.87036" lon="12.2315883"><ele>799.0</ele><time>2026-04-11T08:11:23.979Z</time></trkpt><trkpt lat="43.87026" lon="12.2315767"><ele>799.0</ele><time>2026-04-11T08:11:25.979Z</time></trkpt><trkpt lat="43.8701867" lon="12.2316183"><ele>799.0</ele><time>2026-04-11T08:11:26.979Z</time></trkpt><trkpt lat="43.8701017" lon="12.2316517"><ele>799.0</ele><time>2026-04-11T08:11:27.979Z</time></trkpt><trkpt lat="43.8700033" lon="12.2316817"><ele>799.0</ele><time>2026-04-11T08:11:28.979Z</time></trkpt><trkpt lat="43.8699" lon="12.2316667"><ele>800.5</ele><time>2026-04-11T08:11:29.979Z</time></trkpt><trkpt lat="43.8697867" lon="12.2316217"><ele>802.0</ele><time>2026-04-11T08:11:30.979Z</time></trkpt><trkpt lat="43.8696583" lon="12.231555"><ele>803.5</ele><time>2026-04-11T08:11:31.979Z</time></trkpt><trkpt lat="43.869525" lon="12.2314883"><ele>805.0</ele><time>2026-04-11T08:11:32.979Z</time></trkpt><trkpt lat="43.869395" lon="12.231425"><ele>809.75</ele><time>2026-04-11T08:11:33.979Z</time></trkpt><trkpt lat="43.8692717" lon="12.2313717"><ele>814.5</ele><time>2026-04-11T08:11:34.979Z</time></trkpt><trkpt lat="43.8691567" lon="12.2313017"><ele>819.25</ele><time>2026-04-11T08:11:35.98Z</time></trkpt><trkpt lat="43.86905" lon="12.231205"><ele>824.0</ele><time>2026-04-11T08:11:36.979Z</time></trkpt><trkpt lat="43.8689533" lon="12.23107"><ele>824.0</ele><time>2026-04-11T08:11:37.979Z</time></trkpt><trkpt lat="43.868875" lon="12.23091"><ele>824.0</ele><time>2026-04-11T08:11:38.98Z</time></trkpt><trkpt lat="43.8688" lon="12.2307233"><ele>824.0</ele><time>2026-04-11T08:11:39.979Z</time></trkpt><trkpt lat="43.8687333" lon="12.2305267"><ele>821.3333333333334</ele><time>2026-04-11T08:11:40.979Z</time></trkpt><trkpt lat="43.8686667" lon="12.2303217"><ele>818.6666666666667</ele><time>2026-04-11T08:11:41.979Z</time></trkpt><trkpt lat="43.8686083" lon="12.2301"><ele>816.0</ele><time>2026-04-11T08:11:42.979Z</time></trkpt><trkpt lat="43.868565" lon="12.2298867"><ele>814.25</ele><time>2026-04-11T08:11:43.979Z</time></trkpt><trkpt lat="43.8685267" lon="12.2297133"><ele>812.5</ele><time>2026-04-11T08:11:44.979Z</time></trkpt><trkpt lat="43.868485" lon="12.2295467"><ele>810.75</ele><time>2026-04-11T08:11:45.979Z</time></trkpt><trkpt lat="43.8684283" lon="12.2294083"><ele>809.0</ele><time>2026-04-11T08:11:46.979Z</time></trkpt><trkpt lat="43.86836" lon="12.2293"><ele>814.6</ele><time>2026-04-11T08:11:47.979Z</time></trkpt><trkpt lat="43.8682667" lon="12.2292033"><ele>820.2</ele><time>2026-04-11T08:11:48.979Z</time></trkpt><trkpt lat="43.8681683" lon="12.229135"><ele>825.8000000000001</ele><time>2026-04-11T08:11:49.979Z</time></trkpt><trkpt lat="43.8680517" lon="12.2290817"><ele>831.4000000000001</ele><time>2026-04-11T08:11:50.979Z</time></trkpt><trkpt lat="43.8679533" lon="12.2290933"><ele>837.0</ele><time>2026-04-11T08:11:51.98Z</time></trkpt><trkpt lat="43.8678617" lon="12.2291383"><ele>837.0</ele><time>2026-04-11T08:11:52.979Z</time></trkpt><trkpt lat="43.8677683" lon="12.229225"><ele>837.0</ele><time>2026-04-11T08:11:53.979Z</time></trkpt><trkpt lat="43.8676883" lon="12.229335"><ele>837.0</ele><time>2026-04-11T08:11:54.979Z</time></trkpt><trkpt lat="43.86762" lon="12.2294583"><ele>837.0</ele><time>2026-04-11T08:11:55.979Z</time></trkpt><trkpt lat="43.8675817" lon="12.2296033"><ele>837.0</ele><time>2026-04-11T08:11:56.979Z</time></trkpt><trkpt lat="43.867565" lon="12.22976"><ele>838.5</ele><time>2026-04-11T08:11:57.979Z</time></trkpt><trkpt lat="43.867575" lon="12.22992"><ele>840.0</ele><time>2026-04-11T08:11:58.979Z</time></trkpt><trkpt lat="43.867615" lon="12.2300783"><ele>841.5</ele><time>2026-04-11T08:11:59.98Z</time></trkpt><trkpt lat="43.8676683" lon="12.2302167"><ele>843.0</ele><time>2026-04-11T08:12:00.979Z</time></trkpt><trkpt lat="43.8677383" lon="12.2303567"><ele>843.0</ele><time>2026-04-11T08:12:01.979Z</time></trkpt><trkpt lat="43.86781" lon="12.2305033"><ele>843.0</ele><time>2026-04-11T08:12:02.979Z</time></trkpt><trkpt lat="43.8678783" lon="12.2306333"><ele>843.0</ele><time>2026-04-11T08:12:03.979Z</time></trkpt><trkpt lat="43.8679567" lon="12.2307483"><ele>843.0</ele><time>2026-04-11T08:12:04.979Z</time></trkpt><trkpt lat="43.8680467" lon="12.2308483"><ele>844.2</ele><time>2026-04-11T08:12:05.98Z</time></trkpt><trkpt lat="43.8681367" lon="12.2309417"><ele>845.4</ele><time>2026-04-11T08:12:06.979Z</time></trkpt><trkpt lat="43.86822" lon="12.23103"><ele>846.6</ele><time>2026-04-11T08:12:07.98Z</time></trkpt><trkpt lat="43.8683" lon="12.23112"><ele>847.8000000000001</ele><time>2026-04-11T08:12:08.979Z</time></trkpt><trkpt lat="43.8683617" lon="12.2312133"><ele>849.0</ele><time>2026-04-11T08:12:09.979Z</time></trkpt><trkpt lat="43.8684133" lon="12.23131"><ele>850.6666666666666</ele><time>2026-04-11T08:12:10.979Z</time></trkpt><trkpt lat="43.868455" lon="12.2314133"><ele>852.3333333333333</ele><time>2026-04-11T08:12:11.979Z</time></trkpt><trkpt lat="43.86848" lon="12.231525"><ele>854.0</ele><time>2026-04-11T08:12:12.979Z</time></trkpt><trkpt lat="43.86848" lon="12.23165"><ele>855.6666666666666</ele><time>2026-04-11T08:12:13.98Z</time></trkpt><trkpt lat="43.86846" lon="12.2317717"><ele>857.3333333333333</ele><time>2026-04-11T08:12:14.979Z</time></trkpt><trkpt lat="43.8683983" lon="12.2318667"><ele>859.0</ele><time>2026-04-11T08:12:15.979Z</time></trkpt><trkpt lat="43.86832" lon="12.2319483"><ele>859.0</ele><time>2026-04-11T08:12:16.98Z</time></trkpt><trkpt lat="43.8682367" lon="12.23201"><ele>859.0000000000001</ele><time>2026-04-11T08:12:17.979Z</time></trkpt><trkpt lat="43.86814" lon="12.23205"><ele>859.0000000000001</ele><time>2026-04-11T08:12:18.979Z</time></trkpt><trkpt lat="43.8680333" lon="12.2320617"><ele>859.0</ele><time>2026-04-11T08:12:19.979Z</time></trkpt><trkpt lat="43.8679183" lon="12.23204"><ele>859.0</ele><time>2026-04-11T08:12:20.979Z</time></trkpt><trkpt lat="43.867795" lon="12.2320067"><ele>859.0</ele><time>2026-04-11T08:12:21.979Z</time></trkpt><trkpt lat="43.867675" lon="12.23199"><ele>859.0</ele><time>2026-04-11T08:12:22.98Z</time></trkpt><trkpt lat="43.867555" lon="12.2319717"><ele>859.0</ele><time>2026-04-11T08:12:23.979Z</time></trkpt><trkpt lat="43.8674317" lon="12.23195"><ele>859.0</ele><time>2026-04-11T08:12:24.979Z</time></trkpt><trkpt lat="43.8673183" lon="12.2319233"><ele>859.75</ele><time>2026-04-11T08:12:25.979Z</time></trkpt><trkpt lat="43.867205" lon="12.2318867"><ele>860.5</ele><time>2026-04-11T08:12:26.98Z</time></trkpt><trkpt lat="43.867095" lon="12.2318467"><ele>861.25</ele><time>2026-04-11T08:12:27.979Z</time></trkpt><trkpt lat="43.8669833" lon="12.2318233"><ele>862.0</ele><time>2026-04-11T08:12:28.979Z</time></trkpt><trkpt lat="43.86687" lon="12.231805"><ele>862.0</ele><time>2026-04-11T08:12:29.98Z</time></trkpt><trkpt lat="43.8667783" lon="12.231795"><ele>862.0</ele><time>2026-04-11T08:12:30.979Z</time></trkpt><trkpt lat="43.8666717" lon="12.231795"><ele>862.0</ele><time>2026-04-11T08:12:31.979Z</time></trkpt><trkpt lat="43.86657" lon="12.2317733"><ele>862.0</ele><time>2026-04-11T08:12:32.979Z</time></trkpt><trkpt lat="43.86647" lon="12.2317517"><ele>862.0</ele><time>2026-04-11T08:12:33.979Z</time></trkpt><trkpt lat="43.86637" lon="12.231695"><ele>861.75</ele><time>2026-04-11T08:12:34.979Z</time></trkpt><trkpt lat="43.866275" lon="12.2315967"><ele>861.5</ele><time>2026-04-11T08:12:35.979Z</time></trkpt><trkpt lat="43.8661917" lon="12.23149"><ele>861.25</ele><time>2026-04-11T08:12:36.979Z</time></trkpt><trkpt lat="43.8660967" lon="12.2313983"><ele>861.0</ele><time>2026-04-11T08:12:37.979Z</time></trkpt><trkpt lat="43.8659983" lon="12.231315"><ele>863.0</ele><time>2026-04-11T08:12:38.979Z</time></trkpt><trkpt lat="43.8659033" lon="12.2312683"><ele>864.9999999999999</ele><time>2026-04-11T08:12:39.98Z</time></trkpt><trkpt lat="43.8657983" lon="12.2312267"><ele>866.9999999999999</ele><time>2026-04-11T08:12:40.979Z</time></trkpt><trkpt lat="43.8656817" lon="12.2311867"><ele>869.0</ele><time>2026-04-11T08:12:41.979Z</time></trkpt><trkpt lat="43.86557" lon="12.2311683"><ele>871.0</ele><time>2026-04-11T08:12:42.979Z</time></trkpt><trkpt lat="43.8654433" lon="12.2311433"><ele>871.0</ele><time>2026-04-11T08:12:43.979Z</time></trkpt><trkpt lat="43.8653167" lon="12.2311283"><ele>871.0</ele><time>2026-04-11T08:12:44.979Z</time></trkpt><trkpt lat="43.865185" lon="12.2311267"><ele>871.0</ele><time>2026-04-11T08:12:45.979Z</time></trkpt><trkpt lat="43.8650483" lon="12.2311033"><ele>871.0</ele><time>2026-04-11T08:12:46.98Z</time></trkpt><trkpt lat="43.8649217" lon="12.231085"><ele>872.75</ele><time>2026-04-11T08:12:47.979Z</time></trkpt><trkpt lat="43.8647867" lon="12.23106"><ele>874.5</ele><time>2026-04-11T08:12:48.979Z</time></trkpt><trkpt lat="43.8646367" lon="12.2310633"><ele>876.25</ele><time>2026-04-11T08:12:49.98Z</time></trkpt><trkpt lat="43.8644933" lon="12.2310633"><ele>878.0</ele><time>2026-04-11T08:12:50.979Z</time></trkpt><trkpt lat="43.8643633" lon="12.2310617"><ele>878.5</ele><time>2026-04-11T08:12:51.979Z</time></trkpt><trkpt lat="43.8642183" lon="12.2310483"><ele>879.0</ele><time>2026-04-11T08:12:52.979Z</time></trkpt><trkpt lat="43.8640817" lon="12.23104"><ele>879.5</ele><time>2026-04-11T08:12:53.979Z</time></trkpt><trkpt lat="43.8639417" lon="12.2310383"><ele>880.0</ele><time>2026-04-11T08:12:54.979Z</time></trkpt><trkpt lat="43.863805" lon="12.2310283"><ele>880.0</ele><time>2026-04-11T08:12:55.979Z</time></trkpt><trkpt lat="43.8636733" lon="12.2310133"><ele>880.0</ele><time>2026-04-11T08:12:56.979Z</time></trkpt><trkpt lat="43.8635483" lon="12.2309967"><ele>880.0</ele><time>2026-04-11T08:12:57.979Z</time></trkpt><trkpt lat="43.8634267" lon="12.2309733"><ele>880.0</ele><time>2026-04-11T08:12:58.979Z</time></trkpt><trkpt lat="43.863305" lon="12.230955"><ele>881.25</ele><time>2026-04-11T08:12:59.979Z</time></trkpt><trkpt lat="43.8631833" lon="12.2309483"><ele>882.5</ele><time>2026-04-11T08:13:00.98Z</time></trkpt><trkpt lat="43.8630483" lon="12.2309367"><ele>883.75</ele><time>2026-04-11T08:13:01.979Z</time></trkpt><trkpt lat="43.8629133" lon="12.230915"><ele>885.0</ele><time>2026-04-11T08:13:02.979Z</time></trkpt><trkpt lat="43.8627833" lon="12.2308633"><ele>885.0</ele><time>2026-04-11T08:13:03.979Z</time></trkpt><trkpt lat="43.8626617" lon="12.2308017"><ele>885.0</ele><time>2026-04-11T08:13:04.979Z</time></trkpt><trkpt lat="43.86256" lon="12.2307233"><ele>885.0</ele><time>2026-04-11T08:13:05.979Z</time></trkpt><trkpt lat="43.86247" lon="12.2306467"><ele>885.0</ele><time>2026-04-11T08:13:06.98Z</time></trkpt><trkpt lat="43.86239" lon="12.230585"><ele>885.0</ele><time>2026-04-11T08:13:07.979Z</time></trkpt><trkpt lat="43.862315" lon="12.2305517"><ele>885.8333333333334</ele><time>2026-04-11T08:13:08.979Z</time></trkpt><trkpt lat="43.8622383" lon="12.23056"><ele>886.6666666666667</ele><time>2026-04-11T08:13:09.979Z</time></trkpt><trkpt lat="43.8621783" lon="12.2306033"><ele>887.5</ele><time>2026-04-11T08:13:10.979Z</time></trkpt><trkpt lat="43.8621133" lon="12.2306883"><ele>888.3333333333334</ele><time>2026-04-11T08:13:11.979Z</time></trkpt><trkpt lat="43.8620767" lon="12.2307983"><ele>889.1666666666667</ele><time>2026-04-11T08:13:12.979Z</time></trkpt><trkpt lat="43.862055" lon="12.2309017"><ele>890.0</ele><time>2026-04-11T08:13:13.979Z</time></trkpt><trkpt lat="43.8620533" lon="12.23101"><ele>890.6</ele><time>2026-04-11T08:13:14.979Z</time></trkpt><trkpt lat="43.8620933" lon="12.2311033"><ele>891.2</ele><time>2026-04-11T08:13:15.979Z</time></trkpt><trkpt lat="43.86216" lon="12.23119"><ele>891.8</ele><time>2026-04-11T08:13:16.979Z</time></trkpt><trkpt lat="43.8622417" lon="12.231255"><ele>892.4</ele><time>2026-04-11T08:13:17.98Z</time></trkpt><trkpt lat="43.8624233" lon="12.2313083"><ele>893.0</ele><time>2026-04-11T08:13:18.98Z</time></trkpt><trkpt lat="43.8625733" lon="12.2313667"><ele>893.75</ele><time>2026-04-11T08:13:19.979Z</time></trkpt><trkpt lat="43.8627133" lon="12.2314283"><ele>894.5</ele><time>2026-04-11T08:13:20.979Z</time></trkpt><trkpt lat="43.86285" lon="12.2315067"><ele>895.25</ele><time>2026-04-11T08:13:21.98Z</time></trkpt><trkpt lat="43.8629783" lon="12.2316067"><ele>896.0</ele><time>2026-04-11T08:13:22.98Z</time></trkpt><trkpt lat="43.8631067" lon="12.2317"><ele>896.0</ele><time>2026-04-11T08:13:23.979Z</time></trkpt><trkpt lat="43.86324" lon="12.2318033"><ele>896.0</ele><time>2026-04-11T08:13:24.979Z</time></trkpt><trkpt lat="43.8633633" lon="12.231895"><ele>896.0</ele><time>2026-04-11T08:13:25.979Z</time></trkpt><trkpt lat="43.8634833" lon="12.2319933"><ele>896.0</ele><time>2026-04-11T08:13:26.98Z</time></trkpt><trkpt lat="43.8635817" lon="12.23208"><ele>894.75</ele><time>2026-04-11T08:13:27.979Z</time></trkpt><trkpt lat="43.8636817" lon="12.2321767"><ele>893.5</ele><time>2026-04-11T08:13:28.979Z</time></trkpt><trkpt lat="43.8637733" lon="12.23229"><ele>892.25</ele><time>2026-04-11T08:13:29.979Z</time></trkpt><trkpt lat="43.86386" lon="12.23241"><ele>891.0</ele><time>2026-04-11T08:13:30.979Z</time></trkpt><trkpt lat="43.863935" lon="12.23253"><ele>892.75</ele><time>2026-04-11T08:13:31.979Z</time></trkpt><trkpt lat="43.8640283" lon="12.2326467"><ele>894.5</ele><time>2026-04-11T08:13:32.979Z</time></trkpt><trkpt lat="43.8641467" lon="12.2327667"><ele>896.25</ele><time>2026-04-11T08:13:33.979Z</time></trkpt><trkpt lat="43.8642783" lon="12.2328667"><ele>898.0</ele><time>2026-04-11T08:13:34.979Z</time></trkpt><trkpt lat="43.8644017" lon="12.23298"><ele>898.0</ele><time>2026-04-11T08:13:35.979Z</time></trkpt><trkpt lat="43.8645117" lon="12.23309"><ele>898.0</ele><time>2026-04-11T08:13:36.979Z</time></trkpt><trkpt lat="43.8646117" lon="12.2332067"><ele>898.0</ele><time>2026-04-11T08:13:37.979Z</time></trkpt><trkpt lat="43.8647167" lon="12.23333"><ele>898.0</ele><time>2026-04-11T08:13:38.979Z</time></trkpt><trkpt lat="43.86482" lon="12.23346"><ele>899.25</ele><time>2026-04-11T08:13:39.979Z</time></trkpt><trkpt lat="43.8649283" lon="12.2335867"><ele>900.5</ele><time>2026-04-11T08:13:40.98Z</time></trkpt><trkpt lat="43.8650417" lon="12.2336967"><ele>901.75</ele><time>2026-04-11T08:13:41.979Z</time></trkpt><trkpt lat="43.8651433" lon="12.2337967"><ele>903.0</ele><time>2026-04-11T08:13:42.979Z</time></trkpt><trkpt lat="43.8652417" lon="12.2339117"><ele>905.75</ele><time>2026-04-11T08:13:43.979Z</time></trkpt><trkpt lat="43.86533" lon="12.23402"><ele>908.5</ele><time>2026-04-11T08:13:44.979Z</time></trkpt><trkpt lat="43.865435" lon="12.23412"><ele>911.25</ele><time>2026-04-11T08:13:45.979Z</time></trkpt><trkpt lat="43.8655417" lon="12.2342117"><ele>914.0</ele><time>2026-04-11T08:13:46.979Z</time></trkpt><trkpt lat="43.8656367" lon="12.2342983"><ele>914.0000000000001</ele><time>2026-04-11T08:13:47.98Z</time></trkpt><trkpt lat="43.8657117" lon="12.2343767"><ele>914.0</ele><time>2026-04-11T08:13:48.979Z</time></trkpt><trkpt lat="43.8657433" lon="12.2344633"><ele>914.0000000000001</ele><time>2026-04-11T08:13:49.979Z</time></trkpt><trkpt lat="43.8657533" lon="12.234555"><ele>914.0000000000001</ele><time>2026-04-11T08:13:50.979Z</time></trkpt><trkpt lat="43.8657383" lon="12.234645"><ele>914.0</ele><time>2026-04-11T08:13:51.98Z</time></trkpt><trkpt lat="43.8657017" lon="12.2347167"><ele>914.0000000000001</ele><time>2026-04-11T08:13:52.979Z</time></trkpt><trkpt lat="43.8656433" lon="12.2347517"><ele>914.0000000000001</ele><time>2026-04-11T08:13:53.979Z</time></trkpt><trkpt lat="43.8655683" lon="12.2347633"><ele>914.0</ele><time>2026-04-11T08:13:54.979Z</time></trkpt><trkpt lat="43.8654683" lon="12.23472"><ele>914.0000000000001</ele><time>2026-04-11T08:13:55.979Z</time></trkpt><trkpt lat="43.865365" lon="12.2346917"><ele>914.0000000000001</ele><time>2026-04-11T08:13:56.979Z</time></trkpt><trkpt lat="43.8652583" lon="12.2346717"><ele>914.0</ele><time>2026-04-11T08:13:57.979Z</time></trkpt><trkpt lat="43.8651533" lon="12.234655"><ele>914.0</ele><time>2026-04-11T08:13:58.979Z</time></trkpt><trkpt lat="43.8650433" lon="12.234645"><ele>914.25</ele><time>2026-04-11T08:13:59.979Z</time></trkpt><trkpt lat="43.8649283" lon="12.2346383"><ele>914.5</ele><time>2026-04-11T08:14:00.979Z</time></trkpt><trkpt lat="43.864815" lon="12.23463"><ele>914.75</ele><time>2026-04-11T08:14:01.979Z</time></trkpt><trkpt lat="43.8646983" lon="12.234625"><ele>915.0</ele><time>2026-04-11T08:14:02.979Z</time></trkpt><trkpt lat="43.86459" lon="12.234615"><ele>915.0</ele><time>2026-04-11T08:14:03.979Z</time></trkpt><trkpt lat="43.864485" lon="12.2346033"><ele>915.0</ele><time>2026-04-11T08:14:04.98Z</time></trkpt><trkpt lat="43.864385" lon="12.2345883"><ele>915.0</ele><time>2026-04-11T08:14:05.979Z</time></trkpt><trkpt lat="43.864285" lon="12.234575"><ele>915.0</ele><time>2026-04-11T08:14:06.979Z</time></trkpt><trkpt lat="43.8641867" lon="12.2345667"><ele>915.0</ele><time>2026-04-11T08:14:07.979Z</time></trkpt><trkpt lat="43.864085" lon="12.2345583"><ele>915.0</ele><time>2026-04-11T08:14:08.979Z</time></trkpt><trkpt lat="43.8639783" lon="12.234545"><ele>915.0</ele><time>2026-04-11T08:14:09.979Z</time></trkpt><trkpt lat="43.8638783" lon="12.2345117"><ele>915.0</ele><time>2026-04-11T08:14:10.979Z</time></trkpt><trkpt lat="43.8637733" lon="12.2344767"><ele>915.0</ele><time>2026-04-11T08:14:11.979Z</time></trkpt><trkpt lat="43.8636667" lon="12.234435"><ele>915.0</ele><time>2026-04-11T08:14:12.979Z</time></trkpt><trkpt lat="43.8635617" lon="12.2343883"><ele>915.0</ele><time>2026-04-11T08:14:13.98Z</time></trkpt><trkpt lat="43.8634533" lon="12.2343417"><ele>915.0</ele><time>2026-04-11T08:14:14.979Z</time></trkpt><trkpt lat="43.8633383" lon="12.2342983"><ele>915.0</ele><time>2026-04-11T08:14:15.979Z</time></trkpt><trkpt lat="43.863215" lon="12.234245"><ele>915.0</ele><time>2026-04-11T08:14:16.979Z</time></trkpt><trkpt lat="43.8630833" lon="12.234185"><ele>915.0</ele><time>2026-04-11T08:14:17.979Z</time></trkpt><trkpt lat="43.8629583" lon="12.2341333"><ele>915.0</ele><time>2026-04-11T08:14:18.979Z</time></trkpt><trkpt lat="43.86283" lon="12.23407"><ele>915.0</ele><time>2026-04-11T08:14:19.98Z</time></trkpt><trkpt lat="43.8627017" lon="12.2340083"><ele>915.0</ele><time>2026-04-11T08:14:20.979Z</time></trkpt><trkpt lat="43.8625767" lon="12.233945"><ele>915.0</ele><time>2026-04-11T08:14:21.979Z</time></trkpt><trkpt lat="43.8624483" lon="12.23389"><ele>915.0</ele><time>2026-04-11T08:14:22.979Z</time></trkpt><trkpt lat="43.8623233" lon="12.2338517"><ele>915.0</ele><time>2026-04-11T08:14:23.979Z</time></trkpt><trkpt lat="43.8622033" lon="12.2338133"><ele>915.0</ele><time>2026-04-11T08:14:24.978Z</time></trkpt><trkpt lat="43.8621067" lon="12.2337467"><ele>915.0</ele><time>2026-04-11T08:14:25.978Z</time></trkpt><trkpt lat="43.86201" lon="12.23368"><ele>915.0</ele><time>2026-04-11T08:14:26.978Z</time></trkpt><trkpt lat="43.8619067" lon="12.2335983"><ele>915.0</ele><time>2026-04-11T08:14:27.978Z</time></trkpt><trkpt lat="43.8618167" lon="12.2335117"><ele>915.0</ele><time>2026-04-11T08:14:28.978Z</time></trkpt><trkpt lat="43.8617467" lon="12.233405"><ele>915.0</ele><time>2026-04-11T08:14:29.978Z</time></trkpt><trkpt lat="43.8616817" lon="12.2332667"><ele>914.5</ele><time>2026-04-11T08:14:30.978Z</time></trkpt><trkpt lat="43.86163" lon="12.2331233"><ele>914.0</ele><time>2026-04-11T08:14:31.978Z</time></trkpt><trkpt lat="43.86158" lon="12.2329583"><ele>913.5</ele><time>2026-04-11T08:14:32.978Z</time></trkpt><trkpt lat="43.8615317" lon="12.2328"><ele>913.0</ele><time>2026-04-11T08:14:33.978Z</time></trkpt><trkpt lat="43.8614717" lon="12.2326317"><ele>913.0</ele><time>2026-04-11T08:14:34.978Z</time></trkpt><trkpt lat="43.86142" lon="12.2324633"><ele>913.0</ele><time>2026-04-11T08:14:35.978Z</time></trkpt><trkpt lat="43.861375" lon="12.2322917"><ele>913.0</ele><time>2026-04-11T08:14:36.978Z</time></trkpt><trkpt lat="43.8613117" lon="12.2321083"><ele>913.0</ele><time>2026-04-11T08:14:37.978Z</time></trkpt><trkpt lat="43.8612483" lon="12.231935"><ele>913.0</ele><time>2026-04-11T08:14:38.978Z</time></trkpt><trkpt lat="43.8611867" lon="12.2317717"><ele>913.0</ele><time>2026-04-11T08:14:39.978Z</time></trkpt><trkpt lat="43.8611233" lon="12.2316067"><ele>913.0</ele><time>2026-04-11T08:14:40.978Z</time></trkpt><trkpt lat="43.8610617" lon="12.2314717"><ele>913.0</ele><time>2026-04-11T08:14:41.978Z</time></trkpt><trkpt lat="43.8610083" lon="12.2313483"><ele>910.5999999999999</ele><time>2026-04-11T08:14:42.978Z</time></trkpt><trkpt lat="43.8609583" lon="12.2312583"><ele>908.1999999999999</ele><time>2026-04-11T08:14:43.978Z</time></trkpt><trkpt lat="43.8609183" lon="12.231115"><ele>905.8</ele><time>2026-04-11T08:14:45.978Z</time></trkpt><trkpt lat="43.8609817" lon="12.2310333"><ele>903.4</ele><time>2026-04-11T08:14:47.979Z</time></trkpt><trkpt lat="43.861075" lon="12.2311083"><ele>901.0</ele><time>2026-04-11T08:14:48.979Z</time></trkpt><trkpt lat="43.8611533" lon="12.231195"><ele>900.5999999999999</ele><time>2026-04-11T08:14:49.979Z</time></trkpt><trkpt lat="43.8612383" lon="12.2313083"><ele>900.1999999999999</ele><time>2026-04-11T08:14:50.978Z</time></trkpt><trkpt lat="43.86131" lon="12.231445"><ele>899.8000000000001</ele><time>2026-04-11T08:14:51.978Z</time></trkpt><trkpt lat="43.8613617" lon="12.23158"><ele>899.4000000000001</ele><time>2026-04-11T08:14:52.978Z</time></trkpt><trkpt lat="43.8613967" lon="12.2317067"><ele>899.0</ele><time>2026-04-11T08:14:53.979Z</time></trkpt><trkpt lat="43.8614333" lon="12.2317983"><ele>899.0</ele><time>2026-04-11T08:14:54.978Z</time></trkpt><trkpt lat="43.8614717" lon="12.2318683"><ele>899.0000000000001</ele><time>2026-04-11T08:14:55.979Z</time></trkpt><trkpt lat="43.8615467" lon="12.2318667"><ele>899.0000000000001</ele><time>2026-04-11T08:14:57.978Z</time></trkpt><trkpt lat="43.8615083" lon="12.23169"><ele>899.0</ele><time>2026-04-11T08:14:59.979Z</time></trkpt><trkpt lat="43.8614667" lon="12.2315867"><ele>899.0</ele><time>2026-04-11T08:15:00.978Z</time></trkpt><trkpt lat="43.8614183" lon="12.231465"><ele>899.0</ele><time>2026-04-11T08:15:01.978Z</time></trkpt><trkpt lat="43.86137" lon="12.2313367"><ele>899.0000000000001</ele><time>2026-04-11T08:15:02.978Z</time></trkpt><trkpt lat="43.8613167" lon="12.2312133"><ele>899.0000000000001</ele><time>2026-04-11T08:15:03.978Z</time></trkpt><trkpt lat="43.86125" lon="12.231105"><ele>899.0</ele><time>2026-04-11T08:15:04.979Z</time></trkpt><trkpt lat="43.8611717" lon="12.231005"><ele>899.0</ele><time>2026-04-11T08:15:05.979Z</time></trkpt><trkpt lat="43.8610833" lon="12.2309167"><ele>899.0</ele><time>2026-04-11T08:15:06.978Z</time></trkpt><trkpt lat="43.860985" lon="12.2308217"><ele>899.0000000000001</ele><time>2026-04-11T08:15:07.978Z</time></trkpt><trkpt lat="43.860895" lon="12.2307233"><ele>899.0000000000001</ele><time>2026-04-11T08:15:08.978Z</time></trkpt><trkpt lat="43.8608133" lon="12.2306133"><ele>899.0</ele><time>2026-04-11T08:15:09.978Z</time></trkpt><trkpt lat="43.8607483" lon="12.230515"><ele>899.0</ele><time>2026-04-11T08:15:10.978Z</time></trkpt><trkpt lat="43.86069" lon="12.2304267"><ele>899.3333333333334</ele><time>2026-04-11T08:15:11.978Z</time></trkpt><trkpt lat="43.86064" lon="12.2303717"><ele>899.6666666666667</ele><time>2026-04-11T08:15:12.978Z</time></trkpt><trkpt lat="43.8605683" lon="12.2303267"><ele>900.0</ele><time>2026-04-11T08:15:14.978Z</time></trkpt><trkpt lat="43.8605267" lon="12.230395"><ele>900.3333333333333</ele><time>2026-04-11T08:15:52.978Z</time></trkpt><trkpt lat="43.86044" lon="12.2305433"><ele>900.6666666666666</ele><time>2026-04-11T08:15:54.978Z</time></trkpt><trkpt lat="43.86042" lon="12.2306467"><ele>901.0</ele><time>2026-04-11T08:15:55.978Z</time></trkpt><trkpt lat="43.8604083" lon="12.2307583"><ele>900.9999999999999</ele><time>2026-04-11T08:15:56.978Z</time></trkpt><trkpt lat="43.860415" lon="12.230885"><ele>901.0</ele><time>2026-04-11T08:15:57.979Z</time></trkpt><trkpt lat="43.860445" lon="12.2310067"><ele>901.0</ele><time>2026-04-11T08:15:58.978Z</time></trkpt><trkpt lat="43.8604833" lon="12.2311117"><ele>901.0</ele><time>2026-04-11T08:15:59.978Z</time></trkpt><trkpt lat="43.8605167" lon="12.231195"><ele>900.9999999999999</ele><time>2026-04-11T08:16:00.978Z</time></trkpt><trkpt lat="43.8605667" lon="12.231325"><ele>901.0</ele><time>2026-04-11T08:16:02.978Z</time></trkpt><trkpt lat="43.8605167" lon="12.2313967"><ele>901.0</ele><time>2026-04-11T08:16:05.978Z</time></trkpt><trkpt lat="43.8604433" lon="12.231315"><ele>900.9999999999999</ele><time>2026-04-11T08:16:07.978Z</time></trkpt><trkpt lat="43.8604" lon="12.231225"><ele>900.9999999999999</ele><time>2026-04-11T08:16:08.978Z</time></trkpt><trkpt lat="43.8603567" lon="12.2311233"><ele>901.0</ele><time>2026-04-11T08:16:09.978Z</time></trkpt><trkpt lat="43.8603067" lon="12.2309983"><ele>901.0</ele><time>2026-04-11T08:16:10.978Z</time></trkpt><trkpt lat="43.8602367" lon="12.2308583"><ele>901.0</ele><time>2026-04-11T08:16:11.978Z</time></trkpt><trkpt lat="43.8601683" lon="12.23071"><ele>901.0</ele><time>2026-04-11T08:16:12.978Z</time></trkpt><trkpt lat="43.8601" lon="12.2305533"><ele>901.0</ele><time>2026-04-11T08:16:13.979Z</time></trkpt><trkpt lat="43.8600217" lon="12.230425"><ele>901.0</ele><time>2026-04-11T08:16:14.978Z</time></trkpt><trkpt lat="43.859935" lon="12.2303167"><ele>894.25</ele><time>2026-04-11T08:16:15.978Z</time></trkpt><trkpt lat="43.85984" lon="12.2302183"><ele>887.5</ele><time>2026-04-11T08:16:16.978Z</time></trkpt><trkpt lat="43.8597333" lon="12.230125"><ele>880.75</ele><time>2026-04-11T08:16:17.979Z</time></trkpt><trkpt lat="43.8596183" lon="12.2300533"><ele>874.0</ele><time>2026-04-11T08:16:18.978Z</time></trkpt><trkpt lat="43.8595033" lon="12.2299733"><ele>874.0</ele><time>2026-04-11T08:16:19.978Z</time></trkpt><trkpt lat="43.8593933" lon="12.2299033"><ele>874.0</ele><time>2026-04-11T08:16:20.978Z</time></trkpt><trkpt lat="43.8592767" lon="12.2298317"><ele>874.0</ele><time>2026-04-11T08:16:21.978Z</time></trkpt><trkpt lat="43.859165" lon="12.2297483"><ele>874.0</ele><time>2026-04-11T08:16:22.978Z</time></trkpt><trkpt lat="43.8590483" lon="12.2296767"><ele>870.75</ele><time>2026-04-11T08:16:23.979Z</time></trkpt><trkpt lat="43.858935" lon="12.22961"><ele>867.5</ele><time>2026-04-11T08:16:24.978Z</time></trkpt><trkpt lat="43.858815" lon="12.229555"><ele>864.25</ele><time>2026-04-11T08:16:25.978Z</time></trkpt><trkpt lat="43.8587033" lon="12.229505"><ele>861.0</ele><time>2026-04-11T08:16:26.978Z</time></trkpt><trkpt lat="43.858595" lon="12.2294667"><ele>861.0</ele><time>2026-04-11T08:16:27.978Z</time></trkpt><trkpt lat="43.8584883" lon="12.2294533"><ele>860.9999999999999</ele><time>2026-04-11T08:16:28.978Z</time></trkpt><trkpt lat="43.85838" lon="12.22946"><ele>860.9999999999999</ele><time>2026-04-11T08:16:29.979Z</time></trkpt><trkpt lat="43.8582783" lon="12.2294733"><ele>861.0</ele><time>2026-04-11T08:16:30.978Z</time></trkpt><trkpt lat="43.8581767" lon="12.2294783"><ele>861.0</ele><time>2026-04-11T08:16:31.978Z</time></trkpt><trkpt lat="43.85809" lon="12.2294717"><ele>864.0</ele><time>2026-04-11T08:16:32.979Z</time></trkpt><trkpt lat="43.8580117" lon="12.2294517"><ele>867.0</ele><time>2026-04-11T08:16:33.978Z</time></trkpt><trkpt lat="43.8579483" lon="12.2294083"><ele>870.0</ele><time>2026-04-11T08:16:34.978Z</time></trkpt><trkpt lat="43.857885" lon="12.22939"><ele>873.0</ele><time>2026-04-11T08:16:35.978Z</time></trkpt><trkpt lat="43.8577867" lon="12.2294417"><ele>876.0</ele><time>2026-04-11T08:16:37.978Z</time></trkpt><trkpt lat="43.857755" lon="12.2295883"><ele>879.0</ele><time>2026-04-11T08:16:39.979Z</time></trkpt><trkpt lat="43.8577733" lon="12.2296767"><ele>879.0</ele><time>2026-04-11T08:16:40.978Z</time></trkpt><trkpt lat="43.857815" lon="12.22976"><ele>879.0</ele><time>2026-04-11T08:16:41.978Z</time></trkpt><trkpt lat="43.8578683" lon="12.2298333"><ele>879.0</ele><time>2026-04-11T08:16:42.978Z</time></trkpt><trkpt lat="43.857925" lon="12.2298783"><ele>879.0</ele><time>2026-04-11T08:16:43.978Z</time></trkpt><trkpt lat="43.8580233" lon="12.2299433"><ele>879.0</ele><time>2026-04-11T08:16:45.978Z</time></trkpt><trkpt lat="43.8580617" lon="12.2300417"><ele>879.0</ele><time>2026-04-11T08:16:47.978Z</time></trkpt><trkpt lat="43.858" lon="12.230115"><ele>877.2</ele><time>2026-04-11T08:16:49.978Z</time></trkpt><trkpt lat="43.8579117" lon="12.2300917"><ele>875.4000000000001</ele><time>2026-04-11T08:16:51.978Z</time></trkpt><trkpt lat="43.8578483" lon="12.2300333"><ele>873.6</ele><time>2026-04-11T08:16:52.978Z</time></trkpt><trkpt lat="43.8577667" lon="12.2299533"><ele>871.8</ele><time>2026-04-11T08:16:53.978Z</time></trkpt><trkpt lat="43.8576583" lon="12.2298583"><ele>870.0</ele><time>2026-04-11T08:16:54.978Z</time></trkpt><trkpt lat="43.8575483" lon="12.2297383"><ele>869.6</ele><time>2026-04-11T08:16:55.979Z</time></trkpt><trkpt lat="43.8574583" lon="12.229615"><ele>869.2</ele><time>2026-04-11T08:16:56.978Z</time></trkpt><trkpt lat="43.8573867" lon="12.2295117"><ele>868.8</ele><time>2026-04-11T08:16:57.978Z</time></trkpt><trkpt lat="43.8573283" lon="12.229395"><ele>868.4</ele><time>2026-04-11T08:16:58.978Z</time></trkpt><trkpt lat="43.85729" lon="12.22928"><ele>868.0</ele><time>2026-04-11T08:16:59.978Z</time></trkpt><trkpt lat="43.8572583" lon="12.22916"><ele>868.0</ele><time>2026-04-11T08:17:00.978Z</time></trkpt><trkpt lat="43.857215" lon="12.22902"><ele>868.0</ele><time>2026-04-11T08:17:01.979Z</time></trkpt><trkpt lat="43.8571717" lon="12.22886"><ele>868.0</ele><time>2026-04-11T08:17:02.978Z</time></trkpt><trkpt lat="43.8571267" lon="12.2287"><ele>868.0</ele><time>2026-04-11T08:17:03.978Z</time></trkpt><trkpt lat="43.8570917" lon="12.2285567"><ele>866.5999999999999</ele><time>2026-04-11T08:17:04.978Z</time></trkpt><trkpt lat="43.8570533" lon="12.2284183"><ele>865.1999999999999</ele><time>2026-04-11T08:17:05.978Z</time></trkpt><trkpt lat="43.85703" lon="12.2282883"><ele>863.8</ele><time>2026-04-11T08:17:06.978Z</time></trkpt><trkpt lat="43.8570267" lon="12.2281533"><ele>862.4</ele><time>2026-04-11T08:17:07.979Z</time></trkpt><trkpt lat="43.8570533" lon="12.2280183"><ele>861.0</ele><time>2026-04-11T08:17:08.978Z</time></trkpt><trkpt lat="43.857085" lon="12.227885"><ele>859.0</ele><time>2026-04-11T08:17:09.978Z</time></trkpt><trkpt lat="43.8571" lon="12.227755"><ele>856.9999999999999</ele><time>2026-04-11T08:17:10.978Z</time></trkpt><trkpt lat="43.85709" lon="12.2276317"><ele>855.0</ele><time>2026-04-11T08:17:11.978Z</time></trkpt><trkpt lat="43.8570633" lon="12.2275083"><ele>853.0</ele><time>2026-04-11T08:17:12.978Z</time></trkpt><trkpt lat="43.8570167" lon="12.2273867"><ele>851.0</ele><time>2026-04-11T08:17:13.978Z</time></trkpt><trkpt lat="43.8569567" lon="12.2272867"><ele>849.3333333333334</ele><time>2026-04-11T08:17:14.978Z</time></trkpt><trkpt lat="43.8568883" lon="12.2272067"><ele>847.6666666666667</ele><time>2026-04-11T08:17:15.978Z</time></trkpt><trkpt lat="43.856825" lon="12.2271417"><ele>846.0</ele><time>2026-04-11T08:17:16.978Z</time></trkpt><trkpt lat="43.8567583" lon="12.2271317"><ele>844.3333333333333</ele><time>2026-04-11T08:17:17.978Z</time></trkpt><trkpt lat="43.85669" lon="12.22716"><ele>842.6666666666666</ele><time>2026-04-11T08:17:18.979Z</time></trkpt><trkpt lat="43.8566217" lon="12.227185"><ele>841.0</ele><time>2026-04-11T08:17:19.978Z</time></trkpt><trkpt lat="43.8565467" lon="12.2272083"><ele>840.9999999999999</ele><time>2026-04-11T08:17:20.978Z</time></trkpt><trkpt lat="43.8564667" lon="12.2272417"><ele>841.0</ele><time>2026-04-11T08:17:21.979Z</time></trkpt><trkpt lat="43.8564083" lon="12.2272933"><ele>841.0</ele><time>2026-04-11T08:17:22.978Z</time></trkpt><trkpt lat="43.856375" lon="12.22739"><ele>841.0</ele><time>2026-04-11T08:17:23.978Z</time></trkpt><trkpt lat="43.856355" lon="12.2275033"><ele>840.9999999999999</ele><time>2026-04-11T08:17:24.979Z</time></trkpt><trkpt lat="43.856355" lon="12.2276233"><ele>841.0</ele><time>2026-04-11T08:17:25.978Z</time></trkpt><trkpt lat="43.856355" lon="12.2277567"><ele>841.8</ele><time>2026-04-11T08:17:26.978Z</time></trkpt><trkpt lat="43.8563417" lon="12.2278767"><ele>842.5999999999999</ele><time>2026-04-11T08:17:27.979Z</time></trkpt><trkpt lat="43.8562933" lon="12.22798"><ele>843.4</ele><time>2026-04-11T08:17:28.978Z</time></trkpt><trkpt lat="43.8562317" lon="12.2280667"><ele>844.2</ele><time>2026-04-11T08:17:29.978Z</time></trkpt><trkpt lat="43.8561" lon="12.2281367"><ele>845.0</ele><time>2026-04-11T08:17:30.978Z</time></trkpt><trkpt lat="43.8559433" lon="12.2281867"><ele>838.3333333333334</ele><time>2026-04-11T08:17:31.978Z</time></trkpt><trkpt lat="43.85578" lon="12.22824"><ele>831.6666666666667</ele><time>2026-04-11T08:17:32.978Z</time></trkpt><trkpt lat="43.8556283" lon="12.2282483"><ele>825.0</ele><time>2026-04-11T08:17:33.978Z</time></trkpt><trkpt lat="43.8554783" lon="12.2282483"><ele>825.0</ele><time>2026-04-11T08:17:34.978Z</time></trkpt><trkpt lat="43.85536" lon="12.2282683"><ele>825.0</ele><time>2026-04-11T08:17:35.978Z</time></trkpt><trkpt lat="43.8552517" lon="12.2283"><ele>825.0</ele><time>2026-04-11T08:17:36.978Z</time></trkpt><trkpt lat="43.855155" lon="12.2283767"><ele>825.0</ele><time>2026-04-11T08:17:37.979Z</time></trkpt><trkpt lat="43.85508" lon="12.228465"><ele>825.0</ele><time>2026-04-11T08:17:38.978Z</time></trkpt><trkpt lat="43.8550083" lon="12.2285433"><ele>822.75</ele><time>2026-04-11T08:17:39.979Z</time></trkpt><trkpt lat="43.8549283" lon="12.2286017"><ele>820.5</ele><time>2026-04-11T08:17:40.978Z</time></trkpt><trkpt lat="43.8548283" lon="12.2286383"><ele>818.25</ele><time>2026-04-11T08:17:41.978Z</time></trkpt><trkpt lat="43.8547017" lon="12.2286633"><ele>816.0</ele><time>2026-04-11T08:17:42.978Z</time></trkpt><trkpt lat="43.8545667" lon="12.2286983"><ele>816.0</ele><time>2026-04-11T08:17:43.979Z</time></trkpt><trkpt lat="43.8544283" lon="12.2287383"><ele>816.0</ele><time>2026-04-11T08:17:44.979Z</time></trkpt><trkpt lat="43.8542933" lon="12.2287883"><ele>816.0</ele><time>2026-04-11T08:17:45.978Z</time></trkpt><trkpt lat="43.8541633" lon="12.2288133"><ele>816.0</ele><time>2026-04-11T08:17:46.978Z</time></trkpt><trkpt lat="43.8540617" lon="12.22882"><ele>815.5</ele><time>2026-04-11T08:17:47.978Z</time></trkpt><trkpt lat="43.85396" lon="12.2287983"><ele>815.0</ele><time>2026-04-11T08:17:48.978Z</time></trkpt><trkpt lat="43.853865" lon="12.2287417"><ele>814.5</ele><time>2026-04-11T08:17:49.978Z</time></trkpt><trkpt lat="43.8537633" lon="12.228655"><ele>814.0</ele><time>2026-04-11T08:17:50.978Z</time></trkpt><trkpt lat="43.85365" lon="12.2285483"><ele>814.0</ele><time>2026-04-11T08:17:51.979Z</time></trkpt><trkpt lat="43.853525" lon="12.2284483"><ele>814.0</ele><time>2026-04-11T08:17:52.979Z</time></trkpt><trkpt lat="43.853395" lon="12.2283117"><ele>814.0</ele><time>2026-04-11T08:17:53.978Z</time></trkpt><trkpt lat="43.85327" lon="12.228185"><ele>813.0</ele><time>2026-04-11T08:17:54.978Z</time></trkpt><trkpt lat="43.8531433" lon="12.22808"><ele>812.0</ele><time>2026-04-11T08:17:55.978Z</time></trkpt><trkpt lat="43.8530267" lon="12.2279833"><ele>811.0</ele><time>2026-04-11T08:17:56.978Z</time></trkpt><trkpt lat="43.8528983" lon="12.2279067"><ele>810.0</ele><time>2026-04-11T08:17:57.978Z</time></trkpt><trkpt lat="43.8527767" lon="12.2278633"><ele>810.0</ele><time>2026-04-11T08:17:58.979Z</time></trkpt><trkpt lat="43.8526717" lon="12.2278317"><ele>810.0</ele><time>2026-04-11T08:17:59.978Z</time></trkpt><trkpt lat="43.85259" lon="12.2277733"><ele>810.0</ele><time>2026-04-11T08:18:00.978Z</time></trkpt><trkpt lat="43.85254" lon="12.2277033"><ele>810.0</ele><time>2026-04-11T08:18:01.978Z</time></trkpt><trkpt lat="43.8525833" lon="12.2275467"><ele>810.0</ele><time>2026-04-11T08:18:03.979Z</time></trkpt><trkpt lat="43.852635" lon="12.2274417"><ele>812.0</ele><time>2026-04-11T08:18:04.978Z</time></trkpt><trkpt lat="43.8526833" lon="12.2272917"><ele>814.0</ele><time>2026-04-11T08:18:05.978Z</time></trkpt><trkpt lat="43.852715" lon="12.22712"><ele>816.0</ele><time>2026-04-11T08:18:06.978Z</time></trkpt><trkpt lat="43.8527233" lon="12.22695"><ele>818.0</ele><time>2026-04-11T08:18:07.978Z</time></trkpt><trkpt lat="43.8527083" lon="12.22677"><ele>818.0</ele><time>2026-04-11T08:18:08.978Z</time></trkpt><trkpt lat="43.8526683" lon="12.2266067"><ele>818.0</ele><time>2026-04-11T08:18:09.978Z</time></trkpt><trkpt lat="43.8526117" lon="12.2264583"><ele>818.0</ele><time>2026-04-11T08:18:10.978Z</time></trkpt><trkpt lat="43.8525433" lon="12.2263267"><ele>818.0</ele><time>2026-04-11T08:18:11.978Z</time></trkpt><trkpt lat="43.8524767" lon="12.2262133"><ele>811.8</ele><time>2026-04-11T08:18:12.978Z</time></trkpt><trkpt lat="43.8524133" lon="12.2261167"><ele>805.5999999999999</ele><time>2026-04-11T08:18:13.978Z</time></trkpt><trkpt lat="43.8523617" lon="12.2260467"><ele>799.4000000000001</ele><time>2026-04-11T08:18:14.978Z</time></trkpt><trkpt lat="43.8522717" lon="12.22612"><ele>793.2</ele><time>2026-04-11T08:18:16.978Z</time></trkpt><trkpt lat="43.8522217" lon="12.2262133"><ele>787.0</ele><time>2026-04-11T08:18:17.979Z</time></trkpt><trkpt lat="43.852155" lon="12.2263283"><ele>787.0</ele><time>2026-04-11T08:18:18.978Z</time></trkpt><trkpt lat="43.85208" lon="12.22643"><ele>787.0</ele><time>2026-04-11T08:18:19.978Z</time></trkpt><trkpt lat="43.8520083" lon="12.2265133"><ele>787.0</ele><time>2026-04-11T08:18:20.978Z</time></trkpt><trkpt lat="43.8519467" lon="12.2265767"><ele>787.0</ele><time>2026-04-11T08:18:21.978Z</time></trkpt><trkpt lat="43.8518467" lon="12.2266433"><ele>787.0</ele><time>2026-04-11T08:18:23.979Z</time></trkpt><trkpt lat="43.8518433" lon="12.22653"><ele>787.0</ele><time>2026-04-11T08:18:25.978Z</time></trkpt><trkpt lat="43.8518617" lon="12.2264367"><ele>787.0</ele><time>2026-04-11T08:18:26.978Z</time></trkpt><trkpt lat="43.8519117" lon="12.2263317"><ele>787.0</ele><time>2026-04-11T08:18:27.979Z</time></trkpt><trkpt lat="43.85195" lon="12.2262033"><ele>787.0</ele><time>2026-04-11T08:18:28.978Z</time></trkpt><trkpt lat="43.8519767" lon="12.22605"><ele>787.0</ele><time>2026-04-11T08:18:29.978Z</time></trkpt><trkpt lat="43.8519717" lon="12.225875"><ele>787.0</ele><time>2026-04-11T08:18:30.978Z</time></trkpt><trkpt lat="43.8519567" lon="12.2257067"><ele>787.0</ele><time>2026-04-11T08:18:31.978Z</time></trkpt><trkpt lat="43.8519383" lon="12.2255467"><ele>787.0</ele><time>2026-04-11T08:18:32.978Z</time></trkpt><trkpt lat="43.8519" lon="12.2254333"><ele>787.0</ele><time>2026-04-11T08:18:33.978Z</time></trkpt><trkpt lat="43.8518667" lon="12.2253517"><ele>787.0</ele><time>2026-04-11T08:18:34.978Z</time></trkpt><trkpt lat="43.8517717" lon="12.2253683"><ele>781.6</ele><time>2026-04-11T08:18:36.978Z</time></trkpt><trkpt lat="43.8516867" lon="12.22545"><ele>776.2</ele><time>2026-04-11T08:18:38.978Z</time></trkpt><trkpt lat="43.8516417" lon="12.2255483"><ele>770.8</ele><time>2026-04-11T08:18:39.979Z</time></trkpt><trkpt lat="43.8515733" lon="12.2256583"><ele>765.4</ele><time>2026-04-11T08:18:40.978Z</time></trkpt><trkpt lat="43.8515117" lon="12.2257717"><ele>760.0</ele><time>2026-04-11T08:18:41.978Z</time></trkpt><trkpt lat="43.8514617" lon="12.2259033"><ele>759.8333333333334</ele><time>2026-04-11T08:18:42.978Z</time></trkpt><trkpt lat="43.85141" lon="12.2260233"><ele>759.6666666666667</ele><time>2026-04-11T08:18:43.978Z</time></trkpt><trkpt lat="43.8513683" lon="12.2261333"><ele>759.5</ele><time>2026-04-11T08:18:44.978Z</time></trkpt><trkpt lat="43.8513233" lon="12.226235"><ele>759.3333333333334</ele><time>2026-04-11T08:18:45.978Z</time></trkpt><trkpt lat="43.8512667" lon="12.2263083"><ele>759.1666666666666</ele><time>2026-04-11T08:18:46.979Z</time></trkpt><trkpt lat="43.8511783" lon="12.2263083"><ele>759.0</ele><time>2026-04-11T08:18:48.978Z</time></trkpt><trkpt lat="43.8510983" lon="12.226105"><ele>759.0</ele><time>2026-04-11T08:18:50.978Z</time></trkpt><trkpt lat="43.85105" lon="12.22593"><ele>759.0</ele><time>2026-04-11T08:18:51.979Z</time></trkpt><trkpt lat="43.8509883" lon="12.2258067"><ele>759.0</ele><time>2026-04-11T08:18:52.978Z</time></trkpt><trkpt lat="43.8509383" lon="12.2257283"><ele>759.0</ele><time>2026-04-11T08:18:53.978Z</time></trkpt><trkpt lat="43.8508833" lon="12.2256617"><ele>759.0</ele><time>2026-04-11T08:18:54.978Z</time></trkpt><trkpt lat="43.8508217" lon="12.2256033"><ele>755.6666666666666</ele><time>2026-04-11T08:18:55.978Z</time></trkpt><trkpt lat="43.8507583" lon="12.2255583"><ele>752.3333333333334</ele><time>2026-04-11T08:18:56.979Z</time></trkpt><trkpt lat="43.8506933" lon="12.2255117"><ele>749.0</ele><time>2026-04-11T08:18:57.979Z</time></trkpt><trkpt lat="43.8506167" lon="12.2254667"><ele>745.6666666666667</ele><time>2026-04-11T08:18:58.978Z</time></trkpt><trkpt lat="43.8505167" lon="12.2254267"><ele>742.3333333333334</ele><time>2026-04-11T08:18:59.978Z</time></trkpt><trkpt lat="43.8504033" lon="12.2253867"><ele>739.0</ele><time>2026-04-11T08:19:00.978Z</time></trkpt><trkpt lat="43.8502767" lon="12.22534"><ele>739.0</ele><time>2026-04-11T08:19:01.978Z</time></trkpt><trkpt lat="43.8501333" lon="12.2252967"><ele>739.0</ele><time>2026-04-11T08:19:02.978Z</time></trkpt><trkpt lat="43.8499933" lon="12.2252433"><ele>739.0</ele><time>2026-04-11T08:19:03.979Z</time></trkpt><trkpt lat="43.84986" lon="12.2251933"><ele>739.0</ele><time>2026-04-11T08:19:04.978Z</time></trkpt><trkpt lat="43.84973" lon="12.2251583"><ele>736.0</ele><time>2026-04-11T08:19:05.978Z</time></trkpt><trkpt lat="43.8495933" lon="12.2251217"><ele>733.0</ele><time>2026-04-11T08:19:06.978Z</time></trkpt><trkpt lat="43.8494817" lon="12.2250967"><ele>730.0</ele><time>2026-04-11T08:19:07.979Z</time></trkpt><trkpt lat="43.8493767" lon="12.2250433"><ele>727.0</ele><time>2026-04-11T08:19:08.978Z</time></trkpt><trkpt lat="43.8492633" lon="12.2249733"><ele>725.75</ele><time>2026-04-11T08:19:09.979Z</time></trkpt><trkpt lat="43.8491567" lon="12.22488"><ele>724.5</ele><time>2026-04-11T08:19:10.978Z</time></trkpt><trkpt lat="43.8490717" lon="12.2247483"><ele>723.25</ele><time>2026-04-11T08:19:11.978Z</time></trkpt><trkpt lat="43.8489883" lon="12.2245983"><ele>722.0</ele><time>2026-04-11T08:19:12.979Z</time></trkpt><trkpt lat="43.8489017" lon="12.2244517"><ele>722.0</ele><time>2026-04-11T08:19:13.978Z</time></trkpt><trkpt lat="43.848825" lon="12.2243"><ele>722.0</ele><time>2026-04-11T08:19:14.979Z</time></trkpt><trkpt lat="43.8487533" lon="12.2241733"><ele>722.0</ele><time>2026-04-11T08:19:15.978Z</time></trkpt><trkpt lat="43.84869" lon="12.2240767"><ele>722.0</ele><time>2026-04-11T08:19:16.978Z</time></trkpt><trkpt lat="43.848625" lon="12.2239917"><ele>722.0</ele><time>2026-04-11T08:19:17.979Z</time></trkpt><trkpt lat="43.8485467" lon="12.2239267"><ele>720.4000000000001</ele><time>2026-04-11T08:19:18.978Z</time></trkpt><trkpt lat="43.8484617" lon="12.2238917"><ele>718.8000000000001</ele><time>2026-04-11T08:19:19.978Z</time></trkpt><trkpt lat="43.8483617" lon="12.2238933"><ele>717.2</ele><time>2026-04-11T08:19:20.978Z</time></trkpt><trkpt lat="43.848255" lon="12.223915"><ele>715.6</ele><time>2026-04-11T08:19:21.978Z</time></trkpt><trkpt lat="43.8481333" lon="12.2239683"><ele>714.0</ele><time>2026-04-11T08:19:22.978Z</time></trkpt><trkpt lat="43.848015" lon="12.22403"><ele>712.0</ele><time>2026-04-11T08:19:23.978Z</time></trkpt><trkpt lat="43.8478967" lon="12.2240833"><ele>710.0</ele><time>2026-04-11T08:19:24.978Z</time></trkpt><trkpt lat="43.84778" lon="12.2241517"><ele>708.0</ele><time>2026-04-11T08:19:25.978Z</time></trkpt><trkpt lat="43.84766" lon="12.224225"><ele>706.0</ele><time>2026-04-11T08:19:26.978Z</time></trkpt><trkpt lat="43.8475333" lon="12.22431"><ele>701.75</ele><time>2026-04-11T08:19:27.979Z</time></trkpt><trkpt lat="43.8474167" lon="12.224415"><ele>697.5</ele><time>2026-04-11T08:19:28.978Z</time></trkpt><trkpt lat="43.8473" lon="12.2245083"><ele>693.25</ele><time>2026-04-11T08:19:29.978Z</time></trkpt><trkpt lat="43.8471817" lon="12.2246017"><ele>689.0</ele><time>2026-04-11T08:19:30.978Z</time></trkpt><trkpt lat="43.84706" lon="12.2246917"><ele>689.0</ele><time>2026-04-11T08:19:31.978Z</time></trkpt><trkpt lat="43.8469467" lon="12.22479"><ele>689.0</ele><time>2026-04-11T08:19:32.978Z</time></trkpt><trkpt lat="43.8468317" lon="12.224895"><ele>689.0</ele><time>2026-04-11T08:19:33.978Z</time></trkpt><trkpt lat="43.8467183" lon="12.2249917"><ele>689.0</ele><time>2026-04-11T08:19:34.978Z</time></trkpt><trkpt lat="43.84661" lon="12.2251033"><ele>686.5</ele><time>2026-04-11T08:19:35.978Z</time></trkpt><trkpt lat="43.8465033" lon="12.2252017"><ele>684.0</ele><time>2026-04-11T08:19:36.978Z</time></trkpt><trkpt lat="43.8464017" lon="12.2252867"><ele>681.5</ele><time>2026-04-11T08:19:37.978Z</time></trkpt><trkpt lat="43.8462917" lon="12.2253517"><ele>679.0</ele><time>2026-04-11T08:19:38.978Z</time></trkpt><trkpt lat="43.8461783" lon="12.2253917"><ele>679.0</ele><time>2026-04-11T08:19:39.979Z</time></trkpt><trkpt lat="43.8460533" lon="12.2254083"><ele>679.0</ele><time>2026-04-11T08:19:40.978Z</time></trkpt><trkpt lat="43.8459217" lon="12.225425"><ele>679.0</ele><time>2026-04-11T08:19:41.978Z</time></trkpt><trkpt lat="43.8458017" lon="12.2254317"><ele>679.0</ele><time>2026-04-11T08:19:42.977Z</time></trkpt><trkpt lat="43.8456833" lon="12.2254567"><ele>677.5</ele><time>2026-04-11T08:19:43.977Z</time></trkpt><trkpt lat="43.845565" lon="12.225515"><ele>676.0</ele><time>2026-04-11T08:19:44.977Z</time></trkpt><trkpt lat="43.84546" lon="12.2255767"><ele>674.5</ele><time>2026-04-11T08:19:45.977Z</time></trkpt><trkpt lat="43.8453667" lon="12.22567"><ele>673.0</ele><time>2026-04-11T08:19:46.977Z</time></trkpt><trkpt lat="43.84529" lon="12.22578"><ele>672.8</ele><time>2026-04-11T08:19:47.977Z</time></trkpt><trkpt lat="43.84521" lon="12.2258783"><ele>672.5999999999999</ele><time>2026-04-11T08:19:48.977Z</time></trkpt><trkpt lat="43.84513" lon="12.225965"><ele>672.4000000000001</ele><time>2026-04-11T08:19:49.978Z</time></trkpt><trkpt lat="43.8450267" lon="12.226035"><ele>672.2</ele><time>2026-04-11T08:19:50.977Z</time></trkpt><trkpt lat="43.8449167" lon="12.2261033"><ele>672.0</ele><time>2026-04-11T08:19:51.977Z</time></trkpt><trkpt lat="43.8447983" lon="12.22617"><ele>670.75</ele><time>2026-04-11T08:19:52.977Z</time></trkpt><trkpt lat="43.84468" lon="12.2262417"><ele>669.5</ele><time>2026-04-11T08:19:53.977Z</time></trkpt><trkpt lat="43.8445583" lon="12.226305"><ele>668.25</ele><time>2026-04-11T08:19:54.977Z</time></trkpt><trkpt lat="43.844435" lon="12.2263617"><ele>667.0</ele><time>2026-04-11T08:19:55.977Z</time></trkpt><trkpt lat="43.8443083" lon="12.2264267"><ele>664.75</ele><time>2026-04-11T08:19:56.978Z</time></trkpt><trkpt lat="43.8441883" lon="12.2265033"><ele>662.5</ele><time>2026-04-11T08:19:57.977Z</time></trkpt><trkpt lat="43.844075" lon="12.226585"><ele>660.25</ele><time>2026-04-11T08:19:58.977Z</time></trkpt><trkpt lat="43.843975" lon="12.2266667"><ele>658.0</ele><time>2026-04-11T08:19:59.978Z</time></trkpt><trkpt lat="43.84388" lon="12.2267483"><ele>658.0</ele><time>2026-04-11T08:20:00.978Z</time></trkpt><trkpt lat="43.84379" lon="12.2268417"><ele>658.0</ele><time>2026-04-11T08:20:01.977Z</time></trkpt><trkpt lat="43.8436967" lon="12.2269467"><ele>658.0</ele><time>2026-04-11T08:20:02.977Z</time></trkpt><trkpt lat="43.8436117" lon="12.227055"><ele>658.0</ele><time>2026-04-11T08:20:03.977Z</time></trkpt><trkpt lat="43.843525" lon="12.2271683"><ele>656.5</ele><time>2026-04-11T08:20:04.977Z</time></trkpt><trkpt lat="43.8434383" lon="12.2272867"><ele>655.0</ele><time>2026-04-11T08:20:05.977Z</time></trkpt><trkpt lat="43.8433583" lon="12.2274033"><ele>653.5</ele><time>2026-04-11T08:20:06.977Z</time></trkpt><trkpt lat="43.8432783" lon="12.2275217"><ele>652.0</ele><time>2026-04-11T08:20:07.977Z</time></trkpt><trkpt lat="43.8432017" lon="12.2276383"><ele>652.0</ele><time>2026-04-11T08:20:08.977Z</time></trkpt><trkpt lat="43.843115" lon="12.2277633"><ele>652.0</ele><time>2026-04-11T08:20:09.977Z</time></trkpt><trkpt lat="43.84303" lon="12.2278867"><ele>652.0</ele><time>2026-04-11T08:20:10.977Z</time></trkpt><trkpt lat="43.84295" lon="12.2280217"><ele>652.0</ele><time>2026-04-11T08:20:11.977Z</time></trkpt><trkpt lat="43.8428767" lon="12.228145"><ele>650.5</ele><time>2026-04-11T08:20:12.977Z</time></trkpt><trkpt lat="43.8427917" lon="12.2282567"><ele>649.0</ele><time>2026-04-11T08:20:13.977Z</time></trkpt><trkpt lat="43.842705" lon="12.228365"><ele>647.5</ele><time>2026-04-11T08:20:14.977Z</time></trkpt><trkpt lat="43.84262" lon="12.22846"><ele>646.0</ele><time>2026-04-11T08:20:15.977Z</time></trkpt><trkpt lat="43.8425283" lon="12.2285583"><ele>645.4</ele><time>2026-04-11T08:20:16.977Z</time></trkpt><trkpt lat="43.8424383" lon="12.2286467"><ele>644.8</ele><time>2026-04-11T08:20:17.978Z</time></trkpt><trkpt lat="43.8423517" lon="12.2287317"><ele>644.1999999999999</ele><time>2026-04-11T08:20:18.978Z</time></trkpt><trkpt lat="43.842265" lon="12.2288117"><ele>643.5999999999999</ele><time>2026-04-11T08:20:19.977Z</time></trkpt><trkpt lat="43.84218" lon="12.2289017"><ele>643.0</ele><time>2026-04-11T08:20:20.977Z</time></trkpt><trkpt lat="43.8420933" lon="12.2289767"><ele>642.8</ele><time>2026-04-11T08:20:21.978Z</time></trkpt><trkpt lat="43.842025" lon="12.2290183"><ele>642.5999999999999</ele><time>2026-04-11T08:20:22.977Z</time></trkpt><trkpt lat="43.8419433" lon="12.2290533"><ele>642.4000000000001</ele><time>2026-04-11T08:20:23.977Z</time></trkpt><trkpt lat="43.84185" lon="12.22906"><ele>642.2</ele><time>2026-04-11T08:20:24.977Z</time></trkpt><trkpt lat="43.84175" lon="12.2290667"><ele>642.0</ele><time>2026-04-11T08:20:25.977Z</time></trkpt><trkpt lat="43.8416317" lon="12.2290883"><ele>639.75</ele><time>2026-04-11T08:20:26.977Z</time></trkpt><trkpt lat="43.841515" lon="12.2291017"><ele>637.5</ele><time>2026-04-11T08:20:27.977Z</time></trkpt><trkpt lat="43.8413983" lon="12.2291033"><ele>635.25</ele><time>2026-04-11T08:20:28.977Z</time></trkpt><trkpt lat="43.841275" lon="12.2291233"><ele>633.0</ele><time>2026-04-11T08:20:29.977Z</time></trkpt><trkpt lat="43.8411467" lon="12.2291567"><ele>633.0</ele><time>2026-04-11T08:20:30.977Z</time></trkpt><trkpt lat="43.8410267" lon="12.229185"><ele>633.0</ele><time>2026-04-11T08:20:31.978Z</time></trkpt><trkpt lat="43.8409167" lon="12.229195"><ele>633.0</ele><time>2026-04-11T08:20:32.977Z</time></trkpt><trkpt lat="43.8408067" lon="12.2291867"><ele>633.0</ele><time>2026-04-11T08:20:33.977Z</time></trkpt><trkpt lat="43.8407033" lon="12.229165"><ele>633.0</ele><time>2026-04-11T08:20:34.978Z</time></trkpt><trkpt lat="43.8405983" lon="12.229135"><ele>631.8</ele><time>2026-04-11T08:20:35.977Z</time></trkpt><trkpt lat="43.8404883" lon="12.2291133"><ele>630.5999999999999</ele><time>2026-04-11T08:20:36.977Z</time></trkpt><trkpt lat="43.8403867" lon="12.2291183"><ele>629.4000000000001</ele><time>2026-04-11T08:20:37.978Z</time></trkpt><trkpt lat="43.8402967" lon="12.2291433"><ele>628.2</ele><time>2026-04-11T08:20:38.977Z</time></trkpt><trkpt lat="43.8402317" lon="12.229205"><ele>627.0</ele><time>2026-04-11T08:20:39.978Z</time></trkpt><trkpt lat="43.840175" lon="12.2292867"><ele>624.6666666666666</ele><time>2026-04-11T08:20:40.977Z</time></trkpt><trkpt lat="43.840115" lon="12.229375"><ele>622.3333333333334</ele><time>2026-04-11T08:20:41.977Z</time></trkpt><trkpt lat="43.840065" lon="12.2294333"><ele>620.0</ele><time>2026-04-11T08:20:42.977Z</time></trkpt><trkpt lat="43.839975" lon="12.2293567"><ele>617.6666666666667</ele><time>2026-04-11T08:20:44.977Z</time></trkpt><trkpt lat="43.83995" lon="12.2292683"><ele>615.3333333333334</ele><time>2026-04-11T08:20:45.977Z</time></trkpt><trkpt lat="43.8399383" lon="12.229155"><ele>613.0</ele><time>2026-04-11T08:20:46.977Z</time></trkpt><trkpt lat="43.8399367" lon="12.2290183"><ele>612.1999999999999</ele><time>2026-04-11T08:20:47.977Z</time></trkpt><trkpt lat="43.839925" lon="12.2288683"><ele>611.4</ele><time>2026-04-11T08:20:48.977Z</time></trkpt><trkpt lat="43.8399183" lon="12.2287133"><ele>610.5999999999999</ele><time>2026-04-11T08:20:49.977Z</time></trkpt><trkpt lat="43.8399367" lon="12.228565"><ele>609.8</ele><time>2026-04-11T08:20:50.977Z</time></trkpt><trkpt lat="43.8399383" lon="12.22845"><ele>609.0</ele><time>2026-04-11T08:20:51.977Z</time></trkpt><trkpt lat="43.8399117" lon="12.2283567"><ele>609.0</ele><time>2026-04-11T08:20:52.977Z</time></trkpt><trkpt lat="43.8398667" lon="12.2282817"><ele>609.0</ele><time>2026-04-11T08:20:53.978Z</time></trkpt><trkpt lat="43.839785" lon="12.2282667"><ele>609.0</ele><time>2026-04-11T08:20:54.977Z</time></trkpt><trkpt lat="43.8397133" lon="12.2282967"><ele>609.0</ele><time>2026-04-11T08:20:55.977Z</time></trkpt><trkpt lat="43.839645" lon="12.2283483"><ele>609.0</ele><time>2026-04-11T08:20:56.977Z</time></trkpt><trkpt lat="43.8395783" lon="12.22842"><ele>609.0</ele><time>2026-04-11T08:20:57.977Z</time></trkpt><trkpt lat="43.83952" lon="12.22847"><ele>609.0</ele><time>2026-04-11T08:20:58.977Z</time></trkpt><trkpt lat="43.83939" lon="12.22845"><ele>609.0</ele><time>2026-04-11T08:21:00.977Z</time></trkpt><trkpt lat="43.8393083" lon="12.228385"><ele>609.0</ele><time>2026-04-11T08:21:01.977Z</time></trkpt><trkpt lat="43.8392217" lon="12.228305"><ele>609.0</ele><time>2026-04-11T08:21:02.977Z</time></trkpt><trkpt lat="43.83913" lon="12.228225"><ele>609.0</ele><time>2026-04-11T08:21:03.977Z</time></trkpt><trkpt lat="43.8390267" lon="12.2281467"><ele>603.8</ele><time>2026-04-11T08:21:04.977Z</time></trkpt><trkpt lat="43.8389333" lon="12.2280733"><ele>598.5999999999999</ele><time>2026-04-11T08:21:05.977Z</time></trkpt><trkpt lat="43.83884" lon="12.2280217"><ele>593.4</ele><time>2026-04-11T08:21:06.977Z</time></trkpt><trkpt lat="43.8387467" lon="12.227985"><ele>588.1999999999999</ele><time>2026-04-11T08:21:07.977Z</time></trkpt><trkpt lat="43.838645" lon="12.22798"><ele>583.0</ele><time>2026-04-11T08:21:08.977Z</time></trkpt><trkpt lat="43.83855" lon="12.2279967"><ele>582.25</ele><time>2026-04-11T08:21:09.978Z</time></trkpt><trkpt lat="43.8384517" lon="12.2280433"><ele>581.5</ele><time>2026-04-11T08:21:10.977Z</time></trkpt><trkpt lat="43.8383483" lon="12.2281067"><ele>580.75</ele><time>2026-04-11T08:21:11.978Z</time></trkpt><trkpt lat="43.8382367" lon="12.2281767"><ele>580.0</ele><time>2026-04-11T08:21:12.978Z</time></trkpt><trkpt lat="43.83812" lon="12.228255"><ele>581.5</ele><time>2026-04-11T08:21:13.977Z</time></trkpt><trkpt lat="43.837995" lon="12.2283217"><ele>583.0</ele><time>2026-04-11T08:21:14.978Z</time></trkpt><trkpt lat="43.837865" lon="12.2284"><ele>584.5</ele><time>2026-04-11T08:21:15.977Z</time></trkpt><trkpt lat="43.837745" lon="12.22847"><ele>586.0</ele><time>2026-04-11T08:21:16.977Z</time></trkpt><trkpt lat="43.8376183" lon="12.2285383"><ele>583.0</ele><time>2026-04-11T08:21:17.977Z</time></trkpt><trkpt lat="43.837495" lon="12.228595"><ele>580.0</ele><time>2026-04-11T08:21:18.977Z</time></trkpt><trkpt lat="43.837375" lon="12.22863"><ele>577.0</ele><time>2026-04-11T08:21:19.977Z</time></trkpt><trkpt lat="43.8372567" lon="12.22864"><ele>574.0</ele><time>2026-04-11T08:21:20.977Z</time></trkpt><trkpt lat="43.8371517" lon="12.228625"><ele>574.0</ele><time>2026-04-11T08:21:21.977Z</time></trkpt><trkpt lat="43.837055" lon="12.228585"><ele>574.0</ele><time>2026-04-11T08:21:22.978Z</time></trkpt><trkpt lat="43.8369583" lon="12.2285083"><ele>574.0</ele><time>2026-04-11T08:21:23.977Z</time></trkpt><trkpt lat="43.8368667" lon="12.2284167"><ele>574.0</ele><time>2026-04-11T08:21:24.977Z</time></trkpt><trkpt lat="43.8367883" lon="12.2283483"><ele>574.0</ele><time>2026-04-11T08:21:25.977Z</time></trkpt><trkpt lat="43.8367067" lon="12.22834"><ele>572.0</ele><time>2026-04-11T08:21:26.977Z</time></trkpt><trkpt lat="43.836625" lon="12.2283567"><ele>570.0</ele><time>2026-04-11T08:21:27.977Z</time></trkpt><trkpt lat="43.83655" lon="12.2284083"><ele>568.0</ele><time>2026-04-11T08:21:28.978Z</time></trkpt><trkpt lat="43.83651" lon="12.2285733"><ele>566.0</ele><time>2026-04-11T08:21:30.977Z</time></trkpt><trkpt lat="43.83652" lon="12.2286733"><ele>564.0</ele><time>2026-04-11T08:21:31.977Z</time></trkpt><trkpt lat="43.8365467" lon="12.2287733"><ele>562.0</ele><time>2026-04-11T08:21:32.978Z</time></trkpt><trkpt lat="43.8365633" lon="12.228875"><ele>562.0</ele><time>2026-04-11T08:21:33.977Z</time></trkpt><trkpt lat="43.836585" lon="12.22897"><ele>562.0</ele><time>2026-04-11T08:21:34.978Z</time></trkpt><trkpt lat="43.8365433" lon="12.229075"><ele>562.0</ele><time>2026-04-11T08:21:36.977Z</time></trkpt><trkpt lat="43.8364217" lon="12.2290117"><ele>562.0</ele><time>2026-04-11T08:21:38.977Z</time></trkpt><trkpt lat="43.8363567" lon="12.228925"><ele>562.0</ele><time>2026-04-11T08:21:39.977Z</time></trkpt><trkpt lat="43.8362967" lon="12.2288217"><ele>562.0</ele><time>2026-04-11T08:21:40.977Z</time></trkpt><trkpt lat="43.8362333" lon="12.22871"><ele>562.0</ele><time>2026-04-11T08:21:41.977Z</time></trkpt><trkpt lat="43.8361717" lon="12.2286233"><ele>562.0</ele><time>2026-04-11T08:21:42.977Z</time></trkpt><trkpt lat="43.836105" lon="12.2285617"><ele>562.0</ele><time>2026-04-11T08:21:43.977Z</time></trkpt><trkpt lat="43.8360383" lon="12.2285717"><ele>562.0</ele><time>2026-04-11T08:21:44.977Z</time></trkpt><trkpt lat="43.8359717" lon="12.22875"><ele>562.2</ele><time>2026-04-11T08:21:46.977Z</time></trkpt><trkpt lat="43.8359533" lon="12.2288817"><ele>562.4000000000001</ele><time>2026-04-11T08:21:47.977Z</time></trkpt><trkpt lat="43.835955" lon="12.2290333"><ele>562.5999999999999</ele><time>2026-04-11T08:21:48.977Z</time></trkpt><trkpt lat="43.83597" lon="12.229185"><ele>562.8</ele><time>2026-04-11T08:21:49.978Z</time></trkpt><trkpt lat="43.8360083" lon="12.2293283"><ele>563.0</ele><time>2026-04-11T08:21:50.977Z</time></trkpt><trkpt lat="43.8360417" lon="12.2294867"><ele>563.0</ele><time>2026-04-11T08:21:51.977Z</time></trkpt><trkpt lat="43.8360683" lon="12.2296533"><ele>563.0</ele><time>2026-04-11T08:21:52.977Z</time></trkpt><trkpt lat="43.8360767" lon="12.229835"><ele>563.0</ele><time>2026-04-11T08:21:53.977Z</time></trkpt><trkpt lat="43.8360767" lon="12.2300067"><ele>563.0</ele><time>2026-04-11T08:21:54.977Z</time></trkpt><trkpt lat="43.8360767" lon="12.2301533"><ele>560.1666666666666</ele><time>2026-04-11T08:21:55.977Z</time></trkpt><trkpt lat="43.8360833" lon="12.230295"><ele>557.3333333333333</ele><time>2026-04-11T08:21:56.977Z</time></trkpt><trkpt lat="43.8360883" lon="12.2304167"><ele>554.5</ele><time>2026-04-11T08:21:57.977Z</time></trkpt><trkpt lat="43.8360867" lon="12.2305233"><ele>551.6666666666666</ele><time>2026-04-11T08:21:58.978Z</time></trkpt><trkpt lat="43.8360733" lon="12.2306267"><ele>548.8333333333334</ele><time>2026-04-11T08:21:59.977Z</time></trkpt><trkpt lat="43.836045" lon="12.2307333"><ele>546.0</ele><time>2026-04-11T08:22:00.977Z</time></trkpt><trkpt lat="43.8359967" lon="12.230815"><ele>544.8333333333334</ele><time>2026-04-11T08:22:01.977Z</time></trkpt><trkpt lat="43.8359433" lon="12.23087"><ele>543.6666666666666</ele><time>2026-04-11T08:22:02.977Z</time></trkpt><trkpt lat="43.83583" lon="12.230875"><ele>542.5</ele><time>2026-04-11T08:22:04.977Z</time></trkpt><trkpt lat="43.835765" lon="12.2308367"><ele>541.3333333333333</ele><time>2026-04-11T08:22:05.977Z</time></trkpt><trkpt lat="43.8356967" lon="12.2307783"><ele>540.1666666666666</ele><time>2026-04-11T08:22:06.977Z</time></trkpt><trkpt lat="43.835625" lon="12.2307"><ele>539.0</ele><time>2026-04-11T08:22:07.977Z</time></trkpt><trkpt lat="43.835555" lon="12.2306117"><ele>539.0</ele><time>2026-04-11T08:22:08.977Z</time></trkpt><trkpt lat="43.8354767" lon="12.2305017"><ele>539.0</ele><time>2026-04-11T08:22:09.978Z</time></trkpt><trkpt lat="43.8354" lon="12.2303867"><ele>539.0</ele><time>2026-04-11T08:22:10.977Z</time></trkpt><trkpt lat="43.8353317" lon="12.23031"><ele>539.0</ele><time>2026-04-11T08:22:11.977Z</time></trkpt><trkpt lat="43.835265" lon="12.2302717"><ele>539.0</ele><time>2026-04-11T08:22:12.977Z</time></trkpt><trkpt lat="43.8351783" lon="12.230275"><ele>536.2</ele><time>2026-04-11T08:22:13.977Z</time></trkpt><trkpt lat="43.835085" lon="12.2303133"><ele>533.4</ele><time>2026-04-11T08:22:14.977Z</time></trkpt><trkpt lat="43.8349917" lon="12.2303917"><ele>530.6</ele><time>2026-04-11T08:22:15.977Z</time></trkpt><trkpt lat="43.83489" lon="12.2304617"><ele>527.8</ele><time>2026-04-11T08:22:16.977Z</time></trkpt><trkpt lat="43.83478" lon="12.2305267"><ele>525.0</ele><time>2026-04-11T08:22:17.977Z</time></trkpt><trkpt lat="43.8346667" lon="12.2305717"><ele>525.0</ele><time>2026-04-11T08:22:18.978Z</time></trkpt><trkpt lat="43.8345533" lon="12.2306017"><ele>525.0</ele><time>2026-04-11T08:22:19.977Z</time></trkpt><trkpt lat="43.8344317" lon="12.2306317"><ele>525.0</ele><time>2026-04-11T08:22:20.977Z</time></trkpt><trkpt lat="43.8343033" lon="12.2306467"><ele>525.0</ele><time>2026-04-11T08:22:21.977Z</time></trkpt><trkpt lat="43.8341833" lon="12.2306583"><ele>520.5</ele><time>2026-04-11T08:22:22.978Z</time></trkpt><trkpt lat="43.8340567" lon="12.2306717"><ele>516.0</ele><time>2026-04-11T08:22:23.977Z</time></trkpt><trkpt lat="43.8339433" lon="12.230685"><ele>511.5</ele><time>2026-04-11T08:22:24.977Z</time></trkpt><trkpt lat="43.8338333" lon="12.2306967"><ele>507.0</ele><time>2026-04-11T08:22:25.978Z</time></trkpt><trkpt lat="43.8337233" lon="12.2307117"><ele>507.0</ele><time>2026-04-11T08:22:26.977Z</time></trkpt><trkpt lat="43.83362" lon="12.2307267"><ele>507.00000000000006</ele><time>2026-04-11T08:22:27.977Z</time></trkpt><trkpt lat="43.8335167" lon="12.2307417"><ele>507.00000000000006</ele><time>2026-04-11T08:22:28.977Z</time></trkpt><trkpt lat="43.8334117" lon="12.2307533"><ele>507.0</ele><time>2026-04-11T08:22:29.978Z</time></trkpt><trkpt lat="43.833305" lon="12.230775"><ele>507.0</ele><time>2026-04-11T08:22:30.977Z</time></trkpt><trkpt lat="43.8331983" lon="12.230815"><ele>504.20000000000005</ele><time>2026-04-11T08:22:31.977Z</time></trkpt><trkpt lat="43.8330933" lon="12.2308833"><ele>501.40000000000003</ele><time>2026-04-11T08:22:32.977Z</time></trkpt><trkpt lat="43.8329883" lon="12.2309433"><ele>498.59999999999997</ele><time>2026-04-11T08:22:33.977Z</time></trkpt><trkpt lat="43.83289" lon="12.23099"><ele>495.79999999999995</ele><time>2026-04-11T08:22:34.978Z</time></trkpt><trkpt lat="43.8327883" lon="12.2310117"><ele>493.0</ele><time>2026-04-11T08:22:35.977Z</time></trkpt><trkpt lat="43.832695" lon="12.2310133"><ele>491.33333333333337</ele><time>2026-04-11T08:22:36.978Z</time></trkpt><trkpt lat="43.8326217" lon="12.2310083"><ele>489.6666666666667</ele><time>2026-04-11T08:22:37.977Z</time></trkpt><trkpt lat="43.8325583" lon="12.2310517"><ele>488.0</ele><time>2026-04-11T08:22:38.977Z</time></trkpt><trkpt lat="43.8325167" lon="12.2311333"><ele>486.33333333333337</ele><time>2026-04-11T08:22:39.977Z</time></trkpt><trkpt lat="43.8325217" lon="12.231255"><ele>484.6666666666667</ele><time>2026-04-11T08:22:40.978Z</time></trkpt><trkpt lat="43.832535" lon="12.2314033"><ele>483.0</ele><time>2026-04-11T08:22:41.977Z</time></trkpt><trkpt lat="43.832555" lon="12.2315583"><ele>482.59999999999997</ele><time>2026-04-11T08:22:42.977Z</time></trkpt><trkpt lat="43.8325717" lon="12.2317083"><ele>482.19999999999993</ele><time>2026-04-11T08:22:43.977Z</time></trkpt><trkpt lat="43.8325883" lon="12.2318333"><ele>481.8</ele><time>2026-04-11T08:22:44.977Z</time></trkpt><trkpt lat="43.8325967" lon="12.23193"><ele>481.4</ele><time>2026-04-11T08:22:45.978Z</time></trkpt><trkpt lat="43.8326017" lon="12.2320683"><ele>481.0</ele><time>2026-04-11T08:22:47.977Z</time></trkpt><trkpt lat="43.832535" lon="12.2321317"><ele>481.00000000000006</ele><time>2026-04-11T08:22:51.978Z</time></trkpt><trkpt lat="43.83245" lon="12.23209"><ele>481.0</ele><time>2026-04-11T08:22:53.978Z</time></trkpt><trkpt lat="43.8323833" lon="12.232045"><ele>481.0</ele><time>2026-04-11T08:22:54.977Z</time></trkpt><trkpt lat="43.832305" lon="12.2320067"><ele>481.0</ele><time>2026-04-11T08:22:55.977Z</time></trkpt><trkpt lat="43.8322183" lon="12.2319883"><ele>481.00000000000006</ele><time>2026-04-11T08:22:56.978Z</time></trkpt><trkpt lat="43.8321267" lon="12.2320033"><ele>481.0</ele><time>2026-04-11T08:22:57.977Z</time></trkpt><trkpt lat="43.832055" lon="12.232075"><ele>481.0</ele><time>2026-04-11T08:22:58.978Z</time></trkpt><trkpt lat="43.832005" lon="12.23218"><ele>481.0</ele><time>2026-04-11T08:22:59.977Z</time></trkpt><trkpt lat="43.8319783" lon="12.2323167"><ele>481.0</ele><time>2026-04-11T08:23:00.978Z</time></trkpt><trkpt lat="43.8319767" lon="12.232485"><ele>481.0</ele><time>2026-04-11T08:23:01.977Z</time></trkpt><trkpt lat="43.83197" lon="12.232655"><ele>481.0</ele><time>2026-04-11T08:23:02.977Z</time></trkpt><trkpt lat="43.8319717" lon="12.2328133"><ele>479.8</ele><time>2026-04-11T08:23:03.977Z</time></trkpt><trkpt lat="43.8319667" lon="12.2329667"><ele>478.6</ele><time>2026-04-11T08:23:04.977Z</time></trkpt><trkpt lat="43.8319517" lon="12.233115"><ele>477.4</ele><time>2026-04-11T08:23:05.977Z</time></trkpt><trkpt lat="43.8319317" lon="12.2332567"><ele>476.2</ele><time>2026-04-11T08:23:06.977Z</time></trkpt><trkpt lat="43.8319083" lon="12.2333783"><ele>475.0</ele><time>2026-04-11T08:23:07.977Z</time></trkpt><trkpt lat="43.8318633" lon="12.23348"><ele>472.0</ele><time>2026-04-11T08:23:08.977Z</time></trkpt><trkpt lat="43.83178" lon="12.2335717"><ele>469.0</ele><time>2026-04-11T08:23:09.977Z</time></trkpt><trkpt lat="43.8316767" lon="12.2336517"><ele>466.0</ele><time>2026-04-11T08:23:10.977Z</time></trkpt><trkpt lat="43.83156" lon="12.2337467"><ele>463.0</ele><time>2026-04-11T08:23:11.977Z</time></trkpt><trkpt lat="43.8314283" lon="12.233845"><ele>463.0</ele><time>2026-04-11T08:23:12.977Z</time></trkpt><trkpt lat="43.8313033" lon="12.2339533"><ele>463.0</ele><time>2026-04-11T08:23:13.977Z</time></trkpt><trkpt lat="43.8311733" lon="12.234065"><ele>463.0</ele><time>2026-04-11T08:23:14.977Z</time></trkpt><trkpt lat="43.831045" lon="12.2341733"><ele>459.75</ele><time>2026-04-11T08:23:15.978Z</time></trkpt><trkpt lat="43.8309183" lon="12.2342767"><ele>456.5</ele><time>2026-04-11T08:23:16.977Z</time></trkpt><trkpt lat="43.8308" lon="12.2343883"><ele>453.25</ele><time>2026-04-11T08:23:17.977Z</time></trkpt><trkpt lat="43.8306867" lon="12.2345"><ele>450.0</ele><time>2026-04-11T08:23:18.978Z</time></trkpt><trkpt lat="43.8305733" lon="12.2346067"><ele>450.0</ele><time>2026-04-11T08:23:19.977Z</time></trkpt><trkpt lat="43.8304633" lon="12.2347233"><ele>450.0</ele><time>2026-04-11T08:23:20.977Z</time></trkpt><trkpt lat="43.83036" lon="12.23483"><ele>450.0</ele><time>2026-04-11T08:23:21.978Z</time></trkpt><trkpt lat="43.8302467" lon="12.2349417"><ele>450.0</ele><time>2026-04-11T08:23:22.977Z</time></trkpt><trkpt lat="43.8301367" lon="12.2350367"><ele>446.75</ele><time>2026-04-11T08:23:23.977Z</time></trkpt><trkpt lat="43.830025" lon="12.23513"><ele>443.5</ele><time>2026-04-11T08:23:24.977Z</time></trkpt><trkpt lat="43.8299117" lon="12.2352117"><ele>440.25</ele><time>2026-04-11T08:23:25.977Z</time></trkpt><trkpt lat="43.8298067" lon="12.2352933"><ele>437.0</ele><time>2026-04-11T08:23:26.977Z</time></trkpt><trkpt lat="43.829695" lon="12.23538"><ele>437.0</ele><time>2026-04-11T08:23:27.977Z</time></trkpt><trkpt lat="43.82959" lon="12.23546"><ele>437.0</ele><time>2026-04-11T08:23:28.977Z</time></trkpt><trkpt lat="43.82948" lon="12.2355583"><ele>437.0</ele><time>2026-04-11T08:23:29.977Z</time></trkpt><trkpt lat="43.82937" lon="12.2356383"><ele>437.0</ele><time>2026-04-11T08:23:30.977Z</time></trkpt><trkpt lat="43.829265" lon="12.2356967"><ele>434.6</ele><time>2026-04-11T08:23:31.978Z</time></trkpt><trkpt lat="43.829175" lon="12.235715"><ele>432.20000000000005</ele><time>2026-04-11T08:23:32.977Z</time></trkpt><trkpt lat="43.8290983" lon="12.2356567"><ele>429.8</ele><time>2026-04-11T08:23:33.977Z</time></trkpt><trkpt lat="43.82904" lon="12.2355417"><ele>427.4</ele><time>2026-04-11T08:23:34.977Z</time></trkpt><trkpt lat="43.8289983" lon="12.2353883"><ele>425.0</ele><time>2026-04-11T08:23:35.977Z</time></trkpt><trkpt lat="43.8289633" lon="12.2351967"><ele>425.0</ele><time>2026-04-11T08:23:36.977Z</time></trkpt><trkpt lat="43.82893" lon="12.235"><ele>425.0</ele><time>2026-04-11T08:23:37.978Z</time></trkpt><trkpt lat="43.8289017" lon="12.2347933"><ele>425.0</ele><time>2026-04-11T08:23:38.977Z</time></trkpt><trkpt lat="43.8288567" lon="12.2345933"><ele>425.0</ele><time>2026-04-11T08:23:39.978Z</time></trkpt><trkpt lat="43.828805" lon="12.23439"><ele>425.25</ele><time>2026-04-11T08:23:40.977Z</time></trkpt><trkpt lat="43.8287533" lon="12.2341867"><ele>425.5</ele><time>2026-04-11T08:23:41.977Z</time></trkpt><trkpt lat="43.8286867" lon="12.2340133"><ele>425.75</ele><time>2026-04-11T08:23:42.977Z</time></trkpt><trkpt lat="43.8286183" lon="12.2338467"><ele>426.0</ele><time>2026-04-11T08:23:43.977Z</time></trkpt><trkpt lat="43.8285183" lon="12.2337183"><ele>422.0</ele><time>2026-04-11T08:23:44.977Z</time></trkpt><trkpt lat="43.8283917" lon="12.2336233"><ele>418.0</ele><time>2026-04-11T08:23:45.977Z</time></trkpt><trkpt lat="43.8282567" lon="12.23355"><ele>414.0</ele><time>2026-04-11T08:23:46.977Z</time></trkpt><trkpt lat="43.828085" lon="12.2334933"><ele>414.0</ele><time>2026-04-11T08:23:47.977Z</time></trkpt><trkpt lat="43.8279133" lon="12.2334567"><ele>414.0</ele><time>2026-04-11T08:23:48.977Z</time></trkpt><trkpt lat="43.827725" lon="12.233455"><ele>414.0</ele><time>2026-04-11T08:23:49.977Z</time></trkpt><trkpt lat="43.8275483" lon="12.2334617"><ele>411.66666666666663</ele><time>2026-04-11T08:23:50.977Z</time></trkpt><trkpt lat="43.82736" lon="12.233485"><ele>409.3333333333333</ele><time>2026-04-11T08:23:51.977Z</time></trkpt><trkpt lat="43.827185" lon="12.2335167"><ele>407.0</ele><time>2026-04-11T08:23:52.977Z</time></trkpt><trkpt lat="43.8270217" lon="12.2335483"><ele>407.0</ele><time>2026-04-11T08:23:53.978Z</time></trkpt><trkpt lat="43.8268667" lon="12.233575"><ele>407.0</ele><time>2026-04-11T08:23:54.977Z</time></trkpt><trkpt lat="43.8267133" lon="12.2336117"><ele>407.0</ele><time>2026-04-11T08:23:55.977Z</time></trkpt><trkpt lat="43.8265567" lon="12.2336633"><ele>404.66666666666663</ele><time>2026-04-11T08:23:56.977Z</time></trkpt><trkpt lat="43.8264033" lon="12.2337333"><ele>402.33333333333337</ele><time>2026-04-11T08:23:57.977Z</time></trkpt><trkpt lat="43.82625" lon="12.2337883"><ele>400.0</ele><time>2026-04-11T08:23:58.977Z</time></trkpt><trkpt lat="43.8260983" lon="12.2338067"><ele>398.0</ele><time>2026-04-11T08:23:59.978Z</time></trkpt><trkpt lat="43.8259533" lon="12.2337983"><ele>396.0</ele><time>2026-04-11T08:24:00.978Z</time></trkpt><trkpt lat="43.8258183" lon="12.233745"><ele>394.0</ele><time>2026-04-11T08:24:01.977Z</time></trkpt><trkpt lat="43.825675" lon="12.2337017"><ele>392.0</ele><time>2026-04-11T08:24:02.977Z</time></trkpt><trkpt lat="43.8255217" lon="12.2336517"><ele>392.0</ele><time>2026-04-11T08:24:03.976Z</time></trkpt><trkpt lat="43.8253967" lon="12.2335917"><ele>392.0</ele><time>2026-04-11T08:24:04.976Z</time></trkpt><trkpt lat="43.8252817" lon="12.2335183"><ele>392.0</ele><time>2026-04-11T08:24:05.976Z</time></trkpt><trkpt lat="43.825175" lon="12.2334567"><ele>392.0</ele><time>2026-04-11T08:24:06.976Z</time></trkpt><trkpt lat="43.8250783" lon="12.2334233"><ele>390.25</ele><time>2026-04-11T08:24:07.976Z</time></trkpt><trkpt lat="43.8249767" lon="12.2334167"><ele>388.5</ele><time>2026-04-11T08:24:08.976Z</time></trkpt><trkpt lat="43.8248667" lon="12.2334383"><ele>386.75</ele><time>2026-04-11T08:24:09.976Z</time></trkpt><trkpt lat="43.82475" lon="12.2334933"><ele>385.0</ele><time>2026-04-11T08:24:10.977Z</time></trkpt><trkpt lat="43.8246217" lon="12.2335483"><ele>385.0</ele><time>2026-04-11T08:24:11.977Z</time></trkpt><trkpt lat="43.8245067" lon="12.23363"><ele>385.0</ele><time>2026-04-11T08:24:12.976Z</time></trkpt><trkpt lat="43.824405" lon="12.2337183"><ele>385.0</ele><time>2026-04-11T08:24:13.976Z</time></trkpt><trkpt lat="43.8243267" lon="12.233815"><ele>385.0</ele><time>2026-04-11T08:24:14.976Z</time></trkpt><trkpt lat="43.8242683" lon="12.2339467"><ele>383.0</ele><time>2026-04-11T08:24:15.976Z</time></trkpt><trkpt lat="43.8242083" lon="12.23405"><ele>381.0</ele><time>2026-04-11T08:24:16.976Z</time></trkpt><trkpt lat="43.8241283" lon="12.2341233"><ele>379.0</ele><time>2026-04-11T08:24:17.976Z</time></trkpt><trkpt lat="43.8240317" lon="12.23413"><ele>377.0</ele><time>2026-04-11T08:24:18.976Z</time></trkpt><trkpt lat="43.8239283" lon="12.2340967"><ele>375.0</ele><time>2026-04-11T08:24:19.976Z</time></trkpt><trkpt lat="43.8238433" lon="12.2340433"><ele>375.0</ele><time>2026-04-11T08:24:20.976Z</time></trkpt><trkpt lat="43.8237783" lon="12.2339733"><ele>375.0</ele><time>2026-04-11T08:24:21.976Z</time></trkpt><trkpt lat="43.8237217" lon="12.2338983"><ele>375.0</ele><time>2026-04-11T08:24:22.976Z</time></trkpt><trkpt lat="43.8236967" lon="12.233775"><ele>375.0</ele><time>2026-04-11T08:24:23.976Z</time></trkpt><trkpt lat="43.8236833" lon="12.2336467"><ele>375.0</ele><time>2026-04-11T08:24:24.977Z</time></trkpt><trkpt lat="43.823645" lon="12.2335233"><ele>375.0</ele><time>2026-04-11T08:24:25.976Z</time></trkpt><trkpt lat="43.823575" lon="12.2334367"><ele>374.6</ele><time>2026-04-11T08:24:26.977Z</time></trkpt><trkpt lat="43.8234883" lon="12.2333833"><ele>374.2</ele><time>2026-04-11T08:24:27.976Z</time></trkpt><trkpt lat="43.8233917" lon="12.2333833"><ele>373.79999999999995</ele><time>2026-04-11T08:24:28.976Z</time></trkpt><trkpt lat="43.823295" lon="12.233445"><ele>373.4</ele><time>2026-04-11T08:24:29.976Z</time></trkpt><trkpt lat="43.823215" lon="12.2335267"><ele>373.0</ele><time>2026-04-11T08:24:30.976Z</time></trkpt><trkpt lat="43.8231567" lon="12.2336383"><ele>371.4</ele><time>2026-04-11T08:24:31.977Z</time></trkpt><trkpt lat="43.823115" lon="12.2337717"><ele>369.79999999999995</ele><time>2026-04-11T08:24:32.976Z</time></trkpt><trkpt lat="43.8230683" lon="12.2338933"><ele>368.2</ele><time>2026-04-11T08:24:33.976Z</time></trkpt><trkpt lat="43.8229867" lon="12.2339767"><ele>366.6</ele><time>2026-04-11T08:24:34.976Z</time></trkpt><trkpt lat="43.8228783" lon="12.2340133"><ele>365.0</ele><time>2026-04-11T08:24:35.976Z</time></trkpt><trkpt lat="43.8227617" lon="12.23399"><ele>362.25</ele><time>2026-04-11T08:24:36.976Z</time></trkpt><trkpt lat="43.822635" lon="12.2339083"><ele>359.5</ele><time>2026-04-11T08:24:37.976Z</time></trkpt><trkpt lat="43.8225117" lon="12.2338183"><ele>356.75</ele><time>2026-04-11T08:24:38.976Z</time></trkpt><trkpt lat="43.822395" lon="12.2337117"><ele>354.0</ele><time>2026-04-11T08:24:39.976Z</time></trkpt><trkpt lat="43.8222783" lon="12.2336033"><ele>354.0</ele><time>2026-04-11T08:24:40.976Z</time></trkpt><trkpt lat="43.8221733" lon="12.233475"><ele>354.0</ele><time>2026-04-11T08:24:41.977Z</time></trkpt><trkpt lat="43.8220733" lon="12.2333483"><ele>354.0</ele><time>2026-04-11T08:24:42.976Z</time></trkpt><trkpt lat="43.8219733" lon="12.2332267"><ele>354.0</ele><time>2026-04-11T08:24:43.976Z</time></trkpt><trkpt lat="43.8218733" lon="12.2331067"><ele>355.0</ele><time>2026-04-11T08:24:44.976Z</time></trkpt><trkpt lat="43.821775" lon="12.2329917"><ele>356.0</ele><time>2026-04-11T08:24:45.976Z</time></trkpt><trkpt lat="43.82169" lon="12.2328683"><ele>357.0</ele><time>2026-04-11T08:24:46.976Z</time></trkpt><trkpt lat="43.8216067" lon="12.2327667"><ele>358.0</ele><time>2026-04-11T08:24:47.976Z</time></trkpt><trkpt lat="43.8215317" lon="12.2326833"><ele>358.0</ele><time>2026-04-11T08:24:48.977Z</time></trkpt><trkpt lat="43.82147" lon="12.23261"><ele>358.0</ele><time>2026-04-11T08:24:49.976Z</time></trkpt><trkpt lat="43.8214183" lon="12.2325383"><ele>358.0</ele><time>2026-04-11T08:24:50.977Z</time></trkpt><trkpt lat="43.821365" lon="12.2324583"><ele>358.0</ele><time>2026-04-11T08:24:52.976Z</time></trkpt><trkpt lat="43.82129" lon="12.232345"><ele>358.0</ele><time>2026-04-11T08:25:17.976Z</time></trkpt><trkpt lat="43.82125" lon="12.232265"><ele>358.0</ele><time>2026-04-11T08:25:18.977Z</time></trkpt><trkpt lat="43.8212" lon="12.2321667"><ele>359.25</ele><time>2026-04-11T08:25:19.976Z</time></trkpt><trkpt lat="43.821135" lon="12.2320567"><ele>360.5</ele><time>2026-04-11T08:25:20.976Z</time></trkpt><trkpt lat="43.8210567" lon="12.2319417"><ele>361.75</ele><time>2026-04-11T08:25:21.976Z</time></trkpt><trkpt lat="43.820965" lon="12.2318283"><ele>363.0</ele><time>2026-04-11T08:25:22.977Z</time></trkpt><trkpt lat="43.8208667" lon="12.2317067"><ele>361.75</ele><time>2026-04-11T08:25:23.976Z</time></trkpt><trkpt lat="43.8207683" lon="12.23157"><ele>360.5</ele><time>2026-04-11T08:25:24.976Z</time></trkpt><trkpt lat="43.8206717" lon="12.2314333"><ele>359.25</ele><time>2026-04-11T08:25:25.976Z</time></trkpt><trkpt lat="43.8205767" lon="12.231285"><ele>358.0</ele><time>2026-04-11T08:25:26.977Z</time></trkpt><trkpt lat="43.8204733" lon="12.2311433"><ele>358.0</ele><time>2026-04-11T08:25:27.977Z</time></trkpt><trkpt lat="43.82038" lon="12.2310033"><ele>358.0</ele><time>2026-04-11T08:25:28.976Z</time></trkpt><trkpt lat="43.8202883" lon="12.2308683"><ele>358.0</ele><time>2026-04-11T08:25:29.976Z</time></trkpt><trkpt lat="43.8202" lon="12.230735"><ele>358.0</ele><time>2026-04-11T08:25:30.977Z</time></trkpt><trkpt lat="43.820115" lon="12.2306133"><ele>357.5</ele><time>2026-04-11T08:25:31.976Z</time></trkpt><trkpt lat="43.8200483" lon="12.2305117"><ele>357.0</ele><time>2026-04-11T08:25:32.976Z</time></trkpt><trkpt lat="43.8199867" lon="12.2304233"><ele>356.5</ele><time>2026-04-11T08:25:33.976Z</time></trkpt><trkpt lat="43.8199317" lon="12.2303317"><ele>356.0</ele><time>2026-04-11T08:25:34.976Z</time></trkpt><trkpt lat="43.8198817" lon="12.23025"><ele>355.5</ele><time>2026-04-11T08:25:35.976Z</time></trkpt><trkpt lat="43.8198333" lon="12.2301717"><ele>355.0</ele><time>2026-04-11T08:25:36.977Z</time></trkpt><trkpt lat="43.8197917" lon="12.2300783"><ele>355.0</ele><time>2026-04-11T08:25:37.976Z</time></trkpt><trkpt lat="43.81976" lon="12.229975"><ele>355.0</ele><time>2026-04-11T08:25:38.976Z</time></trkpt><trkpt lat="43.8197333" lon="12.22987"><ele>355.0</ele><time>2026-04-11T08:25:39.976Z</time></trkpt><trkpt lat="43.8197167" lon="12.22975"><ele>355.0</ele><time>2026-04-11T08:25:40.976Z</time></trkpt><trkpt lat="43.8197083" lon="12.22961"><ele>355.0</ele><time>2026-04-11T08:25:41.976Z</time></trkpt><trkpt lat="43.8197" lon="12.2294733"><ele>355.3333333333333</ele><time>2026-04-11T08:25:42.976Z</time></trkpt><trkpt lat="43.8197067" lon="12.229345"><ele>355.66666666666663</ele><time>2026-04-11T08:25:43.976Z</time></trkpt><trkpt lat="43.819715" lon="12.2292367"><ele>356.0</ele><time>2026-04-11T08:25:44.976Z</time></trkpt><trkpt lat="43.81973" lon="12.2291317"><ele>356.3333333333333</ele><time>2026-04-11T08:25:45.976Z</time></trkpt><trkpt lat="43.819765" lon="12.2290417"><ele>356.6666666666667</ele><time>2026-04-11T08:25:46.976Z</time></trkpt><trkpt lat="43.8198183" lon="12.22895"><ele>357.0</ele><time>2026-04-11T08:25:47.976Z</time></trkpt><trkpt lat="43.8198917" lon="12.2288583"><ele>357.5</ele><time>2026-04-11T08:25:48.977Z</time></trkpt><trkpt lat="43.8199867" lon="12.228775"><ele>358.0</ele><time>2026-04-11T08:25:49.976Z</time></trkpt><trkpt lat="43.8200983" lon="12.22869"><ele>358.5</ele><time>2026-04-11T08:25:50.977Z</time></trkpt><trkpt lat="43.8202283" lon="12.2286183"><ele>359.0</ele><time>2026-04-11T08:25:51.976Z</time></trkpt><trkpt lat="43.8203617" lon="12.22857"><ele>361.5</ele><time>2026-04-11T08:25:52.976Z</time></trkpt><trkpt lat="43.8205017" lon="12.2285283"><ele>364.0</ele><time>2026-04-11T08:25:53.976Z</time></trkpt><trkpt lat="43.8206283" lon="12.2284883"><ele>366.5</ele><time>2026-04-11T08:25:54.976Z</time></trkpt><trkpt lat="43.82073" lon="12.228395"><ele>369.0</ele><time>2026-04-11T08:25:55.976Z</time></trkpt><trkpt lat="43.820795" lon="12.2282567"><ele>369.75</ele><time>2026-04-11T08:25:56.976Z</time></trkpt><trkpt lat="43.8208183" lon="12.22809"><ele>370.5</ele><time>2026-04-11T08:25:57.976Z</time></trkpt><trkpt lat="43.8208233" lon="12.2279117"><ele>371.25</ele><time>2026-04-11T08:25:58.976Z</time></trkpt><trkpt lat="43.820825" lon="12.2277367"><ele>372.0</ele><time>2026-04-11T08:25:59.976Z</time></trkpt><trkpt lat="43.8208333" lon="12.227565"><ele>372.0</ele><time>2026-04-11T08:26:00.976Z</time></trkpt><trkpt lat="43.8208517" lon="12.227395"><ele>372.0</ele><time>2026-04-11T08:26:01.976Z</time></trkpt><trkpt lat="43.8209033" lon="12.227255"><ele>372.0</ele><time>2026-04-11T08:26:02.977Z</time></trkpt><trkpt lat="43.8209867" lon="12.2271417"><ele>372.0</ele><time>2026-04-11T08:26:03.976Z</time></trkpt><trkpt lat="43.8210917" lon="12.2270817"><ele>374.25</ele><time>2026-04-11T08:26:04.976Z</time></trkpt><trkpt lat="43.821205" lon="12.2270883"><ele>376.5</ele><time>2026-04-11T08:26:05.976Z</time></trkpt><trkpt lat="43.8213317" lon="12.227095"><ele>378.75</ele><time>2026-04-11T08:26:06.976Z</time></trkpt><trkpt lat="43.8214533" lon="12.22713"><ele>381.0</ele><time>2026-04-11T08:26:07.976Z</time></trkpt><trkpt lat="43.82158" lon="12.2272"><ele>381.0</ele><time>2026-04-11T08:26:08.976Z</time></trkpt><trkpt lat="43.8217017" lon="12.2273117"><ele>381.0</ele><time>2026-04-11T08:26:09.977Z</time></trkpt><trkpt lat="43.8218067" lon="12.2274467"><ele>381.0</ele><time>2026-04-11T08:26:10.976Z</time></trkpt><trkpt lat="43.8218983" lon="12.227595"><ele>381.0</ele><time>2026-04-11T08:26:11.976Z</time></trkpt><trkpt lat="43.822" lon="12.2277333"><ele>382.25</ele><time>2026-04-11T08:26:12.976Z</time></trkpt><trkpt lat="43.8221117" lon="12.227855"><ele>383.5</ele><time>2026-04-11T08:26:13.977Z</time></trkpt><trkpt lat="43.8222383" lon="12.2279467"><ele>384.75</ele><time>2026-04-11T08:26:14.976Z</time></trkpt><trkpt lat="43.8223633" lon="12.2279983"><ele>386.0</ele><time>2026-04-11T08:26:15.976Z</time></trkpt><trkpt lat="43.8224917" lon="12.228025"><ele>386.0</ele><time>2026-04-11T08:26:16.977Z</time></trkpt><trkpt lat="43.8226267" lon="12.2280367"><ele>386.0</ele><time>2026-04-11T08:26:17.976Z</time></trkpt><trkpt lat="43.822765" lon="12.2280333"><ele>386.0</ele><time>2026-04-11T08:26:18.976Z</time></trkpt><trkpt lat="43.8228733" lon="12.22802"><ele>386.0</ele><time>2026-04-11T08:26:19.976Z</time></trkpt><trkpt lat="43.82296" lon="12.2280067"><ele>388.20000000000005</ele><time>2026-04-11T08:26:20.976Z</time></trkpt><trkpt lat="43.8230517" lon="12.2279517"><ele>390.40000000000003</ele><time>2026-04-11T08:26:21.976Z</time></trkpt><trkpt lat="43.8231333" lon="12.2278883"><ele>392.6</ele><time>2026-04-11T08:26:22.976Z</time></trkpt><trkpt lat="43.8232233" lon="12.2278283"><ele>394.8</ele><time>2026-04-11T08:26:23.977Z</time></trkpt><trkpt lat="43.8233133" lon="12.2277767"><ele>397.0</ele><time>2026-04-11T08:26:24.977Z</time></trkpt><trkpt lat="43.8234017" lon="12.2277333"><ele>397.00000000000006</ele><time>2026-04-11T08:26:25.976Z</time></trkpt><trkpt lat="43.8234783" lon="12.22769"><ele>397.0</ele><time>2026-04-11T08:26:26.976Z</time></trkpt><trkpt lat="43.8235517" lon="12.2276133"><ele>397.0</ele><time>2026-04-11T08:26:27.977Z</time></trkpt><trkpt lat="43.823585" lon="12.2275133"><ele>397.0</ele><time>2026-04-11T08:26:28.976Z</time></trkpt><trkpt lat="43.823595" lon="12.2274"><ele>397.00000000000006</ele><time>2026-04-11T08:26:29.976Z</time></trkpt><trkpt lat="43.82358" lon="12.2272733"><ele>397.0</ele><time>2026-04-11T08:26:30.976Z</time></trkpt><trkpt lat="43.82355" lon="12.2271383"><ele>398.6</ele><time>2026-04-11T08:26:31.976Z</time></trkpt><trkpt lat="43.8235333" lon="12.2270033"><ele>400.20000000000005</ele><time>2026-04-11T08:26:32.976Z</time></trkpt><trkpt lat="43.823515" lon="12.2268633"><ele>401.8</ele><time>2026-04-11T08:26:33.976Z</time></trkpt><trkpt lat="43.8234917" lon="12.2267133"><ele>403.4</ele><time>2026-04-11T08:26:34.976Z</time></trkpt><trkpt lat="43.82347" lon="12.2265633"><ele>405.0</ele><time>2026-04-11T08:26:35.977Z</time></trkpt><trkpt lat="43.8234517" lon="12.2264083"><ele>406.0</ele><time>2026-04-11T08:26:36.976Z</time></trkpt><trkpt lat="43.8234433" lon="12.2262417"><ele>407.0</ele><time>2026-04-11T08:26:37.976Z</time></trkpt><trkpt lat="43.8234383" lon="12.226065"><ele>408.0</ele><time>2026-04-11T08:26:38.976Z</time></trkpt><trkpt lat="43.82342" lon="12.2259"><ele>409.0</ele><time>2026-04-11T08:26:39.976Z</time></trkpt><trkpt lat="43.823405" lon="12.2257267"><ele>409.75</ele><time>2026-04-11T08:26:40.976Z</time></trkpt><trkpt lat="43.8233833" lon="12.2255417"><ele>410.5</ele><time>2026-04-11T08:26:41.976Z</time></trkpt><trkpt lat="43.8233617" lon="12.2253583"><ele>411.25</ele><time>2026-04-11T08:26:42.977Z</time></trkpt><trkpt lat="43.8233483" lon="12.225205"><ele>412.0</ele><time>2026-04-11T08:26:43.976Z</time></trkpt><trkpt lat="43.8233167" lon="12.2250667"><ele>412.00000000000006</ele><time>2026-04-11T08:26:44.976Z</time></trkpt><trkpt lat="43.8232867" lon="12.2249483"><ele>412.0</ele><time>2026-04-11T08:26:45.976Z</time></trkpt><trkpt lat="43.8232533" lon="12.22483"><ele>412.0</ele><time>2026-04-11T08:26:46.976Z</time></trkpt><trkpt lat="43.8232533" lon="12.22473"><ele>412.0</ele><time>2026-04-11T08:26:47.977Z</time></trkpt><trkpt lat="43.8232667" lon="12.22464"><ele>412.00000000000006</ele><time>2026-04-11T08:26:48.976Z</time></trkpt><trkpt lat="43.8233117" lon="12.2245533"><ele>412.0</ele><time>2026-04-11T08:26:49.977Z</time></trkpt><trkpt lat="43.8233683" lon="12.22449"><ele>411.83333333333337</ele><time>2026-04-11T08:26:50.976Z</time></trkpt><trkpt lat="43.82344" lon="12.2244383"><ele>411.6666666666667</ele><time>2026-04-11T08:26:51.976Z</time></trkpt><trkpt lat="43.82351" lon="12.2243717"><ele>411.5</ele><time>2026-04-11T08:26:52.976Z</time></trkpt><trkpt lat="43.8235783" lon="12.22431"><ele>411.33333333333337</ele><time>2026-04-11T08:26:53.976Z</time></trkpt><trkpt lat="43.8236217" lon="12.22415"><ele>411.1666666666667</ele><time>2026-04-11T08:26:55.976Z</time></trkpt><trkpt lat="43.82361" lon="12.2240583"><ele>411.0</ele><time>2026-04-11T08:26:56.976Z</time></trkpt><trkpt lat="43.8235817" lon="12.2239733"><ele>411.0</ele><time>2026-04-11T08:26:57.976Z</time></trkpt><trkpt lat="43.8235583" lon="12.22387"><ele>411.0</ele><time>2026-04-11T08:26:58.976Z</time></trkpt><trkpt lat="43.8235633" lon="12.22377"><ele>411.0</ele><time>2026-04-11T08:26:59.976Z</time></trkpt><trkpt lat="43.8235817" lon="12.2236583"><ele>411.0</ele><time>2026-04-11T08:27:00.976Z</time></trkpt><trkpt lat="43.8235967" lon="12.22352"><ele>411.0</ele><time>2026-04-11T08:27:01.976Z</time></trkpt><trkpt lat="43.8236233" lon="12.2233867"><ele>411.0</ele><time>2026-04-11T08:27:02.976Z</time></trkpt><trkpt lat="43.8236567" lon="12.2232467"><ele>409.6666666666667</ele><time>2026-04-11T08:27:03.976Z</time></trkpt><trkpt lat="43.8236933" lon="12.2231233"><ele>408.33333333333337</ele><time>2026-04-11T08:27:04.976Z</time></trkpt><trkpt lat="43.82372" lon="12.2230183"><ele>407.0</ele><time>2026-04-11T08:27:05.977Z</time></trkpt><trkpt lat="43.8237767" lon="12.222935"><ele>405.6666666666667</ele><time>2026-04-11T08:27:06.977Z</time></trkpt><trkpt lat="43.82384" lon="12.2228633"><ele>404.33333333333337</ele><time>2026-04-11T08:27:07.976Z</time></trkpt><trkpt lat="43.82391" lon="12.2227917"><ele>403.0</ele><time>2026-04-11T08:27:08.976Z</time></trkpt><trkpt lat="43.8239833" lon="12.2227217"><ele>403.0</ele><time>2026-04-11T08:27:09.976Z</time></trkpt><trkpt lat="43.8240667" lon="12.2226533"><ele>403.0</ele><time>2026-04-11T08:27:10.976Z</time></trkpt><trkpt lat="43.82414" lon="12.222575"><ele>403.0</ele><time>2026-04-11T08:27:11.977Z</time></trkpt><trkpt lat="43.82421" lon="12.222485"><ele>403.0</ele><time>2026-04-11T08:27:12.976Z</time></trkpt><trkpt lat="43.824275" lon="12.2223817"><ele>403.0</ele><time>2026-04-11T08:27:13.976Z</time></trkpt><trkpt lat="43.8243467" lon="12.2223167"><ele>403.83333333333337</ele><time>2026-04-11T08:27:14.976Z</time></trkpt><trkpt lat="43.8244183" lon="12.22226"><ele>404.6666666666667</ele><time>2026-04-11T08:27:15.976Z</time></trkpt><trkpt lat="43.8244917" lon="12.2222133"><ele>405.5</ele><time>2026-04-11T08:27:16.976Z</time></trkpt><trkpt lat="43.8245617" lon="12.22217"><ele>406.33333333333337</ele><time>2026-04-11T08:27:17.976Z</time></trkpt><trkpt lat="43.824645" lon="12.22209"><ele>407.1666666666667</ele><time>2026-04-11T08:27:19.976Z</time></trkpt><trkpt lat="43.8247133" lon="12.2219967"><ele>408.0</ele><time>2026-04-11T08:27:22.976Z</time></trkpt><trkpt lat="43.82475" lon="12.2219217"><ele>408.0</ele><time>2026-04-11T08:27:24.976Z</time></trkpt><trkpt lat="43.82479" lon="12.22185"><ele>408.0</ele><time>2026-04-11T08:27:26.976Z</time></trkpt><trkpt lat="43.824845" lon="12.2217817"><ele>408.0</ele><time>2026-04-11T08:27:28.977Z</time></trkpt><trkpt lat="43.8249067" lon="12.2217167"><ele>408.0</ele><time>2026-04-11T08:27:30.976Z</time></trkpt><trkpt lat="43.8249533" lon="12.2216433"><ele>408.0</ele><time>2026-04-11T08:27:32.976Z</time></trkpt><trkpt lat="43.82502" lon="12.2215383"><ele>408.0</ele><time>2026-04-11T08:27:35.976Z</time></trkpt><trkpt lat="43.8250883" lon="12.2214517"><ele>410.0</ele><time>2026-04-11T08:27:37.976Z</time></trkpt><trkpt lat="43.825165" lon="12.221385"><ele>412.0</ele><time>2026-04-11T08:27:39.977Z</time></trkpt><trkpt lat="43.8252217" lon="12.2213467"><ele>414.0</ele><time>2026-04-11T08:27:41.976Z</time></trkpt><trkpt lat="43.8252767" lon="12.2212983"><ele>416.0</ele><time>2026-04-11T08:29:30.975Z</time></trkpt><trkpt lat="43.8253417" lon="12.221215"><ele>418.0</ele><time>2026-04-11T08:30:09.976Z</time></trkpt><trkpt lat="43.8254033" lon="12.22113"><ele>420.0</ele><time>2026-04-11T08:30:11.975Z</time></trkpt><trkpt lat="43.8254567" lon="12.221065"><ele>420.0</ele><time>2026-04-11T08:30:13.975Z</time></trkpt><trkpt lat="43.8253967" lon="12.221135"><ele>420.0</ele><time>2026-04-11T08:30:25.975Z</time></trkpt><trkpt lat="43.825355" lon="12.221205"><ele>420.0</ele><time>2026-04-11T08:30:27.975Z</time></trkpt><trkpt lat="43.825275" lon="12.2212583"><ele>420.0</ele><time>2026-04-11T08:31:04.975Z</time></trkpt><trkpt lat="43.8252167" lon="12.2213267"><ele>420.0</ele><time>2026-04-11T08:31:05.975Z</time></trkpt><trkpt lat="43.8251483" lon="12.2214"><ele>420.0</ele><time>2026-04-11T08:31:06.975Z</time></trkpt><trkpt lat="43.825075" lon="12.22147"><ele>418.0</ele><time>2026-04-11T08:31:07.975Z</time></trkpt><trkpt lat="43.825005" lon="12.2215317"><ele>416.0</ele><time>2026-04-11T08:31:08.975Z</time></trkpt><trkpt lat="43.8249317" lon="12.2216017"><ele>414.0</ele><time>2026-04-11T08:31:10.975Z</time></trkpt><trkpt lat="43.8248617" lon="12.2217133"><ele>412.0</ele><time>2026-04-11T08:33:41.974Z</time></trkpt><trkpt lat="43.8248033" lon="12.221785"><ele>410.0</ele><time>2026-04-11T08:33:42.974Z</time></trkpt><trkpt lat="43.82474" lon="12.2218683"><ele>408.0</ele><time>2026-04-11T08:33:43.974Z</time></trkpt><trkpt lat="43.8246617" lon="12.221955"><ele>408.0</ele><time>2026-04-11T08:33:44.974Z</time></trkpt><trkpt lat="43.824585" lon="12.2220567"><ele>408.0</ele><time>2026-04-11T08:33:45.975Z</time></trkpt><trkpt lat="43.82449" lon="12.2221567"><ele>408.0</ele><time>2026-04-11T08:33:46.974Z</time></trkpt><trkpt lat="43.8243783" lon="12.22225"><ele>408.0</ele><time>2026-04-11T08:33:47.974Z</time></trkpt><trkpt lat="43.824275" lon="12.222335"><ele>406.75</ele><time>2026-04-11T08:33:48.974Z</time></trkpt><trkpt lat="43.8241917" lon="12.222445"><ele>405.5</ele><time>2026-04-11T08:33:49.974Z</time></trkpt><trkpt lat="43.8240967" lon="12.2225517"><ele>404.25</ele><time>2026-04-11T08:33:50.974Z</time></trkpt><trkpt lat="43.8240167" lon="12.222655"><ele>403.0</ele><time>2026-04-11T08:33:51.974Z</time></trkpt><trkpt lat="43.8239317" lon="12.2227367"><ele>403.0</ele><time>2026-04-11T08:33:52.974Z</time></trkpt><trkpt lat="43.8238483" lon="12.22281"><ele>403.0</ele><time>2026-04-11T08:33:53.974Z</time></trkpt><trkpt lat="43.8237667" lon="12.2228833"><ele>403.0</ele><time>2026-04-11T08:33:54.975Z</time></trkpt><trkpt lat="43.8237033" lon="12.2229683"><ele>403.0</ele><time>2026-04-11T08:33:55.974Z</time></trkpt><trkpt lat="43.823655" lon="12.2230633"><ele>403.0</ele><time>2026-04-11T08:33:56.974Z</time></trkpt><trkpt lat="43.8236117" lon="12.223175"><ele>404.59999999999997</ele><time>2026-04-11T08:33:57.975Z</time></trkpt><trkpt lat="43.82358" lon="12.2232917"><ele>406.2</ele><time>2026-04-11T08:33:58.974Z</time></trkpt><trkpt lat="43.823555" lon="12.2234333"><ele>407.8</ele><time>2026-04-11T08:33:59.975Z</time></trkpt><trkpt lat="43.823525" lon="12.2235883"><ele>409.4</ele><time>2026-04-11T08:34:00.975Z</time></trkpt><trkpt lat="43.8235017" lon="12.223745"><ele>411.0</ele><time>2026-04-11T08:34:01.974Z</time></trkpt><trkpt lat="43.8235" lon="12.2238917"><ele>410.6666666666667</ele><time>2026-04-11T08:34:02.974Z</time></trkpt><trkpt lat="43.8235167" lon="12.2240217"><ele>410.33333333333337</ele><time>2026-04-11T08:34:03.975Z</time></trkpt><trkpt lat="43.8235333" lon="12.2241317"><ele>410.0</ele><time>2026-04-11T08:34:04.974Z</time></trkpt><trkpt lat="43.8235567" lon="12.2242417"><ele>409.6666666666667</ele><time>2026-04-11T08:34:05.975Z</time></trkpt><trkpt lat="43.8235617" lon="12.2243483"><ele>409.33333333333337</ele><time>2026-04-11T08:34:06.974Z</time></trkpt><trkpt lat="43.8235233" lon="12.22442"><ele>409.0</ele><time>2026-04-11T08:34:07.974Z</time></trkpt><trkpt lat="43.8234717" lon="12.2244833"><ele>409.00000000000006</ele><time>2026-04-11T08:34:08.974Z</time></trkpt><trkpt lat="43.8233967" lon="12.2245367"><ele>409.0</ele><time>2026-04-11T08:34:09.974Z</time></trkpt><trkpt lat="43.82332" lon="12.2246083"><ele>409.0</ele><time>2026-04-11T08:34:10.974Z</time></trkpt><trkpt lat="43.8232533" lon="12.2246867"><ele>409.0</ele><time>2026-04-11T08:34:11.974Z</time></trkpt><trkpt lat="43.8232067" lon="12.2247817"><ele>409.00000000000006</ele><time>2026-04-11T08:34:12.974Z</time></trkpt><trkpt lat="43.8231967" lon="12.2248867"><ele>409.0</ele><time>2026-04-11T08:34:13.974Z</time></trkpt><trkpt lat="43.8232283" lon="12.224985"><ele>409.6</ele><time>2026-04-11T08:34:14.974Z</time></trkpt><trkpt lat="43.8232733" lon="12.2250917"><ele>410.2</ele><time>2026-04-11T08:34:15.974Z</time></trkpt><trkpt lat="43.823315" lon="12.225195"><ele>410.8</ele><time>2026-04-11T08:34:16.974Z</time></trkpt><trkpt lat="43.8233467" lon="12.2253067"><ele>411.40000000000003</ele><time>2026-04-11T08:34:17.974Z</time></trkpt><trkpt lat="43.8233667" lon="12.2254383"><ele>412.0</ele><time>2026-04-11T08:34:18.974Z</time></trkpt><trkpt lat="43.8233817" lon="12.2255683"><ele>411.40000000000003</ele><time>2026-04-11T08:34:19.974Z</time></trkpt><trkpt lat="43.8233983" lon="12.2257083"><ele>410.8</ele><time>2026-04-11T08:34:20.974Z</time></trkpt><trkpt lat="43.8234067" lon="12.22586"><ele>410.2</ele><time>2026-04-11T08:34:21.974Z</time></trkpt><trkpt lat="43.82342" lon="12.22601"><ele>409.6</ele><time>2026-04-11T08:34:22.974Z</time></trkpt><trkpt lat="43.8234367" lon="12.2261733"><ele>409.0</ele><time>2026-04-11T08:34:23.974Z</time></trkpt><trkpt lat="43.8234517" lon="12.226335"><ele>408.0</ele><time>2026-04-11T08:34:24.974Z</time></trkpt><trkpt lat="43.8234633" lon="12.226495"><ele>407.0</ele><time>2026-04-11T08:34:25.974Z</time></trkpt><trkpt lat="43.82348" lon="12.226655"><ele>406.0</ele><time>2026-04-11T08:34:26.974Z</time></trkpt><trkpt lat="43.8235017" lon="12.2268167"><ele>405.0</ele><time>2026-04-11T08:34:27.974Z</time></trkpt><trkpt lat="43.8235217" lon="12.2269767"><ele>405.0</ele><time>2026-04-11T08:34:28.974Z</time></trkpt><trkpt lat="43.8235483" lon="12.2271367"><ele>405.0</ele><time>2026-04-11T08:34:29.974Z</time></trkpt><trkpt lat="43.8235617" lon="12.2272683"><ele>405.0</ele><time>2026-04-11T08:34:30.974Z</time></trkpt><trkpt lat="43.8235733" lon="12.2274033"><ele>405.0</ele><time>2026-04-11T08:34:31.975Z</time></trkpt><trkpt lat="43.82357" lon="12.2275283"><ele>405.0</ele><time>2026-04-11T08:34:32.974Z</time></trkpt><trkpt lat="43.82354" lon="12.2276217"><ele>403.4</ele><time>2026-04-11T08:34:33.974Z</time></trkpt><trkpt lat="43.82348" lon="12.2276917"><ele>401.8</ele><time>2026-04-11T08:34:34.974Z</time></trkpt><trkpt lat="43.8233833" lon="12.2277383"><ele>400.20000000000005</ele><time>2026-04-11T08:34:35.975Z</time></trkpt><trkpt lat="43.8232633" lon="12.2277717"><ele>398.6</ele><time>2026-04-11T08:34:36.974Z</time></trkpt><trkpt lat="43.8231517" lon="12.2278133"><ele>397.0</ele><time>2026-04-11T08:34:37.975Z</time></trkpt><trkpt lat="43.8230533" lon="12.227865"><ele>397.0</ele><time>2026-04-11T08:34:38.974Z</time></trkpt><trkpt lat="43.8229667" lon="12.2279167"><ele>397.0</ele><time>2026-04-11T08:34:39.974Z</time></trkpt><trkpt lat="43.8228833" lon="12.227945"><ele>397.0</ele><time>2026-04-11T08:34:40.975Z</time></trkpt><trkpt lat="43.822785" lon="12.22796"><ele>397.0</ele><time>2026-04-11T08:34:41.974Z</time></trkpt><trkpt lat="43.8226717" lon="12.22797"><ele>397.0</ele><time>2026-04-11T08:34:42.974Z</time></trkpt><trkpt lat="43.8225483" lon="12.2279767"><ele>394.25</ele><time>2026-04-11T08:34:43.974Z</time></trkpt><trkpt lat="43.8224217" lon="12.227975"><ele>391.5</ele><time>2026-04-11T08:34:44.975Z</time></trkpt><trkpt lat="43.8222883" lon="12.2279417"><ele>388.75</ele><time>2026-04-11T08:34:45.975Z</time></trkpt><trkpt lat="43.8221567" lon="12.22788"><ele>386.0</ele><time>2026-04-11T08:34:46.974Z</time></trkpt><trkpt lat="43.82204" lon="12.2277717"><ele>386.0</ele><time>2026-04-11T08:34:47.975Z</time></trkpt><trkpt lat="43.8219417" lon="12.22762"><ele>386.0</ele><time>2026-04-11T08:34:48.974Z</time></trkpt><trkpt lat="43.821845" lon="12.2274633"><ele>386.0</ele><time>2026-04-11T08:34:49.974Z</time></trkpt><trkpt lat="43.8217467" lon="12.2273183"><ele>386.0</ele><time>2026-04-11T08:34:50.974Z</time></trkpt><trkpt lat="43.8216383" lon="12.2272033"><ele>384.75</ele><time>2026-04-11T08:34:51.974Z</time></trkpt><trkpt lat="43.821545" lon="12.2271167"><ele>383.5</ele><time>2026-04-11T08:34:52.974Z</time></trkpt><trkpt lat="43.8214383" lon="12.22706"><ele>382.25</ele><time>2026-04-11T08:34:53.974Z</time></trkpt><trkpt lat="43.8213167" lon="12.22705"><ele>381.0</ele><time>2026-04-11T08:34:54.974Z</time></trkpt><trkpt lat="43.8211817" lon="12.2270667"><ele>381.0</ele><time>2026-04-11T08:34:55.974Z</time></trkpt><trkpt lat="43.8210517" lon="12.2270933"><ele>381.0</ele><time>2026-04-11T08:34:56.974Z</time></trkpt><trkpt lat="43.8209383" lon="12.2271433"><ele>381.0</ele><time>2026-04-11T08:34:57.975Z</time></trkpt><trkpt lat="43.8208517" lon="12.2272233"><ele>381.0</ele><time>2026-04-11T08:34:58.974Z</time></trkpt><trkpt lat="43.8207867" lon="12.2273383"><ele>378.75</ele><time>2026-04-11T08:34:59.974Z</time></trkpt><trkpt lat="43.82076" lon="12.227485"><ele>376.5</ele><time>2026-04-11T08:35:00.974Z</time></trkpt><trkpt lat="43.820755" lon="12.227645"><ele>374.25</ele><time>2026-04-11T08:35:01.974Z</time></trkpt><trkpt lat="43.820775" lon="12.2278217"><ele>372.0</ele><time>2026-04-11T08:35:02.974Z</time></trkpt><trkpt lat="43.82078" lon="12.22801"><ele>371.25</ele><time>2026-04-11T08:35:03.974Z</time></trkpt><trkpt lat="43.8207583" lon="12.2281967"><ele>370.5</ele><time>2026-04-11T08:35:04.974Z</time></trkpt><trkpt lat="43.820705" lon="12.2283483"><ele>369.75</ele><time>2026-04-11T08:35:05.975Z</time></trkpt><trkpt lat="43.8206267" lon="12.2284533"><ele>369.0</ele><time>2026-04-11T08:35:06.975Z</time></trkpt><trkpt lat="43.820525" lon="12.2285117"><ele>369.0</ele><time>2026-04-11T08:35:07.975Z</time></trkpt><trkpt lat="43.8204033" lon="12.2285467"><ele>369.0</ele><time>2026-04-11T08:35:08.974Z</time></trkpt><trkpt lat="43.8202733" lon="12.2285633"><ele>369.0</ele><time>2026-04-11T08:35:09.974Z</time></trkpt><trkpt lat="43.8201417" lon="12.22859"><ele>369.0</ele><time>2026-04-11T08:35:10.975Z</time></trkpt><trkpt lat="43.8200233" lon="12.22868"><ele>366.5</ele><time>2026-04-11T08:35:11.974Z</time></trkpt><trkpt lat="43.8199067" lon="12.22879"><ele>364.0</ele><time>2026-04-11T08:35:12.974Z</time></trkpt><trkpt lat="43.8198083" lon="12.228905"><ele>361.5</ele><time>2026-04-11T08:35:13.974Z</time></trkpt><trkpt lat="43.8197233" lon="12.2290283"><ele>359.0</ele><time>2026-04-11T08:35:14.974Z</time></trkpt><trkpt lat="43.8196733" lon="12.22917"><ele>358.6</ele><time>2026-04-11T08:35:15.974Z</time></trkpt><trkpt lat="43.8196567" lon="12.2293183"><ele>358.2</ele><time>2026-04-11T08:35:16.974Z</time></trkpt><trkpt lat="43.81966" lon="12.2294583"><ele>357.8</ele><time>2026-04-11T08:35:17.974Z</time></trkpt><trkpt lat="43.81966" lon="12.2295717"><ele>357.40000000000003</ele><time>2026-04-11T08:35:18.974Z</time></trkpt><trkpt lat="43.819655" lon="12.2296733"><ele>357.0</ele><time>2026-04-11T08:35:19.975Z</time></trkpt><trkpt lat="43.8196067" lon="12.229785"><ele>357.0</ele><time>2026-04-11T08:35:21.974Z</time></trkpt><trkpt lat="43.81953" lon="12.229765"><ele>357.0</ele><time>2026-04-11T08:35:23.974Z</time></trkpt><trkpt lat="43.8194783" lon="12.2297017"><ele>357.0</ele><time>2026-04-11T08:35:24.974Z</time></trkpt><trkpt lat="43.81942" lon="12.2296183"><ele>357.0</ele><time>2026-04-11T08:35:25.974Z</time></trkpt><trkpt lat="43.8193467" lon="12.2295183"><ele>357.0</ele><time>2026-04-11T08:35:26.974Z</time></trkpt><trkpt lat="43.8192667" lon="12.2294067"><ele>357.0</ele><time>2026-04-11T08:35:27.974Z</time></trkpt><trkpt lat="43.8191733" lon="12.2293017"><ele>356.5</ele><time>2026-04-11T08:35:28.974Z</time></trkpt><trkpt lat="43.81907" lon="12.2291967"><ele>356.0</ele><time>2026-04-11T08:35:29.974Z</time></trkpt><trkpt lat="43.8189633" lon="12.229105"><ele>355.5</ele><time>2026-04-11T08:35:30.974Z</time></trkpt><trkpt lat="43.8188333" lon="12.2290133"><ele>355.0</ele><time>2026-04-11T08:35:31.974Z</time></trkpt><trkpt lat="43.8187" lon="12.2289217"><ele>355.66666666666663</ele><time>2026-04-11T08:35:32.975Z</time></trkpt><trkpt lat="43.8185683" lon="12.228825"><ele>356.3333333333333</ele><time>2026-04-11T08:35:33.974Z</time></trkpt><trkpt lat="43.8184367" lon="12.2287267"><ele>357.0</ele><time>2026-04-11T08:35:34.975Z</time></trkpt><trkpt lat="43.8182983" lon="12.2286183"><ele>357.0</ele><time>2026-04-11T08:35:35.974Z</time></trkpt><trkpt lat="43.8181533" lon="12.22851"><ele>357.0</ele><time>2026-04-11T08:35:36.974Z</time></trkpt><trkpt lat="43.8180033" lon="12.2284017"><ele>357.0</ele><time>2026-04-11T08:35:37.974Z</time></trkpt><trkpt lat="43.8178517" lon="12.228295"><ele>357.0</ele><time>2026-04-11T08:35:38.974Z</time></trkpt><trkpt lat="43.817695" lon="12.22819"><ele>357.0</ele><time>2026-04-11T08:35:39.974Z</time></trkpt><trkpt lat="43.8175367" lon="12.2280783"><ele>357.0</ele><time>2026-04-11T08:35:40.975Z</time></trkpt><trkpt lat="43.8173767" lon="12.227965"><ele>359.6666666666667</ele><time>2026-04-11T08:35:41.974Z</time></trkpt><trkpt lat="43.8172017" lon="12.2278417"><ele>362.33333333333337</ele><time>2026-04-11T08:35:42.974Z</time></trkpt><trkpt lat="43.81704" lon="12.2277233"><ele>365.0</ele><time>2026-04-11T08:35:43.974Z</time></trkpt><trkpt lat="43.81688" lon="12.2276083"><ele>365.33333333333337</ele><time>2026-04-11T08:35:44.974Z</time></trkpt><trkpt lat="43.8167083" lon="12.2274867"><ele>365.6666666666667</ele><time>2026-04-11T08:35:45.973Z</time></trkpt><trkpt lat="43.8165383" lon="12.2273583"><ele>366.0</ele><time>2026-04-11T08:35:46.973Z</time></trkpt><trkpt lat="43.8163567" lon="12.227235"><ele>366.0</ele><time>2026-04-11T08:35:47.973Z</time></trkpt><trkpt lat="43.81618" lon="12.2271133"><ele>366.0</ele><time>2026-04-11T08:35:48.973Z</time></trkpt><trkpt lat="43.8160067" lon="12.22699"><ele>366.0</ele><time>2026-04-11T08:35:49.973Z</time></trkpt><trkpt lat="43.815835" lon="12.226865"><ele>363.6666666666667</ele><time>2026-04-11T08:35:50.973Z</time></trkpt><trkpt lat="43.815665" lon="12.2267433"><ele>361.33333333333337</ele><time>2026-04-11T08:35:51.973Z</time></trkpt><trkpt lat="43.815495" lon="12.2266083"><ele>359.0</ele><time>2026-04-11T08:35:52.973Z</time></trkpt><trkpt lat="43.8153217" lon="12.226485"><ele>360.0</ele><time>2026-04-11T08:35:53.973Z</time></trkpt><trkpt lat="43.8151417" lon="12.226365"><ele>361.0</ele><time>2026-04-11T08:35:54.973Z</time></trkpt><trkpt lat="43.814965" lon="12.2262433"><ele>362.0</ele><time>2026-04-11T08:35:55.974Z</time></trkpt><trkpt lat="43.814785" lon="12.2261183"><ele>362.0</ele><time>2026-04-11T08:35:56.973Z</time></trkpt><trkpt lat="43.8146133" lon="12.225995"><ele>362.0</ele><time>2026-04-11T08:35:57.974Z</time></trkpt><trkpt lat="43.814435" lon="12.2258667"><ele>362.0</ele><time>2026-04-11T08:35:58.973Z</time></trkpt><trkpt lat="43.81425" lon="12.22573"><ele>362.33333333333337</ele><time>2026-04-11T08:35:59.973Z</time></trkpt><trkpt lat="43.8140683" lon="12.225605"><ele>362.6666666666667</ele><time>2026-04-11T08:36:00.973Z</time></trkpt><trkpt lat="43.8138783" lon="12.2254717"><ele>363.0</ele><time>2026-04-11T08:36:01.973Z</time></trkpt><trkpt lat="43.8136933" lon="12.22534"><ele>363.0</ele><time>2026-04-11T08:36:02.973Z</time></trkpt><trkpt lat="43.8135033" lon="12.22521"><ele>363.0</ele><time>2026-04-11T08:36:03.973Z</time></trkpt><trkpt lat="43.813315" lon="12.2250867"><ele>363.0</ele><time>2026-04-11T08:36:04.973Z</time></trkpt><trkpt lat="43.8131233" lon="12.224955"><ele>366.6666666666667</ele><time>2026-04-11T08:36:05.973Z</time></trkpt><trkpt lat="43.8129433" lon="12.22481"><ele>370.33333333333337</ele><time>2026-04-11T08:36:06.973Z</time></trkpt><trkpt lat="43.8127617" lon="12.2246817"><ele>374.0</ele><time>2026-04-11T08:36:07.973Z</time></trkpt><trkpt lat="43.8125733" lon="12.2245517"><ele>374.0</ele><time>2026-04-11T08:36:08.973Z</time></trkpt><trkpt lat="43.8123783" lon="12.2244167"><ele>374.0</ele><time>2026-04-11T08:36:09.973Z</time></trkpt><trkpt lat="43.812185" lon="12.2242833"><ele>374.0</ele><time>2026-04-11T08:36:10.973Z</time></trkpt><trkpt lat="43.8119983" lon="12.22415"><ele>371.6666666666667</ele><time>2026-04-11T08:36:11.974Z</time></trkpt><trkpt lat="43.8118083" lon="12.22402"><ele>369.3333333333333</ele><time>2026-04-11T08:36:12.973Z</time></trkpt><trkpt lat="43.8116233" lon="12.2238683"><ele>367.0</ele><time>2026-04-11T08:36:13.973Z</time></trkpt><trkpt lat="43.8114333" lon="12.2237067"><ele>367.66666666666663</ele><time>2026-04-11T08:36:14.973Z</time></trkpt><trkpt lat="43.8112567" lon="12.2235367"><ele>368.3333333333333</ele><time>2026-04-11T08:36:15.973Z</time></trkpt><trkpt lat="43.8110767" lon="12.2233617"><ele>369.0</ele><time>2026-04-11T08:36:16.974Z</time></trkpt><trkpt lat="43.810895" lon="12.223195"><ele>376.0</ele><time>2026-04-11T08:36:17.973Z</time></trkpt><trkpt lat="43.8107167" lon="12.2230217"><ele>383.0</ele><time>2026-04-11T08:36:18.973Z</time></trkpt><trkpt lat="43.8105483" lon="12.2228583"><ele>390.0</ele><time>2026-04-11T08:36:19.973Z</time></trkpt><trkpt lat="43.810375" lon="12.222685"><ele>390.0</ele><time>2026-04-11T08:36:20.973Z</time></trkpt><trkpt lat="43.81019" lon="12.2225067"><ele>390.0</ele><time>2026-04-11T08:36:21.973Z</time></trkpt><trkpt lat="43.81002" lon="12.2223333"><ele>390.0</ele><time>2026-04-11T08:36:22.973Z</time></trkpt><trkpt lat="43.8098383" lon="12.222165"><ele>390.66666666666663</ele><time>2026-04-11T08:36:23.973Z</time></trkpt><trkpt lat="43.8096617" lon="12.2219967"><ele>391.3333333333333</ele><time>2026-04-11T08:36:24.973Z</time></trkpt><trkpt lat="43.8094933" lon="12.2218233"><ele>392.0</ele><time>2026-04-11T08:36:25.973Z</time></trkpt><trkpt lat="43.8093217" lon="12.2216433"><ele>390.66666666666663</ele><time>2026-04-11T08:36:26.973Z</time></trkpt><trkpt lat="43.8091433" lon="12.2214717"><ele>389.33333333333337</ele><time>2026-04-11T08:36:27.973Z</time></trkpt><trkpt lat="43.80896" lon="12.2213017"><ele>388.0</ele><time>2026-04-11T08:36:28.973Z</time></trkpt><trkpt lat="43.8087817" lon="12.2211233"><ele>388.0</ele><time>2026-04-11T08:36:29.973Z</time></trkpt><trkpt lat="43.8085967" lon="12.2209417"><ele>388.0</ele><time>2026-04-11T08:36:30.973Z</time></trkpt><trkpt lat="43.8084133" lon="12.2207733"><ele>388.0</ele><time>2026-04-11T08:36:31.973Z</time></trkpt><trkpt lat="43.808225" lon="12.220615"><ele>392.33333333333337</ele><time>2026-04-11T08:36:32.974Z</time></trkpt><trkpt lat="43.8080283" lon="12.22047"><ele>396.66666666666663</ele><time>2026-04-11T08:36:33.973Z</time></trkpt><trkpt lat="43.8078267" lon="12.2203383"><ele>401.0</ele><time>2026-04-11T08:36:34.973Z</time></trkpt><trkpt lat="43.8076167" lon="12.22021"><ele>390.66666666666663</ele><time>2026-04-11T08:36:35.974Z</time></trkpt><trkpt lat="43.8074117" lon="12.2200917"><ele>380.3333333333333</ele><time>2026-04-11T08:36:36.973Z</time></trkpt><trkpt lat="43.8072017" lon="12.219975"><ele>370.0</ele><time>2026-04-11T08:36:37.973Z</time></trkpt><trkpt lat="43.806995" lon="12.2198633"><ele>373.0</ele><time>2026-04-11T08:36:38.973Z</time></trkpt><trkpt lat="43.8067933" lon="12.2197617"><ele>376.0</ele><time>2026-04-11T08:36:39.973Z</time></trkpt><trkpt lat="43.8065917" lon="12.2196517"><ele>379.0</ele><time>2026-04-11T08:36:40.973Z</time></trkpt><trkpt lat="43.8063933" lon="12.2195433"><ele>379.0</ele><time>2026-04-11T08:36:41.973Z</time></trkpt><trkpt lat="43.8061933" lon="12.2194383"><ele>379.0</ele><time>2026-04-11T08:36:42.973Z</time></trkpt><trkpt lat="43.805995" lon="12.21933"><ele>379.0</ele><time>2026-04-11T08:36:43.973Z</time></trkpt><trkpt lat="43.8057917" lon="12.2192233"><ele>379.0</ele><time>2026-04-11T08:36:44.973Z</time></trkpt><trkpt lat="43.8055917" lon="12.2191133"><ele>379.0</ele><time>2026-04-11T08:36:45.974Z</time></trkpt><trkpt lat="43.80539" lon="12.2189967"><ele>379.0</ele><time>2026-04-11T08:36:46.973Z</time></trkpt><trkpt lat="43.80519" lon="12.2188867"><ele>385.3333333333333</ele><time>2026-04-11T08:36:47.973Z</time></trkpt><trkpt lat="43.80499" lon="12.2187683"><ele>391.66666666666663</ele><time>2026-04-11T08:36:48.973Z</time></trkpt><trkpt lat="43.8047967" lon="12.21866"><ele>398.0</ele><time>2026-04-11T08:36:49.973Z</time></trkpt><trkpt lat="43.804605" lon="12.2185583"><ele>398.0</ele><time>2026-04-11T08:36:50.973Z</time></trkpt><trkpt lat="43.8044167" lon="12.218475"><ele>398.0</ele><time>2026-04-11T08:36:51.973Z</time></trkpt><trkpt lat="43.8042417" lon="12.2183683"><ele>398.0</ele><time>2026-04-11T08:36:52.973Z</time></trkpt><trkpt lat="43.8040717" lon="12.21822"><ele>394.3333333333333</ele><time>2026-04-11T08:36:53.973Z</time></trkpt><trkpt lat="43.8039217" lon="12.2180417"><ele>390.66666666666663</ele><time>2026-04-11T08:36:54.974Z</time></trkpt><trkpt lat="43.8038033" lon="12.21783"><ele>387.0</ele><time>2026-04-11T08:36:55.973Z</time></trkpt><trkpt lat="43.8037533" lon="12.2175933"><ele>387.0</ele><time>2026-04-11T08:36:56.974Z</time></trkpt><trkpt lat="43.8037583" lon="12.2173533"><ele>387.0</ele><time>2026-04-11T08:36:57.974Z</time></trkpt><trkpt lat="43.8037817" lon="12.2171167"><ele>387.0</ele><time>2026-04-11T08:36:58.973Z</time></trkpt><trkpt lat="43.803815" lon="12.2168717"><ele>387.66666666666663</ele><time>2026-04-11T08:36:59.973Z</time></trkpt><trkpt lat="43.8038583" lon="12.2166283"><ele>388.3333333333333</ele><time>2026-04-11T08:37:00.974Z</time></trkpt><trkpt lat="43.8039033" lon="12.216375"><ele>389.0</ele><time>2026-04-11T08:37:01.973Z</time></trkpt><trkpt lat="43.80395" lon="12.2161283"><ele>389.0</ele><time>2026-04-11T08:37:02.973Z</time></trkpt><trkpt lat="43.8039917" lon="12.2158667"><ele>389.0</ele><time>2026-04-11T08:37:03.974Z</time></trkpt><trkpt lat="43.8040317" lon="12.2155967"><ele>389.0</ele><time>2026-04-11T08:37:04.973Z</time></trkpt><trkpt lat="43.8040633" lon="12.2153217"><ele>389.0</ele><time>2026-04-11T08:37:05.973Z</time></trkpt><trkpt lat="43.8040833" lon="12.2150433"><ele>389.0</ele><time>2026-04-11T08:37:06.973Z</time></trkpt><trkpt lat="43.80409" lon="12.2147583"><ele>389.0</ele><time>2026-04-11T08:37:07.973Z</time></trkpt><trkpt lat="43.8040983" lon="12.21446"><ele>389.0</ele><time>2026-04-11T08:37:08.974Z</time></trkpt><trkpt lat="43.8041083" lon="12.21416"><ele>389.0</ele><time>2026-04-11T08:37:09.973Z</time></trkpt><trkpt lat="43.8041233" lon="12.2138867"><ele>389.0</ele><time>2026-04-11T08:37:10.973Z</time></trkpt><trkpt lat="43.8041583" lon="12.213615"><ele>388.0</ele><time>2026-04-11T08:37:11.973Z</time></trkpt><trkpt lat="43.8041967" lon="12.21337"><ele>387.0</ele><time>2026-04-11T08:37:12.973Z</time></trkpt><trkpt lat="43.8042917" lon="12.2131517"><ele>386.0</ele><time>2026-04-11T08:37:13.973Z</time></trkpt><trkpt lat="43.8044017" lon="12.2129517"><ele>388.66666666666663</ele><time>2026-04-11T08:37:14.973Z</time></trkpt><trkpt lat="43.8045133" lon="12.212745"><ele>391.33333333333337</ele><time>2026-04-11T08:37:15.973Z</time></trkpt><trkpt lat="43.80463" lon="12.21253"><ele>394.0</ele><time>2026-04-11T08:37:16.973Z</time></trkpt><trkpt lat="43.8047467" lon="12.212315"><ele>394.0</ele><time>2026-04-11T08:37:17.973Z</time></trkpt><trkpt lat="43.8048583" lon="12.2120933"><ele>394.0</ele><time>2026-04-11T08:37:18.973Z</time></trkpt><trkpt lat="43.80497" lon="12.211865"><ele>394.0</ele><time>2026-04-11T08:37:19.973Z</time></trkpt><trkpt lat="43.80508" lon="12.2116333"><ele>397.6666666666667</ele><time>2026-04-11T08:37:20.973Z</time></trkpt><trkpt lat="43.8051867" lon="12.211405"><ele>401.33333333333337</ele><time>2026-04-11T08:37:21.973Z</time></trkpt><trkpt lat="43.8052983" lon="12.211185"><ele>405.0</ele><time>2026-04-11T08:37:22.974Z</time></trkpt><trkpt lat="43.8054033" lon="12.2109617"><ele>405.0</ele><time>2026-04-11T08:37:23.973Z</time></trkpt><trkpt lat="43.8055167" lon="12.2107417"><ele>405.0</ele><time>2026-04-11T08:37:24.973Z</time></trkpt><trkpt lat="43.805625" lon="12.210525"><ele>405.0</ele><time>2026-04-11T08:37:25.973Z</time></trkpt><trkpt lat="43.80573" lon="12.2103067"><ele>403.33333333333337</ele><time>2026-04-11T08:37:26.973Z</time></trkpt><trkpt lat="43.805825" lon="12.2100883"><ele>401.6666666666667</ele><time>2026-04-11T08:37:27.973Z</time></trkpt><trkpt lat="43.8059117" lon="12.2098567"><ele>400.0</ele><time>2026-04-11T08:37:28.973Z</time></trkpt><trkpt lat="43.8059817" lon="12.2096333"><ele>403.25</ele><time>2026-04-11T08:37:29.973Z</time></trkpt><trkpt lat="43.8060317" lon="12.2094333"><ele>406.5</ele><time>2026-04-11T08:37:30.973Z</time></trkpt><trkpt lat="43.8060717" lon="12.2092517"><ele>409.75</ele><time>2026-04-11T08:37:31.974Z</time></trkpt><trkpt lat="43.806105" lon="12.20909"><ele>413.0</ele><time>2026-04-11T08:37:32.973Z</time></trkpt><trkpt lat="43.806135" lon="12.2089533"><ele>412.99999999999994</ele><time>2026-04-11T08:37:33.973Z</time></trkpt><trkpt lat="43.8061617" lon="12.2088367"><ele>413.0</ele><time>2026-04-11T08:37:34.973Z</time></trkpt><trkpt lat="43.8061833" lon="12.2087283"><ele>413.0</ele><time>2026-04-11T08:37:35.973Z</time></trkpt><trkpt lat="43.8062067" lon="12.2086333"><ele>413.0</ele><time>2026-04-11T08:37:36.974Z</time></trkpt><trkpt lat="43.8062633" lon="12.208585"><ele>412.99999999999994</ele><time>2026-04-11T08:37:55.973Z</time></trkpt><trkpt lat="43.8062633" lon="12.2086767"><ele>413.0</ele><time>2026-04-11T08:37:57.974Z</time></trkpt><trkpt lat="43.8062317" lon="12.208845"><ele>412.99999999999994</ele><time>2026-04-11T08:37:59.974Z</time></trkpt><trkpt lat="43.806225" lon="12.2089433"><ele>413.0</ele><time>2026-04-11T08:38:00.973Z</time></trkpt><trkpt lat="43.8062367" lon="12.2090367"><ele>413.0</ele><time>2026-04-11T08:38:01.973Z</time></trkpt><trkpt lat="43.8062533" lon="12.2091217"><ele>413.0</ele><time>2026-04-11T08:38:02.973Z</time></trkpt><trkpt lat="43.806345" lon="12.2091867"><ele>412.99999999999994</ele><time>2026-04-11T08:38:04.973Z</time></trkpt><trkpt lat="43.8064117" lon="12.2091833"><ele>413.0</ele><time>2026-04-11T08:38:05.973Z</time></trkpt><trkpt lat="43.806495" lon="12.209165"><ele>413.0</ele><time>2026-04-11T08:38:06.973Z</time></trkpt><trkpt lat="43.80659" lon="12.209155"><ele>413.0</ele><time>2026-04-11T08:38:07.973Z</time></trkpt><trkpt lat="43.806695" lon="12.2091583"><ele>413.0</ele><time>2026-04-11T08:38:08.973Z</time></trkpt><trkpt lat="43.8067967" lon="12.2091717"><ele>413.0</ele><time>2026-04-11T08:38:09.973Z</time></trkpt><trkpt lat="43.8069067" lon="12.20919"><ele>413.0</ele><time>2026-04-11T08:38:10.973Z</time></trkpt><trkpt lat="43.8070167" lon="12.2092033"><ele>415.49999999999994</ele><time>2026-04-11T08:38:11.973Z</time></trkpt><trkpt lat="43.8071267" lon="12.2092183"><ele>418.0</ele><time>2026-04-11T08:38:12.973Z</time></trkpt><trkpt lat="43.8072233" lon="12.2092383"><ele>420.5</ele><time>2026-04-11T08:38:13.973Z</time></trkpt><trkpt lat="43.8073017" lon="12.2092617"><ele>423.0</ele><time>2026-04-11T08:38:14.973Z</time></trkpt><trkpt lat="43.807365" lon="12.20931"><ele>425.49999999999994</ele><time>2026-04-11T08:38:15.974Z</time></trkpt><trkpt lat="43.8074433" lon="12.209365"><ele>428.0</ele><time>2026-04-11T08:38:16.974Z</time></trkpt><trkpt lat="43.8075317" lon="12.2094133"><ele>428.0</ele><time>2026-04-11T08:38:17.973Z</time></trkpt><trkpt lat="43.8076367" lon="12.2094517"><ele>427.99999999999994</ele><time>2026-04-11T08:38:18.973Z</time></trkpt><trkpt lat="43.8077317" lon="12.2094733"><ele>427.99999999999994</ele><time>2026-04-11T08:38:19.973Z</time></trkpt><trkpt lat="43.8078017" lon="12.2095067"><ele>428.0</ele><time>2026-04-11T08:38:20.974Z</time></trkpt><trkpt lat="43.8078733" lon="12.2095833"><ele>428.0</ele><time>2026-04-11T08:38:22.973Z</time></trkpt><trkpt lat="43.8077983" lon="12.2096667"><ele>428.0</ele><time>2026-04-11T08:38:25.973Z</time></trkpt><trkpt lat="43.8077033" lon="12.2096733"><ele>427.99999999999994</ele><time>2026-04-11T08:38:27.973Z</time></trkpt><trkpt lat="43.8076233" lon="12.20966"><ele>427.99999999999994</ele><time>2026-04-11T08:38:28.973Z</time></trkpt><trkpt lat="43.8075017" lon="12.20965"><ele>428.0</ele><time>2026-04-11T08:38:29.973Z</time></trkpt><trkpt lat="43.8073767" lon="12.2096483"><ele>428.0</ele><time>2026-04-11T08:38:30.974Z</time></trkpt><trkpt lat="43.807255" lon="12.20966"><ele>428.0</ele><time>2026-04-11T08:38:31.973Z</time></trkpt><trkpt lat="43.80713" lon="12.2096983"><ele>428.0</ele><time>2026-04-11T08:38:32.973Z</time></trkpt><trkpt lat="43.8070017" lon="12.2097633"><ele>428.0</ele><time>2026-04-11T08:38:33.973Z</time></trkpt><trkpt lat="43.8068883" lon="12.2098383"><ele>428.0</ele><time>2026-04-11T08:38:34.973Z</time></trkpt><trkpt lat="43.8067967" lon="12.2099317"><ele>427.79999999999995</ele><time>2026-04-11T08:38:35.973Z</time></trkpt><trkpt lat="43.80672" lon="12.2100567"><ele>427.59999999999997</ele><time>2026-04-11T08:38:36.974Z</time></trkpt><trkpt lat="43.8066717" lon="12.2101683"><ele>427.40000000000003</ele><time>2026-04-11T08:38:37.973Z</time></trkpt><trkpt lat="43.8066433" lon="12.2102967"><ele>427.20000000000005</ele><time>2026-04-11T08:38:39.973Z</time></trkpt><trkpt lat="43.806725" lon="12.210315"><ele>427.0</ele><time>2026-04-11T08:38:42.973Z</time></trkpt><trkpt lat="43.8067867" lon="12.2102883"><ele>429.6666666666667</ele><time>2026-04-11T08:38:43.973Z</time></trkpt><trkpt lat="43.8068533" lon="12.2102533"><ele>432.33333333333337</ele><time>2026-04-11T08:38:44.973Z</time></trkpt><trkpt lat="43.8069233" lon="12.2102067"><ele>435.0</ele><time>2026-04-11T08:38:45.973Z</time></trkpt><trkpt lat="43.8070067" lon="12.2101483"><ele>437.66666666666663</ele><time>2026-04-11T08:38:46.974Z</time></trkpt><trkpt lat="43.807095" lon="12.2101033"><ele>440.3333333333333</ele><time>2026-04-11T08:38:47.974Z</time></trkpt><trkpt lat="43.8071967" lon="12.21007"><ele>443.0</ele><time>2026-04-11T08:38:48.973Z</time></trkpt><trkpt lat="43.8073067" lon="12.2100617"><ele>443.0</ele><time>2026-04-11T08:38:49.973Z</time></trkpt><trkpt lat="43.807425" lon="12.2100733"><ele>443.0</ele><time>2026-04-11T08:38:50.974Z</time></trkpt><trkpt lat="43.8075417" lon="12.2101017"><ele>443.0</ele><time>2026-04-11T08:38:51.973Z</time></trkpt><trkpt lat="43.807655" lon="12.21014"><ele>443.0</ele><time>2026-04-11T08:38:52.973Z</time></trkpt><trkpt lat="43.8077633" lon="12.2101867"><ele>442.75</ele><time>2026-04-11T08:38:53.973Z</time></trkpt><trkpt lat="43.8078667" lon="12.210245"><ele>442.5</ele><time>2026-04-11T08:38:54.973Z</time></trkpt><trkpt lat="43.80797" lon="12.2103083"><ele>442.25</ele><time>2026-04-11T08:38:55.973Z</time></trkpt><trkpt lat="43.808085" lon="12.2103733"><ele>442.0</ele><time>2026-04-11T08:38:56.973Z</time></trkpt><trkpt lat="43.8082083" lon="12.210445"><ele>442.0</ele><time>2026-04-11T08:38:57.973Z</time></trkpt><trkpt lat="43.8083233" lon="12.2105283"><ele>442.0</ele><time>2026-04-11T08:38:58.973Z</time></trkpt><trkpt lat="43.80844" lon="12.2106117"><ele>442.0</ele><time>2026-04-11T08:38:59.973Z</time></trkpt><trkpt lat="43.8085533" lon="12.2107067"><ele>442.0</ele><time>2026-04-11T08:39:00.973Z</time></trkpt><trkpt lat="43.808675" lon="12.2107983"><ele>447.75</ele><time>2026-04-11T08:39:01.973Z</time></trkpt><trkpt lat="43.808805" lon="12.21088"><ele>453.5</ele><time>2026-04-11T08:39:02.973Z</time></trkpt><trkpt lat="43.8089433" lon="12.2109633"><ele>459.25</ele><time>2026-04-11T08:39:03.973Z</time></trkpt><trkpt lat="43.8090833" lon="12.2110367"><ele>465.0</ele><time>2026-04-11T08:39:04.973Z</time></trkpt><trkpt lat="43.8092183" lon="12.2111133"><ele>466.0</ele><time>2026-04-11T08:39:05.973Z</time></trkpt><trkpt lat="43.8093517" lon="12.2111867"><ele>467.0</ele><time>2026-04-11T08:39:06.973Z</time></trkpt><trkpt lat="43.8094767" lon="12.2112533"><ele>468.0</ele><time>2026-04-11T08:39:07.973Z</time></trkpt><trkpt lat="43.8095967" lon="12.2113167"><ele>469.0</ele><time>2026-04-11T08:39:08.973Z</time></trkpt><trkpt lat="43.8097167" lon="12.2113667"><ele>469.0</ele><time>2026-04-11T08:39:09.974Z</time></trkpt><trkpt lat="43.8098433" lon="12.2113983"><ele>469.0</ele><time>2026-04-11T08:39:10.973Z</time></trkpt><trkpt lat="43.8099833" lon="12.2114"><ele>469.0</ele><time>2026-04-11T08:39:11.973Z</time></trkpt><trkpt lat="43.810115" lon="12.211395"><ele>469.0</ele><time>2026-04-11T08:39:12.973Z</time></trkpt><trkpt lat="43.8102217" lon="12.2114033"><ele>472.1666666666667</ele><time>2026-04-11T08:39:13.973Z</time></trkpt><trkpt lat="43.8103" lon="12.2114267"><ele>475.33333333333337</ele><time>2026-04-11T08:39:14.974Z</time></trkpt><trkpt lat="43.8103767" lon="12.21144"><ele>478.5</ele><time>2026-04-11T08:39:15.973Z</time></trkpt><trkpt lat="43.8104517" lon="12.2114867"><ele>481.66666666666663</ele><time>2026-04-11T08:39:17.973Z</time></trkpt><trkpt lat="43.81041" lon="12.2115583"><ele>484.8333333333333</ele><time>2026-04-11T08:39:18.973Z</time></trkpt><trkpt lat="43.810295" lon="12.21165"><ele>488.0</ele><time>2026-04-11T08:39:20.973Z</time></trkpt><trkpt lat="43.8102133" lon="12.211675"><ele>487.99999999999994</ele><time>2026-04-11T08:39:21.973Z</time></trkpt><trkpt lat="43.8101333" lon="12.2116817"><ele>488.0</ele><time>2026-04-11T08:39:22.973Z</time></trkpt><trkpt lat="43.810055" lon="12.21174"><ele>488.0</ele><time>2026-04-11T08:39:24.973Z</time></trkpt><trkpt lat="43.8100817" lon="12.21182"><ele>488.0</ele><time>2026-04-11T08:39:26.973Z</time></trkpt><trkpt lat="43.8101717" lon="12.21186"><ele>487.99999999999994</ele><time>2026-04-11T08:39:28.973Z</time></trkpt><trkpt lat="43.81029" lon="12.2118917"><ele>488.0</ele><time>2026-04-11T08:39:30.974Z</time></trkpt><trkpt lat="43.8103617" lon="12.2119033"><ele>487.99999999999994</ele><time>2026-04-11T08:39:31.973Z</time></trkpt><trkpt lat="43.8104483" lon="12.2119133"><ele>488.0</ele><time>2026-04-11T08:39:32.973Z</time></trkpt><trkpt lat="43.8105267" lon="12.2119483"><ele>488.0</ele><time>2026-04-11T08:39:33.973Z</time></trkpt><trkpt lat="43.8106" lon="12.2119817"><ele>488.0</ele><time>2026-04-11T08:39:34.974Z</time></trkpt><trkpt lat="43.8106833" lon="12.2120317"><ele>487.99999999999994</ele><time>2026-04-11T08:39:35.973Z</time></trkpt><trkpt lat="43.8107567" lon="12.212115"><ele>488.0</ele><time>2026-04-11T08:39:36.974Z</time></trkpt><trkpt lat="43.8108233" lon="12.2122417"><ele>491.0</ele><time>2026-04-11T08:39:37.974Z</time></trkpt><trkpt lat="43.8109033" lon="12.2123833"><ele>494.0</ele><time>2026-04-11T08:39:38.973Z</time></trkpt><trkpt lat="43.8109883" lon="12.212515"><ele>497.0</ele><time>2026-04-11T08:39:39.972Z</time></trkpt><trkpt lat="43.8110783" lon="12.21262"><ele>500.0</ele><time>2026-04-11T08:39:40.972Z</time></trkpt><trkpt lat="43.8111733" lon="12.2127133"><ele>502.0</ele><time>2026-04-11T08:39:41.972Z</time></trkpt><trkpt lat="43.8112783" lon="12.2127867"><ele>504.0</ele><time>2026-04-11T08:39:42.972Z</time></trkpt><trkpt lat="43.8113933" lon="12.21285"><ele>506.0</ele><time>2026-04-11T08:39:43.972Z</time></trkpt><trkpt lat="43.8115233" lon="12.2129"><ele>508.0</ele><time>2026-04-11T08:39:44.973Z</time></trkpt><trkpt lat="43.8116517" lon="12.2129467"><ele>508.0</ele><time>2026-04-11T08:39:45.973Z</time></trkpt><trkpt lat="43.811765" lon="12.212995"><ele>507.99999999999994</ele><time>2026-04-11T08:39:46.972Z</time></trkpt><trkpt lat="43.811875" lon="12.2130383"><ele>507.99999999999994</ele><time>2026-04-11T08:39:47.972Z</time></trkpt><trkpt lat="43.8119783" lon="12.21307"><ele>508.0</ele><time>2026-04-11T08:39:48.973Z</time></trkpt><trkpt lat="43.8120583" lon="12.2130733"><ele>508.0</ele><time>2026-04-11T08:39:49.972Z</time></trkpt><trkpt lat="43.8121417" lon="12.2130367"><ele>512.6</ele><time>2026-04-11T08:39:51.972Z</time></trkpt><trkpt lat="43.812155" lon="12.21286"><ele>517.1999999999999</ele><time>2026-04-11T08:39:53.972Z</time></trkpt><trkpt lat="43.81214" lon="12.2127417"><ele>521.8</ele><time>2026-04-11T08:39:54.972Z</time></trkpt><trkpt lat="43.812115" lon="12.212635"><ele>526.4</ele><time>2026-04-11T08:39:55.972Z</time></trkpt><trkpt lat="43.8121167" lon="12.2124983"><ele>531.0</ele><time>2026-04-11T08:39:57.972Z</time></trkpt><trkpt lat="43.8122" lon="12.21248"><ele>531.0</ele><time>2026-04-11T08:39:59.972Z</time></trkpt><trkpt lat="43.8123017" lon="12.21259"><ele>531.0</ele><time>2026-04-11T08:40:01.972Z</time></trkpt><trkpt lat="43.8123483" lon="12.212685"><ele>531.0</ele><time>2026-04-11T08:40:02.972Z</time></trkpt><trkpt lat="43.8123933" lon="12.2127883"><ele>531.0</ele><time>2026-04-11T08:40:03.972Z</time></trkpt><trkpt lat="43.812435" lon="12.2129033"><ele>531.0</ele><time>2026-04-11T08:40:04.972Z</time></trkpt><trkpt lat="43.8124867" lon="12.213035"><ele>529.75</ele><time>2026-04-11T08:40:05.972Z</time></trkpt><trkpt lat="43.812525" lon="12.2131783"><ele>528.5</ele><time>2026-04-11T08:40:06.972Z</time></trkpt><trkpt lat="43.812565" lon="12.2133217"><ele>527.25</ele><time>2026-04-11T08:40:07.972Z</time></trkpt><trkpt lat="43.8126133" lon="12.2134783"><ele>526.0</ele><time>2026-04-11T08:40:08.973Z</time></trkpt><trkpt lat="43.8126533" lon="12.2136417"><ele>532.8</ele><time>2026-04-11T08:40:09.973Z</time></trkpt><trkpt lat="43.8126967" lon="12.2137967"><ele>539.6</ele><time>2026-04-11T08:40:10.972Z</time></trkpt><trkpt lat="43.8127317" lon="12.2139417"><ele>546.4</ele><time>2026-04-11T08:40:11.973Z</time></trkpt><trkpt lat="43.8127567" lon="12.2140783"><ele>553.2</ele><time>2026-04-11T08:40:12.972Z</time></trkpt><trkpt lat="43.812765" lon="12.2141983"><ele>560.0</ele><time>2026-04-11T08:40:13.972Z</time></trkpt><trkpt lat="43.8127567" lon="12.21431"><ele>560.0</ele><time>2026-04-11T08:40:14.972Z</time></trkpt><trkpt lat="43.81273" lon="12.2144067"><ele>560.0</ele><time>2026-04-11T08:40:15.973Z</time></trkpt><trkpt lat="43.812645" lon="12.2145033"><ele>560.0</ele><time>2026-04-11T08:40:17.972Z</time></trkpt><trkpt lat="43.8125717" lon="12.2145317"><ele>560.0</ele><time>2026-04-11T08:40:18.972Z</time></trkpt><trkpt lat="43.8125133" lon="12.2145667"><ele>560.0</ele><time>2026-04-11T08:40:19.972Z</time></trkpt><trkpt lat="43.8124483" lon="12.2146817"><ele>560.0</ele><time>2026-04-11T08:40:21.973Z</time></trkpt><trkpt lat="43.8124683" lon="12.2148567"><ele>557.5</ele><time>2026-04-11T08:40:23.972Z</time></trkpt><trkpt lat="43.8124983" lon="12.214965"><ele>555.0</ele><time>2026-04-11T08:40:24.973Z</time></trkpt><trkpt lat="43.8125317" lon="12.215075"><ele>552.5</ele><time>2026-04-11T08:40:25.972Z</time></trkpt><trkpt lat="43.81256" lon="12.215185"><ele>550.0</ele><time>2026-04-11T08:40:26.972Z</time></trkpt><trkpt lat="43.812575" lon="12.215295"><ele>547.5</ele><time>2026-04-11T08:40:27.972Z</time></trkpt><trkpt lat="43.8125767" lon="12.2153883"><ele>545.0</ele><time>2026-04-11T08:40:28.972Z</time></trkpt><trkpt lat="43.8125083" lon="12.21549"><ele>545.0</ele><time>2026-04-11T08:40:30.972Z</time></trkpt><trkpt lat="43.8123867" lon="12.215495"><ele>545.0</ele><time>2026-04-11T08:40:32.973Z</time></trkpt><trkpt lat="43.8123" lon="12.2154833"><ele>545.0</ele><time>2026-04-11T08:40:33.972Z</time></trkpt><trkpt lat="43.8122033" lon="12.2154467"><ele>545.0</ele><time>2026-04-11T08:40:34.972Z</time></trkpt><trkpt lat="43.8120983" lon="12.2153917"><ele>545.0</ele><time>2026-04-11T08:40:35.972Z</time></trkpt><trkpt lat="43.81199" lon="12.2153383"><ele>545.0</ele><time>2026-04-11T08:40:36.973Z</time></trkpt><trkpt lat="43.811885" lon="12.2152733"><ele>545.0</ele><time>2026-04-11T08:40:37.972Z</time></trkpt><trkpt lat="43.8117833" lon="12.2152"><ele>545.0</ele><time>2026-04-11T08:40:38.972Z</time></trkpt><trkpt lat="43.811685" lon="12.2151283"><ele>545.0</ele><time>2026-04-11T08:40:39.972Z</time></trkpt><trkpt lat="43.8115883" lon="12.21508"><ele>545.0</ele><time>2026-04-11T08:40:40.972Z</time></trkpt><trkpt lat="43.8114867" lon="12.2150433"><ele>546.0</ele><time>2026-04-11T08:40:41.972Z</time></trkpt><trkpt lat="43.811385" lon="12.215"><ele>547.0</ele><time>2026-04-11T08:40:42.972Z</time></trkpt><trkpt lat="43.8112867" lon="12.214945"><ele>548.0</ele><time>2026-04-11T08:40:43.973Z</time></trkpt><trkpt lat="43.8111983" lon="12.214875"><ele>549.0</ele><time>2026-04-11T08:40:44.972Z</time></trkpt><trkpt lat="43.8111167" lon="12.2147933"><ele>550.0</ele><time>2026-04-11T08:40:45.972Z</time></trkpt><trkpt lat="43.8110617" lon="12.2146817"><ele>550.2</ele><time>2026-04-11T08:40:46.972Z</time></trkpt><trkpt lat="43.81103" lon="12.2145767"><ele>550.4</ele><time>2026-04-11T08:40:47.972Z</time></trkpt><trkpt lat="43.8109967" lon="12.214485"><ele>550.6</ele><time>2026-04-11T08:40:48.973Z</time></trkpt><trkpt lat="43.8109283" lon="12.2143917"><ele>550.8</ele><time>2026-04-11T08:40:50.972Z</time></trkpt><trkpt lat="43.8108217" lon="12.2144567"><ele>551.0</ele><time>2026-04-11T08:40:52.973Z</time></trkpt><trkpt lat="43.810745" lon="12.2145183"><ele>551.0</ele><time>2026-04-11T08:40:53.972Z</time></trkpt><trkpt lat="43.8106667" lon="12.2145883"><ele>551.0</ele><time>2026-04-11T08:40:54.972Z</time></trkpt><trkpt lat="43.8105817" lon="12.2146483"><ele>551.0</ele><time>2026-04-11T08:40:55.972Z</time></trkpt><trkpt lat="43.810495" lon="12.2147017"><ele>551.0</ele><time>2026-04-11T08:40:56.972Z</time></trkpt><trkpt lat="43.8104167" lon="12.2147433"><ele>551.0</ele><time>2026-04-11T08:40:57.972Z</time></trkpt><trkpt lat="43.8103067" lon="12.2148083"><ele>551.0</ele><time>2026-04-11T08:40:59.972Z</time></trkpt><trkpt lat="43.81024" lon="12.214835"><ele>551.0</ele><time>2026-04-11T08:41:01.972Z</time></trkpt><trkpt lat="43.8101617" lon="12.21481"><ele>551.0</ele><time>2026-04-11T08:41:03.972Z</time></trkpt><trkpt lat="43.81009" lon="12.21477"><ele>551.0</ele><time>2026-04-11T08:41:05.972Z</time></trkpt><trkpt lat="43.8099917" lon="12.2147367"><ele>551.0</ele><time>2026-04-11T08:41:07.972Z</time></trkpt><trkpt lat="43.8098883" lon="12.2147033"><ele>551.0</ele><time>2026-04-11T08:41:09.972Z</time></trkpt><trkpt lat="43.8097733" lon="12.2146583"><ele>550.6</ele><time>2026-04-11T08:41:11.972Z</time></trkpt><trkpt lat="43.8096683" lon="12.2146233"><ele>550.2</ele><time>2026-04-11T08:41:13.972Z</time></trkpt><trkpt lat="43.8095717" lon="12.2145817"><ele>549.8</ele><time>2026-04-11T08:41:15.972Z</time></trkpt><trkpt lat="43.8094933" lon="12.2145017"><ele>549.4</ele><time>2026-04-11T08:41:17.972Z</time></trkpt><trkpt lat="43.8094283" lon="12.21443"><ele>549.0</ele><time>2026-04-11T08:41:19.972Z</time></trkpt><trkpt lat="43.8093583" lon="12.214385"><ele>549.0</ele><time>2026-04-11T08:41:21.972Z</time></trkpt><trkpt lat="43.8093033" lon="12.2143417"><ele>549.0</ele><time>2026-04-11T08:41:23.973Z</time></trkpt><trkpt lat="43.8093983" lon="12.21444"><ele>549.0</ele><time>2026-04-11T08:42:00.972Z</time></trkpt><trkpt lat="43.8094933" lon="12.21451"><ele>549.0</ele><time>2026-04-11T08:42:02.972Z</time></trkpt><trkpt lat="43.80957" lon="12.214595"><ele>549.0</ele><time>2026-04-11T08:42:04.972Z</time></trkpt><trkpt lat="43.8096267" lon="12.2146333"><ele>549.0</ele><time>2026-04-11T08:42:06.972Z</time></trkpt><trkpt lat="43.809695" lon="12.2146583"><ele>549.0</ele><time>2026-04-11T08:42:09.972Z</time></trkpt><trkpt lat="43.8097717" lon="12.21466"><ele>549.0</ele><time>2026-04-11T08:43:53.971Z</time></trkpt><trkpt lat="43.80989" lon="12.2147167"><ele>549.0</ele><time>2026-04-11T08:43:55.971Z</time></trkpt><trkpt lat="43.8099517" lon="12.2147417"><ele>549.0</ele><time>2026-04-11T08:43:56.971Z</time></trkpt><trkpt lat="43.8100533" lon="12.214775"><ele>549.0</ele><time>2026-04-11T08:43:58.972Z</time></trkpt><trkpt lat="43.810145" lon="12.2148233"><ele>551.8333333333334</ele><time>2026-04-11T08:44:00.971Z</time></trkpt><trkpt lat="43.8102483" lon="12.2148633"><ele>554.6666666666666</ele><time>2026-04-11T08:44:02.972Z</time></trkpt><trkpt lat="43.8103167" lon="12.2149"><ele>557.5</ele><time>2026-04-11T08:44:03.972Z</time></trkpt><trkpt lat="43.8103833" lon="12.2149433"><ele>560.3333333333333</ele><time>2026-04-11T08:44:04.971Z</time></trkpt><trkpt lat="43.8104517" lon="12.2149817"><ele>563.1666666666666</ele><time>2026-04-11T08:44:05.971Z</time></trkpt><trkpt lat="43.8105233" lon="12.2150217"><ele>566.0</ele><time>2026-04-11T08:44:06.971Z</time></trkpt><trkpt lat="43.8105983" lon="12.21506"><ele>566.0</ele><time>2026-04-11T08:44:07.971Z</time></trkpt><trkpt lat="43.8106667" lon="12.215105"><ele>566.0</ele><time>2026-04-11T08:44:08.971Z</time></trkpt><trkpt lat="43.8107383" lon="12.21513"><ele>566.0</ele><time>2026-04-11T08:44:09.971Z</time></trkpt><trkpt lat="43.810815" lon="12.2151383"><ele>566.0</ele><time>2026-04-11T08:44:10.971Z</time></trkpt><trkpt lat="43.810885" lon="12.2151533"><ele>566.0</ele><time>2026-04-11T08:44:11.971Z</time></trkpt><trkpt lat="43.810965" lon="12.2151717"><ele>566.0</ele><time>2026-04-11T08:44:12.971Z</time></trkpt><trkpt lat="43.81104" lon="12.2152017"><ele>563.7142857142858</ele><time>2026-04-11T08:44:13.972Z</time></trkpt><trkpt lat="43.8111117" lon="12.2152333"><ele>561.4285714285714</ele><time>2026-04-11T08:44:14.972Z</time></trkpt><trkpt lat="43.81117" lon="12.2152767"><ele>559.1428571428571</ele><time>2026-04-11T08:44:15.972Z</time></trkpt><trkpt lat="43.8112417" lon="12.21532"><ele>556.8571428571429</ele><time>2026-04-11T08:44:16.971Z</time></trkpt><trkpt lat="43.8113083" lon="12.2153683"><ele>554.5714285714286</ele><time>2026-04-11T08:44:17.971Z</time></trkpt><trkpt lat="43.8113733" lon="12.2154167"><ele>552.2857142857143</ele><time>2026-04-11T08:44:18.972Z</time></trkpt><trkpt lat="43.811435" lon="12.2154517"><ele>550.0</ele><time>2026-04-11T08:44:19.971Z</time></trkpt><trkpt lat="43.811495" lon="12.215485"><ele>550.0</ele><time>2026-04-11T08:44:20.971Z</time></trkpt><trkpt lat="43.8115517" lon="12.2155283"><ele>550.0</ele><time>2026-04-11T08:44:21.971Z</time></trkpt><trkpt lat="43.811645" lon="12.2156367"><ele>550.0</ele><time>2026-04-11T08:44:23.971Z</time></trkpt><trkpt lat="43.8116933" lon="12.2156967"><ele>550.0</ele><time>2026-04-11T08:44:24.971Z</time></trkpt><trkpt lat="43.8117433" lon="12.21576"><ele>550.0</ele><time>2026-04-11T08:44:25.971Z</time></trkpt><trkpt lat="43.8118" lon="12.2158333"><ele>550.0</ele><time>2026-04-11T08:44:26.971Z</time></trkpt><trkpt lat="43.8118633" lon="12.2159017"><ele>552.3333333333334</ele><time>2026-04-11T08:44:27.971Z</time></trkpt><trkpt lat="43.811935" lon="12.2159683"><ele>554.6666666666667</ele><time>2026-04-11T08:44:28.971Z</time></trkpt><trkpt lat="43.8120017" lon="12.21603"><ele>557.0</ele><time>2026-04-11T08:44:29.971Z</time></trkpt><trkpt lat="43.8120717" lon="12.2160967"><ele>559.3333333333334</ele><time>2026-04-11T08:44:30.971Z</time></trkpt><trkpt lat="43.8121417" lon="12.2161533"><ele>561.6666666666666</ele><time>2026-04-11T08:44:31.971Z</time></trkpt><trkpt lat="43.812215" lon="12.21621"><ele>564.0</ele><time>2026-04-11T08:44:32.971Z</time></trkpt><trkpt lat="43.81229" lon="12.2162617"><ele>564.0</ele><time>2026-04-11T08:44:33.971Z</time></trkpt><trkpt lat="43.8123617" lon="12.21631"><ele>564.0</ele><time>2026-04-11T08:44:34.971Z</time></trkpt><trkpt lat="43.8124367" lon="12.2163567"><ele>564.0</ele><time>2026-04-11T08:44:35.971Z</time></trkpt><trkpt lat="43.81251" lon="12.2163967"><ele>564.0</ele><time>2026-04-11T08:44:36.971Z</time></trkpt><trkpt lat="43.8125833" lon="12.2164417"><ele>564.0</ele><time>2026-04-11T08:44:37.971Z</time></trkpt><trkpt lat="43.8126633" lon="12.2164817"><ele>564.0</ele><time>2026-04-11T08:44:38.971Z</time></trkpt><trkpt lat="43.81275" lon="12.2165217"><ele>568.3333333333334</ele><time>2026-04-11T08:44:39.971Z</time></trkpt><trkpt lat="43.8128417" lon="12.2165617"><ele>572.6666666666666</ele><time>2026-04-11T08:44:40.972Z</time></trkpt><trkpt lat="43.8129283" lon="12.216595"><ele>577.0</ele><time>2026-04-11T08:44:41.971Z</time></trkpt><trkpt lat="43.8130083" lon="12.2166133"><ele>581.3333333333333</ele><time>2026-04-11T08:44:42.971Z</time></trkpt><trkpt lat="43.8130933" lon="12.2166117"><ele>585.6666666666666</ele><time>2026-04-11T08:44:43.971Z</time></trkpt><trkpt lat="43.8131667" lon="12.2166067"><ele>590.0</ele><time>2026-04-11T08:44:44.971Z</time></trkpt><trkpt lat="43.81323" lon="12.2166017"><ele>590.0</ele><time>2026-04-11T08:44:45.971Z</time></trkpt><trkpt lat="43.8133533" lon="12.2165717"><ele>590.0</ele><time>2026-04-11T08:44:47.971Z</time></trkpt><trkpt lat="43.81342" lon="12.216545"><ele>590.0</ele><time>2026-04-11T08:44:48.971Z</time></trkpt><trkpt lat="43.81353" lon="12.2164783"><ele>590.0</ele><time>2026-04-11T08:44:50.971Z</time></trkpt><trkpt lat="43.8135867" lon="12.216425"><ele>590.0</ele><time>2026-04-11T08:44:51.971Z</time></trkpt><trkpt lat="43.813645" lon="12.2163433"><ele>594.0</ele><time>2026-04-11T08:44:52.971Z</time></trkpt><trkpt lat="43.8136917" lon="12.21625"><ele>598.0</ele><time>2026-04-11T08:44:53.971Z</time></trkpt><trkpt lat="43.8137233" lon="12.2161583"><ele>602.0</ele><time>2026-04-11T08:44:54.971Z</time></trkpt><trkpt lat="43.8137333" lon="12.2160617"><ele>606.0</ele><time>2026-04-11T08:44:55.971Z</time></trkpt><trkpt lat="43.813745" lon="12.2159583"><ele>610.0</ele><time>2026-04-11T08:44:56.971Z</time></trkpt><trkpt lat="43.8137583" lon="12.215845"><ele>614.0</ele><time>2026-04-11T08:44:57.971Z</time></trkpt><trkpt lat="43.8137833" lon="12.2157283"><ele>612.3333333333333</ele><time>2026-04-11T08:44:58.971Z</time></trkpt><trkpt lat="43.8138067" lon="12.2156233"><ele>610.6666666666666</ele><time>2026-04-11T08:44:59.972Z</time></trkpt><trkpt lat="43.8138467" lon="12.2155317"><ele>609.0</ele><time>2026-04-11T08:45:00.971Z</time></trkpt><trkpt lat="43.813895" lon="12.2154517"><ele>607.3333333333334</ele><time>2026-04-11T08:45:01.971Z</time></trkpt><trkpt lat="43.8139533" lon="12.2153767"><ele>605.6666666666667</ele><time>2026-04-11T08:45:02.971Z</time></trkpt><trkpt lat="43.81402" lon="12.2153083"><ele>604.0</ele><time>2026-04-11T08:45:03.972Z</time></trkpt><trkpt lat="43.8140817" lon="12.215235"><ele>604.0</ele><time>2026-04-11T08:45:04.971Z</time></trkpt><trkpt lat="43.8141183" lon="12.2151283"><ele>604.0</ele><time>2026-04-11T08:45:05.971Z</time></trkpt><trkpt lat="43.8141433" lon="12.215015"><ele>604.0</ele><time>2026-04-11T08:45:06.972Z</time></trkpt><trkpt lat="43.8141617" lon="12.2149033"><ele>604.0</ele><time>2026-04-11T08:45:07.972Z</time></trkpt><trkpt lat="43.81418" lon="12.2147833"><ele>604.0</ele><time>2026-04-11T08:45:08.971Z</time></trkpt><trkpt lat="43.8142033" lon="12.2146767"><ele>604.0</ele><time>2026-04-11T08:45:09.971Z</time></trkpt><trkpt lat="43.814225" lon="12.2145567"><ele>602.6</ele><time>2026-04-11T08:45:10.972Z</time></trkpt><trkpt lat="43.81424" lon="12.2144283"><ele>601.2</ele><time>2026-04-11T08:45:11.971Z</time></trkpt><trkpt lat="43.814255" lon="12.2142983"><ele>599.8000000000001</ele><time>2026-04-11T08:45:12.971Z</time></trkpt><trkpt lat="43.8142617" lon="12.21417"><ele>598.4</ele><time>2026-04-11T08:45:13.971Z</time></trkpt><trkpt lat="43.8142617" lon="12.2140683"><ele>597.0</ele><time>2026-04-11T08:45:14.971Z</time></trkpt><trkpt lat="43.8142517" lon="12.2139117"><ele>595.8333333333334</ele><time>2026-04-11T08:45:16.971Z</time></trkpt><trkpt lat="43.8142483" lon="12.21381"><ele>594.6666666666666</ele><time>2026-04-11T08:45:19.971Z</time></trkpt><trkpt lat="43.81422" lon="12.213725"><ele>593.5</ele><time>2026-04-11T08:47:43.971Z</time></trkpt><trkpt lat="43.8141833" lon="12.2136233"><ele>592.3333333333333</ele><time>2026-04-11T08:47:45.97Z</time></trkpt><trkpt lat="43.814155" lon="12.213495"><ele>591.1666666666666</ele><time>2026-04-11T08:47:47.971Z</time></trkpt><trkpt lat="43.8141233" lon="12.2133783"><ele>590.0</ele><time>2026-04-11T08:47:49.97Z</time></trkpt><trkpt lat="43.8141017" lon="12.21324"><ele>589.8333333333333</ele><time>2026-04-11T08:47:51.97Z</time></trkpt><trkpt lat="43.814075" lon="12.2130717"><ele>589.6666666666666</ele><time>2026-04-11T08:47:53.971Z</time></trkpt><trkpt lat="43.814065" lon="12.2129767"><ele>589.5</ele><time>2026-04-11T08:47:54.97Z</time></trkpt><trkpt lat="43.814065" lon="12.2128833"><ele>589.3333333333334</ele><time>2026-04-11T08:47:55.97Z</time></trkpt><trkpt lat="43.8140567" lon="12.2127833"><ele>589.1666666666667</ele><time>2026-04-11T08:47:56.97Z</time></trkpt><trkpt lat="43.814045" lon="12.2126967"><ele>589.0</ele><time>2026-04-11T08:47:57.97Z</time></trkpt><trkpt lat="43.814035" lon="12.2126033"><ele>589.0</ele><time>2026-04-11T08:47:58.97Z</time></trkpt><trkpt lat="43.8140317" lon="12.212515"><ele>589.0</ele><time>2026-04-11T08:47:59.97Z</time></trkpt><trkpt lat="43.8140167" lon="12.212335"><ele>589.0</ele><time>2026-04-11T08:48:01.97Z</time></trkpt><trkpt lat="43.8140067" lon="12.21219"><ele>589.0</ele><time>2026-04-11T08:48:03.97Z</time></trkpt><trkpt lat="43.81398" lon="12.2120617"><ele>589.0</ele><time>2026-04-11T08:48:05.97Z</time></trkpt><trkpt lat="43.8139683" lon="12.2118833"><ele>590.5</ele><time>2026-04-11T08:48:07.97Z</time></trkpt><trkpt lat="43.8139783" lon="12.2117867"><ele>592.0</ele><time>2026-04-11T08:48:08.97Z</time></trkpt><trkpt lat="43.8139783" lon="12.2116917"><ele>593.5</ele><time>2026-04-11T08:48:09.97Z</time></trkpt><trkpt lat="43.8139717" lon="12.2115967"><ele>595.0</ele><time>2026-04-11T08:48:10.97Z</time></trkpt><trkpt lat="43.8139717" lon="12.2115"><ele>596.5</ele><time>2026-04-11T08:48:11.97Z</time></trkpt><trkpt lat="43.8139817" lon="12.2113317"><ele>598.0</ele><time>2026-04-11T08:48:13.97Z</time></trkpt><trkpt lat="43.813995" lon="12.2112417"><ele>600.8333333333334</ele><time>2026-04-11T08:48:14.97Z</time></trkpt><trkpt lat="43.8140117" lon="12.2111483"><ele>603.6666666666667</ele><time>2026-04-11T08:48:15.97Z</time></trkpt><trkpt lat="43.8140483" lon="12.2109867"><ele>606.5</ele><time>2026-04-11T08:48:17.971Z</time></trkpt><trkpt lat="43.8140683" lon="12.2108983"><ele>609.3333333333334</ele><time>2026-04-11T08:48:18.97Z</time></trkpt><trkpt lat="43.814075" lon="12.21081"><ele>612.1666666666666</ele><time>2026-04-11T08:48:19.971Z</time></trkpt><trkpt lat="43.8140883" lon="12.2107133"><ele>615.0</ele><time>2026-04-11T08:48:20.97Z</time></trkpt><trkpt lat="43.8141" lon="12.210615"><ele>615.6666666666666</ele><time>2026-04-11T08:48:21.97Z</time></trkpt><trkpt lat="43.8141167" lon="12.2105167"><ele>616.3333333333334</ele><time>2026-04-11T08:48:22.97Z</time></trkpt><trkpt lat="43.814135" lon="12.2104283"><ele>617.0</ele><time>2026-04-11T08:48:23.97Z</time></trkpt><trkpt lat="43.8141633" lon="12.210315"><ele>617.6666666666667</ele><time>2026-04-11T08:48:25.97Z</time></trkpt><trkpt lat="43.8141917" lon="12.2102233"><ele>618.3333333333334</ele><time>2026-04-11T08:48:29.97Z</time></trkpt><trkpt lat="43.8142317" lon="12.210125"><ele>619.0</ele><time>2026-04-11T08:48:31.97Z</time></trkpt><trkpt lat="43.8142683" lon="12.210035"><ele>619.0</ele><time>2026-04-11T08:48:34.97Z</time></trkpt><trkpt lat="43.8143067" lon="12.209905"><ele>619.0</ele><time>2026-04-11T08:48:37.97Z</time></trkpt><trkpt lat="43.8143167" lon="12.20976"><ele>619.0</ele><time>2026-04-11T08:48:39.97Z</time></trkpt><trkpt lat="43.8143417" lon="12.2096183"><ele>619.0</ele><time>2026-04-11T08:48:41.97Z</time></trkpt><trkpt lat="43.8143567" lon="12.20946"><ele>619.0</ele><time>2026-04-11T08:48:43.97Z</time></trkpt><trkpt lat="43.8143733" lon="12.2093033"><ele>616.6</ele><time>2026-04-11T08:48:45.97Z</time></trkpt><trkpt lat="43.8144017" lon="12.2091333"><ele>614.2</ele><time>2026-04-11T08:48:47.97Z</time></trkpt><trkpt lat="43.81441" lon="12.20903"><ele>611.8000000000001</ele><time>2026-04-11T08:48:49.97Z</time></trkpt><trkpt lat="43.8144383" lon="12.2089183"><ele>609.4</ele><time>2026-04-11T08:49:34.971Z</time></trkpt><trkpt lat="43.8144867" lon="12.20877"><ele>607.0</ele><time>2026-04-11T08:49:36.971Z</time></trkpt><trkpt lat="43.8145417" lon="12.2086167"><ele>607.0</ele><time>2026-04-11T08:49:38.97Z</time></trkpt><trkpt lat="43.814575" lon="12.2084733"><ele>607.0</ele><time>2026-04-11T08:49:40.971Z</time></trkpt><trkpt lat="43.8146083" lon="12.20833"><ele>607.0</ele><time>2026-04-11T08:49:42.97Z</time></trkpt><trkpt lat="43.8146217" lon="12.2082133"><ele>607.0</ele><time>2026-04-11T08:49:44.97Z</time></trkpt><trkpt lat="43.814625" lon="12.2081067"><ele>607.0</ele><time>2026-04-11T08:49:46.97Z</time></trkpt><trkpt lat="43.8146233" lon="12.2079467"><ele>607.6</ele><time>2026-04-11T08:49:48.971Z</time></trkpt><trkpt lat="43.8146283" lon="12.2077783"><ele>608.2</ele><time>2026-04-11T08:49:50.97Z</time></trkpt><trkpt lat="43.814635" lon="12.207625"><ele>608.8</ele><time>2026-04-11T08:49:52.97Z</time></trkpt><trkpt lat="43.8146433" lon="12.2074983"><ele>609.4</ele><time>2026-04-11T08:49:54.97Z</time></trkpt><trkpt lat="43.8146417" lon="12.2074033"><ele>610.0</ele><time>2026-04-11T08:49:56.97Z</time></trkpt><trkpt lat="43.8146567" lon="12.2072817"><ele>612.4</ele><time>2026-04-11T08:49:59.97Z</time></trkpt><trkpt lat="43.8146767" lon="12.2071717"><ele>614.8</ele><time>2026-04-11T08:50:01.97Z</time></trkpt><trkpt lat="43.8146867" lon="12.2070233"><ele>617.2</ele><time>2026-04-11T08:50:03.971Z</time></trkpt><trkpt lat="43.81467" lon="12.20687"><ele>619.6</ele><time>2026-04-11T08:50:05.97Z</time></trkpt><trkpt lat="43.8146383" lon="12.2067217"><ele>622.0</ele><time>2026-04-11T08:50:07.97Z</time></trkpt><trkpt lat="43.8146133" lon="12.2065967"><ele>623.0</ele><time>2026-04-11T08:50:09.97Z</time></trkpt><trkpt lat="43.8145717" lon="12.2064783"><ele>624.0</ele><time>2026-04-11T08:50:11.97Z</time></trkpt><trkpt lat="43.8145083" lon="12.2063583"><ele>625.0</ele><time>2026-04-11T08:50:13.97Z</time></trkpt><trkpt lat="43.814445" lon="12.2062533"><ele>626.0</ele><time>2026-04-11T08:50:15.97Z</time></trkpt><trkpt lat="43.8143583" lon="12.206135"><ele>627.0</ele><time>2026-04-11T08:50:17.97Z</time></trkpt><trkpt lat="43.8143083" lon="12.2060717"><ele>620.4</ele><time>2026-04-11T08:50:18.97Z</time></trkpt><trkpt lat="43.8142167" lon="12.2059817"><ele>613.8000000000001</ele><time>2026-04-11T08:50:20.97Z</time></trkpt><trkpt lat="43.8141483" lon="12.2059117"><ele>607.2</ele><time>2026-04-11T08:50:22.97Z</time></trkpt><trkpt lat="43.814085" lon="12.2058517"><ele>600.6</ele><time>2026-04-11T08:50:24.97Z</time></trkpt><trkpt lat="43.81402" lon="12.205765"><ele>594.0</ele><time>2026-04-11T08:50:26.97Z</time></trkpt><trkpt lat="43.8139567" lon="12.2056717"><ele>592.1428571428571</ele><time>2026-04-11T08:50:28.97Z</time></trkpt><trkpt lat="43.813895" lon="12.205605"><ele>590.2857142857143</ele><time>2026-04-11T08:50:30.97Z</time></trkpt><trkpt lat="43.813825" lon="12.2055767"><ele>588.4285714285714</ele><time>2026-04-11T08:50:48.97Z</time></trkpt><trkpt lat="43.8137617" lon="12.2055633"><ele>586.5714285714286</ele><time>2026-04-11T08:50:50.97Z</time></trkpt><trkpt lat="43.813695" lon="12.2055417"><ele>584.7142857142858</ele><time>2026-04-11T08:50:52.97Z</time></trkpt><trkpt lat="43.8136283" lon="12.205525"><ele>582.8571428571429</ele><time>2026-04-11T08:51:34.969Z</time></trkpt><trkpt lat="43.813545" lon="12.2055033"><ele>581.0</ele><time>2026-04-11T08:51:37.969Z</time></trkpt><trkpt lat="43.8134383" lon="12.20547"><ele>579.4</ele><time>2026-04-11T08:51:39.969Z</time></trkpt><trkpt lat="43.81334" lon="12.20542"><ele>577.8</ele><time>2026-04-11T08:51:41.969Z</time></trkpt><trkpt lat="43.81326" lon="12.2053517"><ele>576.1999999999999</ele><time>2026-04-11T08:51:43.969Z</time></trkpt><trkpt lat="43.813205" lon="12.20526"><ele>574.6</ele><time>2026-04-11T08:51:45.969Z</time></trkpt><trkpt lat="43.81317" lon="12.205145"><ele>573.0</ele><time>2026-04-11T08:51:47.969Z</time></trkpt><trkpt lat="43.8131333" lon="12.2049933"><ele>573.0</ele><time>2026-04-11T08:51:49.969Z</time></trkpt><trkpt lat="43.8131133" lon="12.2049033"><ele>573.0</ele><time>2026-04-11T08:51:50.969Z</time></trkpt><trkpt lat="43.8130933" lon="12.204815"><ele>573.0</ele><time>2026-04-11T08:51:51.969Z</time></trkpt><trkpt lat="43.813065" lon="12.20467"><ele>573.0</ele><time>2026-04-11T08:51:53.969Z</time></trkpt><trkpt lat="43.8130433" lon="12.20457"><ele>573.0</ele><time>2026-04-11T08:51:55.969Z</time></trkpt><trkpt lat="43.8129983" lon="12.2044533"><ele>573.0</ele><time>2026-04-11T08:52:10.969Z</time></trkpt><trkpt lat="43.812955" lon="12.20437"><ele>569.0</ele><time>2026-04-11T08:52:11.969Z</time></trkpt><trkpt lat="43.812915" lon="12.2042983"><ele>565.0</ele><time>2026-04-11T08:52:12.969Z</time></trkpt><trkpt lat="43.81284" lon="12.2041817"><ele>561.0</ele><time>2026-04-11T08:52:14.969Z</time></trkpt><trkpt lat="43.8127617" lon="12.2040617"><ele>557.0</ele><time>2026-04-11T08:52:16.969Z</time></trkpt><trkpt lat="43.8126733" lon="12.2039933"><ele>553.0</ele><time>2026-04-11T08:52:18.969Z</time></trkpt><trkpt lat="43.8125917" lon="12.203925"><ele>551.0</ele><time>2026-04-11T08:52:20.969Z</time></trkpt><trkpt lat="43.812515" lon="12.2038117"><ele>549.0</ele><time>2026-04-11T08:52:22.969Z</time></trkpt><trkpt lat="43.812465" lon="12.2037483"><ele>547.0</ele><time>2026-04-11T08:52:23.969Z</time></trkpt><trkpt lat="43.812415" lon="12.2036933"><ele>545.0</ele><time>2026-04-11T08:52:24.969Z</time></trkpt><trkpt lat="43.8123383" lon="12.2035917"><ele>543.0</ele><time>2026-04-11T08:52:26.969Z</time></trkpt><trkpt lat="43.8122733" lon="12.2034583"><ele>543.0</ele><time>2026-04-11T08:52:28.969Z</time></trkpt><trkpt lat="43.8122033" lon="12.2033467"><ele>543.0</ele><time>2026-04-11T08:52:30.969Z</time></trkpt><trkpt lat="43.812125" lon="12.2032833"><ele>543.0</ele><time>2026-04-11T08:52:32.969Z</time></trkpt><trkpt lat="43.8120633" lon="12.2032617"><ele>543.0</ele><time>2026-04-11T08:52:34.969Z</time></trkpt><trkpt lat="43.8120933" lon="12.2031683"><ele>543.0</ele><time>2026-04-11T08:53:11.969Z</time></trkpt><trkpt lat="43.8121767" lon="12.20316"><ele>543.0</ele><time>2026-04-11T08:53:13.969Z</time></trkpt><trkpt lat="43.8122717" lon="12.2031933"><ele>543.0</ele><time>2026-04-11T08:53:15.97Z</time></trkpt><trkpt lat="43.8123817" lon="12.2032683"><ele>543.0</ele><time>2026-04-11T08:53:17.97Z</time></trkpt><trkpt lat="43.8124367" lon="12.2033117"><ele>543.0</ele><time>2026-04-11T08:53:18.97Z</time></trkpt><trkpt lat="43.8124933" lon="12.2033583"><ele>543.0</ele><time>2026-04-11T08:53:19.969Z</time></trkpt><trkpt lat="43.8125583" lon="12.2034067"><ele>543.0</ele><time>2026-04-11T08:53:20.969Z</time></trkpt><trkpt lat="43.8126217" lon="12.2034417"><ele>543.0</ele><time>2026-04-11T08:53:21.969Z</time></trkpt><trkpt lat="43.812695" lon="12.2034517"><ele>540.8</ele><time>2026-04-11T08:53:22.969Z</time></trkpt><trkpt lat="43.8127617" lon="12.20345"><ele>538.5999999999999</ele><time>2026-04-11T08:53:23.969Z</time></trkpt><trkpt lat="43.8128283" lon="12.2034333"><ele>536.4000000000001</ele><time>2026-04-11T08:53:24.969Z</time></trkpt><trkpt lat="43.8129317" lon="12.2033917"><ele>534.2</ele><time>2026-04-11T08:53:26.969Z</time></trkpt><trkpt lat="43.8130383" lon="12.2033967"><ele>532.0</ele><time>2026-04-11T08:53:28.969Z</time></trkpt><trkpt lat="43.8131433" lon="12.2034617"><ele>532.0</ele><time>2026-04-11T08:53:30.969Z</time></trkpt><trkpt lat="43.813195" lon="12.203515"><ele>532.0</ele><time>2026-04-11T08:53:31.969Z</time></trkpt><trkpt lat="43.8132483" lon="12.2035783"><ele>532.0</ele><time>2026-04-11T08:53:32.969Z</time></trkpt><trkpt lat="43.8132967" lon="12.2036433"><ele>532.0</ele><time>2026-04-11T08:53:33.969Z</time></trkpt><trkpt lat="43.8133433" lon="12.2037033"><ele>532.0</ele><time>2026-04-11T08:53:34.969Z</time></trkpt><trkpt lat="43.8134283" lon="12.2037583"><ele>532.0</ele><time>2026-04-11T08:53:36.97Z</time></trkpt><trkpt lat="43.8135533" lon="12.2037167"><ele>535.8000000000001</ele><time>2026-04-11T08:53:38.969Z</time></trkpt><trkpt lat="43.813615" lon="12.2036783"><ele>539.6</ele><time>2026-04-11T08:53:39.969Z</time></trkpt><trkpt lat="43.8136717" lon="12.203625"><ele>543.4000000000001</ele><time>2026-04-11T08:53:40.969Z</time></trkpt><trkpt lat="43.8137617" lon="12.2035083"><ele>547.2</ele><time>2026-04-11T08:53:42.969Z</time></trkpt><trkpt lat="43.8138033" lon="12.2033517"><ele>551.0</ele><time>2026-04-11T08:53:44.97Z</time></trkpt><trkpt lat="43.8138267" lon="12.20325"><ele>548.1428571428571</ele><time>2026-04-11T08:53:45.969Z</time></trkpt><trkpt lat="43.813845" lon="12.2031467"><ele>545.2857142857142</ele><time>2026-04-11T08:53:46.969Z</time></trkpt><trkpt lat="43.8138633" lon="12.203045"><ele>542.4285714285714</ele><time>2026-04-11T08:53:47.969Z</time></trkpt><trkpt lat="43.81388" lon="12.20295"><ele>539.5714285714286</ele><time>2026-04-11T08:53:48.969Z</time></trkpt><trkpt lat="43.8139033" lon="12.2028567"><ele>536.7142857142858</ele><time>2026-04-11T08:53:49.969Z</time></trkpt><trkpt lat="43.81393" lon="12.2027617"><ele>533.8571428571429</ele><time>2026-04-11T08:53:50.969Z</time></trkpt><trkpt lat="43.81396" lon="12.2026833"><ele>531.0</ele><time>2026-04-11T08:53:51.969Z</time></trkpt><trkpt lat="43.8139967" lon="12.2026117"><ele>531.0</ele><time>2026-04-11T08:53:52.97Z</time></trkpt><trkpt lat="43.8140333" lon="12.2025367"><ele>531.0</ele><time>2026-04-11T08:53:53.969Z</time></trkpt><trkpt lat="43.8140683" lon="12.2024583"><ele>531.0</ele><time>2026-04-11T08:53:54.97Z</time></trkpt><trkpt lat="43.8141233" lon="12.2023367"><ele>531.0</ele><time>2026-04-11T08:53:56.97Z</time></trkpt><trkpt lat="43.8140733" lon="12.2022717"><ele>531.0</ele><time>2026-04-11T08:54:10.97Z</time></trkpt><trkpt lat="43.8140283" lon="12.202185"><ele>531.0</ele><time>2026-04-11T08:54:12.969Z</time></trkpt><trkpt lat="43.813975" lon="12.202085"><ele>531.4</ele><time>2026-04-11T08:54:14.969Z</time></trkpt><trkpt lat="43.813935" lon="12.2019933"><ele>531.8</ele><time>2026-04-11T08:54:16.969Z</time></trkpt><trkpt lat="43.8139117" lon="12.2019033"><ele>532.1999999999999</ele><time>2026-04-11T08:54:24.968Z</time></trkpt><trkpt lat="43.8139083" lon="12.2020233"><ele>532.6</ele><time>2026-04-11T08:54:32.968Z</time></trkpt><trkpt lat="43.8139633" lon="12.2021567"><ele>533.0</ele><time>2026-04-11T08:54:34.968Z</time></trkpt><trkpt lat="43.8140233" lon="12.2022933"><ele>533.0</ele><time>2026-04-11T08:54:36.969Z</time></trkpt><trkpt lat="43.8140633" lon="12.202385"><ele>533.0</ele><time>2026-04-11T08:54:38.968Z</time></trkpt><trkpt lat="43.8140983" lon="12.2022817"><ele>533.0</ele><time>2026-04-11T08:54:43.968Z</time></trkpt><trkpt lat="43.8141067" lon="12.20215"><ele>533.0</ele><time>2026-04-11T08:54:45.968Z</time></trkpt><trkpt lat="43.8141133" lon="12.2019933"><ele>533.0</ele><time>2026-04-11T08:54:47.968Z</time></trkpt><trkpt lat="43.8140917" lon="12.20185"><ele>533.0</ele><time>2026-04-11T08:54:49.968Z</time></trkpt><trkpt lat="43.8140233" lon="12.2016867"><ele>533.0</ele><time>2026-04-11T08:54:51.968Z</time></trkpt><trkpt lat="43.8139783" lon="12.2015883"><ele>533.0</ele><time>2026-04-11T08:54:52.968Z</time></trkpt><trkpt lat="43.8139367" lon="12.2015033"><ele>533.0</ele><time>2026-04-11T08:54:53.968Z</time></trkpt><trkpt lat="43.8138567" lon="12.2014217"><ele>533.0</ele><time>2026-04-11T08:54:55.968Z</time></trkpt><trkpt lat="43.8137667" lon="12.2013767"><ele>534.3333333333333</ele><time>2026-04-11T08:54:57.969Z</time></trkpt><trkpt lat="43.8136967" lon="12.2012817"><ele>535.6666666666666</ele><time>2026-04-11T08:54:59.968Z</time></trkpt><trkpt lat="43.8136583" lon="12.20116"><ele>537.0</ele><time>2026-04-11T08:55:01.968Z</time></trkpt><trkpt lat="43.8136" lon="12.20106"><ele>538.3333333333334</ele><time>2026-04-11T08:55:03.968Z</time></trkpt><trkpt lat="43.8135417" lon="12.2009767"><ele>539.6666666666667</ele><time>2026-04-11T08:55:05.969Z</time></trkpt><trkpt lat="43.8135017" lon="12.2009017"><ele>541.0</ele><time>2026-04-11T08:55:08.968Z</time></trkpt><trkpt lat="43.8134433" lon="12.2009533"><ele>536.6666666666667</ele><time>2026-04-11T08:55:12.968Z</time></trkpt><trkpt lat="43.8134433" lon="12.2010417"><ele>532.3333333333334</ele><time>2026-04-11T08:55:39.969Z</time></trkpt><trkpt lat="43.8134133" lon="12.2011967"><ele>528.0</ele><time>2026-04-11T08:55:41.969Z</time></trkpt><trkpt lat="43.81339" lon="12.20132"><ele>523.6666666666666</ele><time>2026-04-11T08:55:43.968Z</time></trkpt><trkpt lat="43.813355" lon="12.2013933"><ele>519.3333333333333</ele><time>2026-04-11T08:55:45.968Z</time></trkpt><trkpt lat="43.8133117" lon="12.2014567"><ele>515.0</ele><time>2026-04-11T08:55:47.968Z</time></trkpt><trkpt lat="43.8132433" lon="12.2015383"><ele>514.0</ele><time>2026-04-11T08:55:50.968Z</time></trkpt><trkpt lat="43.8131767" lon="12.2016133"><ele>513.0</ele><time>2026-04-11T08:55:52.968Z</time></trkpt><trkpt lat="43.8130783" lon="12.20169"><ele>512.0</ele><time>2026-04-11T08:55:54.968Z</time></trkpt><trkpt lat="43.81298" lon="12.201755"><ele>511.0</ele><time>2026-04-11T08:55:56.969Z</time></trkpt><trkpt lat="43.8129233" lon="12.2017933"><ele>509.99999999999994</ele><time>2026-04-11T08:55:57.968Z</time></trkpt><trkpt lat="43.8128583" lon="12.2018283"><ele>509.0</ele><time>2026-04-11T08:55:58.969Z</time></trkpt><trkpt lat="43.812795" lon="12.20185"><ele>509.0</ele><time>2026-04-11T08:55:59.969Z</time></trkpt><trkpt lat="43.8126767" lon="12.2018083"><ele>509.0</ele><time>2026-04-11T08:56:01.968Z</time></trkpt><trkpt lat="43.8125817" lon="12.2017283"><ele>509.0</ele><time>2026-04-11T08:56:03.968Z</time></trkpt><trkpt lat="43.8125283" lon="12.2016133"><ele>509.0</ele><time>2026-04-11T08:56:05.968Z</time></trkpt><trkpt lat="43.8124717" lon="12.201485"><ele>509.0</ele><time>2026-04-11T08:56:07.968Z</time></trkpt><trkpt lat="43.8123933" lon="12.201415"><ele>505.8333333333333</ele><time>2026-04-11T08:56:09.968Z</time></trkpt><trkpt lat="43.81229" lon="12.2013817"><ele>502.66666666666663</ele><time>2026-04-11T08:56:11.968Z</time></trkpt><trkpt lat="43.812195" lon="12.2013433"><ele>499.5</ele><time>2026-04-11T08:56:13.968Z</time></trkpt><trkpt lat="43.8121067" lon="12.2013133"><ele>496.33333333333337</ele><time>2026-04-11T08:56:15.968Z</time></trkpt><trkpt lat="43.8120467" lon="12.2012733"><ele>493.1666666666667</ele><time>2026-04-11T08:56:17.969Z</time></trkpt><trkpt lat="43.8119733" lon="12.2012433"><ele>490.0</ele><time>2026-04-11T08:56:20.968Z</time></trkpt><trkpt lat="43.8119183" lon="12.2011983"><ele>490.0</ele><time>2026-04-11T08:56:22.968Z</time></trkpt><trkpt lat="43.811845" lon="12.2011483"><ele>490.0</ele><time>2026-04-11T08:56:24.968Z</time></trkpt><trkpt lat="43.8117417" lon="12.20105"><ele>490.0</ele><time>2026-04-11T08:56:26.968Z</time></trkpt><trkpt lat="43.8116717" lon="12.2009883"><ele>490.0</ele><time>2026-04-11T08:56:27.969Z</time></trkpt><trkpt lat="43.8116167" lon="12.2009133"><ele>490.0</ele><time>2026-04-11T08:56:28.968Z</time></trkpt><trkpt lat="43.8115667" lon="12.2008217"><ele>489.33333333333337</ele><time>2026-04-11T08:56:29.968Z</time></trkpt><trkpt lat="43.8115283" lon="12.2007167"><ele>488.6666666666667</ele><time>2026-04-11T08:56:30.968Z</time></trkpt><trkpt lat="43.811495" lon="12.200595"><ele>488.0</ele><time>2026-04-11T08:56:31.968Z</time></trkpt><trkpt lat="43.81146" lon="12.2004983"><ele>487.33333333333337</ele><time>2026-04-11T08:56:32.968Z</time></trkpt><trkpt lat="43.811425" lon="12.2004233"><ele>486.6666666666667</ele><time>2026-04-11T08:56:33.968Z</time></trkpt><trkpt lat="43.81135" lon="12.2002883"><ele>486.0</ele><time>2026-04-11T08:56:35.968Z</time></trkpt><trkpt lat="43.8112667" lon="12.2001633"><ele>484.1666666666667</ele><time>2026-04-11T08:56:37.968Z</time></trkpt><trkpt lat="43.8112067" lon="12.2001183"><ele>482.33333333333337</ele><time>2026-04-11T08:56:38.968Z</time></trkpt><trkpt lat="43.8111383" lon="12.2000517"><ele>480.5</ele><time>2026-04-11T08:56:39.968Z</time></trkpt><trkpt lat="43.8110733" lon="12.199975"><ele>478.6666666666667</ele><time>2026-04-11T08:56:40.969Z</time></trkpt><trkpt lat="43.8110183" lon="12.1999033"><ele>476.83333333333337</ele><time>2026-04-11T08:56:41.968Z</time></trkpt><trkpt lat="43.8109633" lon="12.1998433"><ele>475.0</ele><time>2026-04-11T08:56:42.968Z</time></trkpt><trkpt lat="43.8109067" lon="12.1997883"><ele>472.83333333333337</ele><time>2026-04-11T08:56:43.968Z</time></trkpt><trkpt lat="43.8108483" lon="12.1997283"><ele>470.6666666666667</ele><time>2026-04-11T08:56:44.968Z</time></trkpt><trkpt lat="43.8107817" lon="12.19967"><ele>468.5</ele><time>2026-04-11T08:56:45.968Z</time></trkpt><trkpt lat="43.8107183" lon="12.199615"><ele>466.33333333333337</ele><time>2026-04-11T08:56:46.969Z</time></trkpt><trkpt lat="43.810645" lon="12.1995683"><ele>464.1666666666667</ele><time>2026-04-11T08:56:47.968Z</time></trkpt><trkpt lat="43.8105683" lon="12.1995333"><ele>462.0</ele><time>2026-04-11T08:56:48.968Z</time></trkpt><trkpt lat="43.8105" lon="12.1995033"><ele>462.0</ele><time>2026-04-11T08:56:49.969Z</time></trkpt><trkpt lat="43.8104283" lon="12.1994683"><ele>462.0</ele><time>2026-04-11T08:56:50.968Z</time></trkpt><trkpt lat="43.8103567" lon="12.1994283"><ele>462.0</ele><time>2026-04-11T08:56:51.968Z</time></trkpt><trkpt lat="43.8102933" lon="12.1993817"><ele>462.0</ele><time>2026-04-11T08:56:52.968Z</time></trkpt><trkpt lat="43.81023" lon="12.1993417"><ele>462.0</ele><time>2026-04-11T08:56:53.968Z</time></trkpt><trkpt lat="43.8101033" lon="12.1993167"><ele>462.0</ele><time>2026-04-11T08:56:55.968Z</time></trkpt><trkpt lat="43.8100333" lon="12.1993333"><ele>460.8571428571429</ele><time>2026-04-11T08:56:56.969Z</time></trkpt><trkpt lat="43.8099667" lon="12.199355"><ele>459.7142857142857</ele><time>2026-04-11T08:56:57.969Z</time></trkpt><trkpt lat="43.8099033" lon="12.1993683"><ele>458.57142857142856</ele><time>2026-04-11T08:56:58.969Z</time></trkpt><trkpt lat="43.80983" lon="12.199375"><ele>457.42857142857144</ele><time>2026-04-11T08:56:59.968Z</time></trkpt><trkpt lat="43.8097617" lon="12.199375"><ele>456.28571428571433</ele><time>2026-04-11T08:57:00.968Z</time></trkpt><trkpt lat="43.809695" lon="12.1993733"><ele>455.14285714285717</ele><time>2026-04-11T08:57:01.968Z</time></trkpt><trkpt lat="43.8096267" lon="12.1993483"><ele>454.0</ele><time>2026-04-11T08:57:02.969Z</time></trkpt><trkpt lat="43.8095567" lon="12.1993083"><ele>454.00000000000006</ele><time>2026-04-11T08:57:03.968Z</time></trkpt><trkpt lat="43.8094883" lon="12.1992633"><ele>454.0</ele><time>2026-04-11T08:57:04.968Z</time></trkpt><trkpt lat="43.8094217" lon="12.1992017"><ele>454.0</ele><time>2026-04-11T08:57:05.969Z</time></trkpt><trkpt lat="43.8093567" lon="12.19915"><ele>454.0</ele><time>2026-04-11T08:57:06.968Z</time></trkpt><trkpt lat="43.80929" lon="12.1991133"><ele>454.00000000000006</ele><time>2026-04-11T08:57:07.968Z</time></trkpt><trkpt lat="43.8091917" lon="12.19908"><ele>454.0</ele><time>2026-04-11T08:57:09.968Z</time></trkpt><trkpt lat="43.809095" lon="12.199125"><ele>452.83333333333337</ele><time>2026-04-11T08:57:11.968Z</time></trkpt><trkpt lat="43.8089817" lon="12.1991817"><ele>451.6666666666667</ele><time>2026-04-11T08:57:13.968Z</time></trkpt><trkpt lat="43.80892" lon="12.1992133"><ele>450.5</ele><time>2026-04-11T08:57:14.968Z</time></trkpt><trkpt lat="43.8088533" lon="12.1992317"><ele>449.33333333333337</ele><time>2026-04-11T08:57:15.968Z</time></trkpt><trkpt lat="43.8087767" lon="12.1992317"><ele>448.1666666666667</ele><time>2026-04-11T08:57:16.969Z</time></trkpt><trkpt lat="43.8087033" lon="12.19921"><ele>447.0</ele><time>2026-04-11T08:57:17.968Z</time></trkpt><trkpt lat="43.808635" lon="12.1991767"><ele>447.0</ele><time>2026-04-11T08:57:18.969Z</time></trkpt><trkpt lat="43.808565" lon="12.1991383"><ele>447.00000000000006</ele><time>2026-04-11T08:57:19.968Z</time></trkpt><trkpt lat="43.80849" lon="12.199105"><ele>447.00000000000006</ele><time>2026-04-11T08:57:20.968Z</time></trkpt><trkpt lat="43.8084267" lon="12.1990733"><ele>447.0</ele><time>2026-04-11T08:57:21.969Z</time></trkpt><trkpt lat="43.8083333" lon="12.199005"><ele>447.0</ele><time>2026-04-11T08:57:23.968Z</time></trkpt><trkpt lat="43.80834" lon="12.198835"><ele>443.5</ele><time>2026-04-11T08:57:30.968Z</time></trkpt><trkpt lat="43.80835" lon="12.1987417"><ele>440.0</ele><time>2026-04-11T08:57:31.968Z</time></trkpt><trkpt lat="43.808355" lon="12.1986467"><ele>436.5</ele><time>2026-04-11T08:57:32.968Z</time></trkpt><trkpt lat="43.80831" lon="12.1985"><ele>433.0</ele><time>2026-04-11T08:57:34.968Z</time></trkpt><trkpt lat="43.8082683" lon="12.1984333"><ele>429.5</ele><time>2026-04-11T08:57:35.968Z</time></trkpt><trkpt lat="43.8082367" lon="12.1983567"><ele>426.0</ele><time>2026-04-11T08:57:36.969Z</time></trkpt><trkpt lat="43.8082133" lon="12.1982633"><ele>425.8</ele><time>2026-04-11T08:57:37.968Z</time></trkpt><trkpt lat="43.8082033" lon="12.1981167"><ele>425.6</ele><time>2026-04-11T08:57:39.968Z</time></trkpt><trkpt lat="43.80822" lon="12.1980133"><ele>425.4</ele><time>2026-04-11T08:57:41.968Z</time></trkpt><trkpt lat="43.808265" lon="12.1978917"><ele>425.2</ele><time>2026-04-11T08:57:43.968Z</time></trkpt><trkpt lat="43.8082967" lon="12.19776"><ele>425.0</ele><time>2026-04-11T08:57:45.968Z</time></trkpt><trkpt lat="43.80834" lon="12.19763"><ele>424.99999999999994</ele><time>2026-04-11T08:57:47.967Z</time></trkpt><trkpt lat="43.8083717" lon="12.1975183"><ele>425.0</ele><time>2026-04-11T08:57:49.967Z</time></trkpt><trkpt lat="43.808385" lon="12.1974183"><ele>425.0</ele><time>2026-04-11T08:57:52.967Z</time></trkpt><trkpt lat="43.8084267" lon="12.1973083"><ele>425.0</ele><time>2026-04-11T08:57:55.967Z</time></trkpt><trkpt lat="43.8084883" lon="12.19726"><ele>424.99999999999994</ele><time>2026-04-11T08:57:57.967Z</time></trkpt><trkpt lat="43.8083783" lon="12.19733"><ele>425.0</ele><time>2026-04-11T08:58:17.967Z</time></trkpt><trkpt lat="43.808315" lon="12.1973967"><ele>425.0</ele><time>2026-04-11T08:58:18.967Z</time></trkpt><trkpt lat="43.8082433" lon="12.1974933"><ele>425.0</ele><time>2026-04-11T08:58:19.968Z</time></trkpt><trkpt lat="43.8081633" lon="12.1976133"><ele>425.0</ele><time>2026-04-11T08:58:20.967Z</time></trkpt><trkpt lat="43.8080833" lon="12.19775"><ele>425.0</ele><time>2026-04-11T08:58:21.968Z</time></trkpt><trkpt lat="43.808005" lon="12.19788"><ele>425.0</ele><time>2026-04-11T08:58:22.967Z</time></trkpt><trkpt lat="43.807925" lon="12.1980317"><ele>425.0</ele><time>2026-04-11T08:58:23.968Z</time></trkpt><trkpt lat="43.807845" lon="12.1981983"><ele>425.0</ele><time>2026-04-11T08:58:24.967Z</time></trkpt><trkpt lat="43.8077583" lon="12.1983767"><ele>425.0</ele><time>2026-04-11T08:58:25.967Z</time></trkpt><trkpt lat="43.807685" lon="12.198555"><ele>424.0</ele><time>2026-04-11T08:58:26.967Z</time></trkpt><trkpt lat="43.807605" lon="12.19872"><ele>423.0</ele><time>2026-04-11T08:58:27.967Z</time></trkpt><trkpt lat="43.80751" lon="12.1988867"><ele>422.0</ele><time>2026-04-11T08:58:28.967Z</time></trkpt><trkpt lat="43.8074167" lon="12.199045"><ele>421.0</ele><time>2026-04-11T08:58:29.967Z</time></trkpt><trkpt lat="43.80734" lon="12.1991833"><ele>421.00000000000006</ele><time>2026-04-11T08:58:30.967Z</time></trkpt><trkpt lat="43.8072733" lon="12.1993183"><ele>421.0</ele><time>2026-04-11T08:58:31.967Z</time></trkpt><trkpt lat="43.80721" lon="12.19942"><ele>421.0</ele><time>2026-04-11T08:58:32.967Z</time></trkpt><trkpt lat="43.80715" lon="12.1994967"><ele>421.0</ele><time>2026-04-11T08:58:33.967Z</time></trkpt><trkpt lat="43.8070783" lon="12.1995417"><ele>421.00000000000006</ele><time>2026-04-11T08:58:34.967Z</time></trkpt><trkpt lat="43.8070117" lon="12.1995467"><ele>421.0</ele><time>2026-04-11T08:58:35.967Z</time></trkpt><trkpt lat="43.8069467" lon="12.1994117"><ele>421.0</ele><time>2026-04-11T08:58:37.968Z</time></trkpt><trkpt lat="43.8069467" lon="12.199305"><ele>421.0</ele><time>2026-04-11T08:58:38.967Z</time></trkpt><trkpt lat="43.8069583" lon="12.1991783"><ele>421.0</ele><time>2026-04-11T08:58:39.967Z</time></trkpt><trkpt lat="43.8069767" lon="12.1990217"><ele>421.0</ele><time>2026-04-11T08:58:40.967Z</time></trkpt><trkpt lat="43.8069917" lon="12.1988367"><ele>421.0</ele><time>2026-04-11T08:58:41.967Z</time></trkpt><trkpt lat="43.807005" lon="12.198635"><ele>419.33333333333337</ele><time>2026-04-11T08:58:42.968Z</time></trkpt><trkpt lat="43.8070117" lon="12.1984317"><ele>417.66666666666663</ele><time>2026-04-11T08:58:43.967Z</time></trkpt><trkpt lat="43.8070217" lon="12.1982167"><ele>416.0</ele><time>2026-04-11T08:58:44.967Z</time></trkpt><trkpt lat="43.8070367" lon="12.1979833"><ele>415.66666666666663</ele><time>2026-04-11T08:58:45.967Z</time></trkpt><trkpt lat="43.80705" lon="12.197735"><ele>415.33333333333337</ele><time>2026-04-11T08:58:46.967Z</time></trkpt><trkpt lat="43.80705" lon="12.19748"><ele>415.0</ele><time>2026-04-11T08:58:47.967Z</time></trkpt><trkpt lat="43.8070183" lon="12.1972217"><ele>419.6666666666667</ele><time>2026-04-11T08:58:48.967Z</time></trkpt><trkpt lat="43.80697" lon="12.1969583"><ele>424.33333333333337</ele><time>2026-04-11T08:58:49.967Z</time></trkpt><trkpt lat="43.806915" lon="12.1966883"><ele>429.0</ele><time>2026-04-11T08:58:50.967Z</time></trkpt><trkpt lat="43.8068583" lon="12.1964083"><ele>429.33333333333337</ele><time>2026-04-11T08:58:51.968Z</time></trkpt><trkpt lat="43.8068033" lon="12.196125"><ele>429.6666666666667</ele><time>2026-04-11T08:58:52.967Z</time></trkpt><trkpt lat="43.8067433" lon="12.1958283"><ele>430.0</ele><time>2026-04-11T08:58:53.967Z</time></trkpt><trkpt lat="43.80668" lon="12.19553"><ele>430.0</ele><time>2026-04-11T08:58:54.967Z</time></trkpt><trkpt lat="43.8066217" lon="12.1952417"><ele>430.0</ele><time>2026-04-11T08:58:55.967Z</time></trkpt><trkpt lat="43.80656" lon="12.1949433"><ele>430.0</ele><time>2026-04-11T08:58:56.967Z</time></trkpt><trkpt lat="43.8064983" lon="12.1946467"><ele>434.0</ele><time>2026-04-11T08:58:57.967Z</time></trkpt><trkpt lat="43.8064333" lon="12.1943483"><ele>438.0</ele><time>2026-04-11T08:58:58.967Z</time></trkpt><trkpt lat="43.8063617" lon="12.1940667"><ele>442.0</ele><time>2026-04-11T08:58:59.967Z</time></trkpt><trkpt lat="43.8063133" lon="12.1938033"><ele>442.0</ele><time>2026-04-11T08:59:00.967Z</time></trkpt><trkpt lat="43.8062917" lon="12.19355"><ele>442.0</ele><time>2026-04-11T08:59:01.967Z</time></trkpt><trkpt lat="43.8063067" lon="12.1932967"><ele>442.0</ele><time>2026-04-11T08:59:02.967Z</time></trkpt><trkpt lat="43.8063233" lon="12.193035"><ele>442.0</ele><time>2026-04-11T08:59:03.967Z</time></trkpt><trkpt lat="43.8063267" lon="12.19277"><ele>442.0</ele><time>2026-04-11T08:59:04.967Z</time></trkpt><trkpt lat="43.806295" lon="12.1925017"><ele>442.0</ele><time>2026-04-11T08:59:05.967Z</time></trkpt><trkpt lat="43.8062333" lon="12.1922467"><ele>442.0</ele><time>2026-04-11T08:59:06.967Z</time></trkpt><trkpt lat="43.806165" lon="12.1919983"><ele>442.0</ele><time>2026-04-11T08:59:07.967Z</time></trkpt><trkpt lat="43.8060933" lon="12.191745"><ele>442.0</ele><time>2026-04-11T08:59:08.967Z</time></trkpt><trkpt lat="43.8060233" lon="12.1914883"><ele>438.6666666666667</ele><time>2026-04-11T08:59:09.967Z</time></trkpt><trkpt lat="43.8059467" lon="12.1912317"><ele>435.33333333333337</ele><time>2026-04-11T08:59:10.967Z</time></trkpt><trkpt lat="43.805865" lon="12.1909767"><ele>432.0</ele><time>2026-04-11T08:59:11.967Z</time></trkpt><trkpt lat="43.8057817" lon="12.1907183"><ele>433.0</ele><time>2026-04-11T08:59:12.967Z</time></trkpt><trkpt lat="43.8057033" lon="12.1904517"><ele>434.0</ele><time>2026-04-11T08:59:13.967Z</time></trkpt><trkpt lat="43.805625" lon="12.19018"><ele>435.0</ele><time>2026-04-11T08:59:14.968Z</time></trkpt><trkpt lat="43.805545" lon="12.18991"><ele>439.66666666666663</ele><time>2026-04-11T08:59:15.967Z</time></trkpt><trkpt lat="43.8054583" lon="12.1896317"><ele>444.3333333333333</ele><time>2026-04-11T08:59:16.967Z</time></trkpt><trkpt lat="43.8053833" lon="12.1893567"><ele>449.0</ele><time>2026-04-11T08:59:17.967Z</time></trkpt><trkpt lat="43.8053067" lon="12.18908"><ele>444.3333333333333</ele><time>2026-04-11T08:59:18.968Z</time></trkpt><trkpt lat="43.8052283" lon="12.1887983"><ele>439.66666666666663</ele><time>2026-04-11T08:59:19.967Z</time></trkpt><trkpt lat="43.8051483" lon="12.1885133"><ele>435.0</ele><time>2026-04-11T08:59:20.968Z</time></trkpt><trkpt lat="43.8050667" lon="12.188235"><ele>439.0</ele><time>2026-04-11T08:59:21.967Z</time></trkpt><trkpt lat="43.80499" lon="12.18795"><ele>443.0</ele><time>2026-04-11T08:59:22.967Z</time></trkpt><trkpt lat="43.8049133" lon="12.18767"><ele>447.0</ele><time>2026-04-11T08:59:23.967Z</time></trkpt><trkpt lat="43.8048367" lon="12.1873883"><ele>452.33333333333337</ele><time>2026-04-11T08:59:24.967Z</time></trkpt><trkpt lat="43.80476" lon="12.1871117"><ele>457.6666666666667</ele><time>2026-04-11T08:59:25.967Z</time></trkpt><trkpt lat="43.8046783" lon="12.1868317"><ele>463.0</ele><time>2026-04-11T08:59:26.968Z</time></trkpt><trkpt lat="43.8045933" lon="12.1865483"><ele>467.0</ele><time>2026-04-11T08:59:27.967Z</time></trkpt><trkpt lat="43.8045183" lon="12.1862583"><ele>471.0</ele><time>2026-04-11T08:59:28.967Z</time></trkpt><trkpt lat="43.8044333" lon="12.1859767"><ele>475.0</ele><time>2026-04-11T08:59:29.967Z</time></trkpt><trkpt lat="43.8043533" lon="12.185695"><ele>466.6666666666667</ele><time>2026-04-11T08:59:30.967Z</time></trkpt><trkpt lat="43.8042717" lon="12.1854233"><ele>458.33333333333337</ele><time>2026-04-11T08:59:31.967Z</time></trkpt><trkpt lat="43.8041883" lon="12.1851467"><ele>450.0</ele><time>2026-04-11T08:59:32.967Z</time></trkpt><trkpt lat="43.8041083" lon="12.18487"><ele>451.33333333333337</ele><time>2026-04-11T08:59:33.967Z</time></trkpt><trkpt lat="43.804035" lon="12.1845967"><ele>452.6666666666667</ele><time>2026-04-11T08:59:34.967Z</time></trkpt><trkpt lat="43.80396" lon="12.1843117"><ele>454.0</ele><time>2026-04-11T08:59:35.967Z</time></trkpt><trkpt lat="43.8038867" lon="12.1840317"><ele>454.33333333333337</ele><time>2026-04-11T08:59:36.967Z</time></trkpt><trkpt lat="43.8038083" lon="12.183755"><ele>454.66666666666663</ele><time>2026-04-11T08:59:37.967Z</time></trkpt><trkpt lat="43.8037267" lon="12.1834883"><ele>455.0</ele><time>2026-04-11T08:59:38.968Z</time></trkpt><trkpt lat="43.8036467" lon="12.18322"><ele>457.0</ele><time>2026-04-11T08:59:39.967Z</time></trkpt><trkpt lat="43.803575" lon="12.1829517"><ele>459.0</ele><time>2026-04-11T08:59:40.968Z</time></trkpt><trkpt lat="43.8035017" lon="12.1826783"><ele>461.0</ele><time>2026-04-11T08:59:41.967Z</time></trkpt><trkpt lat="43.8034283" lon="12.18241"><ele>458.0</ele><time>2026-04-11T08:59:42.968Z</time></trkpt><trkpt lat="43.8033467" lon="12.1821467"><ele>455.0</ele><time>2026-04-11T08:59:43.968Z</time></trkpt><trkpt lat="43.8032633" lon="12.181895"><ele>452.0</ele><time>2026-04-11T08:59:44.967Z</time></trkpt><trkpt lat="43.8031767" lon="12.1816433"><ele>454.0</ele><time>2026-04-11T08:59:45.967Z</time></trkpt><trkpt lat="43.8030667" lon="12.18143"><ele>456.0</ele><time>2026-04-11T08:59:46.967Z</time></trkpt><trkpt lat="43.802945" lon="12.1812217"><ele>458.0</ele><time>2026-04-11T08:59:47.967Z</time></trkpt><trkpt lat="43.8028167" lon="12.1810133"><ele>458.0</ele><time>2026-04-11T08:59:48.968Z</time></trkpt><trkpt lat="43.8026717" lon="12.1808183"><ele>458.0</ele><time>2026-04-11T08:59:49.967Z</time></trkpt><trkpt lat="43.802515" lon="12.180635"><ele>458.0</ele><time>2026-04-11T08:59:50.967Z</time></trkpt><trkpt lat="43.8023617" lon="12.18044"><ele>459.3333333333333</ele><time>2026-04-11T08:59:51.967Z</time></trkpt><trkpt lat="43.8022067" lon="12.1802467"><ele>460.66666666666663</ele><time>2026-04-11T08:59:52.968Z</time></trkpt><trkpt lat="43.8020467" lon="12.1800533"><ele>462.0</ele><time>2026-04-11T08:59:53.967Z</time></trkpt><trkpt lat="43.8018933" lon="12.1798567"><ele>461.0</ele><time>2026-04-11T08:59:54.967Z</time></trkpt><trkpt lat="43.80174" lon="12.1796667"><ele>460.0</ele><time>2026-04-11T08:59:55.967Z</time></trkpt><trkpt lat="43.8015833" lon="12.179475"><ele>459.0</ele><time>2026-04-11T08:59:56.968Z</time></trkpt><trkpt lat="43.80142" lon="12.1792883"><ele>459.0</ele><time>2026-04-11T08:59:57.967Z</time></trkpt><trkpt lat="43.801265" lon="12.1790917"><ele>459.0</ele><time>2026-04-11T08:59:58.968Z</time></trkpt><trkpt lat="43.8011033" lon="12.178905"><ele>459.0</ele><time>2026-04-11T08:59:59.967Z</time></trkpt><trkpt lat="43.8009517" lon="12.1787083"><ele>459.66666666666663</ele><time>2026-04-11T09:00:00.968Z</time></trkpt><trkpt lat="43.8008033" lon="12.1785183"><ele>460.3333333333333</ele><time>2026-04-11T09:00:01.967Z</time></trkpt><trkpt lat="43.8006533" lon="12.1783467"><ele>461.0</ele><time>2026-04-11T09:00:02.967Z</time></trkpt><trkpt lat="43.8005517" lon="12.17817"><ele>463.66666666666663</ele><time>2026-04-11T09:00:03.967Z</time></trkpt><trkpt lat="43.8004783" lon="12.1779717"><ele>466.33333333333337</ele><time>2026-04-11T09:00:04.967Z</time></trkpt><trkpt lat="43.8004517" lon="12.177755"><ele>469.0</ele><time>2026-04-11T09:00:05.967Z</time></trkpt><trkpt lat="43.8004333" lon="12.1775267"><ele>471.6666666666667</ele><time>2026-04-11T09:00:06.967Z</time></trkpt><trkpt lat="43.8004" lon="12.1773"><ele>474.33333333333337</ele><time>2026-04-11T09:00:07.967Z</time></trkpt><trkpt lat="43.8003567" lon="12.17706"><ele>477.0</ele><time>2026-04-11T09:00:08.967Z</time></trkpt><trkpt lat="43.8002983" lon="12.176825"><ele>477.0</ele><time>2026-04-11T09:00:09.967Z</time></trkpt><trkpt lat="43.800215" lon="12.17659"><ele>477.0</ele><time>2026-04-11T09:00:10.967Z</time></trkpt><trkpt lat="43.8001383" lon="12.1763467"><ele>477.0</ele><time>2026-04-11T09:00:11.967Z</time></trkpt><trkpt lat="43.8000617" lon="12.1761"><ele>478.66666666666663</ele><time>2026-04-11T09:00:12.967Z</time></trkpt><trkpt lat="43.7999717" lon="12.1758467"><ele>480.3333333333333</ele><time>2026-04-11T09:00:13.967Z</time></trkpt><trkpt lat="43.7998817" lon="12.1755917"><ele>482.0</ele><time>2026-04-11T09:00:14.967Z</time></trkpt><trkpt lat="43.7997917" lon="12.1753333"><ele>486.66666666666663</ele><time>2026-04-11T09:00:15.967Z</time></trkpt><trkpt lat="43.7996983" lon="12.1750717"><ele>491.33333333333337</ele><time>2026-04-11T09:00:16.967Z</time></trkpt><trkpt lat="43.799615" lon="12.174815"><ele>496.0</ele><time>2026-04-11T09:00:17.967Z</time></trkpt><trkpt lat="43.7995283" lon="12.1745583"><ele>498.33333333333337</ele><time>2026-04-11T09:00:18.967Z</time></trkpt><trkpt lat="43.7994417" lon="12.1742917"><ele>500.66666666666663</ele><time>2026-04-11T09:00:19.967Z</time></trkpt><trkpt lat="43.7993467" lon="12.1740217"><ele>503.0</ele><time>2026-04-11T09:00:20.968Z</time></trkpt><trkpt lat="43.7992283" lon="12.1737667"><ele>504.0</ele><time>2026-04-11T09:00:21.967Z</time></trkpt><trkpt lat="43.7991" lon="12.1735233"><ele>505.0</ele><time>2026-04-11T09:00:22.967Z</time></trkpt><trkpt lat="43.7989683" lon="12.1732817"><ele>506.0</ele><time>2026-04-11T09:00:23.967Z</time></trkpt><trkpt lat="43.7988267" lon="12.1730433"><ele>506.0</ele><time>2026-04-11T09:00:24.968Z</time></trkpt><trkpt lat="43.7986817" lon="12.1728017"><ele>506.0</ele><time>2026-04-11T09:00:25.967Z</time></trkpt><trkpt lat="43.7985583" lon="12.1725633"><ele>506.0</ele><time>2026-04-11T09:00:26.967Z</time></trkpt><trkpt lat="43.7984283" lon="12.172315"><ele>499.3333333333333</ele><time>2026-04-11T09:00:27.968Z</time></trkpt><trkpt lat="43.7982933" lon="12.172075"><ele>492.66666666666663</ele><time>2026-04-11T09:00:28.967Z</time></trkpt><trkpt lat="43.7981617" lon="12.1718383"><ele>486.0</ele><time>2026-04-11T09:00:29.967Z</time></trkpt><trkpt lat="43.79803" lon="12.1715983"><ele>484.33333333333337</ele><time>2026-04-11T09:00:30.967Z</time></trkpt><trkpt lat="43.7979067" lon="12.171365"><ele>482.6666666666667</ele><time>2026-04-11T09:00:31.967Z</time></trkpt><trkpt lat="43.797775" lon="12.1711317"><ele>481.0</ele><time>2026-04-11T09:00:32.967Z</time></trkpt><trkpt lat="43.7976433" lon="12.1709017"><ele>492.6666666666667</ele><time>2026-04-11T09:00:33.967Z</time></trkpt><trkpt lat="43.7975167" lon="12.1706883"><ele>504.33333333333337</ele><time>2026-04-11T09:00:34.967Z</time></trkpt><trkpt lat="43.7974017" lon="12.170475"><ele>516.0</ele><time>2026-04-11T09:00:35.967Z</time></trkpt><trkpt lat="43.7973033" lon="12.1702667"><ele>516.0</ele><time>2026-04-11T09:00:36.967Z</time></trkpt><trkpt lat="43.7972267" lon="12.17005"><ele>516.0</ele><time>2026-04-11T09:00:37.967Z</time></trkpt><trkpt lat="43.79716" lon="12.169845"><ele>516.0</ele><time>2026-04-11T09:00:38.967Z</time></trkpt><trkpt lat="43.797105" lon="12.1696533"><ele>519.6</ele><time>2026-04-11T09:00:39.968Z</time></trkpt><trkpt lat="43.79705" lon="12.16949"><ele>523.2</ele><time>2026-04-11T09:00:40.967Z</time></trkpt><trkpt lat="43.7969917" lon="12.1693583"><ele>526.8</ele><time>2026-04-11T09:00:41.968Z</time></trkpt><trkpt lat="43.7969283" lon="12.16927"><ele>530.4</ele><time>2026-04-11T09:00:42.967Z</time></trkpt><trkpt lat="43.7968483" lon="12.16922"><ele>534.0</ele><time>2026-04-11T09:00:43.968Z</time></trkpt><trkpt lat="43.796745" lon="12.1692"><ele>523.0</ele><time>2026-04-11T09:00:44.968Z</time></trkpt><trkpt lat="43.7966217" lon="12.16922"><ele>512.0</ele><time>2026-04-11T09:00:45.968Z</time></trkpt><trkpt lat="43.79649" lon="12.1692617"><ele>501.0</ele><time>2026-04-11T09:00:46.967Z</time></trkpt><trkpt lat="43.7963483" lon="12.1693017"><ele>490.0</ele><time>2026-04-11T09:00:47.967Z</time></trkpt><trkpt lat="43.7961883" lon="12.1693333"><ele>490.0</ele><time>2026-04-11T09:00:48.967Z</time></trkpt><trkpt lat="43.7960217" lon="12.1693633"><ele>490.0</ele><time>2026-04-11T09:00:49.968Z</time></trkpt><trkpt lat="43.795845" lon="12.1693867"><ele>490.0</ele><time>2026-04-11T09:00:50.967Z</time></trkpt><trkpt lat="43.7956567" lon="12.169415"><ele>491.6666666666667</ele><time>2026-04-11T09:00:51.967Z</time></trkpt><trkpt lat="43.7954733" lon="12.16944"><ele>493.33333333333337</ele><time>2026-04-11T09:00:52.967Z</time></trkpt><trkpt lat="43.7952917" lon="12.1694717"><ele>495.0</ele><time>2026-04-11T09:00:53.968Z</time></trkpt><trkpt lat="43.795125" lon="12.1694917"><ele>495.0</ele><time>2026-04-11T09:00:54.968Z</time></trkpt><trkpt lat="43.7949867" lon="12.1694883"><ele>495.0</ele><time>2026-04-11T09:00:55.967Z</time></trkpt><trkpt lat="43.7948733" lon="12.1694633"><ele>495.0</ele><time>2026-04-11T09:00:56.967Z</time></trkpt><trkpt lat="43.7947917" lon="12.1693767"><ele>495.0</ele><time>2026-04-11T09:00:57.968Z</time></trkpt><trkpt lat="43.79474" lon="12.169235"><ele>495.0</ele><time>2026-04-11T09:00:58.967Z</time></trkpt><trkpt lat="43.7947417" lon="12.16909"><ele>495.0</ele><time>2026-04-11T09:00:59.967Z</time></trkpt><trkpt lat="43.7947767" lon="12.1689617"><ele>495.0</ele><time>2026-04-11T09:01:00.967Z</time></trkpt><trkpt lat="43.7948333" lon="12.1688333"><ele>495.0</ele><time>2026-04-11T09:01:01.967Z</time></trkpt><trkpt lat="43.7948983" lon="12.168695"><ele>495.0</ele><time>2026-04-11T09:01:02.967Z</time></trkpt><trkpt lat="43.7949533" lon="12.1685383"><ele>494.5</ele><time>2026-04-11T09:01:03.967Z</time></trkpt><trkpt lat="43.7949583" lon="12.16838"><ele>494.0</ele><time>2026-04-11T09:01:04.967Z</time></trkpt><trkpt lat="43.7949283" lon="12.1682367"><ele>493.5</ele><time>2026-04-11T09:01:05.967Z</time></trkpt><trkpt lat="43.7948583" lon="12.1681"><ele>493.0</ele><time>2026-04-11T09:01:06.967Z</time></trkpt><trkpt lat="43.7947633" lon="12.1679883"><ele>493.0</ele><time>2026-04-11T09:01:07.968Z</time></trkpt><trkpt lat="43.7946383" lon="12.167905"><ele>493.0</ele><time>2026-04-11T09:01:08.967Z</time></trkpt><trkpt lat="43.7945233" lon="12.1678133"><ele>493.0</ele><time>2026-04-11T09:01:09.967Z</time></trkpt><trkpt lat="43.7944333" lon="12.1676767"><ele>493.0</ele><time>2026-04-11T09:01:10.967Z</time></trkpt><trkpt lat="43.79436" lon="12.1675083"><ele>495.5</ele><time>2026-04-11T09:01:11.967Z</time></trkpt><trkpt lat="43.7942983" lon="12.1673267"><ele>498.0</ele><time>2026-04-11T09:01:12.967Z</time></trkpt><trkpt lat="43.7942367" lon="12.1671567"><ele>500.5</ele><time>2026-04-11T09:01:13.967Z</time></trkpt><trkpt lat="43.79416" lon="12.16701"><ele>503.0</ele><time>2026-04-11T09:01:14.968Z</time></trkpt><trkpt lat="43.7940567" lon="12.166905"><ele>503.0</ele><time>2026-04-11T09:01:15.967Z</time></trkpt><trkpt lat="43.79394" lon="12.1668383"><ele>503.0</ele><time>2026-04-11T09:01:16.967Z</time></trkpt><trkpt lat="43.7938117" lon="12.1668033"><ele>503.0</ele><time>2026-04-11T09:01:17.966Z</time></trkpt><trkpt lat="43.7936733" lon="12.1667683"><ele>503.0</ele><time>2026-04-11T09:01:18.966Z</time></trkpt><trkpt lat="43.7935383" lon="12.16674"><ele>505.2</ele><time>2026-04-11T09:01:19.966Z</time></trkpt><trkpt lat="43.7934183" lon="12.1667133"><ele>507.4</ele><time>2026-04-11T09:01:20.966Z</time></trkpt><trkpt lat="43.793315" lon="12.166675"><ele>509.59999999999997</ele><time>2026-04-11T09:01:21.966Z</time></trkpt><trkpt lat="43.793225" lon="12.1666267"><ele>511.79999999999995</ele><time>2026-04-11T09:01:22.966Z</time></trkpt><trkpt lat="43.7931483" lon="12.1666083"><ele>514.0</ele><time>2026-04-11T09:01:23.966Z</time></trkpt><trkpt lat="43.7930683" lon="12.1666417"><ele>514.0</ele><time>2026-04-11T09:01:25.966Z</time></trkpt><trkpt lat="43.7930717" lon="12.1667617"><ele>514.0</ele><time>2026-04-11T09:01:27.966Z</time></trkpt><trkpt lat="43.793095" lon="12.1668433"><ele>514.0</ele><time>2026-04-11T09:01:28.966Z</time></trkpt><trkpt lat="43.793125" lon="12.16694"><ele>514.0</ele><time>2026-04-11T09:01:29.966Z</time></trkpt><trkpt lat="43.7931567" lon="12.167045"><ele>514.0</ele><time>2026-04-11T09:01:30.966Z</time></trkpt><trkpt lat="43.793195" lon="12.1671483"><ele>514.0</ele><time>2026-04-11T09:01:31.966Z</time></trkpt><trkpt lat="43.793245" lon="12.1672633"><ele>515.5</ele><time>2026-04-11T09:01:32.966Z</time></trkpt><trkpt lat="43.7933017" lon="12.1673917"><ele>517.0</ele><time>2026-04-11T09:01:33.966Z</time></trkpt><trkpt lat="43.7933667" lon="12.1675167"><ele>518.5</ele><time>2026-04-11T09:01:34.966Z</time></trkpt><trkpt lat="43.79343" lon="12.1676617"><ele>520.0</ele><time>2026-04-11T09:01:35.967Z</time></trkpt><trkpt lat="43.7934933" lon="12.1678033"><ele>518.6</ele><time>2026-04-11T09:01:36.967Z</time></trkpt><trkpt lat="43.7935583" lon="12.1679417"><ele>517.2</ele><time>2026-04-11T09:01:37.966Z</time></trkpt><trkpt lat="43.7936017" lon="12.16807"><ele>515.8</ele><time>2026-04-11T09:01:38.966Z</time></trkpt><trkpt lat="43.7936367" lon="12.1681983"><ele>514.4</ele><time>2026-04-11T09:01:39.966Z</time></trkpt><trkpt lat="43.7936667" lon="12.168305"><ele>513.0</ele><time>2026-04-11T09:01:40.966Z</time></trkpt><trkpt lat="43.7937133" lon="12.16842"><ele>513.0</ele><time>2026-04-11T09:01:41.966Z</time></trkpt><trkpt lat="43.7937633" lon="12.16856"><ele>513.0</ele><time>2026-04-11T09:01:42.967Z</time></trkpt><trkpt lat="43.7938233" lon="12.168705"><ele>513.0</ele><time>2026-04-11T09:01:43.966Z</time></trkpt><trkpt lat="43.7938867" lon="12.168855"><ele>513.0</ele><time>2026-04-11T09:01:44.967Z</time></trkpt><trkpt lat="43.7939317" lon="12.1689917"><ele>512.6</ele><time>2026-04-11T09:01:45.967Z</time></trkpt><trkpt lat="43.7939517" lon="12.169125"><ele>512.1999999999999</ele><time>2026-04-11T09:01:46.966Z</time></trkpt><trkpt lat="43.7939533" lon="12.16926"><ele>511.8</ele><time>2026-04-11T09:01:47.966Z</time></trkpt><trkpt lat="43.7939433" lon="12.16938"><ele>511.4</ele><time>2026-04-11T09:01:48.966Z</time></trkpt><trkpt lat="43.7939067" lon="12.1694867"><ele>511.0</ele><time>2026-04-11T09:01:49.966Z</time></trkpt><trkpt lat="43.793855" lon="12.1695883"><ele>511.0</ele><time>2026-04-11T09:01:50.967Z</time></trkpt><trkpt lat="43.7937667" lon="12.1696933"><ele>511.0</ele><time>2026-04-11T09:01:51.966Z</time></trkpt><trkpt lat="43.79368" lon="12.1698233"><ele>511.0</ele><time>2026-04-11T09:01:52.966Z</time></trkpt><trkpt lat="43.79358" lon="12.1699483"><ele>511.0</ele><time>2026-04-11T09:01:53.966Z</time></trkpt><trkpt lat="43.79347" lon="12.170085"><ele>511.6666666666667</ele><time>2026-04-11T09:01:54.966Z</time></trkpt><trkpt lat="43.793345" lon="12.1702183"><ele>512.3333333333334</ele><time>2026-04-11T09:01:55.966Z</time></trkpt><trkpt lat="43.7932083" lon="12.1703417"><ele>513.0</ele><time>2026-04-11T09:01:56.966Z</time></trkpt><trkpt lat="43.7930717" lon="12.1704667"><ele>513.0</ele><time>2026-04-11T09:01:57.966Z</time></trkpt><trkpt lat="43.7929383" lon="12.17059"><ele>513.0</ele><time>2026-04-11T09:01:58.966Z</time></trkpt><trkpt lat="43.7928017" lon="12.1707183"><ele>513.0</ele><time>2026-04-11T09:01:59.966Z</time></trkpt><trkpt lat="43.7926833" lon="12.1708283"><ele>515.1999999999999</ele><time>2026-04-11T09:02:00.966Z</time></trkpt><trkpt lat="43.7925767" lon="12.1709283"><ele>517.4</ele><time>2026-04-11T09:02:01.966Z</time></trkpt><trkpt lat="43.7924633" lon="12.17101"><ele>519.5999999999999</ele><time>2026-04-11T09:02:02.966Z</time></trkpt><trkpt lat="43.792375" lon="12.171085"><ele>521.8</ele><time>2026-04-11T09:02:03.966Z</time></trkpt><trkpt lat="43.7923067" lon="12.1711617"><ele>524.0</ele><time>2026-04-11T09:02:04.967Z</time></trkpt><trkpt lat="43.7922667" lon="12.171265"><ele>524.0</ele><time>2026-04-11T09:02:05.966Z</time></trkpt><trkpt lat="43.7922383" lon="12.1713517"><ele>524.0</ele><time>2026-04-11T09:02:06.966Z</time></trkpt><trkpt lat="43.7922267" lon="12.17144"><ele>524.0</ele><time>2026-04-11T09:02:07.966Z</time></trkpt><trkpt lat="43.7922383" lon="12.17153"><ele>524.0</ele><time>2026-04-11T09:02:08.966Z</time></trkpt><trkpt lat="43.7923383" lon="12.1716333"><ele>524.0</ele><time>2026-04-11T09:02:10.966Z</time></trkpt><trkpt lat="43.79243" lon="12.171655"><ele>524.0</ele><time>2026-04-11T09:02:11.966Z</time></trkpt><trkpt lat="43.7925217" lon="12.17166"><ele>523.4</ele><time>2026-04-11T09:02:12.967Z</time></trkpt><trkpt lat="43.79262" lon="12.1716533"><ele>522.8</ele><time>2026-04-11T09:02:13.967Z</time></trkpt><trkpt lat="43.7927133" lon="12.1716267"><ele>522.2</ele><time>2026-04-11T09:02:14.966Z</time></trkpt><trkpt lat="43.7928167" lon="12.1715817"><ele>521.6</ele><time>2026-04-11T09:02:15.966Z</time></trkpt><trkpt lat="43.79292" lon="12.1715083"><ele>521.0</ele><time>2026-04-11T09:02:16.966Z</time></trkpt><trkpt lat="43.79303" lon="12.1714183"><ele>521.0</ele><time>2026-04-11T09:02:17.966Z</time></trkpt><trkpt lat="43.7931433" lon="12.17134"><ele>521.0</ele><time>2026-04-11T09:02:18.966Z</time></trkpt><trkpt lat="43.7932633" lon="12.17125"><ele>521.0</ele><time>2026-04-11T09:02:19.966Z</time></trkpt><trkpt lat="43.7933733" lon="12.171185"><ele>521.0</ele><time>2026-04-11T09:02:20.966Z</time></trkpt><trkpt lat="43.7934867" lon="12.1711367"><ele>520.6666666666666</ele><time>2026-04-11T09:02:21.967Z</time></trkpt><trkpt lat="43.7935967" lon="12.17109"><ele>520.3333333333333</ele><time>2026-04-11T09:02:22.966Z</time></trkpt><trkpt lat="43.79369" lon="12.1710633"><ele>520.0</ele><time>2026-04-11T09:02:23.967Z</time></trkpt><trkpt lat="43.79377" lon="12.1710517"><ele>519.6666666666666</ele><time>2026-04-11T09:02:24.966Z</time></trkpt><trkpt lat="43.7938383" lon="12.1710533"><ele>519.3333333333334</ele><time>2026-04-11T09:02:25.966Z</time></trkpt><trkpt lat="43.7939067" lon="12.1710733"><ele>519.0</ele><time>2026-04-11T09:02:26.966Z</time></trkpt><trkpt lat="43.7939533" lon="12.1711417"><ele>519.0</ele><time>2026-04-11T09:02:27.966Z</time></trkpt><trkpt lat="43.7939683" lon="12.171285"><ele>519.0</ele><time>2026-04-11T09:02:29.966Z</time></trkpt><trkpt lat="43.7939217" lon="12.1714133"><ele>519.0</ele><time>2026-04-11T09:02:31.967Z</time></trkpt><trkpt lat="43.79387" lon="12.1714683"><ele>519.0</ele><time>2026-04-11T09:02:32.966Z</time></trkpt><trkpt lat="43.7938" lon="12.171545"><ele>519.0</ele><time>2026-04-11T09:02:33.966Z</time></trkpt><trkpt lat="43.793725" lon="12.1716333"><ele>523.0</ele><time>2026-04-11T09:02:34.966Z</time></trkpt><trkpt lat="43.793655" lon="12.171725"><ele>527.0</ele><time>2026-04-11T09:02:35.966Z</time></trkpt><trkpt lat="43.793585" lon="12.1718167"><ele>531.0</ele><time>2026-04-11T09:02:36.966Z</time></trkpt><trkpt lat="43.79352" lon="12.1718967"><ele>535.0</ele><time>2026-04-11T09:02:37.966Z</time></trkpt><trkpt lat="43.7934483" lon="12.1719817"><ele>539.0</ele><time>2026-04-11T09:02:38.966Z</time></trkpt><trkpt lat="43.79338" lon="12.17206"><ele>539.0</ele><time>2026-04-11T09:02:39.966Z</time></trkpt><trkpt lat="43.79332" lon="12.1721467"><ele>539.0</ele><time>2026-04-11T09:02:40.966Z</time></trkpt><trkpt lat="43.793235" lon="12.1722217"><ele>539.0</ele><time>2026-04-11T09:02:41.966Z</time></trkpt><trkpt lat="43.7931567" lon="12.1722967"><ele>539.0</ele><time>2026-04-11T09:02:42.966Z</time></trkpt><trkpt lat="43.7930867" lon="12.1723733"><ele>539.0</ele><time>2026-04-11T09:02:43.966Z</time></trkpt><trkpt lat="43.79303" lon="12.1724333"><ele>539.0</ele><time>2026-04-11T09:02:44.966Z</time></trkpt><trkpt lat="43.79298" lon="12.17252"><ele>543.0</ele><time>2026-04-11T09:02:46.966Z</time></trkpt><trkpt lat="43.79309" lon="12.1725617"><ele>547.0</ele><time>2026-04-11T09:02:49.966Z</time></trkpt><trkpt lat="43.7931617" lon="12.1725533"><ele>551.0</ele><time>2026-04-11T09:02:50.966Z</time></trkpt><trkpt lat="43.793245" lon="12.17254"><ele>555.0</ele><time>2026-04-11T09:02:51.967Z</time></trkpt><trkpt lat="43.7933433" lon="12.172525"><ele>559.0</ele><time>2026-04-11T09:02:52.966Z</time></trkpt><trkpt lat="43.7934467" lon="12.172515"><ele>558.8</ele><time>2026-04-11T09:02:53.966Z</time></trkpt><trkpt lat="43.793565" lon="12.1725017"><ele>558.5999999999999</ele><time>2026-04-11T09:02:54.966Z</time></trkpt><trkpt lat="43.7936867" lon="12.1724867"><ele>558.4</ele><time>2026-04-11T09:02:55.967Z</time></trkpt><trkpt lat="43.7937983" lon="12.172495"><ele>558.1999999999999</ele><time>2026-04-11T09:02:56.966Z</time></trkpt><trkpt lat="43.79389" lon="12.17252"><ele>558.0</ele><time>2026-04-11T09:02:57.966Z</time></trkpt><trkpt lat="43.7939767" lon="12.1725567"><ele>558.0</ele><time>2026-04-11T09:02:58.966Z</time></trkpt><trkpt lat="43.7940417" lon="12.1726017"><ele>558.0</ele><time>2026-04-11T09:02:59.966Z</time></trkpt><trkpt lat="43.7941283" lon="12.1726917"><ele>558.0</ele><time>2026-04-11T09:03:01.966Z</time></trkpt><trkpt lat="43.7941683" lon="12.1728133"><ele>558.0</ele><time>2026-04-11T09:03:03.966Z</time></trkpt><trkpt lat="43.7941333" lon="12.1729183"><ele>558.0</ele><time>2026-04-11T09:03:06.966Z</time></trkpt><trkpt lat="43.7940567" lon="12.17298"><ele>558.0</ele><time>2026-04-11T09:03:08.966Z</time></trkpt><trkpt lat="43.7939617" lon="12.173055"><ele>558.0</ele><time>2026-04-11T09:03:10.966Z</time></trkpt><trkpt lat="43.793865" lon="12.1731683"><ele>558.0</ele><time>2026-04-11T09:03:12.967Z</time></trkpt><trkpt lat="43.793795" lon="12.1732967"><ele>558.0</ele><time>2026-04-11T09:03:14.966Z</time></trkpt><trkpt lat="43.7937683" lon="12.1733767"><ele>558.0</ele><time>2026-04-11T09:03:15.966Z</time></trkpt><trkpt lat="43.7937417" lon="12.17347"><ele>558.0</ele><time>2026-04-11T09:03:16.966Z</time></trkpt><trkpt lat="43.7937083" lon="12.17357"><ele>558.5</ele><time>2026-04-11T09:03:17.966Z</time></trkpt><trkpt lat="43.7936867" lon="12.1736783"><ele>559.0</ele><time>2026-04-11T09:03:18.966Z</time></trkpt><trkpt lat="43.7936717" lon="12.1737917"><ele>559.5</ele><time>2026-04-11T09:03:19.966Z</time></trkpt><trkpt lat="43.7936617" lon="12.1739"><ele>560.0</ele><time>2026-04-11T09:03:20.967Z</time></trkpt><trkpt lat="43.7936383" lon="12.1740133"><ele>560.5</ele><time>2026-04-11T09:03:21.966Z</time></trkpt><trkpt lat="43.7936083" lon="12.1741367"><ele>561.0</ele><time>2026-04-11T09:03:22.967Z</time></trkpt><trkpt lat="43.7935767" lon="12.1742633"><ele>562.3333333333334</ele><time>2026-04-11T09:03:23.966Z</time></trkpt><trkpt lat="43.7935283" lon="12.174395"><ele>563.6666666666666</ele><time>2026-04-11T09:03:24.967Z</time></trkpt><trkpt lat="43.7935" lon="12.17452"><ele>565.0</ele><time>2026-04-11T09:03:25.967Z</time></trkpt><trkpt lat="43.793485" lon="12.174635"><ele>566.3333333333333</ele><time>2026-04-11T09:03:26.966Z</time></trkpt><trkpt lat="43.793465" lon="12.1747283"><ele>567.6666666666666</ele><time>2026-04-11T09:03:27.966Z</time></trkpt><trkpt lat="43.7934433" lon="12.1748267"><ele>569.0</ele><time>2026-04-11T09:03:28.966Z</time></trkpt><trkpt lat="43.7934217" lon="12.174915"><ele>569.0</ele><time>2026-04-11T09:03:29.966Z</time></trkpt><trkpt lat="43.7933817" lon="12.1749917"><ele>569.0</ele><time>2026-04-11T09:03:30.966Z</time></trkpt><trkpt lat="43.79334" lon="12.1750617"><ele>569.0</ele><time>2026-04-11T09:03:31.966Z</time></trkpt><trkpt lat="43.7932883" lon="12.1751317"><ele>569.0</ele><time>2026-04-11T09:03:32.966Z</time></trkpt><trkpt lat="43.7932267" lon="12.1752017"><ele>569.0</ele><time>2026-04-11T09:03:33.966Z</time></trkpt><trkpt lat="43.79317" lon="12.17529"><ele>569.0</ele><time>2026-04-11T09:03:34.966Z</time></trkpt><trkpt lat="43.7931117" lon="12.1754017"><ele>569.0</ele><time>2026-04-11T09:03:35.966Z</time></trkpt><trkpt lat="43.7930633" lon="12.1755333"><ele>569.0</ele><time>2026-04-11T09:03:36.966Z</time></trkpt><trkpt lat="43.793" lon="12.1756633"><ele>569.0</ele><time>2026-04-11T09:03:37.967Z</time></trkpt><trkpt lat="43.7929383" lon="12.1757717"><ele>569.0</ele><time>2026-04-11T09:03:38.966Z</time></trkpt><trkpt lat="43.7928883" lon="12.1758883"><ele>569.0</ele><time>2026-04-11T09:03:39.966Z</time></trkpt><trkpt lat="43.79286" lon="12.1760017"><ele>569.0</ele><time>2026-04-11T09:03:40.966Z</time></trkpt><trkpt lat="43.7928417" lon="12.1761033"><ele>569.0</ele><time>2026-04-11T09:03:41.966Z</time></trkpt><trkpt lat="43.7928367" lon="12.1762083"><ele>569.0</ele><time>2026-04-11T09:03:42.966Z</time></trkpt><trkpt lat="43.7928483" lon="12.176325"><ele>569.0</ele><time>2026-04-11T09:03:43.966Z</time></trkpt><trkpt lat="43.7928567" lon="12.1764383"><ele>569.0</ele><time>2026-04-11T09:03:44.967Z</time></trkpt><trkpt lat="43.7928767" lon="12.1765267"><ele>569.0</ele><time>2026-04-11T09:03:45.966Z</time></trkpt><trkpt lat="43.79289" lon="12.17662"><ele>569.0</ele><time>2026-04-11T09:03:46.967Z</time></trkpt><trkpt lat="43.7929367" lon="12.17669"><ele>569.0</ele><time>2026-04-11T09:03:47.966Z</time></trkpt><trkpt lat="43.792995" lon="12.1767467"><ele>569.0</ele><time>2026-04-11T09:03:48.966Z</time></trkpt><trkpt lat="43.79306" lon="12.1768"><ele>569.0</ele><time>2026-04-11T09:03:49.966Z</time></trkpt><trkpt lat="43.7931417" lon="12.1768417"><ele>569.0</ele><time>2026-04-11T09:03:50.966Z</time></trkpt><trkpt lat="43.7932233" lon="12.176865"><ele>569.0</ele><time>2026-04-11T09:03:51.967Z</time></trkpt><trkpt lat="43.7933083" lon="12.17686"><ele>569.0</ele><time>2026-04-11T09:03:52.967Z</time></trkpt><trkpt lat="43.7933967" lon="12.1768317"><ele>569.0</ele><time>2026-04-11T09:03:53.967Z</time></trkpt><trkpt lat="43.7934833" lon="12.176795"><ele>569.0</ele><time>2026-04-11T09:03:54.966Z</time></trkpt><trkpt lat="43.793575" lon="12.1767633"><ele>569.0</ele><time>2026-04-11T09:03:55.966Z</time></trkpt><trkpt lat="43.793655" lon="12.1767367"><ele>569.0</ele><time>2026-04-11T09:03:56.967Z</time></trkpt><trkpt lat="43.7937417" lon="12.1767033"><ele>569.0</ele><time>2026-04-11T09:03:57.966Z</time></trkpt><trkpt lat="43.7938183" lon="12.1766717"><ele>569.6666666666666</ele><time>2026-04-11T09:03:58.966Z</time></trkpt><trkpt lat="43.7939033" lon="12.1766483"><ele>570.3333333333333</ele><time>2026-04-11T09:03:59.966Z</time></trkpt><trkpt lat="43.7939867" lon="12.176655"><ele>571.0</ele><time>2026-04-11T09:04:00.966Z</time></trkpt><trkpt lat="43.7940567" lon="12.176685"><ele>571.6666666666666</ele><time>2026-04-11T09:04:01.967Z</time></trkpt><trkpt lat="43.7941333" lon="12.176725"><ele>572.3333333333334</ele><time>2026-04-11T09:04:02.966Z</time></trkpt><trkpt lat="43.794215" lon="12.1767767"><ele>573.0</ele><time>2026-04-11T09:04:03.966Z</time></trkpt><trkpt lat="43.794305" lon="12.1768333"><ele>572.0</ele><time>2026-04-11T09:04:04.966Z</time></trkpt><trkpt lat="43.7943983" lon="12.1768967"><ele>571.0</ele><time>2026-04-11T09:04:05.966Z</time></trkpt><trkpt lat="43.7945" lon="12.1769583"><ele>570.0</ele><time>2026-04-11T09:04:06.966Z</time></trkpt><trkpt lat="43.7946017" lon="12.1770167"><ele>569.0</ele><time>2026-04-11T09:04:07.966Z</time></trkpt><trkpt lat="43.7946967" lon="12.17708"><ele>568.0</ele><time>2026-04-11T09:04:08.966Z</time></trkpt><trkpt lat="43.7947833" lon="12.17713"><ele>568.0</ele><time>2026-04-11T09:04:09.966Z</time></trkpt><trkpt lat="43.7948817" lon="12.1771533"><ele>568.0</ele><time>2026-04-11T09:04:10.966Z</time></trkpt><trkpt lat="43.794995" lon="12.1771567"><ele>568.0</ele><time>2026-04-11T09:04:11.966Z</time></trkpt><trkpt lat="43.795115" lon="12.1771417"><ele>568.0</ele><time>2026-04-11T09:04:12.967Z</time></trkpt><trkpt lat="43.7952333" lon="12.1771267"><ele>568.5</ele><time>2026-04-11T09:04:13.966Z</time></trkpt><trkpt lat="43.79535" lon="12.1771033"><ele>569.0</ele><time>2026-04-11T09:04:14.966Z</time></trkpt><trkpt lat="43.7954683" lon="12.17708"><ele>569.5</ele><time>2026-04-11T09:04:15.967Z</time></trkpt><trkpt lat="43.7955717" lon="12.177075"><ele>570.0</ele><time>2026-04-11T09:04:16.966Z</time></trkpt><trkpt lat="43.7956833" lon="12.1770783"><ele>570.0</ele><time>2026-04-11T09:04:17.966Z</time></trkpt><trkpt lat="43.795785" lon="12.1770833"><ele>570.0</ele><time>2026-04-11T09:04:18.967Z</time></trkpt><trkpt lat="43.7958817" lon="12.1770867"><ele>570.0</ele><time>2026-04-11T09:04:19.966Z</time></trkpt><trkpt lat="43.7959667" lon="12.1770883"><ele>570.0</ele><time>2026-04-11T09:04:20.966Z</time></trkpt><trkpt lat="43.796055" lon="12.1770667"><ele>570.0</ele><time>2026-04-11T09:04:21.966Z</time></trkpt><trkpt lat="43.7961383" lon="12.1770333"><ele>567.2</ele><time>2026-04-11T09:04:22.966Z</time></trkpt><trkpt lat="43.79621" lon="12.1770033"><ele>564.4</ele><time>2026-04-11T09:04:23.967Z</time></trkpt><trkpt lat="43.7963133" lon="12.1769417"><ele>561.6</ele><time>2026-04-11T09:04:25.966Z</time></trkpt><trkpt lat="43.79641" lon="12.1769667"><ele>558.8</ele><time>2026-04-11T09:04:27.966Z</time></trkpt><trkpt lat="43.7964517" lon="12.1770717"><ele>556.0</ele><time>2026-04-11T09:04:29.966Z</time></trkpt><trkpt lat="43.7964733" lon="12.1772117"><ele>557.0</ele><time>2026-04-11T09:04:31.966Z</time></trkpt><trkpt lat="43.7964967" lon="12.1773617"><ele>558.0</ele><time>2026-04-11T09:04:33.966Z</time></trkpt><trkpt lat="43.7965267" lon="12.17751"><ele>559.0</ele><time>2026-04-11T09:04:35.966Z</time></trkpt><trkpt lat="43.7965933" lon="12.1776283"><ele>560.0</ele><time>2026-04-11T09:04:37.966Z</time></trkpt><trkpt lat="43.7966583" lon="12.177685"><ele>561.0</ele><time>2026-04-11T09:04:38.966Z</time></trkpt><trkpt lat="43.7967267" lon="12.1777467"><ele>561.0</ele><time>2026-04-11T09:04:39.966Z</time></trkpt><trkpt lat="43.796795" lon="12.1777967"><ele>561.0</ele><time>2026-04-11T09:04:40.966Z</time></trkpt><trkpt lat="43.7968583" lon="12.1778367"><ele>561.0</ele><time>2026-04-11T09:04:41.966Z</time></trkpt><trkpt lat="43.7969233" lon="12.1778783"><ele>561.0</ele><time>2026-04-11T09:04:42.966Z</time></trkpt><trkpt lat="43.7969883" lon="12.177945"><ele>561.0</ele><time>2026-04-11T09:04:43.965Z</time></trkpt><trkpt lat="43.79706" lon="12.17802"><ele>561.0</ele><time>2026-04-11T09:04:44.966Z</time></trkpt><trkpt lat="43.797135" lon="12.1781067"><ele>558.0</ele><time>2026-04-11T09:04:45.966Z</time></trkpt><trkpt lat="43.7971983" lon="12.1781933"><ele>555.0</ele><time>2026-04-11T09:04:46.966Z</time></trkpt><trkpt lat="43.7972583" lon="12.1782733"><ele>552.0</ele><time>2026-04-11T09:04:47.966Z</time></trkpt><trkpt lat="43.79732" lon="12.178345"><ele>549.0</ele><time>2026-04-11T09:04:48.966Z</time></trkpt><trkpt lat="43.7973783" lon="12.178425"><ele>546.0</ele><time>2026-04-11T09:04:49.966Z</time></trkpt><trkpt lat="43.79743" lon="12.1784933"><ele>543.0</ele><time>2026-04-11T09:04:50.966Z</time></trkpt><trkpt lat="43.797475" lon="12.1785567"><ele>543.0</ele><time>2026-04-11T09:04:51.966Z</time></trkpt><trkpt lat="43.7975483" lon="12.1787067"><ele>543.0</ele><time>2026-04-11T09:04:53.966Z</time></trkpt><trkpt lat="43.7975783" lon="12.1787967"><ele>543.0</ele><time>2026-04-11T09:04:54.966Z</time></trkpt><trkpt lat="43.7976" lon="12.17889"><ele>543.0</ele><time>2026-04-11T09:04:55.966Z</time></trkpt><trkpt lat="43.797595" lon="12.17899"><ele>543.0</ele><time>2026-04-11T09:04:56.966Z</time></trkpt><trkpt lat="43.7975683" lon="12.179125"><ele>543.0</ele><time>2026-04-11T09:04:58.965Z</time></trkpt><trkpt lat="43.7974783" lon="12.1792133"><ele>543.0</ele><time>2026-04-11T09:05:00.966Z</time></trkpt><trkpt lat="43.79743" lon="12.1792833"><ele>543.0</ele><time>2026-04-11T09:05:01.966Z</time></trkpt><trkpt lat="43.7973917" lon="12.1793733"><ele>543.0</ele><time>2026-04-11T09:05:02.965Z</time></trkpt><trkpt lat="43.7973533" lon="12.17948"><ele>543.0</ele><time>2026-04-11T09:05:03.965Z</time></trkpt><trkpt lat="43.79732" lon="12.1795967"><ele>543.0</ele><time>2026-04-11T09:05:04.965Z</time></trkpt><trkpt lat="43.7973017" lon="12.1797017"><ele>543.0</ele><time>2026-04-11T09:05:05.965Z</time></trkpt><trkpt lat="43.79727" lon="12.1798067"><ele>540.8</ele><time>2026-04-11T09:05:06.965Z</time></trkpt><trkpt lat="43.7972333" lon="12.1799117"><ele>538.5999999999999</ele><time>2026-04-11T09:05:07.965Z</time></trkpt><trkpt lat="43.7972167" lon="12.1800267"><ele>536.4000000000001</ele><time>2026-04-11T09:05:08.965Z</time></trkpt><trkpt lat="43.79722" lon="12.1801583"><ele>534.2</ele><time>2026-04-11T09:05:09.965Z</time></trkpt><trkpt lat="43.7972383" lon="12.1803"><ele>532.0</ele><time>2026-04-11T09:05:10.965Z</time></trkpt><trkpt lat="43.7972633" lon="12.1804183"><ele>532.0</ele><time>2026-04-11T09:05:11.965Z</time></trkpt><trkpt lat="43.797295" lon="12.180495"><ele>532.0</ele><time>2026-04-11T09:05:12.965Z</time></trkpt><trkpt lat="43.7973367" lon="12.180565"><ele>532.0</ele><time>2026-04-11T09:05:14.966Z</time></trkpt><trkpt lat="43.7973817" lon="12.1806283"><ele>532.0</ele><time>2026-04-11T09:05:16.965Z</time></trkpt><trkpt lat="43.797435" lon="12.1807633"><ele>532.0</ele><time>2026-04-11T09:05:18.965Z</time></trkpt><trkpt lat="43.7974567" lon="12.180855"><ele>532.0</ele><time>2026-04-11T09:05:19.965Z</time></trkpt><trkpt lat="43.7974617" lon="12.1809717"><ele>531.6666666666667</ele><time>2026-04-11T09:05:20.965Z</time></trkpt><trkpt lat="43.7974583" lon="12.1810883"><ele>531.3333333333334</ele><time>2026-04-11T09:05:21.965Z</time></trkpt><trkpt lat="43.7974583" lon="12.1812"><ele>531.0</ele><time>2026-04-11T09:05:22.965Z</time></trkpt><trkpt lat="43.7974733" lon="12.1813067"><ele>530.6666666666666</ele><time>2026-04-11T09:05:23.965Z</time></trkpt><trkpt lat="43.7975067" lon="12.1813983"><ele>530.3333333333333</ele><time>2026-04-11T09:05:24.966Z</time></trkpt><trkpt lat="43.7975717" lon="12.1814683"><ele>530.0</ele><time>2026-04-11T09:05:25.965Z</time></trkpt><trkpt lat="43.7976383" lon="12.18151"><ele>531.5</ele><time>2026-04-11T09:05:26.965Z</time></trkpt><trkpt lat="43.7977117" lon="12.1815333"><ele>533.0</ele><time>2026-04-11T09:05:27.965Z</time></trkpt><trkpt lat="43.797775" lon="12.1815717"><ele>534.5</ele><time>2026-04-11T09:05:28.965Z</time></trkpt><trkpt lat="43.79786" lon="12.1816117"><ele>536.0</ele><time>2026-04-11T09:05:29.965Z</time></trkpt><trkpt lat="43.7979383" lon="12.18166"><ele>537.5</ele><time>2026-04-11T09:05:30.965Z</time></trkpt><trkpt lat="43.7980167" lon="12.1816933"><ele>539.0</ele><time>2026-04-11T09:05:31.965Z</time></trkpt><trkpt lat="43.798105" lon="12.1817183"><ele>539.0</ele><time>2026-04-11T09:05:32.965Z</time></trkpt><trkpt lat="43.7981967" lon="12.1817517"><ele>539.0</ele><time>2026-04-11T09:05:33.965Z</time></trkpt><trkpt lat="43.7982933" lon="12.181775"><ele>539.0</ele><time>2026-04-11T09:05:34.965Z</time></trkpt><trkpt lat="43.7983733" lon="12.1818083"><ele>539.0</ele><time>2026-04-11T09:05:35.965Z</time></trkpt><trkpt lat="43.7984417" lon="12.1818483"><ele>539.0</ele><time>2026-04-11T09:05:36.965Z</time></trkpt><trkpt lat="43.7985217" lon="12.18188"><ele>539.0</ele><time>2026-04-11T09:05:37.965Z</time></trkpt><trkpt lat="43.7985917" lon="12.1819117"><ele>538.0</ele><time>2026-04-11T09:05:38.966Z</time></trkpt><trkpt lat="43.7986583" lon="12.1819467"><ele>537.0</ele><time>2026-04-11T09:05:39.965Z</time></trkpt><trkpt lat="43.7987167" lon="12.1819867"><ele>536.0</ele><time>2026-04-11T09:05:40.965Z</time></trkpt><trkpt lat="43.7987717" lon="12.1821"><ele>535.0</ele><time>2026-04-11T09:05:42.965Z</time></trkpt><trkpt lat="43.7988033" lon="12.182275"><ele>534.0</ele><time>2026-04-11T09:05:44.965Z</time></trkpt><trkpt lat="43.7988217" lon="12.18239"><ele>534.0</ele><time>2026-04-11T09:05:45.965Z</time></trkpt><trkpt lat="43.7988433" lon="12.1825117"><ele>534.0</ele><time>2026-04-11T09:05:46.965Z</time></trkpt><trkpt lat="43.7988583" lon="12.18264"><ele>534.0</ele><time>2026-04-11T09:05:47.965Z</time></trkpt><trkpt lat="43.798865" lon="12.18277"><ele>534.0</ele><time>2026-04-11T09:05:48.965Z</time></trkpt><trkpt lat="43.79887" lon="12.182885"><ele>534.0</ele><time>2026-04-11T09:05:49.965Z</time></trkpt><trkpt lat="43.798875" lon="12.1829933"><ele>534.0</ele><time>2026-04-11T09:05:50.965Z</time></trkpt><trkpt lat="43.7988733" lon="12.183095"><ele>534.3333333333334</ele><time>2026-04-11T09:05:51.966Z</time></trkpt><trkpt lat="43.7988517" lon="12.1832067"><ele>534.6666666666666</ele><time>2026-04-11T09:05:52.965Z</time></trkpt><trkpt lat="43.7988283" lon="12.1833183"><ele>535.0</ele><time>2026-04-11T09:05:53.965Z</time></trkpt><trkpt lat="43.798785" lon="12.1834417"><ele>535.3333333333333</ele><time>2026-04-11T09:05:54.965Z</time></trkpt><trkpt lat="43.79876" lon="12.1835567"><ele>535.6666666666666</ele><time>2026-04-11T09:05:55.966Z</time></trkpt><trkpt lat="43.7987417" lon="12.1836733"><ele>536.0</ele><time>2026-04-11T09:05:56.965Z</time></trkpt><trkpt lat="43.7987317" lon="12.1837967"><ele>536.0</ele><time>2026-04-11T09:05:57.965Z</time></trkpt><trkpt lat="43.7987183" lon="12.183925"><ele>536.0</ele><time>2026-04-11T09:05:58.965Z</time></trkpt><trkpt lat="43.7987067" lon="12.1840583"><ele>536.0</ele><time>2026-04-11T09:05:59.965Z</time></trkpt><trkpt lat="43.7986983" lon="12.1841767"><ele>536.0</ele><time>2026-04-11T09:06:00.965Z</time></trkpt><trkpt lat="43.7986833" lon="12.18427"><ele>536.0</ele><time>2026-04-11T09:06:01.966Z</time></trkpt><trkpt lat="43.798655" lon="12.1844067"><ele>536.0</ele><time>2026-04-11T09:06:03.966Z</time></trkpt><trkpt lat="43.7986383" lon="12.1845033"><ele>536.0</ele><time>2026-04-11T09:06:06.965Z</time></trkpt><trkpt lat="43.7986333" lon="12.1845967"><ele>536.0</ele><time>2026-04-11T09:06:09.965Z</time></trkpt><trkpt lat="43.7986233" lon="12.1847083"><ele>536.0</ele><time>2026-04-11T09:07:08.965Z</time></trkpt><trkpt lat="43.7986083" lon="12.1848"><ele>536.0</ele><time>2026-04-11T09:07:09.965Z</time></trkpt><trkpt lat="43.7985933" lon="12.1849083"><ele>536.0</ele><time>2026-04-11T09:07:10.965Z</time></trkpt><trkpt lat="43.798575" lon="12.185035"><ele>536.0</ele><time>2026-04-11T09:07:11.965Z</time></trkpt><trkpt lat="43.7985583" lon="12.1851767"><ele>535.8</ele><time>2026-04-11T09:07:12.965Z</time></trkpt><trkpt lat="43.7985433" lon="12.1853217"><ele>535.6</ele><time>2026-04-11T09:07:13.965Z</time></trkpt><trkpt lat="43.7985217" lon="12.1854533"><ele>535.4</ele><time>2026-04-11T09:07:14.965Z</time></trkpt><trkpt lat="43.798505" lon="12.18558"><ele>535.2</ele><time>2026-04-11T09:07:15.966Z</time></trkpt><trkpt lat="43.7984917" lon="12.18567"><ele>535.0</ele><time>2026-04-11T09:07:16.965Z</time></trkpt><trkpt lat="43.798475" lon="12.1858367"><ele>535.4</ele><time>2026-04-11T09:07:18.965Z</time></trkpt><trkpt lat="43.798485" lon="12.1859433"><ele>535.8</ele><time>2026-04-11T09:07:19.965Z</time></trkpt><trkpt lat="43.7985083" lon="12.18608"><ele>536.2</ele><time>2026-04-11T09:07:20.965Z</time></trkpt><trkpt lat="43.7985333" lon="12.1862433"><ele>536.6</ele><time>2026-04-11T09:07:21.966Z</time></trkpt><trkpt lat="43.7985567" lon="12.1864083"><ele>537.0</ele><time>2026-04-11T09:07:22.965Z</time></trkpt><trkpt lat="43.79858" lon="12.1865767"><ele>537.0</ele><time>2026-04-11T09:07:23.966Z</time></trkpt><trkpt lat="43.7986067" lon="12.1867433"><ele>537.0</ele><time>2026-04-11T09:07:24.966Z</time></trkpt><trkpt lat="43.7986367" lon="12.186895"><ele>537.0</ele><time>2026-04-11T09:07:25.965Z</time></trkpt><trkpt lat="43.7986667" lon="12.1870267"><ele>537.0</ele><time>2026-04-11T09:07:26.965Z</time></trkpt><trkpt lat="43.79872" lon="12.187125"><ele>537.0</ele><time>2026-04-11T09:07:27.965Z</time></trkpt><trkpt lat="43.79879" lon="12.1872083"><ele>537.0</ele><time>2026-04-11T09:07:28.966Z</time></trkpt><trkpt lat="43.798885" lon="12.1872833"><ele>537.0</ele><time>2026-04-11T09:07:29.965Z</time></trkpt><trkpt lat="43.7989867" lon="12.1873783"><ele>537.0</ele><time>2026-04-11T09:07:30.965Z</time></trkpt><trkpt lat="43.7990967" lon="12.1874967"><ele>537.0</ele><time>2026-04-11T09:07:31.965Z</time></trkpt><trkpt lat="43.7991933" lon="12.18764"><ele>535.25</ele><time>2026-04-11T09:07:32.965Z</time></trkpt><trkpt lat="43.7992833" lon="12.1877883"><ele>533.5</ele><time>2026-04-11T09:07:33.965Z</time></trkpt><trkpt lat="43.7993383" lon="12.1879333"><ele>531.75</ele><time>2026-04-11T09:07:34.965Z</time></trkpt><trkpt lat="43.7993783" lon="12.18807"><ele>530.0</ele><time>2026-04-11T09:07:35.965Z</time></trkpt><trkpt lat="43.7993883" lon="12.1882183"><ele>530.0</ele><time>2026-04-11T09:07:36.965Z</time></trkpt><trkpt lat="43.79937" lon="12.18839"><ele>530.0</ele><time>2026-04-11T09:07:37.965Z</time></trkpt><trkpt lat="43.7993467" lon="12.1885717"><ele>530.0</ele><time>2026-04-11T09:07:38.966Z</time></trkpt><trkpt lat="43.7992967" lon="12.1887617"><ele>530.0</ele><time>2026-04-11T09:07:39.965Z</time></trkpt><trkpt lat="43.7992667" lon="12.18894"><ele>533.0</ele><time>2026-04-11T09:07:40.965Z</time></trkpt><trkpt lat="43.79929" lon="12.1890967"><ele>536.0</ele><time>2026-04-11T09:07:41.965Z</time></trkpt><trkpt lat="43.79933" lon="12.1892433"><ele>539.0</ele><time>2026-04-11T09:07:42.966Z</time></trkpt><trkpt lat="43.7993917" lon="12.1893667"><ele>542.0</ele><time>2026-04-11T09:07:43.965Z</time></trkpt><trkpt lat="43.7994883" lon="12.1894483"><ele>542.0</ele><time>2026-04-11T09:07:44.965Z</time></trkpt><trkpt lat="43.79961" lon="12.1894833"><ele>542.0</ele><time>2026-04-11T09:07:45.965Z</time></trkpt><trkpt lat="43.7997483" lon="12.1894883"><ele>542.0</ele><time>2026-04-11T09:07:46.965Z</time></trkpt><trkpt lat="43.7999033" lon="12.189485"><ele>542.0</ele><time>2026-04-11T09:07:47.965Z</time></trkpt><trkpt lat="43.8000533" lon="12.1895017"><ele>541.0</ele><time>2026-04-11T09:07:48.965Z</time></trkpt><trkpt lat="43.8002" lon="12.189525"><ele>540.0</ele><time>2026-04-11T09:07:49.965Z</time></trkpt><trkpt lat="43.800345" lon="12.189555"><ele>539.0</ele><time>2026-04-11T09:07:50.965Z</time></trkpt><trkpt lat="43.8004867" lon="12.189585"><ele>538.0</ele><time>2026-04-11T09:07:51.965Z</time></trkpt><trkpt lat="43.8006183" lon="12.1896083"><ele>538.0</ele><time>2026-04-11T09:07:52.965Z</time></trkpt><trkpt lat="43.8007233" lon="12.1896383"><ele>538.0</ele><time>2026-04-11T09:07:53.966Z</time></trkpt><trkpt lat="43.800805" lon="12.1896933"><ele>538.0</ele><time>2026-04-11T09:07:54.965Z</time></trkpt><trkpt lat="43.8008617" lon="12.189775"><ele>538.0</ele><time>2026-04-11T09:07:55.965Z</time></trkpt><trkpt lat="43.8008833" lon="12.18988"><ele>538.0</ele><time>2026-04-11T09:07:56.966Z</time></trkpt><trkpt lat="43.8008933" lon="12.1899917"><ele>538.0</ele><time>2026-04-11T09:07:57.965Z</time></trkpt><trkpt lat="43.8008767" lon="12.1901367"><ele>540.0</ele><time>2026-04-11T09:07:58.966Z</time></trkpt><trkpt lat="43.800845" lon="12.190315"><ele>542.0</ele><time>2026-04-11T09:07:59.965Z</time></trkpt><trkpt lat="43.8008183" lon="12.1904983"><ele>544.0</ele><time>2026-04-11T09:08:00.965Z</time></trkpt><trkpt lat="43.800795" lon="12.1906733"><ele>546.0</ele><time>2026-04-11T09:08:01.965Z</time></trkpt><trkpt lat="43.8007683" lon="12.190825"><ele>546.0</ele><time>2026-04-11T09:08:02.965Z</time></trkpt><trkpt lat="43.8007233" lon="12.19097"><ele>546.0</ele><time>2026-04-11T09:08:03.965Z</time></trkpt><trkpt lat="43.800665" lon="12.191115"><ele>546.0</ele><time>2026-04-11T09:08:04.965Z</time></trkpt><trkpt lat="43.8005917" lon="12.1912633"><ele>546.0</ele><time>2026-04-11T09:08:05.965Z</time></trkpt><trkpt lat="43.8004983" lon="12.19142"><ele>544.0</ele><time>2026-04-11T09:08:06.965Z</time></trkpt><trkpt lat="43.8004233" lon="12.19159"><ele>542.0</ele><time>2026-04-11T09:08:07.965Z</time></trkpt><trkpt lat="43.8003583" lon="12.1917583"><ele>540.0</ele><time>2026-04-11T09:08:08.966Z</time></trkpt><trkpt lat="43.80032" lon="12.1919217"><ele>538.0</ele><time>2026-04-11T09:08:09.965Z</time></trkpt><trkpt lat="43.8003067" lon="12.1920767"><ele>538.0</ele><time>2026-04-11T09:08:10.966Z</time></trkpt><trkpt lat="43.800325" lon="12.1922033"><ele>538.0</ele><time>2026-04-11T09:08:11.965Z</time></trkpt><trkpt lat="43.800385" lon="12.19232"><ele>538.0</ele><time>2026-04-11T09:08:12.965Z</time></trkpt><trkpt lat="43.80047" lon="12.1924367"><ele>538.0</ele><time>2026-04-11T09:08:13.966Z</time></trkpt><trkpt lat="43.8005583" lon="12.1925667"><ele>538.0</ele><time>2026-04-11T09:08:14.965Z</time></trkpt><trkpt lat="43.80065" lon="12.1927117"><ele>539.5</ele><time>2026-04-11T09:08:15.965Z</time></trkpt><trkpt lat="43.8007383" lon="12.19285"><ele>541.0</ele><time>2026-04-11T09:08:16.965Z</time></trkpt><trkpt lat="43.8008367" lon="12.1929633"><ele>542.5</ele><time>2026-04-11T09:08:17.965Z</time></trkpt><trkpt lat="43.8009483" lon="12.1930367"><ele>544.0</ele><time>2026-04-11T09:08:18.966Z</time></trkpt><trkpt lat="43.80107" lon="12.19307"><ele>540.5</ele><time>2026-04-11T09:08:19.965Z</time></trkpt><trkpt lat="43.8011983" lon="12.1930833"><ele>537.0</ele><time>2026-04-11T09:08:20.965Z</time></trkpt><trkpt lat="43.80133" lon="12.193095"><ele>533.5</ele><time>2026-04-11T09:08:21.965Z</time></trkpt><trkpt lat="43.8014683" lon="12.1931117"><ele>530.0</ele><time>2026-04-11T09:08:22.965Z</time></trkpt><trkpt lat="43.8015817" lon="12.1931633"><ele>533.5</ele><time>2026-04-11T09:08:23.965Z</time></trkpt><trkpt lat="43.8016683" lon="12.19323"><ele>537.0</ele><time>2026-04-11T09:08:24.965Z</time></trkpt><trkpt lat="43.80172" lon="12.1933117"><ele>540.5</ele><time>2026-04-11T09:08:25.966Z</time></trkpt><trkpt lat="43.8017567" lon="12.1934"><ele>544.0</ele><time>2026-04-11T09:08:26.965Z</time></trkpt><trkpt lat="43.8017667" lon="12.1934983"><ele>547.5</ele><time>2026-04-11T09:08:27.965Z</time></trkpt><trkpt lat="43.8017517" lon="12.1935983"><ele>551.0</ele><time>2026-04-11T09:08:28.965Z</time></trkpt><trkpt lat="43.80171" lon="12.19369"><ele>551.0</ele><time>2026-04-11T09:08:29.965Z</time></trkpt><trkpt lat="43.8016367" lon="12.193785"><ele>551.0</ele><time>2026-04-11T09:08:30.965Z</time></trkpt><trkpt lat="43.8015617" lon="12.193885"><ele>551.0</ele><time>2026-04-11T09:08:31.965Z</time></trkpt><trkpt lat="43.801485" lon="12.19401"><ele>551.0</ele><time>2026-04-11T09:08:32.965Z</time></trkpt><trkpt lat="43.8014233" lon="12.1941483"><ele>551.0</ele><time>2026-04-11T09:08:33.965Z</time></trkpt><trkpt lat="43.8013783" lon="12.1943017"><ele>549.4</ele><time>2026-04-11T09:08:34.965Z</time></trkpt><trkpt lat="43.80132" lon="12.19443"><ele>547.8</ele><time>2026-04-11T09:08:35.966Z</time></trkpt><trkpt lat="43.80127" lon="12.19453"><ele>546.1999999999999</ele><time>2026-04-11T09:08:36.965Z</time></trkpt><trkpt lat="43.8012017" lon="12.1946"><ele>544.6</ele><time>2026-04-11T09:08:37.965Z</time></trkpt><trkpt lat="43.8011167" lon="12.19462"><ele>543.0</ele><time>2026-04-11T09:08:38.965Z</time></trkpt><trkpt lat="43.80102" lon="12.194605"><ele>550.75</ele><time>2026-04-11T09:08:39.965Z</time></trkpt><trkpt lat="43.8009117" lon="12.1945833"><ele>558.5</ele><time>2026-04-11T09:08:40.965Z</time></trkpt><trkpt lat="43.8008033" lon="12.1945617"><ele>566.25</ele><time>2026-04-11T09:08:41.965Z</time></trkpt><trkpt lat="43.80069" lon="12.1945567"><ele>574.0</ele><time>2026-04-11T09:08:42.965Z</time></trkpt><trkpt lat="43.800565" lon="12.1945783"><ele>574.0</ele><time>2026-04-11T09:08:43.965Z</time></trkpt><trkpt lat="43.80044" lon="12.1946133"><ele>574.0</ele><time>2026-04-11T09:08:44.965Z</time></trkpt><trkpt lat="43.8002967" lon="12.1946483"><ele>574.0</ele><time>2026-04-11T09:08:45.965Z</time></trkpt><trkpt lat="43.8001783" lon="12.1946983"><ele>574.0</ele><time>2026-04-11T09:08:46.965Z</time></trkpt><trkpt lat="43.800045" lon="12.1947367"><ele>576.75</ele><time>2026-04-11T09:08:47.966Z</time></trkpt><trkpt lat="43.7999383" lon="12.1947567"><ele>579.5</ele><time>2026-04-11T09:08:48.965Z</time></trkpt><trkpt lat="43.7998333" lon="12.194745"><ele>582.25</ele><time>2026-04-11T09:08:49.965Z</time></trkpt><trkpt lat="43.7997067" lon="12.1946933"><ele>585.0</ele><time>2026-04-11T09:08:50.965Z</time></trkpt><trkpt lat="43.799575" lon="12.1946233"><ele>585.0</ele><time>2026-04-11T09:08:51.965Z</time></trkpt><trkpt lat="43.79944" lon="12.1945867"><ele>585.0</ele><time>2026-04-11T09:08:52.964Z</time></trkpt><trkpt lat="43.7993083" lon="12.19458"><ele>585.0</ele><time>2026-04-11T09:08:53.964Z</time></trkpt><trkpt lat="43.79918" lon="12.1946083"><ele>585.0</ele><time>2026-04-11T09:08:54.964Z</time></trkpt><trkpt lat="43.799085" lon="12.1946817"><ele>585.75</ele><time>2026-04-11T09:08:55.964Z</time></trkpt><trkpt lat="43.79901" lon="12.1947817"><ele>586.5</ele><time>2026-04-11T09:08:56.964Z</time></trkpt><trkpt lat="43.7989533" lon="12.1949117"><ele>587.25</ele><time>2026-04-11T09:08:57.964Z</time></trkpt><trkpt lat="43.7989167" lon="12.1950767"><ele>588.0</ele><time>2026-04-11T09:08:58.964Z</time></trkpt><trkpt lat="43.798905" lon="12.1952517"><ele>582.5</ele><time>2026-04-11T09:08:59.965Z</time></trkpt><trkpt lat="43.798915" lon="12.1954283"><ele>577.0</ele><time>2026-04-11T09:09:00.964Z</time></trkpt><trkpt lat="43.7989617" lon="12.1956217"><ele>571.5</ele><time>2026-04-11T09:09:01.965Z</time></trkpt><trkpt lat="43.7990033" lon="12.1958033"><ele>566.0</ele><time>2026-04-11T09:09:02.964Z</time></trkpt><trkpt lat="43.79906" lon="12.1959517"><ele>564.8</ele><time>2026-04-11T09:09:03.965Z</time></trkpt><trkpt lat="43.79908" lon="12.1961033"><ele>563.6</ele><time>2026-04-11T09:09:04.964Z</time></trkpt><trkpt lat="43.79908" lon="12.196245"><ele>562.4</ele><time>2026-04-11T09:09:05.964Z</time></trkpt><trkpt lat="43.79906" lon="12.1963733"><ele>561.2</ele><time>2026-04-11T09:09:06.964Z</time></trkpt><trkpt lat="43.7989983" lon="12.1964767"><ele>560.0</ele><time>2026-04-11T09:09:07.964Z</time></trkpt><trkpt lat="43.7989183" lon="12.1965583"><ele>558.6</ele><time>2026-04-11T09:09:08.965Z</time></trkpt><trkpt lat="43.798835" lon="12.1966233"><ele>557.2</ele><time>2026-04-11T09:09:09.964Z</time></trkpt><trkpt lat="43.7987483" lon="12.1967067"><ele>555.8</ele><time>2026-04-11T09:09:10.964Z</time></trkpt><trkpt lat="43.7986667" lon="12.1967967"><ele>554.4</ele><time>2026-04-11T09:09:11.965Z</time></trkpt><trkpt lat="43.79859" lon="12.1968767"><ele>553.0</ele><time>2026-04-11T09:09:12.965Z</time></trkpt><trkpt lat="43.7985233" lon="12.1969533"><ele>558.6</ele><time>2026-04-11T09:09:13.965Z</time></trkpt><trkpt lat="43.7984667" lon="12.1970117"><ele>564.1999999999999</ele><time>2026-04-11T09:09:14.964Z</time></trkpt><trkpt lat="43.798385" lon="12.1970833"><ele>569.8</ele><time>2026-04-11T09:09:16.964Z</time></trkpt><trkpt lat="43.7982983" lon="12.197095"><ele>575.4</ele><time>2026-04-11T09:10:01.965Z</time></trkpt><trkpt lat="43.79817" lon="12.1970467"><ele>581.0</ele><time>2026-04-11T09:10:03.964Z</time></trkpt><trkpt lat="43.7980817" lon="12.19702"><ele>581.0</ele><time>2026-04-11T09:10:04.964Z</time></trkpt><trkpt lat="43.7979733" lon="12.1969833"><ele>581.0</ele><time>2026-04-11T09:10:05.964Z</time></trkpt><trkpt lat="43.7978567" lon="12.196935"><ele>581.0</ele><time>2026-04-11T09:10:06.964Z</time></trkpt><trkpt lat="43.7977317" lon="12.1968683"><ele>581.0</ele><time>2026-04-11T09:10:07.964Z</time></trkpt><trkpt lat="43.7976033" lon="12.196785"><ele>582.6666666666666</ele><time>2026-04-11T09:10:08.965Z</time></trkpt><trkpt lat="43.79746" lon="12.196695"><ele>584.3333333333334</ele><time>2026-04-11T09:10:09.964Z</time></trkpt><trkpt lat="43.797315" lon="12.1965983"><ele>586.0</ele><time>2026-04-11T09:10:10.964Z</time></trkpt><trkpt lat="43.79719" lon="12.1965017"><ele>589.5</ele><time>2026-04-11T09:10:11.964Z</time></trkpt><trkpt lat="43.79706" lon="12.1963967"><ele>593.0</ele><time>2026-04-11T09:10:12.964Z</time></trkpt><trkpt lat="43.796945" lon="12.1962783"><ele>596.5</ele><time>2026-04-11T09:10:13.964Z</time></trkpt><trkpt lat="43.7968517" lon="12.19612"><ele>600.0</ele><time>2026-04-11T09:10:14.965Z</time></trkpt><trkpt lat="43.796745" lon="12.1959683"><ele>600.0</ele><time>2026-04-11T09:10:15.965Z</time></trkpt><trkpt lat="43.79663" lon="12.1958583"><ele>600.0</ele><time>2026-04-11T09:10:16.965Z</time></trkpt><trkpt lat="43.79651" lon="12.1957783"><ele>600.0</ele><time>2026-04-11T09:10:17.964Z</time></trkpt><trkpt lat="43.7963783" lon="12.1957417"><ele>600.0</ele><time>2026-04-11T09:10:18.964Z</time></trkpt><trkpt lat="43.7962433" lon="12.1957433"><ele>600.0</ele><time>2026-04-11T09:10:19.964Z</time></trkpt><trkpt lat="43.79612" lon="12.1957683"><ele>600.0</ele><time>2026-04-11T09:10:20.964Z</time></trkpt><trkpt lat="43.7960033" lon="12.195825"><ele>600.0</ele><time>2026-04-11T09:10:21.964Z</time></trkpt><trkpt lat="43.7959" lon="12.1959183"><ele>600.0</ele><time>2026-04-11T09:10:22.964Z</time></trkpt><trkpt lat="43.7957883" lon="12.1960167"><ele>598.4</ele><time>2026-04-11T09:10:23.964Z</time></trkpt><trkpt lat="43.79567" lon="12.1961067"><ele>596.8</ele><time>2026-04-11T09:10:24.964Z</time></trkpt><trkpt lat="43.7955583" lon="12.19618"><ele>595.2</ele><time>2026-04-11T09:10:25.964Z</time></trkpt><trkpt lat="43.7954617" lon="12.1962067"><ele>593.6</ele><time>2026-04-11T09:10:26.964Z</time></trkpt><trkpt lat="43.7953833" lon="12.1961883"><ele>592.0</ele><time>2026-04-11T09:10:27.964Z</time></trkpt><trkpt lat="43.7953017" lon="12.1961533"><ele>592.0</ele><time>2026-04-11T09:10:28.964Z</time></trkpt><trkpt lat="43.7952133" lon="12.196095"><ele>592.0</ele><time>2026-04-11T09:10:29.964Z</time></trkpt><trkpt lat="43.7951283" lon="12.1960233"><ele>592.0</ele><time>2026-04-11T09:10:30.964Z</time></trkpt><trkpt lat="43.7950383" lon="12.1959517"><ele>592.0</ele><time>2026-04-11T09:10:31.964Z</time></trkpt><trkpt lat="43.7949267" lon="12.19588"><ele>592.0</ele><time>2026-04-11T09:10:32.964Z</time></trkpt><trkpt lat="43.7948017" lon="12.1958"><ele>592.0</ele><time>2026-04-11T09:10:33.964Z</time></trkpt><trkpt lat="43.7946783" lon="12.1957083"><ele>592.0</ele><time>2026-04-11T09:10:34.965Z</time></trkpt><trkpt lat="43.7945567" lon="12.1956117"><ele>592.0</ele><time>2026-04-11T09:10:35.964Z</time></trkpt><trkpt lat="43.7944233" lon="12.195505"><ele>592.0</ele><time>2026-04-11T09:10:36.964Z</time></trkpt><trkpt lat="43.7942917" lon="12.19539"><ele>592.3333333333334</ele><time>2026-04-11T09:10:37.964Z</time></trkpt><trkpt lat="43.7941583" lon="12.1952733"><ele>592.6666666666666</ele><time>2026-04-11T09:10:38.965Z</time></trkpt><trkpt lat="43.7940267" lon="12.1951533"><ele>593.0</ele><time>2026-04-11T09:10:39.964Z</time></trkpt><trkpt lat="43.7938933" lon="12.1950367"><ele>593.0</ele><time>2026-04-11T09:10:40.964Z</time></trkpt><trkpt lat="43.7937433" lon="12.194925"><ele>593.0</ele><time>2026-04-11T09:10:41.964Z</time></trkpt><trkpt lat="43.7936133" lon="12.1948"><ele>593.0</ele><time>2026-04-11T09:10:42.964Z</time></trkpt><trkpt lat="43.793485" lon="12.1946867"><ele>594.5</ele><time>2026-04-11T09:10:43.964Z</time></trkpt><trkpt lat="43.7933633" lon="12.1945883"><ele>596.0</ele><time>2026-04-11T09:10:44.964Z</time></trkpt><trkpt lat="43.793245" lon="12.1945017"><ele>597.5</ele><time>2026-04-11T09:10:45.964Z</time></trkpt><trkpt lat="43.7931267" lon="12.19444"><ele>599.0</ele><time>2026-04-11T09:10:46.964Z</time></trkpt><trkpt lat="43.7930083" lon="12.1944117"><ele>599.0</ele><time>2026-04-11T09:10:47.965Z</time></trkpt><trkpt lat="43.79289" lon="12.1944367"><ele>599.0</ele><time>2026-04-11T09:10:48.964Z</time></trkpt><trkpt lat="43.792785" lon="12.1945483"><ele>599.0</ele><time>2026-04-11T09:10:49.964Z</time></trkpt><trkpt lat="43.7926683" lon="12.1946917"><ele>599.0</ele><time>2026-04-11T09:10:50.964Z</time></trkpt><trkpt lat="43.79256" lon="12.1948333"><ele>593.0</ele><time>2026-04-11T09:10:51.964Z</time></trkpt><trkpt lat="43.7924417" lon="12.1949767"><ele>587.0</ele><time>2026-04-11T09:10:52.964Z</time></trkpt><trkpt lat="43.7923183" lon="12.1951083"><ele>581.0</ele><time>2026-04-11T09:10:53.965Z</time></trkpt><trkpt lat="43.792185" lon="12.1952383"><ele>581.0</ele><time>2026-04-11T09:10:54.964Z</time></trkpt><trkpt lat="43.79205" lon="12.1953617"><ele>581.0</ele><time>2026-04-11T09:10:55.964Z</time></trkpt><trkpt lat="43.7919233" lon="12.19549"><ele>581.0</ele><time>2026-04-11T09:10:56.964Z</time></trkpt><trkpt lat="43.7918033" lon="12.1956033"><ele>579.25</ele><time>2026-04-11T09:10:57.964Z</time></trkpt><trkpt lat="43.7916883" lon="12.19572"><ele>577.5</ele><time>2026-04-11T09:10:58.964Z</time></trkpt><trkpt lat="43.791575" lon="12.19585"><ele>575.75</ele><time>2026-04-11T09:10:59.964Z</time></trkpt><trkpt lat="43.7914667" lon="12.1959617"><ele>574.0</ele><time>2026-04-11T09:11:00.964Z</time></trkpt><trkpt lat="43.7913767" lon="12.196095"><ele>574.0</ele><time>2026-04-11T09:11:01.964Z</time></trkpt><trkpt lat="43.79128" lon="12.1962433"><ele>574.0</ele><time>2026-04-11T09:11:02.964Z</time></trkpt><trkpt lat="43.7911883" lon="12.19637"><ele>574.0</ele><time>2026-04-11T09:11:03.964Z</time></trkpt><trkpt lat="43.791095" lon="12.1964867"><ele>574.0</ele><time>2026-04-11T09:11:04.965Z</time></trkpt><trkpt lat="43.790985" lon="12.19656"><ele>572.0</ele><time>2026-04-11T09:11:05.965Z</time></trkpt><trkpt lat="43.790855" lon="12.196605"><ele>570.0</ele><time>2026-04-11T09:11:06.964Z</time></trkpt><trkpt lat="43.7907183" lon="12.19661"><ele>568.0</ele><time>2026-04-11T09:11:07.964Z</time></trkpt><trkpt lat="43.7905633" lon="12.1965883"><ele>566.0</ele><time>2026-04-11T09:11:08.964Z</time></trkpt><trkpt lat="43.7904067" lon="12.19656"><ele>566.0</ele><time>2026-04-11T09:11:09.964Z</time></trkpt><trkpt lat="43.7902533" lon="12.1965317"><ele>566.0</ele><time>2026-04-11T09:11:10.964Z</time></trkpt><trkpt lat="43.7901183" lon="12.1965067"><ele>566.0</ele><time>2026-04-11T09:11:11.965Z</time></trkpt><trkpt lat="43.7899983" lon="12.1964983"><ele>566.0</ele><time>2026-04-11T09:11:12.964Z</time></trkpt><trkpt lat="43.78989" lon="12.196465"><ele>566.75</ele><time>2026-04-11T09:11:13.965Z</time></trkpt><trkpt lat="43.7897833" lon="12.196375"><ele>567.5</ele><time>2026-04-11T09:11:14.964Z</time></trkpt><trkpt lat="43.7896883" lon="12.19624"><ele>568.25</ele><time>2026-04-11T09:11:15.965Z</time></trkpt><trkpt lat="43.7895983" lon="12.1960783"><ele>569.0</ele><time>2026-04-11T09:11:16.964Z</time></trkpt><trkpt lat="43.7895033" lon="12.1959333"><ele>569.0</ele><time>2026-04-11T09:11:17.964Z</time></trkpt><trkpt lat="43.7893917" lon="12.19581"><ele>569.0</ele><time>2026-04-11T09:11:18.964Z</time></trkpt><trkpt lat="43.78927" lon="12.19572"><ele>569.0</ele><time>2026-04-11T09:11:19.964Z</time></trkpt><trkpt lat="43.7891433" lon="12.1956517"><ele>569.0</ele><time>2026-04-11T09:11:20.964Z</time></trkpt><trkpt lat="43.78901" lon="12.1955783"><ele>570.6</ele><time>2026-04-11T09:11:21.964Z</time></trkpt><trkpt lat="43.788885" lon="12.1955167"><ele>572.2</ele><time>2026-04-11T09:11:22.964Z</time></trkpt><trkpt lat="43.78877" lon="12.1954667"><ele>573.8000000000001</ele><time>2026-04-11T09:11:23.964Z</time></trkpt><trkpt lat="43.7886667" lon="12.1954683"><ele>575.4</ele><time>2026-04-11T09:11:24.964Z</time></trkpt><trkpt lat="43.7885833" lon="12.1955233"><ele>577.0</ele><time>2026-04-11T09:11:25.964Z</time></trkpt><trkpt lat="43.78852" lon="12.195595"><ele>572.0</ele><time>2026-04-11T09:11:26.965Z</time></trkpt><trkpt lat="43.7884917" lon="12.1956867"><ele>567.0</ele><time>2026-04-11T09:11:27.964Z</time></trkpt><trkpt lat="43.7884933" lon="12.195805"><ele>562.0</ele><time>2026-04-11T09:11:28.964Z</time></trkpt><trkpt lat="43.7885967" lon="12.1959867"><ele>557.0</ele><time>2026-04-11T09:11:29.964Z</time></trkpt><trkpt lat="43.78869" lon="12.1961417"><ele>557.0</ele><time>2026-04-11T09:11:30.964Z</time></trkpt><trkpt lat="43.7887683" lon="12.19631"><ele>557.0</ele><time>2026-04-11T09:11:31.965Z</time></trkpt><trkpt lat="43.7888317" lon="12.1964917"><ele>557.0</ele><time>2026-04-11T09:11:32.964Z</time></trkpt><trkpt lat="43.7888967" lon="12.1966817"><ele>557.0</ele><time>2026-04-11T09:11:33.965Z</time></trkpt><trkpt lat="43.7889583" lon="12.1968883"><ele>554.0</ele><time>2026-04-11T09:11:34.964Z</time></trkpt><trkpt lat="43.7890183" lon="12.1971133"><ele>551.0</ele><time>2026-04-11T09:11:35.964Z</time></trkpt><trkpt lat="43.7890733" lon="12.1973317"><ele>548.0</ele><time>2026-04-11T09:11:36.964Z</time></trkpt><trkpt lat="43.789125" lon="12.197535"><ele>544.75</ele><time>2026-04-11T09:11:37.964Z</time></trkpt><trkpt lat="43.7891467" lon="12.197725"><ele>541.5</ele><time>2026-04-11T09:11:38.964Z</time></trkpt><trkpt lat="43.789155" lon="12.1979067"><ele>538.25</ele><time>2026-04-11T09:11:39.964Z</time></trkpt><trkpt lat="43.7891367" lon="12.19809"><ele>535.0</ele><time>2026-04-11T09:11:40.965Z</time></trkpt><trkpt lat="43.789105" lon="12.1982817"><ele>531.3333333333334</ele><time>2026-04-11T09:11:41.964Z</time></trkpt><trkpt lat="43.78906" lon="12.19848"><ele>527.6666666666666</ele><time>2026-04-11T09:11:42.964Z</time></trkpt><trkpt lat="43.7890017" lon="12.1986767"><ele>524.0</ele><time>2026-04-11T09:11:43.965Z</time></trkpt><trkpt lat="43.7889283" lon="12.19887"><ele>523.8</ele><time>2026-04-11T09:11:44.964Z</time></trkpt><trkpt lat="43.7888583" lon="12.1990233"><ele>523.5999999999999</ele><time>2026-04-11T09:11:45.964Z</time></trkpt><trkpt lat="43.7887917" lon="12.1991317"><ele>523.4</ele><time>2026-04-11T09:11:46.965Z</time></trkpt><trkpt lat="43.7887117" lon="12.1991667"><ele>523.1999999999999</ele><time>2026-04-11T09:11:47.965Z</time></trkpt><trkpt lat="43.7886033" lon="12.1991267"><ele>523.0</ele><time>2026-04-11T09:11:48.964Z</time></trkpt><trkpt lat="43.7885117" lon="12.1990233"><ele>521.75</ele><time>2026-04-11T09:11:49.964Z</time></trkpt><trkpt lat="43.788425" lon="12.1988967"><ele>520.5</ele><time>2026-04-11T09:11:50.965Z</time></trkpt><trkpt lat="43.7883333" lon="12.1987367"><ele>519.25</ele><time>2026-04-11T09:11:51.964Z</time></trkpt><trkpt lat="43.7882367" lon="12.1985683"><ele>518.0</ele><time>2026-04-11T09:11:52.964Z</time></trkpt><trkpt lat="43.7881417" lon="12.1983867"><ele>518.0</ele><time>2026-04-11T09:11:53.964Z</time></trkpt><trkpt lat="43.7880567" lon="12.1981983"><ele>518.0</ele><time>2026-04-11T09:11:54.964Z</time></trkpt><trkpt lat="43.7879683" lon="12.1980467"><ele>518.0</ele><time>2026-04-11T09:11:55.964Z</time></trkpt><trkpt lat="43.7878733" lon="12.19794"><ele>518.0</ele><time>2026-04-11T09:11:56.964Z</time></trkpt><trkpt lat="43.7877683" lon="12.197895"><ele>516.0</ele><time>2026-04-11T09:11:57.964Z</time></trkpt><trkpt lat="43.7876667" lon="12.1979067"><ele>514.0</ele><time>2026-04-11T09:11:58.964Z</time></trkpt><trkpt lat="43.787575" lon="12.1979767"><ele>512.0</ele><time>2026-04-11T09:11:59.964Z</time></trkpt><trkpt lat="43.7874667" lon="12.1981067"><ele>510.0</ele><time>2026-04-11T09:12:00.964Z</time></trkpt><trkpt lat="43.78737" lon="12.1982633"><ele>509.5</ele><time>2026-04-11T09:12:01.964Z</time></trkpt><trkpt lat="43.78728" lon="12.1984233"><ele>509.0</ele><time>2026-04-11T09:12:02.964Z</time></trkpt><trkpt lat="43.7871983" lon="12.1985867"><ele>508.5</ele><time>2026-04-11T09:12:03.965Z</time></trkpt><trkpt lat="43.78711" lon="12.1987517"><ele>508.0</ele><time>2026-04-11T09:12:04.964Z</time></trkpt><trkpt lat="43.7870267" lon="12.19891"><ele>507.5</ele><time>2026-04-11T09:12:05.965Z</time></trkpt><trkpt lat="43.7869467" lon="12.1990617"><ele>507.0</ele><time>2026-04-11T09:12:06.965Z</time></trkpt><trkpt lat="43.78689" lon="12.199225"><ele>506.5</ele><time>2026-04-11T09:12:07.964Z</time></trkpt><trkpt lat="43.7868533" lon="12.1994017"><ele>506.0</ele><time>2026-04-11T09:12:08.965Z</time></trkpt><trkpt lat="43.7868617" lon="12.1995683"><ele>506.0</ele><time>2026-04-11T09:12:09.964Z</time></trkpt><trkpt lat="43.786905" lon="12.1997367"><ele>506.0</ele><time>2026-04-11T09:12:10.965Z</time></trkpt><trkpt lat="43.7869733" lon="12.1998783"><ele>506.0</ele><time>2026-04-11T09:12:11.964Z</time></trkpt><trkpt lat="43.7870217" lon="12.2000783"><ele>506.0</ele><time>2026-04-11T09:12:12.965Z</time></trkpt><trkpt lat="43.787085" lon="12.2002717"><ele>504.0</ele><time>2026-04-11T09:12:13.964Z</time></trkpt><trkpt lat="43.78714" lon="12.20043"><ele>502.0</ele><time>2026-04-11T09:12:14.965Z</time></trkpt><trkpt lat="43.787215" lon="12.2005533"><ele>500.0</ele><time>2026-04-11T09:12:15.964Z</time></trkpt><trkpt lat="43.7873167" lon="12.20065"><ele>498.0</ele><time>2026-04-11T09:12:16.965Z</time></trkpt><trkpt lat="43.78745" lon="12.2007217"><ele>495.33333333333337</ele><time>2026-04-11T09:12:17.964Z</time></trkpt><trkpt lat="43.78759" lon="12.2007817"><ele>492.6666666666667</ele><time>2026-04-11T09:12:18.964Z</time></trkpt><trkpt lat="43.7877383" lon="12.2008433"><ele>490.0</ele><time>2026-04-11T09:12:19.964Z</time></trkpt><trkpt lat="43.787885" lon="12.2009167"><ele>490.0</ele><time>2026-04-11T09:12:20.964Z</time></trkpt><trkpt lat="43.788025" lon="12.200995"><ele>490.0</ele><time>2026-04-11T09:12:21.964Z</time></trkpt><trkpt lat="43.7881217" lon="12.201075"><ele>490.0</ele><time>2026-04-11T09:12:22.964Z</time></trkpt><trkpt lat="43.788185" lon="12.2011567"><ele>490.0</ele><time>2026-04-11T09:12:23.964Z</time></trkpt><trkpt lat="43.7882217" lon="12.20124"><ele>490.0</ele><time>2026-04-11T09:12:24.964Z</time></trkpt><trkpt lat="43.7882117" lon="12.201355"><ele>490.0</ele><time>2026-04-11T09:12:25.964Z</time></trkpt><trkpt lat="43.7881483" lon="12.201435"><ele>490.0</ele><time>2026-04-11T09:12:26.964Z</time></trkpt><trkpt lat="43.7880483" lon="12.2015033"><ele>490.0</ele><time>2026-04-11T09:12:27.965Z</time></trkpt><trkpt lat="43.7879267" lon="12.2015183"><ele>490.0</ele><time>2026-04-11T09:12:28.964Z</time></trkpt><trkpt lat="43.787785" lon="12.2014917"><ele>486.6666666666667</ele><time>2026-04-11T09:12:29.964Z</time></trkpt><trkpt lat="43.7876267" lon="12.2014517"><ele>483.33333333333337</ele><time>2026-04-11T09:12:30.964Z</time></trkpt><trkpt lat="43.78747" lon="12.2014083"><ele>480.0</ele><time>2026-04-11T09:12:31.965Z</time></trkpt><trkpt lat="43.7873133" lon="12.2013717"><ele>480.0</ele><time>2026-04-11T09:12:32.964Z</time></trkpt><trkpt lat="43.7871333" lon="12.2013433"><ele>480.0</ele><time>2026-04-11T09:12:33.964Z</time></trkpt><trkpt lat="43.7869467" lon="12.2013133"><ele>480.0</ele><time>2026-04-11T09:12:34.964Z</time></trkpt><trkpt lat="43.7867617" lon="12.201285"><ele>477.66666666666663</ele><time>2026-04-11T09:12:35.964Z</time></trkpt><trkpt lat="43.7865967" lon="12.2012567"><ele>475.3333333333333</ele><time>2026-04-11T09:12:36.964Z</time></trkpt><trkpt lat="43.786425" lon="12.2012533"><ele>473.0</ele><time>2026-04-11T09:12:37.964Z</time></trkpt><trkpt lat="43.7862617" lon="12.2012833"><ele>473.0</ele><time>2026-04-11T09:12:38.964Z</time></trkpt><trkpt lat="43.7860917" lon="12.20137"><ele>473.0</ele><time>2026-04-11T09:12:39.964Z</time></trkpt><trkpt lat="43.78594" lon="12.2014667"><ele>473.0</ele><time>2026-04-11T09:12:40.964Z</time></trkpt><trkpt lat="43.78579" lon="12.201585"><ele>468.0</ele><time>2026-04-11T09:12:41.964Z</time></trkpt><trkpt lat="43.7856583" lon="12.2016683"><ele>463.0</ele><time>2026-04-11T09:12:42.964Z</time></trkpt><trkpt lat="43.785545" lon="12.2017033"><ele>458.0</ele><time>2026-04-11T09:12:43.965Z</time></trkpt><trkpt lat="43.785435" lon="12.2016717"><ele>453.0</ele><time>2026-04-11T09:12:44.964Z</time></trkpt><trkpt lat="43.78536" lon="12.2015583"><ele>451.5</ele><time>2026-04-11T09:12:45.964Z</time></trkpt><trkpt lat="43.7853017" lon="12.2014117"><ele>450.0</ele><time>2026-04-11T09:12:46.964Z</time></trkpt><trkpt lat="43.7852617" lon="12.201225"><ele>448.5</ele><time>2026-04-11T09:12:47.965Z</time></trkpt><trkpt lat="43.7852133" lon="12.201045"><ele>447.0</ele><time>2026-04-11T09:12:48.964Z</time></trkpt><trkpt lat="43.7851683" lon="12.200865"><ele>447.0</ele><time>2026-04-11T09:12:49.964Z</time></trkpt><trkpt lat="43.7851283" lon="12.2007117"><ele>447.00000000000006</ele><time>2026-04-11T09:12:50.964Z</time></trkpt><trkpt lat="43.7850883" lon="12.2005983"><ele>447.00000000000006</ele><time>2026-04-11T09:12:51.964Z</time></trkpt><trkpt lat="43.7850333" lon="12.2005"><ele>447.0</ele><time>2026-04-11T09:12:52.964Z</time></trkpt><trkpt lat="43.7849633" lon="12.2004433"><ele>447.0</ele><time>2026-04-11T09:12:53.964Z</time></trkpt><trkpt lat="43.7848733" lon="12.2004633"><ele>447.0</ele><time>2026-04-11T09:12:54.965Z</time></trkpt><trkpt lat="43.78479" lon="12.2005267"><ele>447.0</ele><time>2026-04-11T09:12:55.965Z</time></trkpt><trkpt lat="43.7847033" lon="12.2006133"><ele>447.0</ele><time>2026-04-11T09:12:56.964Z</time></trkpt><trkpt lat="43.7846233" lon="12.200745"><ele>447.0</ele><time>2026-04-11T09:12:57.964Z</time></trkpt><trkpt lat="43.7845467" lon="12.2008917"><ele>447.0</ele><time>2026-04-11T09:12:58.964Z</time></trkpt><trkpt lat="43.784445" lon="12.2010417"><ele>447.0</ele><time>2026-04-11T09:12:59.964Z</time></trkpt><trkpt lat="43.7843117" lon="12.2011533"><ele>447.0</ele><time>2026-04-11T09:13:00.964Z</time></trkpt><trkpt lat="43.7841617" lon="12.20125"><ele>443.33333333333337</ele><time>2026-04-11T09:13:01.964Z</time></trkpt><trkpt lat="43.7840033" lon="12.2013383"><ele>439.6666666666667</ele><time>2026-04-11T09:13:02.964Z</time></trkpt><trkpt lat="43.7838483" lon="12.201415"><ele>436.0</ele><time>2026-04-11T09:13:03.963Z</time></trkpt><trkpt lat="43.7837333" lon="12.2015133"><ele>436.0</ele><time>2026-04-11T09:13:04.963Z</time></trkpt><trkpt lat="43.7836433" lon="12.2016117"><ele>436.0</ele><time>2026-04-11T09:13:05.963Z</time></trkpt><trkpt lat="43.7835733" lon="12.20172"><ele>436.0</ele><time>2026-04-11T09:13:06.963Z</time></trkpt><trkpt lat="43.78355" lon="12.20185"><ele>436.0</ele><time>2026-04-11T09:13:07.964Z</time></trkpt><trkpt lat="43.7835733" lon="12.2019833"><ele>436.0</ele><time>2026-04-11T09:13:08.963Z</time></trkpt><trkpt lat="43.7836" lon="12.20211"><ele>436.0</ele><time>2026-04-11T09:13:09.963Z</time></trkpt><trkpt lat="43.783615" lon="12.2022317"><ele>436.0</ele><time>2026-04-11T09:13:10.964Z</time></trkpt><trkpt lat="43.7835833" lon="12.2023583"><ele>436.0</ele><time>2026-04-11T09:13:11.963Z</time></trkpt><trkpt lat="43.7835367" lon="12.202425"><ele>436.0</ele><time>2026-04-11T09:13:12.963Z</time></trkpt><trkpt lat="43.783445" lon="12.2023933"><ele>436.0</ele><time>2026-04-11T09:13:13.964Z</time></trkpt><trkpt lat="43.7833567" lon="12.2022683"><ele>433.0</ele><time>2026-04-11T09:13:14.963Z</time></trkpt><trkpt lat="43.783285" lon="12.20212"><ele>430.0</ele><time>2026-04-11T09:13:15.964Z</time></trkpt><trkpt lat="43.7832133" lon="12.202005"><ele>427.0</ele><time>2026-04-11T09:13:16.963Z</time></trkpt><trkpt lat="43.78313" lon="12.2019233"><ele>424.0</ele><time>2026-04-11T09:13:17.963Z</time></trkpt><trkpt lat="43.78303" lon="12.2018867"><ele>421.0</ele><time>2026-04-11T09:13:18.963Z</time></trkpt><trkpt lat="43.7829283" lon="12.2019017"><ele>421.0</ele><time>2026-04-11T09:13:19.963Z</time></trkpt><trkpt lat="43.7828233" lon="12.2019517"><ele>421.0</ele><time>2026-04-11T09:13:20.963Z</time></trkpt><trkpt lat="43.7827167" lon="12.2020417"><ele>421.0</ele><time>2026-04-11T09:13:21.963Z</time></trkpt><trkpt lat="43.7825983" lon="12.202145"><ele>421.0</ele><time>2026-04-11T09:13:22.964Z</time></trkpt><trkpt lat="43.782475" lon="12.202255"><ele>417.0</ele><time>2026-04-11T09:13:23.963Z</time></trkpt><trkpt lat="43.7823467" lon="12.2023633"><ele>413.0</ele><time>2026-04-11T09:13:24.963Z</time></trkpt><trkpt lat="43.782215" lon="12.202445"><ele>409.0</ele><time>2026-04-11T09:13:25.963Z</time></trkpt><trkpt lat="43.7820717" lon="12.2025417"><ele>409.0</ele><time>2026-04-11T09:13:26.963Z</time></trkpt><trkpt lat="43.7819233" lon="12.20263"><ele>409.0</ele><time>2026-04-11T09:13:27.963Z</time></trkpt><trkpt lat="43.7817867" lon="12.202725"><ele>409.0</ele><time>2026-04-11T09:13:28.964Z</time></trkpt><trkpt lat="43.7816467" lon="12.2028317"><ele>409.33333333333337</ele><time>2026-04-11T09:13:29.964Z</time></trkpt><trkpt lat="43.78151" lon="12.202935"><ele>409.66666666666663</ele><time>2026-04-11T09:13:30.963Z</time></trkpt><trkpt lat="43.781385" lon="12.2030383"><ele>410.0</ele><time>2026-04-11T09:13:31.963Z</time></trkpt><trkpt lat="43.7812533" lon="12.2031433"><ele>408.75</ele><time>2026-04-11T09:13:32.963Z</time></trkpt><trkpt lat="43.781125" lon="12.2032317"><ele>407.5</ele><time>2026-04-11T09:13:33.963Z</time></trkpt><trkpt lat="43.7809983" lon="12.203315"><ele>406.25</ele><time>2026-04-11T09:13:34.963Z</time></trkpt><trkpt lat="43.7808767" lon="12.2034067"><ele>405.0</ele><time>2026-04-11T09:13:35.963Z</time></trkpt><trkpt lat="43.7807533" lon="12.2035033"><ele>405.0</ele><time>2026-04-11T09:13:36.963Z</time></trkpt><trkpt lat="43.7806417" lon="12.2036117"><ele>405.0</ele><time>2026-04-11T09:13:37.963Z</time></trkpt><trkpt lat="43.7805233" lon="12.203735"><ele>405.0</ele><time>2026-04-11T09:13:38.963Z</time></trkpt><trkpt lat="43.7804083" lon="12.203895"><ele>405.0</ele><time>2026-04-11T09:13:39.963Z</time></trkpt><trkpt lat="43.7803133" lon="12.204085"><ele>405.33333333333337</ele><time>2026-04-11T09:13:40.964Z</time></trkpt><trkpt lat="43.7802567" lon="12.2043067"><ele>405.6666666666667</ele><time>2026-04-11T09:13:41.963Z</time></trkpt><trkpt lat="43.78024" lon="12.20455"><ele>406.0</ele><time>2026-04-11T09:13:42.963Z</time></trkpt><trkpt lat="43.780235" lon="12.2048"><ele>406.33333333333337</ele><time>2026-04-11T09:13:43.963Z</time></trkpt><trkpt lat="43.7802567" lon="12.2050333"><ele>406.66666666666663</ele><time>2026-04-11T09:13:44.963Z</time></trkpt><trkpt lat="43.780285" lon="12.2052617"><ele>407.0</ele><time>2026-04-11T09:13:45.963Z</time></trkpt><trkpt lat="43.780305" lon="12.205485"><ele>408.0</ele><time>2026-04-11T09:13:46.963Z</time></trkpt><trkpt lat="43.7803083" lon="12.205705"><ele>409.0</ele><time>2026-04-11T09:13:47.963Z</time></trkpt><trkpt lat="43.7803033" lon="12.20591"><ele>410.0</ele><time>2026-04-11T09:13:48.963Z</time></trkpt><trkpt lat="43.780325" lon="12.2060867"><ele>411.0</ele><time>2026-04-11T09:13:49.963Z</time></trkpt><trkpt lat="43.7803533" lon="12.2062283"><ele>411.0</ele><time>2026-04-11T09:13:50.963Z</time></trkpt><trkpt lat="43.7803933" lon="12.2063433"><ele>411.0</ele><time>2026-04-11T09:13:51.963Z</time></trkpt><trkpt lat="43.7804217" lon="12.206435"><ele>411.0</ele><time>2026-04-11T09:13:52.963Z</time></trkpt><trkpt lat="43.7804417" lon="12.2065383"><ele>411.0</ele><time>2026-04-11T09:13:54.963Z</time></trkpt><trkpt lat="43.7804883" lon="12.20675"><ele>411.0</ele><time>2026-04-11T09:14:02.963Z</time></trkpt><trkpt lat="43.7805333" lon="12.2068483"><ele>412.5</ele><time>2026-04-11T09:14:03.964Z</time></trkpt><trkpt lat="43.78059" lon="12.20696"><ele>414.0</ele><time>2026-04-11T09:14:04.964Z</time></trkpt><trkpt lat="43.780655" lon="12.2070817"><ele>415.5</ele><time>2026-04-11T09:14:05.964Z</time></trkpt><trkpt lat="43.7807333" lon="12.2072133"><ele>417.0</ele><time>2026-04-11T09:14:06.964Z</time></trkpt><trkpt lat="43.780805" lon="12.20735"><ele>414.0</ele><time>2026-04-11T09:14:07.963Z</time></trkpt><trkpt lat="43.7808867" lon="12.2074867"><ele>411.0</ele><time>2026-04-11T09:14:08.963Z</time></trkpt><trkpt lat="43.780975" lon="12.20763"><ele>408.0</ele><time>2026-04-11T09:14:09.964Z</time></trkpt><trkpt lat="43.781065" lon="12.207785"><ele>405.0</ele><time>2026-04-11T09:14:10.963Z</time></trkpt><trkpt lat="43.78116" lon="12.20795"><ele>405.0</ele><time>2026-04-11T09:14:11.963Z</time></trkpt><trkpt lat="43.7812567" lon="12.2081167"><ele>405.0</ele><time>2026-04-11T09:14:12.963Z</time></trkpt><trkpt lat="43.7813433" lon="12.2082833"><ele>405.0</ele><time>2026-04-11T09:14:13.964Z</time></trkpt><trkpt lat="43.7814233" lon="12.2084633"><ele>407.33333333333337</ele><time>2026-04-11T09:14:14.964Z</time></trkpt><trkpt lat="43.781485" lon="12.2086667"><ele>409.6666666666667</ele><time>2026-04-11T09:14:15.963Z</time></trkpt><trkpt lat="43.7815283" lon="12.2088967"><ele>412.0</ele><time>2026-04-11T09:14:16.963Z</time></trkpt><trkpt lat="43.78156" lon="12.2091167"><ele>412.0</ele><time>2026-04-11T09:14:17.964Z</time></trkpt><trkpt lat="43.7815933" lon="12.2093367"><ele>412.0</ele><time>2026-04-11T09:14:18.963Z</time></trkpt><trkpt lat="43.781635" lon="12.20956"><ele>412.0</ele><time>2026-04-11T09:14:19.963Z</time></trkpt><trkpt lat="43.7816633" lon="12.2097817"><ele>412.0</ele><time>2026-04-11T09:14:20.963Z</time></trkpt><trkpt lat="43.7817" lon="12.2099983"><ele>412.0</ele><time>2026-04-11T09:14:21.963Z</time></trkpt><trkpt lat="43.7817433" lon="12.210185"><ele>412.0</ele><time>2026-04-11T09:14:22.963Z</time></trkpt><trkpt lat="43.7818" lon="12.2103483"><ele>412.0</ele><time>2026-04-11T09:14:23.963Z</time></trkpt><trkpt lat="43.7818967" lon="12.2104683"><ele>412.0</ele><time>2026-04-11T09:14:24.963Z</time></trkpt><trkpt lat="43.78203" lon="12.2105367"><ele>412.0</ele><time>2026-04-11T09:14:25.963Z</time></trkpt><trkpt lat="43.7821583" lon="12.21057"><ele>412.0</ele><time>2026-04-11T09:14:26.963Z</time></trkpt><trkpt lat="43.782295" lon="12.210585"><ele>412.0</ele><time>2026-04-11T09:14:27.964Z</time></trkpt><trkpt lat="43.7824433" lon="12.2105867"><ele>412.0</ele><time>2026-04-11T09:14:28.964Z</time></trkpt><trkpt lat="43.7825967" lon="12.2106"><ele>412.0</ele><time>2026-04-11T09:14:29.963Z</time></trkpt><trkpt lat="43.7827517" lon="12.2106133"><ele>412.0</ele><time>2026-04-11T09:14:30.964Z</time></trkpt><trkpt lat="43.7828983" lon="12.2106483"><ele>416.33333333333337</ele><time>2026-04-11T09:14:31.964Z</time></trkpt><trkpt lat="43.783055" lon="12.210705"><ele>420.66666666666663</ele><time>2026-04-11T09:14:32.963Z</time></trkpt><trkpt lat="43.7832133" lon="12.210775"><ele>425.0</ele><time>2026-04-11T09:14:33.963Z</time></trkpt><trkpt lat="43.7833717" lon="12.2108533"><ele>423.66666666666663</ele><time>2026-04-11T09:14:34.964Z</time></trkpt><trkpt lat="43.78354" lon="12.21092"><ele>422.33333333333337</ele><time>2026-04-11T09:14:35.963Z</time></trkpt><trkpt lat="43.7837117" lon="12.2109817"><ele>421.0</ele><time>2026-04-11T09:14:36.963Z</time></trkpt><trkpt lat="43.7840333" lon="12.2111067"><ele>423.5</ele><time>2026-04-11T09:14:38.963Z</time></trkpt><trkpt lat="43.7843567" lon="12.21118"><ele>426.0</ele><time>2026-04-11T09:14:40.963Z</time></trkpt><trkpt lat="43.7846433" lon="12.2110867"><ele>426.0</ele><time>2026-04-11T09:14:42.964Z</time></trkpt><trkpt lat="43.7848583" lon="12.2108267"><ele>426.0</ele><time>2026-04-11T09:14:44.963Z</time></trkpt><trkpt lat="43.7849833" lon="12.210455"><ele>426.0</ele><time>2026-04-11T09:14:46.963Z</time></trkpt><trkpt lat="43.7851067" lon="12.21012"><ele>426.0</ele><time>2026-04-11T09:14:48.964Z</time></trkpt><trkpt lat="43.7853167" lon="12.209935"><ele>426.0</ele><time>2026-04-11T09:14:50.964Z</time></trkpt><trkpt lat="43.7855867" lon="12.2099283"><ele>426.0</ele><time>2026-04-11T09:14:52.963Z</time></trkpt><trkpt lat="43.7858683" lon="12.2099783"><ele>428.0</ele><time>2026-04-11T09:14:54.963Z</time></trkpt><trkpt lat="43.7861383" lon="12.2100417"><ele>430.0</ele><time>2026-04-11T09:14:56.963Z</time></trkpt><trkpt lat="43.7863933" lon="12.2100467"><ele>430.0</ele><time>2026-04-11T09:14:58.963Z</time></trkpt><trkpt lat="43.7866233" lon="12.209955"><ele>430.0</ele><time>2026-04-11T09:15:00.963Z</time></trkpt><trkpt lat="43.78684" lon="12.209865"><ele>428.0</ele><time>2026-04-11T09:15:02.963Z</time></trkpt><trkpt lat="43.787075" lon="12.2098133"><ele>426.0</ele><time>2026-04-11T09:15:04.963Z</time></trkpt><trkpt lat="43.787335" lon="12.209925"><ele>426.0</ele><time>2026-04-11T09:15:06.963Z</time></trkpt><trkpt lat="43.7875733" lon="12.210145"><ele>426.0</ele><time>2026-04-11T09:15:08.963Z</time></trkpt><trkpt lat="43.7878167" lon="12.210335"><ele>425.5</ele><time>2026-04-11T09:15:10.963Z</time></trkpt><trkpt lat="43.78793" lon="12.2104183"><ele>425.0</ele><time>2026-04-11T09:15:11.963Z</time></trkpt><trkpt lat="43.78805" lon="12.21049"><ele>424.5</ele><time>2026-04-11T09:15:12.963Z</time></trkpt><trkpt lat="43.7881783" lon="12.21053"><ele>424.0</ele><time>2026-04-11T09:15:13.963Z</time></trkpt><trkpt lat="43.7883117" lon="12.210535"><ele>424.0</ele><time>2026-04-11T09:15:14.963Z</time></trkpt><trkpt lat="43.7884467" lon="12.2104967"><ele>424.0</ele><time>2026-04-11T09:15:15.963Z</time></trkpt><trkpt lat="43.788575" lon="12.2104433"><ele>424.0</ele><time>2026-04-11T09:15:16.963Z</time></trkpt><trkpt lat="43.7886933" lon="12.2103633"><ele>424.0</ele><time>2026-04-11T09:15:17.964Z</time></trkpt><trkpt lat="43.7888" lon="12.2102717"><ele>426.75</ele><time>2026-04-11T09:15:18.964Z</time></trkpt><trkpt lat="43.7889067" lon="12.2101533"><ele>429.5</ele><time>2026-04-11T09:15:19.964Z</time></trkpt><trkpt lat="43.789015" lon="12.210045"><ele>432.25</ele><time>2026-04-11T09:15:20.963Z</time></trkpt><trkpt lat="43.7891233" lon="12.2099467"><ele>435.0</ele><time>2026-04-11T09:15:21.963Z</time></trkpt><trkpt lat="43.7892367" lon="12.2098583"><ele>431.33333333333337</ele><time>2026-04-11T09:15:22.963Z</time></trkpt><trkpt lat="43.7893817" lon="12.209775"><ele>427.6666666666667</ele><time>2026-04-11T09:15:23.963Z</time></trkpt><trkpt lat="43.7895233" lon="12.209705"><ele>424.0</ele><time>2026-04-11T09:15:24.963Z</time></trkpt><trkpt lat="43.7896783" lon="12.2096617"><ele>424.0</ele><time>2026-04-11T09:15:25.963Z</time></trkpt><trkpt lat="43.7898367" lon="12.209615"><ele>424.0</ele><time>2026-04-11T09:15:26.964Z</time></trkpt><trkpt lat="43.7899967" lon="12.2095667"><ele>424.0</ele><time>2026-04-11T09:15:27.963Z</time></trkpt><trkpt lat="43.7901517" lon="12.2095383"><ele>424.0</ele><time>2026-04-11T09:15:28.963Z</time></trkpt><trkpt lat="43.7903167" lon="12.2095233"><ele>424.0</ele><time>2026-04-11T09:15:29.963Z</time></trkpt><trkpt lat="43.7904917" lon="12.209525"><ele>424.0</ele><time>2026-04-11T09:15:30.964Z</time></trkpt><trkpt lat="43.790675" lon="12.2095417"><ele>424.0</ele><time>2026-04-11T09:15:31.963Z</time></trkpt><trkpt lat="43.7908617" lon="12.2095583"><ele>424.0</ele><time>2026-04-11T09:15:32.963Z</time></trkpt><trkpt lat="43.7910467" lon="12.2095867"><ele>424.0</ele><time>2026-04-11T09:15:33.964Z</time></trkpt><trkpt lat="43.791225" lon="12.2096267"><ele>422.25</ele><time>2026-04-11T09:15:34.963Z</time></trkpt><trkpt lat="43.7913883" lon="12.209675"><ele>420.5</ele><time>2026-04-11T09:15:35.963Z</time></trkpt><trkpt lat="43.7915283" lon="12.209735"><ele>418.75</ele><time>2026-04-11T09:15:36.964Z</time></trkpt><trkpt lat="43.7916367" lon="12.2098383"><ele>417.0</ele><time>2026-04-11T09:15:37.963Z</time></trkpt><trkpt lat="43.791695" lon="12.209995"><ele>420.5</ele><time>2026-04-11T09:15:38.964Z</time></trkpt><trkpt lat="43.7917083" lon="12.2101833"><ele>424.0</ele><time>2026-04-11T09:15:39.963Z</time></trkpt><trkpt lat="43.7916933" lon="12.210375"><ele>427.5</ele><time>2026-04-11T09:15:40.963Z</time></trkpt><trkpt lat="43.7916733" lon="12.2105833"><ele>431.0</ele><time>2026-04-11T09:15:41.963Z</time></trkpt><trkpt lat="43.7916633" lon="12.2108017"><ele>431.0</ele><time>2026-04-11T09:15:42.963Z</time></trkpt><trkpt lat="43.791655" lon="12.2110217"><ele>431.0</ele><time>2026-04-11T09:15:43.963Z</time></trkpt><trkpt lat="43.7916467" lon="12.2112433"><ele>431.0</ele><time>2026-04-11T09:15:44.963Z</time></trkpt><trkpt lat="43.7916433" lon="12.21145"><ele>432.25</ele><time>2026-04-11T09:15:45.963Z</time></trkpt><trkpt lat="43.7916667" lon="12.2116467"><ele>433.5</ele><time>2026-04-11T09:15:46.964Z</time></trkpt><trkpt lat="43.7917467" lon="12.21181"><ele>434.75</ele><time>2026-04-11T09:15:47.963Z</time></trkpt><trkpt lat="43.79185" lon="12.2119233"><ele>436.0</ele><time>2026-04-11T09:15:48.963Z</time></trkpt><trkpt lat="43.7919733" lon="12.2120033"><ele>432.33333333333337</ele><time>2026-04-11T09:15:49.963Z</time></trkpt><trkpt lat="43.7921167" lon="12.2120317"><ele>428.66666666666663</ele><time>2026-04-11T09:15:50.963Z</time></trkpt><trkpt lat="43.792275" lon="12.2120217"><ele>425.0</ele><time>2026-04-11T09:15:51.963Z</time></trkpt><trkpt lat="43.7924317" lon="12.211995"><ele>425.0</ele><time>2026-04-11T09:15:52.963Z</time></trkpt><trkpt lat="43.7926017" lon="12.2119417"><ele>425.0</ele><time>2026-04-11T09:15:53.963Z</time></trkpt><trkpt lat="43.7927817" lon="12.2118533"><ele>425.0</ele><time>2026-04-11T09:15:54.963Z</time></trkpt><trkpt lat="43.792965" lon="12.2117483"><ele>426.5</ele><time>2026-04-11T09:15:55.963Z</time></trkpt><trkpt lat="43.793145" lon="12.2116517"><ele>428.0</ele><time>2026-04-11T09:15:56.963Z</time></trkpt><trkpt lat="43.7935117" lon="12.2114367"><ele>428.0</ele><time>2026-04-11T09:15:58.963Z</time></trkpt><trkpt lat="43.7937" lon="12.2113117"><ele>428.0</ele><time>2026-04-11T09:15:59.963Z</time></trkpt><trkpt lat="43.7938767" lon="12.2111833"><ele>428.0</ele><time>2026-04-11T09:16:00.964Z</time></trkpt><trkpt lat="43.7940417" lon="12.2110933"><ele>428.0</ele><time>2026-04-11T09:16:01.963Z</time></trkpt><trkpt lat="43.7942333" lon="12.211"><ele>428.0</ele><time>2026-04-11T09:16:02.964Z</time></trkpt><trkpt lat="43.7944217" lon="12.2109283"><ele>428.0</ele><time>2026-04-11T09:16:03.963Z</time></trkpt><trkpt lat="43.7946317" lon="12.2108917"><ele>428.66666666666663</ele><time>2026-04-11T09:16:04.964Z</time></trkpt><trkpt lat="43.79484" lon="12.2108883"><ele>429.33333333333337</ele><time>2026-04-11T09:16:05.963Z</time></trkpt><trkpt lat="43.79505" lon="12.2109167"><ele>430.0</ele><time>2026-04-11T09:16:06.963Z</time></trkpt><trkpt lat="43.7952533" lon="12.2109933"><ele>427.33333333333337</ele><time>2026-04-11T09:16:07.963Z</time></trkpt><trkpt lat="43.7954533" lon="12.2110983"><ele>424.66666666666663</ele><time>2026-04-11T09:16:08.964Z</time></trkpt><trkpt lat="43.7956517" lon="12.2112267"><ele>422.0</ele><time>2026-04-11T09:16:09.963Z</time></trkpt><trkpt lat="43.795845" lon="12.2113683"><ele>424.0</ele><time>2026-04-11T09:16:10.963Z</time></trkpt><trkpt lat="43.7960433" lon="12.2114983"><ele>426.0</ele><time>2026-04-11T09:16:11.963Z</time></trkpt><trkpt lat="43.796235" lon="12.2116383"><ele>428.0</ele><time>2026-04-11T09:16:12.963Z</time></trkpt><trkpt lat="43.7964183" lon="12.2117833"><ele>428.0</ele><time>2026-04-11T09:16:13.963Z</time></trkpt><trkpt lat="43.7966" lon="12.2119317"><ele>428.0</ele><time>2026-04-11T09:16:14.963Z</time></trkpt><trkpt lat="43.7967683" lon="12.2121067"><ele>428.0</ele><time>2026-04-11T09:16:15.963Z</time></trkpt><trkpt lat="43.7969183" lon="12.2123017"><ele>429.0</ele><time>2026-04-11T09:16:16.963Z</time></trkpt><trkpt lat="43.7970633" lon="12.212505"><ele>430.0</ele><time>2026-04-11T09:16:17.964Z</time></trkpt><trkpt lat="43.7971933" lon="12.2127233"><ele>431.0</ele><time>2026-04-11T09:16:18.963Z</time></trkpt><trkpt lat="43.7973233" lon="12.21295"><ele>428.3333333333333</ele><time>2026-04-11T09:16:19.963Z</time></trkpt><trkpt lat="43.79745" lon="12.2131633"><ele>425.66666666666663</ele><time>2026-04-11T09:16:20.963Z</time></trkpt><trkpt lat="43.797585" lon="12.21334"><ele>423.0</ele><time>2026-04-11T09:16:21.963Z</time></trkpt><trkpt lat="43.79774" lon="12.2134617"><ele>423.0</ele><time>2026-04-11T09:16:22.964Z</time></trkpt><trkpt lat="43.7978767" lon="12.213565"><ele>423.0</ele><time>2026-04-11T09:16:23.964Z</time></trkpt><trkpt lat="43.7979917" lon="12.2137017"><ele>423.0</ele><time>2026-04-11T09:16:24.963Z</time></trkpt><trkpt lat="43.7980683" lon="12.213885"><ele>427.33333333333337</ele><time>2026-04-11T09:16:25.963Z</time></trkpt><trkpt lat="43.7981217" lon="12.2140867"><ele>431.6666666666667</ele><time>2026-04-11T09:16:26.963Z</time></trkpt><trkpt lat="43.7981683" lon="12.2142933"><ele>436.0</ele><time>2026-04-11T09:16:27.963Z</time></trkpt><trkpt lat="43.7982283" lon="12.21451"><ele>436.0</ele><time>2026-04-11T09:16:28.963Z</time></trkpt><trkpt lat="43.7983083" lon="12.2147033"><ele>436.0</ele><time>2026-04-11T09:16:29.964Z</time></trkpt><trkpt lat="43.798535" lon="12.21507"><ele>430.0</ele><time>2026-04-11T09:16:31.963Z</time></trkpt><trkpt lat="43.7986617" lon="12.2152317"><ele>424.0</ele><time>2026-04-11T09:16:32.964Z</time></trkpt><trkpt lat="43.7987883" lon="12.215385"><ele>418.0</ele><time>2026-04-11T09:16:33.963Z</time></trkpt><trkpt lat="43.7988583" lon="12.21554"><ele>421.75</ele><time>2026-04-11T09:16:34.963Z</time></trkpt><trkpt lat="43.798905" lon="12.2157"><ele>425.5</ele><time>2026-04-11T09:16:35.963Z</time></trkpt><trkpt lat="43.7989" lon="12.21587"><ele>429.25</ele><time>2026-04-11T09:16:36.963Z</time></trkpt><trkpt lat="43.7989067" lon="12.216045"><ele>433.0</ele><time>2026-04-11T09:16:37.963Z</time></trkpt><trkpt lat="43.7989417" lon="12.2162017"><ele>433.0</ele><time>2026-04-11T09:16:38.963Z</time></trkpt><trkpt lat="43.7990233" lon="12.21634"><ele>433.0</ele><time>2026-04-11T09:16:39.963Z</time></trkpt><trkpt lat="43.79914" lon="12.21644"><ele>433.0</ele><time>2026-04-11T09:16:40.963Z</time></trkpt><trkpt lat="43.799285" lon="12.2164883"><ele>433.0</ele><time>2026-04-11T09:16:41.964Z</time></trkpt><trkpt lat="43.7994333" lon="12.2165283"><ele>433.33333333333337</ele><time>2026-04-11T09:16:42.963Z</time></trkpt><trkpt lat="43.7995783" lon="12.21657"><ele>433.66666666666663</ele><time>2026-04-11T09:16:43.963Z</time></trkpt><trkpt lat="43.7997267" lon="12.21662"><ele>434.0</ele><time>2026-04-11T09:16:44.963Z</time></trkpt><trkpt lat="43.79987" lon="12.216715"><ele>434.0</ele><time>2026-04-11T09:16:45.963Z</time></trkpt><trkpt lat="43.799995" lon="12.21685"><ele>434.0</ele><time>2026-04-11T09:16:46.963Z</time></trkpt><trkpt lat="43.8000967" lon="12.2170183"><ele>434.0</ele><time>2026-04-11T09:16:47.963Z</time></trkpt><trkpt lat="43.80021" lon="12.2171933"><ele>429.3333333333333</ele><time>2026-04-11T09:16:48.963Z</time></trkpt><trkpt lat="43.8003267" lon="12.21737"><ele>424.66666666666663</ele><time>2026-04-11T09:16:49.963Z</time></trkpt><trkpt lat="43.80046" lon="12.21753"><ele>420.0</ele><time>2026-04-11T09:16:50.963Z</time></trkpt><trkpt lat="43.8005817" lon="12.2176983"><ele>420.0</ele><time>2026-04-11T09:16:51.963Z</time></trkpt><trkpt lat="43.8006867" lon="12.21788"><ele>420.0</ele><time>2026-04-11T09:16:52.963Z</time></trkpt><trkpt lat="43.8007833" lon="12.2180683"><ele>420.0</ele><time>2026-04-11T09:16:53.963Z</time></trkpt><trkpt lat="43.800865" lon="12.2182583"><ele>425.75</ele><time>2026-04-11T09:16:54.964Z</time></trkpt><trkpt lat="43.8009133" lon="12.2184617"><ele>431.5</ele><time>2026-04-11T09:16:55.963Z</time></trkpt><trkpt lat="43.8009117" lon="12.2186717"><ele>437.25</ele><time>2026-04-11T09:16:56.963Z</time></trkpt><trkpt lat="43.8008933" lon="12.218865"><ele>443.0</ele><time>2026-04-11T09:16:57.963Z</time></trkpt><trkpt lat="43.8008733" lon="12.2190683"><ele>444.4</ele><time>2026-04-11T09:16:58.963Z</time></trkpt><trkpt lat="43.8008817" lon="12.2192467"><ele>445.79999999999995</ele><time>2026-04-11T09:16:59.963Z</time></trkpt><trkpt lat="43.800935" lon="12.2193717"><ele>447.2</ele><time>2026-04-11T09:17:00.963Z</time></trkpt><trkpt lat="43.8010067" lon="12.2194683"><ele>448.6</ele><time>2026-04-11T09:17:01.963Z</time></trkpt><trkpt lat="43.80111" lon="12.2195283"><ele>450.0</ele><time>2026-04-11T09:17:02.963Z</time></trkpt><trkpt lat="43.8012217" lon="12.2195433"><ele>445.5</ele><time>2026-04-11T09:17:03.964Z</time></trkpt><trkpt lat="43.8013517" lon="12.219555"><ele>441.0</ele><time>2026-04-11T09:17:04.963Z</time></trkpt><trkpt lat="43.8014833" lon="12.219575"><ele>436.5</ele><time>2026-04-11T09:17:05.964Z</time></trkpt><trkpt lat="43.801605" lon="12.2196367"><ele>432.0</ele><time>2026-04-11T09:17:06.964Z</time></trkpt><trkpt lat="43.8017067" lon="12.219745"><ele>436.5</ele><time>2026-04-11T09:17:07.963Z</time></trkpt><trkpt lat="43.8017783" lon="12.2198883"><ele>441.0</ele><time>2026-04-11T09:17:08.964Z</time></trkpt><trkpt lat="43.8018583" lon="12.220045"><ele>445.5</ele><time>2026-04-11T09:17:09.963Z</time></trkpt><trkpt lat="43.8019383" lon="12.2202233"><ele>450.0</ele><time>2026-04-11T09:17:10.963Z</time></trkpt><trkpt lat="43.8020183" lon="12.220415"><ele>442.66666666666663</ele><time>2026-04-11T09:17:11.963Z</time></trkpt><trkpt lat="43.80209" lon="12.220615"><ele>435.3333333333333</ele><time>2026-04-11T09:17:12.963Z</time></trkpt><trkpt lat="43.80216" lon="12.2208117"><ele>428.0</ele><time>2026-04-11T09:17:13.963Z</time></trkpt><trkpt lat="43.8022283" lon="12.221015"><ele>428.0</ele><time>2026-04-11T09:17:14.963Z</time></trkpt><trkpt lat="43.802295" lon="12.221235"><ele>428.0</ele><time>2026-04-11T09:17:15.964Z</time></trkpt><trkpt lat="43.802355" lon="12.2214533"><ele>428.0</ele><time>2026-04-11T09:17:16.963Z</time></trkpt><trkpt lat="43.8024133" lon="12.2216767"><ele>434.3333333333333</ele><time>2026-04-11T09:17:17.963Z</time></trkpt><trkpt lat="43.802495" lon="12.2218917"><ele>440.66666666666663</ele><time>2026-04-11T09:17:18.963Z</time></trkpt><trkpt lat="43.8026067" lon="12.2220767"><ele>447.0</ele><time>2026-04-11T09:17:19.963Z</time></trkpt><trkpt lat="43.8027217" lon="12.22225"><ele>437.66666666666663</ele><time>2026-04-11T09:17:20.963Z</time></trkpt><trkpt lat="43.8028417" lon="12.222415"><ele>428.3333333333333</ele><time>2026-04-11T09:17:21.963Z</time></trkpt><trkpt lat="43.8029533" lon="12.2225783"><ele>419.0</ele><time>2026-04-11T09:17:22.963Z</time></trkpt><trkpt lat="43.80302" lon="12.2227417"><ele>419.0</ele><time>2026-04-11T09:17:23.963Z</time></trkpt><trkpt lat="43.8030633" lon="12.2229167"><ele>419.0</ele><time>2026-04-11T09:17:24.963Z</time></trkpt><trkpt lat="43.8030633" lon="12.223095"><ele>419.0</ele><time>2026-04-11T09:17:25.963Z</time></trkpt><trkpt lat="43.80303" lon="12.22328"><ele>419.0</ele><time>2026-04-11T09:17:26.964Z</time></trkpt><trkpt lat="43.802975" lon="12.2234633"><ele>420.25</ele><time>2026-04-11T09:17:27.963Z</time></trkpt><trkpt lat="43.8029117" lon="12.2236567"><ele>421.5</ele><time>2026-04-11T09:17:28.963Z</time></trkpt><trkpt lat="43.802865" lon="12.22384"><ele>422.75</ele><time>2026-04-11T09:17:29.963Z</time></trkpt><trkpt lat="43.8028233" lon="12.22403"><ele>424.0</ele><time>2026-04-11T09:17:30.963Z</time></trkpt><trkpt lat="43.8027883" lon="12.2242183"><ele>424.5</ele><time>2026-04-11T09:17:31.963Z</time></trkpt><trkpt lat="43.8027933" lon="12.2244033"><ele>425.0</ele><time>2026-04-11T09:17:32.964Z</time></trkpt><trkpt lat="43.8028183" lon="12.2246117"><ele>425.5</ele><time>2026-04-11T09:17:33.964Z</time></trkpt><trkpt lat="43.8028733" lon="12.2247983"><ele>426.0</ele><time>2026-04-11T09:17:34.964Z</time></trkpt><trkpt lat="43.8029417" lon="12.2250017"><ele>429.75</ele><time>2026-04-11T09:17:35.963Z</time></trkpt><trkpt lat="43.8030183" lon="12.225185"><ele>433.5</ele><time>2026-04-11T09:17:36.963Z</time></trkpt><trkpt lat="43.8031" lon="12.2253333"><ele>437.25</ele><time>2026-04-11T09:17:37.963Z</time></trkpt><trkpt lat="43.8032083" lon="12.2254017"><ele>441.0</ele><time>2026-04-11T09:17:38.962Z</time></trkpt><trkpt lat="43.80334" lon="12.2254033"><ele>441.0</ele><time>2026-04-11T09:17:39.962Z</time></trkpt><trkpt lat="43.8034783" lon="12.2253617"><ele>441.0</ele><time>2026-04-11T09:17:40.962Z</time></trkpt><trkpt lat="43.8036167" lon="12.22531"><ele>441.0</ele><time>2026-04-11T09:17:41.962Z</time></trkpt><trkpt lat="43.803765" lon="12.2252583"><ele>441.0</ele><time>2026-04-11T09:17:42.962Z</time></trkpt><trkpt lat="43.803915" lon="12.225205"><ele>442.0</ele><time>2026-04-11T09:17:43.963Z</time></trkpt><trkpt lat="43.8040683" lon="12.2251383"><ele>443.0</ele><time>2026-04-11T09:17:44.962Z</time></trkpt><trkpt lat="43.80422" lon="12.2250533"><ele>444.0</ele><time>2026-04-11T09:17:45.962Z</time></trkpt><trkpt lat="43.804365" lon="12.2249733"><ele>440.25</ele><time>2026-04-11T09:17:46.962Z</time></trkpt><trkpt lat="43.80451" lon="12.224915"><ele>436.5</ele><time>2026-04-11T09:17:47.962Z</time></trkpt><trkpt lat="43.8046417" lon="12.2249017"><ele>432.75</ele><time>2026-04-11T09:17:48.962Z</time></trkpt><trkpt lat="43.804755" lon="12.2249383"><ele>429.0</ele><time>2026-04-11T09:17:49.962Z</time></trkpt><trkpt lat="43.8048383" lon="12.2250867"><ele>429.0</ele><time>2026-04-11T09:17:50.962Z</time></trkpt><trkpt lat="43.8049367" lon="12.2252283"><ele>429.0</ele><time>2026-04-11T09:17:51.962Z</time></trkpt><trkpt lat="43.8050567" lon="12.2253533"><ele>429.0</ele><time>2026-04-11T09:17:52.962Z</time></trkpt><trkpt lat="43.805185" lon="12.225475"><ele>429.0</ele><time>2026-04-11T09:17:53.962Z</time></trkpt><trkpt lat="43.80531" lon="12.225595"><ele>427.75</ele><time>2026-04-11T09:17:54.962Z</time></trkpt><trkpt lat="43.8054133" lon="12.225705"><ele>426.5</ele><time>2026-04-11T09:17:55.962Z</time></trkpt><trkpt lat="43.8054867" lon="12.2258317"><ele>425.25</ele><time>2026-04-11T09:17:56.962Z</time></trkpt><trkpt lat="43.80552" lon="12.2259833"><ele>424.0</ele><time>2026-04-11T09:17:57.962Z</time></trkpt><trkpt lat="43.8054967" lon="12.2261717"><ele>424.0</ele><time>2026-04-11T09:17:58.962Z</time></trkpt><trkpt lat="43.8054433" lon="12.2263667"><ele>424.0</ele><time>2026-04-11T09:17:59.962Z</time></trkpt><trkpt lat="43.80538" lon="12.2265517"><ele>424.0</ele><time>2026-04-11T09:18:00.963Z</time></trkpt><trkpt lat="43.8053283" lon="12.22674"><ele>424.0</ele><time>2026-04-11T09:18:01.962Z</time></trkpt><trkpt lat="43.8052867" lon="12.2269317"><ele>425.79999999999995</ele><time>2026-04-11T09:18:02.962Z</time></trkpt><trkpt lat="43.805275" lon="12.2270967"><ele>427.59999999999997</ele><time>2026-04-11T09:18:03.962Z</time></trkpt><trkpt lat="43.8053283" lon="12.2272067"><ele>429.4</ele><time>2026-04-11T09:18:04.963Z</time></trkpt><trkpt lat="43.8053933" lon="12.2272983"><ele>431.2</ele><time>2026-04-11T09:18:05.962Z</time></trkpt><trkpt lat="43.80548" lon="12.227365"><ele>433.0</ele><time>2026-04-11T09:18:06.962Z</time></trkpt><trkpt lat="43.8055833" lon="12.227375"><ele>433.0</ele><time>2026-04-11T09:18:07.962Z</time></trkpt><trkpt lat="43.8057283" lon="12.227315"><ele>433.0</ele><time>2026-04-11T09:18:08.962Z</time></trkpt><trkpt lat="43.8058817" lon="12.2272567"><ele>433.0</ele><time>2026-04-11T09:18:09.962Z</time></trkpt><trkpt lat="43.8060383" lon="12.2271867"><ele>431.6666666666667</ele><time>2026-04-11T09:18:10.962Z</time></trkpt><trkpt lat="43.8062217" lon="12.2270983"><ele>430.33333333333337</ele><time>2026-04-11T09:18:11.962Z</time></trkpt><trkpt lat="43.8064067" lon="12.22698"><ele>429.0</ele><time>2026-04-11T09:18:12.962Z</time></trkpt><trkpt lat="43.8065883" lon="12.22686"><ele>429.0</ele><time>2026-04-11T09:18:13.962Z</time></trkpt><trkpt lat="43.8067583" lon="12.2267533"><ele>429.0</ele><time>2026-04-11T09:18:14.962Z</time></trkpt><trkpt lat="43.806925" lon="12.226685"><ele>429.0</ele><time>2026-04-11T09:18:15.963Z</time></trkpt><trkpt lat="43.807105" lon="12.22663"><ele>428.66666666666663</ele><time>2026-04-11T09:18:16.963Z</time></trkpt><trkpt lat="43.8072817" lon="12.22663"><ele>428.3333333333333</ele><time>2026-04-11T09:18:17.962Z</time></trkpt><trkpt lat="43.8074567" lon="12.226685"><ele>428.0</ele><time>2026-04-11T09:18:18.962Z</time></trkpt><trkpt lat="43.8076233" lon="12.22679"><ele>422.0</ele><time>2026-04-11T09:18:19.962Z</time></trkpt><trkpt lat="43.8077933" lon="12.2268933"><ele>416.0</ele><time>2026-04-11T09:18:20.962Z</time></trkpt><trkpt lat="43.8079417" lon="12.22701"><ele>410.0</ele><time>2026-04-11T09:18:21.963Z</time></trkpt><trkpt lat="43.8080983" lon="12.227145"><ele>410.0</ele><time>2026-04-11T09:18:22.962Z</time></trkpt><trkpt lat="43.808255" lon="12.22731"><ele>410.0</ele><time>2026-04-11T09:18:23.963Z</time></trkpt><trkpt lat="43.8084133" lon="12.2274933"><ele>410.0</ele><time>2026-04-11T09:18:24.962Z</time></trkpt><trkpt lat="43.808555" lon="12.227695"><ele>412.66666666666663</ele><time>2026-04-11T09:18:25.962Z</time></trkpt><trkpt lat="43.8087" lon="12.2279183"><ele>415.33333333333337</ele><time>2026-04-11T09:18:26.962Z</time></trkpt><trkpt lat="43.8088533" lon="12.2281433"><ele>418.0</ele><time>2026-04-11T09:18:27.962Z</time></trkpt><trkpt lat="43.809005" lon="12.2283683"><ele>418.0</ele><time>2026-04-11T09:18:28.962Z</time></trkpt><trkpt lat="43.8091417" lon="12.2286033"><ele>418.0</ele><time>2026-04-11T09:18:29.963Z</time></trkpt><trkpt lat="43.8092717" lon="12.2288117"><ele>418.0</ele><time>2026-04-11T09:18:30.963Z</time></trkpt><trkpt lat="43.8093883" lon="12.228985"><ele>411.75</ele><time>2026-04-11T09:18:31.962Z</time></trkpt><trkpt lat="43.809465" lon="12.2291367"><ele>405.5</ele><time>2026-04-11T09:18:32.962Z</time></trkpt><trkpt lat="43.8095" lon="12.2293233"><ele>399.25</ele><time>2026-04-11T09:18:33.962Z</time></trkpt><trkpt lat="43.8095167" lon="12.2295167"><ele>393.0</ele><time>2026-04-11T09:18:34.962Z</time></trkpt><trkpt lat="43.8095067" lon="12.229745"><ele>392.33333333333337</ele><time>2026-04-11T09:18:35.962Z</time></trkpt><trkpt lat="43.8094917" lon="12.2299533"><ele>391.6666666666667</ele><time>2026-04-11T09:18:36.962Z</time></trkpt><trkpt lat="43.8094283" lon="12.2301667"><ele>391.0</ele><time>2026-04-11T09:18:37.962Z</time></trkpt><trkpt lat="43.8093567" lon="12.23038"><ele>405.0</ele><time>2026-04-11T09:18:38.962Z</time></trkpt><trkpt lat="43.8092883" lon="12.2306033"><ele>419.0</ele><time>2026-04-11T09:18:39.962Z</time></trkpt><trkpt lat="43.8092283" lon="12.2308417"><ele>433.0</ele><time>2026-04-11T09:18:40.962Z</time></trkpt><trkpt lat="43.8091717" lon="12.231095"><ele>433.0</ele><time>2026-04-11T09:18:41.962Z</time></trkpt><trkpt lat="43.8091083" lon="12.231375"><ele>433.0</ele><time>2026-04-11T09:18:42.962Z</time></trkpt><trkpt lat="43.8090767" lon="12.2316383"><ele>433.0</ele><time>2026-04-11T09:18:43.962Z</time></trkpt><trkpt lat="43.809045" lon="12.2318983"><ele>429.0</ele><time>2026-04-11T09:18:44.962Z</time></trkpt><trkpt lat="43.80901" lon="12.2321483"><ele>425.0</ele><time>2026-04-11T09:18:45.962Z</time></trkpt><trkpt lat="43.8089733" lon="12.2324017"><ele>421.0</ele><time>2026-04-11T09:18:46.962Z</time></trkpt><trkpt lat="43.80896" lon="12.23264"><ele>420.33333333333337</ele><time>2026-04-11T09:18:47.963Z</time></trkpt><trkpt lat="43.8089733" lon="12.23289"><ele>419.66666666666663</ele><time>2026-04-11T09:18:48.962Z</time></trkpt><trkpt lat="43.8090233" lon="12.2331383"><ele>419.0</ele><time>2026-04-11T09:18:49.962Z</time></trkpt><trkpt lat="43.809115" lon="12.2333567"><ele>419.0</ele><time>2026-04-11T09:18:50.962Z</time></trkpt><trkpt lat="43.8092367" lon="12.2335333"><ele>419.0</ele><time>2026-04-11T09:18:51.962Z</time></trkpt><trkpt lat="43.8093467" lon="12.2336983"><ele>419.0</ele><time>2026-04-11T09:18:52.963Z</time></trkpt><trkpt lat="43.80943" lon="12.23386"><ele>413.25</ele><time>2026-04-11T09:18:53.963Z</time></trkpt><trkpt lat="43.80949" lon="12.2340317"><ele>407.5</ele><time>2026-04-11T09:18:54.962Z</time></trkpt><trkpt lat="43.8095133" lon="12.2342333"><ele>401.75</ele><time>2026-04-11T09:18:55.962Z</time></trkpt><trkpt lat="43.8095083" lon="12.2344517"><ele>396.0</ele><time>2026-04-11T09:18:56.962Z</time></trkpt><trkpt lat="43.8094983" lon="12.2346717"><ele>397.0</ele><time>2026-04-11T09:18:57.962Z</time></trkpt><trkpt lat="43.8094983" lon="12.2348933"><ele>398.0</ele><time>2026-04-11T09:18:58.962Z</time></trkpt><trkpt lat="43.8095" lon="12.2351183"><ele>399.0</ele><time>2026-04-11T09:18:59.962Z</time></trkpt><trkpt lat="43.8095" lon="12.23534"><ele>399.0</ele><time>2026-04-11T09:19:00.962Z</time></trkpt><trkpt lat="43.809505" lon="12.2355483"><ele>399.0</ele><time>2026-04-11T09:19:01.962Z</time></trkpt><trkpt lat="43.8095267" lon="12.23576"><ele>399.0</ele><time>2026-04-11T09:19:02.962Z</time></trkpt><trkpt lat="43.8095667" lon="12.2359717"><ele>398.0</ele><time>2026-04-11T09:19:03.962Z</time></trkpt><trkpt lat="43.809625" lon="12.2361833"><ele>397.0</ele><time>2026-04-11T09:19:04.962Z</time></trkpt><trkpt lat="43.809715" lon="12.2363533"><ele>396.0</ele><time>2026-04-11T09:19:05.963Z</time></trkpt><trkpt lat="43.809825" lon="12.2364967"><ele>398.25</ele><time>2026-04-11T09:19:06.962Z</time></trkpt><trkpt lat="43.8099483" lon="12.2366083"><ele>400.5</ele><time>2026-04-11T09:19:07.962Z</time></trkpt><trkpt lat="43.810075" lon="12.2367033"><ele>402.75</ele><time>2026-04-11T09:19:08.962Z</time></trkpt><trkpt lat="43.8101917" lon="12.236785"><ele>405.0</ele><time>2026-04-11T09:19:09.962Z</time></trkpt><trkpt lat="43.810295" lon="12.2368967"><ele>401.75</ele><time>2026-04-11T09:19:10.962Z</time></trkpt><trkpt lat="43.8103833" lon="12.237035"><ele>398.5</ele><time>2026-04-11T09:19:11.963Z</time></trkpt><trkpt lat="43.8104283" lon="12.2372017"><ele>395.25</ele><time>2026-04-11T09:19:12.962Z</time></trkpt><trkpt lat="43.8104367" lon="12.237375"><ele>392.0</ele><time>2026-04-11T09:19:13.962Z</time></trkpt><trkpt lat="43.810425" lon="12.237535"><ele>392.0</ele><time>2026-04-11T09:19:14.962Z</time></trkpt><trkpt lat="43.8103617" lon="12.2376733"><ele>392.0</ele><time>2026-04-11T09:19:15.962Z</time></trkpt><trkpt lat="43.8102667" lon="12.237775"><ele>392.0</ele><time>2026-04-11T09:19:16.962Z</time></trkpt><trkpt lat="43.81014" lon="12.23786"><ele>392.0</ele><time>2026-04-11T09:19:17.962Z</time></trkpt><trkpt lat="43.810015" lon="12.23795"><ele>394.0</ele><time>2026-04-11T09:19:18.962Z</time></trkpt><trkpt lat="43.8098817" lon="12.2380533"><ele>396.0</ele><time>2026-04-11T09:19:19.962Z</time></trkpt><trkpt lat="43.8097383" lon="12.2381617"><ele>398.0</ele><time>2026-04-11T09:19:20.963Z</time></trkpt><trkpt lat="43.8095933" lon="12.238285"><ele>398.0</ele><time>2026-04-11T09:19:21.962Z</time></trkpt><trkpt lat="43.80947" lon="12.2384233"><ele>398.0</ele><time>2026-04-11T09:19:22.962Z</time></trkpt><trkpt lat="43.80934" lon="12.23857"><ele>398.0</ele><time>2026-04-11T09:19:23.962Z</time></trkpt><trkpt lat="43.8092217" lon="12.2387333"><ele>398.3333333333333</ele><time>2026-04-11T09:19:24.962Z</time></trkpt><trkpt lat="43.80912" lon="12.238905"><ele>398.66666666666663</ele><time>2026-04-11T09:19:25.962Z</time></trkpt><trkpt lat="43.8090467" lon="12.2391033"><ele>399.0</ele><time>2026-04-11T09:19:26.962Z</time></trkpt><trkpt lat="43.80897" lon="12.2392733"><ele>399.0</ele><time>2026-04-11T09:19:27.962Z</time></trkpt><trkpt lat="43.80892" lon="12.2395017"><ele>399.0</ele><time>2026-04-11T09:19:28.962Z</time></trkpt><trkpt lat="43.8088967" lon="12.2397317"><ele>399.0</ele><time>2026-04-11T09:19:29.962Z</time></trkpt><trkpt lat="43.8088783" lon="12.2399733"><ele>398.33333333333337</ele><time>2026-04-11T09:19:30.962Z</time></trkpt><trkpt lat="43.808895" lon="12.24021"><ele>397.6666666666667</ele><time>2026-04-11T09:19:31.962Z</time></trkpt><trkpt lat="43.8089367" lon="12.24044"><ele>397.0</ele><time>2026-04-11T09:19:32.962Z</time></trkpt><trkpt lat="43.8090017" lon="12.2406467"><ele>397.0</ele><time>2026-04-11T09:19:33.962Z</time></trkpt><trkpt lat="43.809085" lon="12.2408433"><ele>397.0</ele><time>2026-04-11T09:19:34.962Z</time></trkpt><trkpt lat="43.809185" lon="12.2410233"><ele>397.0</ele><time>2026-04-11T09:19:35.962Z</time></trkpt><trkpt lat="43.8093067" lon="12.2411867"><ele>395.6666666666667</ele><time>2026-04-11T09:19:36.962Z</time></trkpt><trkpt lat="43.80945" lon="12.2413217"><ele>394.33333333333337</ele><time>2026-04-11T09:19:37.962Z</time></trkpt><trkpt lat="43.8096067" lon="12.2414233"><ele>393.0</ele><time>2026-04-11T09:19:38.962Z</time></trkpt><trkpt lat="43.8097733" lon="12.2415017"><ele>393.0</ele><time>2026-04-11T09:19:39.962Z</time></trkpt><trkpt lat="43.8099417" lon="12.2415817"><ele>393.0</ele><time>2026-04-11T09:19:40.962Z</time></trkpt><trkpt lat="43.81012" lon="12.2416533"><ele>393.0</ele><time>2026-04-11T09:19:41.962Z</time></trkpt><trkpt lat="43.81031" lon="12.2417267"><ele>391.0</ele><time>2026-04-11T09:19:42.962Z</time></trkpt><trkpt lat="43.810495" lon="12.241805"><ele>389.0</ele><time>2026-04-11T09:19:43.963Z</time></trkpt><trkpt lat="43.81068" lon="12.2419"><ele>387.0</ele><time>2026-04-11T09:19:44.962Z</time></trkpt><trkpt lat="43.8108667" lon="12.2419917"><ele>386.66666666666663</ele><time>2026-04-11T09:19:45.962Z</time></trkpt><trkpt lat="43.81106" lon="12.2420767"><ele>386.3333333333333</ele><time>2026-04-11T09:19:46.963Z</time></trkpt><trkpt lat="43.81125" lon="12.24216"><ele>386.0</ele><time>2026-04-11T09:19:47.962Z</time></trkpt><trkpt lat="43.8114467" lon="12.24223"><ele>386.0</ele><time>2026-04-11T09:19:48.962Z</time></trkpt><trkpt lat="43.8116217" lon="12.242295"><ele>386.0</ele><time>2026-04-11T09:19:49.962Z</time></trkpt><trkpt lat="43.81178" lon="12.2423583"><ele>386.0</ele><time>2026-04-11T09:19:50.962Z</time></trkpt><trkpt lat="43.81194" lon="12.2424117"><ele>388.3333333333333</ele><time>2026-04-11T09:19:51.963Z</time></trkpt><trkpt lat="43.8120967" lon="12.2424367"><ele>390.66666666666663</ele><time>2026-04-11T09:19:52.962Z</time></trkpt><trkpt lat="43.8122683" lon="12.2424133"><ele>393.0</ele><time>2026-04-11T09:19:53.962Z</time></trkpt><trkpt lat="43.8124283" lon="12.2423583"><ele>392.25</ele><time>2026-04-11T09:19:54.962Z</time></trkpt><trkpt lat="43.8125567" lon="12.242265"><ele>391.5</ele><time>2026-04-11T09:19:55.962Z</time></trkpt><trkpt lat="43.8126817" lon="12.2421633"><ele>390.75</ele><time>2026-04-11T09:19:56.962Z</time></trkpt><trkpt lat="43.81281" lon="12.2420617"><ele>390.0</ele><time>2026-04-11T09:19:57.962Z</time></trkpt><trkpt lat="43.8129383" lon="12.2419717"><ele>388.66666666666663</ele><time>2026-04-11T09:19:58.962Z</time></trkpt><trkpt lat="43.8130767" lon="12.2418983"><ele>387.3333333333333</ele><time>2026-04-11T09:19:59.962Z</time></trkpt><trkpt lat="43.813235" lon="12.2418367"><ele>386.0</ele><time>2026-04-11T09:20:00.962Z</time></trkpt><trkpt lat="43.8134017" lon="12.241805"><ele>384.0</ele><time>2026-04-11T09:20:01.963Z</time></trkpt><trkpt lat="43.8135783" lon="12.2418267"><ele>382.0</ele><time>2026-04-11T09:20:02.963Z</time></trkpt><trkpt lat="43.8137717" lon="12.241875"><ele>380.0</ele><time>2026-04-11T09:20:03.962Z</time></trkpt><trkpt lat="43.8139483" lon="12.2419717"><ele>380.0</ele><time>2026-04-11T09:20:04.962Z</time></trkpt><trkpt lat="43.8141383" lon="12.24208"><ele>380.0</ele><time>2026-04-11T09:20:05.963Z</time></trkpt><trkpt lat="43.8143133" lon="12.2422033"><ele>380.0</ele><time>2026-04-11T09:20:06.962Z</time></trkpt><trkpt lat="43.8144917" lon="12.2423217"><ele>380.6666666666667</ele><time>2026-04-11T09:20:07.963Z</time></trkpt><trkpt lat="43.814675" lon="12.24244"><ele>381.3333333333333</ele><time>2026-04-11T09:20:08.962Z</time></trkpt><trkpt lat="43.81487" lon="12.2425717"><ele>382.0</ele><time>2026-04-11T09:20:09.962Z</time></trkpt><trkpt lat="43.8150667" lon="12.242715"><ele>379.3333333333333</ele><time>2026-04-11T09:20:10.962Z</time></trkpt><trkpt lat="43.8152667" lon="12.2428433"><ele>376.6666666666667</ele><time>2026-04-11T09:20:11.962Z</time></trkpt><trkpt lat="43.8154533" lon="12.24297"><ele>374.0</ele><time>2026-04-11T09:20:12.962Z</time></trkpt><trkpt lat="43.8156467" lon="12.2430867"><ele>374.6666666666667</ele><time>2026-04-11T09:20:13.962Z</time></trkpt><trkpt lat="43.8158367" lon="12.2432033"><ele>375.3333333333333</ele><time>2026-04-11T09:20:14.962Z</time></trkpt><trkpt lat="43.8160083" lon="12.24333"><ele>376.0</ele><time>2026-04-11T09:20:15.962Z</time></trkpt><trkpt lat="43.8161867" lon="12.2434533"><ele>376.0</ele><time>2026-04-11T09:20:16.962Z</time></trkpt><trkpt lat="43.8163617" lon="12.2435833"><ele>376.0</ele><time>2026-04-11T09:20:17.962Z</time></trkpt><trkpt lat="43.8165567" lon="12.2437017"><ele>376.0</ele><time>2026-04-11T09:20:18.962Z</time></trkpt><trkpt lat="43.81675" lon="12.2438233"><ele>375.0</ele><time>2026-04-11T09:20:19.963Z</time></trkpt><trkpt lat="43.8169467" lon="12.2439517"><ele>374.0</ele><time>2026-04-11T09:20:20.962Z</time></trkpt><trkpt lat="43.8171367" lon="12.2440817"><ele>373.0</ele><time>2026-04-11T09:20:21.962Z</time></trkpt><trkpt lat="43.81733" lon="12.2442083"><ele>373.0</ele><time>2026-04-11T09:20:22.962Z</time></trkpt><trkpt lat="43.8175283" lon="12.2443333"><ele>373.0</ele><time>2026-04-11T09:20:23.962Z</time></trkpt><trkpt lat="43.8177183" lon="12.2444717"><ele>373.0</ele><time>2026-04-11T09:20:24.962Z</time></trkpt><trkpt lat="43.8179217" lon="12.2446083"><ele>373.0</ele><time>2026-04-11T09:20:25.962Z</time></trkpt><trkpt lat="43.8181233" lon="12.2447433"><ele>373.0</ele><time>2026-04-11T09:20:26.963Z</time></trkpt><trkpt lat="43.8183133" lon="12.24491"><ele>373.0</ele><time>2026-04-11T09:20:27.962Z</time></trkpt><trkpt lat="43.8184867" lon="12.2451017"><ele>368.5</ele><time>2026-04-11T09:20:28.963Z</time></trkpt><trkpt lat="43.818655" lon="12.2453217"><ele>364.0</ele><time>2026-04-11T09:20:29.962Z</time></trkpt><trkpt lat="43.8188" lon="12.2455817"><ele>366.0</ele><time>2026-04-11T09:20:30.962Z</time></trkpt><trkpt lat="43.8189367" lon="12.2458483"><ele>368.0</ele><time>2026-04-11T09:20:31.963Z</time></trkpt><trkpt lat="43.8190633" lon="12.2461083"><ele>368.0</ele><time>2026-04-11T09:20:32.962Z</time></trkpt><trkpt lat="43.8191933" lon="12.2463583"><ele>368.0</ele><time>2026-04-11T09:20:33.963Z</time></trkpt><trkpt lat="43.81932" lon="12.2465983"><ele>368.0</ele><time>2026-04-11T09:20:34.962Z</time></trkpt><trkpt lat="43.819435" lon="12.2468267"><ele>367.0</ele><time>2026-04-11T09:20:35.962Z</time></trkpt><trkpt lat="43.8195417" lon="12.2470333"><ele>366.0</ele><time>2026-04-11T09:20:36.962Z</time></trkpt><trkpt lat="43.8196317" lon="12.247225"><ele>365.0</ele><time>2026-04-11T09:20:37.962Z</time></trkpt><trkpt lat="43.8197183" lon="12.2474017"><ele>365.0</ele><time>2026-04-11T09:20:38.962Z</time></trkpt><trkpt lat="43.819795" lon="12.2475683"><ele>365.0</ele><time>2026-04-11T09:20:39.962Z</time></trkpt><trkpt lat="43.8198717" lon="12.2477233"><ele>365.0</ele><time>2026-04-11T09:20:40.962Z</time></trkpt><trkpt lat="43.8199467" lon="12.2478583"><ele>365.0</ele><time>2026-04-11T09:20:41.962Z</time></trkpt><trkpt lat="43.82002" lon="12.2479867"><ele>365.0</ele><time>2026-04-11T09:20:42.962Z</time></trkpt><trkpt lat="43.8201067" lon="12.2480733"><ele>365.0</ele><time>2026-04-11T09:20:43.962Z</time></trkpt><trkpt lat="43.820205" lon="12.2481217"><ele>365.0</ele><time>2026-04-11T09:20:44.962Z</time></trkpt><trkpt lat="43.8203133" lon="12.2481233"><ele>365.0</ele><time>2026-04-11T09:20:45.963Z</time></trkpt><trkpt lat="43.820415" lon="12.2480833"><ele>365.0</ele><time>2026-04-11T09:20:46.962Z</time></trkpt><trkpt lat="43.8205167" lon="12.2480117"><ele>364.8</ele><time>2026-04-11T09:20:47.962Z</time></trkpt><trkpt lat="43.82061" lon="12.24795"><ele>364.6</ele><time>2026-04-11T09:20:48.962Z</time></trkpt><trkpt lat="43.8207067" lon="12.2478967"><ele>364.4</ele><time>2026-04-11T09:20:49.962Z</time></trkpt><trkpt lat="43.820805" lon="12.247845"><ele>364.2</ele><time>2026-04-11T09:20:50.962Z</time></trkpt><trkpt lat="43.82091" lon="12.247785"><ele>364.0</ele><time>2026-04-11T09:20:51.963Z</time></trkpt><trkpt lat="43.8210183" lon="12.2477117"><ele>364.75</ele><time>2026-04-11T09:20:52.963Z</time></trkpt><trkpt lat="43.8211333" lon="12.24765"><ele>365.5</ele><time>2026-04-11T09:20:53.962Z</time></trkpt><trkpt lat="43.821255" lon="12.2475867"><ele>366.25</ele><time>2026-04-11T09:20:54.962Z</time></trkpt><trkpt lat="43.821385" lon="12.2475217"><ele>367.0</ele><time>2026-04-11T09:20:55.962Z</time></trkpt><trkpt lat="43.8215317" lon="12.2474733"><ele>367.0</ele><time>2026-04-11T09:20:56.963Z</time></trkpt><trkpt lat="43.8216767" lon="12.2474317"><ele>367.0</ele><time>2026-04-11T09:20:57.963Z</time></trkpt><trkpt lat="43.8218333" lon="12.2473967"><ele>367.0</ele><time>2026-04-11T09:20:58.962Z</time></trkpt><trkpt lat="43.8219883" lon="12.2473833"><ele>365.75</ele><time>2026-04-11T09:20:59.962Z</time></trkpt><trkpt lat="43.8221383" lon="12.247395"><ele>364.5</ele><time>2026-04-11T09:21:00.963Z</time></trkpt><trkpt lat="43.822285" lon="12.2474283"><ele>363.25</ele><time>2026-04-11T09:21:01.962Z</time></trkpt><trkpt lat="43.8224333" lon="12.2474633"><ele>362.0</ele><time>2026-04-11T09:21:02.962Z</time></trkpt><trkpt lat="43.8225817" lon="12.2475033"><ele>360.25</ele><time>2026-04-11T09:21:03.962Z</time></trkpt><trkpt lat="43.82273" lon="12.2475333"><ele>358.5</ele><time>2026-04-11T09:21:04.962Z</time></trkpt><trkpt lat="43.8228617" lon="12.24757"><ele>356.75</ele><time>2026-04-11T09:21:05.962Z</time></trkpt><trkpt lat="43.82299" lon="12.2476"><ele>355.0</ele><time>2026-04-11T09:21:06.962Z</time></trkpt><trkpt lat="43.8231117" lon="12.2476167"><ele>355.0</ele><time>2026-04-11T09:21:07.962Z</time></trkpt><trkpt lat="43.8232233" lon="12.2476367"><ele>355.0</ele><time>2026-04-11T09:21:08.962Z</time></trkpt><trkpt lat="43.8233383" lon="12.2476617"><ele>355.0</ele><time>2026-04-11T09:21:09.962Z</time></trkpt><trkpt lat="43.8234483" lon="12.2476883"><ele>355.0</ele><time>2026-04-11T09:21:10.962Z</time></trkpt><trkpt lat="43.8235617" lon="12.24772"><ele>354.2</ele><time>2026-04-11T09:21:11.962Z</time></trkpt><trkpt lat="43.823665" lon="12.2477617"><ele>353.4</ele><time>2026-04-11T09:21:12.962Z</time></trkpt><trkpt lat="43.8237517" lon="12.24781"><ele>352.6</ele><time>2026-04-11T09:21:13.962Z</time></trkpt><trkpt lat="43.823845" lon="12.2478567"><ele>351.8</ele><time>2026-04-11T09:21:14.963Z</time></trkpt><trkpt lat="43.82394" lon="12.2479133"><ele>351.0</ele><time>2026-04-11T09:21:15.962Z</time></trkpt><trkpt lat="43.824025" lon="12.2479933"><ele>351.0</ele><time>2026-04-11T09:21:16.962Z</time></trkpt><trkpt lat="43.8241217" lon="12.2480733"><ele>351.0</ele><time>2026-04-11T09:21:17.962Z</time></trkpt><trkpt lat="43.8242083" lon="12.24819"><ele>351.0</ele><time>2026-04-11T09:21:18.962Z</time></trkpt><trkpt lat="43.8243" lon="12.2483117"><ele>351.0</ele><time>2026-04-11T09:21:19.963Z</time></trkpt><trkpt lat="43.824385" lon="12.2484433"><ele>348.75</ele><time>2026-04-11T09:21:20.962Z</time></trkpt><trkpt lat="43.8244633" lon="12.2485933"><ele>346.5</ele><time>2026-04-11T09:21:21.962Z</time></trkpt><trkpt lat="43.8245483" lon="12.2487517"><ele>344.25</ele><time>2026-04-11T09:21:22.962Z</time></trkpt><trkpt lat="43.8246267" lon="12.2489233"><ele>342.0</ele><time>2026-04-11T09:21:23.962Z</time></trkpt><trkpt lat="43.8247067" lon="12.2490917"><ele>342.0</ele><time>2026-04-11T09:21:24.962Z</time></trkpt><trkpt lat="43.8248883" lon="12.2494117"><ele>342.0</ele><time>2026-04-11T09:21:26.962Z</time></trkpt><trkpt lat="43.8249783" lon="12.24957"><ele>342.0</ele><time>2026-04-11T09:21:27.962Z</time></trkpt><trkpt lat="43.8251433" lon="12.2498467"><ele>339.3333333333333</ele><time>2026-04-11T09:21:29.962Z</time></trkpt><trkpt lat="43.8252867" lon="12.25013"><ele>336.66666666666663</ele><time>2026-04-11T09:21:31.962Z</time></trkpt><trkpt lat="43.8253633" lon="12.2502833"><ele>334.0</ele><time>2026-04-11T09:21:32.962Z</time></trkpt><trkpt lat="43.825635" lon="12.25079"><ele>334.0</ele><time>2026-04-11T09:21:35.962Z</time></trkpt><trkpt lat="43.8257267" lon="12.2509783"><ele>334.0</ele><time>2026-04-11T09:21:36.962Z</time></trkpt><trkpt lat="43.82582" lon="12.2511683"><ele>334.0</ele><time>2026-04-11T09:21:37.962Z</time></trkpt><trkpt lat="43.8259117" lon="12.2513583"><ele>332.3333333333333</ele><time>2026-04-11T09:21:38.962Z</time></trkpt><trkpt lat="43.826" lon="12.251565"><ele>330.6666666666667</ele><time>2026-04-11T09:21:39.962Z</time></trkpt><trkpt lat="43.8261067" lon="12.2517583"><ele>329.0</ele><time>2026-04-11T09:21:40.962Z</time></trkpt><trkpt lat="43.8262067" lon="12.2519633"><ele>329.0</ele><time>2026-04-11T09:21:41.962Z</time></trkpt><trkpt lat="43.826315" lon="12.252165"><ele>329.0</ele><time>2026-04-11T09:21:42.962Z</time></trkpt><trkpt lat="43.8264233" lon="12.25238"><ele>329.0</ele><time>2026-04-11T09:21:43.962Z</time></trkpt><trkpt lat="43.8265367" lon="12.2525883"><ele>328.33333333333337</ele><time>2026-04-11T09:21:44.962Z</time></trkpt><trkpt lat="43.8266583" lon="12.2528"><ele>327.6666666666667</ele><time>2026-04-11T09:21:45.962Z</time></trkpt><trkpt lat="43.82677" lon="12.253015"><ele>327.0</ele><time>2026-04-11T09:21:46.962Z</time></trkpt><trkpt lat="43.82689" lon="12.2532367"><ele>327.0</ele><time>2026-04-11T09:21:47.962Z</time></trkpt><trkpt lat="43.8271367" lon="12.2536967"><ele>327.0</ele><time>2026-04-11T09:21:49.962Z</time></trkpt><trkpt lat="43.82726" lon="12.2539367"><ele>328.5</ele><time>2026-04-11T09:21:50.962Z</time></trkpt><trkpt lat="43.8274" lon="12.254185"><ele>330.0</ele><time>2026-04-11T09:21:51.962Z</time></trkpt><trkpt lat="43.8275367" lon="12.254435"><ele>329.5</ele><time>2026-04-11T09:21:52.962Z</time></trkpt><trkpt lat="43.8276767" lon="12.2546883"><ele>329.0</ele><time>2026-04-11T09:21:53.962Z</time></trkpt><trkpt lat="43.8278183" lon="12.2549533"><ele>329.0</ele><time>2026-04-11T09:21:54.962Z</time></trkpt><trkpt lat="43.8279483" lon="12.25522"><ele>329.0</ele><time>2026-04-11T09:21:55.962Z</time></trkpt><trkpt lat="43.82809" lon="12.2554817"><ele>332.5</ele><time>2026-04-11T09:21:56.962Z</time></trkpt><trkpt lat="43.8282317" lon="12.255735"><ele>336.0</ele><time>2026-04-11T09:21:57.962Z</time></trkpt><trkpt lat="43.8283717" lon="12.2559967"><ele>335.5</ele><time>2026-04-11T09:21:58.962Z</time></trkpt><trkpt lat="43.8284983" lon="12.2562767"><ele>335.0</ele><time>2026-04-11T09:21:59.962Z</time></trkpt><trkpt lat="43.8286333" lon="12.2565567"><ele>335.0</ele><time>2026-04-11T09:22:00.962Z</time></trkpt><trkpt lat="43.8287633" lon="12.2568283"><ele>335.0</ele><time>2026-04-11T09:22:01.962Z</time></trkpt><trkpt lat="43.8289017" lon="12.2571"><ele>338.5</ele><time>2026-04-11T09:22:02.963Z</time></trkpt><trkpt lat="43.82904" lon="12.2573583"><ele>342.0</ele><time>2026-04-11T09:22:03.962Z</time></trkpt><trkpt lat="43.82918" lon="12.2576033"><ele>342.0</ele><time>2026-04-11T09:22:04.963Z</time></trkpt><trkpt lat="43.8293067" lon="12.257855"><ele>342.0</ele><time>2026-04-11T09:22:05.962Z</time></trkpt><trkpt lat="43.82942" lon="12.2581133"><ele>342.0</ele><time>2026-04-11T09:22:06.962Z</time></trkpt><trkpt lat="43.8295067" lon="12.2583867"><ele>340.3333333333333</ele><time>2026-04-11T09:22:07.962Z</time></trkpt><trkpt lat="43.829585" lon="12.2586683"><ele>338.66666666666663</ele><time>2026-04-11T09:22:08.962Z</time></trkpt><trkpt lat="43.82966" lon="12.2589467"><ele>337.0</ele><time>2026-04-11T09:22:09.962Z</time></trkpt><trkpt lat="43.8297367" lon="12.259215"><ele>337.0</ele><time>2026-04-11T09:22:10.963Z</time></trkpt><trkpt lat="43.8298" lon="12.2594983"><ele>337.0</ele><time>2026-04-11T09:22:11.963Z</time></trkpt><trkpt lat="43.829855" lon="12.25978"><ele>337.0</ele><time>2026-04-11T09:22:12.962Z</time></trkpt><trkpt lat="43.8299017" lon="12.2600583"><ele>338.0</ele><time>2026-04-11T09:22:13.962Z</time></trkpt><trkpt lat="43.829935" lon="12.2603433"><ele>339.0</ele><time>2026-04-11T09:22:14.962Z</time></trkpt><trkpt lat="43.82996" lon="12.26063"><ele>340.0</ele><time>2026-04-11T09:22:15.963Z</time></trkpt><trkpt lat="43.8299833" lon="12.2609133"><ele>341.66666666666663</ele><time>2026-04-11T09:22:16.962Z</time></trkpt><trkpt lat="43.8300133" lon="12.261195"><ele>343.3333333333333</ele><time>2026-04-11T09:22:17.962Z</time></trkpt><trkpt lat="43.8300533" lon="12.2614467"><ele>345.0</ele><time>2026-04-11T09:22:18.962Z</time></trkpt><trkpt lat="43.8301" lon="12.2617"><ele>344.3333333333333</ele><time>2026-04-11T09:22:19.962Z</time></trkpt><trkpt lat="43.8301783" lon="12.26193"><ele>343.66666666666663</ele><time>2026-04-11T09:22:20.962Z</time></trkpt><trkpt lat="43.8302917" lon="12.2621033"><ele>343.0</ele><time>2026-04-11T09:22:21.962Z</time></trkpt><trkpt lat="43.830425" lon="12.2622217"><ele>345.3333333333333</ele><time>2026-04-11T09:22:22.962Z</time></trkpt><trkpt lat="43.8305883" lon="12.26229"><ele>347.6666666666667</ele><time>2026-04-11T09:22:23.962Z</time></trkpt><trkpt lat="43.8307517" lon="12.26231"><ele>350.0</ele><time>2026-04-11T09:22:24.962Z</time></trkpt><trkpt lat="43.8309117" lon="12.2622817"><ele>350.0</ele><time>2026-04-11T09:22:25.962Z</time></trkpt><trkpt lat="43.8310883" lon="12.2622317"><ele>350.0</ele><time>2026-04-11T09:22:26.962Z</time></trkpt><trkpt lat="43.8312633" lon="12.2621633"><ele>350.0</ele><time>2026-04-11T09:22:27.962Z</time></trkpt><trkpt lat="43.831435" lon="12.2620833"><ele>350.0</ele><time>2026-04-11T09:22:28.961Z</time></trkpt><trkpt lat="43.8316167" lon="12.2619983"><ele>350.0</ele><time>2026-04-11T09:22:29.961Z</time></trkpt><trkpt lat="43.8318" lon="12.2619283"><ele>350.0</ele><time>2026-04-11T09:22:30.961Z</time></trkpt><trkpt lat="43.8319733" lon="12.2618567"><ele>350.6666666666667</ele><time>2026-04-11T09:22:31.961Z</time></trkpt><trkpt lat="43.8321417" lon="12.2617883"><ele>351.3333333333333</ele><time>2026-04-11T09:22:32.961Z</time></trkpt><trkpt lat="43.8323083" lon="12.2617583"><ele>352.0</ele><time>2026-04-11T09:22:33.962Z</time></trkpt><trkpt lat="43.8324767" lon="12.2617517"><ele>352.3333333333333</ele><time>2026-04-11T09:22:34.961Z</time></trkpt><trkpt lat="43.83265" lon="12.261775"><ele>352.6666666666667</ele><time>2026-04-11T09:22:35.962Z</time></trkpt><trkpt lat="43.83283" lon="12.26181"><ele>353.0</ele><time>2026-04-11T09:22:36.961Z</time></trkpt><trkpt lat="43.833015" lon="12.2618617"><ele>353.0</ele><time>2026-04-11T09:22:37.962Z</time></trkpt><trkpt lat="43.833195" lon="12.26189"><ele>353.0</ele><time>2026-04-11T09:22:38.961Z</time></trkpt><trkpt lat="43.8333833" lon="12.2619167"><ele>353.0</ele><time>2026-04-11T09:22:39.961Z</time></trkpt><trkpt lat="43.83359" lon="12.26193"><ele>353.0</ele><time>2026-04-11T09:22:40.961Z</time></trkpt><trkpt lat="43.833775" lon="12.261965"><ele>353.0</ele><time>2026-04-11T09:22:41.961Z</time></trkpt><trkpt lat="43.8339533" lon="12.2620167"><ele>353.0</ele><time>2026-04-11T09:22:42.961Z</time></trkpt><trkpt lat="43.83413" lon="12.262075"><ele>352.6666666666667</ele><time>2026-04-11T09:22:43.962Z</time></trkpt><trkpt lat="43.834305" lon="12.2621217"><ele>352.3333333333333</ele><time>2026-04-11T09:22:44.961Z</time></trkpt><trkpt lat="43.83449" lon="12.26216"><ele>352.0</ele><time>2026-04-11T09:22:45.961Z</time></trkpt><trkpt lat="43.834665" lon="12.2622017"><ele>352.0</ele><time>2026-04-11T09:22:46.961Z</time></trkpt><trkpt lat="43.834835" lon="12.2622367"><ele>352.0</ele><time>2026-04-11T09:22:47.961Z</time></trkpt><trkpt lat="43.83501" lon="12.26225"><ele>352.0</ele><time>2026-04-11T09:22:48.962Z</time></trkpt><trkpt lat="43.835185" lon="12.2622283"><ele>353.66666666666663</ele><time>2026-04-11T09:22:49.961Z</time></trkpt><trkpt lat="43.8353767" lon="12.2621933"><ele>355.3333333333333</ele><time>2026-04-11T09:22:50.962Z</time></trkpt><trkpt lat="43.83558" lon="12.2621467"><ele>357.0</ele><time>2026-04-11T09:22:51.961Z</time></trkpt><trkpt lat="43.8357833" lon="12.2621167"><ele>355.3333333333333</ele><time>2026-04-11T09:22:52.961Z</time></trkpt><trkpt lat="43.8359867" lon="12.262105"><ele>353.66666666666663</ele><time>2026-04-11T09:22:53.961Z</time></trkpt><trkpt lat="43.8362017" lon="12.262115"><ele>352.0</ele><time>2026-04-11T09:22:54.961Z</time></trkpt><trkpt lat="43.8364267" lon="12.2621467"><ele>352.0</ele><time>2026-04-11T09:22:55.961Z</time></trkpt><trkpt lat="43.836645" lon="12.262215"><ele>352.0</ele><time>2026-04-11T09:22:56.961Z</time></trkpt><trkpt lat="43.8368567" lon="12.2623217"><ele>352.0</ele><time>2026-04-11T09:22:57.961Z</time></trkpt><trkpt lat="43.8370583" lon="12.2624567"><ele>352.5</ele><time>2026-04-11T09:22:58.961Z</time></trkpt><trkpt lat="43.8372567" lon="12.2626267"><ele>353.0</ele><time>2026-04-11T09:22:59.962Z</time></trkpt><trkpt lat="43.8374433" lon="12.2628283"><ele>353.0</ele><time>2026-04-11T09:23:00.961Z</time></trkpt><trkpt lat="43.8376083" lon="12.2630567"><ele>353.0</ele><time>2026-04-11T09:23:01.961Z</time></trkpt><trkpt lat="43.837775" lon="12.26327"><ele>353.0</ele><time>2026-04-11T09:23:02.961Z</time></trkpt><trkpt lat="43.837925" lon="12.2634883"><ele>353.0</ele><time>2026-04-11T09:23:03.961Z</time></trkpt><trkpt lat="43.8380617" lon="12.2636983"><ele>353.0</ele><time>2026-04-11T09:23:04.961Z</time></trkpt><trkpt lat="43.8382067" lon="12.2638967"><ele>353.6666666666667</ele><time>2026-04-11T09:23:05.961Z</time></trkpt><trkpt lat="43.8383533" lon="12.2640983"><ele>354.3333333333333</ele><time>2026-04-11T09:23:06.962Z</time></trkpt><trkpt lat="43.8385" lon="12.2643017"><ele>355.0</ele><time>2026-04-11T09:23:07.961Z</time></trkpt><trkpt lat="43.83865" lon="12.264515"><ele>353.3333333333333</ele><time>2026-04-11T09:23:08.961Z</time></trkpt><trkpt lat="43.8387967" lon="12.264735"><ele>351.6666666666667</ele><time>2026-04-11T09:23:09.961Z</time></trkpt><trkpt lat="43.8389267" lon="12.264965"><ele>350.0</ele><time>2026-04-11T09:23:10.961Z</time></trkpt><trkpt lat="43.8390783" lon="12.265175"><ele>350.0</ele><time>2026-04-11T09:23:11.961Z</time></trkpt><trkpt lat="43.8392367" lon="12.2653783"><ele>350.0</ele><time>2026-04-11T09:23:12.961Z</time></trkpt><trkpt lat="43.8393917" lon="12.2655933"><ele>350.0</ele><time>2026-04-11T09:23:13.961Z</time></trkpt><trkpt lat="43.839545" lon="12.26581"><ele>351.33333333333337</ele><time>2026-04-11T09:23:14.962Z</time></trkpt><trkpt lat="43.8396917" lon="12.2660367"><ele>352.6666666666667</ele><time>2026-04-11T09:23:15.962Z</time></trkpt><trkpt lat="43.83984" lon="12.266265"><ele>354.0</ele><time>2026-04-11T09:23:16.962Z</time></trkpt><trkpt lat="43.8399917" lon="12.26648"><ele>349.0</ele><time>2026-04-11T09:23:17.961Z</time></trkpt><trkpt lat="43.8401417" lon="12.2666883"><ele>344.0</ele><time>2026-04-11T09:23:18.961Z</time></trkpt><trkpt lat="43.84029" lon="12.2668967"><ele>339.0</ele><time>2026-04-11T09:23:19.961Z</time></trkpt><trkpt lat="43.8404183" lon="12.267125"><ele>342.0</ele><time>2026-04-11T09:23:20.961Z</time></trkpt><trkpt lat="43.8405233" lon="12.2673683"><ele>345.0</ele><time>2026-04-11T09:23:21.961Z</time></trkpt><trkpt lat="43.8406317" lon="12.2676117"><ele>348.0</ele><time>2026-04-11T09:23:22.961Z</time></trkpt><trkpt lat="43.8407233" lon="12.2678567"><ele>348.0</ele><time>2026-04-11T09:23:23.962Z</time></trkpt><trkpt lat="43.8407967" lon="12.2681083"><ele>348.0</ele><time>2026-04-11T09:23:24.961Z</time></trkpt><trkpt lat="43.8408717" lon="12.2683517"><ele>348.0</ele><time>2026-04-11T09:23:25.961Z</time></trkpt><trkpt lat="43.84097" lon="12.2685583"><ele>347.3333333333333</ele><time>2026-04-11T09:23:26.961Z</time></trkpt><trkpt lat="43.8410783" lon="12.2687367"><ele>346.66666666666663</ele><time>2026-04-11T09:23:27.961Z</time></trkpt><trkpt lat="43.8412183" lon="12.2688717"><ele>346.0</ele><time>2026-04-11T09:23:28.961Z</time></trkpt><trkpt lat="43.84138" lon="12.2689517"><ele>346.0</ele><time>2026-04-11T09:23:29.961Z</time></trkpt><trkpt lat="43.841565" lon="12.2689717"><ele>346.0</ele><time>2026-04-11T09:23:30.961Z</time></trkpt><trkpt lat="43.8417533" lon="12.2689417"><ele>346.0</ele><time>2026-04-11T09:23:31.962Z</time></trkpt><trkpt lat="43.8419533" lon="12.2688767"><ele>344.66666666666663</ele><time>2026-04-11T09:23:32.962Z</time></trkpt><trkpt lat="43.8421533" lon="12.2687867"><ele>343.3333333333333</ele><time>2026-04-11T09:23:33.962Z</time></trkpt><trkpt lat="43.84234" lon="12.2687017"><ele>342.0</ele><time>2026-04-11T09:23:34.962Z</time></trkpt><trkpt lat="43.8425183" lon="12.2686517"><ele>338.25</ele><time>2026-04-11T09:23:35.961Z</time></trkpt><trkpt lat="43.8426783" lon="12.2686683"><ele>334.5</ele><time>2026-04-11T09:23:36.961Z</time></trkpt><trkpt lat="43.8428067" lon="12.26876"><ele>330.75</ele><time>2026-04-11T09:23:37.962Z</time></trkpt><trkpt lat="43.8428917" lon="12.2689083"><ele>327.0</ele><time>2026-04-11T09:23:38.961Z</time></trkpt><trkpt lat="43.8429483" lon="12.2691017"><ele>327.0</ele><time>2026-04-11T09:23:39.961Z</time></trkpt><trkpt lat="43.8429883" lon="12.2693033"><ele>327.0</ele><time>2026-04-11T09:23:40.961Z</time></trkpt><trkpt lat="43.8429933" lon="12.2695117"><ele>327.0</ele><time>2026-04-11T09:23:41.961Z</time></trkpt><trkpt lat="43.842975" lon="12.2697033"><ele>327.0</ele><time>2026-04-11T09:23:42.961Z</time></trkpt><trkpt lat="43.84293" lon="12.269875"><ele>328.25</ele><time>2026-04-11T09:23:43.961Z</time></trkpt><trkpt lat="43.84287" lon="12.2700183"><ele>329.5</ele><time>2026-04-11T09:23:44.961Z</time></trkpt><trkpt lat="43.8428067" lon="12.2701483"><ele>330.75</ele><time>2026-04-11T09:23:45.961Z</time></trkpt><trkpt lat="43.8427383" lon="12.2702833"><ele>332.0</ele><time>2026-04-11T09:23:46.961Z</time></trkpt><trkpt lat="43.8426567" lon="12.2704133"><ele>338.5</ele><time>2026-04-11T09:23:47.961Z</time></trkpt><trkpt lat="43.8425667" lon="12.270535"><ele>345.0</ele><time>2026-04-11T09:23:48.961Z</time></trkpt><trkpt lat="43.8424817" lon="12.2706617"><ele>351.5</ele><time>2026-04-11T09:23:49.961Z</time></trkpt><trkpt lat="43.8424133" lon="12.2708267"><ele>358.0</ele><time>2026-04-11T09:23:50.961Z</time></trkpt><trkpt lat="43.8423433" lon="12.2710217"><ele>358.0</ele><time>2026-04-11T09:23:51.961Z</time></trkpt><trkpt lat="43.842275" lon="12.271235"><ele>358.0</ele><time>2026-04-11T09:23:52.962Z</time></trkpt><trkpt lat="43.8422283" lon="12.2714717"><ele>358.0</ele><time>2026-04-11T09:23:53.961Z</time></trkpt><trkpt lat="43.8422" lon="12.2717183"><ele>355.0</ele><time>2026-04-11T09:23:54.961Z</time></trkpt><trkpt lat="43.84217" lon="12.2719667"><ele>352.0</ele><time>2026-04-11T09:23:55.961Z</time></trkpt><trkpt lat="43.842145" lon="12.2722233"><ele>349.0</ele><time>2026-04-11T09:23:56.961Z</time></trkpt><trkpt lat="43.8421117" lon="12.2724767"><ele>348.3333333333333</ele><time>2026-04-11T09:23:57.961Z</time></trkpt><trkpt lat="43.8420883" lon="12.2727317"><ele>347.6666666666667</ele><time>2026-04-11T09:23:58.961Z</time></trkpt><trkpt lat="43.8420633" lon="12.27298"><ele>347.0</ele><time>2026-04-11T09:23:59.961Z</time></trkpt><trkpt lat="43.8420417" lon="12.273215"><ele>347.0</ele><time>2026-04-11T09:24:00.961Z</time></trkpt><trkpt lat="43.8420267" lon="12.27344"><ele>347.0</ele><time>2026-04-11T09:24:01.961Z</time></trkpt><trkpt lat="43.842035" lon="12.2736483"><ele>347.0</ele><time>2026-04-11T09:24:02.961Z</time></trkpt><trkpt lat="43.8420667" lon="12.2738333"><ele>348.33333333333337</ele><time>2026-04-11T09:24:03.962Z</time></trkpt><trkpt lat="43.8421183" lon="12.2740217"><ele>349.6666666666667</ele><time>2026-04-11T09:24:04.961Z</time></trkpt><trkpt lat="43.842195" lon="12.2742067"><ele>351.0</ele><time>2026-04-11T09:24:05.962Z</time></trkpt><trkpt lat="43.842295" lon="12.274395"><ele>351.0</ele><time>2026-04-11T09:24:06.961Z</time></trkpt><trkpt lat="43.842405" lon="12.274575"><ele>351.0</ele><time>2026-04-11T09:24:07.962Z</time></trkpt><trkpt lat="43.8425283" lon="12.2747417"><ele>351.0</ele><time>2026-04-11T09:24:08.961Z</time></trkpt><trkpt lat="43.8426533" lon="12.274915"><ele>351.6666666666667</ele><time>2026-04-11T09:24:09.961Z</time></trkpt><trkpt lat="43.8428017" lon="12.2750833"><ele>352.33333333333337</ele><time>2026-04-11T09:24:10.961Z</time></trkpt><trkpt lat="43.8429567" lon="12.2752517"><ele>353.0</ele><time>2026-04-11T09:24:11.961Z</time></trkpt><trkpt lat="43.8431" lon="12.275435"><ele>352.6666666666667</ele><time>2026-04-11T09:24:12.961Z</time></trkpt><trkpt lat="43.8432233" lon="12.2756467"><ele>352.3333333333333</ele><time>2026-04-11T09:24:13.961Z</time></trkpt><trkpt lat="43.8433667" lon="12.2758367"><ele>352.0</ele><time>2026-04-11T09:24:14.961Z</time></trkpt><trkpt lat="43.8435383" lon="12.275995"><ele>350.66666666666663</ele><time>2026-04-11T09:24:15.962Z</time></trkpt><trkpt lat="43.8437317" lon="12.2761083"><ele>349.3333333333333</ele><time>2026-04-11T09:24:16.961Z</time></trkpt><trkpt lat="43.8439267" lon="12.2761933"><ele>348.0</ele><time>2026-04-11T09:24:17.961Z</time></trkpt><trkpt lat="43.8441267" lon="12.276265"><ele>347.3333333333333</ele><time>2026-04-11T09:24:18.961Z</time></trkpt><trkpt lat="43.8443283" lon="12.2763417"><ele>346.66666666666663</ele><time>2026-04-11T09:24:19.961Z</time></trkpt><trkpt lat="43.8445117" lon="12.2764283"><ele>346.0</ele><time>2026-04-11T09:24:20.961Z</time></trkpt><trkpt lat="43.8446983" lon="12.2765317"><ele>346.0</ele><time>2026-04-11T09:24:21.961Z</time></trkpt><trkpt lat="43.84486" lon="12.2766567"><ele>346.0</ele><time>2026-04-11T09:24:22.962Z</time></trkpt><trkpt lat="43.8450033" lon="12.2768117"><ele>346.0</ele><time>2026-04-11T09:24:23.961Z</time></trkpt><trkpt lat="43.8451083" lon="12.2770183"><ele>343.3333333333333</ele><time>2026-04-11T09:24:24.961Z</time></trkpt><trkpt lat="43.8451817" lon="12.2772517"><ele>340.6666666666667</ele><time>2026-04-11T09:24:25.961Z</time></trkpt><trkpt lat="43.8452667" lon="12.27749"><ele>338.0</ele><time>2026-04-11T09:24:26.961Z</time></trkpt><trkpt lat="43.845355" lon="12.2777283"><ele>338.0</ele><time>2026-04-11T09:24:27.961Z</time></trkpt><trkpt lat="43.8454883" lon="12.27794"><ele>338.0</ele><time>2026-04-11T09:24:28.961Z</time></trkpt><trkpt lat="43.84563" lon="12.27812"><ele>338.0</ele><time>2026-04-11T09:24:29.961Z</time></trkpt><trkpt lat="43.8457733" lon="12.278265"><ele>339.6666666666667</ele><time>2026-04-11T09:24:30.962Z</time></trkpt><trkpt lat="43.8459433" lon="12.2783333"><ele>341.3333333333333</ele><time>2026-04-11T09:24:31.962Z</time></trkpt><trkpt lat="43.8461333" lon="12.278335"><ele>343.0</ele><time>2026-04-11T09:24:32.962Z</time></trkpt><trkpt lat="43.8463017" lon="12.2783267"><ele>343.3333333333333</ele><time>2026-04-11T09:24:33.961Z</time></trkpt><trkpt lat="43.8464817" lon="12.2783133"><ele>343.6666666666667</ele><time>2026-04-11T09:24:34.962Z</time></trkpt><trkpt lat="43.846665" lon="12.2783"><ele>344.0</ele><time>2026-04-11T09:24:35.961Z</time></trkpt><trkpt lat="43.8468583" lon="12.2782883"><ele>345.0</ele><time>2026-04-11T09:24:36.961Z</time></trkpt><trkpt lat="43.8470633" lon="12.278255"><ele>346.0</ele><time>2026-04-11T09:24:37.961Z</time></trkpt><trkpt lat="43.8472433" lon="12.2782083"><ele>347.0</ele><time>2026-04-11T09:24:38.961Z</time></trkpt><trkpt lat="43.8474317" lon="12.27813"><ele>346.0</ele><time>2026-04-11T09:24:39.961Z</time></trkpt><trkpt lat="43.8476067" lon="12.2779983"><ele>345.0</ele><time>2026-04-11T09:24:40.961Z</time></trkpt><trkpt lat="43.84775" lon="12.2778333"><ele>344.0</ele><time>2026-04-11T09:24:41.961Z</time></trkpt><trkpt lat="43.8478983" lon="12.2776283"><ele>344.0</ele><time>2026-04-11T09:24:42.962Z</time></trkpt><trkpt lat="43.848035" lon="12.2774233"><ele>344.0</ele><time>2026-04-11T09:24:43.961Z</time></trkpt><trkpt lat="43.84818" lon="12.2772483"><ele>344.0</ele><time>2026-04-11T09:24:44.961Z</time></trkpt><trkpt lat="43.8483417" lon="12.2771133"><ele>339.0</ele><time>2026-04-11T09:24:45.961Z</time></trkpt><trkpt lat="43.8485217" lon="12.27703"><ele>334.0</ele><time>2026-04-11T09:24:46.961Z</time></trkpt><trkpt lat="43.8487133" lon="12.2770033"><ele>329.0</ele><time>2026-04-11T09:24:47.961Z</time></trkpt><trkpt lat="43.8489" lon="12.2770183"><ele>329.0</ele><time>2026-04-11T09:24:48.961Z</time></trkpt><trkpt lat="43.8491" lon="12.2770283"><ele>329.0</ele><time>2026-04-11T09:24:49.962Z</time></trkpt><trkpt lat="43.8492967" lon="12.2770333"><ele>329.0</ele><time>2026-04-11T09:24:50.961Z</time></trkpt><trkpt lat="43.8494867" lon="12.277055"><ele>331.33333333333337</ele><time>2026-04-11T09:24:51.961Z</time></trkpt><trkpt lat="43.849685" lon="12.2770783"><ele>333.6666666666667</ele><time>2026-04-11T09:24:52.961Z</time></trkpt><trkpt lat="43.849875" lon="12.2770683"><ele>336.0</ele><time>2026-04-11T09:24:53.961Z</time></trkpt><trkpt lat="43.8500733" lon="12.2770133"><ele>338.0</ele><time>2026-04-11T09:24:54.961Z</time></trkpt><trkpt lat="43.850265" lon="12.27694"><ele>340.0</ele><time>2026-04-11T09:24:55.961Z</time></trkpt><trkpt lat="43.85045" lon="12.276835"><ele>342.0</ele><time>2026-04-11T09:24:56.961Z</time></trkpt><trkpt lat="43.8506283" lon="12.276705"><ele>342.0</ele><time>2026-04-11T09:24:57.961Z</time></trkpt><trkpt lat="43.8508067" lon="12.2765617"><ele>342.0</ele><time>2026-04-11T09:24:58.961Z</time></trkpt><trkpt lat="43.850985" lon="12.2764233"><ele>342.0</ele><time>2026-04-11T09:24:59.961Z</time></trkpt><trkpt lat="43.8511817" lon="12.27627"><ele>340.0</ele><time>2026-04-11T09:25:00.961Z</time></trkpt><trkpt lat="43.8513667" lon="12.2761333"><ele>338.0</ele><time>2026-04-11T09:25:01.962Z</time></trkpt><trkpt lat="43.85154" lon="12.27599"><ele>336.0</ele><time>2026-04-11T09:25:02.961Z</time></trkpt><trkpt lat="43.8517033" lon="12.2758983"><ele>333.0</ele><time>2026-04-11T09:25:03.961Z</time></trkpt><trkpt lat="43.8518567" lon="12.275875"><ele>330.0</ele><time>2026-04-11T09:25:04.961Z</time></trkpt><trkpt lat="43.85201" lon="12.2759133"><ele>327.0</ele><time>2026-04-11T09:25:05.961Z</time></trkpt><trkpt lat="43.8521567" lon="12.276015"><ele>327.0</ele><time>2026-04-11T09:25:06.961Z</time></trkpt><trkpt lat="43.8522967" lon="12.2761383"><ele>327.0</ele><time>2026-04-11T09:25:07.961Z</time></trkpt><trkpt lat="43.8524367" lon="12.276295"><ele>327.0</ele><time>2026-04-11T09:25:08.962Z</time></trkpt><trkpt lat="43.8525967" lon="12.2764533"><ele>327.3333333333333</ele><time>2026-04-11T09:25:09.961Z</time></trkpt><trkpt lat="43.852765" lon="12.276615"><ele>327.66666666666663</ele><time>2026-04-11T09:25:10.961Z</time></trkpt><trkpt lat="43.85293" lon="12.276755"><ele>328.0</ele><time>2026-04-11T09:25:11.961Z</time></trkpt><trkpt lat="43.8530917" lon="12.2769117"><ele>328.0</ele><time>2026-04-11T09:25:12.962Z</time></trkpt><trkpt lat="43.853265" lon="12.27706"><ele>328.0</ele><time>2026-04-11T09:25:13.961Z</time></trkpt><trkpt lat="43.8534417" lon="12.2772167"><ele>328.0</ele><time>2026-04-11T09:25:14.961Z</time></trkpt><trkpt lat="43.8536133" lon="12.277375"><ele>327.3333333333333</ele><time>2026-04-11T09:25:15.962Z</time></trkpt><trkpt lat="43.8537917" lon="12.277525"><ele>326.6666666666667</ele><time>2026-04-11T09:25:16.961Z</time></trkpt><trkpt lat="43.8539667" lon="12.277675"><ele>326.0</ele><time>2026-04-11T09:25:17.962Z</time></trkpt><trkpt lat="43.8541367" lon="12.277825"><ele>325.0</ele><time>2026-04-11T09:25:18.961Z</time></trkpt><trkpt lat="43.8542917" lon="12.2779633"><ele>324.0</ele><time>2026-04-11T09:25:19.961Z</time></trkpt><trkpt lat="43.8544033" lon="12.27812"><ele>323.0</ele><time>2026-04-11T09:25:20.961Z</time></trkpt><trkpt lat="43.8545067" lon="12.2782933"><ele>323.0</ele><time>2026-04-11T09:25:21.961Z</time></trkpt><trkpt lat="43.8545717" lon="12.2784733"><ele>323.0</ele><time>2026-04-11T09:25:22.961Z</time></trkpt><trkpt lat="43.8545933" lon="12.278665"><ele>323.0</ele><time>2026-04-11T09:25:23.961Z</time></trkpt><trkpt lat="43.8546183" lon="12.278865"><ele>323.0</ele><time>2026-04-11T09:25:24.962Z</time></trkpt><trkpt lat="43.854625" lon="12.2790683"><ele>323.0</ele><time>2026-04-11T09:25:25.961Z</time></trkpt><trkpt lat="43.8546233" lon="12.279255"><ele>323.0</ele><time>2026-04-11T09:25:26.962Z</time></trkpt><trkpt lat="43.8545917" lon="12.2794467"><ele>323.0</ele><time>2026-04-11T09:25:27.961Z</time></trkpt><trkpt lat="43.8545483" lon="12.2796233"><ele>323.0</ele><time>2026-04-11T09:25:28.961Z</time></trkpt><trkpt lat="43.854465" lon="12.2797917"><ele>324.33333333333337</ele><time>2026-04-11T09:25:29.961Z</time></trkpt><trkpt lat="43.8543483" lon="12.2799283"><ele>325.6666666666667</ele><time>2026-04-11T09:25:30.961Z</time></trkpt><trkpt lat="43.85424" lon="12.2800717"><ele>327.0</ele><time>2026-04-11T09:25:31.962Z</time></trkpt><trkpt lat="43.8541167" lon="12.2802"><ele>327.0</ele><time>2026-04-11T09:25:32.962Z</time></trkpt><trkpt lat="43.854025" lon="12.280375"><ele>327.0</ele><time>2026-04-11T09:25:33.961Z</time></trkpt><trkpt lat="43.853975" lon="12.2805783"><ele>327.0</ele><time>2026-04-11T09:25:34.962Z</time></trkpt><trkpt lat="43.8539417" lon="12.2807883"><ele>325.3333333333333</ele><time>2026-04-11T09:25:35.961Z</time></trkpt><trkpt lat="43.8539067" lon="12.28101"><ele>323.66666666666663</ele><time>2026-04-11T09:25:36.961Z</time></trkpt><trkpt lat="43.8538783" lon="12.2812333"><ele>322.0</ele><time>2026-04-11T09:25:37.961Z</time></trkpt><trkpt lat="43.853855" lon="12.2814517"><ele>322.0</ele><time>2026-04-11T09:25:38.961Z</time></trkpt><trkpt lat="43.8538483" lon="12.2816667"><ele>322.0</ele><time>2026-04-11T09:25:39.961Z</time></trkpt><trkpt lat="43.8538817" lon="12.2818533"><ele>322.0</ele><time>2026-04-11T09:25:40.962Z</time></trkpt><trkpt lat="43.8539517" lon="12.28203"><ele>322.0</ele><time>2026-04-11T09:25:41.961Z</time></trkpt><trkpt lat="43.85405" lon="12.28219"><ele>323.0</ele><time>2026-04-11T09:25:42.961Z</time></trkpt><trkpt lat="43.8541567" lon="12.2823433"><ele>324.0</ele><time>2026-04-11T09:25:43.962Z</time></trkpt><trkpt lat="43.8542867" lon="12.282425"><ele>325.0</ele><time>2026-04-11T09:25:44.961Z</time></trkpt><trkpt lat="43.8544267" lon="12.2824133"><ele>326.0</ele><time>2026-04-11T09:25:45.962Z</time></trkpt><trkpt lat="43.8545733" lon="12.282365"><ele>328.0</ele><time>2026-04-11T09:25:46.961Z</time></trkpt><trkpt lat="43.854725" lon="12.2822717"><ele>330.0</ele><time>2026-04-11T09:25:47.961Z</time></trkpt><trkpt lat="43.8548917" lon="12.28217"><ele>332.0</ele><time>2026-04-11T09:25:48.961Z</time></trkpt><trkpt lat="43.8550583" lon="12.2820883"><ele>331.6666666666667</ele><time>2026-04-11T09:25:49.962Z</time></trkpt><trkpt lat="43.8552183" lon="12.2820483"><ele>331.3333333333333</ele><time>2026-04-11T09:25:50.961Z</time></trkpt><trkpt lat="43.85539" lon="12.28201"><ele>331.0</ele><time>2026-04-11T09:25:51.961Z</time></trkpt><trkpt lat="43.8555583" lon="12.2819833"><ele>331.0</ele><time>2026-04-11T09:25:52.961Z</time></trkpt><trkpt lat="43.855715" lon="12.281935"><ele>331.0</ele><time>2026-04-11T09:25:53.962Z</time></trkpt><trkpt lat="43.8558517" lon="12.2818583"><ele>331.0</ele><time>2026-04-11T09:25:54.961Z</time></trkpt><trkpt lat="43.8559633" lon="12.281725"><ele>331.0</ele><time>2026-04-11T09:25:55.961Z</time></trkpt><trkpt lat="43.856045" lon="12.2815433"><ele>331.0</ele><time>2026-04-11T09:25:56.961Z</time></trkpt><trkpt lat="43.856095" lon="12.2813317"><ele>331.0</ele><time>2026-04-11T09:25:57.961Z</time></trkpt><trkpt lat="43.856135" lon="12.28111"><ele>331.0</ele><time>2026-04-11T09:25:58.961Z</time></trkpt><trkpt lat="43.8561867" lon="12.2809067"><ele>331.0</ele><time>2026-04-11T09:25:59.961Z</time></trkpt><trkpt lat="43.85627" lon="12.2807533"><ele>331.0</ele><time>2026-04-11T09:26:00.962Z</time></trkpt><trkpt lat="43.8563817" lon="12.2806633"><ele>331.0</ele><time>2026-04-11T09:26:01.961Z</time></trkpt><trkpt lat="43.8565183" lon="12.2806"><ele>326.66666666666663</ele><time>2026-04-11T09:26:02.961Z</time></trkpt><trkpt lat="43.8566667" lon="12.2805433"><ele>322.3333333333333</ele><time>2026-04-11T09:26:03.962Z</time></trkpt><trkpt lat="43.8568183" lon="12.280495"><ele>318.0</ele><time>2026-04-11T09:26:04.961Z</time></trkpt><trkpt lat="43.85698" lon="12.2804383"><ele>318.0</ele><time>2026-04-11T09:26:05.961Z</time></trkpt><trkpt lat="43.8571467" lon="12.2803567"><ele>318.0</ele><time>2026-04-11T09:26:06.961Z</time></trkpt><trkpt lat="43.8573183" lon="12.2802783"><ele>318.0</ele><time>2026-04-11T09:26:07.961Z</time></trkpt><trkpt lat="43.85749" lon="12.280195"><ele>319.0</ele><time>2026-04-11T09:26:08.961Z</time></trkpt><trkpt lat="43.8576633" lon="12.2801067"><ele>320.0</ele><time>2026-04-11T09:26:09.961Z</time></trkpt><trkpt lat="43.8578467" lon="12.2800183"><ele>321.0</ele><time>2026-04-11T09:26:10.961Z</time></trkpt><trkpt lat="43.8580383" lon="12.2799533"><ele>321.0</ele><time>2026-04-11T09:26:11.961Z</time></trkpt><trkpt lat="43.85822" lon="12.2799083"><ele>321.0</ele><time>2026-04-11T09:26:12.961Z</time></trkpt><trkpt lat="43.8583933" lon="12.2799167"><ele>321.0</ele><time>2026-04-11T09:26:13.961Z</time></trkpt><trkpt lat="43.8585533" lon="12.2799817"><ele>318.3333333333333</ele><time>2026-04-11T09:26:14.961Z</time></trkpt><trkpt lat="43.8586883" lon="12.280085"><ele>315.66666666666663</ele><time>2026-04-11T09:26:15.962Z</time></trkpt><trkpt lat="43.85881" lon="12.2802417"><ele>313.0</ele><time>2026-04-11T09:26:16.961Z</time></trkpt><trkpt lat="43.8589267" lon="12.2804317"><ele>316.0</ele><time>2026-04-11T09:26:17.961Z</time></trkpt><trkpt lat="43.8590133" lon="12.2806583"><ele>319.0</ele><time>2026-04-11T09:26:18.961Z</time></trkpt><trkpt lat="43.8591017" lon="12.280895"><ele>322.0</ele><time>2026-04-11T09:26:19.961Z</time></trkpt><trkpt lat="43.8592067" lon="12.28113"><ele>319.0</ele><time>2026-04-11T09:26:20.961Z</time></trkpt><trkpt lat="43.8593267" lon="12.2813567"><ele>316.0</ele><time>2026-04-11T09:26:21.961Z</time></trkpt><trkpt lat="43.8594483" lon="12.281585"><ele>313.0</ele><time>2026-04-11T09:26:22.961Z</time></trkpt><trkpt lat="43.8595883" lon="12.2818"><ele>313.0</ele><time>2026-04-11T09:26:23.961Z</time></trkpt><trkpt lat="43.8597367" lon="12.2820017"><ele>313.0</ele><time>2026-04-11T09:26:24.961Z</time></trkpt><trkpt lat="43.8599017" lon="12.2821833"><ele>313.0</ele><time>2026-04-11T09:26:25.961Z</time></trkpt><trkpt lat="43.8600783" lon="12.2823417"><ele>312.0</ele><time>2026-04-11T09:26:26.961Z</time></trkpt><trkpt lat="43.8602617" lon="12.2824883"><ele>311.0</ele><time>2026-04-11T09:26:27.961Z</time></trkpt><trkpt lat="43.8604517" lon="12.2826333"><ele>310.0</ele><time>2026-04-11T09:26:28.961Z</time></trkpt><trkpt lat="43.860645" lon="12.2827917"><ele>310.0</ele><time>2026-04-11T09:26:29.961Z</time></trkpt><trkpt lat="43.86083" lon="12.282955"><ele>310.0</ele><time>2026-04-11T09:26:30.961Z</time></trkpt><trkpt lat="43.8610033" lon="12.283135"><ele>310.0</ele><time>2026-04-11T09:26:31.961Z</time></trkpt><trkpt lat="43.8611733" lon="12.2833167"><ele>311.0</ele><time>2026-04-11T09:26:32.961Z</time></trkpt><trkpt lat="43.8613483" lon="12.2834667"><ele>312.0</ele><time>2026-04-11T09:26:33.961Z</time></trkpt><trkpt lat="43.86149" lon="12.2836233"><ele>313.0</ele><time>2026-04-11T09:26:34.961Z</time></trkpt><trkpt lat="43.8616483" lon="12.2837167"><ele>314.0</ele><time>2026-04-11T09:26:35.961Z</time></trkpt><trkpt lat="43.861825" lon="12.2837283"><ele>315.0</ele><time>2026-04-11T09:26:36.961Z</time></trkpt><trkpt lat="43.8620133" lon="12.2836783"><ele>316.0</ele><time>2026-04-11T09:26:37.961Z</time></trkpt><trkpt lat="43.86219" lon="12.2835783"><ele>316.0</ele><time>2026-04-11T09:26:38.962Z</time></trkpt><trkpt lat="43.86235" lon="12.28346"><ele>316.0</ele><time>2026-04-11T09:26:39.961Z</time></trkpt><trkpt lat="43.8625117" lon="12.2833267"><ele>316.0</ele><time>2026-04-11T09:26:40.961Z</time></trkpt><trkpt lat="43.862675" lon="12.283205"><ele>315.66666666666663</ele><time>2026-04-11T09:26:41.961Z</time></trkpt><trkpt lat="43.8628367" lon="12.28315"><ele>315.3333333333333</ele><time>2026-04-11T09:26:42.961Z</time></trkpt><trkpt lat="43.862995" lon="12.2831567"><ele>315.0</ele><time>2026-04-11T09:26:43.961Z</time></trkpt><trkpt lat="43.86314" lon="12.2832167"><ele>315.0</ele><time>2026-04-11T09:26:44.961Z</time></trkpt><trkpt lat="43.8632667" lon="12.2833183"><ele>315.0</ele><time>2026-04-11T09:26:45.962Z</time></trkpt><trkpt lat="43.8633917" lon="12.283455"><ele>315.0</ele><time>2026-04-11T09:26:46.961Z</time></trkpt><trkpt lat="43.86349" lon="12.2836217"><ele>313.5</ele><time>2026-04-11T09:26:47.962Z</time></trkpt><trkpt lat="43.8636" lon="12.2837617"><ele>312.0</ele><time>2026-04-11T09:26:48.961Z</time></trkpt><trkpt lat="43.8637317" lon="12.28384"><ele>310.5</ele><time>2026-04-11T09:26:49.961Z</time></trkpt><trkpt lat="43.863875" lon="12.2838567"><ele>309.0</ele><time>2026-04-11T09:26:50.961Z</time></trkpt><trkpt lat="43.864" lon="12.2837917"><ele>309.0</ele><time>2026-04-11T09:26:51.961Z</time></trkpt><trkpt lat="43.8641117" lon="12.2836833"><ele>309.0</ele><time>2026-04-11T09:26:52.962Z</time></trkpt><trkpt lat="43.8642117" lon="12.283565"><ele>309.0</ele><time>2026-04-11T09:26:53.961Z</time></trkpt><trkpt lat="43.8643217" lon="12.283455"><ele>309.0</ele><time>2026-04-11T09:26:54.961Z</time></trkpt><trkpt lat="43.8644433" lon="12.2833783"><ele>306.5</ele><time>2026-04-11T09:26:55.961Z</time></trkpt><trkpt lat="43.8645683" lon="12.2833517"><ele>304.0</ele><time>2026-04-11T09:26:56.961Z</time></trkpt><trkpt lat="43.8647117" lon="12.28344"><ele>301.5</ele><time>2026-04-11T09:26:57.962Z</time></trkpt><trkpt lat="43.864845" lon="12.283555"><ele>299.0</ele><time>2026-04-11T09:26:58.961Z</time></trkpt><trkpt lat="43.86497" lon="12.283675"><ele>299.0</ele><time>2026-04-11T09:26:59.961Z</time></trkpt><trkpt lat="43.8651117" lon="12.283755"><ele>299.0</ele><time>2026-04-11T09:27:00.961Z</time></trkpt><trkpt lat="43.86527" lon="12.2837817"><ele>299.0</ele><time>2026-04-11T09:27:01.961Z</time></trkpt><trkpt lat="43.86543" lon="12.2837633"><ele>296.0</ele><time>2026-04-11T09:27:02.961Z</time></trkpt><trkpt lat="43.86558" lon="12.2837033"><ele>293.0</ele><time>2026-04-11T09:27:03.961Z</time></trkpt><trkpt lat="43.8657283" lon="12.2836383"><ele>290.0</ele><time>2026-04-11T09:27:04.961Z</time></trkpt><trkpt lat="43.8658867" lon="12.2835933"><ele>287.6666666666667</ele><time>2026-04-11T09:27:05.962Z</time></trkpt><trkpt lat="43.8660483" lon="12.2836067"><ele>285.3333333333333</ele><time>2026-04-11T09:27:06.961Z</time></trkpt><trkpt lat="43.866185" lon="12.2836767"><ele>283.0</ele><time>2026-04-11T09:27:07.961Z</time></trkpt><trkpt lat="43.86631" lon="12.283795"><ele>284.3333333333333</ele><time>2026-04-11T09:27:08.962Z</time></trkpt><trkpt lat="43.8664333" lon="12.28395"><ele>285.6666666666667</ele><time>2026-04-11T09:27:09.962Z</time></trkpt><trkpt lat="43.8665317" lon="12.2841383"><ele>287.0</ele><time>2026-04-11T09:27:10.962Z</time></trkpt><trkpt lat="43.8666217" lon="12.2843417"><ele>287.0</ele><time>2026-04-11T09:27:11.961Z</time></trkpt><trkpt lat="43.866735" lon="12.2845267"><ele>287.0</ele><time>2026-04-11T09:27:12.961Z</time></trkpt><trkpt lat="43.866845" lon="12.2847133"><ele>287.0</ele><time>2026-04-11T09:27:13.961Z</time></trkpt><trkpt lat="43.866955" lon="12.284885"><ele>286.5</ele><time>2026-04-11T09:27:14.961Z</time></trkpt><trkpt lat="43.8670617" lon="12.2850483"><ele>286.0</ele><time>2026-04-11T09:27:15.961Z</time></trkpt><trkpt lat="43.8671767" lon="12.2851667"><ele>285.5</ele><time>2026-04-11T09:27:16.962Z</time></trkpt><trkpt lat="43.8672917" lon="12.2852517"><ele>285.0</ele><time>2026-04-11T09:27:17.961Z</time></trkpt><trkpt lat="43.8674283" lon="12.285255"><ele>285.0</ele><time>2026-04-11T09:27:18.962Z</time></trkpt><trkpt lat="43.8675717" lon="12.285195"><ele>285.0</ele><time>2026-04-11T09:27:19.961Z</time></trkpt><trkpt lat="43.8677183" lon="12.2851"><ele>285.0</ele><time>2026-04-11T09:27:20.961Z</time></trkpt><trkpt lat="43.8678633" lon="12.2849933"><ele>283.0</ele><time>2026-04-11T09:27:21.961Z</time></trkpt><trkpt lat="43.8680083" lon="12.2848783"><ele>281.0</ele><time>2026-04-11T09:27:22.962Z</time></trkpt><trkpt lat="43.8681533" lon="12.2847567"><ele>279.0</ele><time>2026-04-11T09:27:23.961Z</time></trkpt><trkpt lat="43.8683133" lon="12.2846467"><ele>281.3333333333333</ele><time>2026-04-11T09:27:24.961Z</time></trkpt><trkpt lat="43.868475" lon="12.284525"><ele>283.66666666666663</ele><time>2026-04-11T09:27:25.961Z</time></trkpt><trkpt lat="43.8686333" lon="12.284405"><ele>286.0</ele><time>2026-04-11T09:27:26.961Z</time></trkpt><trkpt lat="43.8687883" lon="12.2842933"><ele>286.0</ele><time>2026-04-11T09:27:27.961Z</time></trkpt><trkpt lat="43.8689517" lon="12.284195"><ele>286.0</ele><time>2026-04-11T09:27:28.961Z</time></trkpt><trkpt lat="43.8691133" lon="12.284115"><ele>286.0</ele><time>2026-04-11T09:27:29.961Z</time></trkpt><trkpt lat="43.869285" lon="12.284075"><ele>286.3333333333333</ele><time>2026-04-11T09:27:30.962Z</time></trkpt><trkpt lat="43.8694633" lon="12.2840683"><ele>286.6666666666667</ele><time>2026-04-11T09:27:31.961Z</time></trkpt><trkpt lat="43.8696433" lon="12.2840767"><ele>287.0</ele><time>2026-04-11T09:27:32.962Z</time></trkpt><trkpt lat="43.8698333" lon="12.284075"><ele>287.0</ele><time>2026-04-11T09:27:33.961Z</time></trkpt><trkpt lat="43.870025" lon="12.2840667"><ele>287.0</ele><time>2026-04-11T09:27:34.961Z</time></trkpt><trkpt lat="43.8702167" lon="12.2840683"><ele>287.0</ele><time>2026-04-11T09:27:35.961Z</time></trkpt><trkpt lat="43.870415" lon="12.284055"><ele>286.0</ele><time>2026-04-11T09:27:36.961Z</time></trkpt><trkpt lat="43.8706283" lon="12.28403"><ele>285.0</ele><time>2026-04-11T09:27:37.962Z</time></trkpt><trkpt lat="43.8708333" lon="12.283995"><ele>284.0</ele><time>2026-04-11T09:27:38.961Z</time></trkpt><trkpt lat="43.8710233" lon="12.283945"><ele>287.33333333333337</ele><time>2026-04-11T09:27:39.96Z</time></trkpt><trkpt lat="43.8712267" lon="12.2838867"><ele>290.6666666666667</ele><time>2026-04-11T09:27:40.961Z</time></trkpt><trkpt lat="43.87143" lon="12.2838317"><ele>294.0</ele><time>2026-04-11T09:27:41.96Z</time></trkpt><trkpt lat="43.8716383" lon="12.2837717"><ele>292.6666666666667</ele><time>2026-04-11T09:27:42.96Z</time></trkpt><trkpt lat="43.8718217" lon="12.2836983"><ele>291.33333333333337</ele><time>2026-04-11T09:27:43.96Z</time></trkpt><trkpt lat="43.8720183" lon="12.283625"><ele>290.0</ele><time>2026-04-11T09:27:44.96Z</time></trkpt><trkpt lat="43.8722167" lon="12.2835533"><ele>290.0</ele><time>2026-04-11T09:27:45.96Z</time></trkpt><trkpt lat="43.872415" lon="12.2834667"><ele>290.0</ele><time>2026-04-11T09:27:46.96Z</time></trkpt><trkpt lat="43.8726217" lon="12.2834"><ele>290.0</ele><time>2026-04-11T09:27:47.96Z</time></trkpt><trkpt lat="43.8728283" lon="12.2833033"><ele>290.0</ele><time>2026-04-11T09:27:48.961Z</time></trkpt><trkpt lat="43.8730283" lon="12.283195"><ele>290.0</ele><time>2026-04-11T09:27:49.961Z</time></trkpt><trkpt lat="43.8732" lon="12.283085"><ele>290.0</ele><time>2026-04-11T09:27:50.961Z</time></trkpt><trkpt lat="43.8733767" lon="12.2829483"><ele>293.6666666666667</ele><time>2026-04-11T09:27:51.961Z</time></trkpt><trkpt lat="43.8735483" lon="12.28282"><ele>297.3333333333333</ele><time>2026-04-11T09:27:52.96Z</time></trkpt><trkpt lat="43.8737217" lon="12.2827117"><ele>301.0</ele><time>2026-04-11T09:27:53.96Z</time></trkpt><trkpt lat="43.8739017" lon="12.2826367"><ele>301.0</ele><time>2026-04-11T09:27:54.96Z</time></trkpt><trkpt lat="43.874075" lon="12.2825867"><ele>301.0</ele><time>2026-04-11T09:27:55.96Z</time></trkpt><trkpt lat="43.8742567" lon="12.2825583"><ele>301.0</ele><time>2026-04-11T09:27:56.96Z</time></trkpt><trkpt lat="43.8744417" lon="12.2825433"><ele>303.0</ele><time>2026-04-11T09:27:57.96Z</time></trkpt><trkpt lat="43.8746317" lon="12.2825267"><ele>305.0</ele><time>2026-04-11T09:27:58.96Z</time></trkpt><trkpt lat="43.8748167" lon="12.2825183"><ele>307.0</ele><time>2026-04-11T09:27:59.961Z</time></trkpt><trkpt lat="43.8750017" lon="12.282535"><ele>306.66666666666663</ele><time>2026-04-11T09:28:00.96Z</time></trkpt><trkpt lat="43.8751633" lon="12.2826083"><ele>306.3333333333333</ele><time>2026-04-11T09:28:01.96Z</time></trkpt><trkpt lat="43.8753117" lon="12.2827267"><ele>306.0</ele><time>2026-04-11T09:28:02.96Z</time></trkpt><trkpt lat="43.8754567" lon="12.28287"><ele>306.0</ele><time>2026-04-11T09:28:03.96Z</time></trkpt><trkpt lat="43.875585" lon="12.2830067"><ele>306.0</ele><time>2026-04-11T09:28:04.96Z</time></trkpt><trkpt lat="43.8756967" lon="12.2830883"><ele>306.0</ele><time>2026-04-11T09:28:05.96Z</time></trkpt><trkpt lat="43.87581" lon="12.283085"><ele>306.0</ele><time>2026-04-11T09:28:06.96Z</time></trkpt><trkpt lat="43.8759067" lon="12.2830183"><ele>305.0</ele><time>2026-04-11T09:28:07.96Z</time></trkpt><trkpt lat="43.8759967" lon="12.28289"><ele>304.0</ele><time>2026-04-11T09:28:08.96Z</time></trkpt><trkpt lat="43.8760533" lon="12.28276"><ele>303.0</ele><time>2026-04-11T09:28:09.961Z</time></trkpt><trkpt lat="43.8761217" lon="12.2825833"><ele>302.0</ele><time>2026-04-11T09:28:10.961Z</time></trkpt><trkpt lat="43.87618" lon="12.2823933"><ele>302.33333333333337</ele><time>2026-04-11T09:28:11.961Z</time></trkpt><trkpt lat="43.87625" lon="12.2821967"><ele>302.6666666666667</ele><time>2026-04-11T09:28:12.96Z</time></trkpt><trkpt lat="43.8763517" lon="12.2820167"><ele>303.0</ele><time>2026-04-11T09:28:13.96Z</time></trkpt><trkpt lat="43.8764717" lon="12.2818617"><ele>303.0</ele><time>2026-04-11T09:28:14.96Z</time></trkpt><trkpt lat="43.8766183" lon="12.2817167"><ele>303.0</ele><time>2026-04-11T09:28:15.96Z</time></trkpt><trkpt lat="43.8767683" lon="12.28156"><ele>303.0</ele><time>2026-04-11T09:28:16.96Z</time></trkpt><trkpt lat="43.8768883" lon="12.2813833"><ele>304.0</ele><time>2026-04-11T09:28:17.96Z</time></trkpt><trkpt lat="43.876965" lon="12.2811867"><ele>305.0</ele><time>2026-04-11T09:28:18.961Z</time></trkpt><trkpt lat="43.8769983" lon="12.2809783"><ele>306.0</ele><time>2026-04-11T09:28:19.96Z</time></trkpt><trkpt lat="43.8770117" lon="12.2807783"><ele>306.0</ele><time>2026-04-11T09:28:20.96Z</time></trkpt><trkpt lat="43.877055" lon="12.2806017"><ele>306.0</ele><time>2026-04-11T09:28:21.961Z</time></trkpt><trkpt lat="43.8771483" lon="12.2804717"><ele>306.0</ele><time>2026-04-11T09:28:22.96Z</time></trkpt><trkpt lat="43.8772767" lon="12.2804067"><ele>306.0</ele><time>2026-04-11T09:28:23.96Z</time></trkpt><trkpt lat="43.87743" lon="12.280385"><ele>310.0</ele><time>2026-04-11T09:28:24.96Z</time></trkpt><trkpt lat="43.8775883" lon="12.2804"><ele>314.0</ele><time>2026-04-11T09:28:25.96Z</time></trkpt><trkpt lat="43.8777433" lon="12.28047"><ele>318.0</ele><time>2026-04-11T09:28:26.96Z</time></trkpt><trkpt lat="43.8779067" lon="12.28055"><ele>317.3333333333333</ele><time>2026-04-11T09:28:27.961Z</time></trkpt><trkpt lat="43.8780633" lon="12.2806467"><ele>316.66666666666663</ele><time>2026-04-11T09:28:28.96Z</time></trkpt><trkpt lat="43.8782233" lon="12.2807433"><ele>316.0</ele><time>2026-04-11T09:28:29.96Z</time></trkpt><trkpt lat="43.8783867" lon="12.280855"><ele>321.66666666666663</ele><time>2026-04-11T09:28:30.96Z</time></trkpt><trkpt lat="43.8785533" lon="12.280965"><ele>327.3333333333333</ele><time>2026-04-11T09:28:31.961Z</time></trkpt><trkpt lat="43.878715" lon="12.28109"><ele>333.0</ele><time>2026-04-11T09:28:32.96Z</time></trkpt><trkpt lat="43.8788883" lon="12.2811867"><ele>333.0</ele><time>2026-04-11T09:28:33.961Z</time></trkpt><trkpt lat="43.879065" lon="12.2812817"><ele>333.0</ele><time>2026-04-11T09:28:34.961Z</time></trkpt><trkpt lat="43.879235" lon="12.2813567"><ele>333.0</ele><time>2026-04-11T09:28:35.961Z</time></trkpt><trkpt lat="43.8794183" lon="12.2814267"><ele>329.0</ele><time>2026-04-11T09:28:36.96Z</time></trkpt><trkpt lat="43.8796" lon="12.2815067"><ele>325.0</ele><time>2026-04-11T09:28:37.96Z</time></trkpt><trkpt lat="43.8797783" lon="12.2815883"><ele>321.0</ele><time>2026-04-11T09:28:38.96Z</time></trkpt><trkpt lat="43.8799717" lon="12.2816583"><ele>327.0</ele><time>2026-04-11T09:28:39.96Z</time></trkpt><trkpt lat="43.8801633" lon="12.2817283"><ele>333.0</ele><time>2026-04-11T09:28:40.96Z</time></trkpt><trkpt lat="43.880345" lon="12.28183"><ele>339.0</ele><time>2026-04-11T09:28:41.96Z</time></trkpt><trkpt lat="43.8805183" lon="12.2819533"><ele>339.0</ele><time>2026-04-11T09:28:42.96Z</time></trkpt><trkpt lat="43.8806617" lon="12.2821317"><ele>339.0</ele><time>2026-04-11T09:28:43.96Z</time></trkpt><trkpt lat="43.88079" lon="12.2823267"><ele>339.0</ele><time>2026-04-11T09:28:44.96Z</time></trkpt><trkpt lat="43.880915" lon="12.28254"><ele>338.3333333333333</ele><time>2026-04-11T09:28:45.96Z</time></trkpt><trkpt lat="43.8810367" lon="12.2827583"><ele>337.66666666666663</ele><time>2026-04-11T09:28:46.96Z</time></trkpt><trkpt lat="43.88117" lon="12.28297"><ele>337.0</ele><time>2026-04-11T09:28:47.96Z</time></trkpt><trkpt lat="43.881305" lon="12.2831783"><ele>333.66666666666663</ele><time>2026-04-11T09:28:48.96Z</time></trkpt><trkpt lat="43.8814517" lon="12.283375"><ele>330.3333333333333</ele><time>2026-04-11T09:28:49.96Z</time></trkpt><trkpt lat="43.881575" lon="12.2835717"><ele>327.0</ele><time>2026-04-11T09:28:50.96Z</time></trkpt><trkpt lat="43.88172" lon="12.2837283"><ele>328.0</ele><time>2026-04-11T09:28:51.96Z</time></trkpt><trkpt lat="43.881875" lon="12.2838433"><ele>329.0</ele><time>2026-04-11T09:28:52.96Z</time></trkpt><trkpt lat="43.8820467" lon="12.2839083"><ele>330.0</ele><time>2026-04-11T09:28:53.96Z</time></trkpt><trkpt lat="43.8822383" lon="12.28393"><ele>330.0</ele><time>2026-04-11T09:28:54.96Z</time></trkpt><trkpt lat="43.8824233" lon="12.2839233"><ele>330.0</ele><time>2026-04-11T09:28:55.96Z</time></trkpt><trkpt lat="43.88263" lon="12.2838967"><ele>330.0</ele><time>2026-04-11T09:28:56.96Z</time></trkpt><trkpt lat="43.8828083" lon="12.2837867"><ele>326.3333333333333</ele><time>2026-04-11T09:28:57.96Z</time></trkpt><trkpt lat="43.8829883" lon="12.2836483"><ele>322.66666666666663</ele><time>2026-04-11T09:28:58.961Z</time></trkpt><trkpt lat="43.8831767" lon="12.28348"><ele>319.0</ele><time>2026-04-11T09:28:59.96Z</time></trkpt><trkpt lat="43.8833533" lon="12.28333"><ele>321.3333333333333</ele><time>2026-04-11T09:29:00.961Z</time></trkpt><trkpt lat="43.8835267" lon="12.2831883"><ele>323.6666666666667</ele><time>2026-04-11T09:29:01.961Z</time></trkpt><trkpt lat="43.8836983" lon="12.2830917"><ele>326.0</ele><time>2026-04-11T09:29:02.96Z</time></trkpt><trkpt lat="43.8838717" lon="12.283055"><ele>321.33333333333337</ele><time>2026-04-11T09:29:03.96Z</time></trkpt><trkpt lat="43.8840617" lon="12.2831017"><ele>316.6666666666667</ele><time>2026-04-11T09:29:04.961Z</time></trkpt><trkpt lat="43.88424" lon="12.28317"><ele>312.0</ele><time>2026-04-11T09:29:05.96Z</time></trkpt><trkpt lat="43.8844383" lon="12.283255"><ele>312.0</ele><time>2026-04-11T09:29:06.961Z</time></trkpt><trkpt lat="43.884605" lon="12.2833583"><ele>312.0</ele><time>2026-04-11T09:29:07.96Z</time></trkpt><trkpt lat="43.88476" lon="12.2834767"><ele>312.0</ele><time>2026-04-11T09:29:08.96Z</time></trkpt><trkpt lat="43.88488" lon="12.2836267"><ele>312.0</ele><time>2026-04-11T09:29:09.96Z</time></trkpt><trkpt lat="43.8849717" lon="12.2838083"><ele>312.0</ele><time>2026-04-11T09:29:10.961Z</time></trkpt><trkpt lat="43.8850567" lon="12.2839883"><ele>312.0</ele><time>2026-04-11T09:29:11.96Z</time></trkpt><trkpt lat="43.8851117" lon="12.28414"><ele>312.0</ele><time>2026-04-11T09:29:12.96Z</time></trkpt><trkpt lat="43.8851483" lon="12.2842833"><ele>309.8</ele><time>2026-04-11T09:29:13.96Z</time></trkpt><trkpt lat="43.8851833" lon="12.284405"><ele>307.6</ele><time>2026-04-11T09:29:14.96Z</time></trkpt><trkpt lat="43.8852533" lon="12.2844883"><ele>305.40000000000003</ele><time>2026-04-11T09:29:15.96Z</time></trkpt><trkpt lat="43.8853517" lon="12.28455"><ele>303.2</ele><time>2026-04-11T09:29:16.96Z</time></trkpt><trkpt lat="43.8854667" lon="12.28458"><ele>301.0</ele><time>2026-04-11T09:29:17.96Z</time></trkpt><trkpt lat="43.8856" lon="12.2845917"><ele>301.0</ele><time>2026-04-11T09:29:18.961Z</time></trkpt><trkpt lat="43.8857267" lon="12.284615"><ele>301.0</ele><time>2026-04-11T09:29:19.96Z</time></trkpt><trkpt lat="43.88586" lon="12.2846633"><ele>301.0</ele><time>2026-04-11T09:29:20.961Z</time></trkpt><trkpt lat="43.8859967" lon="12.284735"><ele>301.0</ele><time>2026-04-11T09:29:21.96Z</time></trkpt><trkpt lat="43.8861167" lon="12.28484"><ele>299.0</ele><time>2026-04-11T09:29:22.96Z</time></trkpt><trkpt lat="43.8862267" lon="12.2849633"><ele>297.0</ele><time>2026-04-11T09:29:23.96Z</time></trkpt><trkpt lat="43.8863217" lon="12.285115"><ele>295.0</ele><time>2026-04-11T09:29:24.96Z</time></trkpt><trkpt lat="43.8864117" lon="12.28525"><ele>293.0</ele><time>2026-04-11T09:29:25.961Z</time></trkpt><trkpt lat="43.8865133" lon="12.2853633"><ele>293.0</ele><time>2026-04-11T09:29:26.96Z</time></trkpt><trkpt lat="43.88662" lon="12.2854467"><ele>293.0</ele><time>2026-04-11T09:29:27.96Z</time></trkpt><trkpt lat="43.8867333" lon="12.2855"><ele>293.0</ele><time>2026-04-11T09:29:28.96Z</time></trkpt><trkpt lat="43.8868517" lon="12.2855083"><ele>293.0</ele><time>2026-04-11T09:29:29.96Z</time></trkpt><trkpt lat="43.88698" lon="12.2854933"><ele>292.75</ele><time>2026-04-11T09:29:30.961Z</time></trkpt><trkpt lat="43.8871033" lon="12.28546"><ele>292.5</ele><time>2026-04-11T09:29:31.961Z</time></trkpt><trkpt lat="43.8872333" lon="12.2854433"><ele>292.25</ele><time>2026-04-11T09:29:32.96Z</time></trkpt><trkpt lat="43.8873517" lon="12.2854467"><ele>292.0</ele><time>2026-04-11T09:29:33.96Z</time></trkpt><trkpt lat="43.88747" lon="12.2854967"><ele>292.0</ele><time>2026-04-11T09:29:34.961Z</time></trkpt><trkpt lat="43.887585" lon="12.2855683"><ele>292.0</ele><time>2026-04-11T09:29:35.961Z</time></trkpt><trkpt lat="43.887695" lon="12.2856783"><ele>292.0</ele><time>2026-04-11T09:29:36.96Z</time></trkpt><trkpt lat="43.8878017" lon="12.2858117"><ele>292.0</ele><time>2026-04-11T09:29:37.96Z</time></trkpt><trkpt lat="43.8879083" lon="12.2859433"><ele>290.75</ele><time>2026-04-11T09:29:38.96Z</time></trkpt><trkpt lat="43.8880267" lon="12.28607"><ele>289.5</ele><time>2026-04-11T09:29:39.96Z</time></trkpt><trkpt lat="43.8881317" lon="12.2862083"><ele>288.25</ele><time>2026-04-11T09:29:40.96Z</time></trkpt><trkpt lat="43.8882133" lon="12.2863517"><ele>287.0</ele><time>2026-04-11T09:29:41.96Z</time></trkpt><trkpt lat="43.8882683" lon="12.28649"><ele>286.83333333333337</ele><time>2026-04-11T09:29:42.96Z</time></trkpt><trkpt lat="43.888315" lon="12.28662"><ele>286.6666666666667</ele><time>2026-04-11T09:29:43.96Z</time></trkpt><trkpt lat="43.888345" lon="12.2867467"><ele>286.5</ele><time>2026-04-11T09:29:44.961Z</time></trkpt><trkpt lat="43.88836" lon="12.2868383"><ele>286.3333333333333</ele><time>2026-04-11T09:29:45.96Z</time></trkpt><trkpt lat="43.8883567" lon="12.286935"><ele>286.16666666666663</ele><time>2026-04-11T09:29:46.96Z</time></trkpt><trkpt lat="43.8883567" lon="12.2870333"><ele>286.0</ele><time>2026-04-11T09:29:47.96Z</time></trkpt><trkpt lat="43.888375" lon="12.287145"><ele>286.0</ele><time>2026-04-11T09:29:48.96Z</time></trkpt><trkpt lat="43.888395" lon="12.2872583"><ele>286.0</ele><time>2026-04-11T09:29:49.96Z</time></trkpt><trkpt lat="43.8884217" lon="12.2873817"><ele>286.0</ele><time>2026-04-11T09:29:50.961Z</time></trkpt><trkpt lat="43.8884633" lon="12.2875333"><ele>286.0</ele><time>2026-04-11T09:29:51.96Z</time></trkpt><trkpt lat="43.8885283" lon="12.287685"><ele>286.0</ele><time>2026-04-11T09:29:52.96Z</time></trkpt><trkpt lat="43.8886233" lon="12.2878283"><ele>286.0</ele><time>2026-04-11T09:29:53.96Z</time></trkpt><trkpt lat="43.888735" lon="12.2879483"><ele>286.0</ele><time>2026-04-11T09:29:54.96Z</time></trkpt><trkpt lat="43.8888583" lon="12.2880433"><ele>286.0</ele><time>2026-04-11T09:29:55.96Z</time></trkpt><trkpt lat="43.8889783" lon="12.2881067"><ele>286.0</ele><time>2026-04-11T09:29:56.96Z</time></trkpt><trkpt lat="43.889115" lon="12.2881467"><ele>286.0</ele><time>2026-04-11T09:29:57.96Z</time></trkpt><trkpt lat="43.889255" lon="12.2881867"><ele>286.0</ele><time>2026-04-11T09:29:58.96Z</time></trkpt><trkpt lat="43.8893917" lon="12.2882367"><ele>286.0</ele><time>2026-04-11T09:29:59.961Z</time></trkpt><trkpt lat="43.889525" lon="12.28829"><ele>286.0</ele><time>2026-04-11T09:30:00.96Z</time></trkpt><trkpt lat="43.8896533" lon="12.2883483"><ele>287.0</ele><time>2026-04-11T09:30:01.96Z</time></trkpt><trkpt lat="43.889775" lon="12.2884083"><ele>288.0</ele><time>2026-04-11T09:30:02.96Z</time></trkpt><trkpt lat="43.8899017" lon="12.2884517"><ele>289.0</ele><time>2026-04-11T09:30:03.96Z</time></trkpt><trkpt lat="43.8900183" lon="12.2884983"><ele>290.0</ele><time>2026-04-11T09:30:04.96Z</time></trkpt><trkpt lat="43.8901567" lon="12.288545"><ele>291.25</ele><time>2026-04-11T09:30:05.96Z</time></trkpt><trkpt lat="43.8902883" lon="12.2885867"><ele>292.5</ele><time>2026-04-11T09:30:06.961Z</time></trkpt><trkpt lat="43.8904083" lon="12.2886417"><ele>293.75</ele><time>2026-04-11T09:30:07.96Z</time></trkpt><trkpt lat="43.8905383" lon="12.2886817"><ele>295.0</ele><time>2026-04-11T09:30:08.96Z</time></trkpt><trkpt lat="43.89066" lon="12.2887283"><ele>295.0</ele><time>2026-04-11T09:30:09.96Z</time></trkpt><trkpt lat="43.8907833" lon="12.28876"><ele>295.0</ele><time>2026-04-11T09:30:10.96Z</time></trkpt><trkpt lat="43.8908883" lon="12.2888033"><ele>295.0</ele><time>2026-04-11T09:30:11.96Z</time></trkpt><trkpt lat="43.891" lon="12.2888433"><ele>295.0</ele><time>2026-04-11T09:30:12.96Z</time></trkpt><trkpt lat="43.8911217" lon="12.2888817"><ele>294.6</ele><time>2026-04-11T09:30:13.96Z</time></trkpt><trkpt lat="43.891245" lon="12.2889183"><ele>294.2</ele><time>2026-04-11T09:30:14.96Z</time></trkpt><trkpt lat="43.8913483" lon="12.2889617"><ele>293.8</ele><time>2026-04-11T09:30:15.96Z</time></trkpt><trkpt lat="43.8914467" lon="12.2889883"><ele>293.4</ele><time>2026-04-11T09:30:16.96Z</time></trkpt><trkpt lat="43.89155" lon="12.2890083"><ele>293.0</ele><time>2026-04-11T09:30:17.961Z</time></trkpt><trkpt lat="43.89163" lon="12.289035"><ele>293.0</ele><time>2026-04-11T09:30:18.96Z</time></trkpt><trkpt lat="43.891705" lon="12.2890583"><ele>293.0</ele><time>2026-04-11T09:30:19.961Z</time></trkpt><trkpt lat="43.89182" lon="12.2890867"><ele>293.0</ele><time>2026-04-11T09:30:21.961Z</time></trkpt><trkpt lat="43.8919" lon="12.2891133"><ele>293.0</ele><time>2026-04-11T09:30:23.96Z</time></trkpt><trkpt lat="43.8919567" lon="12.289155"><ele>293.0</ele><time>2026-04-11T09:30:25.96Z</time></trkpt><trkpt lat="43.8920567" lon="12.28917"><ele>293.0</ele><time>2026-04-11T09:30:34.96Z</time></trkpt><trkpt lat="43.892165" lon="12.289215"><ele>292.99999999999994</ele><time>2026-04-11T09:30:36.96Z</time></trkpt><trkpt lat="43.8922267" lon="12.2892433"><ele>293.0</ele><time>2026-04-11T09:30:37.961Z</time></trkpt><trkpt lat="43.892295" lon="12.2892633"><ele>293.0</ele><time>2026-04-11T09:30:38.96Z</time></trkpt><trkpt lat="43.8923583" lon="12.28929"><ele>293.0</ele><time>2026-04-11T09:30:39.96Z</time></trkpt><trkpt lat="43.8924717" lon="12.2893217"><ele>293.0</ele><time>2026-04-11T09:30:41.96Z</time></trkpt><trkpt lat="43.892535" lon="12.2893483"><ele>292.99999999999994</ele><time>2026-04-11T09:30:42.96Z</time></trkpt><trkpt lat="43.8925967" lon="12.2893783"><ele>293.0</ele><time>2026-04-11T09:30:43.96Z</time></trkpt><trkpt lat="43.89267" lon="12.2894067"><ele>293.0</ele><time>2026-04-11T09:30:44.96Z</time></trkpt><trkpt lat="43.89275" lon="12.2894317"><ele>293.0</ele><time>2026-04-11T09:30:45.96Z</time></trkpt><trkpt lat="43.8928267" lon="12.2894517"><ele>293.0</ele><time>2026-04-11T09:30:46.961Z</time></trkpt><trkpt lat="43.8929033" lon="12.2894683"><ele>293.0</ele><time>2026-04-11T09:30:47.96Z</time></trkpt><trkpt lat="43.8929783" lon="12.2894917"><ele>293.0</ele><time>2026-04-11T09:30:48.96Z</time></trkpt><trkpt lat="43.8930567" lon="12.2895167"><ele>293.0</ele><time>2026-04-11T09:30:49.96Z</time></trkpt><trkpt lat="43.8931383" lon="12.289525"><ele>293.0</ele><time>2026-04-11T09:30:50.96Z</time></trkpt><trkpt lat="43.8932167" lon="12.2895183"><ele>293.0</ele><time>2026-04-11T09:30:51.96Z</time></trkpt><trkpt lat="43.893285" lon="12.289495"><ele>293.0</ele><time>2026-04-11T09:30:52.961Z</time></trkpt><trkpt lat="43.8933483" lon="12.2894733"><ele>293.0</ele><time>2026-04-11T09:30:53.96Z</time></trkpt><trkpt lat="43.893435" lon="12.2894617"><ele>293.0</ele><time>2026-04-11T09:30:55.961Z</time></trkpt><trkpt lat="43.8935133" lon="12.2894417"><ele>293.0</ele><time>2026-04-11T09:30:57.961Z</time></trkpt><trkpt lat="43.8935817" lon="12.28942"><ele>292.4</ele><time>2026-04-11T09:30:59.96Z</time></trkpt><trkpt lat="43.8936867" lon="12.2893933"><ele>291.8</ele><time>2026-04-11T09:31:01.96Z</time></trkpt><trkpt lat="43.89377" lon="12.2893683"><ele>291.2</ele><time>2026-04-11T09:31:02.96Z</time></trkpt><trkpt lat="43.893875" lon="12.2893317"><ele>290.6</ele><time>2026-04-11T09:31:03.96Z</time></trkpt><trkpt lat="43.8939733" lon="12.289305"><ele>290.0</ele><time>2026-04-11T09:31:04.961Z</time></trkpt><trkpt lat="43.8940583" lon="12.2892883"><ele>290.0</ele><time>2026-04-11T09:31:05.96Z</time></trkpt><trkpt lat="43.8941283" lon="12.2892717"><ele>290.0</ele><time>2026-04-11T09:31:06.96Z</time></trkpt><trkpt lat="43.8941967" lon="12.28925"><ele>290.0</ele><time>2026-04-11T09:31:07.96Z</time></trkpt><trkpt lat="43.8942983" lon="12.289215"><ele>290.0</ele><time>2026-04-11T09:31:09.96Z</time></trkpt><trkpt lat="43.894395" lon="12.2892033"><ele>290.0</ele><time>2026-04-11T09:31:11.96Z</time></trkpt><trkpt lat="43.8945217" lon="12.28917"><ele>289.6</ele><time>2026-04-11T09:31:13.961Z</time></trkpt><trkpt lat="43.894595" lon="12.2891383"><ele>289.2</ele><time>2026-04-11T09:31:14.96Z</time></trkpt><trkpt lat="43.8946633" lon="12.2890933"><ele>288.8</ele><time>2026-04-11T09:31:15.96Z</time></trkpt><trkpt lat="43.8947517" lon="12.2890183"><ele>288.4</ele><time>2026-04-11T09:31:17.96Z</time></trkpt><trkpt lat="43.8948167" lon="12.2889517"><ele>288.0</ele><time>2026-04-11T09:31:19.96Z</time></trkpt><trkpt lat="43.89491" lon="12.2888633"><ele>288.0</ele><time>2026-04-11T09:31:21.961Z</time></trkpt><trkpt lat="43.8949617" lon="12.2887767"><ele>288.0</ele><time>2026-04-11T09:31:22.961Z</time></trkpt><trkpt lat="43.895015" lon="12.2886783"><ele>288.0</ele><time>2026-04-11T09:31:23.96Z</time></trkpt><trkpt lat="43.8950633" lon="12.2885633"><ele>288.0</ele><time>2026-04-11T09:31:24.96Z</time></trkpt><trkpt lat="43.8951033" lon="12.28845"><ele>288.0</ele><time>2026-04-11T09:31:25.961Z</time></trkpt><trkpt lat="43.8951383" lon="12.288335"><ele>288.0</ele><time>2026-04-11T09:31:26.96Z</time></trkpt><trkpt lat="43.8951817" lon="12.2882217"><ele>287.0</ele><time>2026-04-11T09:31:27.96Z</time></trkpt><trkpt lat="43.8952367" lon="12.28811"><ele>286.0</ele><time>2026-04-11T09:31:28.96Z</time></trkpt><trkpt lat="43.8952817" lon="12.28802"><ele>285.0</ele><time>2026-04-11T09:31:29.96Z</time></trkpt><trkpt lat="43.895355" lon="12.2879033"><ele>284.0</ele><time>2026-04-11T09:31:31.96Z</time></trkpt><trkpt lat="43.8954117" lon="12.28785"><ele>283.0</ele><time>2026-04-11T09:31:32.961Z</time></trkpt><trkpt lat="43.8954717" lon="12.2877833"><ele>282.0</ele><time>2026-04-11T09:31:33.96Z</time></trkpt><trkpt lat="43.89554" lon="12.2877017"><ele>282.0</ele><time>2026-04-11T09:31:34.96Z</time></trkpt><trkpt lat="43.89561" lon="12.2876233"><ele>282.0</ele><time>2026-04-11T09:31:35.96Z</time></trkpt><trkpt lat="43.8956983" lon="12.2875633"><ele>282.0</ele><time>2026-04-11T09:31:36.96Z</time></trkpt><trkpt lat="43.8957967" lon="12.2875567"><ele>282.0</ele><time>2026-04-11T09:31:37.96Z</time></trkpt><trkpt lat="43.8959133" lon="12.2876"><ele>282.0</ele><time>2026-04-11T09:31:38.96Z</time></trkpt><trkpt lat="43.8960483" lon="12.2876717"><ele>281.75</ele><time>2026-04-11T09:31:39.961Z</time></trkpt><trkpt lat="43.89617" lon="12.2877683"><ele>281.5</ele><time>2026-04-11T09:31:40.96Z</time></trkpt><trkpt lat="43.8962917" lon="12.287885"><ele>281.25</ele><time>2026-04-11T09:31:41.961Z</time></trkpt><trkpt lat="43.89641" lon="12.2880067"><ele>281.0</ele><time>2026-04-11T09:31:42.96Z</time></trkpt><trkpt lat="43.89653" lon="12.2881333"><ele>280.0</ele><time>2026-04-11T09:31:43.96Z</time></trkpt><trkpt lat="43.8966567" lon="12.2882717"><ele>279.0</ele><time>2026-04-11T09:31:44.96Z</time></trkpt><trkpt lat="43.89679" lon="12.2883967"><ele>278.0</ele><time>2026-04-11T09:31:45.961Z</time></trkpt><trkpt lat="43.8969283" lon="12.2885133"><ele>278.0</ele><time>2026-04-11T09:31:46.96Z</time></trkpt><trkpt lat="43.8970583" lon="12.2886317"><ele>278.0</ele><time>2026-04-11T09:31:47.96Z</time></trkpt><trkpt lat="43.8971683" lon="12.288745"><ele>278.0</ele><time>2026-04-11T09:31:48.961Z</time></trkpt><trkpt lat="43.897285" lon="12.288835"><ele>278.0</ele><time>2026-04-11T09:31:49.96Z</time></trkpt><trkpt lat="43.89739" lon="12.2889233"><ele>275.8</ele><time>2026-04-11T09:31:50.96Z</time></trkpt><trkpt lat="43.8974833" lon="12.2890067"><ele>273.6</ele><time>2026-04-11T09:31:51.96Z</time></trkpt><trkpt lat="43.897575" lon="12.2890667"><ele>271.4</ele><time>2026-04-11T09:31:52.96Z</time></trkpt><trkpt lat="43.897655" lon="12.2890883"><ele>269.2</ele><time>2026-04-11T09:31:53.96Z</time></trkpt><trkpt lat="43.897745" lon="12.28908"><ele>267.0</ele><time>2026-04-11T09:31:54.96Z</time></trkpt><trkpt lat="43.89783" lon="12.28905"><ele>266.25</ele><time>2026-04-11T09:31:55.96Z</time></trkpt><trkpt lat="43.8979283" lon="12.2889917"><ele>265.5</ele><time>2026-04-11T09:31:56.96Z</time></trkpt><trkpt lat="43.8980417" lon="12.2889417"><ele>264.75</ele><time>2026-04-11T09:31:57.96Z</time></trkpt><trkpt lat="43.8981667" lon="12.288925"><ele>264.0</ele><time>2026-04-11T09:31:58.96Z</time></trkpt><trkpt lat="43.8982917" lon="12.2889217"><ele>264.0</ele><time>2026-04-11T09:31:59.96Z</time></trkpt><trkpt lat="43.8983933" lon="12.2889267"><ele>264.0</ele><time>2026-04-11T09:32:00.96Z</time></trkpt><trkpt lat="43.8984983" lon="12.2889483"><ele>264.0</ele><time>2026-04-11T09:32:01.96Z</time></trkpt><trkpt lat="43.8986" lon="12.28899"><ele>264.0</ele><time>2026-04-11T09:32:02.96Z</time></trkpt><trkpt lat="43.898705" lon="12.28904"><ele>264.0</ele><time>2026-04-11T09:32:03.96Z</time></trkpt><trkpt lat="43.8988133" lon="12.28909"><ele>263.8</ele><time>2026-04-11T09:32:04.961Z</time></trkpt><trkpt lat="43.8989067" lon="12.289155"><ele>263.59999999999997</ele><time>2026-04-11T09:32:05.961Z</time></trkpt><trkpt lat="43.8989983" lon="12.28921"><ele>263.4</ele><time>2026-04-11T09:32:06.96Z</time></trkpt><trkpt lat="43.8990683" lon="12.289285"><ele>263.2</ele><time>2026-04-11T09:32:07.96Z</time></trkpt><trkpt lat="43.8991333" lon="12.289375"><ele>263.0</ele><time>2026-04-11T09:32:08.96Z</time></trkpt><trkpt lat="43.8991967" lon="12.2894633"><ele>263.1666666666667</ele><time>2026-04-11T09:32:09.96Z</time></trkpt><trkpt lat="43.8992567" lon="12.2895467"><ele>263.33333333333337</ele><time>2026-04-11T09:32:10.961Z</time></trkpt><trkpt lat="43.8993083" lon="12.2896267"><ele>263.5</ele><time>2026-04-11T09:32:11.96Z</time></trkpt><trkpt lat="43.8993567" lon="12.2897117"><ele>263.6666666666667</ele><time>2026-04-11T09:32:12.96Z</time></trkpt><trkpt lat="43.899405" lon="12.2898133"><ele>263.8333333333333</ele><time>2026-04-11T09:32:13.96Z</time></trkpt><trkpt lat="43.8994567" lon="12.2899167"><ele>264.0</ele><time>2026-04-11T09:32:14.96Z</time></trkpt><trkpt lat="43.8995233" lon="12.2900217"><ele>264.0</ele><time>2026-04-11T09:32:15.96Z</time></trkpt><trkpt lat="43.8995817" lon="12.2901367"><ele>264.0</ele><time>2026-04-11T09:32:16.96Z</time></trkpt><trkpt lat="43.89965" lon="12.290255"><ele>264.0</ele><time>2026-04-11T09:32:17.961Z</time></trkpt><trkpt lat="43.89972" lon="12.2903867"><ele>264.0</ele><time>2026-04-11T09:32:18.96Z</time></trkpt><trkpt lat="43.8998167" lon="12.2905117"><ele>262.3333333333333</ele><time>2026-04-11T09:32:19.959Z</time></trkpt><trkpt lat="43.89991" lon="12.2906717"><ele>260.66666666666663</ele><time>2026-04-11T09:32:20.959Z</time></trkpt><trkpt lat="43.9000067" lon="12.29085"><ele>259.0</ele><time>2026-04-11T09:32:21.959Z</time></trkpt><trkpt lat="43.9000817" lon="12.291045"><ele>259.3333333333333</ele><time>2026-04-11T09:32:22.959Z</time></trkpt><trkpt lat="43.900145" lon="12.291255"><ele>259.6666666666667</ele><time>2026-04-11T09:32:23.96Z</time></trkpt><trkpt lat="43.9001883" lon="12.2914917"><ele>260.0</ele><time>2026-04-11T09:32:24.959Z</time></trkpt><trkpt lat="43.9002017" lon="12.2917333"><ele>260.0</ele><time>2026-04-11T09:32:25.959Z</time></trkpt><trkpt lat="43.9002183" lon="12.2919483"><ele>260.0</ele><time>2026-04-11T09:32:26.959Z</time></trkpt><trkpt lat="43.9002217" lon="12.2921317"><ele>260.0</ele><time>2026-04-11T09:32:27.96Z</time></trkpt><trkpt lat="43.9002367" lon="12.29229"><ele>260.0</ele><time>2026-04-11T09:32:28.959Z</time></trkpt><trkpt lat="43.9002467" lon="12.2924567"><ele>259.0</ele><time>2026-04-11T09:32:29.96Z</time></trkpt><trkpt lat="43.90025" lon="12.2926183"><ele>258.0</ele><time>2026-04-11T09:32:30.959Z</time></trkpt><trkpt lat="43.9002533" lon="12.2927817"><ele>257.0</ele><time>2026-04-11T09:32:31.959Z</time></trkpt><trkpt lat="43.9002583" lon="12.2929533"><ele>256.0</ele><time>2026-04-11T09:32:32.959Z</time></trkpt><trkpt lat="43.90027" lon="12.293125"><ele>255.0</ele><time>2026-04-11T09:32:33.96Z</time></trkpt><trkpt lat="43.900305" lon="12.2933083"><ele>254.0</ele><time>2026-04-11T09:32:34.96Z</time></trkpt><trkpt lat="43.9003717" lon="12.2934817"><ele>253.0</ele><time>2026-04-11T09:32:35.959Z</time></trkpt><trkpt lat="43.9004683" lon="12.2936333"><ele>252.0</ele><time>2026-04-11T09:32:36.959Z</time></trkpt><trkpt lat="43.9005867" lon="12.2937667"><ele>252.0</ele><time>2026-04-11T09:32:37.96Z</time></trkpt><trkpt lat="43.9007117" lon="12.293895"><ele>252.0</ele><time>2026-04-11T09:32:38.96Z</time></trkpt><trkpt lat="43.9008417" lon="12.2940233"><ele>252.0</ele><time>2026-04-11T09:32:39.959Z</time></trkpt><trkpt lat="43.90097" lon="12.2941483"><ele>250.75</ele><time>2026-04-11T09:32:40.959Z</time></trkpt><trkpt lat="43.9010933" lon="12.2942767"><ele>249.5</ele><time>2026-04-11T09:32:41.959Z</time></trkpt><trkpt lat="43.901205" lon="12.2943917"><ele>248.25</ele><time>2026-04-11T09:32:42.96Z</time></trkpt><trkpt lat="43.901315" lon="12.2945083"><ele>247.0</ele><time>2026-04-11T09:32:43.959Z</time></trkpt><trkpt lat="43.9014267" lon="12.2946267"><ele>247.0</ele><time>2026-04-11T09:32:44.959Z</time></trkpt><trkpt lat="43.9015433" lon="12.29474"><ele>247.0</ele><time>2026-04-11T09:32:45.959Z</time></trkpt><trkpt lat="43.9016783" lon="12.2948317"><ele>247.0</ele><time>2026-04-11T09:32:46.959Z</time></trkpt><trkpt lat="43.9018267" lon="12.2949067"><ele>244.66666666666666</ele><time>2026-04-11T09:32:47.959Z</time></trkpt><trkpt lat="43.901985" lon="12.2949583"><ele>242.33333333333331</ele><time>2026-04-11T09:32:48.959Z</time></trkpt><trkpt lat="43.9021517" lon="12.2950083"><ele>240.0</ele><time>2026-04-11T09:32:49.959Z</time></trkpt><trkpt lat="43.9023167" lon="12.2950583"><ele>240.0</ele><time>2026-04-11T09:32:50.959Z</time></trkpt><trkpt lat="43.9024733" lon="12.295095"><ele>240.0</ele><time>2026-04-11T09:32:51.959Z</time></trkpt><trkpt lat="43.9026333" lon="12.2951367"><ele>240.0</ele><time>2026-04-11T09:32:52.959Z</time></trkpt><trkpt lat="43.9028067" lon="12.2951483"><ele>239.33333333333331</ele><time>2026-04-11T09:32:53.959Z</time></trkpt><trkpt lat="43.90298" lon="12.2951083"><ele>238.66666666666666</ele><time>2026-04-11T09:32:54.959Z</time></trkpt><trkpt lat="43.9031383" lon="12.2950467"><ele>238.0</ele><time>2026-04-11T09:32:55.96Z</time></trkpt><trkpt lat="43.9032783" lon="12.2949217"><ele>237.66666666666666</ele><time>2026-04-11T09:32:56.959Z</time></trkpt><trkpt lat="43.9033917" lon="12.2947367"><ele>237.33333333333331</ele><time>2026-04-11T09:32:57.959Z</time></trkpt><trkpt lat="43.90349" lon="12.2945367"><ele>237.0</ele><time>2026-04-11T09:32:58.959Z</time></trkpt><trkpt lat="43.9035817" lon="12.294335"><ele>237.0</ele><time>2026-04-11T09:32:59.959Z</time></trkpt><trkpt lat="43.9036783" lon="12.2941233"><ele>237.0</ele><time>2026-04-11T09:33:00.959Z</time></trkpt><trkpt lat="43.903795" lon="12.2939333"><ele>237.0</ele><time>2026-04-11T09:33:01.959Z</time></trkpt><trkpt lat="43.9039183" lon="12.2937617"><ele>238.0</ele><time>2026-04-11T09:33:02.96Z</time></trkpt><trkpt lat="43.90404" lon="12.29361"><ele>239.0</ele><time>2026-04-11T09:33:03.96Z</time></trkpt><trkpt lat="43.9041483" lon="12.2934883"><ele>240.0</ele><time>2026-04-11T09:33:04.959Z</time></trkpt><trkpt lat="43.9042817" lon="12.293385"><ele>240.0</ele><time>2026-04-11T09:33:05.959Z</time></trkpt><trkpt lat="43.9044067" lon="12.293315"><ele>240.0</ele><time>2026-04-11T09:33:06.959Z</time></trkpt><trkpt lat="43.9045567" lon="12.29329"><ele>240.0</ele><time>2026-04-11T09:33:07.959Z</time></trkpt><trkpt lat="43.9047133" lon="12.29329"><ele>240.0</ele><time>2026-04-11T09:33:08.959Z</time></trkpt><trkpt lat="43.9048833" lon="12.29334"><ele>240.0</ele><time>2026-04-11T09:33:09.959Z</time></trkpt><trkpt lat="43.905025" lon="12.2934017"><ele>240.0</ele><time>2026-04-11T09:33:10.959Z</time></trkpt><trkpt lat="43.9051767" lon="12.29347"><ele>240.0</ele><time>2026-04-11T09:33:11.959Z</time></trkpt><trkpt lat="43.9053233" lon="12.2935133"><ele>240.66666666666669</ele><time>2026-04-11T09:33:12.959Z</time></trkpt><trkpt lat="43.9054767" lon="12.29354"><ele>241.33333333333334</ele><time>2026-04-11T09:33:13.959Z</time></trkpt><trkpt lat="43.9056317" lon="12.293575"><ele>242.0</ele><time>2026-04-11T09:33:14.959Z</time></trkpt><trkpt lat="43.9057767" lon="12.2936033"><ele>241.75</ele><time>2026-04-11T09:33:15.959Z</time></trkpt><trkpt lat="43.9059183" lon="12.2936333"><ele>241.5</ele><time>2026-04-11T09:33:16.959Z</time></trkpt><trkpt lat="43.9060633" lon="12.2936583"><ele>241.25</ele><time>2026-04-11T09:33:17.959Z</time></trkpt><trkpt lat="43.9062" lon="12.2936933"><ele>241.0</ele><time>2026-04-11T09:33:18.959Z</time></trkpt><trkpt lat="43.906345" lon="12.2937233"><ele>241.0</ele><time>2026-04-11T09:33:19.959Z</time></trkpt><trkpt lat="43.9064883" lon="12.2937683"><ele>241.0</ele><time>2026-04-11T09:33:20.959Z</time></trkpt><trkpt lat="43.9066283" lon="12.293785"><ele>241.0</ele><time>2026-04-11T09:33:21.959Z</time></trkpt><trkpt lat="43.9067783" lon="12.293815"><ele>241.0</ele><time>2026-04-11T09:33:22.959Z</time></trkpt><trkpt lat="43.9069217" lon="12.2938383"><ele>240.25</ele><time>2026-04-11T09:33:23.96Z</time></trkpt><trkpt lat="43.9070567" lon="12.293865"><ele>239.5</ele><time>2026-04-11T09:33:24.96Z</time></trkpt><trkpt lat="43.9072" lon="12.2938933"><ele>238.75</ele><time>2026-04-11T09:33:25.959Z</time></trkpt><trkpt lat="43.90734" lon="12.2939233"><ele>238.0</ele><time>2026-04-11T09:33:26.959Z</time></trkpt><trkpt lat="43.9074633" lon="12.29396"><ele>238.25</ele><time>2026-04-11T09:33:27.959Z</time></trkpt><trkpt lat="43.90758" lon="12.2939983"><ele>238.5</ele><time>2026-04-11T09:33:28.959Z</time></trkpt><trkpt lat="43.9077033" lon="12.2940267"><ele>238.75</ele><time>2026-04-11T09:33:29.959Z</time></trkpt><trkpt lat="43.9078183" lon="12.2940533"><ele>239.0</ele><time>2026-04-11T09:33:30.959Z</time></trkpt><trkpt lat="43.907935" lon="12.294075"><ele>239.0</ele><time>2026-04-11T09:33:31.959Z</time></trkpt><trkpt lat="43.9080483" lon="12.294105"><ele>239.0</ele><time>2026-04-11T09:33:32.959Z</time></trkpt><trkpt lat="43.9081583" lon="12.2941633"><ele>239.0</ele><time>2026-04-11T09:33:33.959Z</time></trkpt><trkpt lat="43.90825" lon="12.294255"><ele>239.0</ele><time>2026-04-11T09:33:34.959Z</time></trkpt><trkpt lat="43.9083467" lon="12.29438"><ele>240.25</ele><time>2026-04-11T09:33:35.959Z</time></trkpt><trkpt lat="43.90843" lon="12.294535"><ele>241.5</ele><time>2026-04-11T09:33:36.959Z</time></trkpt><trkpt lat="43.9085" lon="12.294695"><ele>242.75</ele><time>2026-04-11T09:33:37.96Z</time></trkpt><trkpt lat="43.90856" lon="12.2948617"><ele>244.0</ele><time>2026-04-11T09:33:38.959Z</time></trkpt><trkpt lat="43.9086117" lon="12.2950283"><ele>244.0</ele><time>2026-04-11T09:33:39.959Z</time></trkpt><trkpt lat="43.90866" lon="12.29518"><ele>244.0</ele><time>2026-04-11T09:33:40.959Z</time></trkpt><trkpt lat="43.9087033" lon="12.2953367"><ele>244.0</ele><time>2026-04-11T09:33:41.959Z</time></trkpt><trkpt lat="43.9087517" lon="12.2954883"><ele>244.0</ele><time>2026-04-11T09:33:42.959Z</time></trkpt><trkpt lat="43.9088083" lon="12.295645"><ele>243.5</ele><time>2026-04-11T09:33:43.959Z</time></trkpt><trkpt lat="43.9088533" lon="12.2958017"><ele>243.0</ele><time>2026-04-11T09:33:44.96Z</time></trkpt><trkpt lat="43.9089033" lon="12.295955"><ele>242.5</ele><time>2026-04-11T09:33:45.959Z</time></trkpt><trkpt lat="43.90896" lon="12.2961083"><ele>242.0</ele><time>2026-04-11T09:33:46.959Z</time></trkpt><trkpt lat="43.9090067" lon="12.2962767"><ele>241.75</ele><time>2026-04-11T09:33:47.959Z</time></trkpt><trkpt lat="43.9090517" lon="12.2964433"><ele>241.5</ele><time>2026-04-11T09:33:48.959Z</time></trkpt><trkpt lat="43.90907" lon="12.2966067"><ele>241.25</ele><time>2026-04-11T09:33:49.959Z</time></trkpt><trkpt lat="43.9090917" lon="12.2967783"><ele>241.0</ele><time>2026-04-11T09:33:50.959Z</time></trkpt><trkpt lat="43.90914" lon="12.2969583"><ele>241.0</ele><time>2026-04-11T09:33:51.959Z</time></trkpt><trkpt lat="43.90921" lon="12.297125"><ele>241.0</ele><time>2026-04-11T09:33:52.959Z</time></trkpt><trkpt lat="43.9092967" lon="12.2972967"><ele>241.0</ele><time>2026-04-11T09:33:53.959Z</time></trkpt><trkpt lat="43.9093783" lon="12.2974567"><ele>241.0</ele><time>2026-04-11T09:33:54.959Z</time></trkpt><trkpt lat="43.90947" lon="12.2976133"><ele>242.25</ele><time>2026-04-11T09:33:55.96Z</time></trkpt><trkpt lat="43.90955" lon="12.29777"><ele>243.5</ele><time>2026-04-11T09:33:56.959Z</time></trkpt><trkpt lat="43.909645" lon="12.2979117"><ele>244.75</ele><time>2026-04-11T09:33:57.959Z</time></trkpt><trkpt lat="43.909755" lon="12.298035"><ele>246.0</ele><time>2026-04-11T09:33:58.959Z</time></trkpt><trkpt lat="43.9098783" lon="12.298145"><ele>246.5</ele><time>2026-04-11T09:33:59.96Z</time></trkpt><trkpt lat="43.910005" lon="12.2982467"><ele>247.0</ele><time>2026-04-11T09:34:00.959Z</time></trkpt><trkpt lat="43.9101183" lon="12.2983383"><ele>247.5</ele><time>2026-04-11T09:34:01.959Z</time></trkpt><trkpt lat="43.9102167" lon="12.2984217"><ele>248.0</ele><time>2026-04-11T09:34:02.959Z</time></trkpt><trkpt lat="43.9103083" lon="12.298495"><ele>248.0</ele><time>2026-04-11T09:34:03.959Z</time></trkpt><trkpt lat="43.910395" lon="12.2985817"><ele>248.0</ele><time>2026-04-11T09:34:04.96Z</time></trkpt><trkpt lat="43.9104733" lon="12.2986883"><ele>248.0</ele><time>2026-04-11T09:34:05.959Z</time></trkpt><trkpt lat="43.9105267" lon="12.298825"><ele>248.0</ele><time>2026-04-11T09:34:06.959Z</time></trkpt><trkpt lat="43.9105667" lon="12.2989867"><ele>247.5</ele><time>2026-04-11T09:34:07.959Z</time></trkpt><trkpt lat="43.9105867" lon="12.2991617"><ele>247.0</ele><time>2026-04-11T09:34:08.959Z</time></trkpt><trkpt lat="43.9105933" lon="12.299335"><ele>246.5</ele><time>2026-04-11T09:34:09.96Z</time></trkpt><trkpt lat="43.910595" lon="12.299515"><ele>246.0</ele><time>2026-04-11T09:34:10.959Z</time></trkpt><trkpt lat="43.91059" lon="12.2997067"><ele>246.0</ele><time>2026-04-11T09:34:11.959Z</time></trkpt><trkpt lat="43.9105717" lon="12.299895"><ele>246.0</ele><time>2026-04-11T09:34:12.959Z</time></trkpt><trkpt lat="43.9105483" lon="12.3000867"><ele>246.0</ele><time>2026-04-11T09:34:13.96Z</time></trkpt><trkpt lat="43.9105167" lon="12.3002767"><ele>246.0</ele><time>2026-04-11T09:34:14.959Z</time></trkpt><trkpt lat="43.9104917" lon="12.3004633"><ele>246.75</ele><time>2026-04-11T09:34:15.959Z</time></trkpt><trkpt lat="43.9104683" lon="12.30066"><ele>247.5</ele><time>2026-04-11T09:34:16.959Z</time></trkpt><trkpt lat="43.910455" lon="12.30085"><ele>248.25</ele><time>2026-04-11T09:34:17.96Z</time></trkpt><trkpt lat="43.9104183" lon="12.3010433"><ele>249.0</ele><time>2026-04-11T09:34:18.959Z</time></trkpt><trkpt lat="43.9103817" lon="12.3012433"><ele>249.25</ele><time>2026-04-11T09:34:19.959Z</time></trkpt><trkpt lat="43.9103317" lon="12.3014383"><ele>249.5</ele><time>2026-04-11T09:34:20.959Z</time></trkpt><trkpt lat="43.910305" lon="12.301635"><ele>249.75</ele><time>2026-04-11T09:34:21.959Z</time></trkpt><trkpt lat="43.9102833" lon="12.3018467"><ele>250.0</ele><time>2026-04-11T09:34:22.96Z</time></trkpt><trkpt lat="43.91027" lon="12.3020167"><ele>250.0</ele><time>2026-04-11T09:34:23.96Z</time></trkpt><trkpt lat="43.9102467" lon="12.3021667"><ele>250.0</ele><time>2026-04-11T09:34:24.959Z</time></trkpt><trkpt lat="43.910215" lon="12.3022933"><ele>250.0</ele><time>2026-04-11T09:34:25.959Z</time></trkpt><trkpt lat="43.9101617" lon="12.30242"><ele>250.0</ele><time>2026-04-11T09:34:26.959Z</time></trkpt><trkpt lat="43.9101067" lon="12.3025317"><ele>250.0</ele><time>2026-04-11T09:34:27.959Z</time></trkpt><trkpt lat="43.9100517" lon="12.302635"><ele>248.2</ele><time>2026-04-11T09:34:28.959Z</time></trkpt><trkpt lat="43.910015" lon="12.302755"><ele>246.4</ele><time>2026-04-11T09:34:29.959Z</time></trkpt><trkpt lat="43.91001" lon="12.3028967"><ele>244.60000000000002</ele><time>2026-04-11T09:34:30.959Z</time></trkpt><trkpt lat="43.9100483" lon="12.30304"><ele>242.8</ele><time>2026-04-11T09:34:31.959Z</time></trkpt><trkpt lat="43.910125" lon="12.303175"><ele>241.0</ele><time>2026-04-11T09:34:32.959Z</time></trkpt><trkpt lat="43.91022" lon="12.303305"><ele>241.0</ele><time>2026-04-11T09:34:33.959Z</time></trkpt><trkpt lat="43.9103183" lon="12.30344"><ele>241.0</ele><time>2026-04-11T09:34:34.959Z</time></trkpt><trkpt lat="43.91043" lon="12.3035717"><ele>241.0</ele><time>2026-04-11T09:34:35.959Z</time></trkpt><trkpt lat="43.910535" lon="12.3036933"><ele>241.0</ele><time>2026-04-11T09:34:36.959Z</time></trkpt><trkpt lat="43.9106417" lon="12.3038133"><ele>238.75</ele><time>2026-04-11T09:34:37.959Z</time></trkpt><trkpt lat="43.9107483" lon="12.3039217"><ele>236.5</ele><time>2026-04-11T09:34:38.959Z</time></trkpt><trkpt lat="43.9108683" lon="12.30399"><ele>234.25</ele><time>2026-04-11T09:34:39.959Z</time></trkpt><trkpt lat="43.9109917" lon="12.3040417"><ele>232.0</ele><time>2026-04-11T09:34:40.959Z</time></trkpt><trkpt lat="43.911115" lon="12.3040717"><ele>231.75</ele><time>2026-04-11T09:34:41.96Z</time></trkpt><trkpt lat="43.9112283" lon="12.3041067"><ele>231.5</ele><time>2026-04-11T09:34:42.96Z</time></trkpt><trkpt lat="43.9113433" lon="12.30413"><ele>231.25</ele><time>2026-04-11T09:34:43.959Z</time></trkpt><trkpt lat="43.91146" lon="12.3041483"><ele>231.0</ele><time>2026-04-11T09:34:44.959Z</time></trkpt><trkpt lat="43.9115733" lon="12.3041567"><ele>231.0</ele><time>2026-04-11T09:34:45.959Z</time></trkpt><trkpt lat="43.9116967" lon="12.3041633"><ele>231.0</ele><time>2026-04-11T09:34:46.959Z</time></trkpt><trkpt lat="43.9118083" lon="12.30418"><ele>231.0</ele><time>2026-04-11T09:34:47.959Z</time></trkpt><trkpt lat="43.9119217" lon="12.3041967"><ele>231.0</ele><time>2026-04-11T09:34:48.959Z</time></trkpt><trkpt lat="43.9120383" lon="12.3042033"><ele>231.0</ele><time>2026-04-11T09:34:49.959Z</time></trkpt><trkpt lat="43.9121583" lon="12.30421"><ele>231.0</ele><time>2026-04-11T09:34:50.959Z</time></trkpt><trkpt lat="43.9122817" lon="12.30422"><ele>231.0</ele><time>2026-04-11T09:34:51.959Z</time></trkpt><trkpt lat="43.9124017" lon="12.3042417"><ele>231.0</ele><time>2026-04-11T09:34:52.959Z</time></trkpt><trkpt lat="43.9125233" lon="12.30428"><ele>230.25</ele><time>2026-04-11T09:34:53.959Z</time></trkpt><trkpt lat="43.9126433" lon="12.304335"><ele>229.5</ele><time>2026-04-11T09:34:54.959Z</time></trkpt><trkpt lat="43.9127733" lon="12.3044"><ele>228.75</ele><time>2026-04-11T09:34:55.959Z</time></trkpt><trkpt lat="43.9129117" lon="12.304465"><ele>228.0</ele><time>2026-04-11T09:34:56.959Z</time></trkpt><trkpt lat="43.9130433" lon="12.30454"><ele>228.0</ele><time>2026-04-11T09:34:57.959Z</time></trkpt><trkpt lat="43.9131733" lon="12.30461"><ele>228.0</ele><time>2026-04-11T09:34:58.959Z</time></trkpt><trkpt lat="43.9133083" lon="12.304685"><ele>228.0</ele><time>2026-04-11T09:34:59.959Z</time></trkpt><trkpt lat="43.913445" lon="12.304765"><ele>228.0</ele><time>2026-04-11T09:35:00.96Z</time></trkpt><trkpt lat="43.91359" lon="12.30484"><ele>229.0</ele><time>2026-04-11T09:35:01.96Z</time></trkpt><trkpt lat="43.91373" lon="12.3049183"><ele>230.0</ele><time>2026-04-11T09:35:02.96Z</time></trkpt><trkpt lat="43.9138733" lon="12.304995"><ele>231.0</ele><time>2026-04-11T09:35:03.959Z</time></trkpt><trkpt lat="43.9140183" lon="12.3050717"><ele>231.0</ele><time>2026-04-11T09:35:04.959Z</time></trkpt><trkpt lat="43.9141583" lon="12.3051517"><ele>231.0</ele><time>2026-04-11T09:35:05.959Z</time></trkpt><trkpt lat="43.9143117" lon="12.3052233"><ele>231.0</ele><time>2026-04-11T09:35:06.959Z</time></trkpt><trkpt lat="43.9144517" lon="12.3053067"><ele>231.25</ele><time>2026-04-11T09:35:07.959Z</time></trkpt><trkpt lat="43.9145917" lon="12.30538"><ele>231.5</ele><time>2026-04-11T09:35:08.959Z</time></trkpt><trkpt lat="43.914735" lon="12.3054567"><ele>231.75</ele><time>2026-04-11T09:35:09.959Z</time></trkpt><trkpt lat="43.914865" lon="12.30553"><ele>232.0</ele><time>2026-04-11T09:35:10.959Z</time></trkpt><trkpt lat="43.9150083" lon="12.3055917"><ele>232.0</ele><time>2026-04-11T09:35:11.959Z</time></trkpt><trkpt lat="43.915145" lon="12.305665"><ele>232.0</ele><time>2026-04-11T09:35:12.96Z</time></trkpt><trkpt lat="43.915275" lon="12.30574"><ele>232.0</ele><time>2026-04-11T09:35:13.959Z</time></trkpt><trkpt lat="43.9154133" lon="12.3058033"><ele>232.0</ele><time>2026-04-11T09:35:14.959Z</time></trkpt><trkpt lat="43.9155733" lon="12.3058533"><ele>232.0</ele><time>2026-04-11T09:35:15.959Z</time></trkpt><trkpt lat="43.9157083" lon="12.3059"><ele>232.0</ele><time>2026-04-11T09:35:16.959Z</time></trkpt><trkpt lat="43.91584" lon="12.30596"><ele>232.0</ele><time>2026-04-11T09:35:17.959Z</time></trkpt><trkpt lat="43.915975" lon="12.3060117"><ele>232.0</ele><time>2026-04-11T09:35:18.959Z</time></trkpt><trkpt lat="43.9161" lon="12.3060533"><ele>232.5</ele><time>2026-04-11T09:35:19.959Z</time></trkpt><trkpt lat="43.9162217" lon="12.306095"><ele>233.0</ele><time>2026-04-11T09:35:20.959Z</time></trkpt><trkpt lat="43.91634" lon="12.306135"><ele>233.5</ele><time>2026-04-11T09:35:21.959Z</time></trkpt><trkpt lat="43.916455" lon="12.3061967"><ele>234.0</ele><time>2026-04-11T09:35:22.959Z</time></trkpt><trkpt lat="43.916565" lon="12.306275"><ele>234.0</ele><time>2026-04-11T09:35:23.96Z</time></trkpt><trkpt lat="43.9166717" lon="12.306365"><ele>234.0</ele><time>2026-04-11T09:35:24.959Z</time></trkpt><trkpt lat="43.91678" lon="12.3064783"><ele>234.0</ele><time>2026-04-11T09:35:25.959Z</time></trkpt><trkpt lat="43.9168867" lon="12.3066167"><ele>234.0</ele><time>2026-04-11T09:35:26.959Z</time></trkpt><trkpt lat="43.916995" lon="12.3067633"><ele>232.66666666666669</ele><time>2026-04-11T09:35:27.959Z</time></trkpt><trkpt lat="43.9171017" lon="12.3069133"><ele>231.33333333333334</ele><time>2026-04-11T09:35:28.959Z</time></trkpt><trkpt lat="43.91721" lon="12.30707"><ele>230.0</ele><time>2026-04-11T09:35:29.959Z</time></trkpt><trkpt lat="43.917325" lon="12.307225"><ele>229.66666666666669</ele><time>2026-04-11T09:35:30.959Z</time></trkpt><trkpt lat="43.917435" lon="12.3073817"><ele>229.33333333333331</ele><time>2026-04-11T09:35:31.96Z</time></trkpt><trkpt lat="43.917545" lon="12.30754"><ele>229.0</ele><time>2026-04-11T09:35:32.96Z</time></trkpt><trkpt lat="43.9176517" lon="12.307695"><ele>229.0</ele><time>2026-04-11T09:35:33.96Z</time></trkpt><trkpt lat="43.9177683" lon="12.3078567"><ele>229.0</ele><time>2026-04-11T09:35:34.96Z</time></trkpt><trkpt lat="43.9178867" lon="12.3080317"><ele>229.0</ele><time>2026-04-11T09:35:35.959Z</time></trkpt><trkpt lat="43.9180283" lon="12.3082067"><ele>228.33333333333331</ele><time>2026-04-11T09:35:36.959Z</time></trkpt><trkpt lat="43.9181783" lon="12.3083983"><ele>227.66666666666669</ele><time>2026-04-11T09:35:37.959Z</time></trkpt><trkpt lat="43.9183233" lon="12.3086"><ele>227.0</ele><time>2026-04-11T09:35:38.959Z</time></trkpt><trkpt lat="43.9184683" lon="12.3088083"><ele>226.0</ele><time>2026-04-11T09:35:39.959Z</time></trkpt><trkpt lat="43.918615" lon="12.309025"><ele>225.0</ele><time>2026-04-11T09:35:40.959Z</time></trkpt><trkpt lat="43.9187667" lon="12.30924"><ele>224.0</ele><time>2026-04-11T09:35:41.959Z</time></trkpt><trkpt lat="43.9189133" lon="12.3094567"><ele>224.0</ele><time>2026-04-11T09:35:42.959Z</time></trkpt><trkpt lat="43.9190417" lon="12.3096767"><ele>224.0</ele><time>2026-04-11T09:35:43.959Z</time></trkpt><trkpt lat="43.91918" lon="12.3098883"><ele>224.0</ele><time>2026-04-11T09:35:44.959Z</time></trkpt><trkpt lat="43.9193233" lon="12.310085"><ele>224.0</ele><time>2026-04-11T09:35:45.959Z</time></trkpt><trkpt lat="43.919475" lon="12.31029"><ele>224.0</ele><time>2026-04-11T09:35:46.959Z</time></trkpt><trkpt lat="43.9196167" lon="12.3104933"><ele>224.0</ele><time>2026-04-11T09:35:47.959Z</time></trkpt><trkpt lat="43.9197417" lon="12.310715"><ele>222.0</ele><time>2026-04-11T09:35:48.959Z</time></trkpt><trkpt lat="43.919845" lon="12.3109367"><ele>220.0</ele><time>2026-04-11T09:35:49.96Z</time></trkpt><trkpt lat="43.9199333" lon="12.31117"><ele>218.0</ele><time>2026-04-11T09:35:50.959Z</time></trkpt><trkpt lat="43.92001" lon="12.3114"><ele>217.66666666666669</ele><time>2026-04-11T09:35:51.959Z</time></trkpt><trkpt lat="43.920105" lon="12.311595"><ele>217.33333333333331</ele><time>2026-04-11T09:35:52.959Z</time></trkpt><trkpt lat="43.92023" lon="12.3117583"><ele>217.0</ele><time>2026-04-11T09:35:53.959Z</time></trkpt><trkpt lat="43.920365" lon="12.3119117"><ele>217.0</ele><time>2026-04-11T09:35:54.959Z</time></trkpt><trkpt lat="43.9205083" lon="12.3120517"><ele>217.0</ele><time>2026-04-11T09:35:55.96Z</time></trkpt><trkpt lat="43.920655" lon="12.3121817"><ele>217.0</ele><time>2026-04-11T09:35:56.96Z</time></trkpt><trkpt lat="43.9208" lon="12.3123183"><ele>214.0</ele><time>2026-04-11T09:35:57.959Z</time></trkpt><trkpt lat="43.9209517" lon="12.31244"><ele>211.0</ele><time>2026-04-11T09:35:58.959Z</time></trkpt><trkpt lat="43.9210867" lon="12.3125833"><ele>208.0</ele><time>2026-04-11T09:35:59.959Z</time></trkpt><trkpt lat="43.9212267" lon="12.3127183"><ele>208.0</ele><time>2026-04-11T09:36:00.959Z</time></trkpt><trkpt lat="43.9213633" lon="12.3128417"><ele>208.0</ele><time>2026-04-11T09:36:01.959Z</time></trkpt><trkpt lat="43.9214983" lon="12.3129783"><ele>208.0</ele><time>2026-04-11T09:36:02.959Z</time></trkpt><trkpt lat="43.9216433" lon="12.3131083"><ele>209.66666666666666</ele><time>2026-04-11T09:36:03.959Z</time></trkpt><trkpt lat="43.9217867" lon="12.3132517"><ele>211.33333333333331</ele><time>2026-04-11T09:36:04.959Z</time></trkpt><trkpt lat="43.9219183" lon="12.3134083"><ele>213.0</ele><time>2026-04-11T09:36:05.959Z</time></trkpt><trkpt lat="43.9220367" lon="12.3136033"><ele>213.0</ele><time>2026-04-11T09:36:06.959Z</time></trkpt><trkpt lat="43.922145" lon="12.3137933"><ele>213.0</ele><time>2026-04-11T09:36:07.959Z</time></trkpt><trkpt lat="43.922265" lon="12.3139867"><ele>213.0</ele><time>2026-04-11T09:36:08.959Z</time></trkpt><trkpt lat="43.9223917" lon="12.314175"><ele>212.66666666666669</ele><time>2026-04-11T09:36:09.959Z</time></trkpt><trkpt lat="43.9225117" lon="12.3143633"><ele>212.33333333333334</ele><time>2026-04-11T09:36:10.959Z</time></trkpt><trkpt lat="43.9226283" lon="12.3145517"><ele>212.0</ele><time>2026-04-11T09:36:11.959Z</time></trkpt><trkpt lat="43.9227317" lon="12.3147417"><ele>213.66666666666669</ele><time>2026-04-11T09:36:12.959Z</time></trkpt><trkpt lat="43.9228317" lon="12.3149267"><ele>215.33333333333331</ele><time>2026-04-11T09:36:13.959Z</time></trkpt><trkpt lat="43.9229183" lon="12.3151267"><ele>217.0</ele><time>2026-04-11T09:36:14.959Z</time></trkpt><trkpt lat="43.9229933" lon="12.315335"><ele>217.0</ele><time>2026-04-11T09:36:15.959Z</time></trkpt><trkpt lat="43.9230617" lon="12.3155617"><ele>217.0</ele><time>2026-04-11T09:36:16.959Z</time></trkpt><trkpt lat="43.9231267" lon="12.315775"><ele>217.0</ele><time>2026-04-11T09:36:17.959Z</time></trkpt><trkpt lat="43.9231883" lon="12.3159833"><ele>217.0</ele><time>2026-04-11T09:36:18.959Z</time></trkpt><trkpt lat="43.9232667" lon="12.3161733"><ele>217.0</ele><time>2026-04-11T09:36:19.959Z</time></trkpt><trkpt lat="43.9233567" lon="12.31634"><ele>217.0</ele><time>2026-04-11T09:36:20.959Z</time></trkpt><trkpt lat="43.9234633" lon="12.3164933"><ele>215.66666666666666</ele><time>2026-04-11T09:36:21.959Z</time></trkpt><trkpt lat="43.92357" lon="12.3166317"><ele>214.33333333333331</ele><time>2026-04-11T09:36:22.959Z</time></trkpt><trkpt lat="43.9236817" lon="12.31678"><ele>213.0</ele><time>2026-04-11T09:36:23.959Z</time></trkpt><trkpt lat="43.9237917" lon="12.3169317"><ele>213.0</ele><time>2026-04-11T09:36:24.959Z</time></trkpt><trkpt lat="43.9239067" lon="12.31708"><ele>213.0</ele><time>2026-04-11T09:36:25.959Z</time></trkpt><trkpt lat="43.9240067" lon="12.3172317"><ele>213.0</ele><time>2026-04-11T09:36:26.959Z</time></trkpt><trkpt lat="43.9241167" lon="12.31737"><ele>213.66666666666669</ele><time>2026-04-11T09:36:27.959Z</time></trkpt><trkpt lat="43.9242483" lon="12.3174967"><ele>214.33333333333334</ele><time>2026-04-11T09:36:28.96Z</time></trkpt><trkpt lat="43.9243567" lon="12.3176433"><ele>215.0</ele><time>2026-04-11T09:36:29.959Z</time></trkpt><trkpt lat="43.9244717" lon="12.317775"><ele>215.0</ele><time>2026-04-11T09:36:30.959Z</time></trkpt><trkpt lat="43.9246083" lon="12.3178833"><ele>215.0</ele><time>2026-04-11T09:36:31.959Z</time></trkpt><trkpt lat="43.9247517" lon="12.3179683"><ele>215.0</ele><time>2026-04-11T09:36:32.959Z</time></trkpt><trkpt lat="43.924915" lon="12.3180283"><ele>214.0</ele><time>2026-04-11T09:36:33.958Z</time></trkpt><trkpt lat="43.925085" lon="12.31809"><ele>213.0</ele><time>2026-04-11T09:36:34.958Z</time></trkpt><trkpt lat="43.92525" lon="12.3181667"><ele>212.0</ele><time>2026-04-11T09:36:35.958Z</time></trkpt><trkpt lat="43.9254017" lon="12.3182683"><ele>212.0</ele><time>2026-04-11T09:36:36.958Z</time></trkpt><trkpt lat="43.9255333" lon="12.3184117"><ele>212.0</ele><time>2026-04-11T09:36:37.958Z</time></trkpt><trkpt lat="43.9256533" lon="12.318575"><ele>212.0</ele><time>2026-04-11T09:36:38.958Z</time></trkpt><trkpt lat="43.9257517" lon="12.318765"><ele>211.66666666666669</ele><time>2026-04-11T09:36:39.958Z</time></trkpt><trkpt lat="43.92585" lon="12.31896"><ele>211.33333333333331</ele><time>2026-04-11T09:36:40.958Z</time></trkpt><trkpt lat="43.9259567" lon="12.3191483"><ele>211.0</ele><time>2026-04-11T09:36:41.958Z</time></trkpt><trkpt lat="43.9260567" lon="12.3193367"><ele>211.0</ele><time>2026-04-11T09:36:42.958Z</time></trkpt><trkpt lat="43.92615" lon="12.319525"><ele>211.0</ele><time>2026-04-11T09:36:43.958Z</time></trkpt><trkpt lat="43.9262517" lon="12.319705"><ele>211.0</ele><time>2026-04-11T09:36:44.958Z</time></trkpt><trkpt lat="43.9263483" lon="12.319885"><ele>211.0</ele><time>2026-04-11T09:36:45.958Z</time></trkpt><trkpt lat="43.9264533" lon="12.320065"><ele>211.0</ele><time>2026-04-11T09:36:46.959Z</time></trkpt><trkpt lat="43.9265417" lon="12.3202433"><ele>211.0</ele><time>2026-04-11T09:36:47.958Z</time></trkpt><trkpt lat="43.926645" lon="12.3203983"><ele>211.5</ele><time>2026-04-11T09:36:48.959Z</time></trkpt><trkpt lat="43.9267417" lon="12.32055"><ele>212.0</ele><time>2026-04-11T09:36:49.958Z</time></trkpt><trkpt lat="43.9268233" lon="12.320705"><ele>212.5</ele><time>2026-04-11T09:36:50.958Z</time></trkpt><trkpt lat="43.9269183" lon="12.32085"><ele>213.0</ele><time>2026-04-11T09:36:51.958Z</time></trkpt><trkpt lat="43.9269967" lon="12.3210033"><ele>211.75</ele><time>2026-04-11T09:36:52.959Z</time></trkpt><trkpt lat="43.9270783" lon="12.3211517"><ele>210.5</ele><time>2026-04-11T09:36:53.958Z</time></trkpt><trkpt lat="43.9271633" lon="12.3213"><ele>209.25</ele><time>2026-04-11T09:36:54.958Z</time></trkpt><trkpt lat="43.927255" lon="12.3214517"><ele>208.0</ele><time>2026-04-11T09:36:55.958Z</time></trkpt><trkpt lat="43.9273517" lon="12.32161"><ele>207.33333333333331</ele><time>2026-04-11T09:36:56.958Z</time></trkpt><trkpt lat="43.9274533" lon="12.3217617"><ele>206.66666666666669</ele><time>2026-04-11T09:36:57.958Z</time></trkpt><trkpt lat="43.9275617" lon="12.32192"><ele>206.0</ele><time>2026-04-11T09:36:58.958Z</time></trkpt><trkpt lat="43.92767" lon="12.32208"><ele>205.33333333333334</ele><time>2026-04-11T09:36:59.958Z</time></trkpt><trkpt lat="43.9277833" lon="12.32223"><ele>204.66666666666669</ele><time>2026-04-11T09:37:00.958Z</time></trkpt><trkpt lat="43.9278983" lon="12.32238"><ele>204.0</ele><time>2026-04-11T09:37:01.958Z</time></trkpt><trkpt lat="43.9280117" lon="12.322515"><ele>204.25</ele><time>2026-04-11T09:37:02.958Z</time></trkpt><trkpt lat="43.92812" lon="12.3226383"><ele>204.5</ele><time>2026-04-11T09:37:03.958Z</time></trkpt><trkpt lat="43.9282233" lon="12.3227533"><ele>204.75</ele><time>2026-04-11T09:37:04.959Z</time></trkpt><trkpt lat="43.92832" lon="12.32286"><ele>205.0</ele><time>2026-04-11T09:37:05.958Z</time></trkpt><trkpt lat="43.928415" lon="12.3229717"><ele>204.6</ele><time>2026-04-11T09:37:06.958Z</time></trkpt><trkpt lat="43.928485" lon="12.323095"><ele>204.2</ele><time>2026-04-11T09:37:07.959Z</time></trkpt><trkpt lat="43.928535" lon="12.3232167"><ele>203.8</ele><time>2026-04-11T09:37:08.958Z</time></trkpt><trkpt lat="43.928595" lon="12.3233217"><ele>203.4</ele><time>2026-04-11T09:37:09.958Z</time></trkpt><trkpt lat="43.9286733" lon="12.3234167"><ele>203.0</ele><time>2026-04-11T09:37:10.958Z</time></trkpt><trkpt lat="43.92878" lon="12.3234867"><ele>203.0</ele><time>2026-04-11T09:37:11.958Z</time></trkpt><trkpt lat="43.9288917" lon="12.3235717"><ele>203.0</ele><time>2026-04-11T09:37:12.958Z</time></trkpt><trkpt lat="43.928995" lon="12.3236867"><ele>203.0</ele><time>2026-04-11T09:37:13.958Z</time></trkpt><trkpt lat="43.9290933" lon="12.3238067"><ele>203.0</ele><time>2026-04-11T09:37:14.958Z</time></trkpt><trkpt lat="43.9292017" lon="12.32393"><ele>202.33333333333334</ele><time>2026-04-11T09:37:15.958Z</time></trkpt><trkpt lat="43.9293183" lon="12.3240683"><ele>201.66666666666669</ele><time>2026-04-11T09:37:16.958Z</time></trkpt><trkpt lat="43.9294333" lon="12.3242183"><ele>201.0</ele><time>2026-04-11T09:37:17.958Z</time></trkpt><trkpt lat="43.9295533" lon="12.324365"><ele>201.0</ele><time>2026-04-11T09:37:18.958Z</time></trkpt><trkpt lat="43.9296817" lon="12.3245117"><ele>201.0</ele><time>2026-04-11T09:37:19.959Z</time></trkpt><trkpt lat="43.9298117" lon="12.324665"><ele>201.0</ele><time>2026-04-11T09:37:20.958Z</time></trkpt><trkpt lat="43.9299417" lon="12.324825"><ele>201.0</ele><time>2026-04-11T09:37:21.959Z</time></trkpt><trkpt lat="43.9300533" lon="12.3250067"><ele>201.0</ele><time>2026-04-11T09:37:22.958Z</time></trkpt><trkpt lat="43.93016" lon="12.3251867"><ele>201.0</ele><time>2026-04-11T09:37:23.958Z</time></trkpt><trkpt lat="43.9302717" lon="12.3253767"><ele>200.33333333333331</ele><time>2026-04-11T09:37:24.958Z</time></trkpt><trkpt lat="43.9303667" lon="12.32558"><ele>199.66666666666666</ele><time>2026-04-11T09:37:25.958Z</time></trkpt><trkpt lat="43.9304567" lon="12.325785"><ele>199.0</ele><time>2026-04-11T09:37:26.958Z</time></trkpt><trkpt lat="43.93056" lon="12.3259783"><ele>199.0</ele><time>2026-04-11T09:37:27.958Z</time></trkpt><trkpt lat="43.9306617" lon="12.32617"><ele>199.0</ele><time>2026-04-11T09:37:28.959Z</time></trkpt><trkpt lat="43.9307733" lon="12.3263583"><ele>199.0</ele><time>2026-04-11T09:37:29.958Z</time></trkpt><trkpt lat="43.9308667" lon="12.3265633"><ele>198.33333333333331</ele><time>2026-04-11T09:37:30.958Z</time></trkpt><trkpt lat="43.9309517" lon="12.3267833"><ele>197.66666666666669</ele><time>2026-04-11T09:37:31.958Z</time></trkpt><trkpt lat="43.9310083" lon="12.3270167"><ele>197.0</ele><time>2026-04-11T09:37:32.958Z</time></trkpt><trkpt lat="43.9310617" lon="12.3272583"><ele>197.0</ele><time>2026-04-11T09:37:33.958Z</time></trkpt><trkpt lat="43.9311067" lon="12.3275067"><ele>197.0</ele><time>2026-04-11T09:37:34.958Z</time></trkpt><trkpt lat="43.9311517" lon="12.327755"><ele>197.0</ele><time>2026-04-11T09:37:35.959Z</time></trkpt><trkpt lat="43.9311867" lon="12.3280067"><ele>196.33333333333334</ele><time>2026-04-11T09:37:36.958Z</time></trkpt><trkpt lat="43.9312317" lon="12.328245"><ele>195.66666666666669</ele><time>2026-04-11T09:37:37.958Z</time></trkpt><trkpt lat="43.9312717" lon="12.3284917"><ele>195.0</ele><time>2026-04-11T09:37:38.958Z</time></trkpt><trkpt lat="43.931315" lon="12.3287333"><ele>194.66666666666669</ele><time>2026-04-11T09:37:39.958Z</time></trkpt><trkpt lat="43.9313483" lon="12.3289917"><ele>194.33333333333334</ele><time>2026-04-11T09:37:40.958Z</time></trkpt><trkpt lat="43.931375" lon="12.32924"><ele>194.0</ele><time>2026-04-11T09:37:41.959Z</time></trkpt><trkpt lat="43.931415" lon="12.3294833"><ele>193.33333333333334</ele><time>2026-04-11T09:37:42.958Z</time></trkpt><trkpt lat="43.9314583" lon="12.3297267"><ele>192.66666666666669</ele><time>2026-04-11T09:37:43.958Z</time></trkpt><trkpt lat="43.9315067" lon="12.32995"><ele>192.0</ele><time>2026-04-11T09:37:44.958Z</time></trkpt><trkpt lat="43.9315383" lon="12.330165"><ele>192.0</ele><time>2026-04-11T09:37:45.958Z</time></trkpt><trkpt lat="43.9315717" lon="12.330365"><ele>192.0</ele><time>2026-04-11T09:37:46.959Z</time></trkpt><trkpt lat="43.9315917" lon="12.3305717"><ele>192.0</ele><time>2026-04-11T09:37:47.958Z</time></trkpt><trkpt lat="43.9316283" lon="12.3307667"><ele>192.0</ele><time>2026-04-11T09:37:48.958Z</time></trkpt><trkpt lat="43.9316717" lon="12.330965"><ele>190.75</ele><time>2026-04-11T09:37:49.958Z</time></trkpt><trkpt lat="43.93171" lon="12.3311617"><ele>189.5</ele><time>2026-04-11T09:37:50.958Z</time></trkpt><trkpt lat="43.9317467" lon="12.3313633"><ele>188.25</ele><time>2026-04-11T09:37:51.959Z</time></trkpt><trkpt lat="43.9317883" lon="12.3315633"><ele>187.0</ele><time>2026-04-11T09:37:52.959Z</time></trkpt><trkpt lat="43.9318483" lon="12.3317533"><ele>185.66666666666669</ele><time>2026-04-11T09:37:53.958Z</time></trkpt><trkpt lat="43.9319367" lon="12.3319317"><ele>184.33333333333334</ele><time>2026-04-11T09:37:54.958Z</time></trkpt><trkpt lat="43.9320333" lon="12.3320933"><ele>183.0</ele><time>2026-04-11T09:37:55.958Z</time></trkpt><trkpt lat="43.93214" lon="12.3322483"><ele>183.0</ele><time>2026-04-11T09:37:56.958Z</time></trkpt><trkpt lat="43.9322417" lon="12.332405"><ele>183.0</ele><time>2026-04-11T09:37:57.958Z</time></trkpt><trkpt lat="43.9323483" lon="12.3325617"><ele>183.0</ele><time>2026-04-11T09:37:58.958Z</time></trkpt><trkpt lat="43.9324667" lon="12.3327117"><ele>183.66666666666666</ele><time>2026-04-11T09:37:59.959Z</time></trkpt><trkpt lat="43.9325717" lon="12.3328783"><ele>184.33333333333331</ele><time>2026-04-11T09:38:00.958Z</time></trkpt><trkpt lat="43.9326917" lon="12.3330417"><ele>185.0</ele><time>2026-04-11T09:38:01.958Z</time></trkpt><trkpt lat="43.9328183" lon="12.3332067"><ele>185.33333333333331</ele><time>2026-04-11T09:38:02.958Z</time></trkpt><trkpt lat="43.9329467" lon="12.33337"><ele>185.66666666666666</ele><time>2026-04-11T09:38:03.958Z</time></trkpt><trkpt lat="43.9330667" lon="12.333545"><ele>186.0</ele><time>2026-04-11T09:38:04.958Z</time></trkpt><trkpt lat="43.9331817" lon="12.3337317"><ele>185.0</ele><time>2026-04-11T09:38:05.959Z</time></trkpt><trkpt lat="43.933295" lon="12.3339167"><ele>184.0</ele><time>2026-04-11T09:38:06.958Z</time></trkpt><trkpt lat="43.9334267" lon="12.3340967"><ele>183.0</ele><time>2026-04-11T09:38:07.958Z</time></trkpt><trkpt lat="43.9335617" lon="12.3342783"><ele>182.66666666666666</ele><time>2026-04-11T09:38:08.959Z</time></trkpt><trkpt lat="43.933695" lon="12.3344667"><ele>182.33333333333331</ele><time>2026-04-11T09:38:09.959Z</time></trkpt><trkpt lat="43.933825" lon="12.334655"><ele>182.0</ele><time>2026-04-11T09:38:10.958Z</time></trkpt><trkpt lat="43.9339583" lon="12.3348467"><ele>181.66666666666666</ele><time>2026-04-11T09:38:11.958Z</time></trkpt><trkpt lat="43.9340883" lon="12.33504"><ele>181.33333333333334</ele><time>2026-04-11T09:38:12.958Z</time></trkpt><trkpt lat="43.9342217" lon="12.3352333"><ele>181.0</ele><time>2026-04-11T09:38:13.959Z</time></trkpt><trkpt lat="43.93436" lon="12.335425"><ele>182.66666666666669</ele><time>2026-04-11T09:38:14.958Z</time></trkpt><trkpt lat="43.9345" lon="12.3356167"><ele>184.33333333333334</ele><time>2026-04-11T09:38:15.958Z</time></trkpt><trkpt lat="43.9346367" lon="12.3358033"><ele>186.0</ele><time>2026-04-11T09:38:16.959Z</time></trkpt><trkpt lat="43.9347733" lon="12.3359967"><ele>186.0</ele><time>2026-04-11T09:38:17.958Z</time></trkpt><trkpt lat="43.9349133" lon="12.3361883"><ele>186.0</ele><time>2026-04-11T09:38:18.958Z</time></trkpt><trkpt lat="43.935045" lon="12.3363867"><ele>186.0</ele><time>2026-04-11T09:38:19.959Z</time></trkpt><trkpt lat="43.9351633" lon="12.3365717"><ele>189.33333333333331</ele><time>2026-04-11T09:38:20.958Z</time></trkpt><trkpt lat="43.9352867" lon="12.3367533"><ele>192.66666666666666</ele><time>2026-04-11T09:38:21.959Z</time></trkpt><trkpt lat="43.9354017" lon="12.3369333"><ele>196.0</ele><time>2026-04-11T09:38:22.959Z</time></trkpt><trkpt lat="43.93551" lon="12.3371083"><ele>193.66666666666666</ele><time>2026-04-11T09:38:23.958Z</time></trkpt><trkpt lat="43.9356083" lon="12.3372883"><ele>191.33333333333331</ele><time>2026-04-11T09:38:24.958Z</time></trkpt><trkpt lat="43.935695" lon="12.3374767"><ele>189.0</ele><time>2026-04-11T09:38:25.958Z</time></trkpt><trkpt lat="43.93576" lon="12.3376817"><ele>189.0</ele><time>2026-04-11T09:38:26.958Z</time></trkpt><trkpt lat="43.9357983" lon="12.3378933"><ele>189.0</ele><time>2026-04-11T09:38:27.958Z</time></trkpt><trkpt lat="43.9358233" lon="12.3381"><ele>189.0</ele><time>2026-04-11T09:38:28.959Z</time></trkpt><trkpt lat="43.9358283" lon="12.338305"><ele>188.25</ele><time>2026-04-11T09:38:29.958Z</time></trkpt><trkpt lat="43.9358233" lon="12.3385067"><ele>187.5</ele><time>2026-04-11T09:38:30.958Z</time></trkpt><trkpt lat="43.9358033" lon="12.3387167"><ele>186.75</ele><time>2026-04-11T09:38:31.958Z</time></trkpt><trkpt lat="43.935795" lon="12.3389183"><ele>186.0</ele><time>2026-04-11T09:38:32.958Z</time></trkpt><trkpt lat="43.935775" lon="12.339135"><ele>186.0</ele><time>2026-04-11T09:38:33.958Z</time></trkpt><trkpt lat="43.9357617" lon="12.339335"><ele>186.0</ele><time>2026-04-11T09:38:34.959Z</time></trkpt><trkpt lat="43.9357617" lon="12.3395417"><ele>186.0</ele><time>2026-04-11T09:38:35.958Z</time></trkpt><trkpt lat="43.9357817" lon="12.33972"><ele>186.0</ele><time>2026-04-11T09:38:36.958Z</time></trkpt><trkpt lat="43.9358267" lon="12.3398983"><ele>186.5</ele><time>2026-04-11T09:38:37.958Z</time></trkpt><trkpt lat="43.9358683" lon="12.3400817"><ele>187.0</ele><time>2026-04-11T09:38:38.958Z</time></trkpt><trkpt lat="43.9359183" lon="12.3402867"><ele>187.5</ele><time>2026-04-11T09:38:39.958Z</time></trkpt><trkpt lat="43.93597" lon="12.340485"><ele>188.0</ele><time>2026-04-11T09:38:40.958Z</time></trkpt><trkpt lat="43.936015" lon="12.340675"><ele>189.5</ele><time>2026-04-11T09:38:41.958Z</time></trkpt><trkpt lat="43.9360567" lon="12.3408683"><ele>191.0</ele><time>2026-04-11T09:38:42.958Z</time></trkpt><trkpt lat="43.9360867" lon="12.341065"><ele>192.5</ele><time>2026-04-11T09:38:43.958Z</time></trkpt><trkpt lat="43.936125" lon="12.34124"><ele>194.0</ele><time>2026-04-11T09:38:44.959Z</time></trkpt><trkpt lat="43.93617" lon="12.3414217"><ele>194.0</ele><time>2026-04-11T09:38:45.958Z</time></trkpt><trkpt lat="43.9361967" lon="12.3415967"><ele>194.0</ele><time>2026-04-11T09:38:46.959Z</time></trkpt><trkpt lat="43.93619" lon="12.34176"><ele>194.0</ele><time>2026-04-11T09:38:47.958Z</time></trkpt><trkpt lat="43.936175" lon="12.3419167"><ele>194.0</ele><time>2026-04-11T09:38:48.958Z</time></trkpt><trkpt lat="43.9361467" lon="12.3420683"><ele>194.0</ele><time>2026-04-11T09:38:49.958Z</time></trkpt><trkpt lat="43.9361033" lon="12.34221"><ele>194.0</ele><time>2026-04-11T09:38:50.959Z</time></trkpt><trkpt lat="43.9360383" lon="12.342345"><ele>194.0</ele><time>2026-04-11T09:38:51.958Z</time></trkpt><trkpt lat="43.93597" lon="12.3424583"><ele>194.0</ele><time>2026-04-11T09:38:52.958Z</time></trkpt><trkpt lat="43.93587" lon="12.3425567"><ele>191.0</ele><time>2026-04-11T09:38:53.958Z</time></trkpt><trkpt lat="43.93576" lon="12.3426467"><ele>188.0</ele><time>2026-04-11T09:38:54.958Z</time></trkpt><trkpt lat="43.9356467" lon="12.3427167"><ele>185.0</ele><time>2026-04-11T09:38:55.959Z</time></trkpt><trkpt lat="43.935525" lon="12.342785"><ele>182.0</ele><time>2026-04-11T09:38:56.958Z</time></trkpt><trkpt lat="43.9354133" lon="12.342855"><ele>182.0</ele><time>2026-04-11T09:38:57.958Z</time></trkpt><trkpt lat="43.9353017" lon="12.3429233"><ele>182.0</ele><time>2026-04-11T09:38:58.959Z</time></trkpt><trkpt lat="43.9351933" lon="12.3429933"><ele>182.0</ele><time>2026-04-11T09:38:59.958Z</time></trkpt><trkpt lat="43.935095" lon="12.343055"><ele>182.0</ele><time>2026-04-11T09:39:00.958Z</time></trkpt><trkpt lat="43.9349983" lon="12.3431167"><ele>181.25</ele><time>2026-04-11T09:39:01.958Z</time></trkpt><trkpt lat="43.9348983" lon="12.3431867"><ele>180.5</ele><time>2026-04-11T09:39:02.958Z</time></trkpt><trkpt lat="43.934795" lon="12.3432867"><ele>179.75</ele><time>2026-04-11T09:39:03.958Z</time></trkpt><trkpt lat="43.934705" lon="12.343405"><ele>179.0</ele><time>2026-04-11T09:39:04.958Z</time></trkpt><trkpt lat="43.9346283" lon="12.3435517"><ele>179.0</ele><time>2026-04-11T09:39:05.958Z</time></trkpt><trkpt lat="43.9345633" lon="12.3437117"><ele>179.0</ele><time>2026-04-11T09:39:06.958Z</time></trkpt><trkpt lat="43.93452" lon="12.3438883"><ele>179.0</ele><time>2026-04-11T09:39:07.958Z</time></trkpt><trkpt lat="43.934485" lon="12.3440767"><ele>179.0</ele><time>2026-04-11T09:39:08.959Z</time></trkpt><trkpt lat="43.9344733" lon="12.3442717"><ele>179.0</ele><time>2026-04-11T09:39:09.958Z</time></trkpt><trkpt lat="43.9344683" lon="12.34448"><ele>179.0</ele><time>2026-04-11T09:39:10.958Z</time></trkpt><trkpt lat="43.93448" lon="12.344685"><ele>179.0</ele><time>2026-04-11T09:39:11.959Z</time></trkpt><trkpt lat="43.9345283" lon="12.344865"><ele>179.0</ele><time>2026-04-11T09:39:12.958Z</time></trkpt><trkpt lat="43.93461" lon="12.3450367"><ele>180.0</ele><time>2026-04-11T09:39:13.959Z</time></trkpt><trkpt lat="43.9346883" lon="12.345215"><ele>181.0</ele><time>2026-04-11T09:39:14.958Z</time></trkpt><trkpt lat="43.9347883" lon="12.3453767"><ele>182.0</ele><time>2026-04-11T09:39:15.958Z</time></trkpt><trkpt lat="43.9348717" lon="12.3455467"><ele>181.0</ele><time>2026-04-11T09:39:16.958Z</time></trkpt><trkpt lat="43.93495" lon="12.3457117"><ele>180.0</ele><time>2026-04-11T09:39:17.958Z</time></trkpt><trkpt lat="43.9350317" lon="12.3458767"><ele>179.0</ele><time>2026-04-11T09:39:18.959Z</time></trkpt><trkpt lat="43.9351417" lon="12.3460167"><ele>178.0</ele><time>2026-04-11T09:39:19.958Z</time></trkpt><trkpt lat="43.9352483" lon="12.3461417"><ele>178.0</ele><time>2026-04-11T09:39:20.958Z</time></trkpt><trkpt lat="43.93537" lon="12.34624"><ele>178.0</ele><time>2026-04-11T09:39:21.958Z</time></trkpt><trkpt lat="43.9355033" lon="12.3463083"><ele>178.0</ele><time>2026-04-11T09:39:22.958Z</time></trkpt><trkpt lat="43.9356483" lon="12.3463683"><ele>178.0</ele><time>2026-04-11T09:39:23.958Z</time></trkpt><trkpt lat="43.9357867" lon="12.346445"><ele>179.25</ele><time>2026-04-11T09:39:24.958Z</time></trkpt><trkpt lat="43.9359217" lon="12.3465117"><ele>180.5</ele><time>2026-04-11T09:39:25.958Z</time></trkpt><trkpt lat="43.9360633" lon="12.3465683"><ele>181.75</ele><time>2026-04-11T09:39:26.958Z</time></trkpt><trkpt lat="43.9362017" lon="12.3466333"><ele>183.0</ele><time>2026-04-11T09:39:27.959Z</time></trkpt><trkpt lat="43.936345" lon="12.3466983"><ele>183.0</ele><time>2026-04-11T09:39:28.958Z</time></trkpt><trkpt lat="43.9364883" lon="12.3467817"><ele>183.0</ele><time>2026-04-11T09:39:29.958Z</time></trkpt><trkpt lat="43.9366283" lon="12.346865"><ele>183.0</ele><time>2026-04-11T09:39:30.958Z</time></trkpt><trkpt lat="43.9367733" lon="12.3469533"><ele>183.33333333333334</ele><time>2026-04-11T09:39:31.959Z</time></trkpt><trkpt lat="43.93692" lon="12.3470217"><ele>183.66666666666669</ele><time>2026-04-11T09:39:32.958Z</time></trkpt><trkpt lat="43.93707" lon="12.3471183"><ele>184.0</ele><time>2026-04-11T09:39:33.958Z</time></trkpt><trkpt lat="43.93721" lon="12.347235"><ele>184.0</ele><time>2026-04-11T09:39:34.959Z</time></trkpt><trkpt lat="43.9373483" lon="12.34736"><ele>184.0</ele><time>2026-04-11T09:39:35.958Z</time></trkpt><trkpt lat="43.9374817" lon="12.3474917"><ele>184.0</ele><time>2026-04-11T09:39:36.958Z</time></trkpt><trkpt lat="43.9376133" lon="12.34762"><ele>180.66666666666669</ele><time>2026-04-11T09:39:37.958Z</time></trkpt><trkpt lat="43.9377467" lon="12.3477367"><ele>177.33333333333334</ele><time>2026-04-11T09:39:38.958Z</time></trkpt><trkpt lat="43.93786" lon="12.3478817"><ele>174.0</ele><time>2026-04-11T09:39:39.958Z</time></trkpt><trkpt lat="43.93798" lon="12.348035"><ele>176.66666666666666</ele><time>2026-04-11T09:39:40.958Z</time></trkpt><trkpt lat="43.9380917" lon="12.3482067"><ele>179.33333333333331</ele><time>2026-04-11T09:39:41.958Z</time></trkpt><trkpt lat="43.9381867" lon="12.348395"><ele>182.0</ele><time>2026-04-11T09:39:42.958Z</time></trkpt><trkpt lat="43.9382633" lon="12.3486067"><ele>182.0</ele><time>2026-04-11T09:39:43.959Z</time></trkpt><trkpt lat="43.9383083" lon="12.3488183"><ele>182.0</ele><time>2026-04-11T09:39:44.958Z</time></trkpt><trkpt lat="43.938335" lon="12.349045"><ele>182.0</ele><time>2026-04-11T09:39:45.958Z</time></trkpt><trkpt lat="43.938335" lon="12.3492733"><ele>182.33333333333331</ele><time>2026-04-11T09:39:46.958Z</time></trkpt><trkpt lat="43.9383183" lon="12.3495017"><ele>182.66666666666666</ele><time>2026-04-11T09:39:47.959Z</time></trkpt><trkpt lat="43.9382917" lon="12.3497167"><ele>183.0</ele><time>2026-04-11T09:39:48.958Z</time></trkpt><trkpt lat="43.93826" lon="12.3499367"><ele>181.66666666666666</ele><time>2026-04-11T09:39:49.958Z</time></trkpt><trkpt lat="43.9382367" lon="12.3501667"><ele>180.33333333333331</ele><time>2026-04-11T09:39:50.958Z</time></trkpt><trkpt lat="43.9382183" lon="12.350405"><ele>179.0</ele><time>2026-04-11T09:39:51.958Z</time></trkpt><trkpt lat="43.938195" lon="12.35063"><ele>178.0</ele><time>2026-04-11T09:39:52.959Z</time></trkpt><trkpt lat="43.93818" lon="12.35087"><ele>177.0</ele><time>2026-04-11T09:39:53.958Z</time></trkpt><trkpt lat="43.9381917" lon="12.3510867"><ele>176.0</ele><time>2026-04-11T09:39:54.959Z</time></trkpt><trkpt lat="43.93824" lon="12.3512933"><ele>177.0</ele><time>2026-04-11T09:39:55.958Z</time></trkpt><trkpt lat="43.93832" lon="12.3514867"><ele>178.0</ele><time>2026-04-11T09:39:56.958Z</time></trkpt><trkpt lat="43.9384117" lon="12.3516667"><ele>179.0</ele><time>2026-04-11T09:39:57.958Z</time></trkpt><trkpt lat="43.9385267" lon="12.3518383"><ele>176.33333333333331</ele><time>2026-04-11T09:39:58.958Z</time></trkpt><trkpt lat="43.9386567" lon="12.35202"><ele>173.66666666666666</ele><time>2026-04-11T09:39:59.958Z</time></trkpt><trkpt lat="43.938785" lon="12.3521983"><ele>171.0</ele><time>2026-04-11T09:40:00.958Z</time></trkpt><trkpt lat="43.9389083" lon="12.3523833"><ele>171.0</ele><time>2026-04-11T09:40:01.959Z</time></trkpt><trkpt lat="43.9390383" lon="12.3525483"><ele>171.0</ele><time>2026-04-11T09:40:02.958Z</time></trkpt><trkpt lat="43.9391583" lon="12.352735"><ele>171.0</ele><time>2026-04-11T09:40:03.959Z</time></trkpt><trkpt lat="43.9392767" lon="12.3529267"><ele>169.33333333333334</ele><time>2026-04-11T09:40:04.958Z</time></trkpt><trkpt lat="43.939405" lon="12.3531117"><ele>167.66666666666669</ele><time>2026-04-11T09:40:05.958Z</time></trkpt><trkpt lat="43.939545" lon="12.3532967"><ele>166.0</ele><time>2026-04-11T09:40:06.958Z</time></trkpt><trkpt lat="43.93971" lon="12.353475"><ele>166.0</ele><time>2026-04-11T09:40:07.958Z</time></trkpt><trkpt lat="43.9398767" lon="12.3536433"><ele>166.0</ele><time>2026-04-11T09:40:08.958Z</time></trkpt><trkpt lat="43.9400533" lon="12.3537983"><ele>166.0</ele><time>2026-04-11T09:40:09.958Z</time></trkpt><trkpt lat="43.9402367" lon="12.353965"><ele>165.0</ele><time>2026-04-11T09:40:10.958Z</time></trkpt><trkpt lat="43.9404267" lon="12.3541233"><ele>164.0</ele><time>2026-04-11T09:40:11.958Z</time></trkpt><trkpt lat="43.940605" lon="12.354295"><ele>163.0</ele><time>2026-04-11T09:40:12.959Z</time></trkpt><trkpt lat="43.940785" lon="12.3544683"><ele>163.0</ele><time>2026-04-11T09:40:13.958Z</time></trkpt><trkpt lat="43.9409583" lon="12.3546267"><ele>163.0</ele><time>2026-04-11T09:40:14.959Z</time></trkpt><trkpt lat="43.9411267" lon="12.354785"><ele>163.0</ele><time>2026-04-11T09:40:15.958Z</time></trkpt><trkpt lat="43.94129" lon="12.3549383"><ele>163.0</ele><time>2026-04-11T09:40:16.958Z</time></trkpt><trkpt lat="43.94146" lon="12.355085"><ele>163.0</ele><time>2026-04-11T09:40:17.958Z</time></trkpt><trkpt lat="43.9416267" lon="12.3552317"><ele>163.0</ele><time>2026-04-11T09:40:18.958Z</time></trkpt><trkpt lat="43.941795" lon="12.3553633"><ele>162.33333333333334</ele><time>2026-04-11T09:40:19.959Z</time></trkpt><trkpt lat="43.9419517" lon="12.3555017"><ele>161.66666666666666</ele><time>2026-04-11T09:40:20.958Z</time></trkpt><trkpt lat="43.942105" lon="12.3556333"><ele>161.0</ele><time>2026-04-11T09:40:21.958Z</time></trkpt><trkpt lat="43.942255" lon="12.3557767"><ele>161.0</ele><time>2026-04-11T09:40:22.959Z</time></trkpt><trkpt lat="43.9424033" lon="12.3559217"><ele>161.0</ele><time>2026-04-11T09:40:23.958Z</time></trkpt><trkpt lat="43.94256" lon="12.356055"><ele>161.0</ele><time>2026-04-11T09:40:24.958Z</time></trkpt><trkpt lat="43.9427283" lon="12.3561883"><ele>161.0</ele><time>2026-04-11T09:40:25.958Z</time></trkpt><trkpt lat="43.9428867" lon="12.3563267"><ele>161.0</ele><time>2026-04-11T09:40:26.958Z</time></trkpt><trkpt lat="43.9430433" lon="12.3564783"><ele>161.0</ele><time>2026-04-11T09:40:27.958Z</time></trkpt><trkpt lat="43.9431917" lon="12.3566483"><ele>161.0</ele><time>2026-04-11T09:40:28.958Z</time></trkpt><trkpt lat="43.94333" lon="12.3568317"><ele>161.0</ele><time>2026-04-11T09:40:29.958Z</time></trkpt><trkpt lat="43.9434683" lon="12.3570217"><ele>161.0</ele><time>2026-04-11T09:40:30.958Z</time></trkpt><trkpt lat="43.9436133" lon="12.3572183"><ele>160.66666666666666</ele><time>2026-04-11T09:40:31.958Z</time></trkpt><trkpt lat="43.94375" lon="12.3574283"><ele>160.33333333333334</ele><time>2026-04-11T09:40:32.958Z</time></trkpt><trkpt lat="43.943875" lon="12.3576417"><ele>160.0</ele><time>2026-04-11T09:40:33.959Z</time></trkpt><trkpt lat="43.9439967" lon="12.35786"><ele>160.66666666666669</ele><time>2026-04-11T09:40:34.958Z</time></trkpt><trkpt lat="43.9441283" lon="12.3580633"><ele>161.33333333333334</ele><time>2026-04-11T09:40:35.958Z</time></trkpt><trkpt lat="43.9442517" lon="12.35827"><ele>162.0</ele><time>2026-04-11T09:40:36.958Z</time></trkpt><trkpt lat="43.944385" lon="12.3584683"><ele>161.33333333333334</ele><time>2026-04-11T09:40:37.958Z</time></trkpt><trkpt lat="43.9445117" lon="12.35867"><ele>160.66666666666669</ele><time>2026-04-11T09:40:38.958Z</time></trkpt><trkpt lat="43.944635" lon="12.35888"><ele>160.0</ele><time>2026-04-11T09:40:39.958Z</time></trkpt><trkpt lat="43.9447567" lon="12.3590817"><ele>160.0</ele><time>2026-04-11T09:40:40.958Z</time></trkpt><trkpt lat="43.9448617" lon="12.3592933"><ele>160.0</ele><time>2026-04-11T09:40:41.958Z</time></trkpt><trkpt lat="43.94499" lon="12.3595"><ele>160.0</ele><time>2026-04-11T09:40:42.958Z</time></trkpt><trkpt lat="43.94512" lon="12.3596967"><ele>160.0</ele><time>2026-04-11T09:40:43.958Z</time></trkpt><trkpt lat="43.9452433" lon="12.3598933"><ele>160.0</ele><time>2026-04-11T09:40:44.958Z</time></trkpt><trkpt lat="43.9453817" lon="12.3600683"><ele>160.0</ele><time>2026-04-11T09:40:45.958Z</time></trkpt><trkpt lat="43.9455067" lon="12.360255"><ele>160.0</ele><time>2026-04-11T09:40:46.959Z</time></trkpt><trkpt lat="43.9456483" lon="12.3604117"><ele>160.0</ele><time>2026-04-11T09:40:47.959Z</time></trkpt><trkpt lat="43.9458033" lon="12.3605583"><ele>160.0</ele><time>2026-04-11T09:40:48.958Z</time></trkpt><trkpt lat="43.945955" lon="12.3606717"><ele>160.25</ele><time>2026-04-11T09:40:49.958Z</time></trkpt><trkpt lat="43.9460983" lon="12.36077"><ele>160.5</ele><time>2026-04-11T09:40:50.958Z</time></trkpt><trkpt lat="43.94623" lon="12.3608583"><ele>160.75</ele><time>2026-04-11T09:40:51.958Z</time></trkpt><trkpt lat="43.9463417" lon="12.3609417"><ele>161.0</ele><time>2026-04-11T09:40:52.959Z</time></trkpt><trkpt lat="43.9464467" lon="12.3610267"><ele>161.0</ele><time>2026-04-11T09:40:53.958Z</time></trkpt><trkpt lat="43.94654" lon="12.3611033"><ele>161.0</ele><time>2026-04-11T09:40:54.958Z</time></trkpt><trkpt lat="43.9466283" lon="12.3611733"><ele>161.0</ele><time>2026-04-11T09:40:55.958Z</time></trkpt><trkpt lat="43.9467183" lon="12.3612517"><ele>161.0</ele><time>2026-04-11T09:40:56.958Z</time></trkpt><trkpt lat="43.9468033" lon="12.3613283"><ele>161.0</ele><time>2026-04-11T09:40:57.958Z</time></trkpt><trkpt lat="43.946885" lon="12.3614033"><ele>161.4</ele><time>2026-04-11T09:40:58.958Z</time></trkpt><trkpt lat="43.946965" lon="12.36149"><ele>161.8</ele><time>2026-04-11T09:40:59.957Z</time></trkpt><trkpt lat="43.9470483" lon="12.36157"><ele>162.20000000000002</ele><time>2026-04-11T09:41:00.958Z</time></trkpt><trkpt lat="43.9471383" lon="12.3616583"><ele>162.60000000000002</ele><time>2026-04-11T09:41:01.958Z</time></trkpt><trkpt lat="43.9472233" lon="12.3617467"><ele>163.0</ele><time>2026-04-11T09:41:02.958Z</time></trkpt><trkpt lat="43.9473133" lon="12.3618367"><ele>163.0</ele><time>2026-04-11T09:41:03.958Z</time></trkpt><trkpt lat="43.9473983" lon="12.361935"><ele>163.0</ele><time>2026-04-11T09:41:04.958Z</time></trkpt><trkpt lat="43.9474883" lon="12.36203"><ele>163.0</ele><time>2026-04-11T09:41:05.957Z</time></trkpt><trkpt lat="43.9475867" lon="12.3621417"><ele>163.0</ele><time>2026-04-11T09:41:06.957Z</time></trkpt><trkpt lat="43.947695" lon="12.3622633"><ele>163.0</ele><time>2026-04-11T09:41:07.958Z</time></trkpt><trkpt lat="43.947805" lon="12.3623833"><ele>163.0</ele><time>2026-04-11T09:41:08.957Z</time></trkpt><trkpt lat="43.9479183" lon="12.3625333"><ele>163.0</ele><time>2026-04-11T09:41:09.957Z</time></trkpt><trkpt lat="43.9480233" lon="12.362685"><ele>163.0</ele><time>2026-04-11T09:41:10.957Z</time></trkpt><trkpt lat="43.9481267" lon="12.3628433"><ele>163.0</ele><time>2026-04-11T09:41:11.957Z</time></trkpt><trkpt lat="43.9482267" lon="12.363025"><ele>163.0</ele><time>2026-04-11T09:41:12.957Z</time></trkpt><trkpt lat="43.94832" lon="12.3632033"><ele>163.0</ele><time>2026-04-11T09:41:13.957Z</time></trkpt><trkpt lat="43.948395" lon="12.3633983"><ele>162.33333333333334</ele><time>2026-04-11T09:41:14.957Z</time></trkpt><trkpt lat="43.9484667" lon="12.3635883"><ele>161.66666666666666</ele><time>2026-04-11T09:41:15.957Z</time></trkpt><trkpt lat="43.948535" lon="12.3637733"><ele>161.0</ele><time>2026-04-11T09:41:16.957Z</time></trkpt><trkpt lat="43.9485967" lon="12.3639583"><ele>161.0</ele><time>2026-04-11T09:41:17.957Z</time></trkpt><trkpt lat="43.9486717" lon="12.36415"><ele>161.0</ele><time>2026-04-11T09:41:18.957Z</time></trkpt><trkpt lat="43.948745" lon="12.36434"><ele>161.0</ele><time>2026-04-11T09:41:19.957Z</time></trkpt><trkpt lat="43.9488167" lon="12.36453"><ele>163.0</ele><time>2026-04-11T09:41:20.957Z</time></trkpt><trkpt lat="43.9488883" lon="12.3647133"><ele>165.0</ele><time>2026-04-11T09:41:21.958Z</time></trkpt><trkpt lat="43.948965" lon="12.3648983"><ele>167.0</ele><time>2026-04-11T09:41:22.957Z</time></trkpt><trkpt lat="43.9490467" lon="12.3650717"><ele>167.0</ele><time>2026-04-11T09:41:23.957Z</time></trkpt><trkpt lat="43.9491367" lon="12.365235"><ele>167.0</ele><time>2026-04-11T09:41:24.957Z</time></trkpt><trkpt lat="43.9492283" lon="12.3653917"><ele>167.0</ele><time>2026-04-11T09:41:25.957Z</time></trkpt><trkpt lat="43.94933" lon="12.3655483"><ele>167.0</ele><time>2026-04-11T09:41:26.957Z</time></trkpt><trkpt lat="43.9494467" lon="12.3657017"><ele>167.0</ele><time>2026-04-11T09:41:27.958Z</time></trkpt><trkpt lat="43.9495633" lon="12.3658417"><ele>167.0</ele><time>2026-04-11T09:41:28.957Z</time></trkpt><trkpt lat="43.94968" lon="12.36598"><ele>167.0</ele><time>2026-04-11T09:41:29.957Z</time></trkpt><trkpt lat="43.9498017" lon="12.366115"><ele>167.0</ele><time>2026-04-11T09:41:30.957Z</time></trkpt><trkpt lat="43.94993" lon="12.3662467"><ele>167.0</ele><time>2026-04-11T09:41:31.957Z</time></trkpt><trkpt lat="43.9500517" lon="12.3663833"><ele>167.0</ele><time>2026-04-11T09:41:32.957Z</time></trkpt><trkpt lat="43.9501833" lon="12.3665217"><ele>163.66666666666666</ele><time>2026-04-11T09:41:33.957Z</time></trkpt><trkpt lat="43.9503017" lon="12.3666683"><ele>160.33333333333334</ele><time>2026-04-11T09:41:34.957Z</time></trkpt><trkpt lat="43.95042" lon="12.3668117"><ele>157.0</ele><time>2026-04-11T09:41:35.957Z</time></trkpt><trkpt lat="43.950545" lon="12.3669483"><ele>157.0</ele><time>2026-04-11T09:41:36.958Z</time></trkpt><trkpt lat="43.9506817" lon="12.36709"><ele>157.0</ele><time>2026-04-11T09:41:37.958Z</time></trkpt><trkpt lat="43.9508067" lon="12.36724"><ele>157.0</ele><time>2026-04-11T09:41:38.957Z</time></trkpt><trkpt lat="43.9509367" lon="12.367385"><ele>158.0</ele><time>2026-04-11T09:41:39.957Z</time></trkpt><trkpt lat="43.9510667" lon="12.3675367"><ele>159.0</ele><time>2026-04-11T09:41:40.957Z</time></trkpt><trkpt lat="43.951205" lon="12.3676767"><ele>160.0</ele><time>2026-04-11T09:41:41.957Z</time></trkpt><trkpt lat="43.95135" lon="12.3678183"><ele>160.0</ele><time>2026-04-11T09:41:42.957Z</time></trkpt><trkpt lat="43.9514817" lon="12.3679733"><ele>160.0</ele><time>2026-04-11T09:41:43.957Z</time></trkpt><trkpt lat="43.95161" lon="12.3681383"><ele>160.0</ele><time>2026-04-11T09:41:44.957Z</time></trkpt><trkpt lat="43.9517317" lon="12.3683017"><ele>161.66666666666669</ele><time>2026-04-11T09:41:45.957Z</time></trkpt><trkpt lat="43.9518433" lon="12.3684633"><ele>163.33333333333334</ele><time>2026-04-11T09:41:46.957Z</time></trkpt><trkpt lat="43.95195" lon="12.368645"><ele>165.0</ele><time>2026-04-11T09:41:47.957Z</time></trkpt><trkpt lat="43.9520467" lon="12.3688283"><ele>165.66666666666666</ele><time>2026-04-11T09:41:48.957Z</time></trkpt><trkpt lat="43.952135" lon="12.3690117"><ele>166.33333333333331</ele><time>2026-04-11T09:41:49.957Z</time></trkpt><trkpt lat="43.95221" lon="12.36921"><ele>167.0</ele><time>2026-04-11T09:41:50.957Z</time></trkpt><trkpt lat="43.9522983" lon="12.3693967"><ele>167.0</ele><time>2026-04-11T09:41:51.957Z</time></trkpt><trkpt lat="43.9523783" lon="12.369575"><ele>167.0</ele><time>2026-04-11T09:41:52.957Z</time></trkpt><trkpt lat="43.95244" lon="12.3697367"><ele>167.0</ele><time>2026-04-11T09:41:53.957Z</time></trkpt><trkpt lat="43.9524967" lon="12.369895"><ele>167.0</ele><time>2026-04-11T09:41:54.957Z</time></trkpt><trkpt lat="43.9525533" lon="12.3700633"><ele>166.25</ele><time>2026-04-11T09:41:55.957Z</time></trkpt><trkpt lat="43.952605" lon="12.37024"><ele>165.5</ele><time>2026-04-11T09:41:56.957Z</time></trkpt><trkpt lat="43.952665" lon="12.37043"><ele>164.75</ele><time>2026-04-11T09:41:57.958Z</time></trkpt><trkpt lat="43.9527183" lon="12.370615"><ele>164.0</ele><time>2026-04-11T09:41:58.957Z</time></trkpt><trkpt lat="43.95277" lon="12.3708117"><ele>164.0</ele><time>2026-04-11T09:41:59.957Z</time></trkpt><trkpt lat="43.952825" lon="12.3710017"><ele>164.0</ele><time>2026-04-11T09:42:00.958Z</time></trkpt><trkpt lat="43.95288" lon="12.37119"><ele>164.0</ele><time>2026-04-11T09:42:01.957Z</time></trkpt><trkpt lat="43.952935" lon="12.3713783"><ele>164.0</ele><time>2026-04-11T09:42:02.957Z</time></trkpt><trkpt lat="43.9529833" lon="12.3715483"><ele>164.0</ele><time>2026-04-11T09:42:03.957Z</time></trkpt><trkpt lat="43.9530333" lon="12.37172"><ele>164.0</ele><time>2026-04-11T09:42:04.957Z</time></trkpt><trkpt lat="43.9530783" lon="12.371885"><ele>164.0</ele><time>2026-04-11T09:42:05.957Z</time></trkpt><trkpt lat="43.9531217" lon="12.3720333"><ele>164.0</ele><time>2026-04-11T09:42:06.957Z</time></trkpt><trkpt lat="43.953165" lon="12.3721667"><ele>164.16666666666666</ele><time>2026-04-11T09:42:07.957Z</time></trkpt><trkpt lat="43.953205" lon="12.3722917"><ele>164.33333333333331</ele><time>2026-04-11T09:42:08.957Z</time></trkpt><trkpt lat="43.953235" lon="12.3724133"><ele>164.5</ele><time>2026-04-11T09:42:09.957Z</time></trkpt><trkpt lat="43.9532683" lon="12.3725283"><ele>164.66666666666666</ele><time>2026-04-11T09:42:10.957Z</time></trkpt><trkpt lat="43.9532917" lon="12.3726417"><ele>164.83333333333334</ele><time>2026-04-11T09:42:11.957Z</time></trkpt><trkpt lat="43.9532917" lon="12.372745"><ele>165.0</ele><time>2026-04-11T09:42:12.957Z</time></trkpt><trkpt lat="43.9532967" lon="12.372845"><ele>165.0</ele><time>2026-04-11T09:42:13.957Z</time></trkpt><trkpt lat="43.9533033" lon="12.372965"><ele>165.0</ele><time>2026-04-11T09:42:14.957Z</time></trkpt><trkpt lat="43.95333" lon="12.3730767"><ele>165.0</ele><time>2026-04-11T09:42:15.957Z</time></trkpt><trkpt lat="43.95338" lon="12.3731817"><ele>165.0</ele><time>2026-04-11T09:42:16.957Z</time></trkpt><trkpt lat="43.9534383" lon="12.3732833"><ele>165.0</ele><time>2026-04-11T09:42:17.957Z</time></trkpt><trkpt lat="43.9534983" lon="12.3733917"><ele>164.4</ele><time>2026-04-11T09:42:18.958Z</time></trkpt><trkpt lat="43.9535433" lon="12.3735233"><ele>163.8</ele><time>2026-04-11T09:42:19.957Z</time></trkpt><trkpt lat="43.95359" lon="12.3736567"><ele>163.2</ele><time>2026-04-11T09:42:20.957Z</time></trkpt><trkpt lat="43.953635" lon="12.3737967"><ele>162.6</ele><time>2026-04-11T09:42:21.958Z</time></trkpt><trkpt lat="43.95368" lon="12.373945"><ele>162.0</ele><time>2026-04-11T09:42:22.957Z</time></trkpt><trkpt lat="43.9537217" lon="12.3741117"><ele>162.0</ele><time>2026-04-11T09:42:23.958Z</time></trkpt><trkpt lat="43.9537683" lon="12.3742833"><ele>162.0</ele><time>2026-04-11T09:42:24.957Z</time></trkpt><trkpt lat="43.9538117" lon="12.3744517"><ele>162.0</ele><time>2026-04-11T09:42:25.957Z</time></trkpt><trkpt lat="43.9538617" lon="12.3746283"><ele>162.0</ele><time>2026-04-11T09:42:26.958Z</time></trkpt><trkpt lat="43.9539117" lon="12.374815"><ele>162.33333333333334</ele><time>2026-04-11T09:42:27.957Z</time></trkpt><trkpt lat="43.95397" lon="12.3750067"><ele>162.66666666666669</ele><time>2026-04-11T09:42:28.957Z</time></trkpt><trkpt lat="43.9540267" lon="12.3752033"><ele>163.0</ele><time>2026-04-11T09:42:29.957Z</time></trkpt><trkpt lat="43.9540783" lon="12.3753967"><ele>163.0</ele><time>2026-04-11T09:42:30.957Z</time></trkpt><trkpt lat="43.954135" lon="12.3755917"><ele>163.0</ele><time>2026-04-11T09:42:31.957Z</time></trkpt><trkpt lat="43.9541933" lon="12.3757833"><ele>163.0</ele><time>2026-04-11T09:42:32.957Z</time></trkpt><trkpt lat="43.95425" lon="12.3759833"><ele>161.0</ele><time>2026-04-11T09:42:33.957Z</time></trkpt><trkpt lat="43.954315" lon="12.3761833"><ele>159.0</ele><time>2026-04-11T09:42:34.957Z</time></trkpt><trkpt lat="43.95439" lon="12.376385"><ele>157.0</ele><time>2026-04-11T09:42:35.957Z</time></trkpt><trkpt lat="43.9544783" lon="12.37659"><ele>157.0</ele><time>2026-04-11T09:42:36.957Z</time></trkpt><trkpt lat="43.95457" lon="12.3768"><ele>157.0</ele><time>2026-04-11T09:42:37.957Z</time></trkpt><trkpt lat="43.9546567" lon="12.3770167"><ele>157.0</ele><time>2026-04-11T09:42:38.957Z</time></trkpt><trkpt lat="43.954745" lon="12.3772433"><ele>158.33333333333334</ele><time>2026-04-11T09:42:39.957Z</time></trkpt><trkpt lat="43.9548367" lon="12.37747"><ele>159.66666666666666</ele><time>2026-04-11T09:42:40.957Z</time></trkpt><trkpt lat="43.9549317" lon="12.3777033"><ele>161.0</ele><time>2026-04-11T09:42:41.957Z</time></trkpt><trkpt lat="43.9550217" lon="12.3779433"><ele>157.66666666666666</ele><time>2026-04-11T09:42:42.957Z</time></trkpt><trkpt lat="43.9551133" lon="12.3781817"><ele>154.33333333333334</ele><time>2026-04-11T09:42:43.957Z</time></trkpt><trkpt lat="43.95522" lon="12.3784117"><ele>151.0</ele><time>2026-04-11T09:42:44.957Z</time></trkpt><trkpt lat="43.9553083" lon="12.37865"><ele>151.66666666666669</ele><time>2026-04-11T09:42:45.957Z</time></trkpt><trkpt lat="43.9553983" lon="12.378895"><ele>152.33333333333334</ele><time>2026-04-11T09:42:46.957Z</time></trkpt><trkpt lat="43.9554883" lon="12.37913"><ele>153.0</ele><time>2026-04-11T09:42:47.957Z</time></trkpt><trkpt lat="43.95559" lon="12.379345"><ele>153.0</ele><time>2026-04-11T09:42:48.957Z</time></trkpt><trkpt lat="43.9556933" lon="12.37956"><ele>153.0</ele><time>2026-04-11T09:42:49.957Z</time></trkpt><trkpt lat="43.95578" lon="12.3797833"><ele>153.0</ele><time>2026-04-11T09:42:50.958Z</time></trkpt><trkpt lat="43.9558683" lon="12.3800083"><ele>151.0</ele><time>2026-04-11T09:42:51.957Z</time></trkpt><trkpt lat="43.955955" lon="12.3802333"><ele>149.0</ele><time>2026-04-11T09:42:52.957Z</time></trkpt><trkpt lat="43.9560383" lon="12.3804533"><ele>147.0</ele><time>2026-04-11T09:42:53.958Z</time></trkpt><trkpt lat="43.9561133" lon="12.3806883"><ele>147.0</ele><time>2026-04-11T09:42:54.957Z</time></trkpt><trkpt lat="43.9562083" lon="12.3809183"><ele>147.0</ele><time>2026-04-11T09:42:55.957Z</time></trkpt><trkpt lat="43.9563067" lon="12.3811533"><ele>147.0</ele><time>2026-04-11T09:42:56.957Z</time></trkpt><trkpt lat="43.9564" lon="12.3813867"><ele>148.66666666666666</ele><time>2026-04-11T09:42:57.957Z</time></trkpt><trkpt lat="43.9565" lon="12.3816167"><ele>150.33333333333331</ele><time>2026-04-11T09:42:58.957Z</time></trkpt><trkpt lat="43.9565983" lon="12.38185"><ele>152.0</ele><time>2026-04-11T09:42:59.957Z</time></trkpt><trkpt lat="43.9567067" lon="12.3820883"><ele>148.0</ele><time>2026-04-11T09:43:00.957Z</time></trkpt><trkpt lat="43.9568083" lon="12.3823333"><ele>144.0</ele><time>2026-04-11T09:43:01.957Z</time></trkpt><trkpt lat="43.9569067" lon="12.3825783"><ele>140.0</ele><time>2026-04-11T09:43:02.957Z</time></trkpt><trkpt lat="43.9569967" lon="12.3828183"><ele>142.33333333333331</ele><time>2026-04-11T09:43:03.958Z</time></trkpt><trkpt lat="43.9570967" lon="12.3830483"><ele>144.66666666666666</ele><time>2026-04-11T09:43:04.957Z</time></trkpt><trkpt lat="43.9572" lon="12.3832833"><ele>147.0</ele><time>2026-04-11T09:43:05.957Z</time></trkpt><trkpt lat="43.957305" lon="12.3835167"><ele>147.0</ele><time>2026-04-11T09:43:06.957Z</time></trkpt><trkpt lat="43.957405" lon="12.3837517"><ele>147.0</ele><time>2026-04-11T09:43:07.957Z</time></trkpt><trkpt lat="43.9575083" lon="12.3839867"><ele>147.0</ele><time>2026-04-11T09:43:08.957Z</time></trkpt><trkpt lat="43.9576067" lon="12.3842283"><ele>142.66666666666666</ele><time>2026-04-11T09:43:09.958Z</time></trkpt><trkpt lat="43.9576983" lon="12.3844817"><ele>138.33333333333331</ele><time>2026-04-11T09:43:10.957Z</time></trkpt><trkpt lat="43.9577683" lon="12.3847383"><ele>134.0</ele><time>2026-04-11T09:43:11.957Z</time></trkpt><trkpt lat="43.9578283" lon="12.3850067"><ele>134.33333333333331</ele><time>2026-04-11T09:43:12.957Z</time></trkpt><trkpt lat="43.9578683" lon="12.38527"><ele>134.66666666666666</ele><time>2026-04-11T09:43:13.957Z</time></trkpt><trkpt lat="43.9578917" lon="12.385535"><ele>135.0</ele><time>2026-04-11T09:43:14.957Z</time></trkpt><trkpt lat="43.95789" lon="12.3857917"><ele>135.0</ele><time>2026-04-11T09:43:15.957Z</time></trkpt><trkpt lat="43.9578717" lon="12.3860567"><ele>135.0</ele><time>2026-04-11T09:43:16.957Z</time></trkpt><trkpt lat="43.9578417" lon="12.38632"><ele>135.0</ele><time>2026-04-11T09:43:17.957Z</time></trkpt><trkpt lat="43.95779" lon="12.386575"><ele>134.66666666666666</ele><time>2026-04-11T09:43:18.957Z</time></trkpt><trkpt lat="43.9577367" lon="12.3868167"><ele>134.33333333333331</ele><time>2026-04-11T09:43:19.957Z</time></trkpt><trkpt lat="43.9576867" lon="12.387055"><ele>134.0</ele><time>2026-04-11T09:43:20.957Z</time></trkpt><trkpt lat="43.957625" lon="12.3872883"><ele>135.33333333333331</ele><time>2026-04-11T09:43:21.957Z</time></trkpt><trkpt lat="43.9575567" lon="12.3875133"><ele>136.66666666666666</ele><time>2026-04-11T09:43:22.957Z</time></trkpt><trkpt lat="43.9574933" lon="12.3877383"><ele>138.0</ele><time>2026-04-11T09:43:23.957Z</time></trkpt><trkpt lat="43.9574383" lon="12.387955"><ele>136.66666666666666</ele><time>2026-04-11T09:43:24.958Z</time></trkpt><trkpt lat="43.9573783" lon="12.3881783"><ele>135.33333333333331</ele><time>2026-04-11T09:43:25.957Z</time></trkpt><trkpt lat="43.95732" lon="12.3883967"><ele>134.0</ele><time>2026-04-11T09:43:26.957Z</time></trkpt><trkpt lat="43.95726" lon="12.3886283"><ele>132.66666666666666</ele><time>2026-04-11T09:43:27.957Z</time></trkpt><trkpt lat="43.957205" lon="12.3888617"><ele>131.33333333333334</ele><time>2026-04-11T09:43:28.957Z</time></trkpt><trkpt lat="43.9571567" lon="12.3890917"><ele>130.0</ele><time>2026-04-11T09:43:29.957Z</time></trkpt><trkpt lat="43.9571083" lon="12.3893333"><ele>130.0</ele><time>2026-04-11T09:43:30.957Z</time></trkpt><trkpt lat="43.957065" lon="12.389575"><ele>130.0</ele><time>2026-04-11T09:43:31.957Z</time></trkpt><trkpt lat="43.9570367" lon="12.3898117"><ele>130.0</ele><time>2026-04-11T09:43:32.957Z</time></trkpt><trkpt lat="43.95701" lon="12.39004"><ele>130.0</ele><time>2026-04-11T09:43:33.957Z</time></trkpt><trkpt lat="43.9569933" lon="12.3902683"><ele>130.0</ele><time>2026-04-11T09:43:34.957Z</time></trkpt><trkpt lat="43.9569733" lon="12.390495"><ele>130.0</ele><time>2026-04-11T09:43:35.957Z</time></trkpt><trkpt lat="43.9569733" lon="12.3907167"><ele>130.0</ele><time>2026-04-11T09:43:36.957Z</time></trkpt><trkpt lat="43.95698" lon="12.3909467"><ele>130.0</ele><time>2026-04-11T09:43:37.957Z</time></trkpt><trkpt lat="43.9569933" lon="12.391165"><ele>130.0</ele><time>2026-04-11T09:43:38.957Z</time></trkpt><trkpt lat="43.9570167" lon="12.391375"><ele>130.0</ele><time>2026-04-11T09:43:39.957Z</time></trkpt><trkpt lat="43.957035" lon="12.3915983"><ele>130.0</ele><time>2026-04-11T09:43:40.957Z</time></trkpt><trkpt lat="43.9570667" lon="12.3918117"><ele>130.0</ele><time>2026-04-11T09:43:41.957Z</time></trkpt><trkpt lat="43.9571183" lon="12.39202"><ele>130.33333333333334</ele><time>2026-04-11T09:43:42.958Z</time></trkpt><trkpt lat="43.9571633" lon="12.39224"><ele>130.66666666666666</ele><time>2026-04-11T09:43:43.957Z</time></trkpt><trkpt lat="43.9572217" lon="12.39245"><ele>131.0</ele><time>2026-04-11T09:43:44.957Z</time></trkpt><trkpt lat="43.95728" lon="12.3926517"><ele>131.0</ele><time>2026-04-11T09:43:45.957Z</time></trkpt><trkpt lat="43.9573417" lon="12.39286"><ele>131.0</ele><time>2026-04-11T09:43:46.957Z</time></trkpt><trkpt lat="43.9574083" lon="12.393065"><ele>131.0</ele><time>2026-04-11T09:43:47.957Z</time></trkpt><trkpt lat="43.9574767" lon="12.3932667"><ele>130.0</ele><time>2026-04-11T09:43:48.958Z</time></trkpt><trkpt lat="43.95755" lon="12.3934783"><ele>129.0</ele><time>2026-04-11T09:43:49.957Z</time></trkpt><trkpt lat="43.957625" lon="12.3936867"><ele>128.0</ele><time>2026-04-11T09:43:50.957Z</time></trkpt><trkpt lat="43.9577067" lon="12.3938933"><ele>128.0</ele><time>2026-04-11T09:43:51.957Z</time></trkpt><trkpt lat="43.957785" lon="12.39409"><ele>128.0</ele><time>2026-04-11T09:43:52.957Z</time></trkpt><trkpt lat="43.957855" lon="12.3942967"><ele>128.0</ele><time>2026-04-11T09:43:53.957Z</time></trkpt><trkpt lat="43.9579283" lon="12.3945117"><ele>129.33333333333331</ele><time>2026-04-11T09:43:54.957Z</time></trkpt><trkpt lat="43.957995" lon="12.3947283"><ele>130.66666666666666</ele><time>2026-04-11T09:43:55.957Z</time></trkpt><trkpt lat="43.9580667" lon="12.39494"><ele>132.0</ele><time>2026-04-11T09:43:56.957Z</time></trkpt><trkpt lat="43.9581417" lon="12.3951533"><ele>132.0</ele><time>2026-04-11T09:43:57.958Z</time></trkpt><trkpt lat="43.958215" lon="12.3953617"><ele>132.0</ele><time>2026-04-11T09:43:58.957Z</time></trkpt><trkpt lat="43.9582933" lon="12.39558"><ele>132.0</ele><time>2026-04-11T09:43:59.957Z</time></trkpt><trkpt lat="43.9583683" lon="12.3957917"><ele>131.33333333333334</ele><time>2026-04-11T09:44:00.957Z</time></trkpt><trkpt lat="43.958435" lon="12.3960083"><ele>130.66666666666669</ele><time>2026-04-11T09:44:01.957Z</time></trkpt><trkpt lat="43.9585067" lon="12.3962283"><ele>130.0</ele><time>2026-04-11T09:44:02.958Z</time></trkpt><trkpt lat="43.9585867" lon="12.396435"><ele>130.0</ele><time>2026-04-11T09:44:03.957Z</time></trkpt><trkpt lat="43.9586617" lon="12.3966417"><ele>130.0</ele><time>2026-04-11T09:44:04.957Z</time></trkpt><trkpt lat="43.95874" lon="12.3968367"><ele>130.0</ele><time>2026-04-11T09:44:05.957Z</time></trkpt><trkpt lat="43.9588183" lon="12.3970317"><ele>132.33333333333334</ele><time>2026-04-11T09:44:06.957Z</time></trkpt><trkpt lat="43.9588983" lon="12.3972233"><ele>134.66666666666666</ele><time>2026-04-11T09:44:07.957Z</time></trkpt><trkpt lat="43.9589817" lon="12.3974167"><ele>137.0</ele><time>2026-04-11T09:44:08.957Z</time></trkpt><trkpt lat="43.9590533" lon="12.3976183"><ele>137.0</ele><time>2026-04-11T09:44:09.957Z</time></trkpt><trkpt lat="43.9591433" lon="12.3978133"><ele>137.0</ele><time>2026-04-11T09:44:10.957Z</time></trkpt><trkpt lat="43.959215" lon="12.3980017"><ele>137.0</ele><time>2026-04-11T09:44:11.957Z</time></trkpt><trkpt lat="43.959305" lon="12.3981933"><ele>135.33333333333331</ele><time>2026-04-11T09:44:12.957Z</time></trkpt><trkpt lat="43.9593983" lon="12.3983833"><ele>133.66666666666666</ele><time>2026-04-11T09:44:13.958Z</time></trkpt><trkpt lat="43.9594867" lon="12.3985667"><ele>132.0</ele><time>2026-04-11T09:44:14.958Z</time></trkpt><trkpt lat="43.959585" lon="12.3987567"><ele>130.25</ele><time>2026-04-11T09:44:15.957Z</time></trkpt><trkpt lat="43.9596783" lon="12.3989383"><ele>128.5</ele><time>2026-04-11T09:44:16.957Z</time></trkpt><trkpt lat="43.9597717" lon="12.3990967"><ele>126.75</ele><time>2026-04-11T09:44:17.957Z</time></trkpt><trkpt lat="43.959855" lon="12.3992483"><ele>125.0</ele><time>2026-04-11T09:44:18.958Z</time></trkpt><trkpt lat="43.959925" lon="12.3993883"><ele>125.0</ele><time>2026-04-11T09:44:19.957Z</time></trkpt><trkpt lat="43.9600067" lon="12.3995317"><ele>125.0</ele><time>2026-04-11T09:44:20.958Z</time></trkpt><trkpt lat="43.9600867" lon="12.3996733"><ele>125.0</ele><time>2026-04-11T09:44:21.957Z</time></trkpt><trkpt lat="43.9601717" lon="12.3998167"><ele>125.0</ele><time>2026-04-11T09:44:22.957Z</time></trkpt><trkpt lat="43.9602467" lon="12.3999617"><ele>125.0</ele><time>2026-04-11T09:44:23.958Z</time></trkpt><trkpt lat="43.9603183" lon="12.4000967"><ele>125.0</ele><time>2026-04-11T09:44:24.957Z</time></trkpt><trkpt lat="43.960385" lon="12.40023"><ele>125.0</ele><time>2026-04-11T09:44:25.957Z</time></trkpt><trkpt lat="43.9604533" lon="12.4003483"><ele>125.0</ele><time>2026-04-11T09:44:26.957Z</time></trkpt><trkpt lat="43.960525" lon="12.4004783"><ele>124.6</ele><time>2026-04-11T09:44:27.957Z</time></trkpt><trkpt lat="43.9605867" lon="12.4006033"><ele>124.2</ele><time>2026-04-11T09:44:28.957Z</time></trkpt><trkpt lat="43.96065" lon="12.4007233"><ele>123.80000000000001</ele><time>2026-04-11T09:44:29.957Z</time></trkpt><trkpt lat="43.9607133" lon="12.40083"><ele>123.4</ele><time>2026-04-11T09:44:30.957Z</time></trkpt><trkpt lat="43.9607833" lon="12.4009333"><ele>123.0</ele><time>2026-04-11T09:44:31.958Z</time></trkpt><trkpt lat="43.9608667" lon="12.4010383"><ele>123.0</ele><time>2026-04-11T09:44:32.957Z</time></trkpt><trkpt lat="43.9609483" lon="12.40114"><ele>123.00000000000001</ele><time>2026-04-11T09:44:33.957Z</time></trkpt><trkpt lat="43.9610233" lon="12.40123"><ele>123.00000000000001</ele><time>2026-04-11T09:44:34.958Z</time></trkpt><trkpt lat="43.9610933" lon="12.4013117"><ele>123.0</ele><time>2026-04-11T09:44:35.958Z</time></trkpt><trkpt lat="43.9611617" lon="12.4013917"><ele>123.0</ele><time>2026-04-11T09:44:36.957Z</time></trkpt><trkpt lat="43.9612133" lon="12.4014867"><ele>124.33333333333333</ele><time>2026-04-11T09:44:37.957Z</time></trkpt><trkpt lat="43.9612583" lon="12.4015767"><ele>125.66666666666666</ele><time>2026-04-11T09:44:38.957Z</time></trkpt><trkpt lat="43.96128" lon="12.4016683"><ele>127.0</ele><time>2026-04-11T09:44:39.958Z</time></trkpt><trkpt lat="43.9612583" lon="12.4017667"><ele>128.33333333333331</ele><time>2026-04-11T09:44:40.957Z</time></trkpt><trkpt lat="43.9611683" lon="12.4018617"><ele>129.66666666666666</ele><time>2026-04-11T09:44:42.957Z</time></trkpt><trkpt lat="43.96107" lon="12.4018883"><ele>131.0</ele><time>2026-04-11T09:44:44.957Z</time></trkpt><trkpt lat="43.9610083" lon="12.4019067"><ele>131.0</ele><time>2026-04-11T09:44:47.957Z</time></trkpt><trkpt lat="43.96102" lon="12.4020167"><ele>131.0</ele><time>2026-04-11T09:44:50.957Z</time></trkpt><trkpt lat="43.9610283" lon="12.402115"><ele>131.0</ele><time>2026-04-11T09:44:51.957Z</time></trkpt><trkpt lat="43.9610233" lon="12.4022283"><ele>131.0</ele><time>2026-04-11T09:44:52.957Z</time></trkpt><trkpt lat="43.9610183" lon="12.402345"><ele>131.0</ele><time>2026-04-11T09:44:53.957Z</time></trkpt><trkpt lat="43.96101" lon="12.4024767"><ele>131.0</ele><time>2026-04-11T09:44:54.957Z</time></trkpt><trkpt lat="43.961" lon="12.402625"><ele>132.75</ele><time>2026-04-11T09:44:55.957Z</time></trkpt><trkpt lat="43.9609867" lon="12.4027933"><ele>134.5</ele><time>2026-04-11T09:44:56.958Z</time></trkpt><trkpt lat="43.96098" lon="12.4029683"><ele>136.25</ele><time>2026-04-11T09:44:57.957Z</time></trkpt><trkpt lat="43.9609833" lon="12.40313"><ele>138.0</ele><time>2026-04-11T09:44:58.957Z</time></trkpt><trkpt lat="43.9609733" lon="12.4032817"><ele>139.25</ele><time>2026-04-11T09:44:59.957Z</time></trkpt><trkpt lat="43.9609517" lon="12.4034383"><ele>140.5</ele><time>2026-04-11T09:45:00.957Z</time></trkpt><trkpt lat="43.9609417" lon="12.4036"><ele>141.75</ele><time>2026-04-11T09:45:01.957Z</time></trkpt><trkpt lat="43.960935" lon="12.4037633"><ele>143.0</ele><time>2026-04-11T09:45:02.957Z</time></trkpt><trkpt lat="43.9609217" lon="12.4039233"><ele>144.6</ele><time>2026-04-11T09:45:03.957Z</time></trkpt><trkpt lat="43.96091" lon="12.4040683"><ele>146.20000000000002</ele><time>2026-04-11T09:45:04.958Z</time></trkpt><trkpt lat="43.9609017" lon="12.4042033"><ele>147.8</ele><time>2026-04-11T09:45:05.957Z</time></trkpt><trkpt lat="43.9609133" lon="12.404365"><ele>149.4</ele><time>2026-04-11T09:45:06.957Z</time></trkpt><trkpt lat="43.960915" lon="12.4045333"><ele>151.0</ele><time>2026-04-11T09:45:07.957Z</time></trkpt><trkpt lat="43.9609183" lon="12.4046817"><ele>152.0</ele><time>2026-04-11T09:45:08.957Z</time></trkpt><trkpt lat="43.9609217" lon="12.404825"><ele>153.0</ele><time>2026-04-11T09:45:09.957Z</time></trkpt><trkpt lat="43.9609083" lon="12.40498"><ele>154.0</ele><time>2026-04-11T09:45:10.957Z</time></trkpt><trkpt lat="43.9609" lon="12.4051367"><ele>155.0</ele><time>2026-04-11T09:45:11.957Z</time></trkpt><trkpt lat="43.9608917" lon="12.4052933"><ele>156.0</ele><time>2026-04-11T09:45:12.957Z</time></trkpt><trkpt lat="43.9608783" lon="12.40546"><ele>157.0</ele><time>2026-04-11T09:45:13.957Z</time></trkpt><trkpt lat="43.9608783" lon="12.4056117"><ele>158.0</ele><time>2026-04-11T09:45:14.957Z</time></trkpt><trkpt lat="43.9608717" lon="12.4057583"><ele>159.0</ele><time>2026-04-11T09:45:15.958Z</time></trkpt><trkpt lat="43.9608633" lon="12.4059033"><ele>160.0</ele><time>2026-04-11T09:45:16.957Z</time></trkpt><trkpt lat="43.960855" lon="12.406045"><ele>161.0</ele><time>2026-04-11T09:45:17.957Z</time></trkpt><trkpt lat="43.9608483" lon="12.406195"><ele>163.60000000000002</ele><time>2026-04-11T09:45:18.958Z</time></trkpt><trkpt lat="43.960835" lon="12.40634"><ele>166.2</ele><time>2026-04-11T09:45:19.957Z</time></trkpt><trkpt lat="43.9607983" lon="12.4064783"><ele>168.8</ele><time>2026-04-11T09:45:20.957Z</time></trkpt><trkpt lat="43.9607467" lon="12.4066"><ele>171.39999999999998</ele><time>2026-04-11T09:45:21.957Z</time></trkpt><trkpt lat="43.9606917" lon="12.4067233"><ele>174.0</ele><time>2026-04-11T09:45:22.957Z</time></trkpt><trkpt lat="43.9606517" lon="12.40685"><ele>174.0</ele><time>2026-04-11T09:45:23.957Z</time></trkpt><trkpt lat="43.9606367" lon="12.4069833"><ele>174.0</ele><time>2026-04-11T09:45:24.957Z</time></trkpt><trkpt lat="43.9606383" lon="12.4071267"><ele>174.0</ele><time>2026-04-11T09:45:25.957Z</time></trkpt><trkpt lat="43.960655" lon="12.407275"><ele>174.0</ele><time>2026-04-11T09:45:26.957Z</time></trkpt><trkpt lat="43.9606683" lon="12.40742"><ele>174.0</ele><time>2026-04-11T09:45:27.957Z</time></trkpt><trkpt lat="43.9606767" lon="12.4075717"><ele>175.5</ele><time>2026-04-11T09:45:28.957Z</time></trkpt><trkpt lat="43.9606767" lon="12.4077067"><ele>177.0</ele><time>2026-04-11T09:45:29.957Z</time></trkpt><trkpt lat="43.96068" lon="12.407825"><ele>178.5</ele><time>2026-04-11T09:45:30.957Z</time></trkpt><trkpt lat="43.96069" lon="12.4079433"><ele>180.0</ele><time>2026-04-11T09:45:31.957Z</time></trkpt><trkpt lat="43.9607067" lon="12.4080633"><ele>181.5</ele><time>2026-04-11T09:45:32.957Z</time></trkpt><trkpt lat="43.9607283" lon="12.4081833"><ele>183.0</ele><time>2026-04-11T09:45:33.957Z</time></trkpt><trkpt lat="43.96077" lon="12.4082983"><ele>184.4</ele><time>2026-04-11T09:45:34.957Z</time></trkpt><trkpt lat="43.9608167" lon="12.4084317"><ele>185.8</ele><time>2026-04-11T09:45:35.957Z</time></trkpt><trkpt lat="43.9608717" lon="12.408525"><ele>187.2</ele><time>2026-04-11T09:45:36.957Z</time></trkpt><trkpt lat="43.96092" lon="12.4086383"><ele>188.6</ele><time>2026-04-11T09:45:37.957Z</time></trkpt><trkpt lat="43.9609617" lon="12.408775"><ele>190.0</ele><time>2026-04-11T09:45:38.958Z</time></trkpt><trkpt lat="43.96099" lon="12.4089033"><ele>192.0</ele><time>2026-04-11T09:45:39.957Z</time></trkpt><trkpt lat="43.961005" lon="12.4090417"><ele>194.0</ele><time>2026-04-11T09:45:40.957Z</time></trkpt><trkpt lat="43.96102" lon="12.4091783"><ele>196.0</ele><time>2026-04-11T09:45:41.957Z</time></trkpt><trkpt lat="43.961025" lon="12.4093217"><ele>198.0</ele><time>2026-04-11T09:45:42.958Z</time></trkpt><trkpt lat="43.9610417" lon="12.40946"><ele>200.0</ele><time>2026-04-11T09:45:43.958Z</time></trkpt><trkpt lat="43.9610667" lon="12.4095833"><ele>200.50000000000003</ele><time>2026-04-11T09:45:44.957Z</time></trkpt><trkpt lat="43.9610833" lon="12.4097017"><ele>201.0</ele><time>2026-04-11T09:45:45.957Z</time></trkpt><trkpt lat="43.96108" lon="12.4098333"><ele>201.5</ele><time>2026-04-11T09:45:46.957Z</time></trkpt><trkpt lat="43.9610717" lon="12.4099533"><ele>202.0</ele><time>2026-04-11T09:45:47.958Z</time></trkpt><trkpt lat="43.9610533" lon="12.41006"><ele>202.50000000000003</ele><time>2026-04-11T09:45:48.957Z</time></trkpt><trkpt lat="43.9610317" lon="12.41018"><ele>203.0</ele><time>2026-04-11T09:45:49.958Z</time></trkpt><trkpt lat="43.96101" lon="12.41031"><ele>203.0</ele><time>2026-04-11T09:45:50.957Z</time></trkpt><trkpt lat="43.9609867" lon="12.41045"><ele>203.0</ele><time>2026-04-11T09:45:51.957Z</time></trkpt><trkpt lat="43.9609783" lon="12.41059"><ele>203.0</ele><time>2026-04-11T09:45:52.957Z</time></trkpt><trkpt lat="43.9609817" lon="12.4107383"><ele>203.0</ele><time>2026-04-11T09:45:53.957Z</time></trkpt><trkpt lat="43.9609817" lon="12.41088"><ele>203.0</ele><time>2026-04-11T09:45:54.957Z</time></trkpt><trkpt lat="43.9609883" lon="12.4110367"><ele>203.60000000000002</ele><time>2026-04-11T09:45:55.958Z</time></trkpt><trkpt lat="43.9609833" lon="12.411175"><ele>204.20000000000002</ele><time>2026-04-11T09:45:56.957Z</time></trkpt><trkpt lat="43.9609767" lon="12.411275"><ele>204.8</ele><time>2026-04-11T09:45:57.957Z</time></trkpt><trkpt lat="43.9609533" lon="12.41137"><ele>205.4</ele><time>2026-04-11T09:45:58.957Z</time></trkpt><trkpt lat="43.9609117" lon="12.4114917"><ele>206.0</ele><time>2026-04-11T09:45:59.957Z</time></trkpt><trkpt lat="43.9608633" lon="12.4116383"><ele>210.75</ele><time>2026-04-11T09:46:00.956Z</time></trkpt><trkpt lat="43.9608167" lon="12.4118083"><ele>215.5</ele><time>2026-04-11T09:46:01.957Z</time></trkpt><trkpt lat="43.9607917" lon="12.4119983"><ele>220.25</ele><time>2026-04-11T09:46:02.957Z</time></trkpt><trkpt lat="43.9607817" lon="12.41218"><ele>225.0</ele><time>2026-04-11T09:46:03.957Z</time></trkpt><trkpt lat="43.9607767" lon="12.4123833"><ele>225.5</ele><time>2026-04-11T09:46:04.956Z</time></trkpt><trkpt lat="43.9607567" lon="12.412585"><ele>226.0</ele><time>2026-04-11T09:46:05.956Z</time></trkpt><trkpt lat="43.9607267" lon="12.4127767"><ele>226.5</ele><time>2026-04-11T09:46:06.956Z</time></trkpt><trkpt lat="43.9606817" lon="12.4129617"><ele>227.0</ele><time>2026-04-11T09:46:07.956Z</time></trkpt><trkpt lat="43.9606283" lon="12.4131367"><ele>227.75</ele><time>2026-04-11T09:46:08.956Z</time></trkpt><trkpt lat="43.9605767" lon="12.4133017"><ele>228.5</ele><time>2026-04-11T09:46:09.956Z</time></trkpt><trkpt lat="43.960525" lon="12.4134633"><ele>229.25</ele><time>2026-04-11T09:46:10.956Z</time></trkpt><trkpt lat="43.9604733" lon="12.4136017"><ele>230.0</ele><time>2026-04-11T09:46:11.957Z</time></trkpt><trkpt lat="43.9604267" lon="12.4137167"><ele>231.2</ele><time>2026-04-11T09:46:12.957Z</time></trkpt><trkpt lat="43.9603867" lon="12.4138267"><ele>232.4</ele><time>2026-04-11T09:46:13.956Z</time></trkpt><trkpt lat="43.96036" lon="12.4139217"><ele>233.60000000000002</ele><time>2026-04-11T09:46:14.957Z</time></trkpt><trkpt lat="43.9603483" lon="12.4141067"><ele>234.8</ele><time>2026-04-11T09:46:16.956Z</time></trkpt><trkpt lat="43.96034" lon="12.41421"><ele>236.0</ele><time>2026-04-11T09:46:17.956Z</time></trkpt><trkpt lat="43.9603217" lon="12.41432"><ele>236.0</ele><time>2026-04-11T09:46:18.957Z</time></trkpt><trkpt lat="43.9602883" lon="12.4144283"><ele>236.00000000000003</ele><time>2026-04-11T09:46:19.956Z</time></trkpt><trkpt lat="43.96023" lon="12.4145317"><ele>236.00000000000003</ele><time>2026-04-11T09:46:20.956Z</time></trkpt><trkpt lat="43.9601517" lon="12.4146467"><ele>236.0</ele><time>2026-04-11T09:46:21.957Z</time></trkpt><trkpt lat="43.9600717" lon="12.414755"><ele>236.0</ele><time>2026-04-11T09:46:22.956Z</time></trkpt><trkpt lat="43.9600067" lon="12.4148767"><ele>239.50000000000003</ele><time>2026-04-11T09:46:23.956Z</time></trkpt><trkpt lat="43.95998" lon="12.4149833"><ele>243.0</ele><time>2026-04-11T09:46:24.956Z</time></trkpt><trkpt lat="43.9599683" lon="12.4151033"><ele>246.5</ele><time>2026-04-11T09:46:25.956Z</time></trkpt><trkpt lat="43.9599717" lon="12.4152317"><ele>250.0</ele><time>2026-04-11T09:46:26.956Z</time></trkpt><trkpt lat="43.9599867" lon="12.4153517"><ele>253.50000000000003</ele><time>2026-04-11T09:46:27.956Z</time></trkpt><trkpt lat="43.960005" lon="12.4154583"><ele>257.0</ele><time>2026-04-11T09:46:28.956Z</time></trkpt><trkpt lat="43.9600183" lon="12.415565"><ele>257.4</ele><time>2026-04-11T09:46:29.956Z</time></trkpt><trkpt lat="43.9600333" lon="12.4156717"><ele>257.79999999999995</ele><time>2026-04-11T09:46:30.957Z</time></trkpt><trkpt lat="43.9600583" lon="12.41579"><ele>258.2</ele><time>2026-04-11T09:46:31.956Z</time></trkpt><trkpt lat="43.9600933" lon="12.4158983"><ele>258.59999999999997</ele><time>2026-04-11T09:46:32.956Z</time></trkpt><trkpt lat="43.9601333" lon="12.4160417"><ele>259.0</ele><time>2026-04-11T09:46:33.956Z</time></trkpt><trkpt lat="43.9601667" lon="12.4161883"><ele>260.4</ele><time>2026-04-11T09:46:34.956Z</time></trkpt><trkpt lat="43.9601967" lon="12.4163283"><ele>261.79999999999995</ele><time>2026-04-11T09:46:35.956Z</time></trkpt><trkpt lat="43.96021" lon="12.4164683"><ele>263.20000000000005</ele><time>2026-04-11T09:46:36.956Z</time></trkpt><trkpt lat="43.9601967" lon="12.4166017"><ele>264.6</ele><time>2026-04-11T09:46:37.956Z</time></trkpt><trkpt lat="43.9601733" lon="12.4167183"><ele>266.0</ele><time>2026-04-11T09:46:38.956Z</time></trkpt><trkpt lat="43.9601383" lon="12.41681"><ele>266.0</ele><time>2026-04-11T09:46:39.956Z</time></trkpt><trkpt lat="43.9601017" lon="12.4168933"><ele>266.0</ele><time>2026-04-11T09:46:40.956Z</time></trkpt><trkpt lat="43.96005" lon="12.416985"><ele>266.0</ele><time>2026-04-11T09:46:41.956Z</time></trkpt><trkpt lat="43.95999" lon="12.4170833"><ele>266.0</ele><time>2026-04-11T09:46:42.956Z</time></trkpt><trkpt lat="43.9599217" lon="12.4171767"><ele>266.0</ele><time>2026-04-11T09:46:43.956Z</time></trkpt><trkpt lat="43.959845" lon="12.4172583"><ele>266.0</ele><time>2026-04-11T09:46:44.957Z</time></trkpt><trkpt lat="43.9597717" lon="12.4173417"><ele>268.33333333333337</ele><time>2026-04-11T09:46:45.957Z</time></trkpt><trkpt lat="43.959695" lon="12.417435"><ele>270.6666666666667</ele><time>2026-04-11T09:46:46.957Z</time></trkpt><trkpt lat="43.9596367" lon="12.4175233"><ele>273.0</ele><time>2026-04-11T09:46:47.956Z</time></trkpt><trkpt lat="43.9595883" lon="12.4176217"><ele>275.3333333333333</ele><time>2026-04-11T09:46:48.956Z</time></trkpt><trkpt lat="43.9595583" lon="12.41771"><ele>277.66666666666663</ele><time>2026-04-11T09:46:49.956Z</time></trkpt><trkpt lat="43.959525" lon="12.4177867"><ele>280.0</ele><time>2026-04-11T09:46:50.956Z</time></trkpt><trkpt lat="43.959515" lon="12.4178933"><ele>280.0</ele><time>2026-04-11T09:46:52.956Z</time></trkpt><trkpt lat="43.9594733" lon="12.4180283"><ele>280.0</ele><time>2026-04-11T09:46:54.956Z</time></trkpt><trkpt lat="43.9594333" lon="12.4180983"><ele>280.0</ele><time>2026-04-11T09:46:55.957Z</time></trkpt><trkpt lat="43.9593533" lon="12.4182017"><ele>280.0</ele><time>2026-04-11T09:46:57.956Z</time></trkpt><trkpt lat="43.959275" lon="12.418295"><ele>280.0</ele><time>2026-04-11T09:46:59.957Z</time></trkpt><trkpt lat="43.9592083" lon="12.4183717"><ele>282.16666666666663</ele><time>2026-04-11T09:47:01.957Z</time></trkpt><trkpt lat="43.95911" lon="12.4184317"><ele>284.3333333333333</ele><time>2026-04-11T09:47:03.956Z</time></trkpt><trkpt lat="43.9590417" lon="12.418455"><ele>286.5</ele><time>2026-04-11T09:47:04.956Z</time></trkpt><trkpt lat="43.9589717" lon="12.4184617"><ele>288.6666666666667</ele><time>2026-04-11T09:47:05.957Z</time></trkpt><trkpt lat="43.9588867" lon="12.4184733"><ele>290.83333333333337</ele><time>2026-04-11T09:47:06.957Z</time></trkpt><trkpt lat="43.9587967" lon="12.4184933"><ele>293.0</ele><time>2026-04-11T09:47:07.956Z</time></trkpt><trkpt lat="43.9587017" lon="12.4185233"><ele>293.0</ele><time>2026-04-11T09:47:08.956Z</time></trkpt><trkpt lat="43.9586017" lon="12.418555"><ele>293.0</ele><time>2026-04-11T09:47:09.957Z</time></trkpt><trkpt lat="43.9584933" lon="12.4185783"><ele>293.0</ele><time>2026-04-11T09:47:10.956Z</time></trkpt><trkpt lat="43.9583867" lon="12.4186083"><ele>293.0</ele><time>2026-04-11T09:47:11.956Z</time></trkpt><trkpt lat="43.95829" lon="12.4186533"><ele>293.0</ele><time>2026-04-11T09:47:12.956Z</time></trkpt><trkpt lat="43.9582233" lon="12.4187083"><ele>294.4</ele><time>2026-04-11T09:47:13.956Z</time></trkpt><trkpt lat="43.9581683" lon="12.4187917"><ele>295.8</ele><time>2026-04-11T09:47:14.957Z</time></trkpt><trkpt lat="43.9581283" lon="12.4188967"><ele>297.2</ele><time>2026-04-11T09:47:15.956Z</time></trkpt><trkpt lat="43.9580883" lon="12.41902"><ele>298.6</ele><time>2026-04-11T09:47:16.957Z</time></trkpt><trkpt lat="43.9580567" lon="12.41917"><ele>300.0</ele><time>2026-04-11T09:47:17.957Z</time></trkpt><trkpt lat="43.95802" lon="12.41933"><ele>300.0</ele><time>2026-04-11T09:47:18.957Z</time></trkpt><trkpt lat="43.9579717" lon="12.4194883"><ele>300.0</ele><time>2026-04-11T09:47:19.956Z</time></trkpt><trkpt lat="43.9579083" lon="12.419665"><ele>300.0</ele><time>2026-04-11T09:47:20.956Z</time></trkpt><trkpt lat="43.9578483" lon="12.4198433"><ele>300.0</ele><time>2026-04-11T09:47:21.956Z</time></trkpt><trkpt lat="43.9577917" lon="12.4200217"><ele>300.0</ele><time>2026-04-11T09:47:22.956Z</time></trkpt><trkpt lat="43.95776" lon="12.4201967"><ele>300.0</ele><time>2026-04-11T09:47:23.957Z</time></trkpt><trkpt lat="43.9577433" lon="12.42038"><ele>300.0</ele><time>2026-04-11T09:47:24.957Z</time></trkpt><trkpt lat="43.9577517" lon="12.4205583"><ele>300.0</ele><time>2026-04-11T09:47:25.957Z</time></trkpt><trkpt lat="43.9577567" lon="12.42073"><ele>300.75</ele><time>2026-04-11T09:47:26.956Z</time></trkpt><trkpt lat="43.9577583" lon="12.4209033"><ele>301.5</ele><time>2026-04-11T09:47:27.956Z</time></trkpt><trkpt lat="43.95776" lon="12.4210617"><ele>302.25</ele><time>2026-04-11T09:47:28.957Z</time></trkpt><trkpt lat="43.95775" lon="12.4212283"><ele>303.0</ele><time>2026-04-11T09:47:29.957Z</time></trkpt><trkpt lat="43.9577367" lon="12.421385"><ele>303.0</ele><time>2026-04-11T09:47:30.957Z</time></trkpt><trkpt lat="43.9577183" lon="12.421545"><ele>303.0</ele><time>2026-04-11T09:47:31.956Z</time></trkpt><trkpt lat="43.9577017" lon="12.4216983"><ele>303.0</ele><time>2026-04-11T09:47:32.956Z</time></trkpt><trkpt lat="43.957675" lon="12.4218567"><ele>303.0</ele><time>2026-04-11T09:47:33.956Z</time></trkpt><trkpt lat="43.9576583" lon="12.4220183"><ele>303.0</ele><time>2026-04-11T09:47:34.956Z</time></trkpt><trkpt lat="43.9576417" lon="12.422185"><ele>303.0</ele><time>2026-04-11T09:47:35.956Z</time></trkpt><trkpt lat="43.9576183" lon="12.4223533"><ele>303.0</ele><time>2026-04-11T09:47:36.956Z</time></trkpt><trkpt lat="43.9576067" lon="12.422525"><ele>303.0</ele><time>2026-04-11T09:47:37.957Z</time></trkpt><trkpt lat="43.9575867" lon="12.422705"><ele>303.0</ele><time>2026-04-11T09:47:38.956Z</time></trkpt><trkpt lat="43.9575733" lon="12.4228717"><ele>303.0</ele><time>2026-04-11T09:47:39.957Z</time></trkpt><trkpt lat="43.95756" lon="12.4230433"><ele>303.0</ele><time>2026-04-11T09:47:40.957Z</time></trkpt><trkpt lat="43.9575367" lon="12.4232117"><ele>303.0</ele><time>2026-04-11T09:47:41.956Z</time></trkpt><trkpt lat="43.95751" lon="12.42337"><ele>304.0</ele><time>2026-04-11T09:47:42.956Z</time></trkpt><trkpt lat="43.9574817" lon="12.4235183"><ele>305.0</ele><time>2026-04-11T09:47:43.956Z</time></trkpt><trkpt lat="43.95745" lon="12.423675"><ele>306.0</ele><time>2026-04-11T09:47:44.956Z</time></trkpt><trkpt lat="43.9574083" lon="12.423835"><ele>307.0</ele><time>2026-04-11T09:47:45.957Z</time></trkpt><trkpt lat="43.9573633" lon="12.42401"><ele>307.0</ele><time>2026-04-11T09:47:46.957Z</time></trkpt><trkpt lat="43.957325" lon="12.4241883"><ele>307.0</ele><time>2026-04-11T09:47:47.956Z</time></trkpt><trkpt lat="43.9572817" lon="12.4243633"><ele>307.0</ele><time>2026-04-11T09:47:48.956Z</time></trkpt><trkpt lat="43.9572433" lon="12.42452"><ele>307.0</ele><time>2026-04-11T09:47:49.956Z</time></trkpt><trkpt lat="43.9572083" lon="12.4246917"><ele>306.0</ele><time>2026-04-11T09:47:50.957Z</time></trkpt><trkpt lat="43.9571767" lon="12.4248767"><ele>305.0</ele><time>2026-04-11T09:47:51.956Z</time></trkpt><trkpt lat="43.9571467" lon="12.42506"><ele>304.0</ele><time>2026-04-11T09:47:52.956Z</time></trkpt><trkpt lat="43.9571083" lon="12.4252617"><ele>303.0</ele><time>2026-04-11T09:47:53.956Z</time></trkpt><trkpt lat="43.9570717" lon="12.42545"><ele>303.0</ele><time>2026-04-11T09:47:54.956Z</time></trkpt><trkpt lat="43.9570467" lon="12.4256367"><ele>303.0</ele><time>2026-04-11T09:47:55.956Z</time></trkpt><trkpt lat="43.9570267" lon="12.4257883"><ele>303.0</ele><time>2026-04-11T09:47:56.956Z</time></trkpt><trkpt lat="43.95703" lon="12.4259583"><ele>303.0</ele><time>2026-04-11T09:47:57.957Z</time></trkpt><trkpt lat="43.9570433" lon="12.426125"><ele>303.0</ele><time>2026-04-11T09:47:58.957Z</time></trkpt><trkpt lat="43.957085" lon="12.426285"><ele>303.0</ele><time>2026-04-11T09:47:59.957Z</time></trkpt><trkpt lat="43.9571367" lon="12.4264267"><ele>303.0</ele><time>2026-04-11T09:48:00.956Z</time></trkpt><trkpt lat="43.9571983" lon="12.4265633"><ele>303.0</ele><time>2026-04-11T09:48:01.956Z</time></trkpt><trkpt lat="43.9572717" lon="12.4266933"><ele>304.75</ele><time>2026-04-11T09:48:02.957Z</time></trkpt><trkpt lat="43.95735" lon="12.42684"><ele>306.5</ele><time>2026-04-11T09:48:03.956Z</time></trkpt><trkpt lat="43.9574367" lon="12.4269733"><ele>308.25</ele><time>2026-04-11T09:48:04.956Z</time></trkpt><trkpt lat="43.95754" lon="12.4270767"><ele>310.0</ele><time>2026-04-11T09:48:05.957Z</time></trkpt><trkpt lat="43.9576517" lon="12.427125"><ele>311.75</ele><time>2026-04-11T09:48:06.956Z</time></trkpt><trkpt lat="43.9577667" lon="12.4271167"><ele>313.5</ele><time>2026-04-11T09:48:07.956Z</time></trkpt><trkpt lat="43.9578783" lon="12.42707"><ele>315.25</ele><time>2026-04-11T09:48:08.956Z</time></trkpt><trkpt lat="43.9579983" lon="12.426995"><ele>317.0</ele><time>2026-04-11T09:48:09.956Z</time></trkpt><trkpt lat="43.958115" lon="12.4269017"><ele>317.0</ele><time>2026-04-11T09:48:10.956Z</time></trkpt><trkpt lat="43.958235" lon="12.426815"><ele>317.0</ele><time>2026-04-11T09:48:11.957Z</time></trkpt><trkpt lat="43.9583483" lon="12.4267733"><ele>317.0</ele><time>2026-04-11T09:48:12.956Z</time></trkpt><trkpt lat="43.9584467" lon="12.4267567"><ele>317.0</ele><time>2026-04-11T09:48:13.956Z</time></trkpt><trkpt lat="43.9585183" lon="12.4267883"><ele>317.0</ele><time>2026-04-11T09:48:14.956Z</time></trkpt><trkpt lat="43.9585283" lon="12.4269417"><ele>317.0</ele><time>2026-04-11T09:48:16.956Z</time></trkpt><trkpt lat="43.9584817" lon="12.427005"><ele>317.0</ele><time>2026-04-11T09:48:17.956Z</time></trkpt><trkpt lat="43.9584133" lon="12.4270617"><ele>317.0</ele><time>2026-04-11T09:48:18.956Z</time></trkpt><trkpt lat="43.9583283" lon="12.4271083"><ele>317.0</ele><time>2026-04-11T09:48:19.956Z</time></trkpt><trkpt lat="43.9582633" lon="12.4271583"><ele>317.0</ele><time>2026-04-11T09:48:20.956Z</time></trkpt><trkpt lat="43.9582117" lon="12.4272283"><ele>317.0</ele><time>2026-04-11T09:48:21.956Z</time></trkpt><trkpt lat="43.958205" lon="12.427335"><ele>318.6666666666667</ele><time>2026-04-11T09:48:22.956Z</time></trkpt><trkpt lat="43.95824" lon="12.4274267"><ele>320.33333333333337</ele><time>2026-04-11T09:48:23.957Z</time></trkpt><trkpt lat="43.9583017" lon="12.4274817"><ele>322.0</ele><time>2026-04-11T09:48:24.956Z</time></trkpt><trkpt lat="43.9583883" lon="12.4274767"><ele>323.6666666666667</ele><time>2026-04-11T09:48:25.956Z</time></trkpt><trkpt lat="43.958475" lon="12.4274467"><ele>325.3333333333333</ele><time>2026-04-11T09:48:26.956Z</time></trkpt><trkpt lat="43.9585633" lon="12.42739"><ele>327.0</ele><time>2026-04-11T09:48:27.956Z</time></trkpt><trkpt lat="43.95866" lon="12.427335"><ele>327.5</ele><time>2026-04-11T09:48:28.956Z</time></trkpt><trkpt lat="43.958775" lon="12.4273033"><ele>328.0</ele><time>2026-04-11T09:48:29.956Z</time></trkpt><trkpt lat="43.9589067" lon="12.4273067"><ele>328.5</ele><time>2026-04-11T09:48:30.956Z</time></trkpt><trkpt lat="43.95905" lon="12.42733"><ele>329.0</ele><time>2026-04-11T09:48:31.956Z</time></trkpt><trkpt lat="43.959175" lon="12.427385"><ele>326.0</ele><time>2026-04-11T09:48:32.956Z</time></trkpt><trkpt lat="43.9592783" lon="12.42749"><ele>323.0</ele><time>2026-04-11T09:48:33.956Z</time></trkpt><trkpt lat="43.95936" lon="12.42763"><ele>320.0</ele><time>2026-04-11T09:48:34.956Z</time></trkpt><trkpt lat="43.95944" lon="12.4277817"><ele>317.0</ele><time>2026-04-11T09:48:35.956Z</time></trkpt><trkpt lat="43.9595217" lon="12.4279683"><ele>320.6666666666667</ele><time>2026-04-11T09:48:36.956Z</time></trkpt><trkpt lat="43.95959" lon="12.4281583"><ele>324.3333333333333</ele><time>2026-04-11T09:48:37.956Z</time></trkpt><trkpt lat="43.9596417" lon="12.4283833"><ele>328.0</ele><time>2026-04-11T09:48:38.956Z</time></trkpt><trkpt lat="43.9596917" lon="12.42863"><ele>330.25</ele><time>2026-04-11T09:48:39.956Z</time></trkpt><trkpt lat="43.9597367" lon="12.4288583"><ele>332.5</ele><time>2026-04-11T09:48:40.956Z</time></trkpt><trkpt lat="43.959775" lon="12.42904"><ele>334.75</ele><time>2026-04-11T09:48:41.956Z</time></trkpt><trkpt lat="43.9597967" lon="12.4291583"><ele>337.0</ele><time>2026-04-11T09:48:42.956Z</time></trkpt><trkpt lat="43.9597767" lon="12.4292417"><ele>337.0</ele><time>2026-04-11T09:48:43.956Z</time></trkpt><trkpt lat="43.95967" lon="12.429325"><ele>337.0</ele><time>2026-04-11T09:48:45.956Z</time></trkpt><trkpt lat="43.9595817" lon="12.4293033"><ele>337.0</ele><time>2026-04-11T09:48:46.957Z</time></trkpt><trkpt lat="43.959505" lon="12.42924"><ele>337.0</ele><time>2026-04-11T09:48:47.956Z</time></trkpt><trkpt lat="43.9594483" lon="12.42912"><ele>337.0</ele><time>2026-04-11T09:48:48.956Z</time></trkpt><trkpt lat="43.9594067" lon="12.428975"><ele>337.0</ele><time>2026-04-11T09:48:49.956Z</time></trkpt><trkpt lat="43.9593633" lon="12.4288133"><ele>337.0</ele><time>2026-04-11T09:48:50.957Z</time></trkpt><trkpt lat="43.9593067" lon="12.4286533"><ele>337.0</ele><time>2026-04-11T09:48:51.956Z</time></trkpt><trkpt lat="43.959235" lon="12.4285083"><ele>337.0</ele><time>2026-04-11T09:48:52.956Z</time></trkpt><trkpt lat="43.959165" lon="12.4283867"><ele>337.8</ele><time>2026-04-11T09:48:53.956Z</time></trkpt><trkpt lat="43.9590917" lon="12.428305"><ele>338.6</ele><time>2026-04-11T09:48:54.956Z</time></trkpt><trkpt lat="43.9590033" lon="12.4282633"><ele>339.40000000000003</ele><time>2026-04-11T09:48:55.956Z</time></trkpt><trkpt lat="43.958905" lon="12.4282733"><ele>340.20000000000005</ele><time>2026-04-11T09:48:56.957Z</time></trkpt><trkpt lat="43.958815" lon="12.428345"><ele>341.0</ele><time>2026-04-11T09:48:57.956Z</time></trkpt><trkpt lat="43.958755" lon="12.42846"><ele>341.0</ele><time>2026-04-11T09:48:58.956Z</time></trkpt><trkpt lat="43.9587317" lon="12.4285883"><ele>341.0</ele><time>2026-04-11T09:48:59.957Z</time></trkpt><trkpt lat="43.9587483" lon="12.4286983"><ele>341.0</ele><time>2026-04-11T09:49:00.956Z</time></trkpt><trkpt lat="43.9587967" lon="12.4288017"><ele>341.0</ele><time>2026-04-11T09:49:01.956Z</time></trkpt><trkpt lat="43.958875" lon="12.42891"><ele>341.0</ele><time>2026-04-11T09:49:02.956Z</time></trkpt><trkpt lat="43.95896" lon="12.4290133"><ele>342.0</ele><time>2026-04-11T09:49:03.956Z</time></trkpt><trkpt lat="43.9590317" lon="12.4291367"><ele>343.0</ele><time>2026-04-11T09:49:04.956Z</time></trkpt><trkpt lat="43.9590833" lon="12.42927"><ele>344.0</ele><time>2026-04-11T09:49:05.956Z</time></trkpt><trkpt lat="43.95911" lon="12.4294283"><ele>345.0</ele><time>2026-04-11T09:49:06.956Z</time></trkpt><trkpt lat="43.9591033" lon="12.4295833"><ele>346.6666666666667</ele><time>2026-04-11T09:49:07.956Z</time></trkpt><trkpt lat="43.9590883" lon="12.4297117"><ele>348.3333333333333</ele><time>2026-04-11T09:49:08.956Z</time></trkpt><trkpt lat="43.9590683" lon="12.4298183"><ele>350.0</ele><time>2026-04-11T09:49:09.957Z</time></trkpt><trkpt lat="43.9590467" lon="12.4299083"><ele>351.66666666666663</ele><time>2026-04-11T09:49:10.956Z</time></trkpt><trkpt lat="43.959045" lon="12.4300083"><ele>353.3333333333333</ele><time>2026-04-11T09:49:11.956Z</time></trkpt><trkpt lat="43.959055" lon="12.43012"><ele>355.0</ele><time>2026-04-11T09:49:12.957Z</time></trkpt><trkpt lat="43.9590867" lon="12.4302267"><ele>355.0</ele><time>2026-04-11T09:49:13.956Z</time></trkpt><trkpt lat="43.9591283" lon="12.4303417"><ele>355.0</ele><time>2026-04-11T09:49:14.956Z</time></trkpt><trkpt lat="43.95919" lon="12.43046"><ele>355.0</ele><time>2026-04-11T09:49:15.956Z</time></trkpt><trkpt lat="43.959265" lon="12.4305867"><ele>355.0</ele><time>2026-04-11T09:49:16.957Z</time></trkpt><trkpt lat="43.9593533" lon="12.430725"><ele>355.0</ele><time>2026-04-11T09:49:17.956Z</time></trkpt><trkpt lat="43.9594483" lon="12.4308583"><ele>355.6</ele><time>2026-04-11T09:49:18.956Z</time></trkpt><trkpt lat="43.9595067" lon="12.430965"><ele>356.2</ele><time>2026-04-11T09:49:19.956Z</time></trkpt><trkpt lat="43.95949" lon="12.43107"><ele>356.79999999999995</ele><time>2026-04-11T09:49:21.956Z</time></trkpt><trkpt lat="43.9593667" lon="12.43115"><ele>357.4</ele><time>2026-04-11T09:49:23.956Z</time></trkpt><trkpt lat="43.95928" lon="12.4311917"><ele>358.0</ele><time>2026-04-11T09:49:24.956Z</time></trkpt><trkpt lat="43.95918" lon="12.4312467"><ele>359.79999999999995</ele><time>2026-04-11T09:49:25.956Z</time></trkpt><trkpt lat="43.9590683" lon="12.4313"><ele>361.6</ele><time>2026-04-11T09:49:26.956Z</time></trkpt><trkpt lat="43.958965" lon="12.4313433"><ele>363.4</ele><time>2026-04-11T09:49:27.956Z</time></trkpt><trkpt lat="43.9588733" lon="12.4313733"><ele>365.20000000000005</ele><time>2026-04-11T09:49:28.956Z</time></trkpt><trkpt lat="43.9588083" lon="12.4314117"><ele>367.0</ele><time>2026-04-11T09:49:29.957Z</time></trkpt><trkpt lat="43.95875" lon="12.4314567"><ele>368.0</ele><time>2026-04-11T09:49:30.956Z</time></trkpt><trkpt lat="43.95869" lon="12.431505"><ele>369.0</ele><time>2026-04-11T09:49:31.956Z</time></trkpt><trkpt lat="43.9586233" lon="12.4315867"><ele>370.0</ele><time>2026-04-11T09:49:32.956Z</time></trkpt><trkpt lat="43.9585483" lon="12.4316883"><ele>371.0</ele><time>2026-04-11T09:49:33.956Z</time></trkpt><trkpt lat="43.9584733" lon="12.4318"><ele>372.0</ele><time>2026-04-11T09:49:34.957Z</time></trkpt><trkpt lat="43.958395" lon="12.4319183"><ele>372.5</ele><time>2026-04-11T09:49:35.956Z</time></trkpt><trkpt lat="43.9583167" lon="12.4320367"><ele>373.0</ele><time>2026-04-11T09:49:36.956Z</time></trkpt><trkpt lat="43.9582233" lon="12.4321633"><ele>373.5</ele><time>2026-04-11T09:49:37.956Z</time></trkpt><trkpt lat="43.9581533" lon="12.4323083"><ele>374.0</ele><time>2026-04-11T09:49:38.956Z</time></trkpt><trkpt lat="43.9581017" lon="12.43247"><ele>375.5</ele><time>2026-04-11T09:49:39.956Z</time></trkpt><trkpt lat="43.9580817" lon="12.4326483"><ele>377.0</ele><time>2026-04-11T09:49:40.956Z</time></trkpt><trkpt lat="43.9580883" lon="12.4328417"><ele>378.5</ele><time>2026-04-11T09:49:41.956Z</time></trkpt><trkpt lat="43.9580883" lon="12.433045"><ele>380.0</ele><time>2026-04-11T09:49:42.956Z</time></trkpt><trkpt lat="43.9580817" lon="12.4332433"><ele>382.0</ele><time>2026-04-11T09:49:43.956Z</time></trkpt><trkpt lat="43.9580717" lon="12.4334317"><ele>384.0</ele><time>2026-04-11T09:49:44.956Z</time></trkpt><trkpt lat="43.9580533" lon="12.433625"><ele>386.0</ele><time>2026-04-11T09:49:45.956Z</time></trkpt><trkpt lat="43.958025" lon="12.4338133"><ele>388.0</ele><time>2026-04-11T09:49:46.956Z</time></trkpt><trkpt lat="43.9579817" lon="12.4340017"><ele>390.25</ele><time>2026-04-11T09:49:47.956Z</time></trkpt><trkpt lat="43.9579233" lon="12.4341667"><ele>392.5</ele><time>2026-04-11T09:49:48.957Z</time></trkpt><trkpt lat="43.95782" lon="12.4342867"><ele>394.75</ele><time>2026-04-11T09:49:49.956Z</time></trkpt><trkpt lat="43.957705" lon="12.4344"><ele>397.0</ele><time>2026-04-11T09:49:50.956Z</time></trkpt><trkpt lat="43.95759" lon="12.4345083"><ele>397.0</ele><time>2026-04-11T09:49:51.956Z</time></trkpt><trkpt lat="43.9574867" lon="12.4346533"><ele>397.0</ele><time>2026-04-11T09:49:52.956Z</time></trkpt><trkpt lat="43.9573883" lon="12.4348233"><ele>397.0</ele><time>2026-04-11T09:49:53.956Z</time></trkpt><trkpt lat="43.9572917" lon="12.435"><ele>397.0</ele><time>2026-04-11T09:49:54.956Z</time></trkpt><trkpt lat="43.9571933" lon="12.4351833"><ele>397.0</ele><time>2026-04-11T09:49:55.956Z</time></trkpt><trkpt lat="43.95708" lon="12.4353383"><ele>397.0</ele><time>2026-04-11T09:49:56.956Z</time></trkpt><trkpt lat="43.9569533" lon="12.4354533"><ele>397.0</ele><time>2026-04-11T09:49:57.957Z</time></trkpt><trkpt lat="43.9568067" lon="12.4355333"><ele>397.0</ele><time>2026-04-11T09:49:58.956Z</time></trkpt><trkpt lat="43.9566617" lon="12.4355967"><ele>397.0</ele><time>2026-04-11T09:49:59.956Z</time></trkpt><trkpt lat="43.9565267" lon="12.435685"><ele>397.0</ele><time>2026-04-11T09:50:00.956Z</time></trkpt><trkpt lat="43.956405" lon="12.4357983"><ele>397.0</ele><time>2026-04-11T09:50:01.956Z</time></trkpt><trkpt lat="43.9563" lon="12.4359233"><ele>397.0</ele><time>2026-04-11T09:50:02.956Z</time></trkpt><trkpt lat="43.956215" lon="12.4360333"><ele>397.0</ele><time>2026-04-11T09:50:03.956Z</time></trkpt><trkpt lat="43.9561533" lon="12.4361417"><ele>397.0</ele><time>2026-04-11T09:50:04.956Z</time></trkpt><trkpt lat="43.9561" lon="12.43626"><ele>397.0</ele><time>2026-04-11T09:50:05.956Z</time></trkpt><trkpt lat="43.9560683" lon="12.4363867"><ele>397.0</ele><time>2026-04-11T09:50:06.956Z</time></trkpt><trkpt lat="43.9560533" lon="12.4365233"><ele>397.0</ele><time>2026-04-11T09:50:07.956Z</time></trkpt><trkpt lat="43.9560533" lon="12.43668"><ele>397.0</ele><time>2026-04-11T09:50:08.957Z</time></trkpt><trkpt lat="43.9560817" lon="12.43686"><ele>397.0</ele><time>2026-04-11T09:50:09.956Z</time></trkpt><trkpt lat="43.9561317" lon="12.4370667"><ele>397.0</ele><time>2026-04-11T09:50:10.956Z</time></trkpt><trkpt lat="43.9561933" lon="12.437265"><ele>397.0</ele><time>2026-04-11T09:50:11.956Z</time></trkpt><trkpt lat="43.9562717" lon="12.4374633"><ele>397.0</ele><time>2026-04-11T09:50:12.956Z</time></trkpt><trkpt lat="43.9563267" lon="12.437645"><ele>397.0</ele><time>2026-04-11T09:50:13.956Z</time></trkpt><trkpt lat="43.9563617" lon="12.4378167"><ele>397.0</ele><time>2026-04-11T09:50:14.956Z</time></trkpt><trkpt lat="43.9563967" lon="12.4379783"><ele>397.0</ele><time>2026-04-11T09:50:15.956Z</time></trkpt><trkpt lat="43.95641" lon="12.4381383"><ele>396.20000000000005</ele><time>2026-04-11T09:50:16.956Z</time></trkpt><trkpt lat="43.9564233" lon="12.438295"><ele>395.4</ele><time>2026-04-11T09:50:17.956Z</time></trkpt><trkpt lat="43.956425" lon="12.438445"><ele>394.6</ele><time>2026-04-11T09:50:18.956Z</time></trkpt><trkpt lat="43.956415" lon="12.4385967"><ele>393.79999999999995</ele><time>2026-04-11T09:50:19.956Z</time></trkpt><trkpt lat="43.9564017" lon="12.43874"><ele>393.0</ele><time>2026-04-11T09:50:20.956Z</time></trkpt><trkpt lat="43.9563833" lon="12.4388783"><ele>391.79999999999995</ele><time>2026-04-11T09:50:21.956Z</time></trkpt><trkpt lat="43.95634" lon="12.4390067"><ele>390.6</ele><time>2026-04-11T09:50:22.956Z</time></trkpt><trkpt lat="43.9563133" lon="12.43909"><ele>389.4</ele><time>2026-04-11T09:50:23.956Z</time></trkpt><trkpt lat="43.95626" lon="12.43919"><ele>388.20000000000005</ele><time>2026-04-11T09:50:25.956Z</time></trkpt><trkpt lat="43.9561967" lon="12.4392383"><ele>387.0</ele><time>2026-04-11T09:50:27.956Z</time></trkpt><trkpt lat="43.9560817" lon="12.4393017"><ele>387.0</ele><time>2026-04-11T09:50:29.956Z</time></trkpt><trkpt lat="43.9559933" lon="12.439355"><ele>387.0</ele><time>2026-04-11T09:50:30.957Z</time></trkpt><trkpt lat="43.9558917" lon="12.43941"><ele>387.0</ele><time>2026-04-11T09:50:31.956Z</time></trkpt><trkpt lat="43.9557783" lon="12.4394767"><ele>387.0</ele><time>2026-04-11T09:50:32.956Z</time></trkpt><trkpt lat="43.9556483" lon="12.4395517"><ele>386.66666666666663</ele><time>2026-04-11T09:50:33.957Z</time></trkpt><trkpt lat="43.9555117" lon="12.4396183"><ele>386.3333333333333</ele><time>2026-04-11T09:50:34.956Z</time></trkpt><trkpt lat="43.955375" lon="12.43969"><ele>386.0</ele><time>2026-04-11T09:50:35.956Z</time></trkpt><trkpt lat="43.95522" lon="12.4397783"><ele>386.25</ele><time>2026-04-11T09:50:36.956Z</time></trkpt><trkpt lat="43.9550783" lon="12.439855"><ele>386.5</ele><time>2026-04-11T09:50:37.956Z</time></trkpt><trkpt lat="43.95495" lon="12.4399317"><ele>386.75</ele><time>2026-04-11T09:50:38.956Z</time></trkpt><trkpt lat="43.954835" lon="12.4399983"><ele>387.0</ele><time>2026-04-11T09:50:39.956Z</time></trkpt><trkpt lat="43.9547467" lon="12.4400467"><ele>387.0</ele><time>2026-04-11T09:50:40.956Z</time></trkpt><trkpt lat="43.9546833" lon="12.4400967"><ele>387.0</ele><time>2026-04-11T09:50:41.956Z</time></trkpt><trkpt lat="43.954645" lon="12.4401683"><ele>387.0</ele><time>2026-04-11T09:50:42.956Z</time></trkpt><trkpt lat="43.954645" lon="12.4402583"><ele>387.0</ele><time>2026-04-11T09:50:43.956Z</time></trkpt><trkpt lat="43.9546717" lon="12.4403683"><ele>387.0</ele><time>2026-04-11T09:50:44.956Z</time></trkpt><trkpt lat="43.9546967" lon="12.4405083"><ele>387.0</ele><time>2026-04-11T09:50:45.956Z</time></trkpt><trkpt lat="43.9547233" lon="12.44067"><ele>387.20000000000005</ele><time>2026-04-11T09:50:46.956Z</time></trkpt><trkpt lat="43.954745" lon="12.4408183"><ele>387.4</ele><time>2026-04-11T09:50:47.956Z</time></trkpt><trkpt lat="43.9547833" lon="12.440945"><ele>387.6</ele><time>2026-04-11T09:50:48.956Z</time></trkpt><trkpt lat="43.9548333" lon="12.4410783"><ele>387.79999999999995</ele><time>2026-04-11T09:50:49.956Z</time></trkpt><trkpt lat="43.9549" lon="12.441205"><ele>388.0</ele><time>2026-04-11T09:50:50.956Z</time></trkpt><trkpt lat="43.9549883" lon="12.4413283"><ele>384.0</ele><time>2026-04-11T09:50:51.956Z</time></trkpt><trkpt lat="43.955085" lon="12.4414483"><ele>380.0</ele><time>2026-04-11T09:50:52.956Z</time></trkpt><trkpt lat="43.9551767" lon="12.4415833"><ele>376.0</ele><time>2026-04-11T09:50:53.957Z</time></trkpt><trkpt lat="43.9552583" lon="12.4417133"><ele>372.0</ele><time>2026-04-11T09:50:54.956Z</time></trkpt><trkpt lat="43.9553467" lon="12.4418517"><ele>372.0</ele><time>2026-04-11T09:50:55.956Z</time></trkpt><trkpt lat="43.9554367" lon="12.4419817"><ele>372.0</ele><time>2026-04-11T09:50:56.956Z</time></trkpt><trkpt lat="43.955535" lon="12.4421133"><ele>372.0</ele><time>2026-04-11T09:50:57.956Z</time></trkpt><trkpt lat="43.955635" lon="12.442255"><ele>372.0</ele><time>2026-04-11T09:50:58.957Z</time></trkpt><trkpt lat="43.955735" lon="12.4423933"><ele>372.0</ele><time>2026-04-11T09:50:59.956Z</time></trkpt><trkpt lat="43.95582" lon="12.4425233"><ele>372.0</ele><time>2026-04-11T09:51:00.956Z</time></trkpt><trkpt lat="43.955905" lon="12.4426517"><ele>372.0</ele><time>2026-04-11T09:51:01.956Z</time></trkpt><trkpt lat="43.9559717" lon="12.4427783"><ele>372.0</ele><time>2026-04-11T09:51:02.957Z</time></trkpt><trkpt lat="43.956015" lon="12.4429217"><ele>366.0</ele><time>2026-04-11T09:51:03.957Z</time></trkpt><trkpt lat="43.9560283" lon="12.4430817"><ele>360.0</ele><time>2026-04-11T09:51:04.956Z</time></trkpt><trkpt lat="43.9560333" lon="12.4432583"><ele>354.0</ele><time>2026-04-11T09:51:05.956Z</time></trkpt><trkpt lat="43.9560333" lon="12.4434267"><ele>348.0</ele><time>2026-04-11T09:51:06.956Z</time></trkpt><trkpt lat="43.9560383" lon="12.4436083"><ele>348.0</ele><time>2026-04-11T09:51:07.956Z</time></trkpt><trkpt lat="43.95604" lon="12.44379"><ele>348.0</ele><time>2026-04-11T09:51:08.956Z</time></trkpt><trkpt lat="43.9560467" lon="12.443975"><ele>348.0</ele><time>2026-04-11T09:51:09.956Z</time></trkpt><trkpt lat="43.956065" lon="12.4441417"><ele>348.0</ele><time>2026-04-11T09:51:10.956Z</time></trkpt><trkpt lat="43.9561" lon="12.4442817"><ele>348.0</ele><time>2026-04-11T09:51:11.956Z</time></trkpt><trkpt lat="43.9561517" lon="12.4444133"><ele>348.0</ele><time>2026-04-11T09:51:12.955Z</time></trkpt><trkpt lat="43.9562317" lon="12.444515"><ele>348.0</ele><time>2026-04-11T09:51:13.955Z</time></trkpt><trkpt lat="43.956335" lon="12.444595"><ele>348.0</ele><time>2026-04-11T09:51:14.955Z</time></trkpt><trkpt lat="43.956445" lon="12.4446517"><ele>347.2</ele><time>2026-04-11T09:51:15.955Z</time></trkpt><trkpt lat="43.9565517" lon="12.444685"><ele>346.4</ele><time>2026-04-11T09:51:16.955Z</time></trkpt><trkpt lat="43.9566533" lon="12.4447017"><ele>345.59999999999997</ele><time>2026-04-11T09:51:17.956Z</time></trkpt><trkpt lat="43.9567583" lon="12.4447383"><ele>344.79999999999995</ele><time>2026-04-11T09:51:18.955Z</time></trkpt><trkpt lat="43.956855" lon="12.44481"><ele>344.0</ele><time>2026-04-11T09:51:19.955Z</time></trkpt><trkpt lat="43.9569283" lon="12.444925"><ele>339.6</ele><time>2026-04-11T09:51:20.955Z</time></trkpt><trkpt lat="43.95697" lon="12.4450783"><ele>335.2</ele><time>2026-04-11T09:51:21.955Z</time></trkpt><trkpt lat="43.9570167" lon="12.445205"><ele>330.8</ele><time>2026-04-11T09:51:22.956Z</time></trkpt><trkpt lat="43.9570417" lon="12.4453183"><ele>326.40000000000003</ele><time>2026-04-11T09:51:23.955Z</time></trkpt><trkpt lat="43.9570667" lon="12.4454733"><ele>322.0</ele><time>2026-04-11T09:51:25.956Z</time></trkpt><trkpt lat="43.9570633" lon="12.4456367"><ele>322.0</ele><time>2026-04-11T09:51:27.955Z</time></trkpt><trkpt lat="43.95708" lon="12.4458217"><ele>322.0</ele><time>2026-04-11T09:51:29.955Z</time></trkpt><trkpt lat="43.95711" lon="12.4459383"><ele>322.0</ele><time>2026-04-11T09:51:30.955Z</time></trkpt><trkpt lat="43.95716" lon="12.4460583"><ele>322.0</ele><time>2026-04-11T09:51:31.956Z</time></trkpt><trkpt lat="43.9572283" lon="12.4461783"><ele>322.0</ele><time>2026-04-11T09:51:32.955Z</time></trkpt><trkpt lat="43.9572967" lon="12.4462967"><ele>321.8</ele><time>2026-04-11T09:51:33.955Z</time></trkpt><trkpt lat="43.9573783" lon="12.446415"><ele>321.6</ele><time>2026-04-11T09:51:34.955Z</time></trkpt><trkpt lat="43.9574467" lon="12.44652"><ele>321.40000000000003</ele><time>2026-04-11T09:51:35.956Z</time></trkpt><trkpt lat="43.9575167" lon="12.4466167"><ele>321.20000000000005</ele><time>2026-04-11T09:51:36.955Z</time></trkpt><trkpt lat="43.9575867" lon="12.4467167"><ele>321.0</ele><time>2026-04-11T09:51:37.955Z</time></trkpt><trkpt lat="43.95766" lon="12.4468117"><ele>318.2</ele><time>2026-04-11T09:51:38.955Z</time></trkpt><trkpt lat="43.95774" lon="12.4469067"><ele>315.40000000000003</ele><time>2026-04-11T09:51:39.955Z</time></trkpt><trkpt lat="43.9578133" lon="12.4469917"><ele>312.6</ele><time>2026-04-11T09:51:40.955Z</time></trkpt><trkpt lat="43.9578817" lon="12.44706"><ele>309.8</ele><time>2026-04-11T09:51:41.955Z</time></trkpt><trkpt lat="43.9579583" lon="12.4471283"><ele>307.0</ele><time>2026-04-11T09:51:42.955Z</time></trkpt><trkpt lat="43.958015" lon="12.4472017"><ele>306.16666666666663</ele><time>2026-04-11T09:51:43.955Z</time></trkpt><trkpt lat="43.95804" lon="12.4472933"><ele>305.3333333333333</ele><time>2026-04-11T09:51:44.955Z</time></trkpt><trkpt lat="43.9580533" lon="12.447415"><ele>304.5</ele><time>2026-04-11T09:51:45.955Z</time></trkpt><trkpt lat="43.9580617" lon="12.4475317"><ele>303.6666666666667</ele><time>2026-04-11T09:51:46.956Z</time></trkpt><trkpt lat="43.9580683" lon="12.4476633"><ele>302.83333333333337</ele><time>2026-04-11T09:51:47.955Z</time></trkpt><trkpt lat="43.9580917" lon="12.447785"><ele>302.0</ele><time>2026-04-11T09:51:48.955Z</time></trkpt><trkpt lat="43.9581317" lon="12.4479033"><ele>301.0</ele><time>2026-04-11T09:51:49.956Z</time></trkpt><trkpt lat="43.9581583" lon="12.4480283"><ele>300.0</ele><time>2026-04-11T09:51:50.956Z</time></trkpt><trkpt lat="43.9581717" lon="12.448145"><ele>299.0</ele><time>2026-04-11T09:51:51.955Z</time></trkpt><trkpt lat="43.9581783" lon="12.4482583"><ele>298.0</ele><time>2026-04-11T09:51:52.956Z</time></trkpt><trkpt lat="43.9581867" lon="12.4483617"><ele>297.0</ele><time>2026-04-11T09:51:53.955Z</time></trkpt><trkpt lat="43.9582333" lon="12.4485133"><ele>297.0</ele><time>2026-04-11T09:51:55.955Z</time></trkpt><trkpt lat="43.95831" lon="12.4485933"><ele>297.0</ele><time>2026-04-11T09:51:57.955Z</time></trkpt><trkpt lat="43.95841" lon="12.4486367"><ele>297.0</ele><time>2026-04-11T09:51:59.955Z</time></trkpt><trkpt lat="43.958515" lon="12.44866"><ele>297.0</ele><time>2026-04-11T09:52:01.955Z</time></trkpt><trkpt lat="43.9585983" lon="12.4486433"><ele>297.0</ele><time>2026-04-11T09:52:03.955Z</time></trkpt><trkpt lat="43.9586967" lon="12.448655"><ele>293.0</ele><time>2026-04-11T09:52:05.955Z</time></trkpt><trkpt lat="43.95881" lon="12.4487167"><ele>289.0</ele><time>2026-04-11T09:52:07.955Z</time></trkpt><trkpt lat="43.9589233" lon="12.4487733"><ele>285.0</ele><time>2026-04-11T09:52:09.955Z</time></trkpt><trkpt lat="43.9590133" lon="12.4487933"><ele>281.0</ele><time>2026-04-11T09:52:11.955Z</time></trkpt><trkpt lat="43.95912" lon="12.4488317"><ele>277.0</ele><time>2026-04-11T09:52:13.955Z</time></trkpt><trkpt lat="43.9592367" lon="12.4488767"><ele>273.16666666666663</ele><time>2026-04-11T09:52:15.955Z</time></trkpt><trkpt lat="43.959305" lon="12.4488933"><ele>269.3333333333333</ele><time>2026-04-11T09:52:16.955Z</time></trkpt><trkpt lat="43.9593667" lon="12.4489167"><ele>265.5</ele><time>2026-04-11T09:52:17.956Z</time></trkpt><trkpt lat="43.95943" lon="12.448945"><ele>261.6666666666667</ele><time>2026-04-11T09:52:18.955Z</time></trkpt><trkpt lat="43.959525" lon="12.4490217"><ele>257.83333333333337</ele><time>2026-04-11T09:52:20.955Z</time></trkpt><trkpt lat="43.9595533" lon="12.4491433"><ele>254.0</ele><time>2026-04-11T09:52:22.955Z</time></trkpt><trkpt lat="43.95951" lon="12.4492817"><ele>254.0</ele><time>2026-04-11T09:52:24.955Z</time></trkpt><trkpt lat="43.9594833" lon="12.4493617"><ele>254.0</ele><time>2026-04-11T09:52:25.956Z</time></trkpt><trkpt lat="43.959455" lon="12.44945"><ele>254.0</ele><time>2026-04-11T09:52:26.955Z</time></trkpt><trkpt lat="43.9594267" lon="12.4495483"><ele>254.0</ele><time>2026-04-11T09:52:27.955Z</time></trkpt><trkpt lat="43.9593983" lon="12.449655"><ele>254.0</ele><time>2026-04-11T09:52:28.955Z</time></trkpt><trkpt lat="43.9593717" lon="12.4497533"><ele>254.0</ele><time>2026-04-11T09:52:29.955Z</time></trkpt><trkpt lat="43.9593467" lon="12.4498467"><ele>254.0</ele><time>2026-04-11T09:52:30.956Z</time></trkpt><trkpt lat="43.95933" lon="12.449935"><ele>252.6</ele><time>2026-04-11T09:52:31.955Z</time></trkpt><trkpt lat="43.9593183" lon="12.4500217"><ele>251.2</ele><time>2026-04-11T09:52:32.955Z</time></trkpt><trkpt lat="43.9593233" lon="12.4501967"><ele>249.79999999999998</ele><time>2026-04-11T09:52:34.955Z</time></trkpt><trkpt lat="43.9593283" lon="12.4502917"><ele>248.39999999999998</ele><time>2026-04-11T09:52:35.955Z</time></trkpt><trkpt lat="43.9593267" lon="12.4503917"><ele>247.0</ele><time>2026-04-11T09:52:36.955Z</time></trkpt><trkpt lat="43.9593267" lon="12.4505583"><ele>247.49999999999997</ele><time>2026-04-11T09:52:38.955Z</time></trkpt><trkpt lat="43.9593183" lon="12.4507117"><ele>248.0</ele><time>2026-04-11T09:52:40.955Z</time></trkpt><trkpt lat="43.9593117" lon="12.4508417"><ele>248.5</ele><time>2026-04-11T09:52:42.955Z</time></trkpt><trkpt lat="43.95927" lon="12.4509267"><ele>249.0</ele><time>2026-04-11T09:52:44.955Z</time></trkpt><trkpt lat="43.9592017" lon="12.4509817"><ele>249.49999999999997</ele><time>2026-04-11T09:52:48.955Z</time></trkpt><trkpt lat="43.9591367" lon="12.45102"><ele>250.0</ele><time>2026-04-11T09:52:51.955Z</time></trkpt><trkpt lat="43.9590383" lon="12.4510417"><ele>250.0</ele><time>2026-04-11T09:52:56.955Z</time></trkpt><trkpt lat="43.95893" lon="12.4510883"><ele>250.0</ele><time>2026-04-11T09:52:58.955Z</time></trkpt><trkpt lat="43.95886" lon="12.451155"><ele>250.0</ele><time>2026-04-11T09:52:59.955Z</time></trkpt><trkpt lat="43.9587883" lon="12.451235"><ele>250.0</ele><time>2026-04-11T09:53:00.955Z</time></trkpt><trkpt lat="43.9587167" lon="12.4513333"><ele>250.0</ele><time>2026-04-11T09:53:01.956Z</time></trkpt><trkpt lat="43.9586433" lon="12.451445"><ele>247.8</ele><time>2026-04-11T09:53:02.956Z</time></trkpt><trkpt lat="43.9585733" lon="12.45156"><ele>245.6</ele><time>2026-04-11T09:53:03.956Z</time></trkpt><trkpt lat="43.9584983" lon="12.451665"><ele>243.39999999999998</ele><time>2026-04-11T09:53:04.955Z</time></trkpt><trkpt lat="43.9584233" lon="12.4517817"><ele>241.2</ele><time>2026-04-11T09:53:05.955Z</time></trkpt><trkpt lat="43.9583483" lon="12.45189"><ele>239.0</ele><time>2026-04-11T09:53:06.955Z</time></trkpt><trkpt lat="43.9582767" lon="12.4519933"><ele>238.50000000000003</ele><time>2026-04-11T09:53:07.955Z</time></trkpt><trkpt lat="43.9582217" lon="12.4520767"><ele>238.0</ele><time>2026-04-11T09:53:08.955Z</time></trkpt><trkpt lat="43.9581717" lon="12.4521517"><ele>237.5</ele><time>2026-04-11T09:53:09.955Z</time></trkpt><trkpt lat="43.9581033" lon="12.4522767"><ele>237.0</ele><time>2026-04-11T09:53:11.955Z</time></trkpt><trkpt lat="43.9581133" lon="12.4524117"><ele>236.50000000000003</ele><time>2026-04-11T09:53:13.956Z</time></trkpt><trkpt lat="43.958145" lon="12.452495"><ele>236.0</ele><time>2026-04-11T09:53:14.955Z</time></trkpt><trkpt lat="43.9581833" lon="12.4525917"><ele>233.60000000000002</ele><time>2026-04-11T09:53:15.955Z</time></trkpt><trkpt lat="43.9582333" lon="12.4527083"><ele>231.20000000000002</ele><time>2026-04-11T09:53:16.955Z</time></trkpt><trkpt lat="43.95829" lon="12.45284"><ele>228.79999999999998</ele><time>2026-04-11T09:53:17.955Z</time></trkpt><trkpt lat="43.9583617" lon="12.4529683"><ele>226.39999999999998</ele><time>2026-04-11T09:53:18.956Z</time></trkpt><trkpt lat="43.95845" lon="12.4530883"><ele>224.0</ele><time>2026-04-11T09:53:19.955Z</time></trkpt><trkpt lat="43.9585333" lon="12.4532083"><ele>222.25</ele><time>2026-04-11T09:53:20.956Z</time></trkpt><trkpt lat="43.9586217" lon="12.4533017"><ele>220.5</ele><time>2026-04-11T09:53:21.955Z</time></trkpt><trkpt lat="43.9587183" lon="12.45337"><ele>218.75</ele><time>2026-04-11T09:53:22.956Z</time></trkpt><trkpt lat="43.958835" lon="12.4534083"><ele>217.0</ele><time>2026-04-11T09:53:23.955Z</time></trkpt><trkpt lat="43.9589633" lon="12.453435"><ele>217.0</ele><time>2026-04-11T09:53:24.955Z</time></trkpt><trkpt lat="43.959095" lon="12.4534617"><ele>217.0</ele><time>2026-04-11T09:53:25.956Z</time></trkpt><trkpt lat="43.959235" lon="12.4535"><ele>217.0</ele><time>2026-04-11T09:53:26.955Z</time></trkpt><trkpt lat="43.9593717" lon="12.4535367"><ele>217.0</ele><time>2026-04-11T09:53:27.955Z</time></trkpt><trkpt lat="43.959515" lon="12.4535833"><ele>217.5</ele><time>2026-04-11T09:53:28.955Z</time></trkpt><trkpt lat="43.9596383" lon="12.45365"><ele>218.0</ele><time>2026-04-11T09:53:29.955Z</time></trkpt><trkpt lat="43.9597533" lon="12.45375"><ele>218.5</ele><time>2026-04-11T09:53:30.955Z</time></trkpt><trkpt lat="43.95986" lon="12.45387"><ele>219.0</ele><time>2026-04-11T09:53:31.955Z</time></trkpt><trkpt lat="43.9599633" lon="12.4539833"><ele>215.6</ele><time>2026-04-11T09:53:32.955Z</time></trkpt><trkpt lat="43.9600733" lon="12.4540633"><ele>212.2</ele><time>2026-04-11T09:53:33.955Z</time></trkpt><trkpt lat="43.9601833" lon="12.4540917"><ele>208.79999999999998</ele><time>2026-04-11T09:53:34.955Z</time></trkpt><trkpt lat="43.9602817" lon="12.4540733"><ele>205.39999999999998</ele><time>2026-04-11T09:53:35.956Z</time></trkpt><trkpt lat="43.9603817" lon="12.45403"><ele>202.0</ele><time>2026-04-11T09:53:36.955Z</time></trkpt><trkpt lat="43.9604683" lon="12.453985"><ele>202.0</ele><time>2026-04-11T09:53:37.955Z</time></trkpt><trkpt lat="43.9605533" lon="12.4539567"><ele>202.0</ele><time>2026-04-11T09:53:38.955Z</time></trkpt><trkpt lat="43.9606433" lon="12.4539733"><ele>202.0</ele><time>2026-04-11T09:53:39.955Z</time></trkpt><trkpt lat="43.96074" lon="12.45404"><ele>202.0</ele><time>2026-04-11T09:53:40.955Z</time></trkpt><trkpt lat="43.960835" lon="12.4541467"><ele>202.0</ele><time>2026-04-11T09:53:41.955Z</time></trkpt><trkpt lat="43.960915" lon="12.4542767"><ele>198.75</ele><time>2026-04-11T09:53:42.955Z</time></trkpt><trkpt lat="43.9609917" lon="12.45442"><ele>195.5</ele><time>2026-04-11T09:53:43.955Z</time></trkpt><trkpt lat="43.9610667" lon="12.45459"><ele>192.25</ele><time>2026-04-11T09:53:44.955Z</time></trkpt><trkpt lat="43.9611283" lon="12.4547767"><ele>189.0</ele><time>2026-04-11T09:53:45.955Z</time></trkpt><trkpt lat="43.9612017" lon="12.4549683"><ele>188.33333333333334</ele><time>2026-04-11T09:53:46.955Z</time></trkpt><trkpt lat="43.96128" lon="12.4551717"><ele>187.66666666666669</ele><time>2026-04-11T09:53:47.956Z</time></trkpt><trkpt lat="43.9613533" lon="12.455355"><ele>187.0</ele><time>2026-04-11T09:53:48.956Z</time></trkpt><trkpt lat="43.9614183" lon="12.4555283"><ele>187.0</ele><time>2026-04-11T09:53:49.955Z</time></trkpt><trkpt lat="43.9614783" lon="12.4556933"><ele>187.0</ele><time>2026-04-11T09:53:50.955Z</time></trkpt><trkpt lat="43.9615417" lon="12.455845"><ele>187.0</ele><time>2026-04-11T09:53:51.955Z</time></trkpt><trkpt lat="43.9616083" lon="12.45601"><ele>187.0</ele><time>2026-04-11T09:53:52.955Z</time></trkpt><trkpt lat="43.961675" lon="12.4561817"><ele>183.75</ele><time>2026-04-11T09:53:53.955Z</time></trkpt><trkpt lat="43.9617417" lon="12.4563583"><ele>180.5</ele><time>2026-04-11T09:53:54.955Z</time></trkpt><trkpt lat="43.9618067" lon="12.4565367"><ele>177.25</ele><time>2026-04-11T09:53:55.955Z</time></trkpt><trkpt lat="43.9618733" lon="12.4566933"><ele>174.0</ele><time>2026-04-11T09:53:56.955Z</time></trkpt><trkpt lat="43.9619517" lon="12.45682"><ele>174.0</ele><time>2026-04-11T09:53:57.955Z</time></trkpt><trkpt lat="43.9620467" lon="12.456925"><ele>174.0</ele><time>2026-04-11T09:53:58.955Z</time></trkpt><trkpt lat="43.9621617" lon="12.4570217"><ele>174.0</ele><time>2026-04-11T09:53:59.956Z</time></trkpt><trkpt lat="43.9622883" lon="12.45709"><ele>174.0</ele><time>2026-04-11T09:54:00.955Z</time></trkpt><trkpt lat="43.962435" lon="12.4571233"><ele>170.39999999999998</ele><time>2026-04-11T09:54:01.955Z</time></trkpt><trkpt lat="43.9625567" lon="12.4571633"><ele>166.79999999999998</ele><time>2026-04-11T09:54:02.955Z</time></trkpt><trkpt lat="43.9626667" lon="12.4572217"><ele>163.2</ele><time>2026-04-11T09:54:03.955Z</time></trkpt><trkpt lat="43.9627667" lon="12.457275"><ele>159.6</ele><time>2026-04-11T09:54:04.955Z</time></trkpt><trkpt lat="43.9628533" lon="12.4573217"><ele>156.0</ele><time>2026-04-11T09:54:05.955Z</time></trkpt><trkpt lat="43.9629267" lon="12.4573517"><ele>156.0</ele><time>2026-04-11T09:54:06.955Z</time></trkpt><trkpt lat="43.9630167" lon="12.457405"><ele>156.0</ele><time>2026-04-11T09:54:08.956Z</time></trkpt><trkpt lat="43.962945" lon="12.4574767"><ele>156.0</ele><time>2026-04-11T09:54:11.955Z</time></trkpt><trkpt lat="43.962885" lon="12.4575183"><ele>156.0</ele><time>2026-04-11T09:54:12.955Z</time></trkpt><trkpt lat="43.9628333" lon="12.457585"><ele>156.0</ele><time>2026-04-11T09:54:13.955Z</time></trkpt><trkpt lat="43.9628217" lon="12.4577683"><ele>156.0</ele><time>2026-04-11T09:54:15.955Z</time></trkpt><trkpt lat="43.96288" lon="12.457855"><ele>156.0</ele><time>2026-04-11T09:54:16.955Z</time></trkpt><trkpt lat="43.9629533" lon="12.4579417"><ele>156.0</ele><time>2026-04-11T09:54:17.955Z</time></trkpt><trkpt lat="43.9630567" lon="12.4579883"><ele>156.0</ele><time>2026-04-11T09:54:18.955Z</time></trkpt><trkpt lat="43.9631667" lon="12.458005"><ele>156.0</ele><time>2026-04-11T09:54:19.955Z</time></trkpt><trkpt lat="43.9632717" lon="12.458025"><ele>155.6</ele><time>2026-04-11T09:54:20.955Z</time></trkpt><trkpt lat="43.963355" lon="12.4580517"><ele>155.2</ele><time>2026-04-11T09:54:21.955Z</time></trkpt><trkpt lat="43.963385" lon="12.4581817"><ele>154.8</ele><time>2026-04-11T09:54:23.955Z</time></trkpt><trkpt lat="43.963285" lon="12.45829"><ele>154.4</ele><time>2026-04-11T09:54:25.956Z</time></trkpt><trkpt lat="43.96319" lon="12.45832"><ele>154.0</ele><time>2026-04-11T09:54:26.956Z</time></trkpt><trkpt lat="43.96309" lon="12.4583717"><ele>157.0</ele><time>2026-04-11T09:54:27.955Z</time></trkpt><trkpt lat="43.9629917" lon="12.4584583"><ele>160.0</ele><time>2026-04-11T09:54:28.955Z</time></trkpt><trkpt lat="43.9629033" lon="12.4585833"><ele>163.0</ele><time>2026-04-11T09:54:29.955Z</time></trkpt><trkpt lat="43.9628267" lon="12.4587533"><ele>166.0</ele><time>2026-04-11T09:54:30.955Z</time></trkpt><trkpt lat="43.9627433" lon="12.458915"><ele>168.25</ele><time>2026-04-11T09:54:31.955Z</time></trkpt><trkpt lat="43.9626667" lon="12.45909"><ele>170.5</ele><time>2026-04-11T09:54:32.955Z</time></trkpt><trkpt lat="43.9626" lon="12.4592733"><ele>172.75</ele><time>2026-04-11T09:54:33.955Z</time></trkpt><trkpt lat="43.962555" lon="12.4594717"><ele>175.0</ele><time>2026-04-11T09:54:34.955Z</time></trkpt><trkpt lat="43.9625033" lon="12.4596533"><ele>179.25</ele><time>2026-04-11T09:54:35.955Z</time></trkpt><trkpt lat="43.962455" lon="12.4598133"><ele>183.5</ele><time>2026-04-11T09:54:36.955Z</time></trkpt><trkpt lat="43.9624" lon="12.4599683"><ele>187.75</ele><time>2026-04-11T09:54:37.956Z</time></trkpt><trkpt lat="43.9623417" lon="12.460105"><ele>192.0</ele><time>2026-04-11T09:54:38.955Z</time></trkpt><trkpt lat="43.9622917" lon="12.4602333"><ele>192.0</ele><time>2026-04-11T09:54:39.955Z</time></trkpt><trkpt lat="43.962235" lon="12.4603367"><ele>192.0</ele><time>2026-04-11T09:54:40.955Z</time></trkpt><trkpt lat="43.962175" lon="12.4604517"><ele>192.0</ele><time>2026-04-11T09:54:41.956Z</time></trkpt><trkpt lat="43.96213" lon="12.460555"><ele>192.0</ele><time>2026-04-11T09:54:42.955Z</time></trkpt><trkpt lat="43.9621033" lon="12.4606367"><ele>192.0</ele><time>2026-04-11T09:54:43.955Z</time></trkpt><trkpt lat="43.96212" lon="12.46079"><ele>192.8</ele><time>2026-04-11T09:54:45.955Z</time></trkpt><trkpt lat="43.9621817" lon="12.4609067"><ele>193.6</ele><time>2026-04-11T09:54:47.955Z</time></trkpt><trkpt lat="43.9622367" lon="12.4609567"><ele>194.4</ele><time>2026-04-11T09:54:48.955Z</time></trkpt><trkpt lat="43.96231" lon="12.4610167"><ele>195.20000000000002</ele><time>2026-04-11T09:54:49.956Z</time></trkpt><trkpt lat="43.962385" lon="12.4611017"><ele>196.0</ele><time>2026-04-11T09:54:50.955Z</time></trkpt><trkpt lat="43.962475" lon="12.4611967"><ele>192.75</ele><time>2026-04-11T09:54:51.955Z</time></trkpt><trkpt lat="43.9625767" lon="12.4613"><ele>189.5</ele><time>2026-04-11T09:54:52.955Z</time></trkpt><trkpt lat="43.9626817" lon="12.46138"><ele>186.25</ele><time>2026-04-11T09:54:53.956Z</time></trkpt><trkpt lat="43.96279" lon="12.4614367"><ele>183.0</ele><time>2026-04-11T09:54:54.955Z</time></trkpt><trkpt lat="43.9629033" lon="12.4614733"><ele>183.0</ele><time>2026-04-11T09:54:55.955Z</time></trkpt><trkpt lat="43.9630017" lon="12.4614933"><ele>183.0</ele><time>2026-04-11T09:54:56.955Z</time></trkpt><trkpt lat="43.9630967" lon="12.46152"><ele>183.0</ele><time>2026-04-11T09:54:57.955Z</time></trkpt><trkpt lat="43.9631817" lon="12.4615767"><ele>183.0</ele><time>2026-04-11T09:54:58.955Z</time></trkpt><trkpt lat="43.9632583" lon="12.4616533"><ele>183.0</ele><time>2026-04-11T09:54:59.956Z</time></trkpt><trkpt lat="43.96333" lon="12.4617483"><ele>180.25</ele><time>2026-04-11T09:55:00.955Z</time></trkpt><trkpt lat="43.9633983" lon="12.461865"><ele>177.5</ele><time>2026-04-11T09:55:01.956Z</time></trkpt><trkpt lat="43.963465" lon="12.4619983"><ele>174.75</ele><time>2026-04-11T09:55:02.955Z</time></trkpt><trkpt lat="43.9635417" lon="12.4621333"><ele>172.0</ele><time>2026-04-11T09:55:03.955Z</time></trkpt><trkpt lat="43.96362" lon="12.4622467"><ele>172.0</ele><time>2026-04-11T09:55:04.956Z</time></trkpt><trkpt lat="43.9636967" lon="12.462345"><ele>172.0</ele><time>2026-04-11T09:55:05.955Z</time></trkpt><trkpt lat="43.9637667" lon="12.462445"><ele>172.0</ele><time>2026-04-11T09:55:06.955Z</time></trkpt><trkpt lat="43.9638333" lon="12.4625267"><ele>172.0</ele><time>2026-04-11T09:55:07.955Z</time></trkpt><trkpt lat="43.9639033" lon="12.4626"><ele>172.0</ele><time>2026-04-11T09:55:08.955Z</time></trkpt><trkpt lat="43.96398" lon="12.4626567"><ele>172.0</ele><time>2026-04-11T09:55:09.955Z</time></trkpt><trkpt lat="43.964055" lon="12.4627167"><ele>172.0</ele><time>2026-04-11T09:55:10.955Z</time></trkpt><trkpt lat="43.9641233" lon="12.4627817"><ele>172.0</ele><time>2026-04-11T09:55:11.955Z</time></trkpt><trkpt lat="43.964195" lon="12.4628517"><ele>172.0</ele><time>2026-04-11T09:55:12.956Z</time></trkpt><trkpt lat="43.964275" lon="12.462925"><ele>172.0</ele><time>2026-04-11T09:55:13.956Z</time></trkpt><trkpt lat="43.964365" lon="12.463005"><ele>169.4</ele><time>2026-04-11T09:55:14.956Z</time></trkpt><trkpt lat="43.9644417" lon="12.4630733"><ele>166.79999999999998</ele><time>2026-04-11T09:55:15.955Z</time></trkpt><trkpt lat="43.9645233" lon="12.4631317"><ele>164.2</ele><time>2026-04-11T09:55:16.955Z</time></trkpt><trkpt lat="43.9646117" lon="12.4631667"><ele>161.6</ele><time>2026-04-11T09:55:17.956Z</time></trkpt><trkpt lat="43.9647033" lon="12.46318"><ele>159.0</ele><time>2026-04-11T09:55:18.955Z</time></trkpt><trkpt lat="43.9648083" lon="12.46317"><ele>159.0</ele><time>2026-04-11T09:55:19.956Z</time></trkpt><trkpt lat="43.964895" lon="12.4631433"><ele>159.0</ele><time>2026-04-11T09:55:20.955Z</time></trkpt><trkpt lat="43.9649733" lon="12.4631383"><ele>159.0</ele><time>2026-04-11T09:55:21.955Z</time></trkpt><trkpt lat="43.9650433" lon="12.4631517"><ele>159.0</ele><time>2026-04-11T09:55:22.956Z</time></trkpt><trkpt lat="43.9651183" lon="12.4631867"><ele>159.0</ele><time>2026-04-11T09:55:23.955Z</time></trkpt><trkpt lat="43.96516" lon="12.4632633"><ele>159.0</ele><time>2026-04-11T09:55:24.955Z</time></trkpt><trkpt lat="43.9652083" lon="12.4633533"><ele>157.14285714285714</ele><time>2026-04-11T09:55:25.955Z</time></trkpt><trkpt lat="43.9652517" lon="12.463455"><ele>155.2857142857143</ele><time>2026-04-11T09:55:26.955Z</time></trkpt><trkpt lat="43.9652883" lon="12.4635533"><ele>153.42857142857144</ele><time>2026-04-11T09:55:27.955Z</time></trkpt><trkpt lat="43.9653217" lon="12.4636467"><ele>151.57142857142856</ele><time>2026-04-11T09:55:28.955Z</time></trkpt><trkpt lat="43.965355" lon="12.4637283"><ele>149.71428571428572</ele><time>2026-04-11T09:55:29.955Z</time></trkpt><trkpt lat="43.96539" lon="12.4638067"><ele>147.85714285714286</ele><time>2026-04-11T09:55:30.955Z</time></trkpt><trkpt lat="43.9654383" lon="12.4638683"><ele>146.0</ele><time>2026-04-11T09:55:31.955Z</time></trkpt><trkpt lat="43.9655" lon="12.4639133"><ele>145.5</ele><time>2026-04-11T09:55:32.955Z</time></trkpt><trkpt lat="43.9655717" lon="12.463945"><ele>145.0</ele><time>2026-04-11T09:55:33.955Z</time></trkpt><trkpt lat="43.9656517" lon="12.4639767"><ele>144.5</ele><time>2026-04-11T09:55:34.955Z</time></trkpt><trkpt lat="43.965735" lon="12.464015"><ele>144.0</ele><time>2026-04-11T09:55:35.955Z</time></trkpt><trkpt lat="43.965815" lon="12.4640483"><ele>143.5</ele><time>2026-04-11T09:55:36.955Z</time></trkpt><trkpt lat="43.9658817" lon="12.464095"><ele>143.0</ele><time>2026-04-11T09:55:37.955Z</time></trkpt><trkpt lat="43.9659367" lon="12.4641517"><ele>141.33333333333331</ele><time>2026-04-11T09:55:38.955Z</time></trkpt><trkpt lat="43.9659867" lon="12.4642133"><ele>139.66666666666666</ele><time>2026-04-11T09:55:39.955Z</time></trkpt><trkpt lat="43.9660433" lon="12.464275"><ele>138.0</ele><time>2026-04-11T09:55:40.955Z</time></trkpt><trkpt lat="43.96616" lon="12.4643333"><ele>136.33333333333334</ele><time>2026-04-11T09:55:42.955Z</time></trkpt><trkpt lat="43.9662317" lon="12.46433"><ele>134.66666666666669</ele><time>2026-04-11T09:55:43.955Z</time></trkpt><trkpt lat="43.9663183" lon="12.464315"><ele>133.0</ele><time>2026-04-11T09:55:44.955Z</time></trkpt><trkpt lat="43.9664133" lon="12.4643033"><ele>133.0</ele><time>2026-04-11T09:55:45.955Z</time></trkpt><trkpt lat="43.9665183" lon="12.4642817"><ele>133.0</ele><time>2026-04-11T09:55:46.955Z</time></trkpt><trkpt lat="43.9666267" lon="12.4642633"><ele>133.0</ele><time>2026-04-11T09:55:47.956Z</time></trkpt><trkpt lat="43.96673" lon="12.4642533"><ele>133.0</ele><time>2026-04-11T09:55:48.955Z</time></trkpt><trkpt lat="43.9668417" lon="12.4642383"><ele>133.0</ele><time>2026-04-11T09:55:49.955Z</time></trkpt><trkpt lat="43.9669483" lon="12.464225"><ele>130.8</ele><time>2026-04-11T09:55:50.955Z</time></trkpt><trkpt lat="43.9670567" lon="12.464235"><ele>128.60000000000002</ele><time>2026-04-11T09:55:51.956Z</time></trkpt><trkpt lat="43.96716" lon="12.4642583"><ele>126.39999999999999</ele><time>2026-04-11T09:55:52.955Z</time></trkpt><trkpt lat="43.9672533" lon="12.4643167"><ele>124.19999999999999</ele><time>2026-04-11T09:55:53.955Z</time></trkpt><trkpt lat="43.967345" lon="12.464365"><ele>122.0</ele><time>2026-04-11T09:55:54.955Z</time></trkpt><trkpt lat="43.967435" lon="12.4643883"><ele>122.0</ele><time>2026-04-11T09:55:55.955Z</time></trkpt><trkpt lat="43.9675167" lon="12.4644167"><ele>121.99999999999999</ele><time>2026-04-11T09:55:56.955Z</time></trkpt><trkpt lat="43.967605" lon="12.4644317"><ele>121.99999999999999</ele><time>2026-04-11T09:55:57.956Z</time></trkpt><trkpt lat="43.9677" lon="12.46443"><ele>122.0</ele><time>2026-04-11T09:55:58.955Z</time></trkpt><trkpt lat="43.9678033" lon="12.4644167"><ele>122.0</ele><time>2026-04-11T09:55:59.955Z</time></trkpt><trkpt lat="43.9679017" lon="12.4643983"><ele>122.19999999999999</ele><time>2026-04-11T09:56:00.955Z</time></trkpt><trkpt lat="43.9680017" lon="12.4643717"><ele>122.39999999999999</ele><time>2026-04-11T09:56:01.956Z</time></trkpt><trkpt lat="43.9681083" lon="12.464345"><ele>122.60000000000001</ele><time>2026-04-11T09:56:02.955Z</time></trkpt><trkpt lat="43.9682083" lon="12.46431"><ele>122.80000000000001</ele><time>2026-04-11T09:56:03.955Z</time></trkpt><trkpt lat="43.9683067" lon="12.46428"><ele>123.0</ele><time>2026-04-11T09:56:04.956Z</time></trkpt><trkpt lat="43.9683867" lon="12.4642467"><ele>123.0</ele><time>2026-04-11T09:56:05.955Z</time></trkpt><trkpt lat="43.9684533" lon="12.46422"><ele>123.0</ele><time>2026-04-11T09:56:06.955Z</time></trkpt><trkpt lat="43.9685183" lon="12.4642083"><ele>123.0</ele><time>2026-04-11T09:56:07.955Z</time></trkpt><trkpt lat="43.968575" lon="12.46425"><ele>123.0</ele><time>2026-04-11T09:56:08.955Z</time></trkpt><trkpt lat="43.9686283" lon="12.4643283"><ele>123.0</ele><time>2026-04-11T09:56:09.955Z</time></trkpt><trkpt lat="43.9686767" lon="12.4644333"><ele>123.0</ele><time>2026-04-11T09:56:10.954Z</time></trkpt><trkpt lat="43.96874" lon="12.464545"><ele>121.80000000000001</ele><time>2026-04-11T09:56:11.954Z</time></trkpt><trkpt lat="43.9688017" lon="12.4646583"><ele>120.60000000000001</ele><time>2026-04-11T09:56:12.954Z</time></trkpt><trkpt lat="43.968845" lon="12.4648"><ele>119.39999999999999</ele><time>2026-04-11T09:56:13.954Z</time></trkpt><trkpt lat="43.9688617" lon="12.4649517"><ele>118.19999999999999</ele><time>2026-04-11T09:56:14.954Z</time></trkpt><trkpt lat="43.9688517" lon="12.46512"><ele>117.0</ele><time>2026-04-11T09:56:15.954Z</time></trkpt><trkpt lat="43.9688233" lon="12.4652883"><ele>117.0</ele><time>2026-04-11T09:56:16.955Z</time></trkpt><trkpt lat="43.9687867" lon="12.4654633"><ele>117.0</ele><time>2026-04-11T09:56:17.954Z</time></trkpt><trkpt lat="43.9687567" lon="12.4656383"><ele>117.0</ele><time>2026-04-11T09:56:18.954Z</time></trkpt><trkpt lat="43.96872" lon="12.4658167"><ele>117.0</ele><time>2026-04-11T09:56:19.954Z</time></trkpt><trkpt lat="43.9686983" lon="12.4659967"><ele>117.0</ele><time>2026-04-11T09:56:20.955Z</time></trkpt><trkpt lat="43.968675" lon="12.4661767"><ele>117.0</ele><time>2026-04-11T09:56:21.954Z</time></trkpt><trkpt lat="43.968645" lon="12.4663533"><ele>117.0</ele><time>2026-04-11T09:56:22.954Z</time></trkpt><trkpt lat="43.9685983" lon="12.46654"><ele>117.0</ele><time>2026-04-11T09:56:23.954Z</time></trkpt><trkpt lat="43.96855" lon="12.4667317"><ele>115.75</ele><time>2026-04-11T09:56:24.954Z</time></trkpt><trkpt lat="43.968505" lon="12.4669167"><ele>114.5</ele><time>2026-04-11T09:56:25.954Z</time></trkpt><trkpt lat="43.9684667" lon="12.4670983"><ele>113.25</ele><time>2026-04-11T09:56:26.955Z</time></trkpt><trkpt lat="43.9684317" lon="12.46729"><ele>112.0</ele><time>2026-04-11T09:56:27.954Z</time></trkpt><trkpt lat="43.9684" lon="12.4674817"><ele>111.0</ele><time>2026-04-11T09:56:28.954Z</time></trkpt><trkpt lat="43.9683667" lon="12.4676733"><ele>110.0</ele><time>2026-04-11T09:56:29.954Z</time></trkpt><trkpt lat="43.9683383" lon="12.46787"><ele>109.0</ele><time>2026-04-11T09:56:30.954Z</time></trkpt><trkpt lat="43.9683383" lon="12.4680667"><ele>108.0</ele><time>2026-04-11T09:56:31.954Z</time></trkpt><trkpt lat="43.9683483" lon="12.4682817"><ele>108.0</ele><time>2026-04-11T09:56:32.954Z</time></trkpt><trkpt lat="43.9683617" lon="12.4685017"><ele>108.0</ele><time>2026-04-11T09:56:33.954Z</time></trkpt><trkpt lat="43.9683817" lon="12.4687067"><ele>108.0</ele><time>2026-04-11T09:56:34.954Z</time></trkpt><trkpt lat="43.968395" lon="12.468915"><ele>108.25</ele><time>2026-04-11T09:56:35.954Z</time></trkpt><trkpt lat="43.968405" lon="12.4691117"><ele>108.5</ele><time>2026-04-11T09:56:36.954Z</time></trkpt><trkpt lat="43.9684033" lon="12.4693133"><ele>108.75</ele><time>2026-04-11T09:56:37.955Z</time></trkpt><trkpt lat="43.9683983" lon="12.4695233"><ele>109.0</ele><time>2026-04-11T09:56:38.954Z</time></trkpt><trkpt lat="43.9683767" lon="12.4697383"><ele>108.25</ele><time>2026-04-11T09:56:39.954Z</time></trkpt><trkpt lat="43.9683467" lon="12.469935"><ele>107.5</ele><time>2026-04-11T09:56:40.954Z</time></trkpt><trkpt lat="43.9682867" lon="12.4701217"><ele>106.75</ele><time>2026-04-11T09:56:41.954Z</time></trkpt><trkpt lat="43.9682017" lon="12.4702833"><ele>106.0</ele><time>2026-04-11T09:56:42.954Z</time></trkpt><trkpt lat="43.9681017" lon="12.470435"><ele>105.5</ele><time>2026-04-11T09:56:43.954Z</time></trkpt><trkpt lat="43.9680033" lon="12.470575"><ele>105.0</ele><time>2026-04-11T09:56:44.954Z</time></trkpt><trkpt lat="43.967925" lon="12.4707217"><ele>104.5</ele><time>2026-04-11T09:56:45.954Z</time></trkpt><trkpt lat="43.9678667" lon="12.47088"><ele>104.0</ele><time>2026-04-11T09:56:46.955Z</time></trkpt><trkpt lat="43.96783" lon="12.4710317"><ele>104.0</ele><time>2026-04-11T09:56:47.954Z</time></trkpt><trkpt lat="43.9678283" lon="12.4711733"><ele>104.0</ele><time>2026-04-11T09:56:48.954Z</time></trkpt><trkpt lat="43.96786" lon="12.4713033"><ele>104.0</ele><time>2026-04-11T09:56:49.954Z</time></trkpt><trkpt lat="43.9679267" lon="12.4714067"><ele>104.0</ele><time>2026-04-11T09:56:50.955Z</time></trkpt><trkpt lat="43.9680133" lon="12.4714917"><ele>104.0</ele><time>2026-04-11T09:56:51.955Z</time></trkpt><trkpt lat="43.9681067" lon="12.471575"><ele>104.0</ele><time>2026-04-11T09:56:52.954Z</time></trkpt><trkpt lat="43.96822" lon="12.4716667"><ele>104.0</ele><time>2026-04-11T09:56:53.954Z</time></trkpt><trkpt lat="43.9683367" lon="12.4717483"><ele>104.0</ele><time>2026-04-11T09:56:54.955Z</time></trkpt><trkpt lat="43.9684483" lon="12.471835"><ele>104.0</ele><time>2026-04-11T09:56:55.954Z</time></trkpt><trkpt lat="43.9685633" lon="12.4719217"><ele>104.0</ele><time>2026-04-11T09:56:56.954Z</time></trkpt><trkpt lat="43.968665" lon="12.4720467"><ele>104.0</ele><time>2026-04-11T09:56:57.955Z</time></trkpt><trkpt lat="43.9687217" lon="12.47219"><ele>104.0</ele><time>2026-04-11T09:56:58.954Z</time></trkpt><trkpt lat="43.9687567" lon="12.47236"><ele>104.0</ele><time>2026-04-11T09:56:59.954Z</time></trkpt><trkpt lat="43.9687517" lon="12.47254"><ele>103.25</ele><time>2026-04-11T09:57:00.954Z</time></trkpt><trkpt lat="43.9687367" lon="12.472725"><ele>102.5</ele><time>2026-04-11T09:57:01.954Z</time></trkpt><trkpt lat="43.968725" lon="12.4729067"><ele>101.75</ele><time>2026-04-11T09:57:02.954Z</time></trkpt><trkpt lat="43.968735" lon="12.4730983"><ele>101.0</ele><time>2026-04-11T09:57:03.954Z</time></trkpt><trkpt lat="43.9687467" lon="12.4732983"><ele>101.0</ele><time>2026-04-11T09:57:04.954Z</time></trkpt><trkpt lat="43.9687883" lon="12.4734917"><ele>101.0</ele><time>2026-04-11T09:57:05.954Z</time></trkpt><trkpt lat="43.96884" lon="12.473645"><ele>101.0</ele><time>2026-04-11T09:57:06.955Z</time></trkpt><trkpt lat="43.968875" lon="12.47375"><ele>101.0</ele><time>2026-04-11T09:57:07.954Z</time></trkpt><trkpt lat="43.9689083" lon="12.47384"><ele>101.0</ele><time>2026-04-11T09:57:09.955Z</time></trkpt><trkpt lat="43.968955" lon="12.4739617"><ele>101.16666666666666</ele><time>2026-04-11T09:57:11.955Z</time></trkpt><trkpt lat="43.96898" lon="12.4740517"><ele>101.33333333333333</ele><time>2026-04-11T09:57:12.955Z</time></trkpt><trkpt lat="43.969" lon="12.4741533"><ele>101.5</ele><time>2026-04-11T09:57:13.954Z</time></trkpt><trkpt lat="43.9690317" lon="12.4742667"><ele>101.66666666666666</ele><time>2026-04-11T09:57:14.954Z</time></trkpt><trkpt lat="43.9690683" lon="12.4743833"><ele>101.83333333333333</ele><time>2026-04-11T09:57:15.954Z</time></trkpt><trkpt lat="43.96911" lon="12.4744967"><ele>102.0</ele><time>2026-04-11T09:57:16.954Z</time></trkpt><trkpt lat="43.969155" lon="12.4746067"><ele>102.28571428571429</ele><time>2026-04-11T09:57:17.954Z</time></trkpt><trkpt lat="43.969195" lon="12.4747133"><ele>102.57142857142858</ele><time>2026-04-11T09:57:18.954Z</time></trkpt><trkpt lat="43.9692283" lon="12.4748167"><ele>102.85714285714286</ele><time>2026-04-11T09:57:19.954Z</time></trkpt><trkpt lat="43.9692567" lon="12.4749217"><ele>103.14285714285714</ele><time>2026-04-11T09:57:20.955Z</time></trkpt><trkpt lat="43.969295" lon="12.4749967"><ele>103.42857142857143</ele><time>2026-04-11T09:57:21.954Z</time></trkpt><trkpt lat="43.96935" lon="12.4750483"><ele>103.71428571428571</ele><time>2026-04-11T09:57:22.955Z</time></trkpt><trkpt lat="43.9694117" lon="12.47508"><ele>104.0</ele><time>2026-04-11T09:57:23.954Z</time></trkpt><trkpt lat="43.96948" lon="12.4751"><ele>103.99999999999999</ele><time>2026-04-11T09:57:24.954Z</time></trkpt><trkpt lat="43.9695383" lon="12.475135"><ele>104.0</ele><time>2026-04-11T09:57:25.954Z</time></trkpt><trkpt lat="43.969605" lon="12.4752683"><ele>104.0</ele><time>2026-04-11T09:57:27.954Z</time></trkpt><trkpt lat="43.969635" lon="12.47537"><ele>104.0</ele><time>2026-04-11T09:57:28.955Z</time></trkpt><trkpt lat="43.9696683" lon="12.4754867"><ele>103.99999999999999</ele><time>2026-04-11T09:57:29.954Z</time></trkpt><trkpt lat="43.9697067" lon="12.4755983"><ele>104.0</ele><time>2026-04-11T09:57:30.954Z</time></trkpt><trkpt lat="43.9697533" lon="12.4757167"><ele>104.0</ele><time>2026-04-11T09:57:31.954Z</time></trkpt><trkpt lat="43.9697983" lon="12.475835"><ele>104.0</ele><time>2026-04-11T09:57:32.954Z</time></trkpt><trkpt lat="43.9698483" lon="12.47595"><ele>104.0</ele><time>2026-04-11T09:57:33.954Z</time></trkpt><trkpt lat="43.9698983" lon="12.4760617"><ele>104.0</ele><time>2026-04-11T09:57:34.954Z</time></trkpt><trkpt lat="43.9699417" lon="12.476175"><ele>104.0</ele><time>2026-04-11T09:57:35.955Z</time></trkpt><trkpt lat="43.9699867" lon="12.47628"><ele>103.0</ele><time>2026-04-11T09:57:36.954Z</time></trkpt><trkpt lat="43.9700283" lon="12.476395"><ele>102.0</ele><time>2026-04-11T09:57:37.955Z</time></trkpt><trkpt lat="43.9700767" lon="12.476505"><ele>101.0</ele><time>2026-04-11T09:57:38.954Z</time></trkpt><trkpt lat="43.9701183" lon="12.4766233"><ele>100.0</ele><time>2026-04-11T09:57:39.954Z</time></trkpt><trkpt lat="43.9701617" lon="12.4767433"><ele>99.0</ele><time>2026-04-11T09:57:40.954Z</time></trkpt><trkpt lat="43.9702017" lon="12.476885"><ele>99.0</ele><time>2026-04-11T09:57:41.954Z</time></trkpt><trkpt lat="43.97024" lon="12.4770283"><ele>99.0</ele><time>2026-04-11T09:57:42.954Z</time></trkpt><trkpt lat="43.9702783" lon="12.4771767"><ele>99.0</ele><time>2026-04-11T09:57:43.954Z</time></trkpt><trkpt lat="43.970315" lon="12.4773233"><ele>99.0</ele><time>2026-04-11T09:57:44.954Z</time></trkpt><trkpt lat="43.9703517" lon="12.477485"><ele>98.75</ele><time>2026-04-11T09:57:45.954Z</time></trkpt><trkpt lat="43.9704" lon="12.4776433"><ele>98.5</ele><time>2026-04-11T09:57:46.954Z</time></trkpt><trkpt lat="43.9704483" lon="12.477795"><ele>98.25</ele><time>2026-04-11T09:57:47.954Z</time></trkpt><trkpt lat="43.9705117" lon="12.4779317"><ele>98.0</ele><time>2026-04-11T09:57:48.954Z</time></trkpt><trkpt lat="43.970575" lon="12.47805"><ele>97.4</ele><time>2026-04-11T09:57:49.954Z</time></trkpt><trkpt lat="43.9706433" lon="12.4781517"><ele>96.80000000000001</ele><time>2026-04-11T09:57:50.954Z</time></trkpt><trkpt lat="43.9707133" lon="12.4782283"><ele>96.2</ele><time>2026-04-11T09:57:51.954Z</time></trkpt><trkpt lat="43.9707817" lon="12.478305"><ele>95.6</ele><time>2026-04-11T09:57:52.954Z</time></trkpt><trkpt lat="43.970855" lon="12.4783817"><ele>95.0</ele><time>2026-04-11T09:57:53.954Z</time></trkpt><trkpt lat="43.970935" lon="12.4784567"><ele>95.0</ele><time>2026-04-11T09:57:54.954Z</time></trkpt><trkpt lat="43.9710167" lon="12.478525"><ele>95.0</ele><time>2026-04-11T09:57:55.954Z</time></trkpt><trkpt lat="43.9711017" lon="12.47859"><ele>95.0</ele><time>2026-04-11T09:57:56.954Z</time></trkpt><trkpt lat="43.9711917" lon="12.47865"><ele>95.0</ele><time>2026-04-11T09:57:57.954Z</time></trkpt><trkpt lat="43.9712933" lon="12.4786983"><ele>95.0</ele><time>2026-04-11T09:57:58.954Z</time></trkpt><trkpt lat="43.971395" lon="12.47876"><ele>94.0</ele><time>2026-04-11T09:57:59.954Z</time></trkpt><trkpt lat="43.9715067" lon="12.4788217"><ele>93.0</ele><time>2026-04-11T09:58:00.954Z</time></trkpt><trkpt lat="43.9715983" lon="12.4788933"><ele>92.0</ele><time>2026-04-11T09:58:01.954Z</time></trkpt><trkpt lat="43.9716983" lon="12.478985"><ele>91.0</ele><time>2026-04-11T09:58:02.954Z</time></trkpt><trkpt lat="43.971775" lon="12.4791017"><ele>90.8</ele><time>2026-04-11T09:58:03.954Z</time></trkpt><trkpt lat="43.9718433" lon="12.47922"><ele>90.6</ele><time>2026-04-11T09:58:04.954Z</time></trkpt><trkpt lat="43.9718967" lon="12.47934"><ele>90.4</ele><time>2026-04-11T09:58:05.954Z</time></trkpt><trkpt lat="43.9719533" lon="12.4794717"><ele>90.2</ele><time>2026-04-11T09:58:06.955Z</time></trkpt><trkpt lat="43.9719983" lon="12.4796067"><ele>90.0</ele><time>2026-04-11T09:58:07.954Z</time></trkpt><trkpt lat="43.97204" lon="12.4797367"><ele>89.16666666666667</ele><time>2026-04-11T09:58:08.954Z</time></trkpt><trkpt lat="43.972075" lon="12.479865"><ele>88.33333333333333</ele><time>2026-04-11T09:58:09.954Z</time></trkpt><trkpt lat="43.9721117" lon="12.4799867"><ele>87.5</ele><time>2026-04-11T09:58:10.954Z</time></trkpt><trkpt lat="43.97215" lon="12.4800933"><ele>86.66666666666666</ele><time>2026-04-11T09:58:11.955Z</time></trkpt><trkpt lat="43.97218" lon="12.4801867"><ele>85.83333333333333</ele><time>2026-04-11T09:58:12.954Z</time></trkpt><trkpt lat="43.97221" lon="12.4802833"><ele>85.0</ele><time>2026-04-11T09:58:13.954Z</time></trkpt><trkpt lat="43.9722433" lon="12.4803783"><ele>85.0</ele><time>2026-04-11T09:58:14.954Z</time></trkpt><trkpt lat="43.97227" lon="12.48048"><ele>85.0</ele><time>2026-04-11T09:58:15.955Z</time></trkpt><trkpt lat="43.9723" lon="12.4805867"><ele>85.0</ele><time>2026-04-11T09:58:16.954Z</time></trkpt><trkpt lat="43.9723333" lon="12.480695"><ele>85.0</ele><time>2026-04-11T09:58:17.954Z</time></trkpt><trkpt lat="43.9723683" lon="12.48082"><ele>85.0</ele><time>2026-04-11T09:58:18.955Z</time></trkpt><trkpt lat="43.9724083" lon="12.4809517"><ele>85.0</ele><time>2026-04-11T09:58:19.955Z</time></trkpt><trkpt lat="43.9724383" lon="12.4810783"><ele>85.0</ele><time>2026-04-11T09:58:20.954Z</time></trkpt><trkpt lat="43.9724667" lon="12.48121"><ele>85.0</ele><time>2026-04-11T09:58:21.954Z</time></trkpt><trkpt lat="43.9724933" lon="12.481335"><ele>85.0</ele><time>2026-04-11T09:58:22.954Z</time></trkpt><trkpt lat="43.9725317" lon="12.4814583"><ele>85.0</ele><time>2026-04-11T09:58:23.954Z</time></trkpt><trkpt lat="43.972555" lon="12.4815767"><ele>85.0</ele><time>2026-04-11T09:58:24.954Z</time></trkpt><trkpt lat="43.9725867" lon="12.4816917"><ele>84.5</ele><time>2026-04-11T09:58:25.955Z</time></trkpt><trkpt lat="43.9726167" lon="12.4818"><ele>84.0</ele><time>2026-04-11T09:58:26.954Z</time></trkpt><trkpt lat="43.972645" lon="12.4819017"><ele>83.5</ele><time>2026-04-11T09:58:27.955Z</time></trkpt><trkpt lat="43.9726633" lon="12.48199"><ele>83.0</ele><time>2026-04-11T09:58:28.954Z</time></trkpt><trkpt lat="43.972685" lon="12.4821117"><ele>82.5</ele><time>2026-04-11T09:58:30.954Z</time></trkpt><trkpt lat="43.9726683" lon="12.4822183"><ele>82.0</ele><time>2026-04-11T09:58:32.954Z</time></trkpt><trkpt lat="43.9726317" lon="12.4823133"><ele>82.0</ele><time>2026-04-11T09:58:34.954Z</time></trkpt><trkpt lat="43.9725233" lon="12.4824183"><ele>82.0</ele><time>2026-04-11T09:58:36.954Z</time></trkpt><trkpt lat="43.9724433" lon="12.4824683"><ele>82.0</ele><time>2026-04-11T09:58:37.955Z</time></trkpt><trkpt lat="43.9723533" lon="12.4825183"><ele>82.0</ele><time>2026-04-11T09:58:38.954Z</time></trkpt><trkpt lat="43.9722683" lon="12.4825567"><ele>82.0</ele><time>2026-04-11T09:58:39.954Z</time></trkpt><trkpt lat="43.972185" lon="12.4826017"><ele>82.66666666666666</ele><time>2026-04-11T09:58:40.955Z</time></trkpt><trkpt lat="43.9721" lon="12.4826417"><ele>83.33333333333333</ele><time>2026-04-11T09:58:41.954Z</time></trkpt><trkpt lat="43.9720133" lon="12.4826733"><ele>84.0</ele><time>2026-04-11T09:58:42.954Z</time></trkpt><trkpt lat="43.9719267" lon="12.4826983"><ele>84.66666666666667</ele><time>2026-04-11T09:58:43.954Z</time></trkpt><trkpt lat="43.971845" lon="12.4827167"><ele>85.33333333333334</ele><time>2026-04-11T09:58:44.954Z</time></trkpt><trkpt lat="43.9717633" lon="12.4827233"><ele>86.0</ele><time>2026-04-11T09:58:45.954Z</time></trkpt><trkpt lat="43.9716833" lon="12.4827183"><ele>87.25</ele><time>2026-04-11T09:58:46.954Z</time></trkpt><trkpt lat="43.971585" lon="12.4827467"><ele>88.5</ele><time>2026-04-11T09:58:47.954Z</time></trkpt><trkpt lat="43.9715283" lon="12.48299"><ele>89.75</ele><time>2026-04-11T09:58:49.955Z</time></trkpt><trkpt lat="43.97154" lon="12.48313"><ele>91.0</ele><time>2026-04-11T09:58:51.954Z</time></trkpt><trkpt lat="43.97168" lon="12.4831767"><ele>89.8</ele><time>2026-04-11T09:58:53.954Z</time></trkpt><trkpt lat="43.9717633" lon="12.4832"><ele>88.6</ele><time>2026-04-11T09:58:54.954Z</time></trkpt><trkpt lat="43.971855" lon="12.4832267"><ele>87.4</ele><time>2026-04-11T09:58:55.954Z</time></trkpt><trkpt lat="43.9719533" lon="12.4832433"><ele>86.2</ele><time>2026-04-11T09:58:56.954Z</time></trkpt><trkpt lat="43.972055" lon="12.4832533"><ele>85.0</ele><time>2026-04-11T09:58:57.954Z</time></trkpt><trkpt lat="43.97215" lon="12.48327"><ele>85.0</ele><time>2026-04-11T09:58:58.955Z</time></trkpt><trkpt lat="43.97225" lon="12.4832933"><ele>85.0</ele><time>2026-04-11T09:58:59.955Z</time></trkpt><trkpt lat="43.9723517" lon="12.4833167"><ele>85.0</ele><time>2026-04-11T09:59:00.954Z</time></trkpt><trkpt lat="43.9724517" lon="12.4833483"><ele>85.0</ele><time>2026-04-11T09:59:01.954Z</time></trkpt><trkpt lat="43.9725517" lon="12.4833867"><ele>85.0</ele><time>2026-04-11T09:59:02.954Z</time></trkpt><trkpt lat="43.9726483" lon="12.48346"><ele>83.8</ele><time>2026-04-11T09:59:03.954Z</time></trkpt><trkpt lat="43.9727417" lon="12.4835517"><ele>82.6</ele><time>2026-04-11T09:59:04.954Z</time></trkpt><trkpt lat="43.97283" lon="12.4836533"><ele>81.4</ele><time>2026-04-11T09:59:05.954Z</time></trkpt><trkpt lat="43.9729133" lon="12.4837767"><ele>80.2</ele><time>2026-04-11T09:59:06.954Z</time></trkpt><trkpt lat="43.9729867" lon="12.4838683"><ele>79.0</ele><time>2026-04-11T09:59:07.954Z</time></trkpt><trkpt lat="43.973045" lon="12.4839383"><ele>79.0</ele><time>2026-04-11T09:59:08.954Z</time></trkpt><trkpt lat="43.973145" lon="12.4839917"><ele>79.0</ele><time>2026-04-11T09:59:10.954Z</time></trkpt><trkpt lat="43.9732283" lon="12.4840267"><ele>79.0</ele><time>2026-04-11T09:59:14.954Z</time></trkpt><trkpt lat="43.9733267" lon="12.484135"><ele>79.0</ele><time>2026-04-11T09:59:16.954Z</time></trkpt><trkpt lat="43.9733967" lon="12.484215"><ele>79.0</ele><time>2026-04-11T09:59:17.954Z</time></trkpt><trkpt lat="43.9734717" lon="12.4843233"><ele>79.25</ele><time>2026-04-11T09:59:18.954Z</time></trkpt><trkpt lat="43.9735533" lon="12.48443"><ele>79.5</ele><time>2026-04-11T09:59:19.954Z</time></trkpt><trkpt lat="43.9736283" lon="12.4845517"><ele>79.75</ele><time>2026-04-11T09:59:20.955Z</time></trkpt><trkpt lat="43.97372" lon="12.4846633"><ele>80.0</ele><time>2026-04-11T09:59:21.954Z</time></trkpt><trkpt lat="43.97382" lon="12.4847833"><ele>80.0</ele><time>2026-04-11T09:59:22.954Z</time></trkpt><trkpt lat="43.97392" lon="12.484915"><ele>80.0</ele><time>2026-04-11T09:59:23.954Z</time></trkpt><trkpt lat="43.9740217" lon="12.48504"><ele>80.0</ele><time>2026-04-11T09:59:24.954Z</time></trkpt><trkpt lat="43.97412" lon="12.48516"><ele>80.0</ele><time>2026-04-11T09:59:25.954Z</time></trkpt><trkpt lat="43.9742133" lon="12.4852817"><ele>80.0</ele><time>2026-04-11T09:59:26.955Z</time></trkpt><trkpt lat="43.9742983" lon="12.4854017"><ele>80.0</ele><time>2026-04-11T09:59:27.955Z</time></trkpt><trkpt lat="43.9743833" lon="12.48551"><ele>80.0</ele><time>2026-04-11T09:59:28.954Z</time></trkpt><trkpt lat="43.97446" lon="12.485615"><ele>80.0</ele><time>2026-04-11T09:59:29.955Z</time></trkpt><trkpt lat="43.9745433" lon="12.485705"><ele>80.0</ele><time>2026-04-11T09:59:30.954Z</time></trkpt><trkpt lat="43.9746183" lon="12.48578"><ele>80.0</ele><time>2026-04-11T09:59:31.954Z</time></trkpt><trkpt lat="43.97469" lon="12.4858417"><ele>80.0</ele><time>2026-04-11T09:59:32.954Z</time></trkpt><trkpt lat="43.9747667" lon="12.485895"><ele>80.0</ele><time>2026-04-11T09:59:33.954Z</time></trkpt><trkpt lat="43.9748433" lon="12.485945"><ele>80.0</ele><time>2026-04-11T09:59:34.954Z</time></trkpt><trkpt lat="43.9749283" lon="12.486"><ele>80.0</ele><time>2026-04-11T09:59:35.954Z</time></trkpt><trkpt lat="43.97501" lon="12.486055"><ele>80.0</ele><time>2026-04-11T09:59:36.954Z</time></trkpt><trkpt lat="43.9750883" lon="12.4861083"><ele>80.0</ele><time>2026-04-11T09:59:37.954Z</time></trkpt><trkpt lat="43.9751867" lon="12.4861467"><ele>80.0</ele><time>2026-04-11T09:59:38.954Z</time></trkpt><trkpt lat="43.9752933" lon="12.4861783"><ele>80.0</ele><time>2026-04-11T09:59:39.954Z</time></trkpt><trkpt lat="43.9754033" lon="12.4862267"><ele>80.0</ele><time>2026-04-11T09:59:40.954Z</time></trkpt><trkpt lat="43.9755317" lon="12.4862667"><ele>79.25</ele><time>2026-04-11T09:59:41.955Z</time></trkpt><trkpt lat="43.9756533" lon="12.48633"><ele>78.5</ele><time>2026-04-11T09:59:42.954Z</time></trkpt><trkpt lat="43.9757833" lon="12.4864"><ele>77.75</ele><time>2026-04-11T09:59:43.954Z</time></trkpt><trkpt lat="43.9759217" lon="12.4864733"><ele>77.0</ele><time>2026-04-11T09:59:44.955Z</time></trkpt><trkpt lat="43.9760683" lon="12.4865467"><ele>77.0</ele><time>2026-04-11T09:59:45.954Z</time></trkpt><trkpt lat="43.9762117" lon="12.4866217"><ele>77.0</ele><time>2026-04-11T09:59:46.954Z</time></trkpt><trkpt lat="43.9763533" lon="12.48671"><ele>77.0</ele><time>2026-04-11T09:59:47.954Z</time></trkpt><trkpt lat="43.9765017" lon="12.486815"><ele>77.0</ele><time>2026-04-11T09:59:48.954Z</time></trkpt><trkpt lat="43.9766433" lon="12.4869267"><ele>77.0</ele><time>2026-04-11T09:59:49.954Z</time></trkpt><trkpt lat="43.9767867" lon="12.4870433"><ele>77.0</ele><time>2026-04-11T09:59:50.955Z</time></trkpt><trkpt lat="43.97692" lon="12.4871633"><ele>76.75</ele><time>2026-04-11T09:59:51.954Z</time></trkpt><trkpt lat="43.977045" lon="12.48727"><ele>76.5</ele><time>2026-04-11T09:59:52.954Z</time></trkpt><trkpt lat="43.977175" lon="12.487345"><ele>76.25</ele><time>2026-04-11T09:59:53.954Z</time></trkpt><trkpt lat="43.97728" lon="12.4874117"><ele>76.0</ele><time>2026-04-11T09:59:54.954Z</time></trkpt><trkpt lat="43.9773517" lon="12.4874683"><ele>76.0</ele><time>2026-04-11T09:59:55.954Z</time></trkpt><trkpt lat="43.977405" lon="12.487515"><ele>76.0</ele><time>2026-04-11T09:59:56.954Z</time></trkpt><trkpt lat="43.9774717" lon="12.4876083"><ele>76.0</ele><time>2026-04-11T09:59:59.954Z</time></trkpt><trkpt lat="43.9774783" lon="12.4877783"><ele>76.0</ele><time>2026-04-11T10:00:01.955Z</time></trkpt><trkpt lat="43.9774783" lon="12.487905"><ele>76.0</ele><time>2026-04-11T10:00:02.954Z</time></trkpt><trkpt lat="43.9775017" lon="12.488025"><ele>77.5</ele><time>2026-04-11T10:00:03.954Z</time></trkpt><trkpt lat="43.97755" lon="12.4881467"><ele>79.0</ele><time>2026-04-11T10:00:04.954Z</time></trkpt><trkpt lat="43.9776317" lon="12.4882617"><ele>80.5</ele><time>2026-04-11T10:00:05.954Z</time></trkpt><trkpt lat="43.97774" lon="12.4883583"><ele>82.0</ele><time>2026-04-11T10:00:06.954Z</time></trkpt><trkpt lat="43.977845" lon="12.4884717"><ele>82.0</ele><time>2026-04-11T10:00:07.954Z</time></trkpt><trkpt lat="43.97796" lon="12.4885933"><ele>82.0</ele><time>2026-04-11T10:00:08.954Z</time></trkpt><trkpt lat="43.9780833" lon="12.488715"><ele>82.0</ele><time>2026-04-11T10:00:09.954Z</time></trkpt><trkpt lat="43.9782033" lon="12.4888483"><ele>82.0</ele><time>2026-04-11T10:00:10.954Z</time></trkpt><trkpt lat="43.97832" lon="12.4890017"><ele>81.66666666666666</ele><time>2026-04-11T10:00:11.954Z</time></trkpt><trkpt lat="43.9784483" lon="12.4891383"><ele>81.33333333333333</ele><time>2026-04-11T10:00:12.954Z</time></trkpt><trkpt lat="43.9785767" lon="12.4892783"><ele>81.0</ele><time>2026-04-11T10:00:13.954Z</time></trkpt><trkpt lat="43.9787" lon="12.4894317"><ele>81.0</ele><time>2026-04-11T10:00:14.954Z</time></trkpt><trkpt lat="43.978835" lon="12.489575"><ele>81.0</ele><time>2026-04-11T10:00:15.954Z</time></trkpt><trkpt lat="43.97899" lon="12.4896933"><ele>81.0</ele><time>2026-04-11T10:00:16.955Z</time></trkpt><trkpt lat="43.979145" lon="12.489785"><ele>80.66666666666667</ele><time>2026-04-11T10:00:17.954Z</time></trkpt><trkpt lat="43.9792983" lon="12.4898683"><ele>80.33333333333334</ele><time>2026-04-11T10:00:18.954Z</time></trkpt><trkpt lat="43.9794483" lon="12.489935"><ele>80.0</ele><time>2026-04-11T10:00:19.954Z</time></trkpt><trkpt lat="43.97959" lon="12.4900067"><ele>80.0</ele><time>2026-04-11T10:00:20.954Z</time></trkpt><trkpt lat="43.9797167" lon="12.4900867"><ele>80.0</ele><time>2026-04-11T10:00:21.955Z</time></trkpt><trkpt lat="43.97985" lon="12.4901583"><ele>80.0</ele><time>2026-04-11T10:00:22.955Z</time></trkpt><trkpt lat="43.9799833" lon="12.4902117"><ele>80.0</ele><time>2026-04-11T10:00:23.954Z</time></trkpt><trkpt lat="43.9800983" lon="12.4903033"><ele>81.5</ele><time>2026-04-11T10:00:24.954Z</time></trkpt><trkpt lat="43.980235" lon="12.49039"><ele>83.0</ele><time>2026-04-11T10:00:25.954Z</time></trkpt><trkpt lat="43.9803483" lon="12.4905017"><ele>84.5</ele><time>2026-04-11T10:00:26.954Z</time></trkpt><trkpt lat="43.9804533" lon="12.4906117"><ele>86.0</ele><time>2026-04-11T10:00:27.954Z</time></trkpt><trkpt lat="43.9805567" lon="12.49071"><ele>85.25</ele><time>2026-04-11T10:00:28.954Z</time></trkpt><trkpt lat="43.9806633" lon="12.4907967"><ele>84.5</ele><time>2026-04-11T10:00:29.954Z</time></trkpt><trkpt lat="43.9807817" lon="12.4908783"><ele>83.75</ele><time>2026-04-11T10:00:30.953Z</time></trkpt><trkpt lat="43.9808933" lon="12.4909683"><ele>83.0</ele><time>2026-04-11T10:00:31.953Z</time></trkpt><trkpt lat="43.9809983" lon="12.4910583"><ele>83.0</ele><time>2026-04-11T10:00:32.954Z</time></trkpt><trkpt lat="43.9811133" lon="12.4911533"><ele>83.0</ele><time>2026-04-11T10:00:33.953Z</time></trkpt><trkpt lat="43.9812133" lon="12.491265"><ele>83.0</ele><time>2026-04-11T10:00:34.953Z</time></trkpt><trkpt lat="43.9813117" lon="12.4913867"><ele>83.0</ele><time>2026-04-11T10:00:35.953Z</time></trkpt><trkpt lat="43.98141" lon="12.4915083"><ele>80.5</ele><time>2026-04-11T10:00:36.953Z</time></trkpt><trkpt lat="43.9815083" lon="12.4916267"><ele>78.0</ele><time>2026-04-11T10:00:37.953Z</time></trkpt><trkpt lat="43.9815767" lon="12.49176"><ele>75.5</ele><time>2026-04-11T10:00:38.953Z</time></trkpt><trkpt lat="43.98164" lon="12.491905"><ele>73.0</ele><time>2026-04-11T10:00:39.954Z</time></trkpt><trkpt lat="43.9816783" lon="12.4920767"><ele>71.25</ele><time>2026-04-11T10:00:40.954Z</time></trkpt><trkpt lat="43.9817317" lon="12.4922333"><ele>69.5</ele><time>2026-04-11T10:00:41.953Z</time></trkpt><trkpt lat="43.9817767" lon="12.4924017"><ele>67.75</ele><time>2026-04-11T10:00:42.953Z</time></trkpt><trkpt lat="43.9818233" lon="12.4925383"><ele>66.0</ele><time>2026-04-11T10:00:43.953Z</time></trkpt><trkpt lat="43.9818767" lon="12.492665"><ele>66.0</ele><time>2026-04-11T10:00:44.953Z</time></trkpt><trkpt lat="43.9819333" lon="12.4927783"><ele>66.0</ele><time>2026-04-11T10:00:45.953Z</time></trkpt><trkpt lat="43.98198" lon="12.4928717"><ele>66.0</ele><time>2026-04-11T10:00:46.953Z</time></trkpt><trkpt lat="43.9820683" lon="12.49294"><ele>66.0</ele><time>2026-04-11T10:00:47.953Z</time></trkpt><trkpt lat="43.9821417" lon="12.4930217"><ele>66.0</ele><time>2026-04-11T10:00:48.953Z</time></trkpt><trkpt lat="43.9822167" lon="12.493105"><ele>65.25</ele><time>2026-04-11T10:00:49.953Z</time></trkpt><trkpt lat="43.9823183" lon="12.4931933"><ele>64.5</ele><time>2026-04-11T10:00:50.953Z</time></trkpt><trkpt lat="43.98242" lon="12.493285"><ele>63.75</ele><time>2026-04-11T10:00:51.953Z</time></trkpt><trkpt lat="43.9825117" lon="12.4933967"><ele>63.0</ele><time>2026-04-11T10:00:52.954Z</time></trkpt><trkpt lat="43.982595" lon="12.493515"><ele>63.5</ele><time>2026-04-11T10:00:53.953Z</time></trkpt><trkpt lat="43.9826733" lon="12.4936467"><ele>64.0</ele><time>2026-04-11T10:00:54.953Z</time></trkpt><trkpt lat="43.9827417" lon="12.4937683"><ele>64.5</ele><time>2026-04-11T10:00:55.954Z</time></trkpt><trkpt lat="43.982795" lon="12.4939067"><ele>65.0</ele><time>2026-04-11T10:00:56.953Z</time></trkpt><trkpt lat="43.982835" lon="12.4940567"><ele>65.0</ele><time>2026-04-11T10:00:57.953Z</time></trkpt><trkpt lat="43.9828567" lon="12.494215"><ele>65.0</ele><time>2026-04-11T10:00:58.953Z</time></trkpt><trkpt lat="43.9828983" lon="12.4943633"><ele>65.0</ele><time>2026-04-11T10:00:59.954Z</time></trkpt><trkpt lat="43.9829367" lon="12.4945233"><ele>65.0</ele><time>2026-04-11T10:01:00.953Z</time></trkpt><trkpt lat="43.98299" lon="12.4946733"><ele>64.75</ele><time>2026-04-11T10:01:01.953Z</time></trkpt><trkpt lat="43.98304" lon="12.4948367"><ele>64.5</ele><time>2026-04-11T10:01:02.954Z</time></trkpt><trkpt lat="43.9830883" lon="12.495"><ele>64.25</ele><time>2026-04-11T10:01:03.953Z</time></trkpt><trkpt lat="43.9831283" lon="12.4951617"><ele>64.0</ele><time>2026-04-11T10:01:04.953Z</time></trkpt><trkpt lat="43.983175" lon="12.4953183"><ele>63.25</ele><time>2026-04-11T10:01:05.954Z</time></trkpt><trkpt lat="43.9832383" lon="12.4954783"><ele>62.5</ele><time>2026-04-11T10:01:06.953Z</time></trkpt><trkpt lat="43.9832867" lon="12.495645"><ele>61.75</ele><time>2026-04-11T10:01:07.953Z</time></trkpt><trkpt lat="43.9833267" lon="12.4958083"><ele>61.0</ele><time>2026-04-11T10:01:08.953Z</time></trkpt><trkpt lat="43.9833467" lon="12.495985"><ele>61.0</ele><time>2026-04-11T10:01:09.953Z</time></trkpt><trkpt lat="43.9833433" lon="12.49617"><ele>61.0</ele><time>2026-04-11T10:01:10.953Z</time></trkpt><trkpt lat="43.98334" lon="12.4963333"><ele>61.0</ele><time>2026-04-11T10:01:11.953Z</time></trkpt><trkpt lat="43.9833717" lon="12.496485"><ele>61.0</ele><time>2026-04-11T10:01:12.953Z</time></trkpt><trkpt lat="43.983425" lon="12.4966333"><ele>60.75</ele><time>2026-04-11T10:01:13.953Z</time></trkpt><trkpt lat="43.9834983" lon="12.496775"><ele>60.5</ele><time>2026-04-11T10:01:14.953Z</time></trkpt><trkpt lat="43.9835933" lon="12.49691"><ele>60.25</ele><time>2026-04-11T10:01:15.954Z</time></trkpt><trkpt lat="43.983695" lon="12.4970467"><ele>60.0</ele><time>2026-04-11T10:01:16.953Z</time></trkpt><trkpt lat="43.9837983" lon="12.4971733"><ele>61.0</ele><time>2026-04-11T10:01:17.953Z</time></trkpt><trkpt lat="43.983915" lon="12.4973"><ele>62.0</ele><time>2026-04-11T10:01:18.953Z</time></trkpt><trkpt lat="43.9840333" lon="12.497425"><ele>63.0</ele><time>2026-04-11T10:01:19.953Z</time></trkpt><trkpt lat="43.98416" lon="12.4975467"><ele>62.0</ele><time>2026-04-11T10:01:20.953Z</time></trkpt><trkpt lat="43.98429" lon="12.4976717"><ele>61.0</ele><time>2026-04-11T10:01:21.953Z</time></trkpt><trkpt lat="43.98443" lon="12.4977917"><ele>60.0</ele><time>2026-04-11T10:01:22.953Z</time></trkpt><trkpt lat="43.9845617" lon="12.4979333"><ele>60.0</ele><time>2026-04-11T10:01:23.954Z</time></trkpt><trkpt lat="43.98466" lon="12.4981067"><ele>60.0</ele><time>2026-04-11T10:01:24.953Z</time></trkpt><trkpt lat="43.984755" lon="12.4983033"><ele>60.0</ele><time>2026-04-11T10:01:25.953Z</time></trkpt><trkpt lat="43.98484" lon="12.498505"><ele>60.0</ele><time>2026-04-11T10:01:26.953Z</time></trkpt><trkpt lat="43.9849333" lon="12.4987033"><ele>60.0</ele><time>2026-04-11T10:01:27.953Z</time></trkpt><trkpt lat="43.98504" lon="12.4988983"><ele>60.0</ele><time>2026-04-11T10:01:28.953Z</time></trkpt><trkpt lat="43.985155" lon="12.4990867"><ele>58.66666666666667</ele><time>2026-04-11T10:01:29.953Z</time></trkpt><trkpt lat="43.9852883" lon="12.49926"><ele>57.333333333333336</ele><time>2026-04-11T10:01:30.953Z</time></trkpt><trkpt lat="43.98544" lon="12.4994083"><ele>56.0</ele><time>2026-04-11T10:01:31.953Z</time></trkpt><trkpt lat="43.9856083" lon="12.49953"><ele>56.333333333333336</ele><time>2026-04-11T10:01:32.953Z</time></trkpt><trkpt lat="43.9857833" lon="12.49964"><ele>56.66666666666667</ele><time>2026-04-11T10:01:33.953Z</time></trkpt><trkpt lat="43.9859567" lon="12.499745"><ele>57.0</ele><time>2026-04-11T10:01:34.953Z</time></trkpt><trkpt lat="43.9861" lon="12.4998717"><ele>57.0</ele><time>2026-04-11T10:01:35.953Z</time></trkpt><trkpt lat="43.9862267" lon="12.500025"><ele>57.0</ele><time>2026-04-11T10:01:36.954Z</time></trkpt><trkpt lat="43.9863283" lon="12.5002017"><ele>57.0</ele><time>2026-04-11T10:01:37.954Z</time></trkpt><trkpt lat="43.9864033" lon="12.5004183"><ele>57.66666666666667</ele><time>2026-04-11T10:01:38.953Z</time></trkpt><trkpt lat="43.986435" lon="12.50065"><ele>58.333333333333336</ele><time>2026-04-11T10:01:39.954Z</time></trkpt><trkpt lat="43.9864383" lon="12.5008883"><ele>59.0</ele><time>2026-04-11T10:01:40.953Z</time></trkpt><trkpt lat="43.9864317" lon="12.501125"><ele>58.66666666666667</ele><time>2026-04-11T10:01:41.953Z</time></trkpt><trkpt lat="43.9864183" lon="12.501365"><ele>58.33333333333333</ele><time>2026-04-11T10:01:42.953Z</time></trkpt><trkpt lat="43.9864017" lon="12.5016283"><ele>58.0</ele><time>2026-04-11T10:01:43.953Z</time></trkpt><trkpt lat="43.98643" lon="12.5018717"><ele>57.0</ele><time>2026-04-11T10:01:44.953Z</time></trkpt><trkpt lat="43.9864933" lon="12.5021083"><ele>56.0</ele><time>2026-04-11T10:01:45.953Z</time></trkpt><trkpt lat="43.9865783" lon="12.50234"><ele>55.0</ele><time>2026-04-11T10:01:46.954Z</time></trkpt><trkpt lat="43.986685" lon="12.502555"><ele>55.0</ele><time>2026-04-11T10:01:47.953Z</time></trkpt><trkpt lat="43.9868" lon="12.5027617"><ele>55.0</ele><time>2026-04-11T10:01:48.953Z</time></trkpt><trkpt lat="43.9869067" lon="12.5029617"><ele>55.0</ele><time>2026-04-11T10:01:49.953Z</time></trkpt><trkpt lat="43.9870083" lon="12.503155"><ele>54.666666666666664</ele><time>2026-04-11T10:01:50.953Z</time></trkpt><trkpt lat="43.9871017" lon="12.5033333"><ele>54.33333333333333</ele><time>2026-04-11T10:01:51.953Z</time></trkpt><trkpt lat="43.9871933" lon="12.50351"><ele>54.0</ele><time>2026-04-11T10:01:52.954Z</time></trkpt><trkpt lat="43.98729" lon="12.50368"><ele>54.33333333333333</ele><time>2026-04-11T10:01:53.953Z</time></trkpt><trkpt lat="43.9873967" lon="12.5038467"><ele>54.666666666666664</ele><time>2026-04-11T10:01:54.953Z</time></trkpt><trkpt lat="43.9875" lon="12.5040183"><ele>55.0</ele><time>2026-04-11T10:01:55.953Z</time></trkpt><trkpt lat="43.987615" lon="12.50418"><ele>54.0</ele><time>2026-04-11T10:01:56.953Z</time></trkpt><trkpt lat="43.9877417" lon="12.5043483"><ele>53.0</ele><time>2026-04-11T10:01:57.953Z</time></trkpt><trkpt lat="43.9878733" lon="12.5044717"><ele>52.0</ele><time>2026-04-11T10:01:58.953Z</time></trkpt><trkpt lat="43.988015" lon="12.5045317"><ele>52.0</ele><time>2026-04-11T10:01:59.953Z</time></trkpt><trkpt lat="43.9881583" lon="12.5045217"><ele>52.0</ele><time>2026-04-11T10:02:00.953Z</time></trkpt><trkpt lat="43.9882883" lon="12.5044783"><ele>52.0</ele><time>2026-04-11T10:02:01.954Z</time></trkpt><trkpt lat="43.9884217" lon="12.504445"><ele>52.0</ele><time>2026-04-11T10:02:02.953Z</time></trkpt><trkpt lat="43.9885467" lon="12.5044583"><ele>52.0</ele><time>2026-04-11T10:02:03.953Z</time></trkpt><trkpt lat="43.9886733" lon="12.504515"><ele>52.0</ele><time>2026-04-11T10:02:04.953Z</time></trkpt><trkpt lat="43.9887867" lon="12.5046267"><ele>52.0</ele><time>2026-04-11T10:02:05.953Z</time></trkpt><trkpt lat="43.98888" lon="12.50477"><ele>52.0</ele><time>2026-04-11T10:02:06.953Z</time></trkpt><trkpt lat="43.9889583" lon="12.504935"><ele>53.0</ele><time>2026-04-11T10:02:07.953Z</time></trkpt><trkpt lat="43.9890117" lon="12.505105"><ele>54.0</ele><time>2026-04-11T10:02:08.953Z</time></trkpt><trkpt lat="43.9890133" lon="12.5052733"><ele>55.0</ele><time>2026-04-11T10:02:09.953Z</time></trkpt><trkpt lat="43.9889833" lon="12.5054117"><ele>56.0</ele><time>2026-04-11T10:02:10.953Z</time></trkpt><trkpt lat="43.9889317" lon="12.505535"><ele>57.5</ele><time>2026-04-11T10:02:11.953Z</time></trkpt><trkpt lat="43.98888" lon="12.50566"><ele>59.0</ele><time>2026-04-11T10:02:12.953Z</time></trkpt><trkpt lat="43.988835" lon="12.5058183"><ele>60.5</ele><time>2026-04-11T10:02:13.953Z</time></trkpt><trkpt lat="43.9887983" lon="12.5060017"><ele>62.0</ele><time>2026-04-11T10:02:14.953Z</time></trkpt><trkpt lat="43.9887567" lon="12.50619"><ele>61.75</ele><time>2026-04-11T10:02:15.953Z</time></trkpt><trkpt lat="43.9887083" lon="12.50637"><ele>61.5</ele><time>2026-04-11T10:02:16.953Z</time></trkpt><trkpt lat="43.9886667" lon="12.5065633"><ele>61.25</ele><time>2026-04-11T10:02:17.953Z</time></trkpt><trkpt lat="43.9886233" lon="12.5067517"><ele>61.0</ele><time>2026-04-11T10:02:18.954Z</time></trkpt><trkpt lat="43.9885733" lon="12.50694"><ele>61.5</ele><time>2026-04-11T10:02:19.954Z</time></trkpt><trkpt lat="43.9885333" lon="12.5071283"><ele>62.0</ele><time>2026-04-11T10:02:20.953Z</time></trkpt><trkpt lat="43.9884767" lon="12.5073267"><ele>62.5</ele><time>2026-04-11T10:02:21.953Z</time></trkpt><trkpt lat="43.988425" lon="12.5075267"><ele>63.0</ele><time>2026-04-11T10:02:22.953Z</time></trkpt><trkpt lat="43.9883733" lon="12.5077283"><ele>63.0</ele><time>2026-04-11T10:02:23.953Z</time></trkpt><trkpt lat="43.9883317" lon="12.507925"><ele>63.0</ele><time>2026-04-11T10:02:24.954Z</time></trkpt><trkpt lat="43.9882883" lon="12.508125"><ele>63.0</ele><time>2026-04-11T10:02:25.953Z</time></trkpt><trkpt lat="43.9882383" lon="12.508355"><ele>63.0</ele><time>2026-04-11T10:02:26.953Z</time></trkpt><trkpt lat="43.9881967" lon="12.5086033"><ele>63.0</ele><time>2026-04-11T10:02:27.954Z</time></trkpt><trkpt lat="43.9881383" lon="12.5088483"><ele>63.0</ele><time>2026-04-11T10:02:28.953Z</time></trkpt><trkpt lat="43.9880983" lon="12.5090867"><ele>63.33333333333333</ele><time>2026-04-11T10:02:29.954Z</time></trkpt><trkpt lat="43.9880583" lon="12.50931"><ele>63.666666666666664</ele><time>2026-04-11T10:02:30.953Z</time></trkpt><trkpt lat="43.9880083" lon="12.5095133"><ele>64.0</ele><time>2026-04-11T10:02:31.953Z</time></trkpt><trkpt lat="43.9879417" lon="12.5097083"><ele>64.25</ele><time>2026-04-11T10:02:32.953Z</time></trkpt><trkpt lat="43.9878517" lon="12.50987"><ele>64.5</ele><time>2026-04-11T10:02:33.953Z</time></trkpt><trkpt lat="43.9877617" lon="12.5099983"><ele>64.75</ele><time>2026-04-11T10:02:34.953Z</time></trkpt><trkpt lat="43.98765" lon="12.5101083"><ele>65.0</ele><time>2026-04-11T10:02:35.953Z</time></trkpt><trkpt lat="43.9875333" lon="12.510205"><ele>65.0</ele><time>2026-04-11T10:02:36.953Z</time></trkpt><trkpt lat="43.98741" lon="12.51029"><ele>65.0</ele><time>2026-04-11T10:02:37.953Z</time></trkpt><trkpt lat="43.9872733" lon="12.5103633"><ele>65.0</ele><time>2026-04-11T10:02:38.953Z</time></trkpt><trkpt lat="43.9871367" lon="12.510435"><ele>65.0</ele><time>2026-04-11T10:02:39.953Z</time></trkpt><trkpt lat="43.9870017" lon="12.5104967"><ele>65.0</ele><time>2026-04-11T10:02:40.953Z</time></trkpt><trkpt lat="43.986885" lon="12.5105367"><ele>65.0</ele><time>2026-04-11T10:02:41.954Z</time></trkpt><trkpt lat="43.9867567" lon="12.5105367"><ele>65.0</ele><time>2026-04-11T10:02:42.953Z</time></trkpt><trkpt lat="43.9866283" lon="12.51047"><ele>65.0</ele><time>2026-04-11T10:02:43.953Z</time></trkpt><trkpt lat="43.98651" lon="12.5103817"><ele>66.75</ele><time>2026-04-11T10:02:44.953Z</time></trkpt><trkpt lat="43.9863983" lon="12.51028"><ele>68.5</ele><time>2026-04-11T10:02:45.953Z</time></trkpt><trkpt lat="43.9862933" lon="12.51017"><ele>70.25</ele><time>2026-04-11T10:02:46.953Z</time></trkpt><trkpt lat="43.9861883" lon="12.51007"><ele>72.0</ele><time>2026-04-11T10:02:47.954Z</time></trkpt><trkpt lat="43.9860967" lon="12.509985"><ele>72.0</ele><time>2026-04-11T10:02:48.953Z</time></trkpt><trkpt lat="43.9860217" lon="12.5099467"><ele>72.0</ele><time>2026-04-11T10:02:49.953Z</time></trkpt><trkpt lat="43.9859283" lon="12.51005"><ele>72.0</ele><time>2026-04-11T10:02:51.953Z</time></trkpt><trkpt lat="43.98588" lon="12.51014"><ele>72.0</ele><time>2026-04-11T10:02:52.953Z</time></trkpt><trkpt lat="43.9858317" lon="12.5102533"><ele>72.0</ele><time>2026-04-11T10:02:53.953Z</time></trkpt><trkpt lat="43.9857783" lon="12.5103817"><ele>72.25</ele><time>2026-04-11T10:02:54.953Z</time></trkpt><trkpt lat="43.9857067" lon="12.510525"><ele>72.5</ele><time>2026-04-11T10:02:55.953Z</time></trkpt><trkpt lat="43.9856183" lon="12.5106617"><ele>72.75</ele><time>2026-04-11T10:02:56.953Z</time></trkpt><trkpt lat="43.9855233" lon="12.5107733"><ele>73.0</ele><time>2026-04-11T10:02:57.954Z</time></trkpt><trkpt lat="43.9854483" lon="12.5108783"><ele>73.0</ele><time>2026-04-11T10:02:58.954Z</time></trkpt><trkpt lat="43.9853767" lon="12.51097"><ele>73.0</ele><time>2026-04-11T10:02:59.953Z</time></trkpt><trkpt lat="43.98531" lon="12.5110533"><ele>73.0</ele><time>2026-04-11T10:03:00.953Z</time></trkpt><trkpt lat="43.9852383" lon="12.51112"><ele>73.0</ele><time>2026-04-11T10:03:01.954Z</time></trkpt><trkpt lat="43.9851767" lon="12.511175"><ele>73.0</ele><time>2026-04-11T10:03:02.953Z</time></trkpt><trkpt lat="43.9850733" lon="12.5111283"><ele>73.0</ele><time>2026-04-11T10:03:04.953Z</time></trkpt><trkpt lat="43.98502" lon="12.5110467"><ele>73.0</ele><time>2026-04-11T10:03:05.953Z</time></trkpt><trkpt lat="43.9849683" lon="12.5109383"><ele>73.0</ele><time>2026-04-11T10:03:06.953Z</time></trkpt><trkpt lat="43.9849167" lon="12.5108317"><ele>73.0</ele><time>2026-04-11T10:03:07.953Z</time></trkpt><trkpt lat="43.984875" lon="12.5107517"><ele>73.0</ele><time>2026-04-11T10:03:08.953Z</time></trkpt><trkpt lat="43.9849083" lon="12.5106133"><ele>73.0</ele><time>2026-04-11T10:03:10.953Z</time></trkpt><trkpt lat="43.9849933" lon="12.5105117"><ele>75.0</ele><time>2026-04-11T10:03:12.953Z</time></trkpt><trkpt lat="43.9850433" lon="12.5104333"><ele>73.0</ele><time>2026-04-11T10:03:14.953Z</time></trkpt></trkseg></trk></gpx>